Associations	CameraDirection	ConceptName	Depth	DiveNumber	HighdefTimeCode	Image	Latitude	Longitude	ObservationID_FK	Oxygen	RecordedDate	RovName	Salinity	TapeTimeCode	Temperature	class	family	genus	infraclass	infraorder	kingdom	order	phylum	species	subclass	subfamily	subkingdom	suborder	subphylum	superclass	superfamily	superkingdom	superorder	videoArchiveName
identity-reference | self | 1	descend	Tactostoma macropus	587.56	3160	 	http://search.mbari.org/ARCHIVE/frameGrabs/Ventana/images/3160/00_01_33_12.jpg	36.74951	-122.19781	20023618	0.39	48:28.0	Ventana	34.274	00:01:33:12	5.366	Osteichthyes	Stomiidae	Tactostoma	Neopterygii		Animalia	Stomiiformes	Chordata	Tactostoma macropus	Actinopterygii	Melanostomiinae			Vertebrata	Gnathostomata		Eukaryota	Stenopterygii	V3160-01
identity-reference | self | 1	descend	Tactostoma macropus	588.13	3160	 	http://search.mbari.org/ARCHIVE/frameGrabs/Ventana/images/3160/00_01_38_26.jpg	36.749516	-122.197815	20023619	0.39	48:34.0	Ventana	34.274	00:01:38:26	5.366	Osteichthyes	Stomiidae	Tactostoma	Neopterygii		Animalia	Stomiiformes	Chordata	Tactostoma macropus	Actinopterygii	Melanostomiinae			Vertebrata	Gnathostomata		Eukaryota	Stenopterygii	V3160-01
identity-reference | self | 1	descend	Tactostoma macropus	588.9	3160	 	http://search.mbari.org/ARCHIVE/frameGrabs/Ventana/images/3160/00_01_44_26.jpg	36.749523	-122.19782	20023620	0.39	48:40.0	Ventana	34.275	00:01:44:26	5.365	Osteichthyes	Stomiidae	Tactostoma	Neopterygii		Animalia	Stomiiformes	Chordata	Tactostoma macropus	Actinopterygii	Melanostomiinae			Vertebrata	Gnathostomata		Eukaryota	Stenopterygii	V3160-01
"sampled-by | Push Corer | nil, sample-reference | self | V3160-C40"	stationary	sediment	819.01	3160	02:14:18:17	http://search.mbari.org/ARCHIVE/frameGrabs/Ventana/images/3160/00_07_09_27.jpg	36.748898	-122.1972	20023621	0.29	07:40.0	Ventana	34.41	00:07:09:27	4.507																			V3160-01
"sampled-by | Push Corer | nil, sample-reference | self | V3160-C24"	stationary	sediment	819.24	3160	02:32:39:12	http://search.mbari.org/ARCHIVE/frameGrabs/Ventana/images/3160/00_25_32_23.jpg	36.748558	-122.19728	20023624	0.29	26:02.0	Ventana	34.412	00:25:32:23	4.509																			V3160-01
"sample-reference | self | V3160-C28, sampled-by | Push Corer | nil"	stationary	sediment	822.28	3160	02:42:43:09	http://search.mbari.org/ARCHIVE/frameGrabs/Ventana/images/3160/00_35_36_05.jpg	36.748558	-122.19787	20023626	0.29	36:07.0	Ventana	34.413	00:35:36:05	4.517																			V3160-01
"sampled-by | Push Corer | nil, sample-reference | self | V3160-C04"	stationary	sediment	826.15	3160	03:00:21:21	http://search.mbari.org/ARCHIVE/frameGrabs/Ventana/images/3160/00_53_14_17.jpg	36.7488	-122.19873	20023627	0.28	53:46.0	Ventana	34.413	00:53:14:17	4.52																			V3160-01
"sampled-by | Push Corer | nil, sample-reference | self | V3160-C06"	stationary	sediment	826.2	3160	03:01:36:04	http://search.mbari.org/ARCHIVE/frameGrabs/Ventana/images/3160/00_54_29_29.jpg	36.748806	-122.19871	20023629	0.29	55:01.0	Ventana	34.413	00:54:29:29	4.519																			V3160-01
"sampled-by | Push Corer | nil, sample-reference | self | V3160-C17"	stationary	sediment	823.72	3160	03:09:46:04	http://search.mbari.org/ARCHIVE/frameGrabs/Ventana/images/3160/01_02_12_06.jpg	36.74901	-122.19841	20023630	0.28	03:11.0	Ventana	34.414	01:02:12:06	4.523																			V3160-02
surface-color | self | white	transect	Gastropoda	823.24	3160	03:11:30:06	 	36.74908	-122.198296	2427431	0.28	05:20.0	Ventana	34.412	01:04:22:01	4.524	Gastropoda					Animalia		Mollusca									Eukaryota		V3160-02
surface-color | self | white	transect	Gastropoda	822.71	3160	03:12:30:19	 	36.749115	-122.19829	2427434	0.28	06:20.0	Ventana	34.412	01:05:22:16	4.525	Gastropoda					Animalia		Mollusca									Eukaryota		V3160-02
surface-color | self | white	transect	Gastropoda	822.59	3160	03:13:26:17	 	36.749153	-122.19823	2427439	0.28	07:17.0	Ventana	34.413	01:06:17:13	4.527	Gastropoda					Animalia		Mollusca									Eukaryota		V3160-02
surface-color | self | white	transect	Gastropoda	822.27	3160	03:14:13:00	 	36.749172	-122.19818	2427443	0.28	08:03.0	Ventana	34.412	01:07:03:17	4.528	Gastropoda					Animalia		Mollusca									Eukaryota		V3160-02
calibrated | self | bottom 2 = 22-23 cm (hard to see)	launch	lasers	 	3160	 	http://search.mbari.org/ARCHIVE/frameGrabs/Ventana/images/3160/00_00_54_05.jpg	 	 	2427496	 	 	Ventana	 	00:00:54:05	 																			V3160-01
comment | self | start SLC-2 transect A	starttransect	physical object	819.81	3160	02:11:11:21	 	36.749096	-122.19743	2427521	0.3	04:33.0	Ventana	34.41	00:04:04:15	4.51																			V3160-01
surface-color | self | white	transect	Gastropoda	819.73	3160	02:11:21:22	 	36.74908	-122.197426	2427534	0.3	04:43.0	Ventana	34.41	00:04:13:13	4.509	Gastropoda					Animalia		Mollusca									Eukaryota		V3160-01
surface-color | self | white	transect	Gastropoda	819.34	3160	02:11:55:20	 	36.749035	-122.19734	2427545	0.3	05:17.0	Ventana	34.412	00:04:48:19	4.507	Gastropoda					Animalia		Mollusca									Eukaryota		V3160-01
"sampled-by | Push Corer | nil, sample-reference | self | V3160-C05?"	stationary	sediment	819.01	3160	02:15:22:15	http://search.mbari.org/ARCHIVE/frameGrabs/Ventana/images/3160/00_08_15_10.jpg	36.748894	-122.19716	20023622	0.29	08:44.0	Ventana	34.41	00:08:15:10	4.508																			V3160-01
surface-color | self | white	transect	Gastropoda	818.55	3160	02:18:33:08	 	36.74883	-122.19722	2427960	0.29	11:56.0	Ventana	34.412	00:11:25:23	4.505	Gastropoda					Animalia		Mollusca									Eukaryota		V3160-01
surface-color | self | white	transect	Gastropoda	818.23	3160	02:18:43:08	 	36.748825	-122.19721	2427966	0.29	12:06.0	Ventana	34.412	00:11:35:13	4.505	Gastropoda					Animalia		Mollusca									Eukaryota		V3160-01
surface-color | self | white	transect	Gastropoda	818.36	3160	02:19:13:22	 	36.748806	-122.19718	2427977	0.29	12:36.0	Ventana	34.412	00:12:06:07	4.506	Gastropoda					Animalia		Mollusca									Eukaryota		V3160-01
surface-color | self | white	transect	Gastropoda	817.95	3160	02:19:59:21	 	36.748783	-122.19709	2428006	0.29	13:22.0	Ventana	34.413	00:12:51:18	4.506	Gastropoda					Animalia		Mollusca									Eukaryota		V3160-01
surface-color | self | white	transect	Gastropoda	817.84	3160	02:20:27:20	 	36.74874	-122.19704	2428016	0.29	13:50.0	Ventana	34.412	00:13:20:02	4.506	Gastropoda					Animalia		Mollusca									Eukaryota		V3160-01
surface-color | self | white	transect	Gastropoda	817.68	3160	02:20:40:04	 	36.748726	-122.19702	2428018	0.29	14:02.0	Ventana	34.411	00:13:32:07	4.506	Gastropoda					Animalia		Mollusca									Eukaryota		V3160-01
surface-color | self | white	transect	Gastropoda	817.64	3160	02:20:42:05	 	36.748722	-122.197014	2428020	0.29	14:04.0	Ventana	34.411	00:13:34:13	4.506	Gastropoda					Animalia		Mollusca									Eukaryota		V3160-01
surface-color | self | white	transect	Gastropoda	817.42	3160	02:21:40:03	 	36.74864	-122.19693	2428037	0.29	15:03.0	Ventana	34.413	00:14:33:00	4.506	Gastropoda					Animalia		Mollusca									Eukaryota		V3160-01
surface-color | self | white	transect	Gastropoda	816.84	3160	02:22:10:17	 	36.7486	-122.19689	2428051	0.29	15:33.0	Ventana	34.412	00:15:02:25	4.506	Gastropoda					Animalia		Mollusca									Eukaryota		V3160-01
surface-color | self | white	transect	Gastropoda	816.32	3160	02:23:10:15	 	36.748543	-122.196785	2428071	0.29	16:33.0	Ventana	34.412	00:16:02:24	4.507	Gastropoda					Animalia		Mollusca									Eukaryota		V3160-01
"sample-reference | self | V3160-C13, sampled-by | Push Corer | nil"	stationary	sediment	816.63	3160	02:24:34:27	http://search.mbari.org/ARCHIVE/frameGrabs/Ventana/images/3160/00_17_27_08.jpg	36.748516	-122.19675	20023623	0.29	17:57.0	Ventana	34.409	00:17:27:08	4.52																			V3160-01
surface-color | self | white	transect	Gastropoda	816.98	3160	02:28:10:06	 	36.748543	-122.196945	2428089	0.29	21:33.0	Ventana	34.413	00:21:03:08	4.509	Gastropoda					Animalia		Mollusca									Eukaryota		V3160-01
surface-color | self | white	transect	Gastropoda	817.87	3160	02:29:38:18	 	36.74853	-122.19706	2428094	0.29	23:01.0	Ventana	34.413	00:22:30:13	4.507	Gastropoda					Animalia		Mollusca									Eukaryota		V3160-01
surface-color | self | white	transect	Gastropoda	818	3160	02:29:40:18	 	36.74853	-122.19707	2428095	0.29	23:03.0	Ventana	34.413	00:22:33:04	4.507	Gastropoda					Animalia		Mollusca									Eukaryota		V3160-01
surface-color | self | white	transect	Gastropoda	818.17	3160	02:30:36:16	 	36.748547	-122.19714	2428098	0.29	23:59.0	Ventana	34.412	00:23:29:04	4.508	Gastropoda					Animalia		Mollusca									Eukaryota		V3160-01
"sampled-by | Push Corer | nil, sample-reference | self | V3160-C18"	stationary	sediment	819.22	3160	02:33:37:11	http://search.mbari.org/ARCHIVE/frameGrabs/Ventana/images/3160/00_26_30_21.jpg	36.748547	-122.19729	20023625	0.29	27:01.0	Ventana	34.413	00:26:30:21	4.509																			V3160-01
surface-color | self | white	transect	Gastropoda	820.35	3160	02:39:16:15	 	36.748592	-122.19755	2428169	0.29	32:40.0	Ventana	34.413	00:32:09:14	4.514	Gastropoda					Animalia		Mollusca									Eukaryota		V3160-01
comment | self | brown bottle	transect	trash	820.35	3160	02:39:22:15	http://search.mbari.org/ARCHIVE/frameGrabs/Ventana/images/3160/00_32_14_11.jpg	36.748592	-122.19756	2428180	0.29	32:46.0	Ventana	34.413	00:32:14:11	4.514																			V3160-01
surface-color | self | white	transect	Gastropoda	820.69	3160	02:39:52:14	 	36.74857	-122.19762	2428209	0.29	33:16.0	Ventana	34.413	00:32:45:11	4.514	Gastropoda					Animalia		Mollusca									Eukaryota		V3160-01
surface-color | self | white	transect	Gastropoda	821.47	3160	02:41:12:26	 	36.748554	-122.19777	2428225	0.29	34:36.0	Ventana	34.413	00:34:06:13	4.516	Gastropoda					Animalia		Mollusca									Eukaryota		V3160-01
surface-color | self | white	transect	Gastropoda	821.86	3160	02:41:49:11	 	36.748558	-122.19784	2428237	0.29	35:13.0	Ventana	34.413	00:34:42:01	4.514	Gastropoda					Animalia		Mollusca									Eukaryota		V3160-01
surface-color | self | white	transect	Gastropoda	822.43	3160	02:44:52:05	 	36.748642	-122.19789	2428280	0.28	38:16.0	Ventana	34.413	00:37:44:28	4.516	Gastropoda					Animalia		Mollusca									Eukaryota		V3160-01
surface-color | self | white	transect	Gastropoda	822.58	3160	02:45:38:03	 	36.748653	-122.19796	2428288	0.29	39:02.0	Ventana	34.412	00:38:31:25	4.517	Gastropoda					Animalia		Mollusca									Eukaryota		V3160-01
surface-color | self | white	transect	Gastropoda	823.58	3160	02:47:28:15	 	36.74861	-122.19822	2428314	0.29	40:52.0	Ventana	34.413	00:40:20:23	4.516	Gastropoda					Animalia		Mollusca									Eukaryota		V3160-01
surface-color | self | white	transect	Gastropoda	823.68	3160	02:47:34:15	 	36.748608	-122.198235	2428316	0.29	40:58.0	Ventana	34.413	00:40:27:29	4.515	Gastropoda					Animalia		Mollusca									Eukaryota		V3160-01
surface-color | self | white	transect	Gastropoda	824.2	3160	02:48:12:29	 	36.748604	-122.1983	2428327	0.28	41:37.0	Ventana	34.413	00:41:04:20	4.517	Gastropoda					Animalia		Mollusca									Eukaryota		V3160-01
perspective | self | distant	cruise	mud	823.55	3160	02:50:57:09	 	36.74857	-122.19854	2428356	0.29	44:22.0	Ventana	34.412	00:43:50:06	4.519																			V3160-01
perspective | self | distant	cruise	mud	823.06	3160	02:51:19:23	 	36.748558	-122.19865	2428365	0.29	44:44.0	Ventana	34.413	00:44:12:08	4.519																			V3160-01
perspective | self | distant	cruise	mud	822.82	3160	02:51:31:22	 	36.748554	-122.198715	2428367	0.29	44:56.0	Ventana	34.412	00:44:24:17	4.521																			V3160-01
perspective | self | distant	cruise	mud	823.38	3160	02:51:55:22	 	36.748554	-122.19884	2428372	0.29	45:20.0	Ventana	34.412	00:44:48:15	4.521																			V3160-01
comment | self | end SLC-2 Transect A	endtransect	physical object	824.81	3160	02:49:00:27	 	36.7486	-122.19837	2428341	0.29	42:25.0	Ventana	34.413	00:41:52:27	4.517																			V3160-01
comment | self | start SLC-2 Transect B	starttransect	physical object	827.07	3160	02:57:26:27	 	36.748634	-122.1989	2428393	0.28	50:52.0	Ventana	34.413	00:50:20:13	4.516																			V3160-01
surface-color | self | white	transect	Gastropoda	826.54	3160	02:58:25:10	 	36.748707	-122.19885	2429451	0.29	51:50.0	Ventana	34.413	00:51:18:26	4.518	Gastropoda					Animalia		Mollusca									Eukaryota		V3160-01
surface-color | self | white	transect	Gastropoda	826.16	3160	02:59:23:23	 	36.748764	-122.19878	2429456	0.28	52:48.0	Ventana	34.412	00:52:15:13	4.519	Gastropoda					Animalia		Mollusca									Eukaryota		V3160-01
surface-color | self | white	transect	Gastropoda	825.57	3160	03:04:24:29	 	36.748764	-122.19864	2429464	0.28	57:50.0	Ventana	34.413	00:57:17:04	4.519	Gastropoda					Animalia		Mollusca									Eukaryota		V3160-01
surface-color | self | white	transect	Gastropoda	825.57	3160	03:04:26:29	 	36.748764	-122.19864	2429465	0.28	57:52.0	Ventana	34.413	00:57:19:02	4.519	Gastropoda					Animalia		Mollusca									Eukaryota		V3160-01
surface-color | self | white	transect	Gastropoda	824.79	3160	03:06:31:10	 	36.748894	-122.19855	2429467	0.28	59:56.0	Ventana	34.413	00:59:24:25	4.518	Gastropoda					Animalia		Mollusca									Eukaryota		V3160-01
surface-color | self | white	transect	Gastropoda	824.22	3160	03:07:03:09	 	36.748917	-122.19854	2429471	0.28	00:28.0	Ventana	34.413	00:59:57:00	4.522	Gastropoda					Animalia		Mollusca									Eukaryota		V3160-01
surface-color | self | white	transect	Gastropoda	824.06	3160	03:07:17:09	 	36.748924	-122.19853	2429472	0.28	00:43.0	Ventana	34.413	01:00:10:15	4.524	Gastropoda					Animalia		Mollusca									Eukaryota		V3160-01
surface-color | self | white	transect	Gastropoda	824.03	3160	03:07:47:23	 	36.748947	-122.198494	2429476	0.28	01:13.0	Ventana	34.412	01:00:39:21	4.523	Gastropoda					Animalia		Mollusca									Eukaryota		V3160-01
surface-color | self | white	transect	Gastropoda	823.57	3160	03:08:57:21	 	36.748978	-122.19842	2429480	0.28	02:23.0	Ventana	34.413	01:01:49:25	4.524	Gastropoda					Animalia		Mollusca									Eukaryota		V3160-01
 	transect	Solaster	824.16	3160	03:07:37:23	 	36.74894	-122.19851	2429475	0.28	01:03.0	Ventana	34.413	01:00:29:15	4.522		Solasteridae	Solaster			Animalia	Velatida	Echinodermata		Asteroidea							Eukaryota		V3160-01
 	transect	Phyllospadix	817.61	3160	02:29:22:04	 	36.748528	-122.197044	2428093	0.29	22:45.0	Ventana	34.413	00:22:15:20	4.507		Zosteraceae	Phyllospadix			Plantae	Najadales										Eukaryota		V3160-01
 	stationary	Mesomyaria	819.26	3160	02:36:20:05	http://search.mbari.org/ARCHIVE/frameGrabs/Ventana/images/3160/00_29_12_13.jpg	36.748554	-122.19733	2428123	0.29	29:43.0	Ventana	34.413	00:29:12:13	4.513	Anthozoa					Animalia	Actiniaria	Cnidaria		Hexacorallia			Nyantheae				Eukaryota		V3160-01
 	transect	Phyllospadix	822.27	3160	03:14:37:00	 	36.749184	-122.19816	2427447	0.28	08:27.0	Ventana	34.413	01:07:27:19	4.527		Zosteraceae	Phyllospadix			Plantae	Najadales										Eukaryota		V3160-02
 	transect	Phyllospadix	823.15	3160	02:46:10:02	 	36.748657	-122.19802	2428296	0.29	39:34.0	Ventana	34.413	00:39:03:09	4.516		Zosteraceae	Phyllospadix			Plantae	Najadales										Eukaryota		V3160-01
 	transect	Solaster	824.73	3160	03:06:37:10	 	36.7489	-122.19855	2429468	0.28	00:02.0	Ventana	34.413	00:59:30:25	4.518		Solasteridae	Solaster			Animalia	Velatida	Echinodermata		Asteroidea							Eukaryota		V3160-01
 	transect	Mesomyaria	818.05	3160	02:19:31:22	 	36.748802	-122.19715	2427996	0.29	12:54.0	Ventana	34.412	00:12:24:13	4.506	Anthozoa					Animalia	Actiniaria	Cnidaria		Hexacorallia			Nyantheae				Eukaryota		V3160-01
 	stationary	Chionoecetes tanneri	819.01	3160	02:15:10:15	 	36.748898	-122.19717	2427913	0.29	08:32.0	Ventana	34.412	00:08:03:04	4.507	Malacostraca	Majidae	Chionoecetes		Brachyura	Animalia	Decapoda	Arthropoda	Chionoecetes tanneri	Eumalacostraca						Majoidea	Eukaryota	Eucarida	V3160-01
 	transect	Stomphia	819.38	3160	02:11:43:21	 	36.74905	-122.19738	2427537	0.29	05:05.0	Ventana	34.411	00:04:36:12	4.507	Anthozoa	Actinostolidae	Stomphia			Animalia	Actiniaria	Cnidaria		Hexacorallia			Nyantheae				Eukaryota		V3160-01
 	transect	Phyllospadix	825.61	3160	03:04:02:15	 	36.748753	-122.198654	2429461	0.28	57:28.0	Ventana	34.412	00:56:55:03	4.519		Zosteraceae	Phyllospadix			Plantae	Najadales										Eukaryota		V3160-01
 	transect	Phyllospadix	823.52	3160	02:47:18:15	 	36.748615	-122.19819	2428310	0.29	40:42.0	Ventana	34.413	00:40:11:28	4.516		Zosteraceae	Phyllospadix			Plantae	Najadales										Eukaryota		V3160-01
 	transect	Stomphia	821.31	3160	03:16:19:12	 	36.749275	-122.19807	2427454	0.28	10:09.0	Ventana	34.413	01:09:10:21	4.528	Anthozoa	Actinostolidae	Stomphia			Animalia	Actiniaria	Cnidaria		Hexacorallia			Nyantheae				Eukaryota		V3160-02
 	transect	Phyllospadix	821.22	3160	02:40:38:27	 	36.748554	-122.19769	2428220	0.29	34:02.0	Ventana	34.412	00:33:31:03	4.516		Zosteraceae	Phyllospadix			Plantae	Najadales										Eukaryota		V3160-01
 	transect	Neptunea	823.4	3160	02:46:38:17	 	36.748642	-122.19807	2428303	0.29	40:02.0	Ventana	34.413	00:39:31:22	4.515	Gastropoda		Neptunea			Animalia	Neogastropoda	Mollusca					Rachiglossa			Muricacea	Eukaryota		V3160-01
 	transect	Mesomyaria	824.53	3160	02:48:38:28	 	36.748604	-122.19835	2428333	0.29	42:03.0	Ventana	34.413	00:41:30:25	4.517	Anthozoa					Animalia	Actiniaria	Cnidaria		Hexacorallia			Nyantheae				Eukaryota		V3160-01
 	transect	Stomphia	826.22	3160	02:59:05:09	 	36.74874	-122.1988	2429454	0.28	52:30.0	Ventana	34.413	00:51:57:08	4.519	Anthozoa	Actinostolidae	Stomphia			Animalia	Actiniaria	Cnidaria		Hexacorallia			Nyantheae				Eukaryota		V3160-01
 	launch	Point Lobos	 	3160	 	 	 	 	2427491	 	 	Ventana	 	00:00:03:05	 																			V3160-01
 	transect	Phyllospadix	820.71	3160	03:17:45:24	 	36.74939	-122.19795	2427461	0.28	11:36.0	Ventana	34.413	01:10:36:17	4.528		Zosteraceae	Phyllospadix			Plantae	Najadales										Eukaryota		V3160-02
 	transect	Mesomyaria	822.89	3160	02:45:58:03	 	36.748657	-122.198	2428294	0.29	39:22.0	Ventana	34.413	00:38:51:25	4.516	Anthozoa					Animalia	Actiniaria	Cnidaria		Hexacorallia			Nyantheae				Eukaryota		V3160-01
 	transect	Phyllospadix	822.61	3160	03:13:08:18	 	36.749138	-122.19825	2427438	0.28	06:58.0	Ventana	34.413	01:06:00:13	4.526		Zosteraceae	Phyllospadix			Plantae	Najadales										Eukaryota		V3160-02
 	transect	Caridea sp.1	817.19	3160	02:28:34:05	 	36.748535	-122.19698	2428091	0.29	21:57.0	Ventana	34.413	00:21:26:15	4.508	Malacostraca				Caridea	Animalia	Decapoda	Arthropoda		Eumalacostraca							Eukaryota	Eucarida	V3160-01
 	transect	Mesomyaria	816.85	3160	02:22:38:16	 	36.748573	-122.196846	2428061	0.29	16:01.0	Ventana	34.413	00:15:31:00	4.507	Anthozoa					Animalia	Actiniaria	Cnidaria		Hexacorallia			Nyantheae				Eukaryota		V3160-01
 	transect	Mesomyaria	824.22	3160	03:07:01:10	 	36.748913	-122.19854	2429473	0.28	00:26.0	Ventana	34.413	00:59:53:21	4.522	Anthozoa					Animalia	Actiniaria	Cnidaria		Hexacorallia			Nyantheae				Eukaryota		V3160-01
 	transect	Mesomyaria	823.82	3160	02:47:40:15	 	36.748608	-122.19825	2428317	0.29	41:04.0	Ventana	34.413	00:40:33:22	4.515	Anthozoa					Animalia	Actiniaria	Cnidaria		Hexacorallia			Nyantheae				Eukaryota		V3160-01
 	transect	Chionoecetes tanneri	819.92	3160	02:39:01:00	 	36.74859	-122.19751	2428167	0.29	32:24.0	Ventana	34.412	00:31:52:29	4.515	Malacostraca	Majidae	Chionoecetes		Brachyura	Animalia	Decapoda	Arthropoda	Chionoecetes tanneri	Eumalacostraca						Majoidea	Eukaryota	Eucarida	V3160-01
 	transect	Halipteris californica	822.3	3160	03:14:19:00	http://search.mbari.org/ARCHIVE/frameGrabs/Ventana/images/3160/01_07_11_01.jpg	36.749172	-122.19817	2427445	0.28	08:09.0	Ventana	34.413	01:07:11:01	4.528	Anthozoa	Halipteridae	Halipteris			Animalia	Pennatulacea	Cnidaria	Halipteris californica	Octocorallia			Subselliflorae				Eukaryota		V3160-02
 	launch	Point Lobos	 	3160	 	 	 	 	2427505	 	 	Ventana	 	00:01:18:15	 																			V3160-01
 	transect	Mesomyaria	821.61	3160	02:41:22:26	 	36.748554	-122.19779	2428227	0.29	34:47.0	Ventana	34.413	00:34:15:06	4.514	Anthozoa					Animalia	Actiniaria	Cnidaria		Hexacorallia			Nyantheae				Eukaryota		V3160-01
 	transect	Phyllospadix	825.35	3160	03:05:02:28	 	36.7488	-122.198616	2429466	0.28	58:28.0	Ventana	34.413	00:57:56:05	4.519		Zosteraceae	Phyllospadix			Plantae	Najadales										Eukaryota		V3160-01
 	transect	Stomphia	818.59	3160	02:12:29:19	http://search.mbari.org/ARCHIVE/frameGrabs/Ventana/images/3160/00_05_22_00.jpg	36.748978	-122.19727	2427572	0.3	05:52.0	Ventana	34.411	00:05:22:00	4.505	Anthozoa	Actinostolidae	Stomphia			Animalia	Actiniaria	Cnidaria		Hexacorallia			Nyantheae				Eukaryota		V3160-01
 	transect	Actiniaria sp. 1	823.5	3160	02:47:10:15	 	36.74862	-122.19816	2428308	0.29	40:34.0	Ventana	34.413	00:40:03:14	4.517	Anthozoa					Animalia	Actiniaria	Cnidaria		Hexacorallia							Eukaryota		V3160-01
 	starttransect	object	819.32	3160	02:36:42:20	 	36.748554	-122.197365	2428128	0.29	30:06.0	Ventana	34.413	00:29:35:04	4.513																			V3160-01
 	transect	Phyllospadix	825.72	3160	03:03:28:16	 	36.748745	-122.198685	2429459	0.29	56:53.0	Ventana	34.413	00:56:21:07	4.519		Zosteraceae	Phyllospadix			Plantae	Najadales										Eukaryota		V3160-01
 	transect	Caridea sp.1	818.13	3160	02:19:23:22	http://search.mbari.org/ARCHIVE/frameGrabs/Ventana/images/3160/00_12_16_29.jpg	36.748802	-122.19717	2427985	0.29	12:46.0	Ventana	34.411	00:12:16:29	4.505	Malacostraca				Caridea	Animalia	Decapoda	Arthropoda		Eumalacostraca							Eukaryota	Eucarida	V3160-01
 	transect	Stomphia	822.19	3160	03:14:49:00	http://search.mbari.org/ARCHIVE/frameGrabs/Ventana/images/3160/01_07_39_16.jpg	36.74919	-122.19814	2427452	0.28	08:39.0	Ventana	34.413	01:07:39:16	4.527	Anthozoa	Actinostolidae	Stomphia			Animalia	Actiniaria	Cnidaria		Hexacorallia			Nyantheae				Eukaryota		V3160-02
 	cruise	mud	819.02	3160	02:10:45:07	 	36.749126	-122.19744	2427519	0.3	04:07.0	Ventana	34.41	00:03:38:09	4.508																			V3160-01
 	transect	Phyllospadix	823.3	3160	02:46:32:17	 	36.748646	-122.19806	2428301	0.29	39:56.0	Ventana	34.413	00:39:25:02	4.515		Zosteraceae	Phyllospadix			Plantae	Najadales										Eukaryota		V3160-01
 	transect	Neptunea	824.28	3160	02:48:20:28	 	36.748604	-122.19832	2428331	0.29	41:45.0	Ventana	34.413	00:41:13:23	4.518	Gastropoda		Neptunea			Animalia	Neogastropoda	Mollusca					Rachiglossa			Muricacea	Eukaryota		V3160-01
 	transect	Umbellula lindahli	826.4	3160	02:58:39:09	 	36.74872	-122.19884	2429452	0.29	52:04.0	Ventana	34.413	00:51:32:14	4.519	Anthozoa	Umbellulidae	Umbellula			Animalia	Pennatulacea	Cnidaria	Umbellula lindahli	Octocorallia			Sessiliflorae				Eukaryota		V3160-01
 	endtransect	object	823.71	3160	03:09:10:05	 	36.748985	-122.19841	2429482	0.28	02:35.0	Ventana	34.413	01:02:03:05	4.524																			V3160-01
 	transect	Actiniaria sp. 1	820.86	3160	03:17:21:25	http://search.mbari.org/ARCHIVE/frameGrabs/Ventana/images/3160/01_10_14_04.jpg	36.749367	-122.19798	2427459	0.28	11:12.0	Ventana	34.413	01:10:14:04	4.527	Anthozoa					Animalia	Actiniaria	Cnidaria		Hexacorallia							Eukaryota		V3160-02
 	transect	Actiniaria sp. 1	818.55	3160	02:12:37:19	 	36.748966	-122.19726	2427586	0.3	06:00.0	Ventana	34.411	00:05:30:06	4.504	Anthozoa					Animalia	Actiniaria	Cnidaria		Hexacorallia							Eukaryota		V3160-01
 	transect	Solaster	822.71	3160	03:12:52:18	http://search.mbari.org/ARCHIVE/frameGrabs/Ventana/images/3160/01_05_44_09.jpg	36.749126	-122.198265	2427436	0.28	06:42.0	Ventana	34.412	01:05:44:09	4.527		Solasteridae	Solaster			Animalia	Velatida	Echinodermata		Asteroidea							Eukaryota		V3160-02
 	transect	Mesomyaria	822.55	3160	02:45:24:04	 	36.748653	-122.19794	2428285	0.29	38:48.0	Ventana	34.414	00:38:16:11	4.517	Anthozoa					Animalia	Actiniaria	Cnidaria		Hexacorallia			Nyantheae				Eukaryota		V3160-01
 	ascend	water	591.95	3160	03:32:13:13	 	36.749504	-122.20088	2427473	0.34	26:05.0	Ventana	34.283	01:25:04:01	5.316																			V3160-02
 	transect	Mesomyaria	819.73	3160	02:11:21:22	 	36.74908	-122.197426	2427533	0.3	04:43.0	Ventana	34.41	00:04:13:13	4.509	Anthozoa					Animalia	Actiniaria	Cnidaria		Hexacorallia			Nyantheae				Eukaryota		V3160-01
 	transect	Phyllospadix	818.61	3160	02:31:36:29	 	36.748554	-122.19723	2428105	0.29	25:00.0	Ventana	34.412	00:24:29:26	4.508		Zosteraceae	Phyllospadix			Plantae	Najadales										Eukaryota		V3160-01
 	transect	Halipteris californica	816.85	3160	02:22:12:17	 	36.7486	-122.19689	2428052	0.29	15:35.0	Ventana	34.412	00:15:05:10	4.506	Anthozoa	Halipteridae	Halipteris			Animalia	Pennatulacea	Cnidaria	Halipteris californica	Octocorallia			Subselliflorae				Eukaryota		V3160-01
 	transect	Halipteris californica	817.65	3160	02:20:46:04	 	36.74872	-122.19701	2428022	0.29	14:08.0	Ventana	34.412	00:13:39:02	4.506	Anthozoa	Halipteridae	Halipteris			Animalia	Pennatulacea	Cnidaria	Halipteris californica	Octocorallia			Subselliflorae				Eukaryota		V3160-01
 	transect	Stomphia	818.42	3160	02:18:37:09	 	36.74883	-122.19722	2427962	0.29	12:00.0	Ventana	34.412	00:11:29:27	4.505	Anthozoa	Actinostolidae	Stomphia			Animalia	Actiniaria	Cnidaria		Hexacorallia			Nyantheae				Eukaryota		V3160-01
 	ascend	Euphotic zone	36.35	3160	03:56:21:29	 	36.74745	-122.19936	2427480	5.01	50:14.0	Ventana	33.293	01:49:12:11	11.548																			V3160-02
 	transect	Phyllospadix	822.19	3160	03:14:49:00	 	36.74919	-122.19814	2427450	0.28	08:39.0	Ventana	34.413	01:07:39:13	4.527		Zosteraceae	Phyllospadix			Plantae	Najadales										Eukaryota		V3160-02
 	descend	benthos	817.7	3160	 	 	36.749195	-122.19745	2427510	0.3	02:41.0	Ventana	34.411	00:02:11:18	4.51																			V3160-01
 	transect	object	825.9	3160	02:59:41:23	 	36.74878	-122.19875	2429457	0.29	53:06.0	Ventana	34.413	00:52:35:02	4.52																			V3160-01
 	transect	Mesomyaria	817.91	3160	02:29:54:18	 	36.748535	-122.19708	2428096	0.29	23:17.0	Ventana	34.413	00:22:47:06	4.507	Anthozoa					Animalia	Actiniaria	Cnidaria		Hexacorallia			Nyantheae				Eukaryota		V3160-01
 	transect	Mesomyaria	824.22	3160	02:48:16:28	 	36.748604	-122.19831	2428329	0.29	41:41.0	Ventana	34.413	00:41:09:10	4.518	Anthozoa					Animalia	Actiniaria	Cnidaria		Hexacorallia			Nyantheae				Eukaryota		V3160-01
 	transect	Halipteris californica	821.84	3160	02:41:55:10	 	36.748558	-122.197845	2428239	0.29	35:19.0	Ventana	34.413	00:34:48:04	4.514	Anthozoa	Halipteridae	Halipteris			Animalia	Pennatulacea	Cnidaria	Halipteris californica	Octocorallia			Subselliflorae				Eukaryota		V3160-01
 	transect	Phyllospadix	817.51	3160	02:21:36:03	 	36.748646	-122.19694	2428036	0.29	14:58.0	Ventana	34.413	00:14:28:00	4.506		Zosteraceae	Phyllospadix			Plantae	Najadales										Eukaryota		V3160-01
 	starttransect	physical object	818.67	3160	02:18:15:09	 	36.74884	-122.19723	2427946	0.29	11:37.0	Ventana	34.411	00:11:08:03	4.505																			V3160-01
 	transect	Mesomyaria	826.6	3160	02:58:19:10	 	36.748703	-122.19886	2429450	0.29	51:44.0	Ventana	34.413	00:51:13:03	4.518	Anthozoa					Animalia	Actiniaria	Cnidaria		Hexacorallia			Nyantheae				Eukaryota		V3160-01
 	transect	Halipteris californica	819.91	3160	02:38:15:02	http://search.mbari.org/ARCHIVE/frameGrabs/Ventana/images/3160/00_31_08_00.jpg	36.74856	-122.197426	2428149	0.29	31:38.0	Ventana	34.412	00:31:08:00	4.512	Anthozoa	Halipteridae	Halipteris			Animalia	Pennatulacea	Cnidaria	Halipteris californica	Octocorallia			Subselliflorae				Eukaryota		V3160-01
 	starttransect	object	816.58	3160	02:27:15:22	 	36.748554	-122.196884	2428080	0.29	20:38.0	Ventana	34.412	00:20:09:03	4.511																			V3160-01
 	transect	Phyllospadix	821.42	3160	02:41:30:26	 	36.748558	-122.19781	2428230	0.28	34:55.0	Ventana	34.414	00:34:24:03	4.516		Zosteraceae	Phyllospadix			Plantae	Najadales										Eukaryota		V3160-01
 	transect	Mesomyaria	825.62	3160	03:04:09:00	 	36.748756	-122.19865	2429462	0.28	57:34.0	Ventana	34.412	00:57:01:27	4.519	Anthozoa					Animalia	Actiniaria	Cnidaria		Hexacorallia			Nyantheae				Eukaryota		V3160-01
 	transect	Caridea sp.1	818.59	3160	02:12:29:19	http://search.mbari.org/ARCHIVE/frameGrabs/Ventana/images/3160/00_05_22_00.jpg	36.748978	-122.19727	2427577	0.3	05:52.0	Ventana	34.411	00:05:22:00	4.505	Malacostraca				Caridea	Animalia	Decapoda	Arthropoda		Eumalacostraca							Eukaryota	Eucarida	V3160-01
 	transect	Phyllospadix	822.37	3160	03:14:05:01	 	36.749172	-122.19819	2427441	0.28	07:55.0	Ventana	34.412	01:06:56:01	4.528		Zosteraceae	Phyllospadix			Plantae	Najadales										Eukaryota		V3160-02
 	transect	Phyllospadix	821.45	3160	02:40:50:27	 	36.748558	-122.19771	2428223	0.29	34:14.0	Ventana	34.413	00:33:43:20	4.516		Zosteraceae	Phyllospadix			Plantae	Najadales										Eukaryota		V3160-01
 	transect	Phyllospadix	826.22	3160	02:59:07:09	 	36.748745	-122.19879	2429455	0.28	52:32.0	Ventana	34.413	00:52:00:08	4.519		Zosteraceae	Phyllospadix			Plantae	Najadales										Eukaryota		V3160-01
 	ascend	water	748.77	3160	03:23:25:15	 	36.749714	-122.19866	2427471	0.26	17:16.0	Ventana	34.371	01:16:17:12	4.838																			V3160-02
 	transect	Halipteris californica	824.55	3160	02:48:50:27	 	36.7486	-122.198364	2428336	0.29	42:15.0	Ventana	34.413	00:41:43:09	4.518	Anthozoa	Halipteridae	Halipteris			Animalia	Pennatulacea	Cnidaria	Halipteris californica	Octocorallia			Subselliflorae				Eukaryota		V3160-01
 	transect	Mesomyaria	818.13	3160	02:19:23:22	http://search.mbari.org/ARCHIVE/frameGrabs/Ventana/images/3160/00_12_16_29.jpg	36.748802	-122.19717	2427990	0.29	12:46.0	Ventana	34.411	00:12:16:29	4.505	Anthozoa					Animalia	Actiniaria	Cnidaria		Hexacorallia			Nyantheae				Eukaryota		V3160-01
 	ascend	water	42.31	3160	03:56:07:14	 	36.747475	-122.19937	2427478	4.54	50:00.0	Ventana	33.367	01:48:59:12	11.498																			V3160-02
 	transect	Phyllospadix	823.8	3160	03:08:05:22	 	36.748955	-122.19846	2429478	0.28	01:31.0	Ventana	34.414	01:00:58:12	4.524		Zosteraceae	Phyllospadix			Plantae	Najadales										Eukaryota		V3160-01
 	starttransect	object	821.9	3160	02:44:29:20	 	36.748634	-122.197876	2428267	0.29	37:53.0	Ventana	34.413	00:37:23:16	4.517																			V3160-01
 	transect	Umbellula lindahli	821.15	3160	03:16:59:11	 	36.749336	-122.19802	2427455	0.28	10:50.0	Ventana	34.411	01:09:50:07	4.528	Anthozoa	Umbellulidae	Umbellula			Animalia	Pennatulacea	Cnidaria	Umbellula lindahli	Octocorallia			Sessiliflorae				Eukaryota		V3160-02
 	transect	Phyllospadix	820.34	3160	02:39:18:15	http://search.mbari.org/ARCHIVE/frameGrabs/Ventana/images/3160/00_32_11_03.jpg	36.748592	-122.197556	2428177	0.29	32:42.0	Ventana	34.413	00:32:11:03	4.514		Zosteraceae	Phyllospadix			Plantae	Najadales										Eukaryota		V3160-01
 	stationary	Eptatretus stoutii	824.82	3160	02:49:49:10	 	36.74859	-122.198395	2428350	0.28	43:13.0	Ventana	34.413	00:42:42:03	4.518	Agnatha		Eptatretus			Animalia		Chordata						Vertebrata			Eukaryota		V3160-01
 	transect	Halipteris californica	819.38	3160	02:11:43:21	 	36.74905	-122.19738	2427538	0.29	05:05.0	Ventana	34.411	00:04:36:12	4.507	Anthozoa	Halipteridae	Halipteris			Animalia	Pennatulacea	Cnidaria	Halipteris californica	Octocorallia			Subselliflorae				Eukaryota		V3160-01
 	transect	Phyllospadix	826.89	3160	02:57:55:11	 	36.748672	-122.19887	2429448	0.29	51:20.0	Ventana	34.412	00:50:46:24	4.518		Zosteraceae	Phyllospadix			Plantae	Najadales										Eukaryota		V3160-01
 	transect	Mesomyaria	816.89	3160	02:21:58:02	 	36.748615	-122.19691	2428048	0.29	15:21.0	Ventana	34.413	00:14:51:10	4.505	Anthozoa					Animalia	Actiniaria	Cnidaria		Hexacorallia			Nyantheae				Eukaryota		V3160-01
 	transect	Actiniaria	825.68	3160	03:03:36:15	http://search.mbari.org/ARCHIVE/frameGrabs/Ventana/images/3160/00_56_30_05.jpg	36.748745	-122.198685	2429460	0.29	57:01.0	Ventana	34.413	00:56:30:05	4.519	Anthozoa					Animalia	Actiniaria	Cnidaria		Hexacorallia							Eukaryota		V3160-01
 	transect	Phyllospadix	823.26	3160	03:11:48:05	 	36.749092	-122.198296	2427432	0.28	05:38.0	Ventana	34.412	01:04:39:11	4.526		Zosteraceae	Phyllospadix			Plantae	Najadales										Eukaryota		V3160-02
 	transect	Phyllospadix	823.54	3160	02:47:20:15	 	36.74861	-122.1982	2428311	0.29	40:44.0	Ventana	34.413	00:40:13:13	4.516		Zosteraceae	Phyllospadix			Plantae	Najadales										Eukaryota		V3160-01
 	transect	Phyllospadix	819.68	3160	02:37:18:19	 	36.748558	-122.1974	2428138	0.29	30:42.0	Ventana	34.412	00:30:11:28	4.512		Zosteraceae	Phyllospadix			Plantae	Najadales										Eukaryota		V3160-01
 	cruise	Sebastolobus	819.18	3160	02:09:51:09	 	36.749165	-122.197426	2427515	0.3	03:13.0	Ventana	34.41	00:02:44:04	4.509	Osteichthyes	Scorpaenidae	Sebastolobus	Neopterygii		Animalia	Scorpaeniformes	Chordata		Actinopterygii			Scorpaenoidei	Vertebrata	Gnathostomata		Eukaryota	Acanthopterygii	V3160-01
 	transect	Stomphia	826.23	3160	02:59:03:09	 	36.74874	-122.1988	2429453	0.28	52:28.0	Ventana	34.413	00:51:56:05	4.519	Anthozoa	Actinostolidae	Stomphia			Animalia	Actiniaria	Cnidaria		Hexacorallia			Nyantheae				Eukaryota		V3160-01
 	transect	Mesomyaria	818.45	3160	02:30:57:00	 	36.74855	-122.19717	2428101	0.29	24:20.0	Ventana	34.413	00:23:48:19	4.508	Anthozoa					Animalia	Actiniaria	Cnidaria		Hexacorallia			Nyantheae				Eukaryota		V3160-01
 	transect	Phyllospadix	820.13	3160	02:38:35:01	 	36.748573	-122.197464	2428161	0.29	31:58.0	Ventana	34.413	00:31:28:24	4.512		Zosteraceae	Phyllospadix			Plantae	Najadales										Eukaryota		V3160-01
 	endtransect	object	821.91	3160	02:42:01:10	 	36.748558	-122.19785	2428244	0.28	35:25.0	Ventana	34.413	00:34:53:07	4.514																			V3160-01
 	stationary	Mesomyaria	819.26	3160	02:36:20:05	http://search.mbari.org/ARCHIVE/frameGrabs/Ventana/images/3160/00_29_12_13.jpg	36.748554	-122.19733	2428122	0.29	29:43.0	Ventana	34.413	00:29:12:13	4.513	Anthozoa					Animalia	Actiniaria	Cnidaria		Hexacorallia			Nyantheae				Eukaryota		V3160-01
 	transect	Neptunea	820.34	3160	02:39:18:15	http://search.mbari.org/ARCHIVE/frameGrabs/Ventana/images/3160/00_32_11_03.jpg	36.748592	-122.197556	2428175	0.29	32:42.0	Ventana	34.413	00:32:11:03	4.514	Gastropoda		Neptunea			Animalia	Neogastropoda	Mollusca					Rachiglossa			Muricacea	Eukaryota		V3160-01
 	transect	Chionoecetes tanneri	820.48	3160	02:39:34:14	 	36.74859	-122.197586	2428205	0.29	32:58.0	Ventana	34.413	00:32:27:01	4.511	Malacostraca	Majidae	Chionoecetes		Brachyura	Animalia	Decapoda	Arthropoda	Chionoecetes tanneri	Eumalacostraca						Majoidea	Eukaryota	Eucarida	V3160-01
 	transect	Phyllospadix	817.74	3160	02:20:54:04	 	36.748707	-122.197	2428025	0.29	14:16.0	Ventana	34.412	00:13:46:20	4.506		Zosteraceae	Phyllospadix			Plantae	Najadales										Eukaryota		V3160-01
 	transect	Henricia sanguinolenta	824.74	3160	03:06:43:10	 	36.7489	-122.19855	2429469	0.29	00:08.0	Ventana	34.413	00:59:36:12	4.52		Echinasteridae	Henricia			Animalia	Spinulosida	Echinodermata	Henricia sanguinolenta	Asteroidea			Leptognathina				Eukaryota		V3160-01
 	ascend	water	191.98	3160	03:49:33:26	 	36.748272	-122.19938	2427476	1.9	43:26.0	Ventana	34.043	01:42:25:01	8.686																			V3160-02
 	transect	Mesomyaria	821.53	3160	02:41:26:26	 	36.748558	-122.1978	2428228	0.29	34:51.0	Ventana	34.413	00:34:20:05	4.514	Anthozoa					Animalia	Actiniaria	Cnidaria		Hexacorallia			Nyantheae				Eukaryota		V3160-01
 	transect	Ophiuroidea	822.3	3160	03:14:19:00	http://search.mbari.org/ARCHIVE/frameGrabs/Ventana/images/3160/01_07_11_01.jpg	36.749172	-122.19817	2427446	0.28	08:09.0	Ventana	34.413	01:07:11:01	4.528	Ophiuroidea					Animalia		Echinodermata									Eukaryota		V3160-02
 	cruise	Chionoecetes tanneri	818.11	3160	02:13:28:02	 	36.748917	-122.197205	2427633	0.29	06:50.0	Ventana	34.411	00:06:19:29	4.507	Malacostraca	Majidae	Chionoecetes		Brachyura	Animalia	Decapoda	Arthropoda	Chionoecetes tanneri	Eumalacostraca						Majoidea	Eukaryota	Eucarida	V3160-01
 	endtransect	object	818.66	3160	02:31:48:29	 	36.748554	-122.19725	2428106	0.29	25:12.0	Ventana	34.412	00:24:41:22	4.508																			V3160-01
 	transect	Halipteris californica	821.31	3160	03:16:19:12	 	36.749275	-122.19807	2427453	0.28	10:09.0	Ventana	34.413	01:09:10:21	4.528	Anthozoa	Halipteridae	Halipteris			Animalia	Pennatulacea	Cnidaria	Halipteris californica	Octocorallia			Subselliflorae				Eukaryota		V3160-02
 	cruise	mud	818.36	3160	 	 	36.74919	-122.19744	2427513	0.3	02:45.0	Ventana	34.411	00:02:16:16	4.51																			V3160-01
 	transect	Mesomyaria	820.35	3160	02:39:22:15	http://search.mbari.org/ARCHIVE/frameGrabs/Ventana/images/3160/00_32_14_11.jpg	36.748592	-122.19756	2428189	0.29	32:46.0	Ventana	34.413	00:32:14:11	4.514	Anthozoa					Animalia	Actiniaria	Cnidaria		Hexacorallia			Nyantheae				Eukaryota		V3160-01
 	starttransect	object	825.82	3160	03:03:18:16	 	36.74875	-122.19869	2429458	0.28	56:43.0	Ventana	34.413	00:56:10:20	4.519																			V3160-01
 	transect	Halipteris californica	819.33	3160	02:12:03:20	 	36.749023	-122.19732	2427550	0.29	05:25.0	Ventana	34.411	00:04:56:28	4.508	Anthozoa	Halipteridae	Halipteris			Animalia	Pennatulacea	Cnidaria	Halipteris californica	Octocorallia			Subselliflorae				Eukaryota		V3160-01
 	starttransect	physical object	823.37	3160	03:11:16:06	 	36.74907	-122.19831	2427430	0.28	05:06.0	Ventana	34.412	01:04:07:17	4.525																			V3160-02
 	transect	Phyllospadix	820.9	3160	03:17:27:25	 	36.749374	-122.197975	2427460	0.28	11:18.0	Ventana	34.413	01:10:19:17	4.527		Zosteraceae	Phyllospadix			Plantae	Najadales										Eukaryota		V3160-02
 	transect	Halipteris californica	816.41	3160	02:23:02:15	 	36.74855	-122.1968	2428069	0.29	16:25.0	Ventana	34.412	00:15:56:10	4.507	Anthozoa	Halipteridae	Halipteris			Animalia	Pennatulacea	Cnidaria	Halipteris californica	Octocorallia			Subselliflorae				Eukaryota		V3160-01
 	transect	Halipteris californica	823.54	3160	03:09:00:06	 	36.74898	-122.19842	2429481	0.28	02:25.0	Ventana	34.413	01:01:53:11	4.524	Anthozoa	Halipteridae	Halipteris			Animalia	Pennatulacea	Cnidaria	Halipteris californica	Octocorallia			Subselliflorae				Eukaryota		V3160-01
 	transect	Asteronyx	821.84	3160	02:41:55:10	 	36.748558	-122.197845	2428242	0.29	35:19.0	Ventana	34.413	00:34:48:04	4.514	Ophiuroidea	Asteronychidae	Asteronyx			Animalia	Ophiurida	Echinodermata					Euryalina				Eukaryota		V3160-01
 	transect	Halipteris californica	817.29	3160	02:21:44:03	 	36.748634	-122.19693	2428039	0.29	15:07.0	Ventana	34.413	00:14:37:24	4.506	Anthozoa	Halipteridae	Halipteris			Animalia	Pennatulacea	Cnidaria	Halipteris californica	Octocorallia			Subselliflorae				Eukaryota		V3160-01
 	transect	Halipteris californica	821.62	3160	02:41:38:26	 	36.748558	-122.19782	2428233	0.28	35:03.0	Ventana	34.414	00:34:31:23	4.516	Anthozoa	Halipteridae	Halipteris			Animalia	Pennatulacea	Cnidaria	Halipteris californica	Octocorallia			Subselliflorae				Eukaryota		V3160-01
 	transect	Mesomyaria	824.2	3160	02:48:04:29	 	36.748604	-122.198296	2428323	0.28	41:29.0	Ventana	34.413	00:40:57:01	4.517	Anthozoa					Animalia	Actiniaria	Cnidaria		Hexacorallia			Nyantheae				Eukaryota		V3160-01
 	transect	Mesomyaria	822.66	3160	03:12:56:18	 	36.749126	-122.19826	2427437	0.28	06:46.0	Ventana	34.412	01:05:48:18	4.527	Anthozoa					Animalia	Actiniaria	Cnidaria		Hexacorallia			Nyantheae				Eukaryota		V3160-02
 	transect	Solaster	824.05	3160	03:07:21:09	 	36.748928	-122.198524	2429474	0.28	00:47.0	Ventana	34.413	01:00:14:19	4.524		Solasteridae	Solaster			Animalia	Velatida	Echinodermata		Asteroidea							Eukaryota		V3160-01
 	transect	Halipteris californica	818.05	3160	02:19:37:22	 	36.748802	-122.19714	2428000	0.29	13:00.0	Ventana	34.412	00:12:30:16	4.506	Anthozoa	Halipteridae	Halipteris			Animalia	Pennatulacea	Cnidaria	Halipteris californica	Octocorallia			Subselliflorae				Eukaryota		V3160-01
 	transect	Mesomyaria	817.08	3160	02:27:27:22	 	36.74855	-122.1969	2428083	0.29	20:50.0	Ventana	34.412	00:20:20:18	4.511	Anthozoa					Animalia	Actiniaria	Cnidaria		Hexacorallia			Nyantheae				Eukaryota		V3160-01
 	transect	Phyllospadix	819.56	3160	02:37:16:19	 	36.748558	-122.1974	2428136	0.29	30:40.0	Ventana	34.412	00:30:08:28	4.512		Zosteraceae	Phyllospadix			Plantae	Najadales										Eukaryota		V3160-01
 	transect	Phyllospadix	819.98	3160	02:38:57:01	 	36.748585	-122.1975	2428166	0.29	32:20.0	Ventana	34.413	00:31:49:00	4.515		Zosteraceae	Phyllospadix			Plantae	Najadales										Eukaryota		V3160-01
 	transect	Stomphia	817.7	3160	02:20:48:04	 	36.748714	-122.19701	2428023	0.29	14:10.0	Ventana	34.412	00:13:41:18	4.506	Anthozoa	Actinostolidae	Stomphia			Animalia	Actiniaria	Cnidaria		Hexacorallia			Nyantheae				Eukaryota		V3160-01
 	transect	Halipteris californica	822.16	3160	02:44:41:20	 	36.74864	-122.19788	2428277	0.29	38:06.0	Ventana	34.413	00:37:34:01	4.517	Anthozoa	Halipteridae	Halipteris			Animalia	Pennatulacea	Cnidaria	Halipteris californica	Octocorallia			Subselliflorae				Eukaryota		V3160-01
 	ascend	surface water	 	3160	 	 	 	 	2427481	 	 	Ventana	 	01:51:40:03	 																			V3160-02
 	transect	Mesomyaria	816.96	3160	02:21:54:02	http://search.mbari.org/ARCHIVE/frameGrabs/Ventana/images/3160/00_14_46_22.jpg	36.74862	-122.196915	2428044	0.29	15:17.0	Ventana	34.413	00:14:46:22	4.505	Anthozoa					Animalia	Actiniaria	Cnidaria		Hexacorallia			Nyantheae				Eukaryota		V3160-01
 	transect	Mesomyaria	818.08	3160	02:30:26:16	 	36.748547	-122.19713	2428097	0.29	23:49.0	Ventana	34.414	00:23:20:09	4.507	Anthozoa					Animalia	Actiniaria	Cnidaria		Hexacorallia			Nyantheae				Eukaryota		V3160-01
 	endtransect	object	818.04	3160	02:13:26:02	 	36.748917	-122.197205	2427624	0.29	06:48.0	Ventana	34.411	00:06:18:27	4.507																			V3160-01
 	transect	Phyllospadix	820.7	3160	02:39:54:14	 	36.74857	-122.19762	2428210	0.29	33:18.0	Ventana	34.413	00:32:47:25	4.514		Zosteraceae	Phyllospadix			Plantae	Najadales										Eukaryota		V3160-01
 	transect	Phyllospadix	823.29	3160	02:46:30:17	 	36.74865	-122.19805	2428300	0.29	39:54.0	Ventana	34.413	00:39:22:26	4.515		Zosteraceae	Phyllospadix			Plantae	Najadales										Eukaryota		V3160-01
 	cruise	Stomphia	819.51	3160	02:10:13:08	 	36.74915	-122.197426	2427518	0.29	03:35.0	Ventana	34.41	00:03:06:05	4.509	Anthozoa	Actinostolidae	Stomphia			Animalia	Actiniaria	Cnidaria		Hexacorallia			Nyantheae				Eukaryota		V3160-01
 	transect	Mesomyaria	817.13	3160	02:28:28:05	 	36.74854	-122.196976	2428090	0.29	21:51.0	Ventana	34.413	00:21:20:28	4.509	Anthozoa					Animalia	Actiniaria	Cnidaria		Hexacorallia			Nyantheae				Eukaryota		V3160-01
 	transect	Neptunea	826.66	3160	02:58:11:10	 	36.748695	-122.19887	2429449	0.28	51:36.0	Ventana	34.413	00:51:05:04	4.518	Gastropoda		Neptunea			Animalia	Neogastropoda	Mollusca					Rachiglossa			Muricacea	Eukaryota		V3160-01
 	transect	Halipteris californica	823.63	3160	03:08:43:21	 	36.748974	-122.198425	2429479	0.28	02:09.0	Ventana	34.413	01:01:35:27	4.523	Anthozoa	Halipteridae	Halipteris			Animalia	Pennatulacea	Cnidaria	Halipteris californica	Octocorallia			Subselliflorae				Eukaryota		V3160-01
 	stationary	mud	821.02	3160	03:18:44:08	http://search.mbari.org/ARCHIVE/frameGrabs/Ventana/images/3160/01_11_35_07.jpg	36.74942	-122.1979	2427465	0.28	12:34.0	Ventana	34.413	01:11:35:07	4.527																			V3160-02
 	transect	Phyllospadix	821.36	3160	02:41:32:26	 	36.748558	-122.197815	2428231	0.28	34:57.0	Ventana	34.414	00:34:24:22	4.516		Zosteraceae	Phyllospadix			Plantae	Najadales										Eukaryota		V3160-01
 	cruise	Mesomyaria	819.06	3160	02:13:40:03	 	36.748913	-122.197205	2427638	0.29	07:02.0	Ventana	34.41	00:06:33:15	4.511	Anthozoa					Animalia	Actiniaria	Cnidaria		Hexacorallia			Nyantheae				Eukaryota		V3160-01
 	transect	Solaster	822.57	3160	02:45:12:04	 	36.748646	-122.197914	2428284	0.29	38:36.0	Ventana	34.413	00:38:04:11	4.516		Solasteridae	Solaster			Animalia	Velatida	Echinodermata		Asteroidea							Eukaryota		V3160-01
 	transect	Phyllospadix	822.3	3160	03:14:07:01	 	36.749172	-122.19819	2427442	0.28	07:57.0	Ventana	34.412	01:06:57:15	4.528		Zosteraceae	Phyllospadix			Plantae	Najadales										Eukaryota		V3160-02
 	ascend	water	672.55	3160	03:27:26:07	 	36.74958	-122.19975	2427472	0.27	21:17.0	Ventana	34.35	01:20:18:09	5.054																			V3160-02
 	transect	Chionoecetes tanneri	821.45	3160	02:41:04:27	 	36.748554	-122.19775	2428224	0.29	34:28.0	Ventana	34.413	00:33:58:16	4.516	Malacostraca	Majidae	Chionoecetes		Brachyura	Animalia	Decapoda	Arthropoda	Chionoecetes tanneri	Eumalacostraca						Majoidea	Eukaryota	Eucarida	V3160-01
 	endtransect	object	816.13	3160	02:23:36:29	 	36.748528	-122.19675	2428074	0.29	16:59.0	Ventana	34.411	00:16:29:20	4.51																			V3160-01
 	transect	Mesomyaria	823.59	3160	02:46:58:16	 	36.748623	-122.19812	2428307	0.29	40:22.0	Ventana	34.412	00:39:51:12	4.517	Anthozoa					Animalia	Actiniaria	Cnidaria		Hexacorallia			Nyantheae				Eukaryota		V3160-01
 	transect	Stomphia	820.18	3160	02:38:47:01	 	36.74858	-122.19749	2428164	0.29	32:10.0	Ventana	34.413	00:31:39:06	4.515	Anthozoa	Actinostolidae	Stomphia			Animalia	Actiniaria	Cnidaria		Hexacorallia			Nyantheae				Eukaryota		V3160-01
 	transect	Phyllospadix	822.27	3160	03:14:37:00	 	36.749184	-122.19816	2427449	0.28	08:27.0	Ventana	34.413	01:07:28:25	4.527		Zosteraceae	Phyllospadix			Plantae	Najadales										Eukaryota		V3160-02
 	transect	Phyllospadix	827.05	3160	02:57:36:27	 	36.74865	-122.19888	2429447	0.29	51:02.0	Ventana	34.414	00:50:30:19	4.515		Zosteraceae	Phyllospadix			Plantae	Najadales										Eukaryota		V3160-01
 	transect	Phyllospadix	823.87	3160	03:07:55:23	 	36.74895	-122.19849	2429477	0.28	01:21.0	Ventana	34.412	01:00:48:29	4.523		Zosteraceae	Phyllospadix			Plantae	Najadales										Eukaryota		V3160-01
 	transect	Stomphia	820.35	3160	02:39:22:15	http://search.mbari.org/ARCHIVE/frameGrabs/Ventana/images/3160/00_32_14_11.jpg	36.748592	-122.19756	2428185	0.29	32:46.0	Ventana	34.413	00:32:14:11	4.514	Anthozoa	Actinostolidae	Stomphia			Animalia	Actiniaria	Cnidaria		Hexacorallia			Nyantheae				Eukaryota		V3160-01
 	transect	Asteronyx	819.91	3160	02:38:15:02	http://search.mbari.org/ARCHIVE/frameGrabs/Ventana/images/3160/00_31_08_00.jpg	36.74856	-122.197426	2428148	0.29	31:38.0	Ventana	34.412	00:31:08:00	4.512	Ophiuroidea	Asteronychidae	Asteronyx			Animalia	Ophiurida	Echinodermata					Euryalina				Eukaryota		V3160-01
 	transect	Laminariales	816.99	3160	02:27:59:21	 	36.74854	-122.19693	2428088	0.29	21:23.0	Ventana	34.413	00:20:51:23	4.509	Phaeophyceae					Chromista	Laminariales	Phaeophycophyta									Eukaryota		V3160-01
 	transect	Caridea sp.1	824.73	3160	03:06:37:10	 	36.7489	-122.19855	2429470	0.28	00:02.0	Ventana	34.413	00:59:30:17	4.518	Malacostraca				Caridea	Animalia	Decapoda	Arthropoda		Eumalacostraca							Eukaryota	Eucarida	V3160-01
 	transect	Halipteris californica	816.8	3160	02:22:26:16	 	36.748585	-122.19687	2428058	0.29	15:49.0	Ventana	34.413	00:15:18:27	4.506	Anthozoa	Halipteridae	Halipteris			Animalia	Pennatulacea	Cnidaria	Halipteris californica	Octocorallia			Subselliflorae				Eukaryota		V3160-01
 	transect	Umbellula lindahli	820.86	3160	03:17:11:26	 	36.749355	-122.198006	2427456	0.28	11:02.0	Ventana	34.412	01:10:02:09	4.528	Anthozoa	Umbellulidae	Umbellula			Animalia	Pennatulacea	Cnidaria	Umbellula lindahli	Octocorallia			Sessiliflorae				Eukaryota		V3160-02
 	transect	Halipteris californica	818.55	3160	02:12:37:19	 	36.748966	-122.19726	2427599	0.3	06:00.0	Ventana	34.411	00:05:31:13	4.504	Anthozoa	Halipteridae	Halipteris			Animalia	Pennatulacea	Cnidaria	Halipteris californica	Octocorallia			Subselliflorae				Eukaryota		V3160-01
 	stationary	holdfast	819.26	3160	02:36:20:05	http://search.mbari.org/ARCHIVE/frameGrabs/Ventana/images/3160/00_29_12_13.jpg	36.748554	-122.19733	2428118	0.29	29:43.0	Ventana	34.413	00:29:12:13	4.513																			V3160-01
 	transect	Neptunea	822.78	3160	03:12:20:19	 	36.749107	-122.1983	2427433	0.28	06:10.0	Ventana	34.412	01:05:11:08	4.525	Gastropoda		Neptunea			Animalia	Neogastropoda	Mollusca					Rachiglossa			Muricacea	Eukaryota		V3160-02
 	transect	Mesomyaria	818.13	3160	02:19:23:22	http://search.mbari.org/ARCHIVE/frameGrabs/Ventana/images/3160/00_12_16_29.jpg	36.748802	-122.19717	2427989	0.29	12:46.0	Ventana	34.411	00:12:16:29	4.505	Anthozoa					Animalia	Actiniaria	Cnidaria		Hexacorallia			Nyantheae				Eukaryota		V3160-01
 	transect	Halipteris californica	825.62	3160	03:04:09:00	 	36.748756	-122.19865	2429463	0.28	57:34.0	Ventana	34.412	00:57:02:09	4.519	Anthozoa	Halipteridae	Halipteris			Animalia	Pennatulacea	Cnidaria	Halipteris californica	Octocorallia			Subselliflorae				Eukaryota		V3160-01
 	endtransect	object	820.58	3160	03:17:49:24	 	36.749393	-122.197945	2427463	0.28	11:40.0	Ventana	34.412	01:10:41:20	4.528																			V3160-02
 	transect	Phyllospadix	819.61	3160	02:37:06:19	 	36.748554	-122.197395	2428132	0.29	30:30.0	Ventana	34.414	00:29:59:14	4.512		Zosteraceae	Phyllospadix			Plantae	Najadales										Eukaryota		V3160-01
 	transect	Phyllospadix	820.24	3160	02:38:37:02	 	36.748573	-122.19747	2428162	0.29	32:00.0	Ventana	34.413	00:31:30:09	4.512		Zosteraceae	Phyllospadix			Plantae	Najadales										Eukaryota		V3160-01
 	transect	Chorilia longipes	820.35	3160	02:39:22:15	http://search.mbari.org/ARCHIVE/frameGrabs/Ventana/images/3160/00_32_14_11.jpg	36.748592	-122.19756	2428192	0.29	32:46.0	Ventana	34.413	00:32:14:11	4.514	Malacostraca	Majidae	Chorilia		Brachyura	Animalia	Decapoda	Arthropoda	Chorilia longipes	Eumalacostraca						Majoidea	Eukaryota	Eucarida	V3160-01
 	transect	Phyllospadix	822.55	3160	03:13:28:17	 	36.749153	-122.19823	2427440	0.28	07:19.0	Ventana	34.413	01:06:20:19	4.527		Zosteraceae	Phyllospadix			Plantae	Najadales										Eukaryota		V3160-02
 	ascend	water	812.35	3160	03:19:50:21	 	36.749496	-122.198	2427470	0.28	13:41.0	Ventana	34.41	01:12:40:27	4.552																			V3160-02
 	transect	physical object	816.96	3160	02:21:54:02	http://search.mbari.org/ARCHIVE/frameGrabs/Ventana/images/3160/00_14_46_22.jpg	36.74862	-122.196915	2428042	0.29	15:17.0	Ventana	34.413	00:14:46:22	4.505																			V3160-01
 	transect	Solaster	817.89	3160	02:20:19:20	 	36.748753	-122.19706	2428012	0.29	13:42.0	Ventana	34.412	00:13:12:11	4.506		Solasteridae	Solaster			Animalia	Velatida	Echinodermata		Asteroidea							Eukaryota		V3160-01
 	transect	Halipteris californica	823.56	3160	02:46:52:16	 	36.748627	-122.198105	2428305	0.29	40:16.0	Ventana	34.412	00:39:44:27	4.517	Anthozoa	Halipteridae	Halipteris			Animalia	Pennatulacea	Cnidaria	Halipteris californica	Octocorallia			Subselliflorae				Eukaryota		V3160-01
"sampled-by | Push Corer | nil, sample-reference | self | V3161-C11"	stationary	sediment	92.04	3161	04:26:20:09	http://search.mbari.org/ARCHIVE/frameGrabs/Ventana/images/3161/00_18_44_04.jpg	36.86329	-122.09714	20023634	3.32	24:26.0	Ventana	33.728	00:18:44:04	10.024																			V3161-01
"sampled-by | Push Corer | nil, sample-reference | self | V3161-C12"	stationary	sediment	91.63	3161	04:58:32:10	http://search.mbari.org/ARCHIVE/frameGrabs/Ventana/images/3161/00_50_57_04.jpg	36.863216	-122.09614	20023638	3.34	56:40.0	Ventana	33.722	00:50:57:04	10.052																			V3161-01
comment | self | start SI-1A Transect A	starttransect	physical object	91.46	3161	 	 	36.863743	-122.09691	2429488	3.33	08:27.0	Ventana	33.731	00:02:47:01	10.017																			V3161-01
"sampled-by | Push Corer | nil, sample-reference | self | V3161-C23"	stationary	sediment	91.99	3161	04:16:11:13	http://search.mbari.org/ARCHIVE/frameGrabs/Ventana/images/3161/00_08_36_23.jpg	36.863605	-122.09694	20023632	3.32	14:17.0	Ventana	33.73	00:08:36:23	10.024																			V3161-01
"sampled-by | Push Corer | nil, sample-reference | self | V3161-C15"	stationary	sediment	91.99	3161	04:17:11:26	http://search.mbari.org/ARCHIVE/frameGrabs/Ventana/images/3161/00_09_37_06.jpg	36.863674	-122.09704	20023633	3.32	15:17.0	Ventana	33.729	00:09:37:06	10.028																			V3161-01
comment | self | start SI-1A Transect B	starttransect	physical object	91.58	3161	04:37:15:04	 	36.863186	-122.09671	2429807	3.32	35:21.0	Ventana	33.727	00:29:40:13	10.027																			V3161-01
"feeding-association-predator-of | Osteichthyes | nil, fail | nil | nil"	transect	Octopoda	91.43	3161	04:40:11:29	http://search.mbari.org/ARCHIVE/frameGrabs/Ventana/images/3161/00_32_36_29.jpg	36.863186	-122.09671	2429929	3.33	38:18.0	Ventana	33.726	00:32:36:29	10.032	Cephalopoda					Animalia	Octopoda	Mollusca		Coleoidea							Eukaryota	Octopodiformes	V3161-01
"sampled-by | Push Corer | nil, sample-reference | self | V3161-C14"	stationary	sediment	91.99	3161	04:41:25:26	http://search.mbari.org/ARCHIVE/frameGrabs/Ventana/images/3161/00_33_50_21.jpg	36.863186	-122.09671	20023636	3.33	39:33.0	Ventana	33.725	00:33:50:21	10.034																			V3161-01
"sample-reference | self | V3161-C9, sampled-by | Push Corer | nil"	stationary	sediment	92.02	3161	04:42:36:09	http://search.mbari.org/ARCHIVE/frameGrabs/Ventana/images/3161/00_35_01_19.jpg	36.863186	-122.09671	20023637	3.33	40:43.0	Ventana	33.726	00:35:01:19	10.032																			V3161-01
"sampled-by | Push Corer | nil, sample-reference | self | V3161-C05"	stationary	sediment	92	3161	04:51:14:08	http://search.mbari.org/ARCHIVE/frameGrabs/Ventana/images/3161/00_43_39_15.jpg	36.86316	-122.09657	2435178	3.34	49:22.0	Ventana	33.723	00:43:39:15	10.042																			V3161-01
water-quality | self | sediment-cloudy	cruise	water	91.81	3161	04:53:35:04	 	36.863075	-122.09614	2435224	3.34	51:42.0	Ventana	33.724	00:45:59:19	10.042																			V3161-01
comment | self | start SI-1A Transect C	starttransect	physical object	91.53	3161	04:54:45:02	 	36.86305	-122.095955	2435272	3.35	52:53.0	Ventana	33.722	00:47:10:07	10.047																			V3161-01
water-quality | self | sediment-cloudy	cruise	water	91.74	3161	04:57:34:12	 	36.863216	-122.09618	2435360	3.34	55:42.0	Ventana	33.723	00:49:58:06	10.045																			V3161-01
"sampled-by | Push Corer | nil, sample-reference | self | V3161-C02"	stationary	sediment	91.69	3161	04:59:50:22	http://search.mbari.org/ARCHIVE/frameGrabs/Ventana/images/3161/00_52_16_02.jpg	36.863216	-122.09609	20023639	3.35	57:58.0	Ventana	33.721	00:52:16:02	10.048																			V3161-01
"sampled-by | Push Corer | nil, sample-reference | self | V3161-C03, fail | nil | nil"	stationary	sediment	91.49	3161	05:08:17:07	http://search.mbari.org/ARCHIVE/frameGrabs/Ventana/images/3161/01_00_41_14.jpg	36.86394	-122.09633	2435573	3.35	06:25.0	Ventana	33.722	01:00:41:14	10.046																			V3161-01
"sample-reference | self | V3161-C08, sampled-by | Push Corer | nil"	stationary	sediment	91.46	3161	05:11:03:17	http://search.mbari.org/ARCHIVE/frameGrabs/Ventana/images/3161/01_03_28_19.jpg	36.863873	-122.096344	2435583	3.35	09:12.0	Ventana	33.722	01:03:28:19	10.046																			V3161-01
 	cruise	mud	92.09	3161	04:36:38:20	 	36.863186	-122.09671	2429798	3.32	34:45.0	Ventana	33.727	00:29:03:03	10.026																			V3161-01
 	transect	Pennatulacea	91.4	3161	04:56:39:28	 	36.863167	-122.09613	2435326	3.35	54:47.0	Ventana	33.724	00:49:05:15	10.047	Anthozoa					Animalia	Pennatulacea	Cnidaria		Octocorallia							Eukaryota		V3161-01
 	transect	Pennatulacea	91.36	3161	05:03:40:01	 	36.863544	-122.09613	2435446	3.35	01:48.0	Ventana	33.722	00:56:04:15	10.045	Anthozoa					Animalia	Pennatulacea	Cnidaria		Octocorallia							Eukaryota		V3161-01
 	transect	Pleuronectiformes	91.93	3161	04:32:45:27	 	36.863194	-122.096756	2429768	3.32	30:52.0	Ventana	33.728	00:25:10:18	10.02	Osteichthyes			Neopterygii		Animalia	Pleuronectiformes	Chordata		Actinopterygii				Vertebrata	Gnathostomata		Eukaryota	Acanthopterygii	V3161-01
 	transect	Pennatulacea	91.32	3161	05:04:31:29	 	36.863667	-122.096176	2435476	3.35	02:40.0	Ventana	33.722	00:56:56:19	10.046	Anthozoa					Animalia	Pennatulacea	Cnidaria		Octocorallia							Eukaryota		V3161-01
 	transect	Ophiuroidea	91.67	3161	04:20:32:20	 	36.863625	-122.097084	2429618	3.32	18:38.0	Ventana	33.73	00:12:56:17	10.021	Ophiuroidea					Animalia		Echinodermata									Eukaryota		V3161-01
 	transect	Pennatulacea	91.7	3161	04:48:33:29	 	36.863186	-122.09671	2435153	3.34	46:41.0	Ventana	33.725	00:40:58:11	10.038	Anthozoa					Animalia	Pennatulacea	Cnidaria		Octocorallia							Eukaryota		V3161-01
 	transect	Pennatulacea	91.52	3161	04:39:51:14	 	36.863186	-122.09671	2429911	3.33	37:58.0	Ventana	33.727	00:32:16:16	10.029	Anthozoa					Animalia	Pennatulacea	Cnidaria		Octocorallia							Eukaryota		V3161-01
 	transect	Ophiuroidea	91.68	3161	04:13:30:18	 	36.8635	-122.096756	2429535	3.32	11:36.0	Ventana	33.73	00:05:55:18	10.015	Ophiuroidea					Animalia		Echinodermata									Eukaryota		V3161-01
 	transect	Pennatulacea	91.13	3161	 	 	36.863525	-122.09676	2429505	3.33	10:03.0	Ventana	33.729	00:04:23:03	10.02	Anthozoa					Animalia	Pennatulacea	Cnidaria		Octocorallia							Eukaryota		V3161-01
 	endtransect	object	92.15	3161	04:33:47:25	 	36.86319	-122.096725	2429791	3.33	31:54.0	Ventana	33.727	00:26:13:16	10.028																			V3161-01
 	transect	Pennatulacea	92.01	3161	04:37:39:03	 	36.863186	-122.09671	2429821	3.32	35:45.0	Ventana	33.727	00:30:04:14	10.028	Anthozoa					Animalia	Pennatulacea	Cnidaria		Octocorallia							Eukaryota		V3161-01
 	transect	Ophiuroidea	91.71	3161	04:47:03:16	 	36.863186	-122.09671	2435116	3.34	45:10.0	Ventana	33.725	00:39:27:13	10.037	Ophiuroidea					Animalia		Echinodermata									Eukaryota		V3161-01
 	transect	Pennatulacea	91.6	3161	04:48:17:29	 	36.863186	-122.09671	2435146	3.34	46:25.0	Ventana	33.724	00:40:43:11	10.038	Anthozoa					Animalia	Pennatulacea	Cnidaria		Octocorallia							Eukaryota		V3161-01
 	starttransect	object	91.92	3161	04:44:08:22	 	36.863186	-122.09671	2429985	3.33	42:15.0	Ventana	33.726	00:36:33:01	10.033																			V3161-01
 	transect	Octopus	91.96	3161	04:50:16:10	 	36.863174	-122.09666	2435176	3.34	48:23.0	Ventana	33.724	00:42:40:18	10.039	Cephalopoda	Octopodidae	Octopus			Animalia	Octopoda	Mollusca		Coleoidea	Octopodinae		Incirrata				Eukaryota	Octopodiformes	V3161-01
 	transect	Pleuronectiformes	91.6	3161	04:13:16:18	 	36.8635	-122.09675	2429528	3.32	11:22.0	Ventana	33.731	00:05:41:13	10.015	Osteichthyes			Neopterygii		Animalia	Pleuronectiformes	Chordata		Actinopterygii				Vertebrata	Gnathostomata		Eukaryota	Acanthopterygii	V3161-01
 	transect	Pennatulacea	91.34	3161	05:02:57:17	 	36.863453	-122.0961	2435409	3.35	01:05.0	Ventana	33.722	00:55:23:10	10.045	Anthozoa					Animalia	Pennatulacea	Cnidaria		Octocorallia							Eukaryota		V3161-01
 	transect	Pennatulacea	90.81	3161	 	 	36.863594	-122.09681	2429491	3.32	08:57.0	Ventana	33.731	00:03:16:28	10.016	Anthozoa					Animalia	Pennatulacea	Cnidaria		Octocorallia							Eukaryota		V3161-01
 	transect	Asteroidea	91.73	3161	04:38:19:02	http://search.mbari.org/ARCHIVE/frameGrabs/Ventana/images/3161/00_30_44_00.jpg	36.863186	-122.09671	2429844	3.33	36:25.0	Ventana	33.727	00:30:44:00	10.029						Animalia		Echinodermata		Asteroidea							Eukaryota		V3161-01
 	transect	Pennatulacea	91.51	3161	05:02:51:17	 	36.86344	-122.09609	2435402	3.35	00:59.0	Ventana	33.722	00:55:17:10	10.045	Anthozoa					Animalia	Pennatulacea	Cnidaria		Octocorallia							Eukaryota		V3161-01
 	transect	Pennatulacea	91.83	3161	04:45:51:03	 	36.863186	-122.09671	2435079	3.33	43:58.0	Ventana	33.725	00:38:16:24	10.034	Anthozoa					Animalia	Pennatulacea	Cnidaria		Octocorallia							Eukaryota		V3161-01
 	transect	pleuronectiformes	91.72	3161	04:48:09:14	 	36.863186	-122.09671	2435139	3.34	46:17.0	Ventana	33.725	00:40:34:24	10.038																			V3161-01
 	transect	Pennatulacea	91.72	3161	04:31:57:14	 	36.863197	-122.0968	2429754	3.32	30:03.0	Ventana	33.729	00:24:22:19	10.02	Anthozoa					Animalia	Pennatulacea	Cnidaria		Octocorallia							Eukaryota		V3161-01
 	transect	Pennatulacea	91.42	3161	05:04:53:28	 	36.863712	-122.0962	2435492	3.35	03:02.0	Ventana	33.723	00:57:19:20	10.045	Anthozoa					Animalia	Pennatulacea	Cnidaria		Octocorallia							Eukaryota		V3161-01
 	transect	Phyllospadix	91.77	3161	04:49:21:27	 	36.863182	-122.096695	2435169	3.34	47:29.0	Ventana	33.723	00:41:47:14	10.043		Zosteraceae	Phyllospadix			Plantae	Najadales										Eukaryota		V3161-01
 	endtransect	object	91.92	3161	04:15:13:15	 	36.863544	-122.09685	2429581	3.33	13:18.0	Ventana	33.727	00:07:37:14	10.029																			V3161-01
 	transect	Pennatulacea	91.87	3161	04:33:23:26	 	36.86319	-122.09673	2429784	3.33	31:30.0	Ventana	33.728	00:25:48:08	10.024	Anthozoa					Animalia	Pennatulacea	Cnidaria		Octocorallia							Eukaryota		V3161-01
 	transect	Pennatulacea	91.99	3161	04:30:37:01	 	36.863213	-122.096924	2429724	3.32	28:43.0	Ventana	33.728	00:23:03:08	10.023	Anthozoa					Animalia	Pennatulacea	Cnidaria		Octocorallia							Eukaryota		V3161-01
 	transect	Ophiuroidea	91.64	3161	04:38:57:16	 	36.863186	-122.09671	2429897	3.32	37:04.0	Ventana	33.727	00:31:23:07	10.027	Ophiuroidea					Animalia		Echinodermata									Eukaryota		V3161-01
 	transect	Pennatulacea	91.61	3161	04:28:50:19	 	36.863262	-122.09711	2429694	3.33	26:57.0	Ventana	33.728	00:21:16:03	10.024	Anthozoa					Animalia	Pennatulacea	Cnidaria		Octocorallia							Eukaryota		V3161-01
 	transect	Ophiuroidea	91.25	3161	 	 	36.863503	-122.09675	2429521	3.32	10:49.0	Ventana	33.729	00:05:08:23	10.018	Ophiuroidea					Animalia		Echinodermata									Eukaryota		V3161-01
 	cruise	Metridium farcimen	91.18	3161	 	 	36.863987	-122.09701	2429484	3.33	05:52.0	Ventana	33.732	00:00:11:22	10.013	Anthozoa	Metridiidae	Metridium			Animalia	Actiniaria	Cnidaria	Metridium farcimen	Hexacorallia			Nyantheae				Eukaryota		V3161-01
 	transect	Ophiuroidea	91.62	3161	04:14:55:15	 	36.86353	-122.09682	2429574	3.33	13:00.0	Ventana	33.728	00:07:19:25	10.022	Ophiuroidea					Animalia		Echinodermata									Eukaryota		V3161-01
 	transect	Ophiuroidea	91.81	3161	04:33:05:26	 	36.86319	-122.09674	2429777	3.32	31:12.0	Ventana	33.728	00:25:30:26	10.023	Ophiuroidea					Animalia		Echinodermata									Eukaryota		V3161-01
 	transect	Phyllospadix	91.58	3161	04:48:53:28	 	36.863186	-122.0967	2435162	3.34	47:01.0	Ventana	33.724	00:41:19:01	10.038		Zosteraceae	Phyllospadix			Plantae	Najadales										Eukaryota		V3161-01
 	transect	Ophiuroidea	91.94	3161	04:31:27:15	 	36.8632	-122.09684	2429747	3.32	29:33.0	Ventana	33.729	00:23:52:13	10.019	Ophiuroidea					Animalia		Echinodermata									Eukaryota		V3161-01
 	transect	Pennatulacea	91.35	3161	04:40:09:29	http://search.mbari.org/ARCHIVE/frameGrabs/Ventana/images/3161/00_32_34_27.jpg	36.863186	-122.09671	2429920	3.33	38:16.0	Ventana	33.726	00:32:34:27	10.032	Anthozoa					Animalia	Pennatulacea	Cnidaria		Octocorallia							Eukaryota		V3161-01
 	transect	Phyllospadix	91.85	3161	04:30:09:02	http://search.mbari.org/ARCHIVE/frameGrabs/Ventana/images/3161/00_22_34_24.jpg	36.86322	-122.09698	2429717	3.32	28:15.0	Ventana	33.728	00:22:34:24	10.023		Zosteraceae	Phyllospadix			Plantae	Najadales										Eukaryota		V3161-01
 	transect	Ophiuroidea	91.9	3161	04:32:41:28	 	36.863194	-122.09676	2429766	3.32	30:48.0	Ventana	33.728	00:25:05:23	10.02	Ophiuroidea					Animalia		Echinodermata									Eukaryota		V3161-01
 	stationary	Metridium farcimen	91.95	3161	04:26:16:09	http://search.mbari.org/ARCHIVE/frameGrabs/Ventana/images/3161/00_18_41_01.jpg	36.86329	-122.09714	2429676	3.32	24:22.0	Ventana	33.727	00:18:41:01	10.028	Anthozoa	Metridiidae	Metridium			Animalia	Actiniaria	Cnidaria	Metridium farcimen	Hexacorallia			Nyantheae				Eukaryota		V3161-01
 	transect	Pennatulacea	91.63	3161	04:39:47:14	 	36.863186	-122.09671	2429909	3.33	37:54.0	Ventana	33.727	00:32:11:20	10.029	Anthozoa					Animalia	Pennatulacea	Cnidaria		Octocorallia							Eukaryota		V3161-01
 	transect	Ophiuroidea	91.56	3161	04:14:23:01	 	36.86351	-122.09679	2429556	3.32	12:28.0	Ventana	33.73	00:06:47:08	10.016	Ophiuroidea					Animalia		Echinodermata									Eukaryota		V3161-01
 	transect	Pennatulacea	91.07	3161	 	 	36.863525	-122.09676	2429503	3.33	10:01.0	Ventana	33.729	00:04:21:07	10.02	Anthozoa					Animalia	Pennatulacea	Cnidaria		Octocorallia							Eukaryota		V3161-01
 	transect	Pennatulacea	91.76	3161	04:47:09:16	 	36.863186	-122.09671	2435121	3.34	45:16.0	Ventana	33.725	00:39:34:22	10.037	Anthozoa					Animalia	Pennatulacea	Cnidaria		Octocorallia							Eukaryota		V3161-01
 	transect	Pennatulacea	91.54	3161	05:02:33:18	 	36.863407	-122.096085	2435384	3.35	00:41.0	Ventana	33.722	00:54:58:13	10.046	Anthozoa					Animalia	Pennatulacea	Cnidaria		Octocorallia							Eukaryota		V3161-01
 	transect	Ophiuroidea	91.35	3161	04:20:22:20	 	36.863632	-122.097084	2429616	3.33	18:28.0	Ventana	33.729	00:12:48:03	10.023	Ophiuroidea					Animalia		Echinodermata									Eukaryota		V3161-01
 	endtransect	object	91.79	3161	04:57:23:27	 	36.863213	-122.09618	2435354	3.34	55:32.0	Ventana	33.724	00:49:49:13	10.044																			V3161-01
 	transect	Pennatulacea	91.39	3161	04:56:35:29	 	36.863163	-122.09612	2435324	3.35	54:43.0	Ventana	33.724	00:49:01:14	10.047	Anthozoa					Animalia	Pennatulacea	Cnidaria		Octocorallia							Eukaryota		V3161-01
 	transect	Pennatulacea	91.68	3161	04:48:31:29	 	36.863186	-122.09671	2435151	3.34	46:39.0	Ventana	33.725	00:40:57:16	10.038	Anthozoa					Animalia	Pennatulacea	Cnidaria		Octocorallia							Eukaryota		V3161-01
 	transect	Ophiuroidea	91.36	3161	05:05:56:12	 	36.86382	-122.09626	2435527	3.35	04:04.0	Ventana	33.722	00:58:21:23	10.047	Ophiuroidea					Animalia		Echinodermata									Eukaryota		V3161-01
 	transect	Phyllospadix	91.78	3161	04:32:15:13	 	36.863194	-122.09678	2429759	3.32	30:22.0	Ventana	33.729	00:24:41:13	10.02		Zosteraceae	Phyllospadix			Plantae	Najadales										Eukaryota		V3161-01
 	transect	Pennatulacea	91.84	3161	04:29:11:04	 	36.863243	-122.09709	2429699	3.32	27:17.0	Ventana	33.729	00:21:35:05	10.02	Anthozoa					Animalia	Pennatulacea	Cnidaria		Octocorallia							Eukaryota		V3161-01
 	transect	Pennatulacea	91.56	3161	04:55:58:00	 	36.863117	-122.096054	2435317	3.35	54:05.0	Ventana	33.722	00:48:21:29	10.047	Anthozoa					Animalia	Pennatulacea	Cnidaria		Octocorallia							Eukaryota		V3161-01
 	transect	Ophiuroidea	91.6	3161	04:13:16:18	 	36.8635	-122.09675	2429526	3.32	11:22.0	Ventana	33.731	00:05:41:13	10.015	Ophiuroidea					Animalia		Echinodermata									Eukaryota		V3161-01
 	transect	Pennatulacea	91.6	3161	04:48:15:14	 	36.863186	-122.09671	2435144	3.34	46:23.0	Ventana	33.724	00:40:41:12	10.038	Anthozoa					Animalia	Pennatulacea	Cnidaria		Octocorallia							Eukaryota		V3161-01
 	transect	Pennatulacea	91.45	3161	04:22:19:02	 	36.86342	-122.097046	2429639	3.32	20:25.0	Ventana	33.73	00:14:43:15	10.018	Anthozoa					Animalia	Pennatulacea	Cnidaria		Octocorallia							Eukaryota		V3161-01
 	transect	Pleuronectiformes	91.44	3161	04:25:17:26	 	36.86331	-122.09714	2429669	3.33	23:23.0	Ventana	33.728	00:17:42:12	10.023	Osteichthyes			Neopterygii		Animalia	Pleuronectiformes	Chordata		Actinopterygii				Vertebrata	Gnathostomata		Eukaryota	Acanthopterygii	V3161-01
 	transect	Pennatulacea	91.5	3161	05:02:25:18	 	36.86339	-122.09608	2435377	3.35	00:33.0	Ventana	33.723	00:54:50:06	10.045	Anthozoa					Animalia	Pennatulacea	Cnidaria		Octocorallia							Eukaryota		V3161-01
 	transect	Pennatulacea	91.56	3161	04:57:15:27	 	36.863205	-122.096176	2435347	3.34	55:24.0	Ventana	33.724	00:49:40:05	10.044	Anthozoa					Animalia	Pennatulacea	Cnidaria		Octocorallia							Eukaryota		V3161-01
 	transect	Pennatulacea	91.83	3161	04:31:45:14	 	36.8632	-122.09682	2429752	3.32	29:51.0	Ventana	33.729	00:24:09:19	10.019	Anthozoa					Animalia	Pennatulacea	Cnidaria		Octocorallia							Eukaryota		V3161-01
 	transect	Pennatulacea	91.53	3161	04:54:53:16	 	36.863052	-122.09595	2435310	3.35	53:01.0	Ventana	33.722	00:47:19:09	10.047	Anthozoa					Animalia	Pennatulacea	Cnidaria		Octocorallia							Eukaryota		V3161-01
 	transect	pleuronectiformes	91.53	3161	04:57:05:28	 	36.863197	-122.09617	2435340	3.34	55:14.0	Ventana	33.723	00:49:31:08	10.044																			V3161-01
 	transect	Pennatulacea	91.99	3161	04:30:37:01	 	36.863213	-122.096924	2429722	3.32	28:43.0	Ventana	33.728	00:23:01:12	10.023	Anthozoa					Animalia	Pennatulacea	Cnidaria		Octocorallia							Eukaryota		V3161-01
 	transect	Pennatulacea	91.83	3161	04:45:51:03	 	36.863186	-122.09671	2435077	3.33	43:58.0	Ventana	33.725	00:38:15:00	10.034	Anthozoa					Animalia	Pennatulacea	Cnidaria		Octocorallia							Eukaryota		V3161-01
 	transect	Pennatulacea	91.62	3161	04:48:05:14	 	36.863186	-122.09671	2435137	3.34	46:13.0	Ventana	33.725	00:40:30:20	10.038	Anthozoa					Animalia	Pennatulacea	Cnidaria		Octocorallia							Eukaryota		V3161-01
 	transect	Pennatulacea	91.74	3161	04:14:05:02	 	36.863503	-122.09677	2429549	3.32	12:10.0	Ventana	33.73	00:06:29:08	10.017	Anthozoa					Animalia	Pennatulacea	Cnidaria		Octocorallia							Eukaryota		V3161-01
 	transect	Pennatulacea	91.54	3161	04:38:53:01	 	36.863186	-122.09671	2429895	3.32	37:00.0	Ventana	33.727	00:31:19:09	10.027	Anthozoa					Animalia	Pennatulacea	Cnidaria		Octocorallia							Eukaryota		V3161-01
 	transect	Phyllospadix	91.13	3161	 	 	36.86367	-122.09686	2429489	3.32	08:41.0	Ventana	33.731	00:03:01:03	10.014		Zosteraceae	Phyllospadix			Plantae	Najadales										Eukaryota		V3161-01
 	transect	Pennatulacea	91.82	3161	04:49:15:27	 	36.863182	-122.096695	2435167	3.34	47:23.0	Ventana	33.723	00:41:40:14	10.043	Anthozoa					Animalia	Pennatulacea	Cnidaria		Octocorallia							Eukaryota		V3161-01
 	transect	Pennatulacea	91.87	3161	04:33:01:27	 	36.86319	-122.09675	2429775	3.32	31:08.0	Ventana	33.728	00:25:26:01	10.023	Anthozoa					Animalia	Pennatulacea	Cnidaria		Octocorallia							Eukaryota		V3161-01
 	transect	Pennatulacea	91.21	3161	04:56:55:28	 	36.863186	-122.09615	2435333	3.34	55:03.0	Ventana	33.723	00:49:20:12	10.043	Anthozoa					Animalia	Pennatulacea	Cnidaria		Octocorallia							Eukaryota		V3161-01
 	transect	Pennatulacea	91.84	3161	04:30:05:02	 	36.86322	-122.096985	2429715	3.32	28:11.0	Ventana	33.728	00:22:29:17	10.023	Anthozoa					Animalia	Pennatulacea	Cnidaria		Octocorallia							Eukaryota		V3161-01
 	transect	Pennatulacea	91.46	3161	05:04:09:29	 	36.86359	-122.096146	2435453	3.35	02:18.0	Ventana	33.722	00:56:35:15	10.044	Anthozoa					Animalia	Pennatulacea	Cnidaria		Octocorallia							Eukaryota		V3161-01
 	transect	Pleuronectiformes	91.81	3161	04:31:13:15	 	36.863205	-122.096855	2429745	3.32	29:19.0	Ventana	33.729	00:23:38:26	10.023	Osteichthyes			Neopterygii		Animalia	Pleuronectiformes	Chordata		Actinopterygii				Vertebrata	Gnathostomata		Eukaryota	Acanthopterygii	V3161-01
 	transect	Pennatulacea	91.5	3161	04:19:26:07	 	36.86367	-122.09708	2429595	3.32	17:32.0	Ventana	33.73	00:11:50:14	10.021	Anthozoa					Animalia	Pennatulacea	Cnidaria		Octocorallia							Eukaryota		V3161-01
 	transect	Pennatulacea	91.82	3161	04:48:47:28	 	36.863186	-122.0967	2435160	3.34	46:55.0	Ventana	33.724	00:41:13:10	10.038	Anthozoa					Animalia	Pennatulacea	Cnidaria		Octocorallia							Eukaryota		V3161-01
 	transect	Ophiuroidea	91.28	3161	05:05:16:12	 	36.863754	-122.09623	2435506	3.35	03:24.0	Ventana	33.723	00:57:41:18	10.046	Ophiuroidea					Animalia		Echinodermata									Eukaryota		V3161-01
 	transect	Ptilosarcus gurneyi	91.76	3161	04:47:35:15	http://search.mbari.org/ARCHIVE/frameGrabs/Ventana/images/3161/00_39_59_26.jpg	36.863186	-122.09671	2435130	3.34	45:42.0	Ventana	33.725	00:39:59:26	10.038	Anthozoa	Pennatulidae	Ptilosarcus			Animalia	Pennatulacea	Cnidaria	Ptilosarcus gurneyi	Octocorallia			Subselliflorae				Eukaryota		V3161-01
 	transect	Osteichthyes	91.35	3161	04:40:09:29	http://search.mbari.org/ARCHIVE/frameGrabs/Ventana/images/3161/00_32_34_27.jpg	36.863186	-122.09671	2429918	3.33	38:16.0	Ventana	33.726	00:32:34:27	10.032	Osteichthyes					Animalia		Chordata						Vertebrata	Gnathostomata		Eukaryota		V3161-01
 	transect	Pennatulacea	91.29	3161	04:21:11:03	 	36.86358	-122.09709	2429625	3.33	19:16.0	Ventana	33.728	00:13:36:15	10.023	Anthozoa					Animalia	Pennatulacea	Cnidaria		Octocorallia							Eukaryota		V3161-01
 	cruise	Pennatulacea	91.25	3161	04:53:15:05	 	36.86309	-122.09622	2435220	3.35	51:22.0	Ventana	33.724	00:45:39:14	10.045	Anthozoa					Animalia	Pennatulacea	Cnidaria		Octocorallia							Eukaryota		V3161-01
 	transect	Pennatulacea	91.53	3161	04:23:53:14	 	36.8634	-122.097115	2429655	3.32	21:59.0	Ventana	33.728	00:16:18:08	10.021	Anthozoa					Animalia	Pennatulacea	Cnidaria		Octocorallia							Eukaryota		V3161-01
 	transect	Phyllospadix	91.69	3161	04:38:43:01	 	36.863186	-122.09671	2429858	3.33	36:50.0	Ventana	33.727	00:31:08:19	10.029		Zosteraceae	Phyllospadix			Plantae	Najadales										Eukaryota		V3161-01
 	transect	Pennatulacea	91.47	3161	05:05:22:12	 	36.863766	-122.09623	2435510	3.35	03:30.0	Ventana	33.723	00:57:46:25	10.046	Anthozoa					Animalia	Pennatulacea	Cnidaria		Octocorallia							Eukaryota		V3161-01
 	transect	Pennatulacea	91.56	3161	04:23:03:15	 	36.86344	-122.09711	2429644	3.33	21:09.0	Ventana	33.728	00:15:27:14	10.024	Anthozoa					Animalia	Pennatulacea	Cnidaria		Octocorallia							Eukaryota		V3161-01
 	transect	Ophiuroidea	91.75	3161	04:48:41:28	 	36.863186	-122.0967	2435157	3.34	46:49.0	Ventana	33.725	00:41:06:20	10.038	Ophiuroidea					Animalia		Echinodermata									Eukaryota		V3161-01
 	transect	Pennatulacea	91.71	3161	04:14:17:01	http://search.mbari.org/ARCHIVE/frameGrabs/Ventana/images/3161/00_06_41_00.jpg	36.86351	-122.09678	2429554	3.32	12:22.0	Ventana	33.73	00:06:41:00	10.017	Anthozoa					Animalia	Pennatulacea	Cnidaria		Octocorallia							Eukaryota		V3161-01
 	transect	Pennatulacea	91.67	3161	04:39:39:15	 	36.863186	-122.09671	2429907	3.32	37:46.0	Ventana	33.728	00:32:03:27	10.028	Anthozoa					Animalia	Pennatulacea	Cnidaria		Octocorallia							Eukaryota		V3161-01
 	transect	Pennatulacea	91.94	3161	04:29:21:04	http://search.mbari.org/ARCHIVE/frameGrabs/Ventana/images/3161/00_21_46_08.jpg	36.863235	-122.09708	2429704	3.32	27:27.0	Ventana	33.729	00:21:46:08	10.02	Anthozoa					Animalia	Pennatulacea	Cnidaria		Octocorallia							Eukaryota		V3161-01
 	transect	Pennatulacea	91.05	3161	04:13:04:19	 	36.8635	-122.09675	2429524	3.32	11:10.0	Ventana	33.731	00:05:29:20	10.015	Anthozoa					Animalia	Pennatulacea	Cnidaria		Octocorallia							Eukaryota		V3161-01
 	transect	Pennatulacea	91.5	3161	05:03:09:17	 	36.86348	-122.096115	2435420	3.35	01:18.0	Ventana	33.723	00:55:34:20	10.044	Anthozoa					Animalia	Pennatulacea	Cnidaria		Octocorallia							Eukaryota		V3161-01
 	cruise	Pennatulacea	90.22	3161	04:52:56:20	 	36.863106	-122.09629	2435217	3.35	51:04.0	Ventana	33.722	00:45:22:29	10.046	Anthozoa					Animalia	Pennatulacea	Cnidaria		Octocorallia							Eukaryota		V3161-01
 	transect	Pennatulacea	91.87	3161	04:33:31:26	 	36.86319	-122.09673	2429787	3.33	31:38.0	Ventana	33.727	00:25:56:22	10.025	Anthozoa					Animalia	Pennatulacea	Cnidaria		Octocorallia							Eukaryota		V3161-01
 	transect	Pennatulacea	91.75	3161	04:37:33:03	 	36.863186	-122.09671	2429817	3.32	35:39.0	Ventana	33.727	00:29:58:18	10.028	Anthozoa					Animalia	Pennatulacea	Cnidaria		Octocorallia							Eukaryota		V3161-01
 	transect	Pennatulacea	91.49	3161	05:04:00:00	 	36.86358	-122.09614	2435450	3.35	02:08.0	Ventana	33.722	00:56:25:15	10.044	Anthozoa					Animalia	Pennatulacea	Cnidaria		Octocorallia							Eukaryota		V3161-01
 	transect	Pennatulacea	91.81	3161	04:32:11:13	 	36.863197	-122.09679	2429757	3.32	30:18.0	Ventana	33.729	00:24:36:21	10.02	Anthozoa					Animalia	Pennatulacea	Cnidaria		Octocorallia							Eukaryota		V3161-01
 	transect	Pennatulacea	91.53	3161	04:40:17:29	 	36.863186	-122.09671	2429974	3.33	38:24.0	Ventana	33.725	00:32:43:00	10.032	Anthozoa					Animalia	Pennatulacea	Cnidaria		Octocorallia							Eukaryota		V3161-01
 	transect	Phyllospadix	91.65	3161	04:14:01:02	 	36.863503	-122.09677	2429547	3.33	12:06.0	Ventana	33.73	00:06:25:28	10.017		Zosteraceae	Phyllospadix			Plantae	Najadales										Eukaryota		V3161-01
 	transect	Pennatulacea	91.67	3161	04:38:21:02	 	36.863186	-122.09671	2429840	3.33	36:27.0	Ventana	33.727	00:30:45:26	10.029	Anthozoa					Animalia	Pennatulacea	Cnidaria		Octocorallia							Eukaryota		V3161-01
 	transect	Pennatulacea	91.64	3161	04:37:21:03	 	36.863186	-122.09671	2429810	3.32	35:27.0	Ventana	33.728	00:29:46:14	10.026	Anthozoa					Animalia	Pennatulacea	Cnidaria		Octocorallia							Eukaryota		V3161-01
 	transect	Asteroidea	91.83	3161	04:46:55:16	http://search.mbari.org/ARCHIVE/frameGrabs/Ventana/images/3161/00_39_20_14.jpg	36.863186	-122.09671	2435097	3.33	45:02.0	Ventana	33.725	00:39:20:14	10.036						Animalia		Echinodermata		Asteroidea							Eukaryota		V3161-01
 	transect	Pennatulacea	91.27	3161	04:56:45:28	 	36.863174	-122.09614	2435330	3.34	54:53.0	Ventana	33.723	00:49:10:04	10.043	Anthozoa					Animalia	Pennatulacea	Cnidaria		Octocorallia							Eukaryota		V3161-01
 	transect	Pennatulacea	91.88	3161	04:33:09:27	 	36.86319	-122.09674	2429780	3.32	31:16.0	Ventana	33.728	00:25:34:24	10.023	Anthozoa					Animalia	Pennatulacea	Cnidaria		Octocorallia							Eukaryota		V3161-01
 	transect	Ophiuroidea	91.76	3161	04:47:37:15	 	36.863186	-122.09671	2435127	3.34	45:44.0	Ventana	33.725	00:40:01:15	10.038	Ophiuroidea					Animalia		Echinodermata									Eukaryota		V3161-01
 	transect	Pennatulacea	91.29	3161	04:24:11:28	 	36.86338	-122.09712	2429660	3.32	22:17.0	Ventana	33.73	00:16:36:28	10.02	Anthozoa					Animalia	Pennatulacea	Cnidaria		Octocorallia							Eukaryota		V3161-01
 	transect	Pennatulacea	91.57	3161	05:03:29:16	 	36.863525	-122.09613	2435436	3.35	01:38.0	Ventana	33.722	00:55:54:04	10.045	Anthozoa					Animalia	Pennatulacea	Cnidaria		Octocorallia							Eukaryota		V3161-01
 	cruise	Pleuronectiformes	91.83	3161	 	 	36.863945	-122.097046	2429487	3.33	07:10.0	Ventana	33.731	00:01:31:10	10.023	Osteichthyes			Neopterygii		Animalia	Pleuronectiformes	Chordata		Actinopterygii				Vertebrata	Gnathostomata		Eukaryota	Acanthopterygii	V3161-01
 	transect	Octopoda	91.77	3161	04:46:49:17	 	36.863186	-122.09671	2435090	3.33	44:56.0	Ventana	33.725	00:39:14:25	10.036	Cephalopoda					Animalia	Octopoda	Mollusca		Coleoidea							Eukaryota	Octopodiformes	V3161-01
 	transect	Pennatulacea	91.47	3161	05:04:25:29	 	36.863605	-122.096146	2435466	3.35	02:34.0	Ventana	33.723	00:56:50:26	10.045	Anthozoa					Animalia	Pennatulacea	Cnidaria		Octocorallia							Eukaryota		V3161-01
 	transect	Ophiuroidea	91.81	3161	04:38:09:02	 	36.863186	-122.09671	2429833	3.33	36:15.0	Ventana	33.726	00:30:33:26	10.028	Ophiuroidea					Animalia		Echinodermata									Eukaryota		V3161-01
 	transect	Pennatulacea	91.46	3161	04:14:39:01	 	36.86352	-122.0968	2429570	3.32	12:44.0	Ventana	33.73	00:07:03:17	10.016	Anthozoa					Animalia	Pennatulacea	Cnidaria		Octocorallia							Eukaryota		V3161-01
 	transect	pleuronectiformes	91.67	3161	04:48:25:29	 	36.863186	-122.09671	2435150	3.34	46:33.0	Ventana	33.724	00:40:50:09	10.038																			V3161-01
 	transect	Pennatulacea	91.94	3161	04:32:59:27	 	36.86319	-122.09675	2429773	3.32	31:06.0	Ventana	33.728	00:25:24:15	10.02	Anthozoa					Animalia	Pennatulacea	Cnidaria		Octocorallia							Eukaryota		V3161-01
 	transect	Pennatulacea	91.53	3161	04:19:28:07	http://search.mbari.org/ARCHIVE/frameGrabs/Ventana/images/3161/00_11_53_14.jpg	36.86367	-122.09708	2429600	3.32	17:34.0	Ventana	33.73	00:11:53:14	10.021	Anthozoa					Animalia	Pennatulacea	Cnidaria		Octocorallia							Eukaryota		V3161-01
 	transect	Pennatulacea	91.87	3161	04:29:53:03	 	36.863228	-122.09701	2429713	3.33	27:59.0	Ventana	33.727	00:22:18:15	10.022	Anthozoa					Animalia	Pennatulacea	Cnidaria		Octocorallia							Eukaryota		V3161-01
 	transect	Phyllospadix	91.69	3161	04:38:43:01	 	36.863186	-122.09671	2429856	3.33	36:50.0	Ventana	33.727	00:31:08:19	10.029		Zosteraceae	Phyllospadix			Plantae	Najadales										Eukaryota		V3161-01
 	transect	pleuronectiformes	91.44	3161	05:02:55:17	 	36.86345	-122.0961	2435406	3.35	01:03.0	Ventana	33.722	00:55:20:13	10.045																			V3161-01
 	transect	Pennatulacea	91.23	3161	 	 	36.86352	-122.096756	2429510	3.33	10:11.0	Ventana	33.729	00:04:32:07	10.018	Anthozoa					Animalia	Pennatulacea	Cnidaria		Octocorallia							Eukaryota		V3161-01
 	transect	pleuronectiformes	91.81	3161	04:46:05:03	 	36.863186	-122.09671	2435083	3.34	44:12.0	Ventana	33.725	00:38:30:07	10.037																			V3161-01
 	transect	Pennatulacea	91.59	3161	05:02:21:18	 	36.86338	-122.09607	2435376	3.35	00:29.0	Ventana	33.723	00:54:46:17	10.045	Anthozoa					Animalia	Pennatulacea	Cnidaria		Octocorallia							Eukaryota		V3161-01
 	transect	Pennatulacea	91.6	3161	04:48:15:14	 	36.863186	-122.09671	2435143	3.34	46:23.0	Ventana	33.724	00:40:40:20	10.038	Anthozoa					Animalia	Pennatulacea	Cnidaria		Octocorallia							Eukaryota		V3161-01
 	transect	Pennatulacea	91.47	3161	04:57:13:27	 	36.863205	-122.096176	2435346	3.34	55:22.0	Ventana	33.723	00:49:39:15	10.044	Anthozoa					Animalia	Pennatulacea	Cnidaria		Octocorallia							Eukaryota		V3161-01
 	transect	Pennatulacea	91.68	3161	04:49:45:26	 	36.86318	-122.09668	2435173	3.34	47:53.0	Ventana	33.724	00:42:11:08	10.042	Anthozoa					Animalia	Pennatulacea	Cnidaria		Octocorallia							Eukaryota		V3161-01
 	transect	Pennatulacea	91.8	3161	04:46:53:17	 	36.863186	-122.09671	2435095	3.33	45:00.0	Ventana	33.725	00:39:18:10	10.036	Anthozoa					Animalia	Pennatulacea	Cnidaria		Octocorallia							Eukaryota		V3161-01
 	transect	Pennatulacea	90.82	3161	 	 	36.86358	-122.096794	2429492	3.32	09:01.0	Ventana	33.731	00:03:20:06	10.016	Anthozoa					Animalia	Pennatulacea	Cnidaria		Octocorallia							Eukaryota		V3161-01
 	transect	Pennatulacea	91.79	3161	04:47:31:15	 	36.863186	-122.09671	2435125	3.34	45:38.0	Ventana	33.725	00:39:56:22	10.038	Anthozoa					Animalia	Pennatulacea	Cnidaria		Octocorallia							Eukaryota		V3161-01
 	transect	Pleuronectiformes	91.84	3161	04:33:29:26	 	36.86319	-122.09673	2429785	3.33	31:36.0	Ventana	33.728	00:25:53:22	10.024	Osteichthyes			Neopterygii		Animalia	Pleuronectiformes	Chordata		Actinopterygii				Vertebrata	Gnathostomata		Eukaryota	Acanthopterygii	V3161-01
 	transect	Ceriantharia	91.34	3161	04:56:41:28	 	36.86317	-122.09614	2435328	3.35	54:49.0	Ventana	33.724	00:49:06:12	10.047	Anthozoa					Animalia	Ceriantharia	Cnidaria		Ceriantipatharia							Eukaryota		V3161-01
 	transect	Pennatulacea	91.7	3161	04:48:39:29	 	36.863186	-122.0967	2435155	3.34	46:47.0	Ventana	33.725	00:41:04:07	10.038	Anthozoa					Animalia	Pennatulacea	Cnidaria		Octocorallia							Eukaryota		V3161-01
 	transect	Pennatulacea	91.75	3161	04:37:33:03	 	36.863186	-122.09671	2429815	3.32	35:39.0	Ventana	33.727	00:29:57:23	10.028	Anthozoa					Animalia	Pennatulacea	Cnidaria		Octocorallia							Eukaryota		V3161-01
 	transect	Pennatulacea	91.65	3161	04:28:52:19	 	36.86326	-122.09711	2429695	3.33	26:59.0	Ventana	33.728	00:21:17:07	10.024	Anthozoa					Animalia	Pennatulacea	Cnidaria		Octocorallia							Eukaryota		V3161-01
 	transect	Pennatulacea	91.71	3161	04:14:17:01	http://search.mbari.org/ARCHIVE/frameGrabs/Ventana/images/3161/00_06_41_00.jpg	36.86351	-122.09678	2429552	3.32	12:22.0	Ventana	33.73	00:06:41:00	10.017	Anthozoa					Animalia	Pennatulacea	Cnidaria		Octocorallia							Eukaryota		V3161-01
 	transect	Pennatulacea	91.85	3161	04:30:43:01	 	36.863213	-122.09691	2429725	3.32	28:49.0	Ventana	33.728	00:23:07:13	10.023	Anthozoa					Animalia	Pennatulacea	Cnidaria		Octocorallia							Eukaryota		V3161-01
 	transect	Pennatulacea	91.66	3161	04:40:21:28	 	36.863186	-122.09671	2429976	3.33	38:28.0	Ventana	33.725	00:32:46:11	10.032	Anthozoa					Animalia	Pennatulacea	Cnidaria		Octocorallia							Eukaryota		V3161-01
 	transect	Pennatulacea	91.71	3161	04:47:03:16	 	36.863186	-122.09671	2435118	3.34	45:10.0	Ventana	33.725	00:39:27:13	10.037	Anthozoa					Animalia	Pennatulacea	Cnidaria		Octocorallia							Eukaryota		V3161-01
 	transect	Ophiuroidea	91.65	3161	04:14:01:02	 	36.863503	-122.09677	2429545	3.33	12:06.0	Ventana	33.73	00:06:25:28	10.017	Ophiuroidea					Animalia		Echinodermata									Eukaryota		V3161-01
 	transect	Pennatulacea	91.66	3161	04:48:23:29	 	36.863186	-122.09671	2435148	3.34	46:31.0	Ventana	33.724	00:40:49:20	10.038	Anthozoa					Animalia	Pennatulacea	Cnidaria		Octocorallia							Eukaryota		V3161-01
 	transect	Pennatulacea	91.2	3161	 	 	36.86351	-122.09675	2429515	3.33	10:29.0	Ventana	33.73	00:04:49:27	10.016	Anthozoa					Animalia	Pennatulacea	Cnidaria		Octocorallia							Eukaryota		V3161-01
 	transect	Ophiuroidea	91.51	3161	04:19:38:22	 	36.863663	-122.09708	2429605	3.32	17:44.0	Ventana	33.73	00:12:02:18	10.02	Ophiuroidea					Animalia		Echinodermata									Eukaryota		V3161-01
 	transect	Pennatulacea	91.4	3161	05:05:10:12	 	36.863747	-122.09622	2435501	3.35	03:18.0	Ventana	33.723	00:57:34:25	10.046	Anthozoa					Animalia	Pennatulacea	Cnidaria		Octocorallia							Eukaryota		V3161-01
 	cruise	mud	91.18	3161	 	 	36.863987	-122.09701	2429485	3.33	05:52.0	Ventana	33.732	00:00:11:22	10.013																			V3161-01
 	transect	Osteichthyes	91.27	3161	05:06:06:11	 	36.863834	-122.09627	2435531	3.35	04:14.0	Ventana	33.723	00:58:31:00	10.046	Osteichthyes					Animalia		Chordata						Vertebrata	Gnathostomata		Eukaryota		V3161-01
 	transect	Pleuronectiformes	91.94	3161	04:31:27:15	 	36.8632	-122.09684	2429748	3.32	29:33.0	Ventana	33.729	00:23:52:13	10.019	Osteichthyes			Neopterygii		Animalia	Pleuronectiformes	Chordata		Actinopterygii				Vertebrata	Gnathostomata		Eukaryota	Acanthopterygii	V3161-01
 	transect	Pennatulacea	91.88	3161	04:33:09:27	 	36.86319	-122.09674	2429778	3.32	31:16.0	Ventana	33.728	00:25:34:06	10.023	Anthozoa					Animalia	Pennatulacea	Cnidaria		Octocorallia							Eukaryota		V3161-01
 	starttransect	object	91.6	3161	04:28:34:20	 	36.863277	-122.097115	2429688	3.33	26:40.0	Ventana	33.728	00:20:59:10	10.024																			V3161-01
 	transect	Pennatulacea	91.88	3161	04:44:14:21	 	36.863186	-122.09671	2435065	3.33	42:21.0	Ventana	33.726	00:36:39:04	10.033	Anthozoa					Animalia	Pennatulacea	Cnidaria		Octocorallia							Eukaryota		V3161-01
 	transect	Pennatulacea	91.47	3161	04:14:37:01	 	36.863518	-122.0968	2429568	3.32	12:42.0	Ventana	33.73	00:07:02:21	10.016	Anthozoa					Animalia	Pennatulacea	Cnidaria		Octocorallia							Eukaryota		V3161-01
 	transect	Pennatulacea	91.66	3161	04:48:13:14	 	36.863186	-122.09671	2435141	3.34	46:21.0	Ventana	33.725	00:40:39:05	10.038	Anthozoa					Animalia	Pennatulacea	Cnidaria		Octocorallia							Eukaryota		V3161-01
 	transect	Pennatulacea	91.77	3161	04:49:25:27	http://search.mbari.org/ARCHIVE/frameGrabs/Ventana/images/3161/00_41_51_21.jpg	36.863182	-122.096695	2435171	3.34	47:33.0	Ventana	33.723	00:41:51:21	10.043	Anthozoa					Animalia	Pennatulacea	Cnidaria		Octocorallia							Eukaryota		V3161-01
 	transect	Ophiuroidea	91.52	3161	04:38:51:01	 	36.863186	-122.09671	2429891	3.32	36:58.0	Ventana	33.727	00:31:15:25	10.027	Ophiuroidea					Animalia		Echinodermata									Eukaryota		V3161-01
 	transect	Pennatulacea	91.52	3161	04:23:57:14	 	36.863396	-122.09712	2429658	3.32	22:03.0	Ventana	33.728	00:16:22:14	10.021	Anthozoa					Animalia	Pennatulacea	Cnidaria		Octocorallia							Eukaryota		V3161-01
 	transect	Ophiuroidea	91.44	3161	04:21:33:03	 	36.863544	-122.097084	2429628	3.33	19:38.0	Ventana	33.728	00:13:57:15	10.023	Ophiuroidea					Animalia		Echinodermata									Eukaryota		V3161-01
 	transect	Pennatulacea	91.42	3161	05:02:09:18	 	36.863358	-122.09607	2435374	3.34	00:17.0	Ventana	33.723	00:54:34:07	10.045	Anthozoa					Animalia	Pennatulacea	Cnidaria		Octocorallia							Eukaryota		V3161-01
 	cruise	mud	92.02	3161	04:36:50:20	 	36.863186	-122.09671	2429801	3.32	34:57.0	Ventana	33.728	00:29:16:02	10.026																			V3161-01
 	transect	Pennatulacea	91.82	3161	04:29:51:02	 	36.863228	-122.097015	2429711	3.33	27:57.0	Ventana	33.727	00:22:16:13	10.022	Anthozoa					Animalia	Pennatulacea	Cnidaria		Octocorallia							Eukaryota		V3161-01
 	transect	Pennatulacea	91.48	3161	05:03:27:16	 	36.86352	-122.09613	2435434	3.35	01:36.0	Ventana	33.723	00:55:53:03	10.044	Anthozoa					Animalia	Pennatulacea	Cnidaria		Octocorallia							Eukaryota		V3161-01
 	transect	Pennatulacea	91.74	3161	04:46:45:17	 	36.863186	-122.09671	2435088	3.34	44:52.0	Ventana	33.725	00:39:09:12	10.037	Anthozoa					Animalia	Pennatulacea	Cnidaria		Octocorallia							Eukaryota		V3161-01
 	starttransect	object	91.16	3161	04:19:18:07	 	36.863674	-122.09708	2429591	3.32	17:24.0	Ventana	33.73	00:11:42:28	10.021																			V3161-01
 	transect	Phyllospadix	91.74	3161	04:49:03:27	 	36.863186	-122.0967	2435164	3.34	47:11.0	Ventana	33.725	00:41:28:06	10.038		Zosteraceae	Phyllospadix			Plantae	Najadales										Eukaryota		V3161-01
 	transect	Pennatulacea	91.46	3161	05:04:49:29	 	36.863705	-122.0962	2435487	3.35	02:58.0	Ventana	33.723	00:57:15:27	10.045	Anthozoa					Animalia	Pennatulacea	Cnidaria		Octocorallia							Eukaryota		V3161-01
 	transect	pleuronectiformes	91.83	3161	04:47:49:15	 	36.863186	-122.09671	2435134	3.34	45:57.0	Ventana	33.724	00:40:13:18	10.038																			V3161-01
 	transect	Pennatulacea	91.42	3161	04:20:52:19	 	36.8636	-122.09709	2429621	3.33	18:58.0	Ventana	33.729	00:13:16:29	10.023	Anthozoa					Animalia	Pennatulacea	Cnidaria		Octocorallia							Eukaryota		V3161-01
 	transect	Phyllospadix	91.68	3161	04:38:31:01	 	36.863186	-122.09671	2429854	3.33	36:38.0	Ventana	33.727	00:30:55:18	10.029		Zosteraceae	Phyllospadix			Plantae	Najadales										Eukaryota		V3161-01
 	transect	Pennatulacea	91.1	3161	 	 	36.863525	-122.09676	2429501	3.33	09:59.0	Ventana	33.729	00:04:20:09	10.02	Anthozoa					Animalia	Pennatulacea	Cnidaria		Octocorallia							Eukaryota		V3161-01
 	transect	Pennatulacea	91.64	3161	04:14:21:01	 	36.86351	-122.09679	2429561	3.32	12:26.0	Ventana	33.73	00:06:45:20	10.016	Anthozoa					Animalia	Pennatulacea	Cnidaria		Octocorallia							Eukaryota		V3161-01
 	transect	Pleuronectiformes	91.96	3161	04:32:35:28	 	36.863194	-122.09676	2429764	3.32	30:42.0	Ventana	33.728	00:24:59:25	10.02	Osteichthyes			Neopterygii		Animalia	Pleuronectiformes	Chordata		Actinopterygii				Vertebrata	Gnathostomata		Eukaryota	Acanthopterygii	V3161-01
 	transect	metridium-farcimen	91.46	3161	05:01:51:19	http://search.mbari.org/ARCHIVE/frameGrabs/Ventana/images/3161/00_54_16_05.jpg	36.86332	-122.09606	2435371	3.35	59:59.0	Ventana	33.722	00:54:16:05	10.045																			V3161-01
 	transect	Ophiuroidea	91.83	3161	04:37:29:03	 	36.863186	-122.09671	2429813	3.32	35:35.0	Ventana	33.728	00:29:54:26	10.026	Ophiuroidea					Animalia		Echinodermata									Eukaryota		V3161-01
 	transect	Pennatulacea	91.83	3161	04:45:51:03	 	36.863186	-122.09671	2435078	3.33	43:58.0	Ventana	33.725	00:38:15:27	10.034	Anthozoa					Animalia	Pennatulacea	Cnidaria		Octocorallia							Eukaryota		V3161-01
 	transect	Pennatulacea	91.99	3161	04:30:37:01	 	36.863213	-122.096924	2429723	3.32	28:43.0	Ventana	33.728	00:23:02:00	10.023	Anthozoa					Animalia	Pennatulacea	Cnidaria		Octocorallia							Eukaryota		V3161-01
 	transect	Ophiuroidea	91.42	3161	05:04:19:29	 	36.8636	-122.096146	2435461	3.35	02:28.0	Ventana	33.723	00:56:45:22	10.045	Ophiuroidea					Animalia		Echinodermata									Eukaryota		V3161-01
 	transect	Pennatulacea	91.62	3161	04:48:05:14	 	36.863186	-122.09671	2435138	3.34	46:13.0	Ventana	33.725	00:40:31:08	10.038	Anthozoa					Animalia	Pennatulacea	Cnidaria		Octocorallia							Eukaryota		V3161-01
 	transect	Pennatulacea	91.48	3161	05:04:51:28	 	36.86371	-122.0962	2435491	3.35	03:00.0	Ventana	33.723	00:57:18:04	10.045	Anthozoa					Animalia	Pennatulacea	Cnidaria		Octocorallia							Eukaryota		V3161-01
 	transect	Pennatulacea	91.74	3161	04:54:57:17	 	36.863052	-122.09595	2435311	3.35	53:05.0	Ventana	33.722	00:47:23:04	10.047	Anthozoa					Animalia	Pennatulacea	Cnidaria		Octocorallia							Eukaryota		V3161-01
 	transect	Pennatulacea	91.84	3161	04:15:01:15	 	36.863537	-122.09683	2429580	3.33	13:06.0	Ventana	33.728	00:07:25:27	10.022	Anthozoa					Animalia	Pennatulacea	Cnidaria		Octocorallia							Eukaryota		V3161-01
 	transect	Pennatulacea	91.37	3161	04:21:45:03	 	36.863514	-122.09708	2429633	3.33	19:50.0	Ventana	33.728	00:14:10:21	10.023	Anthozoa					Animalia	Pennatulacea	Cnidaria		Octocorallia							Eukaryota		V3161-01
 	transect	Phyllospadix	91.77	3161	04:49:21:27	 	36.863182	-122.096695	2435168	3.34	47:29.0	Ventana	33.723	00:41:46:26	10.043		Zosteraceae	Phyllospadix			Plantae	Najadales										Eukaryota		V3161-01
 	ascend	water	79.96	3161	05:12:55:28	 	36.86388	-122.09652	2435604	3.36	11:05.0	Ventana	33.72	01:05:20:05	10.05																			V3161-01
 	transect	Pennatulacea	91.73	3161	04:14:07:02	 	36.863506	-122.09677	2429550	3.32	12:12.0	Ventana	33.73	00:06:32:02	10.017	Anthozoa					Animalia	Pennatulacea	Cnidaria		Octocorallia							Eukaryota		V3161-01
 	transect	Pennatulacea	91.56	3161	04:38:55:16	 	36.863186	-122.09671	2429896	3.32	37:02.0	Ventana	33.727	00:31:20:13	10.027	Anthozoa					Animalia	Pennatulacea	Cnidaria		Octocorallia							Eukaryota		V3161-01
 	transect	Pennatulacea	91.36	3161	04:24:15:28	 	36.863373	-122.09712	2429663	3.32	22:21.0	Ventana	33.73	00:16:41:20	10.02	Anthozoa					Animalia	Pennatulacea	Cnidaria		Octocorallia							Eukaryota		V3161-01
 	transect	Pleuronectiformes	90.93	3161	 	 	36.863644	-122.09684	2429490	3.32	08:47.0	Ventana	33.731	00:03:06:25	10.014	Osteichthyes			Neopterygii		Animalia	Pleuronectiformes	Chordata		Actinopterygii				Vertebrata	Gnathostomata		Eukaryota	Acanthopterygii	V3161-01
 	transect	Pennatulacea	91.51	3161	05:02:51:17	 	36.86344	-122.09609	2435401	3.35	00:59.0	Ventana	33.722	00:55:16:02	10.045	Anthozoa					Animalia	Pennatulacea	Cnidaria		Octocorallia							Eukaryota		V3161-01
 	transect	Pennatulacea	91.51	3161	05:02:41:17	 	36.863422	-122.096085	2435394	3.35	00:49.0	Ventana	33.722	00:55:05:16	10.046	Anthozoa					Animalia	Pennatulacea	Cnidaria		Octocorallia							Eukaryota		V3161-01
 	cruise	benthos	91.22	3161	 	 	36.86399	-122.09701	2429483	3.33	05:48.0	Ventana	33.732	00:00:07:17	10.013																			V3161-01
 	transect	Ophiuroidea	91.83	3161	04:38:15:02	 	36.863186	-122.09671	2429836	3.33	36:21.0	Ventana	33.726	00:30:40:14	10.028	Ophiuroidea					Animalia		Echinodermata									Eukaryota		V3161-01
 	transect	Phyllospadix	91.46	3161	05:03:15:16	 	36.86349	-122.09612	2435424	3.35	01:24.0	Ventana	33.723	00:55:39:21	10.044		Zosteraceae	Phyllospadix			Plantae	Najadales										Eukaryota		V3161-01
 	transect	Pennatulacea	91.99	3161	04:31:21:15	 	36.863205	-122.09685	2429746	3.32	29:27.0	Ventana	33.729	00:23:45:16	10.019	Anthozoa					Animalia	Pennatulacea	Cnidaria		Octocorallia							Eukaryota		V3161-01
 	transect	Ophiuroidea	91.6	3161	04:14:53:01	 	36.86353	-122.09682	2429573	3.33	12:58.0	Ventana	33.728	00:07:18:23	10.022	Ophiuroidea					Animalia		Echinodermata									Eukaryota		V3161-01
 	transect	Pennatulacea	91.53	3161	04:23:53:14	 	36.8634	-122.097115	2429656	3.32	21:59.0	Ventana	33.728	00:16:19:16	10.021	Anthozoa					Animalia	Pennatulacea	Cnidaria		Octocorallia							Eukaryota		V3161-01
 	transect	Pennatulacea	91.72	3161	04:48:49:28	 	36.863186	-122.0967	2435161	3.34	46:57.0	Ventana	33.724	00:41:14:01	10.038	Anthozoa					Animalia	Pennatulacea	Cnidaria		Octocorallia							Eukaryota		V3161-01
 	transect	Pennatulacea	91.24	3161	05:06:14:11	 	36.863846	-122.096275	2435537	3.35	04:22.0	Ventana	33.723	00:58:39:26	10.046	Anthozoa					Animalia	Pennatulacea	Cnidaria		Octocorallia							Eukaryota		V3161-01
 	transect	Pennatulacea	91.1	3161	 	 	36.863514	-122.096756	2429513	3.33	10:25.0	Ventana	33.73	00:04:45:05	10.016	Anthozoa					Animalia	Pennatulacea	Cnidaria		Octocorallia							Eukaryota		V3161-01
 	cruise	pleuronectiformes	91.68	3161	04:53:21:05	 	36.863087	-122.0962	2435221	3.35	51:28.0	Ventana	33.723	00:45:45:14	10.044																			V3161-01
 	transect	Phyllospadix	91.88	3161	04:38:03:02	 	36.863186	-122.09671	2429829	3.33	36:09.0	Ventana	33.726	00:30:27:15	10.028		Zosteraceae	Phyllospadix			Plantae	Najadales										Eukaryota		V3161-01
 	transect	Pennatulacea	91.26	3161	 	 	36.86352	-122.096756	2429506	3.33	10:07.0	Ventana	33.729	00:04:26:29	10.02	Anthozoa					Animalia	Pennatulacea	Cnidaria		Octocorallia							Eukaryota		V3161-01
 	transect	Pennatulacea	91.5	3161	04:14:35:01	 	36.863518	-122.0968	2429566	3.32	12:40.0	Ventana	33.73	00:07:00:19	10.016	Anthozoa					Animalia	Pennatulacea	Cnidaria		Octocorallia							Eukaryota		V3161-01
 	transect	Pennatulacea	91.7	3161	04:48:39:29	 	36.863186	-122.0967	2435154	3.34	46:47.0	Ventana	33.725	00:41:03:27	10.038	Anthozoa					Animalia	Pennatulacea	Cnidaria		Octocorallia							Eukaryota		V3161-01
 	transect	Pennatulacea	91.79	3161	04:47:31:15	 	36.863186	-122.09671	2435124	3.34	45:38.0	Ventana	33.725	00:39:55:14	10.038	Anthozoa					Animalia	Pennatulacea	Cnidaria		Octocorallia							Eukaryota		V3161-01
 	transect	Pennatulacea	91.36	3161	05:04:33:29	 	36.86367	-122.09618	2435477	3.35	02:42.0	Ventana	33.722	00:56:57:24	10.046	Anthozoa					Animalia	Pennatulacea	Cnidaria		Octocorallia							Eukaryota		V3161-01
 	transect	Pennatulacea	91.96	3161	04:32:47:27	 	36.863194	-122.096756	2429769	3.32	30:54.0	Ventana	33.728	00:25:13:21	10.02	Anthozoa					Animalia	Pennatulacea	Cnidaria		Octocorallia							Eukaryota		V3161-01
 	transect	Pennatulacea	91.34	3161	04:56:41:28	 	36.86317	-122.09614	2435327	3.35	54:49.0	Ventana	33.724	00:49:06:10	10.047	Anthozoa					Animalia	Pennatulacea	Cnidaria		Octocorallia							Eukaryota		V3161-01
 	transect	Ophiuroidea	91.44	3161	04:23:29:15	 	36.863426	-122.097115	2429649	3.33	21:35.0	Ventana	33.728	00:15:53:24	10.023	Ophiuroidea					Animalia		Echinodermata									Eukaryota		V3161-01
 	transect	Ceriantharia	91.81	3161	04:30:59:16	http://search.mbari.org/ARCHIVE/frameGrabs/Ventana/images/3161/00_23_24_29.jpg	36.86321	-122.096886	2429739	3.32	29:05.0	Ventana	33.727	00:23:24:29	10.023	Anthozoa					Animalia	Ceriantharia	Cnidaria		Ceriantipatharia							Eukaryota		V3161-01
 	transect	Pennatulacea	91.57	3161	04:40:01:28	 	36.863186	-122.09671	2429912	3.33	38:08.0	Ventana	33.726	00:32:27:05	10.032	Anthozoa					Animalia	Pennatulacea	Cnidaria		Octocorallia							Eukaryota		V3161-01
 	transect	Pennatulacea	91.46	3161	04:13:41:02	 	36.8635	-122.09676	2429536	3.33	11:46.0	Ventana	33.729	00:06:06:08	10.019	Anthozoa					Animalia	Pennatulacea	Cnidaria		Octocorallia							Eukaryota		V3161-01
 	transect	Pennatulacea	91.81	3161	04:29:37:03	 	36.86323	-122.097046	2429709	3.32	27:43.0	Ventana	33.728	00:22:02:07	10.023	Anthozoa					Animalia	Pennatulacea	Cnidaria		Octocorallia							Eukaryota		V3161-01
 	transect	Ophiuroidea	91.39	3161	05:03:03:17	 	36.863464	-122.09611	2435417	3.35	01:11.0	Ventana	33.723	00:55:29:07	10.044	Ophiuroidea					Animalia		Echinodermata									Eukaryota		V3161-01
 	transect	Pennatulacea	91.11	3161	 	 	36.86353	-122.09676	2429499	3.33	09:55.0	Ventana	33.729	00:04:16:07	10.02	Anthozoa					Animalia	Pennatulacea	Cnidaria		Octocorallia							Eukaryota		V3161-01
 	transect	Pennatulacea	91.28	3161	05:02:59:17	 	36.863457	-122.0961	2435410	3.35	01:07.0	Ventana	33.722	00:55:24:19	10.045	Anthozoa					Animalia	Pennatulacea	Cnidaria		Octocorallia							Eukaryota		V3161-01
 	transect	pleuronectiformes	91.47	3161	05:04:25:29	http://search.mbari.org/ARCHIVE/frameGrabs/Ventana/images/3161/00_56_50_12.jpg	36.863605	-122.096146	2435470	3.35	02:34.0	Ventana	33.723	00:56:50:12	10.045																			V3161-01
 	transect	Ophiuroidea	91.64	3161	04:14:21:01	 	36.86351	-122.09679	2429559	3.32	12:26.0	Ventana	33.73	00:06:45:20	10.016	Ophiuroidea					Animalia		Echinodermata									Eukaryota		V3161-01
 	transect	Pennatulacea	91.46	3161	05:02:29:17	 	36.8634	-122.09608	2435380	3.35	00:37.0	Ventana	33.723	00:54:54:08	10.045	Anthozoa					Animalia	Pennatulacea	Cnidaria		Octocorallia							Eukaryota		V3161-01
 	transect	pleuronectiformes	91.77	3161	04:57:21:27	 	36.86321	-122.09618	2435350	3.34	55:30.0	Ventana	33.724	00:49:47:03	10.044																			V3161-01
 	transect	Pennatulacea	91.67	3161	04:56:05:29	 	36.86313	-122.09607	2435320	3.35	54:13.0	Ventana	33.722	00:48:30:19	10.047	Anthozoa					Animalia	Pennatulacea	Cnidaria		Octocorallia							Eukaryota		V3161-01
 	endtransect	object	91.96	3161	04:50:16:10	 	36.863174	-122.09666	2435177	3.34	48:23.0	Ventana	33.724	00:42:40:26	10.039																			V3161-01
 	transect	Osteichthyes	91.63	3161	04:48:21:29	 	36.863186	-122.09671	2435147	3.34	46:29.0	Ventana	33.724	00:40:45:26	10.038	Osteichthyes					Animalia		Chordata						Vertebrata	Gnathostomata		Eukaryota		V3161-01
 	transect	Pennatulacea	91.42	3161	04:20:40:20	 	36.863617	-122.097084	2429619	3.32	18:46.0	Ventana	33.73	00:13:05:27	10.021	Anthozoa					Animalia	Pennatulacea	Cnidaria		Octocorallia							Eukaryota		V3161-01
 	endtransect	physical object	91.95	3161	04:26:16:09	http://search.mbari.org/ARCHIVE/frameGrabs/Ventana/images/3161/00_18_40_21.jpg	36.86329	-122.09714	2429672	3.32	24:22.0	Ventana	33.727	00:18:40:21	10.028																			V3161-01
 	transect	Pennatulacea	91.83	3161	04:30:57:15	 	36.86321	-122.096886	2429732	3.32	29:03.0	Ventana	33.727	00:23:23:05	10.023	Anthozoa					Animalia	Pennatulacea	Cnidaria		Octocorallia							Eukaryota		V3161-01
 	transect	Pennatulacea	91.71	3161	04:39:27:15	 	36.863186	-122.09671	2429905	3.33	37:34.0	Ventana	33.727	00:31:51:21	10.029	Anthozoa					Animalia	Pennatulacea	Cnidaria		Octocorallia							Eukaryota		V3161-01
 	transect	Pennatulacea	91.32	3161	04:24:13:13	 	36.863377	-122.09712	2429661	3.32	22:19.0	Ventana	33.73	00:16:38:02	10.02	Anthozoa					Animalia	Pennatulacea	Cnidaria		Octocorallia							Eukaryota		V3161-01
 	transect	Pleuronectiformes	91.83	3161	04:31:45:14	 	36.8632	-122.09682	2429751	3.32	29:51.0	Ventana	33.729	00:24:09:19	10.019	Osteichthyes			Neopterygii		Animalia	Pleuronectiformes	Chordata		Actinopterygii				Vertebrata	Gnathostomata		Eukaryota	Acanthopterygii	V3161-01
 	transect	Pennatulacea	91.42	3161	05:03:19:16	 	36.863503	-122.09613	2435429	3.35	01:28.0	Ventana	33.723	00:55:44:23	10.044	Anthozoa					Animalia	Pennatulacea	Cnidaria		Octocorallia							Eukaryota		V3161-01
 	transect	Pennatulacea	91.83	3161	04:45:47:03	 	36.863186	-122.09671	2435076	3.33	43:54.0	Ventana	33.725	00:38:11:21	10.034	Anthozoa					Animalia	Pennatulacea	Cnidaria		Octocorallia							Eukaryota		V3161-01
 	transect	Pennatulacea	91.89	3161	04:30:21:02	 	36.863216	-122.096954	2429721	3.33	28:27.0	Ventana	33.729	00:22:44:28	10.022	Anthozoa					Animalia	Pennatulacea	Cnidaria		Octocorallia							Eukaryota		V3161-01
 	transect	pleuronectiformes	91.37	3161	05:04:45:28	 	36.863697	-122.09619	2435482	3.35	02:54.0	Ventana	33.723	00:57:11:22	10.045																			V3161-01
 	transect	pleuronectiformes	91.39	3161	05:06:22:11	 	36.86386	-122.09628	2435542	3.35	04:31.0	Ventana	33.723	00:58:47:01	10.044																			V3161-01
 	transect	Pennatulacea	91.7	3161	04:49:11:27	 	36.863186	-122.096695	2435166	3.34	47:19.0	Ventana	33.725	00:41:37:18	10.038	Anthozoa					Animalia	Pennatulacea	Cnidaria		Octocorallia							Eukaryota		V3161-01
 	transect	Pennatulacea	91.83	3161	04:38:13:02	 	36.863186	-122.09671	2429834	3.33	36:19.0	Ventana	33.726	00:30:37:09	10.028	Anthozoa					Animalia	Pennatulacea	Cnidaria		Octocorallia							Eukaryota		V3161-01
 	transect	Pennatulacea	91.46	3161	05:01:51:19	http://search.mbari.org/ARCHIVE/frameGrabs/Ventana/images/3161/00_54_16_05.jpg	36.86332	-122.09606	2435369	3.35	59:59.0	Ventana	33.722	00:54:16:05	10.045	Anthozoa					Animalia	Pennatulacea	Cnidaria		Octocorallia							Eukaryota		V3161-01
 	transect	Pennatulacea	91.64	3161	04:48:01:15	 	36.863186	-122.09671	2435136	3.34	46:09.0	Ventana	33.725	00:40:27:21	10.038	Anthozoa					Animalia	Pennatulacea	Cnidaria		Octocorallia							Eukaryota		V3161-01
 	transect	Ophiuroidea	91.35	3161	04:21:39:03	 	36.863533	-122.09708	2429631	3.33	19:44.0	Ventana	33.728	00:14:03:11	10.023	Ophiuroidea					Animalia		Echinodermata									Eukaryota		V3161-01
 	transect	Rathbunaster californicus	91.79	3161	04:31:05:15	http://search.mbari.org/ARCHIVE/frameGrabs/Ventana/images/3161/00_23_29_21.jpg	36.86321	-122.09687	2429744	3.32	29:11.0	Ventana	33.729	00:23:29:21	10.023		Labidiasteridae	Rathbunaster			Animalia	Forcipulatida	Echinodermata	Rathbunaster californicus	Asteroidea							Eukaryota		V3161-01
 	transect	Pennatulacea	91.89	3161	04:29:57:02	 	36.863224	-122.097	2429714	3.33	28:03.0	Ventana	33.727	00:22:22:07	10.022	Anthozoa					Animalia	Pennatulacea	Cnidaria		Octocorallia							Eukaryota		V3161-01
 	transect	pleuronectiformes	91.32	3161	04:56:47:28	 	36.863174	-122.096146	2435332	3.34	54:55.0	Ventana	33.723	00:49:13:08	10.043																			V3161-01
 	transect	Pennatulacea	91.94	3161	04:32:59:27	 	36.86319	-122.09675	2429774	3.32	31:06.0	Ventana	33.728	00:25:25:21	10.02	Anthozoa					Animalia	Pennatulacea	Cnidaria		Octocorallia							Eukaryota		V3161-01
 	transect	Pennatulacea	91.49	3161	05:03:11:16	 	36.863483	-122.09612	2435422	3.35	01:20.0	Ventana	33.723	00:55:36:27	10.044	Anthozoa					Animalia	Pennatulacea	Cnidaria		Octocorallia							Eukaryota		V3161-01
 	transect	Pennatulacea	91.33	3161	04:13:53:02	 	36.863503	-122.09676	2429541	3.33	11:58.0	Ventana	33.73	00:06:18:16	10.017	Anthozoa					Animalia	Pennatulacea	Cnidaria		Octocorallia							Eukaryota		V3161-01
 	transect	Pleuronectiformes	91.64	3161	04:14:21:01	 	36.86351	-122.09679	2429564	3.32	12:26.0	Ventana	33.73	00:06:45:20	10.016	Osteichthyes			Neopterygii		Animalia	Pleuronectiformes	Chordata		Actinopterygii				Vertebrata	Gnathostomata		Eukaryota	Acanthopterygii	V3161-01
 	transect	Pleuronectiformes	91.99	3161	04:37:57:03	 	36.863186	-122.09671	2429827	3.33	36:03.0	Ventana	33.726	00:30:22:06	10.031	Osteichthyes			Neopterygii		Animalia	Pleuronectiformes	Chordata		Actinopterygii				Vertebrata	Gnathostomata		Eukaryota	Acanthopterygii	V3161-01
 	transect	Phyllospadix	91.69	3161	04:38:43:01	 	36.863186	-122.09671	2429857	3.33	36:50.0	Ventana	33.727	00:31:08:19	10.029		Zosteraceae	Phyllospadix			Plantae	Najadales										Eukaryota		V3161-01
 	transect	Pennatulacea	91.82	3161	04:48:47:28	 	36.863186	-122.0967	2435159	3.34	46:55.0	Ventana	33.724	00:41:13:00	10.038	Anthozoa					Animalia	Pennatulacea	Cnidaria		Octocorallia							Eukaryota		V3161-01
 	transect	Pennatulacea	91.88	3161	04:32:43:27	 	36.863194	-122.096756	2429767	3.32	30:50.0	Ventana	33.728	00:25:08:07	10.02	Anthozoa					Animalia	Pennatulacea	Cnidaria		Octocorallia							Eukaryota		V3161-01
 	transect	Pennatulacea	91.81	3161	04:29:37:03	 	36.86323	-122.097046	2429707	3.32	27:43.0	Ventana	33.728	00:22:01:09	10.023	Anthozoa					Animalia	Pennatulacea	Cnidaria		Octocorallia							Eukaryota		V3161-01
 	transect	Pennatulacea	91.44	3161	04:56:37:29	 	36.863167	-122.09613	2435325	3.35	54:45.0	Ventana	33.724	00:49:02:25	10.047	Anthozoa					Animalia	Pennatulacea	Cnidaria		Octocorallia							Eukaryota		V3161-01
 	transect	Pennatulacea	91.63	3161	04:39:47:14	 	36.863186	-122.09671	2429910	3.33	37:54.0	Ventana	33.727	00:32:12:15	10.029	Anthozoa					Animalia	Pennatulacea	Cnidaria		Octocorallia							Eukaryota		V3161-01
 	transect	Pennatulacea	91.7	3161	04:48:33:29	 	36.863186	-122.09671	2435152	3.34	46:41.0	Ventana	33.725	00:40:58:01	10.038	Anthozoa					Animalia	Pennatulacea	Cnidaria		Octocorallia							Eukaryota		V3161-01
 	endtransect	object	92.13	3161	04:40:27:28	 	36.863186	-122.09671	2429979	3.33	38:34.0	Ventana	33.725	00:32:51:29	10.032																			V3161-01
 	transect	Ophiuroidea	91.68	3161	04:47:17:16	 	36.863186	-122.09671	2435122	3.34	45:24.0	Ventana	33.725	00:39:41:24	10.037	Ophiuroidea					Animalia		Echinodermata									Eukaryota		V3161-01
 	transect	Pennatulacea	91.07	3161	 	 	36.863525	-122.09676	2429504	3.33	10:01.0	Ventana	33.729	00:04:22:07	10.02	Anthozoa					Animalia	Pennatulacea	Cnidaria		Octocorallia							Eukaryota		V3161-01
 	transect	Ophiuroidea	91.58	3161	04:20:28:20	 	36.86363	-122.097084	2429617	3.33	18:34.0	Ventana	33.729	00:12:54:03	10.023	Ophiuroidea					Animalia		Echinodermata									Eukaryota		V3161-01
 	transect	Ophiuroidea	91.65	3161	04:23:23:15	 	36.86343	-122.097115	2429647	3.33	21:29.0	Ventana	33.728	00:15:47:16	10.023	Ophiuroidea					Animalia		Echinodermata									Eukaryota		V3161-01
 	transect	Pennatulacea	91.54	3161	05:02:33:18	 	36.863407	-122.096085	2435385	3.35	00:41.0	Ventana	33.722	00:54:58:21	10.046	Anthozoa					Animalia	Pennatulacea	Cnidaria		Octocorallia							Eukaryota		V3161-01
 	transect	Pennatulacea	92.01	3161	04:37:39:03	 	36.863186	-122.09671	2429820	3.32	35:45.0	Ventana	33.727	00:30:03:11	10.028	Anthozoa					Animalia	Pennatulacea	Cnidaria		Octocorallia							Eukaryota		V3161-01
 	transect	Pennatulacea	91.56	3161	04:55:58:00	 	36.863117	-122.096054	2435318	3.35	54:05.0	Ventana	33.722	00:48:23:21	10.047	Anthozoa					Animalia	Pennatulacea	Cnidaria		Octocorallia							Eukaryota		V3161-01
 	transect	Pennatulacea	91.73	3161	04:46:31:17	 	36.863186	-122.09671	2435085	3.34	44:38.0	Ventana	33.725	00:38:55:15	10.037	Anthozoa					Animalia	Pennatulacea	Cnidaria		Octocorallia							Eukaryota		V3161-01
 	transect	Pennatulacea	91.6	3161	04:48:17:29	 	36.863186	-122.09671	2435145	3.34	46:25.0	Ventana	33.724	00:40:41:27	10.038	Anthozoa					Animalia	Pennatulacea	Cnidaria		Octocorallia							Eukaryota		V3161-01
 	transect	Metridium farcimen	91.59	3161	04:49:58:11	http://search.mbari.org/ARCHIVE/frameGrabs/Ventana/images/3161/00_42_22_29.jpg	36.86318	-122.09667	2435175	3.34	48:05.0	Ventana	33.724	00:42:22:29	10.042	Anthozoa	Metridiidae	Metridium			Animalia	Actiniaria	Cnidaria	Metridium farcimen	Hexacorallia			Nyantheae				Eukaryota		V3161-01
 	transect	Ophiuroidea	91.56	3161	04:14:23:01	 	36.86351	-122.09679	2429557	3.32	12:28.0	Ventana	33.73	00:06:47:20	10.016	Ophiuroidea					Animalia		Echinodermata									Eukaryota		V3161-01
 	transect	Pennatulacea	91.18	3161	04:22:25:02	 	36.863426	-122.09705	2429640	3.32	20:31.0	Ventana	33.73	00:14:51:06	10.018	Anthozoa					Animalia	Pennatulacea	Cnidaria		Octocorallia							Eukaryota		V3161-01
 	transect	Pennatulacea	91.71	3161	04:39:21:15	 	36.863186	-122.09671	2429903	3.33	37:28.0	Ventana	33.727	00:31:46:11	10.029	Anthozoa					Animalia	Pennatulacea	Cnidaria		Octocorallia							Eukaryota		V3161-01
 	transect	Pennatulacea	90.91	3161	 	 	36.86354	-122.09677	2429497	3.34	09:43.0	Ventana	33.727	00:04:03:09	10.024	Anthozoa					Animalia	Pennatulacea	Cnidaria		Octocorallia							Eukaryota		V3161-01
 	transect	Ophiuroidea	91.46	3161	04:25:25:26	 	36.863304	-122.09714	2429670	3.33	23:32.0	Ventana	33.728	00:17:49:22	10.023	Ophiuroidea					Animalia		Echinodermata									Eukaryota		V3161-01
 	transect	Pennatulacea	91.35	3161	04:40:09:29	http://search.mbari.org/ARCHIVE/frameGrabs/Ventana/images/3161/00_32_34_27.jpg	36.863186	-122.09671	2429922	3.33	38:16.0	Ventana	33.726	00:32:34:27	10.032	Anthozoa					Animalia	Pennatulacea	Cnidaria		Octocorallia							Eukaryota		V3161-01
 	transect	Pennatulacea	91.77	3161	04:49:25:27	 	36.863182	-122.096695	2435172	3.34	47:33.0	Ventana	33.723	00:41:49:22	10.043	Anthozoa					Animalia	Pennatulacea	Cnidaria		Octocorallia							Eukaryota		V3161-01
 	transect	Ophiuroidea	91.41	3161	04:21:37:03	 	36.863537	-122.09708	2429629	3.33	19:42.0	Ventana	33.728	00:14:02:05	10.023	Ophiuroidea					Animalia		Echinodermata									Eukaryota		V3161-01
 	transect	Pennatulacea	91.25	3161	04:13:51:03	 	36.863503	-122.09676	2429539	3.33	11:56.0	Ventana	33.73	00:06:16:24	10.017	Anthozoa					Animalia	Pennatulacea	Cnidaria		Octocorallia							Eukaryota		V3161-01
 	transect	Pennatulacea	91.25	3161	 	 	36.86352	-122.096756	2429509	3.33	10:09.0	Ventana	33.729	00:04:29:07	10.018	Anthozoa					Animalia	Pennatulacea	Cnidaria		Octocorallia							Eukaryota		V3161-01
 	transect	Pennatulacea	91.11	3161	04:56:31:29	 	36.86316	-122.096115	2435322	3.35	54:39.0	Ventana	33.724	00:48:56:00	10.047	Anthozoa					Animalia	Pennatulacea	Cnidaria		Octocorallia							Eukaryota		V3161-01
 	transect	Ophiuroidea	91.81	3161	04:38:07:02	 	36.863186	-122.09671	2429832	3.33	36:13.0	Ventana	33.726	00:30:31:13	10.028	Ophiuroidea					Animalia		Echinodermata									Eukaryota		V3161-01
 	transect	Pennatulacea	91.75	3161	04:46:47:17	 	36.863186	-122.09671	2435089	3.33	44:54.0	Ventana	33.725	00:39:11:13	10.036	Anthozoa					Animalia	Pennatulacea	Cnidaria		Octocorallia							Eukaryota		V3161-01
 	transect	Pennatulacea	91.47	3161	05:04:25:29	 	36.863605	-122.096146	2435465	3.35	02:34.0	Ventana	33.723	00:56:50:26	10.045	Anthozoa					Animalia	Pennatulacea	Cnidaria		Octocorallia							Eukaryota		V3161-01
 	transect	Ophiuroidea	91.38	3161	04:23:41:14	 	36.863415	-122.097115	2429652	3.33	21:47.0	Ventana	33.728	00:16:05:22	10.021	Ophiuroidea					Animalia		Echinodermata									Eukaryota		V3161-01
 	transect	Pleuronectiformes	91.61	3161	04:21:04:19	 	36.863586	-122.09709	2429622	3.33	19:10.0	Ventana	33.728	00:13:29:17	10.023	Osteichthyes			Neopterygii		Animalia	Pleuronectiformes	Chordata		Actinopterygii				Vertebrata	Gnathostomata		Eukaryota	Acanthopterygii	V3161-01
 	transect	Ptilosarcus gurneyi	91.54	3161	04:49:07:28	 	36.863186	-122.0967	2435165	3.34	47:15.0	Ventana	33.725	00:41:32:16	10.038	Anthozoa	Pennatulidae	Ptilosarcus			Animalia	Pennatulacea	Cnidaria	Ptilosarcus gurneyi	Octocorallia			Subselliflorae				Eukaryota		V3161-01
 	transect	pleuronectiformes	91.48	3161	05:02:13:18	 	36.863365	-122.09607	2435375	3.34	00:21.0	Ventana	33.723	00:54:37:19	10.045																			V3161-01
 	transect	Ophiuroidea	91.95	3161	04:37:55:03	 	36.863186	-122.09671	2429825	3.33	36:01.0	Ventana	33.726	00:30:19:02	10.031	Ophiuroidea					Animalia		Echinodermata									Eukaryota		V3161-01
 	transect	Pennatulacea	91.42	3161	05:03:19:16	 	36.863503	-122.09613	2435428	3.35	01:28.0	Ventana	33.723	00:55:44:01	10.044	Anthozoa					Animalia	Pennatulacea	Cnidaria		Octocorallia							Eukaryota		V3161-01
 	transect	Pennatulacea	91.47	3161	04:57:13:27	 	36.863205	-122.096176	2435345	3.34	55:22.0	Ventana	33.723	00:49:39:03	10.044	Anthozoa					Animalia	Pennatulacea	Cnidaria		Octocorallia							Eukaryota		V3161-01
 	transect	Ophiuroidea	91.92	3161	04:32:39:27	 	36.863194	-122.09676	2429765	3.32	30:46.0	Ventana	33.728	00:25:04:23	10.02	Ophiuroidea					Animalia		Echinodermata									Eukaryota		V3161-01
 	transect	Pennatulacea	91.6	3161	04:48:15:14	 	36.863186	-122.09671	2435142	3.34	46:23.0	Ventana	33.724	00:40:39:29	10.038	Anthozoa					Animalia	Pennatulacea	Cnidaria		Octocorallia							Eukaryota		V3161-01
 	transect	Pennatulacea	91.58	3161	04:55:50:00	 	36.863106	-122.09604	2435315	3.35	53:57.0	Ventana	33.722	00:48:13:29	10.047	Anthozoa					Animalia	Pennatulacea	Cnidaria		Octocorallia							Eukaryota		V3161-01
 	transect	Pennatulacea	91.48	3161	05:04:51:28	 	36.86371	-122.0962	2435488	3.35	03:00.0	Ventana	33.723	00:57:17:05	10.045	Anthozoa					Animalia	Pennatulacea	Cnidaria		Octocorallia							Eukaryota		V3161-01
 	endtransect	physical object	91.38	3161	05:07:00:24	 	36.863914	-122.09631	2435571	3.34	05:09.0	Ventana	33.722	00:59:25:12	10.045																			V3161-01
 	transect	Osteichthyes	91.71	3161	04:14:17:01	http://search.mbari.org/ARCHIVE/frameGrabs/Ventana/images/3161/00_06_41_00.jpg	36.86351	-122.09678	2429555	3.32	12:22.0	Ventana	33.73	00:06:41:00	10.017	Osteichthyes					Animalia		Chordata						Vertebrata	Gnathostomata		Eukaryota		V3161-01
 	transect	Pennatulacea	91.67	3161	04:39:45:14	 	36.863186	-122.09671	2429908	3.32	37:52.0	Ventana	33.728	00:32:10:27	10.028	Anthozoa					Animalia	Pennatulacea	Cnidaria		Octocorallia							Eukaryota		V3161-01
 	transect	Pennatulacea	91.73	3161	04:29:33:03	 	36.86323	-122.09705	2429705	3.32	27:39.0	Ventana	33.728	00:21:58:21	10.023	Anthozoa					Animalia	Pennatulacea	Cnidaria		Octocorallia							Eukaryota		V3161-01
 	transect	Pennatulacea	91.13	3161	04:13:06:19	 	36.8635	-122.09675	2429525	3.32	11:12.0	Ventana	33.731	00:05:31:00	10.015	Anthozoa					Animalia	Pennatulacea	Cnidaria		Octocorallia							Eukaryota		V3161-01
 	transect	Pennatulacea	91.5	3161	05:04:02:00	 	36.863583	-122.09614	2435451	3.35	02:10.0	Ventana	33.722	00:56:26:04	10.044	Anthozoa					Animalia	Pennatulacea	Cnidaria		Octocorallia							Eukaryota		V3161-01
 	transect	Pennatulacea	91.56	3161	05:01:47:19	 	36.86331	-122.09607	2435368	3.35	59:55.0	Ventana	33.722	00:54:12:17	10.045	Anthozoa					Animalia	Pennatulacea	Cnidaria		Octocorallia							Eukaryota		V3161-01
 	transect	Ophiuroidea	91.38	3161	04:20:20:20	 	36.863636	-122.097084	2429615	3.33	18:26.0	Ventana	33.729	00:12:45:21	10.023	Ophiuroidea					Animalia		Echinodermata									Eukaryota		V3161-01
 	transect	Pennatulacea	91.47	3161	05:05:22:12	 	36.863766	-122.09623	2435511	3.35	03:30.0	Ventana	33.723	00:57:46:25	10.046	Anthozoa					Animalia	Pennatulacea	Cnidaria		Octocorallia							Eukaryota		V3161-01
 	transect	Ophiuroidea	91.86	3161	04:47:53:15	 	36.863186	-122.09671	2435135	3.34	46:01.0	Ventana	33.724	00:40:18:21	10.038	Ophiuroidea					Animalia		Echinodermata									Eukaryota		V3161-01
 	transect	Pennatulacea	91.74	3161	04:29:02:19	 	36.863247	-122.0971	2429698	3.32	27:09.0	Ventana	33.729	00:21:28:01	10.02	Anthozoa					Animalia	Pennatulacea	Cnidaria		Octocorallia							Eukaryota		V3161-01
 	transect	Pennatulacea	91.58	3161	04:24:57:27	 	36.86333	-122.09713	2429668	3.32	23:03.0	Ventana	33.73	00:17:21:28	10.017	Anthozoa					Animalia	Pennatulacea	Cnidaria		Octocorallia							Eukaryota		V3161-01
 	transect	Ophiuroidea	91.88	3161	04:30:53:16	 	36.86321	-122.09689	2429728	3.32	28:59.0	Ventana	33.727	00:23:18:13	10.023	Ophiuroidea					Animalia		Echinodermata									Eukaryota		V3161-01
 	transect	Pennatulacea	90.77	3161	 	 	36.863556	-122.09678	2429495	3.33	09:21.0	Ventana	33.73	00:03:40:09	10.017	Anthozoa					Animalia	Pennatulacea	Cnidaria		Octocorallia							Eukaryota		V3161-01
 	transect	Pennatulacea	91.67	3161	04:38:21:02	 	36.863186	-122.09671	2429841	3.33	36:27.0	Ventana	33.727	00:30:46:03	10.029	Anthozoa					Animalia	Pennatulacea	Cnidaria		Octocorallia							Eukaryota		V3161-01
 	transect	Ophiuroidea	91.88	3161	04:48:43:28	 	36.863186	-122.0967	2435158	3.34	46:51.0	Ventana	33.725	00:41:08:26	10.038	Ophiuroidea					Animalia		Echinodermata									Eukaryota		V3161-01
 	transect	pleuronectiformes	91.25	3161	05:06:10:11	 	36.863842	-122.096275	2435534	3.35	04:18.0	Ventana	33.723	00:58:35:11	10.046																			V3161-01
 	transect	Ophiuroidea	91.44	3161	04:22:07:02	 	36.86344	-122.097046	2429638	3.32	20:13.0	Ventana	33.729	00:14:32:15	10.019	Ophiuroidea					Animalia		Echinodermata									Eukaryota		V3161-01
 	transect	Phyllospadix	91.81	3161	04:37:25:04	 	36.863186	-122.09671	2429811	3.32	35:31.0	Ventana	33.728	00:29:50:04	10.026		Zosteraceae	Phyllospadix			Plantae	Najadales										Eukaryota		V3161-01
 	transect	Pennatulacea	91.47	3161	04:14:37:01	 	36.863518	-122.0968	2429567	3.32	12:42.0	Ventana	33.73	00:07:02:07	10.016	Anthozoa					Animalia	Pennatulacea	Cnidaria		Octocorallia							Eukaryota		V3161-01
 	transect	Pennatulacea	91.72	3161	04:48:09:14	 	36.863186	-122.09671	2435140	3.34	46:17.0	Ventana	33.725	00:40:34:24	10.038	Anthozoa					Animalia	Pennatulacea	Cnidaria		Octocorallia							Eukaryota		V3161-01
 	transect	Phyllospadix	91.88	3161	04:38:03:02	 	36.863186	-122.09671	2429830	3.33	36:09.0	Ventana	33.726	00:30:28:06	10.028		Zosteraceae	Phyllospadix			Plantae	Najadales										Eukaryota		V3161-01
 	transect	Octopus	91.77	3161	04:49:25:27	http://search.mbari.org/ARCHIVE/frameGrabs/Ventana/images/3161/00_41_51_21.jpg	36.863182	-122.096695	2435170	3.34	47:33.0	Ventana	33.723	00:41:51:21	10.043	Cephalopoda	Octopodidae	Octopus			Animalia	Octopoda	Mollusca		Coleoidea	Octopodinae		Incirrata				Eukaryota	Octopodiformes	V3161-01
 	transect	pleuronectiformes	91.36	3161	05:05:40:12	 	36.863796	-122.096245	2435523	3.35	03:48.0	Ventana	33.722	00:58:05:23	10.047																			V3161-01
 	transect	Pennatulacea	91.79	3161	04:29:39:03	 	36.86323	-122.09704	2429710	3.32	27:45.0	Ventana	33.728	00:22:04:07	10.023	Anthozoa					Animalia	Pennatulacea	Cnidaria		Octocorallia							Eukaryota		V3161-01
 	transect	Pennatulacea	91.46	3161	04:40:03:29	 	36.863186	-122.09671	2429913	3.33	38:10.0	Ventana	33.726	00:32:28:02	10.032	Anthozoa					Animalia	Pennatulacea	Cnidaria		Octocorallia							Eukaryota		V3161-01
 	transect	Ophiuroidea	91.64	3161	04:14:21:01	 	36.86351	-122.09679	2429560	3.32	12:26.0	Ventana	33.73	00:06:45:20	10.016	Ophiuroidea					Animalia		Echinodermata									Eukaryota		V3161-01
 	transect	Pennatulacea	91.46	3161	05:04:21:29	 	36.8636	-122.096146	2435456	3.35	02:30.0	Ventana	33.723	00:56:45:27	10.045	Anthozoa					Animalia	Pennatulacea	Cnidaria		Octocorallia							Eukaryota		V3161-01
 	transect	Pennatulacea	91.64	3161	04:38:25:02	 	36.863186	-122.09671	2429853	3.33	36:31.0	Ventana	33.727	00:30:50:15	10.029	Anthozoa					Animalia	Pennatulacea	Cnidaria		Octocorallia							Eukaryota		V3161-01
 	transect	Pennatulacea	91.46	3161	05:04:49:29	 	36.863705	-122.0962	2435486	3.35	02:58.0	Ventana	33.723	00:57:15:04	10.045	Anthozoa					Animalia	Pennatulacea	Cnidaria		Octocorallia							Eukaryota		V3161-01
 	transect	Pennatulacea	91.89	3161	04:47:43:15	 	36.863186	-122.09671	2435133	3.34	45:50.0	Ventana	33.725	00:40:08:28	10.038	Anthozoa					Animalia	Pennatulacea	Cnidaria		Octocorallia							Eukaryota		V3161-01
 	transect	Ophiuroidea	91.44	3161	04:23:29:15	 	36.863426	-122.097115	2429650	3.33	21:35.0	Ventana	33.728	00:15:54:14	10.023	Ophiuroidea					Animalia		Echinodermata									Eukaryota		V3161-01
 	transect	pleuronectiformes	91.85	3161	04:48:59:28	 	36.863186	-122.0967	2435163	3.34	47:07.0	Ventana	33.724	00:41:24:17	10.038																			V3161-01
 	transect	Ophiuroidea	91.36	3161	05:05:28:12	 	36.863777	-122.09624	2435516	3.35	03:36.0	Ventana	33.723	00:57:53:23	10.046	Ophiuroidea					Animalia		Echinodermata									Eukaryota		V3161-01
 	starttransect	object	91.53	3161	05:01:35:04	 	36.863285	-122.09607	2435366	3.35	59:43.0	Ventana	33.722	00:54:01:08	10.046																			V3161-01
 	transect	Ophiuroidea	92.03	3161	04:37:43:03	 	36.863186	-122.09671	2429823	3.32	35:49.0	Ventana	33.727	00:30:07:09	10.028	Ophiuroidea					Animalia		Echinodermata									Eukaryota		V3161-01
 	transect	Pennatulacea	91.81	3161	04:30:59:16	 	36.86321	-122.096886	2429733	3.32	29:05.0	Ventana	33.727	00:23:24:03	10.023	Anthozoa					Animalia	Pennatulacea	Cnidaria		Octocorallia							Eukaryota		V3161-01
 	transect	Pennatulacea	91.63	3161	04:32:27:13	 	36.863194	-122.09677	2429763	3.32	30:34.0	Ventana	33.728	00:24:52:23	10.021	Anthozoa					Animalia	Pennatulacea	Cnidaria		Octocorallia							Eukaryota		V3161-01
 	transect	Metridium farcimen	91.94	3161	04:29:21:04	http://search.mbari.org/ARCHIVE/frameGrabs/Ventana/images/3161/00_21_46_08.jpg	36.863235	-122.09708	2429703	3.32	27:27.0	Ventana	33.729	00:21:46:08	10.02	Anthozoa	Metridiidae	Metridium			Animalia	Actiniaria	Cnidaria	Metridium farcimen	Hexacorallia			Nyantheae				Eukaryota		V3161-01
 	transect	Pennatulacea	91.7	3161	04:48:39:29	 	36.863186	-122.0967	2435156	3.34	46:47.0	Ventana	33.725	00:41:04:25	10.038	Anthozoa					Animalia	Pennatulacea	Cnidaria		Octocorallia							Eukaryota		V3161-01
 	transect	Pennatulacea	91.71	3161	04:14:17:01	http://search.mbari.org/ARCHIVE/frameGrabs/Ventana/images/3161/00_06_41_00.jpg	36.86351	-122.09678	2429553	3.32	12:22.0	Ventana	33.73	00:06:41:00	10.017	Anthozoa					Animalia	Pennatulacea	Cnidaria		Octocorallia							Eukaryota		V3161-01
 	transect	Pennatulacea	91.78	3161	04:47:33:16	 	36.863186	-122.09671	2435126	3.34	45:40.0	Ventana	33.725	00:39:58:02	10.038	Anthozoa					Animalia	Pennatulacea	Cnidaria		Octocorallia							Eukaryota		V3161-01
 	transect	Pleuronectiformes	91.8	3161	04:39:31:15	 	36.863186	-122.09671	2429906	3.32	37:38.0	Ventana	33.728	00:31:56:11	10.028	Osteichthyes			Neopterygii		Animalia	Pleuronectiformes	Chordata		Actinopterygii				Vertebrata	Gnathostomata		Eukaryota	Acanthopterygii	V3161-01
 	transect	Pennatulacea	91.48	3161	05:04:37:29	 	36.86368	-122.09618	2435479	3.35	02:46.0	Ventana	33.722	00:57:02:02	10.046	Anthozoa					Animalia	Pennatulacea	Cnidaria		Octocorallia							Eukaryota		V3161-01
 	transect	Pennatulacea	90.77	3161	 	 	36.863567	-122.09679	2429493	3.33	09:09.0	Ventana	33.73	00:03:28:24	10.017	Anthozoa					Animalia	Pennatulacea	Cnidaria		Octocorallia							Eukaryota		V3161-01
 	transect	Pennatulacea	91.53	3161	04:23:01:15	 	36.86344	-122.09711	2429643	3.33	21:07.0	Ventana	33.728	00:15:26:16	10.026	Anthozoa					Animalia	Pennatulacea	Cnidaria		Octocorallia							Eukaryota		V3161-01
 	cruise	mud	89.98	3161	04:52:48:20	 	36.86311	-122.09631	2435216	3.35	50:56.0	Ventana	33.722	00:45:14:12	10.046																			V3161-01
 	transect	Pennatulacea	91.54	3161	05:02:37:17	 	36.86342	-122.096085	2435389	3.35	00:45.0	Ventana	33.722	00:55:02:04	10.046	Anthozoa					Animalia	Pennatulacea	Cnidaria		Octocorallia							Eukaryota		V3161-01
 	transect	pleuronectiformes	91.31	3161	05:06:56:25	 	36.86391	-122.096306	2435569	3.34	05:05.0	Ventana	33.724	00:59:21:15	10.043																			V3161-01
 	transect	Ptilosarcus gurneyi	91.85	3161	04:32:01:14	http://search.mbari.org/ARCHIVE/frameGrabs/Ventana/images/3161/00_24_25_15.jpg	36.863197	-122.096794	2429756	3.32	30:08.0	Ventana	33.729	00:24:25:15	10.02	Anthozoa	Pennatulidae	Ptilosarcus			Animalia	Pennatulacea	Cnidaria	Ptilosarcus gurneyi	Octocorallia			Subselliflorae				Eukaryota		V3161-01
 	transect	Pennatulacea	91.51	3161	04:57:01:28	 	36.863194	-122.09616	2435336	3.34	55:09.0	Ventana	33.723	00:49:26:03	10.044	Anthozoa					Animalia	Pennatulacea	Cnidaria		Octocorallia							Eukaryota		V3161-01
 	transect	Pennatulacea	91.63	3161	04:28:54:20	 	36.86326	-122.09711	2429696	3.33	27:01.0	Ventana	33.728	00:21:19:01	10.024	Anthozoa					Animalia	Pennatulacea	Cnidaria		Octocorallia							Eukaryota		V3161-01
 	transect	Ptilosarcus gurneyi	91.66	3161	04:45:07:05	http://search.mbari.org/ARCHIVE/frameGrabs/Ventana/images/3161/00_37_32_27.jpg	36.863186	-122.09671	2435073	3.33	43:14.0	Ventana	33.725	00:37:32:27	10.033	Anthozoa	Pennatulidae	Ptilosarcus			Animalia	Pennatulacea	Cnidaria	Ptilosarcus gurneyi	Octocorallia			Subselliflorae				Eukaryota		V3161-01
 	transect	Pennatulacea	91.49	3161	05:04:00:00	 	36.86358	-122.09614	2435449	3.35	02:08.0	Ventana	33.722	00:56:24:05	10.044	Anthozoa					Animalia	Pennatulacea	Cnidaria		Octocorallia							Eukaryota		V3161-01
 	transect	Pennatulacea	91.4	3161	05:05:10:12	 	36.863747	-122.09622	2435502	3.35	03:18.0	Ventana	33.723	00:57:35:03	10.046	Anthozoa					Animalia	Pennatulacea	Cnidaria		Octocorallia							Eukaryota		V3161-01
 	transect	Pennatulacea	91.68	3161	04:39:01:16	 	36.863186	-122.09671	2429899	3.33	37:08.0	Ventana	33.726	00:31:26:08	10.031	Anthozoa					Animalia	Pennatulacea	Cnidaria		Octocorallia							Eukaryota		V3161-01
 	transect	Ophiuroidea	91.67	3161	04:48:25:29	 	36.863186	-122.09671	2435149	3.34	46:33.0	Ventana	33.724	00:40:51:22	10.038	Ophiuroidea					Animalia		Echinodermata									Eukaryota		V3161-01
 	cruise	Pennatulacea	91.95	3161	 	http://search.mbari.org/ARCHIVE/frameGrabs/Ventana/images/3161/00_00_56_06.jpg	36.863968	-122.09704	2429486	3.32	06:36.0	Ventana	33.732	00:00:56:06	10.019	Anthozoa					Animalia	Pennatulacea	Cnidaria		Octocorallia							Eukaryota		V3161-01
 	transect	Pleuronectiformes	91.85	3161	04:30:09:02	http://search.mbari.org/ARCHIVE/frameGrabs/Ventana/images/3161/00_22_34_24.jpg	36.86322	-122.09698	2429719	3.32	28:15.0	Ventana	33.728	00:22:34:24	10.023	Osteichthyes			Neopterygii		Animalia	Pleuronectiformes	Chordata		Actinopterygii				Vertebrata	Gnathostomata		Eukaryota	Acanthopterygii	V3161-01
 	transect	Pennatulacea	91.64	3161	04:37:21:03	 	36.863186	-122.09671	2429809	3.32	35:27.0	Ventana	33.728	00:29:45:16	10.026	Anthozoa					Animalia	Pennatulacea	Cnidaria		Octocorallia							Eukaryota		V3161-01
 	transect	pleuronectiformes	91.39	3161	05:03:36:00	 	36.863537	-122.09613	2435442	3.35	01:44.0	Ventana	33.722	00:56:00:26	10.045																			V3161-01
 	transect	Pennatulacea	91.81	3161	04:31:33:14	 	36.8632	-122.09683	2429749	3.32	29:39.0	Ventana	33.729	00:23:57:23	10.019	Anthozoa					Animalia	Pennatulacea	Cnidaria		Octocorallia							Eukaryota		V3161-01
 	transect	Pennatulacea	91.62	3161	04:14:55:15	 	36.86353	-122.09682	2429576	3.33	13:00.0	Ventana	33.728	00:07:20:17	10.022	Anthozoa					Animalia	Pennatulacea	Cnidaria		Octocorallia							Eukaryota		V3161-01
calibrated | self | 23 cm	descend	lasers	 	3162	 	 	 	 	2486206	 	 	Ventana	 	00:00:21:11	 																			V3162-01
calibrated | self | 23 cm	descend	lasers	 	3162	 	http://search.mbari.org/ARCHIVE/frameGrabs/Ventana/images/3162/00_00_25_00.jpg	 	 	2486208	 	 	Ventana	 	00:00:25:00	 																			V3162-01
"identity-gender | self | female, habitat | self | flat mud"	transect	Bathyraja kincaidii	357.54	3162	05:28:16:02	http://search.mbari.org/ARCHIVE/frameGrabs/Ventana/images/3162/00_12_19_09.jpg	36.84287	-122.18782	2486378	1.23	38:53.0	Ventana	34.146	00:12:19:09	7.143	Chondrichthyes	Arhynchobatidae	Bathyraja			Animalia	Rajiformes	Chordata	Bathyraja kincaidii	Elasmobranchii				Vertebrata			Eukaryota	Batoidea	V3162-01
surface-color | self | dark	cruise	sediment	350.83	3162	05:40:05:10	 	36.843246	-122.1876	2486803	1.4	50:43.0	Ventana	34.134	00:24:08:11	7.452																			V3162-01
comment | self | NC-3 B	endtransect	physical object	359.42	3162	05:53:34:15	 	36.842506	-122.1876	2487006	1.42	04:13.0	Ventana	34.129	00:37:37:24	7.506																			V3162-01
part-of | Brisaster | nil	transect	test	353.75	3162	05:58:45:20	 	36.842625	-122.187096	2487017	1.46	09:25.0	Ventana	34.125	00:42:49:03	7.576																			V3162-01
population-quantity | self | 4	transect	Stylasterias forreri	349.24	3162	06:06:01:23	http://search.mbari.org/ARCHIVE/frameGrabs/Ventana/images/3162/00_50_06_01.jpg	36.842834	-122.18677	2487043	1.48	16:41.0	Ventana	34.123	00:50:06:01	7.618		Asteriidae	Stylasterias			Animalia	Forcipulatida	Echinodermata	Stylasterias forreri	Asteroidea							Eukaryota		V3162-01
population-quantity | self | 8	transect	Allocentrotus fragilis	348.29	3162	06:06:43:22	 	36.842876	-122.186646	2487058	1.48	17:23.0	Ventana	34.123	00:50:47:11	7.62	Echinoidea	Strongylocentrotidae	Allocentrotus			Animalia	Echinoida	Echinodermata	Allocentrotus fragilis	Euechinoidea			Echinacea				Eukaryota		V3162-01
population-quantity | self | 43	transect	Allocentrotus fragilis	346.22	3162	06:07:58:05	 	36.84296	-122.18652	2487073	1.48	18:38.0	Ventana	34.123	00:52:01:16	7.613	Echinoidea	Strongylocentrotidae	Allocentrotus			Animalia	Echinoida	Echinodermata	Allocentrotus fragilis	Euechinoidea			Echinacea				Eukaryota		V3162-01
population-quantity | self | 56	transect	Allocentrotus fragilis	346.16	3162	06:08:00:04	 	36.84296	-122.186455	2487074	1.48	18:40.0	Ventana	34.123	00:52:04:18	7.613	Echinoidea	Strongylocentrotidae	Allocentrotus			Animalia	Echinoida	Echinodermata	Allocentrotus fragilis	Euechinoidea			Echinacea				Eukaryota		V3162-01
population-quantity | self | 50	transect	Allocentrotus fragilis	345.99	3162	06:08:04:04	 	36.842964	-122.18647	2487075	1.48	18:44.0	Ventana	34.123	00:52:08:12	7.613	Echinoidea	Strongylocentrotidae	Allocentrotus			Animalia	Echinoida	Echinodermata	Allocentrotus fragilis	Euechinoidea			Echinacea				Eukaryota		V3162-01
population-quantity | self | 50	transect	Allocentrotus fragilis	345.82	3162	06:08:10:04	 	36.84297	-122.186455	2487076	1.48	18:50.0	Ventana	34.123	00:52:13:16	7.613	Echinoidea	Strongylocentrotidae	Allocentrotus			Animalia	Echinoida	Echinodermata	Allocentrotus fragilis	Euechinoidea			Echinacea				Eukaryota		V3162-01
population-quantity | self | 20	transect	Allocentrotus fragilis	345.72	3162	06:08:20:04	 	36.84298	-122.18648	2487077	1.48	19:00.0	Ventana	34.123	00:52:24:10	7.612	Echinoidea	Strongylocentrotidae	Allocentrotus			Animalia	Echinoida	Echinodermata	Allocentrotus fragilis	Euechinoidea			Echinacea				Eukaryota		V3162-01
calibrated | self | 23 cm	launch	lasers	259.15	3162	 	 	36.8427	-122.18647	20023640	1.88	27:58.0	Ventana	34.097	00:01:24:24	8.193																			V3162-01
"sampled-by | Push Corer | nil, sample-reference | self | V3162-PC22, comment | self | macro"	cruise	sediment	361.91	3162	05:22:44:27	http://search.mbari.org/ARCHIVE/frameGrabs/Ventana/images/3162/00_06_48_15.jpg	36.842693	-122.18818	20023644	1.29	33:22.0	Ventana	34.151	00:06:48:15	7.202																			V3162-01
comment | self | NC-3 A	starttransect	physical object	361.28	3162	05:25:19:07	http://search.mbari.org/ARCHIVE/frameGrabs/Ventana/images/3162/00_09_23_10.jpg	36.84271	-122.18811	20023645	1.22	35:56.0	Ventana	34.174	00:09:23:10	7.125																			V3162-01
"sampled-by | Push Corer | nil, sample-reference | self | V3162-PC19, comment | self | tracer"	stationary	sediment	352.73	3162	05:32:29:09	http://search.mbari.org/ARCHIVE/frameGrabs/Ventana/images/3162/00_16_33_27.jpg	36.84314	-122.187416	20023646	1.31	43:07.0	Ventana	34.145	00:16:33:27	7.305																			V3162-01
"sampled-by | Push Corer | nil, comment | self | macro, sample-reference | self | V3162-PC16"	stationary	sediment	352.73	3162	05:34:01:21	http://search.mbari.org/ARCHIVE/frameGrabs/Ventana/images/3162/00_18_04_24.jpg	36.84316	-122.18759	20023647	1.33	44:39.0	Ventana	34.138	00:18:04:24	7.319																			V3162-01
comment | self | NC-3 A	endtransect	physical object	348.81	3162	05:38:04:14	http://search.mbari.org/ARCHIVE/frameGrabs/Ventana/images/3162/00_22_09_16.jpg	36.843243	-122.18727	20023648	1.45	48:42.0	Ventana	34.126	00:22:09:16	7.562																			V3162-01
comment | self | NC-3 B	starttransect	physical object	351.73	3162	05:41:09:08	http://search.mbari.org/ARCHIVE/frameGrabs/Ventana/images/3162/00_25_13_27.jpg	36.84323	-122.18763	20023649	1.37	51:47.0	Ventana	34.136	00:25:13:27	7.438																			V3162-01
"sample-reference | self | V3162-PC20, sampled-by | Push Corer | nil, comment | self | macro"	transect	sediment	355.01	3162	05:44:44:01	http://search.mbari.org/ARCHIVE/frameGrabs/Ventana/images/3162/00_28_48_05.jpg	36.843002	-122.18772	20023650	1.41	55:22.0	Ventana	34.131	00:28:48:05	7.503																			V3162-01
"sampled-by | Push Corer | nil, sample-reference | self | V3162-PC25, comment | self | tracer"	transect	sediment	355	3162	05:46:02:14	http://search.mbari.org/ARCHIVE/frameGrabs/Ventana/images/3162/00_30_06_02.jpg	36.84302	-122.187675	20023651	1.41	56:41.0	Ventana	34.131	00:30:06:02	7.5																			V3162-01
"sampled-by | Push Corer | nil, sample-reference | self | V3162-PC26, comment | self | macro"	stationary	sediment	359.39	3162	05:54:16:14	http://search.mbari.org/ARCHIVE/frameGrabs/Ventana/images/3162/00_38_21_02.jpg	36.842506	-122.18762	20023652	1.42	04:55.0	Ventana	34.129	00:38:21:02	7.506																			V3162-01
comment | self | NC-3 C	starttransect	physical object	356.27	3162	05:57:05:08	http://search.mbari.org/ARCHIVE/frameGrabs/Ventana/images/3162/00_41_09_27.jpg	36.842567	-122.187325	20023657	1.44	07:44.0	Ventana	34.128	00:41:09:27	7.537																			V3162-01
"sample-reference | self | V3162-PC32, sampled-by | Push Corer | nil, comment | self | macro"	stationary	sediment	353.34	3162	06:00:32:02	http://search.mbari.org/ARCHIVE/frameGrabs/Ventana/images/3162/00_44_36_20.jpg	36.84263	-122.187	20023659	1.46	11:11.0	Ventana	34.131	00:44:36:20	7.597																			V3162-01
"sampled-by | Push Corer | nil, sample-reference | self | V3162-PC27, comment | self | tracer"	stationary	sediment	353.35	3162	06:01:44:15	http://search.mbari.org/ARCHIVE/frameGrabs/Ventana/images/3162/00_45_47_18.jpg	36.84267	-122.18699	20023660	1.48	12:24.0	Ventana	34.125	00:45:47:18	7.63																			V3162-01
comment | self | NC-3 C	endtransect	physical object	345.99	3162	06:08:28:03	http://search.mbari.org/ARCHIVE/frameGrabs/Ventana/images/3162/00_52_32_21.jpg	36.842983	-122.18642	20023662	1.48	19:08.0	Ventana	34.123	00:52:32:21	7.614																			V3162-01
"sampled-by | Push Corer | nil, sample-reference | self | V3162-PC36"	stationary	sediment	346.25	3162	06:09:24:17	http://search.mbari.org/ARCHIVE/frameGrabs/Ventana/images/3162/00_53_27_19.jpg	36.843006	-122.18645	20023663	1.48	20:04.0	Ventana	34.124	00:53:27:19	7.614																			V3162-01
 	transect	Allocentrotus fragilis	348.47	3162	06:06:37:22	 	36.84287	-122.18666	2487053	1.48	17:17.0	Ventana	34.123	00:50:42:13	7.621	Echinoidea	Strongylocentrotidae	Allocentrotus			Animalia	Echinoida	Echinodermata	Allocentrotus fragilis	Euechinoidea			Echinacea				Eukaryota		V3162-01
 	transect	Sebastes diploproa	358.79	3162	05:27:28:04	http://search.mbari.org/ARCHIVE/frameGrabs/Ventana/images/3162/00_11_31_07.jpg	36.84279	-122.18801	2486317	1.27	38:05.0	Ventana	34.143	00:11:31:07	7.247	Osteichthyes	Scorpaenidae	Sebastes	Neopterygii		Animalia	Scorpaeniformes	Chordata	Sebastes diploproa	Actinopterygii			Scorpaenoidei	Vertebrata	Gnathostomata		Eukaryota	Acanthopterygii	V3162-01
 	transect	Phyllospadix	353.47	3162	05:42:11:21	 	36.843113	-122.1877	2486850	1.41	52:50.0	Ventana	34.127	00:26:16:04	7.501		Zosteraceae	Phyllospadix			Plantae	Najadales										Eukaryota		V3162-01
 	transect	Rathbunaster californicus	352.3	3162	06:03:44:26	 	36.842728	-122.186966	2487023	1.48	14:24.0	Ventana	34.12	00:47:48:12	7.609		Labidiasteridae	Rathbunaster			Animalia	Forcipulatida	Echinodermata	Rathbunaster californicus	Asteroidea							Eukaryota		V3162-01
 	transect	Mediaster tenellus	354.95	3162	05:30:00:14	http://search.mbari.org/ARCHIVE/frameGrabs/Ventana/images/3162/00_14_03_26.jpg	36.84298	-122.18777	2486474	1.3	40:38.0	Ventana	34.14	00:14:03:26	7.309		Goniasteridae	Mediaster			Animalia	Valvatida	Echinodermata	Mediaster tenellus	Asteroidea			Granulosina				Eukaryota		V3162-01
 	stationary	Rathbunaster californicus	362.04	3162	05:20:24:01	 	36.842697	-122.18815	2486211	1.36	31:01.0	Ventana	34.146	00:04:29:03	7.325		Labidiasteridae	Rathbunaster			Animalia	Forcipulatida	Echinodermata	Rathbunaster californicus	Asteroidea							Eukaryota		V3162-01
 	transect	Mediaster aequalis	353.28	3162	05:41:59:21	 	36.843136	-122.18774	2486843	1.41	52:38.0	Ventana	34.127	00:26:02:27	7.501		Goniasteridae	Mediaster			Animalia	Valvatida	Echinodermata	Mediaster aequalis	Asteroidea			Granulosina				Eukaryota		V3162-01
 	transect	Rathbunaster californicus	348.73	3162	06:06:29:22	 	36.84286	-122.18668	2487046	1.48	17:09.0	Ventana	34.123	00:50:33:00	7.621		Labidiasteridae	Rathbunaster			Animalia	Forcipulatida	Echinodermata	Rathbunaster californicus	Asteroidea							Eukaryota		V3162-01
 	transect	Stylasterias forreri	354.02	3162	05:58:37:21	http://search.mbari.org/ARCHIVE/frameGrabs/Ventana/images/3162/00_42_42_03.jpg	36.842625	-122.18714	2487016	1.46	09:17.0	Ventana	34.126	00:42:42:03	7.579		Asteriidae	Stylasterias			Animalia	Forcipulatida	Echinodermata	Stylasterias forreri	Asteroidea							Eukaryota		V3162-01
 	transect	Rathbunaster californicus	351.91	3162	05:41:13:08	 	36.843224	-122.18769	2486834	1.37	51:51.0	Ventana	34.136	00:25:16:18	7.438		Labidiasteridae	Rathbunaster			Animalia	Forcipulatida	Echinodermata	Rathbunaster californicus	Asteroidea							Eukaryota		V3162-01
 	transect	Agonidae	347.32	3162	06:07:19:21	http://search.mbari.org/ARCHIVE/frameGrabs/Ventana/images/3162/00_51_23_24.jpg	36.842915	-122.18656	2487067	1.48	17:59.0	Ventana	34.123	00:51:23:24	7.614	Osteichthyes	Agonidae		Neopterygii		Animalia	Scorpaeniformes	Chordata		Actinopterygii				Vertebrata	Gnathostomata		Eukaryota	Acanthopterygii	V3162-01
 	transect	Rathbunaster californicus	350.24	3162	06:05:19:08	 	36.842785	-122.1868	2487037	1.47	15:59.0	Ventana	34.124	00:49:22:17	7.605		Labidiasteridae	Rathbunaster			Animalia	Forcipulatida	Echinodermata	Rathbunaster californicus	Asteroidea							Eukaryota		V3162-01
 	cruise	Mediaster aequalis	356.93	3162	05:56:27:10	 	36.842533	-122.18741	2487007	1.42	07:06.0	Ventana	34.129	00:40:32:07	7.516		Goniasteridae	Mediaster			Animalia	Valvatida	Echinodermata	Mediaster aequalis	Asteroidea			Granulosina				Eukaryota		V3162-01
 	transect	Mediaster aequalis	355.08	3162	05:48:55:09	 	36.842968	-122.18769	2486977	1.42	59:34.0	Ventana	34.129	00:32:59:29	7.508		Goniasteridae	Mediaster			Animalia	Valvatida	Echinodermata	Mediaster aequalis	Asteroidea			Granulosina				Eukaryota		V3162-01
 	transect	Rathbunaster californicus	350.27	3162	05:37:00:16	 	36.8432	-122.18766	2486631	1.4	47:38.0	Ventana	34.135	00:21:05:00	7.505		Labidiasteridae	Rathbunaster			Animalia	Forcipulatida	Echinodermata	Rathbunaster californicus	Asteroidea							Eukaryota		V3162-01
 	transect	Allocentrotus fragilis	348.15	3162	06:06:49:21	 	36.842884	-122.18664	2487060	1.48	17:29.0	Ventana	34.123	00:50:54:23	7.62	Echinoidea	Strongylocentrotidae	Allocentrotus			Animalia	Echinoida	Echinodermata	Allocentrotus fragilis	Euechinoidea			Echinacea				Eukaryota		V3162-01
 	transect	Allocentrotus fragilis	350.67	3162	06:05:01:10	 	36.842766	-122.186806	2487030	1.47	15:41.0	Ventana	34.125	00:49:05:09	7.593	Echinoidea	Strongylocentrotidae	Allocentrotus			Animalia	Echinoida	Echinodermata	Allocentrotus fragilis	Euechinoidea			Echinacea				Eukaryota		V3162-01
 	transect	Glyptocephalus zachirus	357.56	3162	05:52:02:03	 	36.842655	-122.187645	2487000	1.43	02:41.0	Ventana	34.129	00:36:07:05	7.518	Osteichthyes	Pleuronectidae	Glyptocephalus	Neopterygii		Animalia	Pleuronectiformes	Chordata		Actinopterygii				Vertebrata	Gnathostomata		Eukaryota	Acanthopterygii	V3162-01
 	transect	Phyllospadix	355.02	3162	05:29:58:14	 	36.84298	-122.187775	2486465	1.26	40:36.0	Ventana	34.154	00:14:02:10	7.219		Zosteraceae	Phyllospadix			Plantae	Najadales										Eukaryota		V3162-01
 	transect	Mediaster aequalis	348.73	3162	06:06:29:22	 	36.84286	-122.18668	2487051	1.48	17:09.0	Ventana	34.123	00:50:34:06	7.621		Goniasteridae	Mediaster			Animalia	Valvatida	Echinodermata	Mediaster aequalis	Asteroidea			Granulosina				Eukaryota		V3162-01
 	transect	Phyllospadix	354.71	3162	05:30:10:13	 	36.842995	-122.18773	2486495	1.3	40:48.0	Ventana	34.14	00:14:14:26	7.309		Zosteraceae	Phyllospadix			Plantae	Najadales										Eukaryota		V3162-01
 	starttransect	object	352.12	3162	05:35:24:03	 	36.843098	-122.18757	2486615	1.34	46:02.0	Ventana	34.134	00:19:28:21	7.391																			V3162-01
 	endtransect	object	353.43	3162	05:59:34:04	 	36.84265	-122.18677	2487021	1.45	10:13.0	Ventana	34.127	00:43:36:25	7.568																			V3162-01
 	transect	Rathbunaster californicus	356.09	3162	05:50:15:21	 	36.842834	-122.18761	2486991	1.42	00:54.0	Ventana	34.129	00:34:19:03	7.514		Labidiasteridae	Rathbunaster			Animalia	Forcipulatida	Echinodermata	Rathbunaster californicus	Asteroidea							Eukaryota		V3162-01
 	cruise	mud	351.02	3162	05:39:10:27	 	36.84322	-122.187386	2486788	1.44	49:49.0	Ventana	34.127	00:23:14:25	7.534																			V3162-01
 	endtransect	object	355.07	3162	05:43:24:04	 	36.84302	-122.18761	2486961	1.4	54:02.0	Ventana	34.134	00:27:26:26	7.458																			V3162-01
 	transect	Phyllospadix	353.01	3162	05:41:49:22	 	36.84315	-122.187706	2486841	1.41	52:28.0	Ventana	34.131	00:25:54:08	7.47		Zosteraceae	Phyllospadix			Plantae	Najadales										Eukaryota		V3162-01
 	transect	Mediaster aequalis	355.25	3162	05:29:48:14	 	36.842964	-122.18771	2486488	1.26	40:26.0	Ventana	34.154	00:13:52:28	7.219		Goniasteridae	Mediaster			Animalia	Valvatida	Echinodermata	Mediaster aequalis	Asteroidea			Granulosina				Eukaryota		V3162-01
 	cruise	Henricia	350.64	3162	05:40:25:09	http://search.mbari.org/ARCHIVE/frameGrabs/Ventana/images/3162/00_24_29_21.jpg	36.843285	-122.18772	2486811	1.4	51:03.0	Ventana	34.132	00:24:29:21	7.461		Echinasteridae	Henricia			Animalia	Spinulosida	Echinodermata		Asteroidea			Leptognathina				Eukaryota		V3162-01
 	transect	Sebastes diploproa	358.73	3162	05:27:30:03	 	36.842793	-122.18801	2486322	1.27	38:07.0	Ventana	34.143	00:11:33:07	7.247	Osteichthyes	Scorpaenidae	Sebastes	Neopterygii		Animalia	Scorpaeniformes	Chordata	Sebastes diploproa	Actinopterygii			Scorpaenoidei	Vertebrata	Gnathostomata		Eukaryota	Acanthopterygii	V3162-01
 	transect	Lycodes cortezianus	349.04	3162	06:06:19:22	 	36.84285	-122.18676	2487044	1.48	16:59.0	Ventana	34.124	00:50:24:11	7.616	Osteichthyes	Zoarcidae	Lycodes	Neopterygii		Animalia	Perciformes	Chordata	Lycodes cortezianus	Actinopterygii			Zoarcoidei	Vertebrata	Gnathostomata		Eukaryota	Acanthopterygii	V3162-01
 	transect	Mediaster aequalis	354.56	3162	05:58:23:21	 	36.84262	-122.18707	2487014	1.45	09:03.0	Ventana	34.126	00:42:28:06	7.568		Goniasteridae	Mediaster			Animalia	Valvatida	Echinodermata	Mediaster aequalis	Asteroidea			Granulosina				Eukaryota		V3162-01
 	transect	Allocentrotus fragilis	347.62	3162	06:07:07:21	 	36.842903	-122.18662	2487065	1.48	17:47.0	Ventana	34.124	00:51:12:03	7.615	Echinoidea	Strongylocentrotidae	Allocentrotus			Animalia	Echinoida	Echinodermata	Allocentrotus fragilis	Euechinoidea			Echinacea				Eukaryota		V3162-01
 	transect	Ceriantharia sp. 3	354.3	3162	05:42:53:20	http://search.mbari.org/ARCHIVE/frameGrabs/Ventana/images/3162/00_26_56_23.jpg	36.843052	-122.1877	2486862	1.4	53:32.0	Ventana	34.132	00:26:56:23	7.471	Anthozoa					Animalia	Ceriantharia	Cnidaria		Ceriantipatharia							Eukaryota		V3162-01
 	transect	Allocentrotus fragilis	350.46	3162	06:05:09:09	 	36.842773	-122.18678	2487035	1.47	15:49.0	Ventana	34.125	00:49:12:21	7.593	Echinoidea	Strongylocentrotidae	Allocentrotus			Animalia	Echinoida	Echinodermata	Allocentrotus fragilis	Euechinoidea			Echinacea				Eukaryota		V3162-01
 	transect	Mediaster aequalis	358.32	3162	05:27:48:03	 	36.84282	-122.18801	2486329	1.28	38:25.0	Ventana	34.139	00:11:52:14	7.221		Goniasteridae	Mediaster			Animalia	Valvatida	Echinodermata	Mediaster aequalis	Asteroidea			Granulosina				Eukaryota		V3162-01
 	transect	Mediaster aequalis	358.57	3162	05:53:02:16	 	36.842545	-122.18762	2487005	1.42	03:41.0	Ventana	34.131	00:37:05:25	7.512		Goniasteridae	Mediaster			Animalia	Valvatida	Echinodermata	Mediaster aequalis	Asteroidea			Granulosina				Eukaryota		V3162-01
 	transect	Mediaster aequalis	360.86	3162	05:25:43:21	http://search.mbari.org/ARCHIVE/frameGrabs/Ventana/images/3162/00_09_47_02.jpg	36.842735	-122.18776	2486269	1.27	36:21.0	Ventana	34.146	00:09:47:02	7.258		Goniasteridae	Mediaster			Animalia	Valvatida	Echinodermata	Mediaster aequalis	Asteroidea			Granulosina				Eukaryota		V3162-01
 	transect	Mediaster aequalis	354.85	3162	05:48:43:09	 	36.84299	-122.187675	2486975	1.42	59:22.0	Ventana	34.13	00:32:47:28	7.508		Goniasteridae	Mediaster			Animalia	Valvatida	Echinodermata	Mediaster aequalis	Asteroidea			Granulosina				Eukaryota		V3162-01
 	descend	water	288.78	3162	05:18:09:21	 	36.8427	-122.18642	2486209	1.7	28:46.0	Ventana	34.111	00:02:12:23	7.897																			V3162-01
 	transect	Mediaster aequalis	351.11	3162	06:04:45:10	 	36.842754	-122.18685	2487028	1.47	15:25.0	Ventana	34.126	00:48:49:08	7.594		Goniasteridae	Mediaster			Animalia	Valvatida	Echinodermata	Mediaster aequalis	Asteroidea			Granulosina				Eukaryota		V3162-01
 	transect	Glyptocephalus zachirus	353.96	3162	05:42:35:20	 	36.843075	-122.1877	2486855	1.4	53:14.0	Ventana	34.132	00:26:39:06	7.465	Osteichthyes	Pleuronectidae	Glyptocephalus	Neopterygii		Animalia	Pleuronectiformes	Chordata		Actinopterygii				Vertebrata	Gnathostomata		Eukaryota	Acanthopterygii	V3162-01
 	transect	Mediaster aequalis	357.13	3162	05:51:40:03	 	36.842693	-122.18763	2486998	1.42	02:19.0	Ventana	34.128	00:35:43:10	7.516		Goniasteridae	Mediaster			Animalia	Valvatida	Echinodermata	Mediaster aequalis	Asteroidea			Granulosina				Eukaryota		V3162-01
 	transect	Microstomus pacificus	348.73	3162	06:06:29:22	http://search.mbari.org/ARCHIVE/frameGrabs/Ventana/images/3162/00_50_34_01.jpg	36.84286	-122.18668	2487049	1.48	17:09.0	Ventana	34.123	00:50:34:01	7.621	Osteichthyes	Pleuronectidae	Microstomus	Neopterygii		Animalia	Pleuronectiformes	Chordata	Microstomus pacificus	Actinopterygii				Vertebrata	Gnathostomata		Eukaryota	Acanthopterygii	V3162-01
 	transect	Mediaster aequalis	359.12	3162	05:27:14:04	 	36.842777	-122.18801	2486313	1.25	37:51.0	Ventana	34.147	00:11:18:04	7.204		Goniasteridae	Mediaster			Animalia	Valvatida	Echinodermata	Mediaster aequalis	Asteroidea			Granulosina				Eukaryota		V3162-01
 	transect	Mediaster aequalis	353.43	3162	05:59:07:19	 	36.84264	-122.18702	2487019	1.46	09:47.0	Ventana	34.126	00:43:11:17	7.568		Goniasteridae	Mediaster			Animalia	Valvatida	Echinodermata	Mediaster aequalis	Asteroidea			Granulosina				Eukaryota		V3162-01
 	transect	Allocentrotus fragilis	346.76	3162	06:07:42:05	 	36.84294	-122.18653	2487072	1.48	18:22.0	Ventana	34.124	00:51:45:13	7.611	Echinoidea	Strongylocentrotidae	Allocentrotus			Animalia	Echinoida	Echinodermata	Allocentrotus fragilis	Euechinoidea			Echinacea				Eukaryota		V3162-01
 	transect	physical object	349.24	3162	06:06:01:23	http://search.mbari.org/ARCHIVE/frameGrabs/Ventana/images/3162/00_50_06_01.jpg	36.842834	-122.18677	2487042	1.48	16:41.0	Ventana	34.123	00:50:06:01	7.618																			V3162-01
 	transect	Mediaster aequalis	354.66	3162	05:58:15:21	 	36.84262	-122.18722	2487012	1.45	08:55.0	Ventana	34.126	00:42:19:03	7.568		Goniasteridae	Mediaster			Animalia	Valvatida	Echinodermata	Mediaster aequalis	Asteroidea			Granulosina				Eukaryota		V3162-01
 	transect	Rathbunaster californicus	355.37	3162	05:49:21:08	 	36.842922	-122.1877	2486982	1.42	00:00.0	Ventana	34.13	00:33:24:20	7.503		Labidiasteridae	Rathbunaster			Animalia	Forcipulatida	Echinodermata	Rathbunaster californicus	Asteroidea							Eukaryota		V3162-01
 	transect	Allocentrotus fragilis	350.54	3162	06:05:05:09	 	36.84277	-122.186806	2487033	1.47	15:45.0	Ventana	34.125	00:49:09:06	7.593	Echinoidea	Strongylocentrotidae	Allocentrotus			Animalia	Echinoida	Echinodermata	Allocentrotus fragilis	Euechinoidea			Echinacea				Eukaryota		V3162-01
 	transect	Glyptocephalus zachirus	357.96	3162	05:52:30:02	 	36.8426	-122.18763	2487003	1.42	03:09.0	Ventana	34.129	00:36:34:08	7.514	Osteichthyes	Pleuronectidae	Glyptocephalus	Neopterygii		Animalia	Pleuronectiformes	Chordata		Actinopterygii				Vertebrata	Gnathostomata		Eukaryota	Acanthopterygii	V3162-01
 	transect	Phyllospadix	351.29	3162	05:36:08:03	 	36.843124	-122.18753	2486620	1.35	46:46.0	Ventana	34.139	00:20:11:17	7.411		Zosteraceae	Phyllospadix			Plantae	Najadales										Eukaryota		V3162-01
 	transect	Mediaster aequalis	353.88	3162	05:42:29:20	 	36.843086	-122.187706	2486853	1.4	53:08.0	Ventana	34.132	00:26:33:25	7.465		Goniasteridae	Mediaster			Animalia	Valvatida	Echinodermata	Mediaster aequalis	Asteroidea			Granulosina				Eukaryota		V3162-01
 	transect	Allocentrotus fragilis	348.39	3162	06:06:41:21	 	36.842873	-122.18667	2487056	1.48	17:21.0	Ventana	34.123	00:50:46:11	7.621	Echinoidea	Strongylocentrotidae	Allocentrotus			Animalia	Echinoida	Echinodermata	Allocentrotus fragilis	Euechinoidea			Echinacea				Eukaryota		V3162-01
 	transect	Rathbunaster californicus	351.81	3162	06:04:16:26	 	36.842747	-122.186905	2487026	1.47	14:56.0	Ventana	34.125	00:48:21:15	7.61		Labidiasteridae	Rathbunaster			Animalia	Forcipulatida	Echinodermata	Rathbunaster californicus	Asteroidea							Eukaryota		V3162-01
 	transect	Mediaster aequalis	356.75	3162	05:51:07:19	 	36.84274	-122.18763	2486996	1.43	01:46.0	Ventana	34.128	00:35:10:26	7.523		Goniasteridae	Mediaster			Animalia	Valvatida	Echinodermata	Mediaster aequalis	Asteroidea			Granulosina				Eukaryota		V3162-01
 	transect	Rathbunaster californicus	357.21	3162	05:28:28:01	http://search.mbari.org/ARCHIVE/frameGrabs/Ventana/images/3162/00_12_31_06.jpg	36.84288	-122.18781	2486401	1.23	39:05.0	Ventana	34.146	00:12:31:06	7.143		Labidiasteridae	Rathbunaster			Animalia	Forcipulatida	Echinodermata	Rathbunaster californicus	Asteroidea							Eukaryota		V3162-01
 	transect	Rathbunaster californicus	355.33	3162	05:29:46:14	 	36.84296	-122.18777	2486461	1.26	40:24.0	Ventana	34.154	00:13:51:01	7.219		Labidiasteridae	Rathbunaster			Animalia	Forcipulatida	Echinodermata	Rathbunaster californicus	Asteroidea							Eukaryota		V3162-01
 	transect	Allocentrotus fragilis	346.82	3162	06:07:39:20	 	36.842937	-122.18653	2487070	1.48	18:19.0	Ventana	34.124	00:51:44:06	7.611	Echinoidea	Strongylocentrotidae	Allocentrotus			Animalia	Echinoida	Echinodermata	Allocentrotus fragilis	Euechinoidea			Echinacea				Eukaryota		V3162-01
 	transect	Rathbunaster californicus	349.78	3162	06:05:29:09	 	36.842796	-122.18683	2487040	1.47	16:09.0	Ventana	34.125	00:49:33:01	7.606		Labidiasteridae	Rathbunaster			Animalia	Forcipulatida	Echinodermata	Rathbunaster californicus	Asteroidea							Eukaryota		V3162-01
 	transect	Mediaster aequalis	355.97	3162	05:57:19:08	 	36.842583	-122.187355	2487010	1.45	07:58.0	Ventana	34.128	00:41:24:10	7.569		Goniasteridae	Mediaster			Animalia	Valvatida	Echinodermata	Mediaster aequalis	Asteroidea			Granulosina				Eukaryota		V3162-01
 	transect	Rathbunaster californicus	355.27	3162	05:49:11:08	 	36.842937	-122.18769	2486980	1.42	59:50.0	Ventana	34.13	00:33:16:03	7.503		Labidiasteridae	Rathbunaster			Animalia	Forcipulatida	Echinodermata	Rathbunaster californicus	Asteroidea							Eukaryota		V3162-01
 	transect	Allocentrotus fragilis	347.96	3162	06:06:55:21	 	36.84289	-122.186646	2487063	1.48	17:35.0	Ventana	34.123	00:50:59:23	7.62	Echinoidea	Strongylocentrotidae	Allocentrotus			Animalia	Echinoida	Echinodermata	Allocentrotus fragilis	Euechinoidea			Echinacea				Eukaryota		V3162-01
 	transect	Allocentrotus fragilis	348.41	3162	06:06:39:22	 	36.842873	-122.18667	2487054	1.48	17:19.0	Ventana	34.123	00:50:43:27	7.621	Echinoidea	Strongylocentrotidae	Allocentrotus			Animalia	Echinoida	Echinodermata	Allocentrotus fragilis	Euechinoidea			Echinacea				Eukaryota		V3162-01
 	transect	Mediaster aequalis	349.37	3162	05:37:44:14	 	36.843224	-122.18732	2486648	1.44	48:22.0	Ventana	34.13	00:21:47:25	7.548		Goniasteridae	Mediaster			Animalia	Valvatida	Echinodermata	Mediaster aequalis	Asteroidea			Granulosina				Eukaryota		V3162-01
 	transect	Allocentrotus fragilis	352.23	3162	06:03:48:26	 	36.84273	-122.18698	2487024	1.48	14:28.0	Ventana	34.12	00:47:53:07	7.609	Echinoidea	Strongylocentrotidae	Allocentrotus			Animalia	Echinoida	Echinodermata	Allocentrotus fragilis	Euechinoidea			Echinacea				Eukaryota		V3162-01
 	transect	Rathbunaster californicus	356.54	3162	05:50:51:20	 	36.842766	-122.18769	2486994	1.43	01:30.0	Ventana	34.13	00:34:56:04	7.517		Labidiasteridae	Rathbunaster			Animalia	Forcipulatida	Echinodermata	Rathbunaster californicus	Asteroidea							Eukaryota		V3162-01
 	stationary	Lycodapus	362.04	3162	05:20:30:01	 	36.8427	-122.18812	2486212	1.36	31:07.0	Ventana	34.146	00:04:33:17	7.325	Osteichthyes	Zoarcidae	Lycodapus	Neopterygii		Animalia	Perciformes	Chordata		Actinopterygii			Zoarcoidei	Vertebrata	Gnathostomata		Eukaryota	Acanthopterygii	V3162-01
 	transect	Allocentrotus fragilis	348.73	3162	06:06:29:22	 	36.84286	-122.18668	2487047	1.48	17:09.0	Ventana	34.123	00:50:33:00	7.621	Echinoidea	Strongylocentrotidae	Allocentrotus			Animalia	Echinoida	Echinodermata	Allocentrotus fragilis	Euechinoidea			Echinacea				Eukaryota		V3162-01
 	transect	Rathbunaster californicus	347.32	3162	06:07:19:21	http://search.mbari.org/ARCHIVE/frameGrabs/Ventana/images/3162/00_51_23_24.jpg	36.842915	-122.18656	2487068	1.48	17:59.0	Ventana	34.123	00:51:23:24	7.614		Labidiasteridae	Rathbunaster			Animalia	Forcipulatida	Echinodermata	Rathbunaster californicus	Asteroidea							Eukaryota		V3162-01
 	transect	Phyllospadix	350.24	3162	06:05:19:08	 	36.842785	-122.1868	2487038	1.47	15:59.0	Ventana	34.124	00:49:22:17	7.605		Zosteraceae	Phyllospadix			Plantae	Najadales										Eukaryota		V3162-01
 	cruise	mud	356.91	3162	05:56:29:09	 	36.842533	-122.18738	2487008	1.43	07:08.0	Ventana	34.13	00:40:33:06	7.529																			V3162-01
 	transect	Mediaster aequalis	355.12	3162	05:49:01:08	 	36.842957	-122.18767	2486978	1.42	59:40.0	Ventana	34.13	00:33:06:01	7.503		Goniasteridae	Mediaster			Animalia	Valvatida	Echinodermata	Mediaster aequalis	Asteroidea			Granulosina				Eukaryota		V3162-01
 	transect	Glyptocephalus zachirus	357.54	3162	05:28:16:02	http://search.mbari.org/ARCHIVE/frameGrabs/Ventana/images/3162/00_12_19_09.jpg	36.84287	-122.18782	2486392	1.23	38:53.0	Ventana	34.146	00:12:19:09	7.143	Osteichthyes	Pleuronectidae	Glyptocephalus	Neopterygii		Animalia	Pleuronectiformes	Chordata		Actinopterygii				Vertebrata	Gnathostomata		Eukaryota	Acanthopterygii	V3162-01
 	transect	Merluccius productus	358.03	3162	05:27:58:02	http://search.mbari.org/ARCHIVE/frameGrabs/Ventana/images/3162/00_12_02_10.jpg	36.842842	-122.18787	2486339	1.28	38:35.0	Ventana	34.139	00:12:02:10	7.221	Osteichthyes	Merlucciidae	Merluccius	Neopterygii		Animalia	Gadiformes	Chordata	Merluccius productus	Actinopterygii				Vertebrata	Gnathostomata		Eukaryota	Paracanthopterygii	V3162-01
 	transect	Sebastes diploproa	348	3162	06:06:53:21	 	36.842888	-122.186615	2487061	1.48	17:33.0	Ventana	34.123	00:50:57:14	7.62	Osteichthyes	Scorpaenidae	Sebastes	Neopterygii		Animalia	Scorpaeniformes	Chordata	Sebastes diploproa	Actinopterygii			Scorpaenoidei	Vertebrata	Gnathostomata		Eukaryota	Acanthopterygii	V3162-01
 	transect	Rathbunaster californicus	350.61	3162	06:05:03:09	 	36.842766	-122.186806	2487031	1.47	15:43.0	Ventana	34.125	00:49:08:11	7.593		Labidiasteridae	Rathbunaster			Animalia	Forcipulatida	Echinodermata	Rathbunaster californicus	Asteroidea							Eukaryota		V3162-01
 	transect	Glyptocephalus zachirus	357.59	3162	05:52:04:03	 	36.84265	-122.18763	2487001	1.43	02:43.0	Ventana	34.129	00:36:09:00	7.518	Osteichthyes	Pleuronectidae	Glyptocephalus	Neopterygii		Animalia	Pleuronectiformes	Chordata		Actinopterygii				Vertebrata	Gnathostomata		Eukaryota	Acanthopterygii	V3162-01
 	transect	Allocentrotus fragilis	348.47	3162	06:06:37:22	 	36.84287	-122.18666	2487052	1.48	17:17.0	Ventana	34.123	00:50:41:09	7.621	Echinoidea	Strongylocentrotidae	Allocentrotus			Animalia	Echinoida	Echinodermata	Allocentrotus fragilis	Euechinoidea			Echinacea				Eukaryota		V3162-01
 	starttransect	object	352.74	3162	06:03:28:26	 	36.84271	-122.187004	2487022	1.49	14:08.0	Ventana	34.124	00:47:33:03	7.637																			V3162-01
 	cruise	Sebastes diploproa	362.08	3162	05:20:14:02	http://search.mbari.org/ARCHIVE/frameGrabs/Ventana/images/3162/00_04_19_04.jpg	36.842697	-122.18819	2486210	1.36	30:51.0	Ventana	34.139	00:04:19:04	7.373	Osteichthyes	Scorpaenidae	Sebastes	Neopterygii		Animalia	Scorpaeniformes	Chordata	Sebastes diploproa	Actinopterygii			Scorpaenoidei	Vertebrata	Gnathostomata		Eukaryota	Acanthopterygii	V3162-01
 	transect	Allocentrotus fragilis	349.04	3162	06:06:19:22	 	36.84285	-122.18676	2487045	1.48	16:59.0	Ventana	34.124	00:50:24:11	7.616	Echinoidea	Strongylocentrotidae	Allocentrotus			Animalia	Echinoida	Echinodermata	Allocentrotus fragilis	Euechinoidea			Echinacea				Eukaryota		V3162-01
 	cruise	Mediaster aequalis	348.81	3162	05:38:06:14	 	36.843243	-122.18719	2486782	1.45	48:44.0	Ventana	34.126	00:22:09:21	7.562		Goniasteridae	Mediaster			Animalia	Valvatida	Echinodermata	Mediaster aequalis	Asteroidea			Granulosina				Eukaryota		V3162-01
 	transect	Rathbunaster californicus	351.87	3162	05:41:11:08	 	36.843227	-122.187675	2486833	1.37	51:49.0	Ventana	34.136	00:25:15:03	7.438		Labidiasteridae	Rathbunaster			Animalia	Forcipulatida	Echinodermata	Rathbunaster californicus	Asteroidea							Eukaryota		V3162-01
 	transect	Rathbunaster californicus	354.82	3162	05:30:06:14	 	36.84299	-122.1878	2486480	1.3	40:44.0	Ventana	34.14	00:14:11:01	7.309		Labidiasteridae	Rathbunaster			Animalia	Forcipulatida	Echinodermata	Rathbunaster californicus	Asteroidea							Eukaryota		V3162-01
 	transect	Allocentrotus fragilis	350.24	3162	06:05:19:08	 	36.842785	-122.1868	2487036	1.47	15:59.0	Ventana	34.124	00:49:23:06	7.605	Echinoidea	Strongylocentrotidae	Allocentrotus			Animalia	Echinoida	Echinodermata	Allocentrotus fragilis	Euechinoidea			Echinacea				Eukaryota		V3162-01
 	cruise	benthos	362.08	3162	05:20:14:02	http://search.mbari.org/ARCHIVE/frameGrabs/Ventana/images/3162/00_04_19_04.jpg	36.842697	-122.18819	20023641	1.36	30:51.0	Ventana	34.139	00:04:19:04	7.373																			V3162-01
 	transect	Allocentrotus fragilis	348.28	3162	06:06:45:22	 	36.84288	-122.186646	2487059	1.48	17:25.0	Ventana	34.123	00:50:50:23	7.62	Echinoidea	Strongylocentrotidae	Allocentrotus			Animalia	Echinoida	Echinodermata	Allocentrotus fragilis	Euechinoidea			Echinacea				Eukaryota		V3162-01
 	transect	Allocentrotus fragilis	350.82	3162	06:04:55:10	 	36.842762	-122.18683	2487029	1.47	15:35.0	Ventana	34.126	00:48:59:04	7.594	Echinoidea	Strongylocentrotidae	Allocentrotus			Animalia	Echinoida	Echinodermata	Allocentrotus fragilis	Euechinoidea			Echinacea				Eukaryota		V3162-01
 	transect	Rathbunaster californicus	359.83	3162	05:26:39:20	 	36.84276	-122.18822	2486307	1.31	37:17.0	Ventana	34.131	00:10:43:23	7.334		Labidiasteridae	Rathbunaster			Animalia	Forcipulatida	Echinodermata	Rathbunaster californicus	Asteroidea							Eukaryota		V3162-01
 	transect	Mediaster aequalis	357.13	3162	05:51:40:03	 	36.842693	-122.18763	2486999	1.42	02:19.0	Ventana	34.128	00:35:44:29	7.516		Goniasteridae	Mediaster			Animalia	Valvatida	Echinodermata	Mediaster aequalis	Asteroidea			Granulosina				Eukaryota		V3162-01
 	transect	Mediaster aequalis	360.48	3162	05:26:09:21	 	36.842724	-122.188194	2486277	1.22	36:47.0	Ventana	34.146	00:10:14:07	7.122		Goniasteridae	Mediaster			Animalia	Valvatida	Echinodermata	Mediaster aequalis	Asteroidea			Granulosina				Eukaryota		V3162-01
 	transect	Rathbunaster californicus	354.68	3162	05:48:25:09	 	36.843014	-122.18776	2486969	1.42	59:04.0	Ventana	34.131	00:32:29:03	7.506		Labidiasteridae	Rathbunaster			Animalia	Forcipulatida	Echinodermata	Rathbunaster californicus	Asteroidea							Eukaryota		V3162-01
 	transect	Rathbunaster californicus	353.14	3162	05:59:28:04	 	36.84265	-122.18677	2487020	1.46	10:07.0	Ventana	34.126	00:43:32:21	7.572		Labidiasteridae	Rathbunaster			Animalia	Forcipulatida	Echinodermata	Rathbunaster californicus	Asteroidea							Eukaryota		V3162-01
 	transect	Rathbunaster californicus	356.06	3162	05:50:11:21	 	36.842842	-122.18759	2486990	1.42	00:50.0	Ventana	34.13	00:34:15:06	7.507		Labidiasteridae	Rathbunaster			Animalia	Forcipulatida	Echinodermata	Rathbunaster californicus	Asteroidea							Eukaryota		V3162-01
 	transect	Mediaster tenellus	355.56	3162	05:49:29:08	 	36.84291	-122.18767	2486983	1.42	00:08.0	Ventana	34.131	00:33:34:01	7.503		Goniasteridae	Mediaster			Animalia	Valvatida	Echinodermata	Mediaster tenellus	Asteroidea			Granulosina				Eukaryota		V3162-01
 	transect	Mediaster aequalis	354.62	3162	05:58:21:21	 	36.84262	-122.187065	2487013	1.45	09:01.0	Ventana	34.126	00:42:25:23	7.568		Goniasteridae	Mediaster			Animalia	Valvatida	Echinodermata	Mediaster aequalis	Asteroidea			Granulosina				Eukaryota		V3162-01
 	transect	Allocentrotus fragilis	347.73	3162	06:07:03:21	 	36.8429	-122.18659	2487064	1.48	17:43.0	Ventana	34.124	00:51:07:02	7.615	Echinoidea	Strongylocentrotidae	Allocentrotus			Animalia	Echinoida	Echinodermata	Allocentrotus fragilis	Euechinoidea			Echinacea				Eukaryota		V3162-01
 	transect	Allocentrotus fragilis	350.54	3162	06:05:05:09	 	36.84277	-122.186806	2487034	1.47	15:45.0	Ventana	34.125	00:49:09:22	7.593	Echinoidea	Strongylocentrotidae	Allocentrotus			Animalia	Echinoida	Echinodermata	Allocentrotus fragilis	Euechinoidea			Echinacea				Eukaryota		V3162-01
 	transect	Mediaster aequalis	358.02	3162	05:52:32:02	 	36.842598	-122.18759	2487004	1.42	03:11.0	Ventana	34.129	00:36:36:25	7.514		Goniasteridae	Mediaster			Animalia	Valvatida	Echinodermata	Mediaster aequalis	Asteroidea			Granulosina				Eukaryota		V3162-01
 	transect	Ptilosarcus gurneyi	354.77	3162	05:48:37:09	 	36.843	-122.187706	2486974	1.42	59:16.0	Ventana	34.13	00:32:41:17	7.508	Anthozoa	Pennatulidae	Ptilosarcus			Animalia	Pennatulacea	Cnidaria	Ptilosarcus gurneyi	Octocorallia			Subselliflorae				Eukaryota		V3162-01
 	endtransect	object	352.64	3162	05:31:46:26	 	36.84312	-122.18753	2486568	1.3	42:24.0	Ventana	34.141	00:15:51:14	7.302																			V3162-01
 	transect	Allocentrotus fragilis	348.29	3162	06:06:43:22	 	36.842876	-122.186646	2487057	1.48	17:23.0	Ventana	34.123	00:50:47:11	7.62	Echinoidea	Strongylocentrotidae	Allocentrotus			Animalia	Echinoida	Echinodermata	Allocentrotus fragilis	Euechinoidea			Echinacea				Eukaryota		V3162-01
 	transect	Mediaster aequalis	351.32	3162	06:04:35:10	 	36.842754	-122.186874	2487027	1.47	15:15.0	Ventana	34.124	00:48:38:05	7.597		Goniasteridae	Mediaster			Animalia	Valvatida	Echinodermata	Mediaster aequalis	Asteroidea			Granulosina				Eukaryota		V3162-01
 	starttransect	object	354.57	3162	05:48:19:10	 	36.843018	-122.18774	2486967	1.42	58:58.0	Ventana	34.131	00:32:22:26	7.506																			V3162-01
 	transect	Mediaster aequalis	353.57	3162	05:58:57:20	 	36.842632	-122.18713	2487018	1.46	09:37.0	Ventana	34.125	00:43:01:00	7.576		Goniasteridae	Mediaster			Animalia	Valvatida	Echinodermata	Mediaster aequalis	Asteroidea			Granulosina				Eukaryota		V3162-01
 	transect	Allocentrotus fragilis	346.76	3162	06:07:42:05	 	36.84294	-122.18653	2487071	1.48	18:22.0	Ventana	34.124	00:51:44:24	7.611	Echinoidea	Strongylocentrotidae	Allocentrotus			Animalia	Echinoida	Echinodermata	Allocentrotus fragilis	Euechinoidea			Echinacea				Eukaryota		V3162-01
 	transect	Lycodes cortezianus	349.5	3162	06:05:49:23	 	36.84282	-122.18679	2487041	1.47	16:29.0	Ventana	34.124	00:49:54:09	7.606	Osteichthyes	Zoarcidae	Lycodes	Neopterygii		Animalia	Perciformes	Chordata	Lycodes cortezianus	Actinopterygii			Zoarcoidei	Vertebrata	Gnathostomata		Eukaryota	Acanthopterygii	V3162-01
 	transect	Mediaster aequalis	357.34	3162	05:28:24:02	 	36.842876	-122.187836	2486395	1.23	39:01.0	Ventana	34.146	00:12:28:26	7.143		Goniasteridae	Mediaster			Animalia	Valvatida	Echinodermata	Mediaster aequalis	Asteroidea			Granulosina				Eukaryota		V3162-01
 	transect	Mediaster aequalis	355.3	3162	05:49:15:08	 	36.842934	-122.187675	2486981	1.42	59:54.0	Ventana	34.13	00:33:20:03	7.503		Goniasteridae	Mediaster			Animalia	Valvatida	Echinodermata	Mediaster aequalis	Asteroidea			Granulosina				Eukaryota		V3162-01
 	transect	Lycodes cortezianus	355.37	3162	05:57:49:22	http://search.mbari.org/ARCHIVE/frameGrabs/Ventana/images/3162/00_41_53_24.jpg	36.84261	-122.18729	2487011	1.46	08:29.0	Ventana	34.126	00:41:53:24	7.578	Osteichthyes	Zoarcidae	Lycodes	Neopterygii		Animalia	Perciformes	Chordata	Lycodes cortezianus	Actinopterygii			Zoarcoidei	Vertebrata	Gnathostomata		Eukaryota	Acanthopterygii	V3162-01
 	transect	Rathbunaster californicus	354.3	3162	05:42:53:20	http://search.mbari.org/ARCHIVE/frameGrabs/Ventana/images/3162/00_26_56_23.jpg	36.843052	-122.1877	2486861	1.4	53:32.0	Ventana	34.132	00:26:56:23	7.471		Labidiasteridae	Rathbunaster			Animalia	Forcipulatida	Echinodermata	Rathbunaster californicus	Asteroidea							Eukaryota		V3162-01
 	transect	Mediaster aequalis	357.9	3162	05:52:24:02	 	36.842613	-122.187675	2487002	1.42	03:03.0	Ventana	34.129	00:36:28:05	7.509		Goniasteridae	Mediaster			Animalia	Valvatida	Echinodermata	Mediaster aequalis	Asteroidea			Granulosina				Eukaryota		V3162-01
 	transect	Glyptocephalus zachirus	359.98	3162	05:26:31:20	http://search.mbari.org/ARCHIVE/frameGrabs/Ventana/images/3162/00_10_36_12.jpg	36.842747	-122.18819	2486296	1.31	37:09.0	Ventana	34.131	00:10:36:12	7.334	Osteichthyes	Pleuronectidae	Glyptocephalus	Neopterygii		Animalia	Pleuronectiformes	Chordata		Actinopterygii				Vertebrata	Gnathostomata		Eukaryota	Acanthopterygii	V3162-01
 	transect	Mediaster aequalis	354.77	3162	05:48:37:09	 	36.843	-122.187706	2486972	1.42	59:16.0	Ventana	34.13	00:32:41:17	7.508		Goniasteridae	Mediaster			Animalia	Valvatida	Echinodermata	Mediaster aequalis	Asteroidea			Granulosina				Eukaryota		V3162-01
 	transect	Rathbunaster californicus	353.81	3162	05:42:21:21	 	36.843098	-122.18756	2486852	1.41	53:00.0	Ventana	34.13	00:26:25:01	7.491		Labidiasteridae	Rathbunaster			Animalia	Forcipulatida	Echinodermata	Rathbunaster californicus	Asteroidea							Eukaryota		V3162-01
 	transect	Allocentrotus fragilis	348.41	3162	06:06:39:22	 	36.842873	-122.18667	2487055	1.48	17:19.0	Ventana	34.123	00:50:44:22	7.621	Echinoidea	Strongylocentrotidae	Allocentrotus			Animalia	Echinoida	Echinodermata	Allocentrotus fragilis	Euechinoidea			Echinacea				Eukaryota		V3162-01
 	transect	Allocentrotus fragilis	352.08	3162	06:03:58:26	 	36.842747	-122.1869	2487025	1.47	14:38.0	Ventana	34.125	00:48:02:27	7.592	Echinoidea	Strongylocentrotidae	Allocentrotus			Animalia	Echinoida	Echinodermata	Allocentrotus fragilis	Euechinoidea			Echinacea				Eukaryota		V3162-01
 	transect	Mediaster aequalis	356.64	3162	05:50:55:20	 	36.84276	-122.187675	2486995	1.43	01:34.0	Ventana	34.13	00:35:00:13	7.517		Goniasteridae	Mediaster			Animalia	Valvatida	Echinodermata	Mediaster aequalis	Asteroidea			Granulosina				Eukaryota		V3162-01
 	transect	Laminariales	360.55	3162	05:26:01:21	 	36.842728	-122.18817	2486273	1.22	36:39.0	Ventana	34.146	00:10:05:08	7.122	Phaeophyceae					Chromista	Laminariales	Phaeophycophyta									Eukaryota		V3162-01
 	stationary	Merluccius productus	361.99	3162	05:23:28:26	 	36.84268	-122.188034	2486213	1.3	34:06.0	Ventana	34.137	00:07:32:22	7.28	Osteichthyes	Merlucciidae	Merluccius	Neopterygii		Animalia	Gadiformes	Chordata	Merluccius productus	Actinopterygii				Vertebrata	Gnathostomata		Eukaryota	Paracanthopterygii	V3162-01
 	transect	Mediaster aequalis	353.29	3162	05:42:01:21	 	36.84313	-122.187614	2486845	1.41	52:40.0	Ventana	34.127	00:26:05:07	7.501		Goniasteridae	Mediaster			Animalia	Valvatida	Echinodermata	Mediaster aequalis	Asteroidea			Granulosina				Eukaryota		V3162-01
 	transect	Glyptocephalus zachirus	358.43	3162	05:27:44:03	 	36.842815	-122.18801	2486326	1.29	38:21.0	Ventana	34.145	00:11:48:24	7.26	Osteichthyes	Pleuronectidae	Glyptocephalus	Neopterygii		Animalia	Pleuronectiformes	Chordata		Actinopterygii				Vertebrata	Gnathostomata		Eukaryota	Acanthopterygii	V3162-01
 	transect	Mediaster tenellus	355.03	3162	05:43:14:04	 	36.84303	-122.1877	2486956	1.4	53:52.0	Ventana	34.134	00:27:18:00	7.462		Goniasteridae	Mediaster			Animalia	Valvatida	Echinodermata	Mediaster tenellus	Asteroidea			Granulosina				Eukaryota		V3162-01
 	transect	Allocentrotus fragilis	355.64	3162	05:49:33:23	http://search.mbari.org/ARCHIVE/frameGrabs/Ventana/images/3162/00_33_36_11.jpg	36.842907	-122.1877	2486986	1.42	00:12.0	Ventana	34.131	00:33:36:11	7.503	Echinoidea	Strongylocentrotidae	Allocentrotus			Animalia	Echinoida	Echinodermata	Allocentrotus fragilis	Euechinoidea			Echinacea				Eukaryota		V3162-01
 	transect	Rathbunaster californicus	346.95	3162	06:07:33:20	 	36.84293	-122.18653	2487069	1.48	18:13.0	Ventana	34.124	00:51:38:08	7.611		Labidiasteridae	Rathbunaster			Animalia	Forcipulatida	Echinodermata	Rathbunaster californicus	Asteroidea							Eukaryota		V3162-01
 	transect	Rathbunaster californicus	350.09	3162	06:05:23:09	 	36.84279	-122.186806	2487039	1.47	16:03.0	Ventana	34.124	00:49:28:06	7.605		Labidiasteridae	Rathbunaster			Animalia	Forcipulatida	Echinodermata	Rathbunaster californicus	Asteroidea							Eukaryota		V3162-01
 	transect	Mediaster aequalis	355.18	3162	05:49:07:08	 	36.842945	-122.18768	2486979	1.42	59:46.0	Ventana	34.13	00:33:11:26	7.503		Goniasteridae	Mediaster			Animalia	Valvatida	Echinodermata	Mediaster aequalis	Asteroidea			Granulosina				Eukaryota		V3162-01
 	cruise	Microstomus pacificus	356.68	3162	05:56:51:09	 	36.842552	-122.187355	2487009	1.43	07:30.0	Ventana	34.128	00:40:54:29	7.54	Osteichthyes	Pleuronectidae	Microstomus	Neopterygii		Animalia	Pleuronectiformes	Chordata	Microstomus pacificus	Actinopterygii				Vertebrata	Gnathostomata		Eukaryota	Acanthopterygii	V3162-01
 	transect	Allocentrotus fragilis	348	3162	06:06:53:21	 	36.842888	-122.186615	2487062	1.48	17:33.0	Ventana	34.123	00:50:57:14	7.62	Echinoidea	Strongylocentrotidae	Allocentrotus			Animalia	Echinoida	Echinodermata	Allocentrotus fragilis	Euechinoidea			Echinacea				Eukaryota		V3162-01
 	transect	Mediaster aequalis	350.61	3162	06:05:03:09	 	36.842766	-122.186806	2487032	1.47	15:43.0	Ventana	34.125	00:49:08:11	7.593		Goniasteridae	Mediaster			Animalia	Valvatida	Echinodermata	Mediaster aequalis	Asteroidea			Granulosina				Eukaryota		V3162-01
 	transect	Rathbunaster californicus	354.21	3162	05:42:49:20	 	36.843056	-122.18766	2486859	1.4	53:28.0	Ventana	34.132	00:26:53:07	7.471		Labidiasteridae	Rathbunaster			Animalia	Forcipulatida	Echinodermata	Rathbunaster californicus	Asteroidea							Eukaryota		V3162-01
perspective | self | distant	cruise	benthos	43.69	3163	06:15:52:06	 	36.8672	-121.8978	2487223	5.59	09:07.0	Ventana	33.291	00:04:58:08	11.355																			V3163-01
water-quality | self | sediment-cloudy	cruise	water	40.66	3163	06:21:51:25	 	36.86727	-121.89778	2487247	5.57	15:07.0	Ventana	33.294	00:10:57:29	11.353																			V3163-01
"comment | self | no disturbance, no cable trench visible, nil | nil | moving diagonal looking for cable"	cruise	sediment	45.78	3163	06:19:36:29	http://search.mbari.org/ARCHIVE/frameGrabs/Ventana/images/3163/00_08_44_23.jpg	36.86716	-121.8978	20023674	5.56	12:52.0	Ventana	33.297	00:08:44:23	11.343																			V3163-01
contains | ripples | nil	transect	sand	43.77	3163	06:33:26:03	http://search.mbari.org/ARCHIVE/frameGrabs/Ventana/images/3163/00_22_33_18.jpg	36.868584	-121.896545	2487321	5.58	26:42.0	Ventana	33.295	00:22:33:18	11.345																			V3163-01
identity-certainty | self | definite	transect	Pycnopodia helianthoides	44.24	3163	06:34:40:16	http://search.mbari.org/ARCHIVE/frameGrabs/Ventana/images/3163/00_23_47_10.jpg	36.8685	-121.89646	2487374	5.57	27:57.0	Ventana	33.296	00:23:47:10	11.344		Asteriidae	Pycnopodia			Animalia	Forcipulatida	Echinodermata	Pycnopodia helianthoides	Asteroidea							Eukaryota		V3163-01
contains | ripples | nil	transect	sand	44.22	3163	06:37:19:11	http://search.mbari.org/ARCHIVE/frameGrabs/Ventana/images/3163/00_26_25_13.jpg	36.868355	-121.895996	2487425	5.57	30:35.0	Ventana	33.295	00:26:25:13	11.345																			V3163-01
identity-reference | self | Diopatra?	transect	Polychaeta	43.9	3163	06:41:38:03	http://search.mbari.org/ARCHIVE/frameGrabs/Ventana/images/3163/00_30_46_01.jpg	36.86816	-121.89568	2487446	5.57	34:55.0	Ventana	33.296	00:30:46:01	11.346	Polychaeta					Animalia		Annelida									Eukaryota		V3163-01
identity-reference | self | Diopatra?	transect	Polychaeta	44.04	3163	06:41:48:18	 	36.868145	-121.89567	2487447	5.57	35:05.0	Ventana	33.296	00:30:54:13	11.346	Polychaeta					Animalia		Annelida									Eukaryota		V3163-01
identity-reference | self | Diopatra?	transect	Polychaeta	44.04	3163	06:41:48:18	 	36.868145	-121.89567	2487448	5.57	35:05.0	Ventana	33.296	00:30:55:23	11.346	Polychaeta					Animalia		Annelida									Eukaryota		V3163-01
identity-reference | self | Diopatra?	transect	Polychaeta	44.13	3163	06:41:54:17	 	36.868137	-121.89566	2487449	5.57	35:11.0	Ventana	33.296	00:31:00:12	11.345	Polychaeta					Animalia		Annelida									Eukaryota		V3163-01
identity-reference | self | Diopatra?	transect	Polychaeta	43.9	3163	06:41:56:18	 	36.868134	-121.89565	2487450	5.57	35:13.0	Ventana	33.296	00:31:04:00	11.345	Polychaeta					Animalia		Annelida									Eukaryota		V3163-01
identity-reference | self | Diopatra?	transect	Polychaeta	44.06	3163	06:42:10:17	 	36.86812	-121.89563	2487457	5.57	35:27.0	Ventana	33.296	00:31:17:02	11.345	Polychaeta					Animalia		Annelida									Eukaryota		V3163-01
identity-reference | self | Diopatra?	transect	Polychaeta	44.17	3163	06:42:32:17	 	36.868095	-121.89559	2487467	5.57	35:49.0	Ventana	33.296	00:31:40:15	11.345	Polychaeta					Animalia		Annelida									Eukaryota		V3163-01
identity-reference | self | Diopatra?	transect	Polychaeta	44.12	3163	06:43:06:16	 	36.868073	-121.89551	2487473	5.57	36:23.0	Ventana	33.295	00:32:14:14	11.346	Polychaeta					Animalia		Annelida									Eukaryota		V3163-01
identity-reference | self | Diopatra?	transect	Polychaeta	44.08	3163	06:44:04:29	 	36.868046	-121.89532	2487485	5.57	37:21.0	Ventana	33.295	00:33:12:13	11.346	Polychaeta					Animalia		Annelida									Eukaryota		V3163-01
nil | nil | end H transect A	endtransect	physical object	43.98	3163	06:45:09:11	 	36.867912	-121.89514	2487498	5.58	38:26.0	Ventana	33.295	00:34:16:20	11.348																			V3163-01
identity-reference | self | Diopatra?	transect	Polychaeta	43.93	3163	06:33:50:18	 	36.868557	-121.89652	2487499	5.57	27:06.0	Ventana	33.296	00:22:57:09	11.344	Polychaeta					Animalia		Annelida									Eukaryota		V3163-01
identity-reference | self | Diopatra?	transect	Polychaeta	44	3163	06:33:58:18	 	36.86855	-121.89651	2487500	5.57	27:14.0	Ventana	33.296	00:23:04:29	11.345	Polychaeta					Animalia		Annelida									Eukaryota		V3163-01
identity-reference | self | Diopatra?	transect	Polychaeta	43.96	3163	06:34:10:17	 	36.868538	-121.8965	2487501	5.57	27:26.0	Ventana	33.295	00:23:17:05	11.345	Polychaeta					Animalia		Annelida									Eukaryota		V3163-01
identity-reference | self | Diopatra?	transect	Polychaeta	43.98	3163	06:34:20:17	 	36.868523	-121.896484	2487503	5.57	27:37.0	Ventana	33.295	00:23:26:27	11.345	Polychaeta					Animalia		Annelida									Eukaryota		V3163-01
identity-reference | self | Diopatra?	transect	Polychaeta	43.97	3163	06:34:44:16	 	36.868492	-121.896454	2487504	5.57	28:01.0	Ventana	33.296	00:23:50:25	11.344	Polychaeta					Animalia		Annelida									Eukaryota		V3163-01
identity-reference | self | Diopatra?	transect	Polychaeta	44.28	3163	06:35:48:29	 	36.868443	-121.895935	2487507	5.57	29:05.0	Ventana	33.295	00:24:56:03	11.345	Polychaeta					Animalia		Annelida									Eukaryota		V3163-01
identity-reference | self | Diopatra?	transect	Polychaeta	43.95	3163	06:36:04:28	 	36.86844	-121.89565	2487508	5.57	29:21.0	Ventana	33.297	00:25:11:17	11.344	Polychaeta					Animalia		Annelida									Eukaryota		V3163-01
identity-reference | self | Diopatra?	transect	Polychaeta	44.14	3163	06:36:18:28	 	36.868435	-121.89551	2487509	5.57	29:35.0	Ventana	33.296	00:25:26:16	11.344	Polychaeta					Animalia		Annelida									Eukaryota		V3163-01
identity-reference | self | Diopatra?	transect	Polychaeta	44.01	3163	06:36:28:28	 	36.86842	-121.89556	2487510	5.57	29:45.0	Ventana	33.297	00:25:36:20	11.344	Polychaeta					Animalia		Annelida									Eukaryota		V3163-01
identity-reference | self | Diopatra?	transect	Polychaeta	44.04	3163	06:36:36:28	 	36.8684	-121.89568	2487511	5.57	29:53.0	Ventana	33.296	00:25:43:13	11.344	Polychaeta					Animalia		Annelida									Eukaryota		V3163-01
identity-reference | self | Diopatra?	transect	Polychaeta	44.15	3163	06:36:46:27	 	36.868385	-121.895805	2487512	5.57	30:03.0	Ventana	33.296	00:25:54:07	11.344	Polychaeta					Animalia		Annelida									Eukaryota		V3163-01
identity-reference | self | Diopatra?	transect	Polychaeta	44.02	3163	06:37:05:12	 	36.868366	-121.895935	2487513	5.57	30:21.0	Ventana	33.296	00:26:12:16	11.344	Polychaeta					Animalia		Annelida									Eukaryota		V3163-01
identity-reference | self | Diopatra?	transect	Polychaeta	43.93	3163	06:37:15:11	 	36.86836	-121.89598	2487514	5.57	30:31.0	Ventana	33.295	00:26:22:00	11.345	Polychaeta					Animalia		Annelida									Eukaryota		V3163-01
identity-reference | self | Diopatra?	transect	Polychaeta	44.16	3163	06:40:18:06	 	36.86827	-121.89577	2487530	5.57	33:34.0	Ventana	33.296	00:29:25:16	11.345	Polychaeta					Animalia		Annelida									Eukaryota		V3163-01
identity-reference | self | Diopatra?	transect	Polychaeta	44.22	3163	06:40:36:05	 	36.868248	-121.89577	2487532	5.57	33:52.0	Ventana	33.296	00:29:42:25	11.346	Polychaeta					Animalia		Annelida									Eukaryota		V3163-01
identity-reference | self | Diopatra?	transect	Polychaeta	43.87	3163	06:40:52:05	 	36.868233	-121.89576	2487542	5.57	34:08.0	Ventana	33.296	00:29:59:05	11.345	Polychaeta					Animalia		Annelida									Eukaryota		V3163-01
identity-reference | self | Diopatra?	transect	Polychaeta	43.94	3163	06:41:08:04	 	36.86821	-121.89574	2487544	5.57	34:25.0	Ventana	33.295	00:30:14:13	11.345	Polychaeta					Animalia		Annelida									Eukaryota		V3163-01
identity-reference | self | Diopatra?	transect	Polychaeta	44.09	3163	06:41:26:04	 	36.86818	-121.895706	2487545	5.57	34:43.0	Ventana	33.296	00:30:32:18	11.345	Polychaeta					Animalia		Annelida									Eukaryota		V3163-01
contains | ripples | nil	cruise	sand	44.07	3163	06:45:57:10	 	36.86774	-121.89519	2487562	5.58	39:14.0	Ventana	33.294	00:35:04:29	11.347																			V3163-01
contains | ripples | nil	cruise	sand	44.23	3163	06:46:15:10	 	36.867764	-121.89526	2487567	5.58	39:32.0	Ventana	33.295	00:35:22:00	11.347																			V3163-01
contains | ripples | nil	cruise	sand	44.41	3163	06:47:31:22	 	36.867695	-121.89548	2487590	5.57	40:49.0	Ventana	33.295	00:36:38:27	11.346																			V3163-01
contains | ripples | nil	cruise	sand	44.49	3163	06:48:03:22	 	36.86767	-121.895515	2487597	5.57	41:21.0	Ventana	33.296	00:37:11:24	11.345																			V3163-01
contains | ripples | nil	cruise	sand	44.88	3163	06:49:18:05	 	36.867737	-121.89561	2487609	5.57	42:35.0	Ventana	33.296	00:38:25:12	11.347																			V3163-01
contains | ripples | nil	stationary	sand	45.34	3163	06:49:38:04	 	36.867733	-121.89561	2487612	5.57	42:55.0	Ventana	33.296	00:38:46:00	11.347																			V3163-01
contains | ripples | nil	cruise	sand	44.46	3163	06:54:03:11	 	36.867706	-121.895546	2487619	5.58	47:21.0	Ventana	33.296	00:43:09:28	11.346																			V3163-01
identity-reference | self | Diopatra?	transect	Polychaeta	44.64	3163	06:57:38:04	 	36.8677	-121.89593	2487691	5.57	50:56.0	Ventana	33.296	00:46:46:04	11.346	Polychaeta					Animalia		Annelida									Eukaryota		V3163-01
identity-reference | self | Diopatra?	transect	Polychaeta	44.62	3163	06:58:38:17	 	36.867744	-121.89603	2487713	5.57	51:56.0	Ventana	33.295	00:47:46:24	11.347	Polychaeta					Animalia		Annelida									Eukaryota		V3163-01
identity-reference | self | Diopatra?	transect	Polychaeta	44.51	3163	06:58:56:17	 	36.86776	-121.89606	2487717	5.58	52:14.0	Ventana	33.296	00:48:03:12	11.346	Polychaeta					Animalia		Annelida									Eukaryota		V3163-01
identity-reference | self | Diopatra?	transect	Polychaeta	44.53	3163	06:59:12:16	 	36.867775	-121.89609	2487725	5.58	52:30.0	Ventana	33.295	00:48:20:07	11.346	Polychaeta					Animalia		Annelida									Eukaryota		V3163-01
identity-reference | self | Diopatra?	transect	Polychaeta	44.68	3163	06:59:32:16	http://search.mbari.org/ARCHIVE/frameGrabs/Ventana/images/3163/00_48_40_17.jpg	36.867798	-121.89611	2487738	5.58	52:50.0	Ventana	33.295	00:48:40:17	11.347	Polychaeta					Animalia		Annelida									Eukaryota		V3163-01
identity-reference | self | Diopatra?	transect	Polychaeta	44.48	3163	06:59:49:00	 	36.86782	-121.89612	2487753	5.58	53:06.0	Ventana	33.295	00:48:54:26	11.346	Polychaeta					Animalia		Annelida									Eukaryota		V3163-01
identity-reference | self | Diopatra?	transect	Polychaeta	44.74	3163	06:59:55:00	 	36.867832	-121.896126	2487755	5.58	53:12.0	Ventana	33.296	00:49:00:26	11.346	Polychaeta					Animalia		Annelida									Eukaryota		V3163-01
identity-reference | self | Diopatra?	transect	Polychaeta	44.55	3163	06:59:57:00	 	36.867832	-121.89613	2487756	5.58	53:14.0	Ventana	33.296	00:49:03:19	11.346	Polychaeta					Animalia		Annelida									Eukaryota		V3163-01
identity-reference | self | Diopatra?	transect	Polychaeta	44.39	3163	06:59:59:00	 	36.867836	-121.89614	2487757	5.58	53:16.0	Ventana	33.296	00:49:06:22	11.346	Polychaeta					Animalia		Annelida									Eukaryota		V3163-01
identity-reference | self | Diopatra?	transect	Polychaeta	44.63	3163	07:00:28:28	 	36.867867	-121.89623	2487771	5.58	53:47.0	Ventana	33.295	00:49:35:15	11.346	Polychaeta					Animalia		Annelida									Eukaryota		V3163-01
identity-reference | self | Diopatra?	transect	Polychaeta	44.83	3163	07:01:00:28	 	36.86793	-121.896286	2487786	5.58	54:19.0	Ventana	33.296	00:50:09:03	11.345	Polychaeta					Animalia		Annelida									Eukaryota		V3163-01
identity-reference | self | Diopatra?	transect	Polychaeta	44.75	3163	07:01:13:12	 	36.867928	-121.89633	2487794	5.58	54:31.0	Ventana	33.296	00:50:20:10	11.346	Polychaeta					Animalia		Annelida									Eukaryota		V3163-01
identity-reference | self | Diopatra?	transect	Polychaeta	44.56	3163	07:02:11:11	 	36.86794	-121.89652	2487824	5.57	55:29.0	Ventana	33.296	00:51:18:19	11.345	Polychaeta					Animalia		Annelida									Eukaryota		V3163-01
identity-reference | self | Diopatra?	transect	Polychaeta	44.6	3163	07:02:35:11	 	36.867943	-121.89658	2487827	5.58	55:53.0	Ventana	33.297	00:51:42:17	11.345	Polychaeta					Animalia		Annelida									Eukaryota		V3163-01
identity-reference | self | Diopatra?	transect	Polychaeta	44.68	3163	07:03:13:24	 	36.867958	-121.89669	2487831	5.57	56:31.0	Ventana	33.296	00:52:20:06	11.345	Polychaeta					Animalia		Annelida									Eukaryota		V3163-01
identity-reference | self | Diopatra?	transect	Polychaeta	44.67	3163	07:03:31:23	 	36.867966	-121.896736	2487833	5.57	56:49.0	Ventana	33.297	00:52:39:14	11.345	Polychaeta					Animalia		Annelida									Eukaryota		V3163-01
identity-reference | self | Diopatra?	transect	Polychaeta	44.8	3163	07:04:11:22	 	36.867977	-121.89685	2487838	5.57	57:30.0	Ventana	33.296	00:53:19:26	11.345	Polychaeta					Animalia		Annelida									Eukaryota		V3163-01
identity-reference | self | Diopatra?	transect	Polychaeta	44.88	3163	07:04:21:22	 	36.86798	-121.89688	2487841	5.58	57:40.0	Ventana	33.296	00:53:28:29	11.345	Polychaeta					Animalia		Annelida									Eukaryota		V3163-01
nil | nil | end H transect B	endtransect	physical object	44.74	3163	07:04:23:22	 	36.867985	-121.89689	2487842	5.58	57:42.0	Ventana	33.296	00:53:31:18	11.345																			V3163-01
contains | ripples | nil	cruise	sand	44.84	3163	07:05:52:05	 	36.86806	-121.89735	2487844	5.58	59:10.0	Ventana	33.295	00:55:00:02	11.35																			V3163-01
contains | ripples | nil	cruise	sand	44.94	3163	07:09:51:00	http://search.mbari.org/ARCHIVE/frameGrabs/Ventana/images/3163/00_59_00_13.jpg	36.8679	-121.89728	20023684	5.58	03:38.0	Ventana	33.296	00:59:00:13	11.345																			V3163-02
contains | ripples | nil	stationary	sand	45.67	3163	07:08:28:18	 	36.868023	-121.89738	2487894	5.58	02:15.0	Ventana	33.294	00:57:37:28	11.355																			V3163-02
contains | ripples | nil	cruise	sand	44.93	3163	07:11:09:13	 	36.867874	-121.89698	2487902	5.59	04:56.0	Ventana	33.295	01:00:17:27	11.348																			V3163-02
contains | ripples | nil	cruise	sand	45.07	3163	07:11:13:13	http://search.mbari.org/ARCHIVE/frameGrabs/Ventana/images/3163/01_00_23_19.jpg	36.867878	-121.89696	2487905	5.59	05:00.0	Ventana	33.295	01:00:23:19	11.348																			V3163-02
contains | ripples | nil	cruise	sand	44.66	3163	07:12:07:26	 	36.867897	-121.896706	2487910	5.58	05:54.0	Ventana	33.294	01:01:17:20	11.348																			V3163-02
identity-reference | self | Diopatra?	cruise	Polychaeta	44.54	3163	07:12:39:25	 	36.867886	-121.896515	2487922	5.58	06:26.0	Ventana	33.294	01:01:49:23	11.348	Polychaeta					Animalia		Annelida									Eukaryota		V3163-02
identity-reference | self | Diopatra?	cruise	Polychaeta	44.42	3163	07:12:57:25	 	36.86787	-121.896416	2487928	5.58	06:45.0	Ventana	33.295	01:02:07:18	11.347	Polychaeta					Animalia		Annelida									Eukaryota		V3163-02
contains | ripples | nil	cruise	sand	44.58	3163	07:13:48:08	 	36.867786	-121.89611	2487935	5.58	07:35.0	Ventana	33.295	01:02:56:08	11.346																			V3163-02
contains | ripples | nil	cruise	sand	44.67	3163	07:14:02:08	http://search.mbari.org/ARCHIVE/frameGrabs/Ventana/images/3163/01_03_11_29.jpg	36.86776	-121.89603	2487940	5.58	07:49.0	Ventana	33.295	01:03:11:29	11.347																			V3163-02
contains | ripples | nil	cruise	sand	44.78	3163	07:14:48:06	 	36.86766	-121.89578	2487956	5.58	08:35.0	Ventana	33.294	01:03:56:25	11.348																			V3163-02
identity-reference | self | Diopatra?	cruise	Polychaeta	44.71	3163	07:15:20:05	 	36.867603	-121.895584	2487967	5.58	09:07.0	Ventana	33.295	01:04:29:12	11.347	Polychaeta					Animalia		Annelida									Eukaryota		V3163-02
identity-reference | self | Diopatra?	cruise	Polychaeta	44.51	3163	07:15:40:20	 	36.867577	-121.89547	2487973	5.58	09:27.0	Ventana	33.295	01:04:50:07	11.347	Polychaeta					Animalia		Annelida									Eukaryota		V3163-02
contains | ripples | nil	cruise	sand	44.87	3163	07:15:48:20	 	36.867565	-121.89543	2487977	5.58	09:35.0	Ventana	33.295	01:04:58:03	11.347																			V3163-02
comment | self | was buried - disturbed and came up off bottom	cruise	Myliobatiformes	44.54	3163	07:16:53:02	http://search.mbari.org/ARCHIVE/frameGrabs/Ventana/images/3163/01_06_01_05.jpg	36.867462	-121.89514	2488008	5.58	10:40.0	Ventana	33.294	01:06:01:05	11.348	Chondrichthyes					Animalia	Myliobatiformes	Chordata		Elasmobranchii				Vertebrata			Eukaryota		V3163-02
identity-reference | self | Diopatra?	cruise	Polychaeta	44.64	3163	07:17:43:01	 	36.867413	-121.89489	2488054	5.58	11:30.0	Ventana	33.294	01:06:53:11	11.348	Polychaeta					Animalia		Annelida									Eukaryota		V3163-02
contains | ripples | nil	cruise	sand	44.86	3163	07:17:53:01	 	36.867397	-121.89484	2488056	5.59	11:40.0	Ventana	33.294	01:07:01:23	11.349																			V3163-02
contains | ripples | nil	cruise	sand	44.48	3163	07:18:19:00	 	36.867363	-121.8947	2488063	5.59	12:06.0	Ventana	33.294	01:07:28:04	11.349																			V3163-02
contains | ripples | nil	cruise	sand	44.43	3163	07:20:05:11	 	36.8671	-121.894135	2488084	5.6	13:53.0	Ventana	33.292	01:09:14:08	11.352																			V3163-02
identity-reference | self | Diopatra?	cruise	Polychaeta	44.41	3163	07:20:57:25	 	36.867027	-121.89385	2488090	5.61	14:45.0	Ventana	33.289	01:10:06:19	11.355	Polychaeta					Animalia		Annelida									Eukaryota		V3163-02
contains | ripples | nil	cruise	sand	44.36	3163	07:21:27:24	 	36.86699	-121.89367	2488093	5.62	15:15.0	Ventana	33.287	01:10:37:06	11.358																			V3163-02
contains | ripples | nil	cruise	sand	44.3	3163	07:22:02:08	 	36.866943	-121.893425	2488096	5.62	15:49.0	Ventana	33.285	01:11:11:05	11.36																			V3163-02
contains | ripples | nil	cruise	sand	44.16	3163	07:22:50:07	 	36.866875	-121.89308	2488111	5.63	16:38.0	Ventana	33.284	01:11:59:23	11.361																			V3163-02
identity-certainty | self | maybe	cruise	Cancer	44.13	3163	07:23:10:21	 	36.866833	-121.89294	2488117	5.63	16:58.0	Ventana	33.284	01:12:19:22	11.362	Malacostraca	Cancridae	Cancer		Brachyura	Animalia	Decapoda	Arthropoda		Eumalacostraca						Cancroidea	Eukaryota	Eucarida	V3163-02
contains | ripples | nil	cruise	sand	44.2	3163	07:23:30:20	 	36.866795	-121.8928	2488120	5.63	17:18.0	Ventana	33.283	01:12:40:18	11.363																			V3163-02
contains | ripples | nil	cruise	sand	44.04	3163	07:25:15:02	 	36.86661	-121.892136	2488432	5.63	19:02.0	Ventana	33.284	01:14:24:11	11.362																			V3163-02
identity-reference | self | Diopatra?	cruise	Polychaeta	44.13	3163	07:25:31:02	 	36.866577	-121.89203	2488433	5.63	19:19.0	Ventana	33.284	01:14:39:15	11.362	Polychaeta					Animalia		Annelida									Eukaryota		V3163-02
identity-reference | self | Diopatra?	cruise	Polychaeta	43.97	3163	07:25:53:01	 	36.866528	-121.89189	2488434	5.64	19:41.0	Ventana	33.281	01:15:02:26	11.365	Polychaeta					Animalia		Annelida									Eukaryota		V3163-02
contains | ripples | nil	cruise	sand	43.83	3163	07:27:23:13	 	36.866333	-121.89139	2488438	5.64	21:11.0	Ventana	33.281	01:16:32:29	11.366																			V3163-02
contains | ripples | nil	cruise	sand	43.67	3163	07:31:22:21	 	36.86589	-121.88977	2488446	5.64	25:10.0	Ventana	33.281	01:20:31:04	11.366																			V3163-02
contains | ripples | nil	cruise	sand	43.23	3163	07:31:56:19	 	36.86581	-121.88957	2488447	5.65	25:45.0	Ventana	33.278	01:21:07:02	11.369																			V3163-02
contains | ripples | nil	cruise	sand	43.49	3163	07:32:45:03	 	36.865685	-121.889275	2488448	5.66	26:33.0	Ventana	33.277	01:21:54:28	11.371																			V3163-02
identity-reference | self | Diopatra?	cruise	Polychaeta	43.41	3163	07:33:27:02	 	36.865562	-121.888985	2488449	5.66	27:15.0	Ventana	33.277	01:22:36:18	11.371	Polychaeta					Animalia		Annelida									Eukaryota		V3163-02
contains | ripples | nil	cruise	sand	43.24	3163	07:34:03:01	 	36.86546	-121.88874	2488451	5.66	27:51.0	Ventana	33.276	01:23:12:25	11.372																			V3163-02
identity-reference | self | Diopatra?	cruise	Polychaeta	43.41	3163	07:34:43:14	 	36.86536	-121.88844	2488452	5.66	28:31.0	Ventana	33.275	01:23:52:16	11.372	Polychaeta					Animalia		Annelida									Eukaryota		V3163-02
identity-reference | self | Diopatra?	cruise	Polychaeta	43.23	3163	07:35:11:13	 	36.865307	-121.88824	2488454	5.66	28:59.0	Ventana	33.275	01:24:20:17	11.371	Polychaeta					Animalia		Annelida									Eukaryota		V3163-02
contains | ripples | nil	cruise	sand	42.93	3163	07:36:33:26	 	36.86519	-121.88767	2488457	5.66	30:22.0	Ventana	33.276	01:25:43:07	11.371																			V3163-02
contains | ripples | nil	cruise	sand	42.89	3163	07:37:03:25	 	36.865154	-121.88751	2488459	5.66	30:52.0	Ventana	33.276	01:26:14:02	11.371																			V3163-02
identity-reference | self | Diopatra?	cruise	Polychaeta	42.78	3163	07:38:00:08	 	36.8651	-121.88723	2488461	5.66	31:48.0	Ventana	33.276	01:27:09:20	11.37	Polychaeta					Animalia		Annelida									Eukaryota		V3163-02
identity-reference | self | Diopatra?	cruise	Polychaeta	42.88	3163	07:39:12:21	 	36.864925	-121.88664	2488465	5.67	33:01.0	Ventana	33.274	01:28:20:27	11.374	Polychaeta					Animalia		Annelida									Eukaryota		V3163-02
contains | ripples | nil	cruise	sand	42.55	3163	07:39:18:21	 	36.86491	-121.8866	2488466	5.67	33:07.0	Ventana	33.274	01:28:27:27	11.374																			V3163-02
contains | ripples | nil	cruise	sand	42.67	3163	07:40:18:19	 	36.864796	-121.88622	2488468	5.68	34:07.0	Ventana	33.272	01:29:27:22	11.377																			V3163-02
identity-reference | self | Diopatra?	cruise	Polychaeta	42.38	3163	07:40:34:19	 	36.86477	-121.88612	2488469	5.68	34:23.0	Ventana	33.272	01:29:44:01	11.376	Polychaeta					Animalia		Annelida									Eukaryota		V3163-02
contains | ripples | nil	cruise	sand	42.5	3163	07:41:17:03	 	36.864697	-121.885864	2488470	5.67	35:05.0	Ventana	33.271	01:30:25:08	11.377																			V3163-02
identity-reference | self | Diopatra?	cruise	Polychaeta	42.57	3163	07:41:51:01	 	36.86463	-121.885635	2488472	5.68	35:40.0	Ventana	33.271	01:31:01:12	11.376	Polychaeta					Animalia		Annelida									Eukaryota		V3163-02
contains | ripples | nil	cruise	sand	42.62	3163	07:41:55:01	 	36.86462	-121.88561	2488473	5.68	35:44.0	Ventana	33.271	01:31:05:12	11.376																			V3163-02
contains | ripples | nil	cruise	sand	42.41	3163	07:42:39:15	 	36.864517	-121.88532	2488474	5.67	36:28.0	Ventana	33.274	01:31:47:16	11.373																			V3163-02
identity-reference | self | Diopatra?	cruise	Polychaeta	42.41	3163	07:43:21:14	 	36.86441	-121.88503	2488477	5.68	37:10.0	Ventana	33.272	01:32:30:07	11.375	Polychaeta					Animalia		Annelida									Eukaryota		V3163-02
identity-reference | self | Diopatra?	cruise	Polychaeta	42.22	3163	07:44:23:26	 	36.86425	-121.8845	2488480	5.68	38:12.0	Ventana	33.271	01:33:32:16	11.376	Polychaeta					Animalia		Annelida									Eukaryota		V3163-02
contains | ripples | nil	cruise	sand	42.28	3163	07:44:39:26	 	36.864212	-121.88435	2488481	5.68	38:28.0	Ventana	33.271	01:33:48:20	11.377																			V3163-02
identity-certainty | self | maybe	cruise	Pycnopodia helianthoides	42.26	3163	07:44:45:26	 	36.864197	-121.8843	2488482	5.68	38:34.0	Ventana	33.271	01:33:54:11	11.377		Asteriidae	Pycnopodia			Animalia	Forcipulatida	Echinodermata	Pycnopodia helianthoides	Asteroidea							Eukaryota		V3163-02
contains | ripples | nil	cruise	sand	42.08	3163	07:45:03:25	 	36.86415	-121.88413	2488483	5.69	38:53.0	Ventana	33.27	01:34:14:05	11.377																			V3163-02
identity-reference | self | Diopatra?	cruise	Polychaeta	42.06	3163	07:46:00:09	 	36.864014	-121.88362	2488484	5.69	39:49.0	Ventana	33.268	01:35:08:14	11.38	Polychaeta					Animalia		Annelida									Eukaryota		V3163-02
contains | ripples | nil	cruise	sand	41.99	3163	07:46:56:07	 	36.863884	-121.883125	2488487	5.7	40:45.0	Ventana	33.266	01:36:05:27	11.381																			V3163-02
contains | ripples | nil	cruise	sand	41.62	3163	07:47:56:20	 	36.86375	-121.88258	2488488	5.72	41:45.0	Ventana	33.26	01:37:05:28	11.387																			V3163-02
identity-reference | self | Diopatra?	cruise	Polychaeta	41.75	3163	07:48:50:18	 	36.8636	-121.8821	2488490	5.75	42:40.0	Ventana	33.253	01:38:00:10	11.391	Polychaeta					Animalia		Annelida									Eukaryota		V3163-02
contains | ripples | nil	cruise	sand	41.65	3163	07:49:05:03	 	36.863552	-121.881966	2488491	5.75	42:54.0	Ventana	33.253	01:38:13:28	11.391																			V3163-02
identity-reference | self | Diopatra?	cruise	Polychaeta	41.57	3163	07:49:47:01	 	36.86342	-121.88161	2488492	5.76	43:36.0	Ventana	33.251	01:38:56:00	11.389	Polychaeta					Animalia		Annelida									Eukaryota		V3163-02
contains | ripples | nil	cruise	sand	41.57	3163	07:49:59:01	 	36.86338	-121.8815	2488493	5.78	43:48.0	Ventana	33.247	01:39:08:10	11.388																			V3163-02
contains | ripples | nil	cruise	sand	41.18	3163	07:51:37:13	 	36.863094	-121.880615	2488495	5.81	45:27.0	Ventana	33.24	01:40:47:21	11.386																			V3163-02
contains | ripples | nil	cruise	sand	41.16	3163	07:52:11:27	 	36.863007	-121.88031	2488496	5.82	46:01.0	Ventana	33.237	01:41:20:23	11.387																			V3163-02
contains | ripples | nil	cruise	sand	40.91	3163	07:52:45:26	http://search.mbari.org/ARCHIVE/frameGrabs/Ventana/images/3163/01_41_54_18.jpg	36.86292	-121.87999	2488498	5.83	46:35.0	Ventana	33.234	01:41:54:18	11.387																			V3163-02
contains | ripples | nil	cruise	sand	41.09	3163	07:53:19:25	 	36.86283	-121.879684	2488503	5.84	47:09.0	Ventana	33.23	01:42:29:19	11.389																			V3163-02
identity-reference | self | Diopatra?	cruise	Polychaeta	40.93	3163	07:53:27:25	 	36.86281	-121.87961	2488504	5.84	47:17.0	Ventana	33.23	01:42:36:29	11.389	Polychaeta					Animalia		Annelida									Eukaryota		V3163-02
contains | ripples | nil	cruise	sand	40.7	3163	07:54:18:08	 	36.862667	-121.87916	2488505	5.81	48:07.0	Ventana	33.236	01:43:28:14	11.387																			V3163-02
contains | ripples | nil	cruise	sand	40.73	3163	07:54:46:07	 	36.862576	-121.87891	2488506	5.86	48:36.0	Ventana	33.224	01:43:54:22	11.391																			V3163-02
contains | ripples | nil	cruise	sand	40.43	3163	07:56:12:20	 	36.86231	-121.87816	2488509	5.86	50:02.0	Ventana	33.227	01:45:22:15	11.391																			V3163-02
identity-reference | self | Diopatra?	cruise	Polychaeta	40.28	3163	07:56:44:19	 	36.862217	-121.877884	2488510	5.86	50:34.0	Ventana	33.225	01:45:53:03	11.391	Polychaeta					Animalia		Annelida									Eukaryota		V3163-02
identity-reference | self | Diopatra?	cruise	Polychaeta	40.02	3163	07:57:09:03	 	36.86215	-121.87766	2488511	5.88	50:58.0	Ventana	33.221	01:46:18:11	11.394	Polychaeta					Animalia		Annelida									Eukaryota		V3163-02
contains | ripples | nil	cruise	sand	40.07	3163	07:57:19:03	 	36.86212	-121.87758	2488512	5.88	51:08.0	Ventana	33.22	01:46:27:10	11.394																			V3163-02
contains | ripples | nil	cruise	sand	40.07	3163	07:58:15:01	http://search.mbari.org/ARCHIVE/frameGrabs/Ventana/images/3163/01_47_24_29.jpg	36.861965	-121.87709	2488514	5.88	52:05.0	Ventana	33.219	01:47:24:29	11.394																			V3163-02
identity-reference | self | Diopatra?	cruise	Polychaeta	39.9	3163	07:58:53:15	 	36.86186	-121.87676	2488516	5.88	52:43.0	Ventana	33.219	01:48:02:26	11.394	Polychaeta					Animalia		Annelida									Eukaryota		V3163-02
contains | ripples | nil	cruise	sand	39.54	3163	07:59:29:14	 	36.861767	-121.87646	2488517	5.89	53:19.0	Ventana	33.218	01:48:38:24	11.393																			V3163-02
contains | ripples | nil	cruise	sand	39.45	3163	08:00:01:12	 	36.86169	-121.87619	2488518	5.89	53:51.0	Ventana	33.218	01:49:10:16	11.393																			V3163-02
identity-reference | self | Diopatra?	cruise	Polychaeta	39.46	3163	08:00:29:27	 	36.861618	-121.875946	2488521	5.89	54:19.0	Ventana	33.219	01:49:39:08	11.393	Polychaeta					Animalia		Annelida									Eukaryota		V3163-02
identity-reference | self | Diopatra?	cruise	Polychaeta	39.3	3163	08:01:03:26	 	36.86153	-121.87566	2488523	5.89	54:53.0	Ventana	33.219	01:50:12:19	11.392	Polychaeta					Animalia		Annelida									Eukaryota		V3163-02
contains | ripples | nil	cruise	sand	39.02	3163	08:01:21:25	 	36.861485	-121.8755	2488526	5.89	55:12.0	Ventana	33.218	01:50:30:29	11.391																			V3163-02
identity-reference | self | Diopatra?	cruise	Polychaeta	39.25	3163	08:01:27:25	 	36.86147	-121.87545	2488527	5.89	55:18.0	Ventana	33.218	01:50:36:10	11.391	Polychaeta					Animalia		Annelida									Eukaryota		V3163-02
identity-reference | self | Diopatra?	cruise	Polychaeta	38.75	3163	08:02:28:08	 	36.86131	-121.87495	2488528	5.89	56:18.0	Ventana	33.218	01:51:37:17	11.391	Polychaeta					Animalia		Annelida									Eukaryota		V3163-02
contains | ripples | nil	cruise	sand	38.83	3163	08:02:58:07	 	36.861237	-121.8747	2488529	5.89	56:48.0	Ventana	33.219	01:52:07:04	11.391																			V3163-02
"identity-reference | self | Diopatra?, population-quantity | self | 999"	cruise	Polychaeta	38.81	3163	08:03:30:21	 	36.861168	-121.87444	2488530	5.89	57:20.0	Ventana	33.218	01:52:40:17	11.39	Polychaeta					Animalia		Annelida									Eukaryota		V3163-02
contains | ripples | nil	cruise	sand	38.65	3163	08:03:50:21	 	36.861122	-121.87426	2488531	5.89	57:40.0	Ventana	33.218	01:52:58:20	11.388																			V3163-02
contains | ripples | nil	cruise	sand	38.47	3163	08:04:06:20	 	36.861088	-121.87413	2488532	5.89	57:56.0	Ventana	33.218	01:53:16:21	11.388																			V3163-02
contains | ripples | nil	cruise	sand	38.19	3163	08:05:01:03	 	36.860973	-121.873665	2488534	5.89	58:51.0	Ventana	33.218	01:54:09:11	11.386																			V3163-02
contains | ripples | nil	cruise	sand	38.16	3163	08:05:11:03	 	36.86095	-121.87356	2488537	5.9	59:01.0	Ventana	33.217	01:54:19:15	11.386																			V3163-02
contains | ripples | nil	cruise	sand	37.95	3163	08:05:39:02	 	36.860893	-121.87334	2488538	5.9	59:29.0	Ventana	33.217	01:54:49:00	11.386																			V3163-02
"identity-reference | self | Diopatra?, population-quantity | self | 999"	cruise	Polychaeta	37.95	3163	08:05:53:02	http://search.mbari.org/ARCHIVE/frameGrabs/Ventana/images/3163/01_55_03_00.jpg	36.860867	-121.873215	2488539	5.9	59:43.0	Ventana	33.217	01:55:03:00	11.386	Polychaeta					Animalia		Annelida									Eukaryota		V3163-02
contains | ripples | nil	cruise	sand	37.95	3163	08:05:53:02	http://search.mbari.org/ARCHIVE/frameGrabs/Ventana/images/3163/01_55_03_00.jpg	36.860867	-121.873215	2488541	5.9	59:43.0	Ventana	33.217	01:55:03:00	11.386																			V3163-02
identity-reference | self | Diopatra?	cruise	Polychaeta	37.64	3163	08:07:03:15	 	36.860706	-121.87263	2488542	5.9	00:53.0	Ventana	33.217	01:56:12:10	11.381	Polychaeta					Animalia		Annelida									Eukaryota		V3163-02
contains | ripples | nil	cruise	sand	37.63	3163	08:07:09:15	 	36.860695	-121.87258	2488543	5.9	00:59.0	Ventana	33.217	01:56:19:12	11.381																			V3163-02
identity-reference | self | Diopatra?	cruise	Polychaeta	37.63	3163	08:07:45:14	 	36.860596	-121.872284	2488544	5.9	01:36.0	Ventana	33.217	01:56:55:16	11.379	Polychaeta					Animalia		Annelida									Eukaryota		V3163-02
contains | ripples | nil	cruise	sand	37.22	3163	08:08:25:27	 	36.86048	-121.871956	2488549	5.9	02:16.0	Ventana	33.217	01:57:35:00	11.375																			V3163-02
identity-reference | self | Diopatra?	cruise	Polychaeta	37.35	3163	08:08:37:27	 	36.860447	-121.871864	2488550	5.9	02:28.0	Ventana	33.217	01:57:47:28	11.37	Polychaeta					Animalia		Annelida									Eukaryota		V3163-02
identity-reference | self | Diopatra?	cruise	Polychaeta	37.17	3163	08:09:09:26	 	36.860355	-121.87162	2488551	5.91	03:00.0	Ventana	33.217	01:58:18:18	11.367	Polychaeta					Animalia		Annelida									Eukaryota		V3163-02
contains | ripples | nil	cruise	sand	37.15	3163	08:09:15:26	 	36.86034	-121.871574	2488552	5.91	03:06.0	Ventana	33.217	01:58:25:23	11.367																			V3163-02
identity-reference | self | Diopatra?	cruise	Polychaeta	37.15	3163	08:09:48:10	 	36.860245	-121.87132	2488553	5.91	03:38.0	Ventana	33.217	01:58:58:06	11.366	Polychaeta					Animalia		Annelida									Eukaryota		V3163-02
contains | ripples | nil	cruise	sand	36.9	3163	08:10:24:11	http://search.mbari.org/ARCHIVE/frameGrabs/Ventana/images/3163/01_59_29_28.jpg	36.860065	-121.87083	20023693	5.91	04:39.0	Ventana	33.218	01:59:29:28	11.364																			V3163-03
contains | ripples | nil	cruise	sand	35.15	3163	08:17:01:29	http://search.mbari.org/ARCHIVE/frameGrabs/Ventana/images/3163/02_06_07_01.jpg	36.85874	-121.86763	20023694	5.92	11:17.0	Ventana	33.218	02:06:07:01	11.356																			V3163-03
contains | ripples | nil	cruise	sand	36.92	3163	08:10:12:11	 	36.8601	-121.87093	2488554	5.91	04:26.0	Ventana	33.217	01:59:18:07	11.364																			V3163-03
identity-reference | self | Diopatra?	cruise	Polychaeta	36.87	3163	08:10:14:12	 	36.860092	-121.8709	2488555	5.91	04:29.0	Ventana	33.217	01:59:21:10	11.364	Polychaeta					Animalia		Annelida									Eukaryota		V3163-03
contains | ripples | nil	cruise	sand	36.63	3163	08:10:48:25	 	36.860004	-121.87062	2488558	5.91	05:03.0	Ventana	33.218	01:59:55:05	11.364																			V3163-03
identity-reference | self | Diopatra?	cruise	Polychaeta	36.56	3163	08:11:12:25	 	36.859943	-121.87041	2488559	5.91	05:27.0	Ventana	33.218	02:00:17:25	11.364	Polychaeta					Animalia		Annelida									Eukaryota		V3163-03
contains | ripples | nil	cruise	sand	36.04	3163	08:12:20:22	http://search.mbari.org/ARCHIVE/frameGrabs/Ventana/images/3163/02_01_27_04.jpg	36.859787	-121.869835	2488561	5.92	06:35.0	Ventana	33.217	02:01:27:04	11.362																			V3163-03
identity-reference | self | Diopatra?	cruise	Polychaeta	36.24	3163	08:13:09:06	 	36.85965	-121.869446	2488562	5.92	07:23.0	Ventana	33.217	02:02:15:27	11.36	Polychaeta					Animalia		Annelida									Eukaryota		V3163-03
identity-reference | self | Diopatra?	cruise	Polychaeta	36.07	3163	08:13:19:06	http://search.mbari.org/ARCHIVE/frameGrabs/Ventana/images/3163/02_02_25_12.jpg	36.85962	-121.86936	2488564	5.92	07:34.0	Ventana	33.217	02:02:25:12	11.36	Polychaeta					Animalia		Annelida									Eukaryota		V3163-03
contains | ripples | nil	cruise	sand	35.73	3163	08:14:05:19	 	36.85949	-121.868996	2488565	5.92	08:20.0	Ventana	33.218	02:03:12:03	11.359																			V3163-03
identity-reference | self | Diopatra?	cruise	Polychaeta	35.62	3163	08:14:37:18	 	36.859367	-121.86874	2488566	5.92	08:52.0	Ventana	33.217	02:03:42:22	11.358	Polychaeta					Animalia		Annelida									Eukaryota		V3163-03
contains | ripples | nil	cruise	sand	35.38	3163	08:14:47:18	 	36.85933	-121.86867	2488567	5.92	09:02.0	Ventana	33.218	02:03:53:06	11.358																			V3163-03
identity-reference | self | Diopatra?	cruise	Polychaeta	35.21	3163	08:15:35:16	 	36.859123	-121.8683	2488569	5.92	09:50.0	Ventana	33.218	02:04:41:17	11.357	Polychaeta					Animalia		Annelida									Eukaryota		V3163-03
contains | ripples | nil	cruise	sand	35.44	3163	08:15:50:01	 	36.859055	-121.86818	2488570	5.92	10:04.0	Ventana	33.218	02:04:54:24	11.356																			V3163-03
identity-reference | self | Diopatra?	cruise	Polychaeta	35.38	3163	08:16:38:00	 	36.858852	-121.86782	2488571	5.92	10:52.0	Ventana	33.217	02:05:44:02	11.357	Polychaeta					Animalia		Annelida									Eukaryota		V3163-03
contains | ripples | nil	cruise	sand	35.53	3163	08:16:47:29	 	36.858803	-121.86774	2488572	5.92	11:03.0	Ventana	33.218	02:05:53:13	11.357																			V3163-03
contains | ripples | nil	cruise	sand	35.21	3163	08:17:26:13	 	36.858643	-121.86744	2488573	5.92	11:41.0	Ventana	33.217	02:06:32:24	11.356																			V3163-03
identity-reference | self | Diopatra?	cruise	Polychaeta	35.39	3163	08:17:40:13	 	36.858578	-121.86732	2488574	5.92	11:55.0	Ventana	33.218	02:06:46:10	11.356	Polychaeta					Animalia		Annelida									Eukaryota		V3163-03
contains | ripples | nil	cruise	sand	35.08	3163	08:18:20:12	http://search.mbari.org/ARCHIVE/frameGrabs/Ventana/images/3163/02_07_26_03.jpg	36.85842	-121.867	2488576	5.91	12:35.0	Ventana	33.218	02:07:26:03	11.356																			V3163-03
identity-reference | self | Diopatra?	cruise	Polychaeta	34.89	3163	08:18:36:11	 	36.85836	-121.866875	2488578	5.91	12:51.0	Ventana	33.217	02:07:43:03	11.356	Polychaeta					Animalia		Annelida									Eukaryota		V3163-03
identity-reference | self | Diopatra?	cruise	Polychaeta	34.95	3163	08:19:24:25	 	36.858166	-121.866486	2488580	5.91	13:39.0	Ventana	33.216	02:08:31:21	11.356	Polychaeta					Animalia		Annelida									Eukaryota		V3163-03
contains | ripples | nil	cruise	sand	34.78	3163	08:20:14:23	 	36.857952	-121.866066	2488581	5.91	14:30.0	Ventana	33.216	02:09:21:21	11.355																			V3163-03
contains | ripples | nil	cruise	sand	34.74	3163	08:20:55:07	 	36.85779	-121.86574	2488582	5.9	15:10.0	Ventana	33.216	02:10:01:07	11.355																			V3163-03
identity-reference | self | Diopatra?	cruise	Polychaeta	34.43	3163	08:21:01:07	 	36.85777	-121.865685	2488583	5.9	15:16.0	Ventana	33.216	02:10:07:25	11.355	Polychaeta					Animalia		Annelida									Eukaryota		V3163-03
identity-reference | self | Diopatra?	cruise	Polychaeta	34.21	3163	08:22:47:18	 	36.8574	-121.86484	2488585	5.89	17:02.0	Ventana	33.214	02:11:53:16	11.354	Polychaeta					Animalia		Annelida									Eukaryota		V3163-03
identity-reference | self | Diopatra?	cruise	Polychaeta	33.65	3163	08:24:18:00	 	36.85706	-121.864105	2488590	5.89	18:33.0	Ventana	33.212	02:13:23:07	11.355	Polychaeta					Animalia		Annelida									Eukaryota		V3163-03
identity-reference | self | Diopatra?	cruise	Polychaeta	33.7	3163	08:24:55:29	 	36.85692	-121.863815	2488591	5.88	19:11.0	Ventana	33.21	02:14:02:08	11.36	Polychaeta					Animalia		Annelida									Eukaryota		V3163-03
contains | ripples | nil	cruise	sand	33.77	3163	08:25:28:14	http://search.mbari.org/ARCHIVE/frameGrabs/Ventana/images/3163/02_14_34_29.jpg	36.85679	-121.86357	2488595	5.88	19:43.0	Ventana	33.21	02:14:34:29	11.359																			V3163-03
identity-reference | self | Diopatra?	cruise	Polychaeta	33.43	3163	08:25:48:13	 	36.856705	-121.8634	2488596	5.88	20:03.0	Ventana	33.21	02:14:54:16	11.359	Polychaeta					Animalia		Annelida									Eukaryota		V3163-03
contains | ripples | nil	cruise	sand	33.24	3163	08:26:16:12	 	36.8566	-121.86319	2488597	5.87	20:31.0	Ventana	33.211	02:15:21:17	11.361																			V3163-03
contains | ripples | nil	cruise	sand	33.16	3163	08:27:28:25	 	36.85634	-121.862595	2488598	5.86	21:44.0	Ventana	33.213	02:16:35:18	11.367																			V3163-03
identity-reference | self | Diopatra?	cruise	Polychaeta	32.94	3163	08:27:36:24	 	36.85631	-121.86253	2488599	5.86	21:52.0	Ventana	33.213	02:16:43:19	11.367	Polychaeta					Animalia		Annelida									Eukaryota		V3163-03
identity-reference | self | Diopatra?	cruise	Polychaeta	32.51	3163	08:28:20:24	 	36.85615	-121.8622	2488600	5.86	22:36.0	Ventana	33.215	02:17:27:02	11.374	Polychaeta					Animalia		Annelida									Eukaryota		V3163-03
contains | ripples | nil	cruise	sand	32.62	3163	08:28:28:23	 	36.856125	-121.86214	2488601	5.86	22:44.0	Ventana	33.216	02:17:35:00	11.376																			V3163-03
identity-reference | self | Diopatra?	cruise	Polychaeta	32.69	3163	08:29:25:06	 	36.855923	-121.86171	2488602	5.85	23:40.0	Ventana	33.217	02:18:32:05	11.377	Polychaeta					Animalia		Annelida									Eukaryota		V3163-03
contains | ripples | nil	cruise	sand	32.53	3163	08:30:17:20	 	36.855724	-121.86133	2488603	5.86	24:33.0	Ventana	33.218	02:19:22:09	11.378																			V3163-03
identity-reference | self | Diopatra?	cruise	Polychaeta	32.34	3163	08:30:57:18	 	36.855556	-121.86104	2488604	5.86	25:13.0	Ventana	33.22	02:20:03:06	11.378	Polychaeta					Animalia		Annelida									Eukaryota		V3163-03
contains | ripples | nil	cruise	sand	32.38	3163	08:31:07:18	 	36.855515	-121.86097	2488605	5.86	25:23.0	Ventana	33.22	02:20:14:08	11.378																			V3163-03
identity-reference | self | Diopatra?	cruise	Polychaeta	31.85	3163	08:32:58:00	 	36.855095	-121.86018	2488606	5.85	27:13.0	Ventana	33.22	02:22:04:15	11.377	Polychaeta					Animalia		Annelida									Eukaryota		V3163-03
contains | ripples | nil	cruise	sand	31.79	3163	08:33:20:14	 	36.854946	-121.85983	2488609	5.84	27:36.0	Ventana	33.22	02:22:26:02	11.373																			V3163-03
contains | ripples | nil	cruise	sand	31.68	3163	08:34:20:13	 	36.854813	-121.859535	2488610	5.82	28:36.0	Ventana	33.219	02:23:25:21	11.366																			V3163-03
identity-reference | self | Diopatra?	cruise	Polychaeta	31.93	3163	08:34:58:11	 	36.854694	-121.859314	2488612	5.8	29:14.0	Ventana	33.219	02:24:04:04	11.36	Polychaeta					Animalia		Annelida									Eukaryota		V3163-03
"identity-reference | self | Diopatra?, population-quantity | self | 999"	cruise	Polychaeta	31.86	3163	08:35:30:26	 	36.85459	-121.85913	2488613	5.79	29:46.0	Ventana	33.218	02:24:35:26	11.356	Polychaeta					Animalia		Annelida									Eukaryota		V3163-03
contains | ripples | nil	cruise	sand	31.82	3163	08:35:58:25	 	36.85451	-121.85899	2488614	5.79	30:14.0	Ventana	33.22	02:25:05:06	11.361																			V3163-03
identity-reference | self | Diopatra?	cruise	Polychaeta	31.84	3163	08:36:24:25	 	36.854427	-121.85886	2488615	5.8	30:41.0	Ventana	33.219	02:25:31:15	11.365	Polychaeta					Animalia		Annelida									Eukaryota		V3163-03
contains | ripples | nil	cruise	sand	31.62	3163	08:36:38:24	 	36.854385	-121.85879	2488616	5.79	30:55.0	Ventana	33.219	02:25:43:27	11.362																			V3163-03
calibrated | self | lower 2 = 23 cm	launch	lasers	 	3163	 	http://search.mbari.org/ARCHIVE/frameGrabs/Ventana/images/3163/00_00_10_08.jpg	 	 	20023668	 	 	Ventana	 	00:00:10:08	 																			V3163-01
nil | nil | Start H transect A	starttransect	physical object	44.01	3163	06:33:02:04	http://search.mbari.org/ARCHIVE/frameGrabs/Ventana/images/3163/00_22_09_13.jpg	36.86861	-121.89657	20023676	5.57	26:18.0	Ventana	33.296	00:22:09:13	11.345																			V3163-01
nil | nil | tracking bad	endtransect	physical object	43.95	3163	06:37:45:10	http://search.mbari.org/ARCHIVE/frameGrabs/Ventana/images/3163/00_26_53_04.jpg	36.868343	-121.89604	20023677	5.57	31:02.0	Ventana	33.296	00:26:53:04	11.345																			V3163-01
nil | nil | continuation of transect A - station H	starttransect	physical object	44.44	3163	06:39:41:22	http://search.mbari.org/ARCHIVE/frameGrabs/Ventana/images/3163/00_28_48_01.jpg	36.868298	-121.8958	20023678	5.57	32:58.0	Ventana	33.296	00:28:48:01	11.346																			V3163-01
nil | nil | Start H transect B	starttransect	physical object	44.39	3163	06:56:46:05	http://search.mbari.org/ARCHIVE/frameGrabs/Ventana/images/3163/00_45_52_29.jpg	36.867687	-121.89589	20023681	5.57	50:03.0	Ventana	33.296	00:45:52:29	11.345																			V3163-01
nil | nil | water getting too murky	cruise	physical object	31.6	3163	08:38:23:05	http://search.mbari.org/ARCHIVE/frameGrabs/Ventana/images/3163/02_27_28_21.jpg	36.85413	-121.85834	20023695	5.79	32:39.0	Ventana	33.219	02:27:28:21	11.352																			V3163-03
 	stationary	ripples	46.41	3163	06:17:24:18	 	36.867172	-121.897804	2487233	5.55	10:39.0	Ventana	33.297	00:06:31:21	11.341																			V3163-01
 	cruise	Luidia foliolata	39.32	3163	08:01:07:25	http://search.mbari.org/ARCHIVE/frameGrabs/Ventana/images/3163/01_50_16_28.jpg	36.861523	-121.875626	2488525	5.89	54:57.0	Ventana	33.219	01:50:16:28	11.392		Luidiidae	Luidia			Animalia	Platyasterida	Echinodermata	Luidia foliolata	Asteroidea							Eukaryota		V3163-02
 	cruise	sand	44.54	3163	06:28:31:12	 	36.868214	-121.896935	2487263	5.57	21:47.0	Ventana	33.296	00:17:38:14	11.344																			V3163-01
 	transect	Ceriantharia	44.54	3163	06:59:28:16	 	36.867794	-121.8961	2487729	5.58	52:46.0	Ventana	33.295	00:48:36:12	11.347	Anthozoa					Animalia	Ceriantharia	Cnidaria		Ceriantipatharia							Eukaryota		V3163-01
 	transect	Pennatulacea	44.48	3163	06:57:58:04	 	36.86771	-121.89596	2487699	5.57	51:16.0	Ventana	33.295	00:47:05:27	11.346	Anthozoa					Animalia	Pennatulacea	Cnidaria		Octocorallia							Eukaryota		V3163-01
 	cruise	Pennatulacea	43.91	3163	07:26:01:00	 	36.866512	-121.891846	2488435	5.64	19:49.0	Ventana	33.281	01:15:11:09	11.365	Anthozoa					Animalia	Pennatulacea	Cnidaria		Octocorallia							Eukaryota		V3163-02
 	cruise	Laminariales	45.73	3163	06:20:10:28	 	36.867184	-121.8978	2487240	5.56	13:26.0	Ventana	33.297	00:09:17:08	11.343	Phaeophyceae					Chromista	Laminariales	Phaeophycophyta									Eukaryota		V3163-01
 	cruise	Ceriantharia	44.69	3163	07:13:23:24	 	36.86785	-121.89631	2487932	5.58	07:11.0	Ventana	33.295	01:02:33:11	11.347	Anthozoa					Animalia	Ceriantharia	Cnidaria		Ceriantipatharia							Eukaryota		V3163-02
 	cruise	Ceriantharia	44.09	3163	06:46:01:10	 	36.86775	-121.8952	2487563	5.58	39:18.0	Ventana	33.294	00:35:08:16	11.347	Anthozoa					Animalia	Ceriantharia	Cnidaria		Ceriantipatharia							Eukaryota		V3163-01
 	transect	Cancer	44.09	3163	06:41:22:03	 	36.868183	-121.89571	2487443	5.57	34:39.0	Ventana	33.296	00:30:28:26	11.345	Malacostraca	Cancridae	Cancer		Brachyura	Animalia	Decapoda	Arthropoda		Eumalacostraca						Cancroidea	Eukaryota	Eucarida	V3163-01
 	transect	Phyllospadix	44.56	3163	07:00:16:29	 	36.86785	-121.896194	2487766	5.58	53:34.0	Ventana	33.296	00:49:24:19	11.346		Zosteraceae	Phyllospadix			Plantae	Najadales										Eukaryota		V3163-01
 	descend	water	44.66	3163	06:13:29:10	 	36.867786	-121.89816	2487097	5.58	06:44.0	Ventana	33.295	00:02:35:21	11.347																			V3163-01
 	cruise	Laminariales	42.92	3163	07:36:55:26	 	36.86516	-121.88755	2488458	5.66	30:44.0	Ventana	33.276	01:26:04:24	11.371	Phaeophyceae					Chromista	Laminariales	Phaeophycophyta									Eukaryota		V3163-02
 	cruise	Phyllospadix	44.94	3163	07:12:01:11	 	36.867897	-121.89674	2487909	5.58	05:48.0	Ventana	33.295	01:01:11:14	11.347		Zosteraceae	Phyllospadix			Plantae	Najadales										Eukaryota		V3163-02
 	cruise	ripples	45.7	3163	06:23:17:22	 	36.867367	-121.89776	2487249	5.57	16:33.0	Ventana	33.296	00:12:25:02	11.345																			V3163-01
 	cruise	ripples	43.41	3163	07:32:12:19	 	36.865772	-121.88947	20023691	5.65	26:01.0	Ventana	33.278	01:21:21:02	11.368																			V3163-02
 	transect	Pennatulacea	43.93	3163	06:43:45:00	 	36.86806	-121.895386	2487482	5.57	37:01.0	Ventana	33.295	00:32:51:13	11.346	Anthozoa					Animalia	Pennatulacea	Cnidaria		Octocorallia							Eukaryota		V3163-01
 	transect	Ceriantharia	44.18	3163	06:39:57:22	 	36.868286	-121.89571	2487429	5.57	33:14.0	Ventana	33.296	00:29:04:25	11.345	Anthozoa					Animalia	Ceriantharia	Cnidaria		Ceriantipatharia							Eukaryota		V3163-01
 	cruise	Pennatulacea	44.58	3163	07:19:03:14	 	36.86727	-121.89447	2488075	5.6	12:50.0	Ventana	33.293	01:08:12:18	11.35	Anthozoa					Animalia	Pennatulacea	Cnidaria		Octocorallia							Eukaryota		V3163-02
 	cruise	sand	44.93	3163	06:26:14:17	 	36.86785	-121.897224	2487256	5.57	19:30.0	Ventana	33.295	00:15:21:22	11.344																			V3163-01
 	cruise	Pennatulacea	43.42	3163	07:31:06:21	 	36.86593	-121.88987	2488444	5.65	24:54.0	Ventana	33.28	01:20:14:24	11.367	Anthozoa					Animalia	Pennatulacea	Cnidaria		Octocorallia							Eukaryota		V3163-02
 	cruise	Phyllospadix	45	3163	07:11:19:13	 	36.867886	-121.896935	2487907	5.59	05:06.0	Ventana	33.295	01:00:29:22	11.348		Zosteraceae	Phyllospadix			Plantae	Najadales										Eukaryota		V3163-02
 	stationary	sand	46.39	3163	06:17:22:18	 	36.867176	-121.897804	2487231	5.55	10:37.0	Ventana	33.298	00:06:29:08	11.34																			V3163-01
 	cruise	Pennatulacea	42.72	3163	07:38:44:07	 	36.86507	-121.88713	2488463	5.67	32:33.0	Ventana	33.276	01:27:53:04	11.372	Anthozoa					Animalia	Pennatulacea	Cnidaria		Octocorallia							Eukaryota		V3163-02
 	transect	Phyllospadix	44.45	3163	06:59:26:16	 	36.86779	-121.8961	2487727	5.58	52:44.0	Ventana	33.295	00:48:32:25	11.347		Zosteraceae	Phyllospadix			Plantae	Najadales										Eukaryota		V3163-01
 	transect	Phyllospadix	44.22	3163	06:34:14:17	 	36.86853	-121.89649	2487351	5.57	27:31.0	Ventana	33.295	00:23:22:11	11.345		Zosteraceae	Phyllospadix			Plantae	Najadales										Eukaryota		V3163-01
 	cruise	Luidia foliolata	44.04	3163	07:25:15:02	 	36.86661	-121.892136	20023686	5.63	19:02.0	Ventana	33.284	01:14:23:15	11.362		Luidiidae	Luidia			Animalia	Platyasterida	Echinodermata	Luidia foliolata	Asteroidea							Eukaryota		V3163-02
 	cruise	Pennatulacea	37.31	3163	08:08:01:13	 	36.860554	-121.872154	2488546	5.9	01:52.0	Ventana	33.218	01:57:11:18	11.376	Anthozoa					Animalia	Pennatulacea	Cnidaria		Octocorallia							Eukaryota		V3163-02
 	transect	Phyllospadix	44.56	3163	07:00:16:29	 	36.86785	-121.896194	2487764	5.58	53:34.0	Ventana	33.296	00:49:23:18	11.346		Zosteraceae	Phyllospadix			Plantae	Najadales										Eukaryota		V3163-01
 	cruise	Laminariales	44.76	3163	07:13:05:24	 	36.867867	-121.89638	2487930	5.58	06:53.0	Ventana	33.295	01:02:15:20	11.347	Phaeophyceae					Chromista	Laminariales	Phaeophycophyta									Eukaryota		V3163-02
 	cruise	Pleuronectiformes	42.06	3163	07:46:16:08	 	36.86398	-121.883484	2488486	5.69	40:05.0	Ventana	33.267	01:35:26:04	11.381	Osteichthyes			Neopterygii		Animalia	Pleuronectiformes	Chordata		Actinopterygii				Vertebrata	Gnathostomata		Eukaryota	Acanthopterygii	V3163-02
 	cruise	Luidia foliolata	46.22	3163	06:15:18:07	 	36.867203	-121.8978	2487208	5.56	08:33.0	Ventana	33.297	00:04:26:00	11.343		Luidiidae	Luidia			Animalia	Platyasterida	Echinodermata	Luidia foliolata	Asteroidea							Eukaryota		V3163-01
 	cruise	Cancer	42.88	3163	07:35:31:13	 	36.865273	-121.88808	2488456	5.67	29:20.0	Ventana	33.276	01:24:40:11	11.372	Malacostraca	Cancridae	Cancer		Brachyura	Animalia	Decapoda	Arthropoda		Eumalacostraca						Cancroidea	Eukaryota	Eucarida	V3163-02
 	transect	Cancer	43.94	3163	06:33:04:04	http://search.mbari.org/ARCHIVE/frameGrabs/Ventana/images/3163/00_22_11_27.jpg	36.86861	-121.89657	2487298	5.57	26:20.0	Ventana	33.296	00:22:11:27	11.345	Malacostraca	Cancridae	Cancer		Brachyura	Animalia	Decapoda	Arthropoda		Eumalacostraca						Cancroidea	Eukaryota	Eucarida	V3163-01
 	cruise	Laminariales	44.67	3163	07:16:28:18	 	36.86749	-121.89526	2487983	5.58	10:16.0	Ventana	33.295	01:05:38:08	11.347	Phaeophyceae					Chromista	Laminariales	Phaeophycophyta									Eukaryota		V3163-02
 	cruise	Cancer	42.36	3163	07:44:07:12	 	36.864292	-121.884636	2488479	5.68	37:56.0	Ventana	33.271	01:33:16:04	11.377	Malacostraca	Cancridae	Cancer		Brachyura	Animalia	Decapoda	Arthropoda		Eumalacostraca						Cancroidea	Eukaryota	Eucarida	V3163-02
 	cruise	Laminariales	37.5	3163	08:08:15:28	 	36.860516	-121.87205	2488548	5.89	02:06.0	Ventana	33.218	01:57:24:16	11.376	Phaeophyceae					Chromista	Laminariales	Phaeophycophyta									Eukaryota		V3163-02
 	launch	lasers	 	3163	 	http://search.mbari.org/ARCHIVE/frameGrabs/Ventana/images/3163/00_01_53_05.jpg	 	 	20023670	 	 	Ventana	 	00:01:53:05	 																			V3163-01
 	cruise	Asteroidea	31.68	3163	08:33:06:00	http://search.mbari.org/ARCHIVE/frameGrabs/Ventana/images/3163/02_22_11_06.jpg	36.855064	-121.860115	2488608	5.85	27:22.0	Ventana	33.22	02:22:11:06	11.377						Animalia		Echinodermata		Asteroidea							Eukaryota		V3163-03
 	transect	Ceriantharia	44.57	3163	07:01:39:12	 	36.86793	-121.89643	2487810	5.58	54:57.0	Ventana	33.295	00:50:46:11	11.346	Anthozoa					Animalia	Ceriantharia	Cnidaria		Ceriantipatharia							Eukaryota		V3163-01
 	cruise	Ptilosarcus gurneyi	40.87	3163	07:53:03:25	 	36.86287	-121.87983	2488502	5.84	46:53.0	Ventana	33.232	01:42:13:14	11.388	Anthozoa	Pennatulidae	Ptilosarcus			Animalia	Pennatulacea	Cnidaria	Ptilosarcus gurneyi	Octocorallia			Subselliflorae				Eukaryota		V3163-02
 	cruise	Laminariales	43.57	3163	07:29:54:08	 	36.866043	-121.89022	2488442	5.65	23:42.0	Ventana	33.28	01:19:04:13	11.367	Phaeophyceae					Chromista	Laminariales	Phaeophycophyta									Eukaryota		V3163-02
 	transect	Phyllospadix	44.15	3163	06:33:10:04	 	36.868603	-121.89656	2487314	5.58	26:26.0	Ventana	33.296	00:22:17:10	11.345		Zosteraceae	Phyllospadix			Plantae	Najadales										Eukaryota		V3163-01
 	transect	Pennatulacea	44.16	3163	06:42:22:17	 	36.868103	-121.89561	2487462	5.57	35:39.0	Ventana	33.296	00:31:29:18	11.345	Anthozoa					Animalia	Pennatulacea	Cnidaria		Octocorallia							Eukaryota		V3163-01
 	cruise	Pennatulacea	43.91	3163	07:26:01:00	 	36.866512	-121.891846	20023688	5.64	19:49.0	Ventana	33.281	01:15:09:28	11.365	Anthozoa					Animalia	Pennatulacea	Cnidaria		Octocorallia							Eukaryota		V3163-02
 	transect	Ceriantharia	44.04	3163	06:44:28:28	 	36.86801	-121.89523	2487492	5.58	37:46.0	Ventana	33.295	00:33:37:04	11.347	Anthozoa					Animalia	Ceriantharia	Cnidaria		Ceriantipatharia							Eukaryota		V3163-01
 	cruise	Asteroidea	31.64	3163	08:34:40:12	 	36.85475	-121.85941	2488611	5.81	28:56.0	Ventana	33.22	02:23:45:29	11.367						Animalia		Echinodermata		Asteroidea							Eukaryota		V3163-03
 	cruise	Ceriantharia	44.33	3163	07:19:35:12	 	36.867184	-121.894295	2488078	5.6	13:23.0	Ventana	33.292	01:08:44:17	11.351	Anthozoa					Animalia	Ceriantharia	Cnidaria		Ceriantipatharia							Eukaryota		V3163-02
 	transect	Phyllospadix	43.96	3163	06:34:10:17	 	36.868538	-121.8965	2487349	5.57	27:26.0	Ventana	33.295	00:23:16:12	11.345		Zosteraceae	Phyllospadix			Plantae	Najadales										Eukaryota		V3163-01
 	cruise	Phyllospadix	33.91	3163	08:23:23:17	 	36.857258	-121.86455	2488588	5.89	17:39.0	Ventana	33.213	02:12:28:21	11.354		Zosteraceae	Phyllospadix			Plantae	Najadales										Eukaryota		V3163-03
 	stationary	sand	46.38	3163	06:18:35:01	 	36.86713	-121.89784	2487236	5.55	11:50.0	Ventana	33.297	00:07:41:15	11.341																			V3163-01
 	transect	Pennatulacea	44.23	3163	06:40:38:05	 	36.868248	-121.89577	2487439	5.57	33:54.0	Ventana	33.295	00:29:44:12	11.345	Anthozoa					Animalia	Pennatulacea	Cnidaria		Octocorallia							Eukaryota		V3163-01
 	cruise	Laminariales	40.39	3163	07:54:50:07	 	36.862564	-121.878876	2488507	5.87	48:40.0	Ventana	33.225	01:43:59:00	11.391	Phaeophyceae					Chromista	Laminariales	Phaeophycophyta									Eukaryota		V3163-02
 	transect	Pennatulacea	44.18	3163	06:35:02:16	 	36.868484	-121.89644	2487388	5.57	28:19.0	Ventana	33.296	00:24:10:18	11.344	Anthozoa					Animalia	Pennatulacea	Cnidaria		Octocorallia							Eukaryota		V3163-01
 	cruise	Pennatulacea	44.73	3163	07:16:12:19	 	36.86751	-121.89533	2487981	5.58	10:00.0	Ventana	33.295	01:05:22:19	11.347	Anthozoa					Animalia	Pennatulacea	Cnidaria		Octocorallia							Eukaryota		V3163-02
 	transect	Pennatulacea	44.07	3163	06:42:06:17	 	36.868122	-121.89564	2487455	5.57	35:23.0	Ventana	33.296	00:31:13:07	11.345	Anthozoa					Animalia	Pennatulacea	Cnidaria		Octocorallia							Eukaryota		V3163-01
 	cruise	Ptilosarcus gurneyi	41.06	3163	07:52:47:26	http://search.mbari.org/ARCHIVE/frameGrabs/Ventana/images/3163/01_41_57_12.jpg	36.86291	-121.879974	2488500	5.83	46:37.0	Ventana	33.234	01:41:57:12	11.387	Anthozoa	Pennatulidae	Ptilosarcus			Animalia	Pennatulacea	Cnidaria	Ptilosarcus gurneyi	Octocorallia			Subselliflorae				Eukaryota		V3163-02
 	transect	Pennatulacea	44.43	3163	07:00:48:28	 	36.8679	-121.89627	2487778	5.58	54:07.0	Ventana	33.296	00:49:56:07	11.346	Anthozoa					Animalia	Pennatulacea	Cnidaria		Octocorallia							Eukaryota		V3163-01
 	cruise	Laminariales	45.22	3163	06:25:06:04	 	36.867634	-121.89742	2487252	5.57	18:22.0	Ventana	33.296	00:14:13:07	11.344	Phaeophyceae					Chromista	Laminariales	Phaeophycophyta									Eukaryota		V3163-01
 	cruise	Ceriantharia	44.73	3163	07:17:15:02	 	36.867443	-121.89503	2488046	5.59	11:02.0	Ventana	33.294	01:06:24:06	11.348	Anthozoa					Animalia	Ceriantharia	Cnidaria		Ceriantipatharia							Eukaryota		V3163-02
 	transect	Phyllospadix	44.62	3163	06:59:06:16	 	36.867767	-121.89607	2487723	5.58	52:24.0	Ventana	33.295	00:48:13:10	11.346		Zosteraceae	Phyllospadix			Plantae	Najadales										Eukaryota		V3163-01
 	cruise	ripples	44.06	3163	07:26:21:15	 	36.866467	-121.89171	20023690	5.64	20:09.0	Ventana	33.281	01:15:29:28	11.366																			V3163-02
 	transect	Phyllospadix	43.91	3163	06:39:59:21	 	36.868286	-121.89572	2487430	5.57	33:16.0	Ventana	33.296	00:29:06:13	11.345		Zosteraceae	Phyllospadix			Plantae	Najadales										Eukaryota		V3163-01
 	cruise	Pennatulacea	44.71	3163	07:13:27:24	 	36.86785	-121.89629	2487933	5.58	07:15.0	Ventana	33.295	01:02:37:03	11.347	Anthozoa					Animalia	Pennatulacea	Cnidaria		Octocorallia							Eukaryota		V3163-02
 	cruise	ripples	44.91	3163	06:26:22:17	 	36.86797	-121.89717	2487257	5.57	19:38.0	Ventana	33.296	00:15:29:27	11.345																			V3163-01
 	transect	Ceriantharia	44.79	3163	07:03:51:23	 	36.86797	-121.89679	2487836	5.57	57:10.0	Ventana	33.296	00:52:58:08	11.346	Anthozoa					Animalia	Ceriantharia	Cnidaria		Ceriantipatharia							Eukaryota		V3163-01
 	transect	Ceriantharia	44.6	3163	07:01:45:12	 	36.86793	-121.896454	2487813	5.58	55:03.0	Ventana	33.295	00:50:52:12	11.346	Anthozoa					Animalia	Ceriantharia	Cnidaria		Ceriantipatharia							Eukaryota		V3163-01
 	cruise	Laminariales	44.95	3163	07:10:09:00	 	36.867878	-121.89723	2487896	5.58	03:56.0	Ventana	33.297	00:59:18:02	11.345	Phaeophyceae					Chromista	Laminariales	Phaeophycophyta									Eukaryota		V3163-02
 	cruise	Cancer	42.49	3163	07:43:05:14	 	36.864452	-121.885155	2488475	5.68	36:54.0	Ventana	33.272	01:32:15:03	11.375	Malacostraca	Cancridae	Cancer		Brachyura	Animalia	Decapoda	Arthropoda		Eumalacostraca						Cancroidea	Eukaryota	Eucarida	V3163-02
 	cruise	Pennatulacea	44.48	3163	07:12:49:25	 	36.867878	-121.89646	2487926	5.58	06:37.0	Ventana	33.294	01:01:59:27	11.348	Anthozoa					Animalia	Pennatulacea	Cnidaria		Octocorallia							Eukaryota		V3163-02
 	cruise	Laminariales	43.38	3163	07:31:14:21	 	36.865913	-121.889824	2488445	5.65	25:02.0	Ventana	33.28	01:20:23:04	11.367	Phaeophyceae					Chromista	Laminariales	Phaeophycophyta									Eukaryota		V3163-02
 	transect	Pennatulacea	44.67	3163	07:02:45:10	 	36.867947	-121.896614	2487829	5.58	56:03.0	Ventana	33.297	00:51:53:09	11.345	Anthozoa					Animalia	Pennatulacea	Cnidaria		Octocorallia							Eukaryota		V3163-01
 	transect	Ceriantharia	44.25	3163	06:35:28:29	 	36.868477	-121.89643	2487506	5.57	28:45.0	Ventana	33.297	00:24:35:03	11.344	Anthozoa					Animalia	Ceriantharia	Cnidaria		Ceriantipatharia							Eukaryota		V3163-01
 	cruise	Laminariales	44.29	3163	07:23:04:21	 	36.866848	-121.89299	2488115	5.63	16:52.0	Ventana	33.284	01:12:13:03	11.361	Phaeophyceae					Chromista	Laminariales	Phaeophycophyta									Eukaryota		V3163-02
 	transect	Ceriantharia	44.62	3163	07:02:05:11	 	36.867935	-121.89651	2487822	5.57	55:23.0	Ventana	33.296	00:51:12:29	11.345	Anthozoa					Animalia	Ceriantharia	Cnidaria		Ceriantipatharia							Eukaryota		V3163-01
 	transect	Gastropoda	44.3	3163	06:42:02:18	 	36.868126	-121.895645	2487453	5.57	35:19.0	Ventana	33.296	00:31:09:11	11.345	Gastropoda					Animalia		Mollusca									Eukaryota		V3163-01
 	transect	Phyllospadix	43.88	3163	06:43:46:29	 	36.86806	-121.89538	2487483	5.57	37:03.0	Ventana	33.295	00:32:53:26	11.346		Zosteraceae	Phyllospadix			Plantae	Najadales										Eukaryota		V3163-01
 	cruise	Ceriantharia	44.85	3163	07:12:25:26	 	36.86789	-121.8966	2487912	5.59	06:12.0	Ventana	33.295	01:01:34:27	11.348	Anthozoa					Animalia	Ceriantharia	Cnidaria		Ceriantipatharia							Eukaryota		V3163-02
 	transect	Phyllospadix	44.71	3163	07:00:18:29	 	36.867855	-121.89621	2487769	5.58	53:37.0	Ventana	33.296	00:49:26:04	11.346		Zosteraceae	Phyllospadix			Plantae	Najadales										Eukaryota		V3163-01
 	cruise	water	42.82	3163	06:15:46:06	 	36.867203	-121.8978	2487220	5.59	09:01.0	Ventana	33.291	00:04:53:13	11.355																			V3163-01
 	cruise	sand	45.91	3163	06:23:09:22	 	36.86735	-121.897766	2487248	5.57	16:25.0	Ventana	33.296	00:12:17:01	11.345																			V3163-01
 	transect	Ceriantharia	44.63	3163	07:01:25:12	 	36.867928	-121.896385	2487804	5.57	54:43.0	Ventana	33.296	00:50:32:28	11.346	Anthozoa					Animalia	Ceriantharia	Cnidaria		Ceriantipatharia							Eukaryota		V3163-01
 	transect	Ceriantharia	44.23	3163	06:42:04:18	 	36.868122	-121.895645	2487451	5.57	35:21.0	Ventana	33.296	00:31:11:28	11.345	Anthozoa					Animalia	Ceriantharia	Cnidaria		Ceriantipatharia							Eukaryota		V3163-01
 	cruise	Laminariales	43.9	3163	07:25:03:02	 	36.866634	-121.89221	2488134	5.63	18:50.0	Ventana	33.283	01:14:12:27	11.363	Phaeophyceae					Chromista	Laminariales	Phaeophycophyta									Eukaryota		V3163-02
 	transect	Phyllospadix	44.04	3163	06:43:33:00	 	36.86807	-121.895424	2487481	5.57	36:49.0	Ventana	33.295	00:32:40:20	11.346		Zosteraceae	Phyllospadix			Plantae	Najadales										Eukaryota		V3163-01
 	transect	Pennatulacea	43.94	3163	06:33:38:18	http://search.mbari.org/ARCHIVE/frameGrabs/Ventana/images/3163/00_22_45_23.jpg	36.868572	-121.89653	2487338	5.57	26:54.0	Ventana	33.296	00:22:45:23	11.344	Anthozoa					Animalia	Pennatulacea	Cnidaria		Octocorallia							Eukaryota		V3163-01
 	cruise	Ceriantharia	43.42	3163	07:33:57:01	 	36.86548	-121.88879	2488450	5.66	27:45.0	Ventana	33.276	01:23:07:03	11.372	Anthozoa					Animalia	Ceriantharia	Cnidaria		Ceriantipatharia							Eukaryota		V3163-02
 	cruise	sand	46.46	3163	06:14:49:23	 	36.867943	-121.89822	2487195	5.56	08:05.0	Ventana	33.296	00:03:57:22	11.345																			V3163-01
 	transect	Pennatulacea	44.26	3163	06:35:50:29	 	36.868443	-121.895905	2487405	5.57	29:07.0	Ventana	33.295	00:24:58:24	11.345	Anthozoa					Animalia	Pennatulacea	Cnidaria		Octocorallia							Eukaryota		V3163-01
 	transect	Ceriantharia	44.72	3163	07:03:39:23	 	36.867966	-121.89676	2487834	5.57	56:58.0	Ventana	33.296	00:52:46:19	11.345	Anthozoa					Animalia	Ceriantharia	Cnidaria		Ceriantipatharia							Eukaryota		V3163-01
 	cruise	ripples	42.11	3163	07:45:01:26	 	36.864155	-121.88415	20023692	5.68	38:51.0	Ventana	33.271	01:34:11:24	11.377																			V3163-02
 	cruise	Laminariales	34.45	3163	08:21:49:05	 	36.857597	-121.8653	2488584	5.9	16:04.0	Ventana	33.215	02:10:55:01	11.354	Phaeophyceae					Chromista	Laminariales	Phaeophycophyta									Eukaryota		V3163-03
 	cruise	Laminariales	43.69	3163	07:30:54:07	 	36.865955	-121.88994	2488443	5.65	24:42.0	Ventana	33.28	01:20:02:25	11.368	Phaeophyceae					Chromista	Laminariales	Phaeophycophyta									Eukaryota		V3163-02
 	transect	Phyllospadix	44.04	3163	06:34:54:16	 	36.86849	-121.89645	2487384	5.57	28:11.0	Ventana	33.296	00:24:01:17	11.344		Zosteraceae	Phyllospadix			Plantae	Najadales										Eukaryota		V3163-01
 	stationary	sand	45.7	3163	07:07:56:19	 	36.868023	-121.89739	2487887	5.57	01:43.0	Ventana	33.296	00:57:06:28	11.348																			V3163-02
 	cruise	Ceriantharia	43.84	3163	07:26:37:14	 	36.866444	-121.89162	2488436	5.64	20:25.0	Ventana	33.283	01:15:46:17	11.364	Anthozoa					Animalia	Ceriantharia	Cnidaria		Ceriantipatharia							Eukaryota		V3163-02
 	cruise	Phyllospadix	44.86	3163	07:15:06:06	 	36.867626	-121.895676	2487963	5.58	08:53.0	Ventana	33.295	01:04:15:16	11.347		Zosteraceae	Phyllospadix			Plantae	Najadales										Eukaryota		V3163-02
 	transect	Phyllospadix	44.56	3163	07:00:16:29	 	36.86785	-121.896194	2487767	5.58	53:34.0	Ventana	33.296	00:49:25:04	11.346		Zosteraceae	Phyllospadix			Plantae	Najadales										Eukaryota		V3163-01
 	cruise	Pennatulacea	41.78	3163	07:48:20:19	 	36.86369	-121.88237	2488489	5.73	42:09.0	Ventana	33.255	01:37:29:25	11.391	Anthozoa					Animalia	Pennatulacea	Cnidaria		Octocorallia							Eukaryota		V3163-02
 	transect	Ceriantharia	44.57	3163	06:58:16:18	 	36.86773	-121.895996	2487707	5.58	51:34.0	Ventana	33.296	00:47:24:08	11.346	Anthozoa					Animalia	Ceriantharia	Cnidaria		Ceriantipatharia							Eukaryota		V3163-01
 	cruise	Phyllospadix	40.3	3163	07:56:04:20	 	36.86233	-121.87823	2488508	5.86	49:54.0	Ventana	33.227	01:45:13:03	11.391		Zosteraceae	Phyllospadix			Plantae	Najadales										Eukaryota		V3163-02
 	cruise	Laminariales	42.45	3163	07:44:01:12	 	36.864307	-121.88469	2488478	5.68	37:50.0	Ventana	33.272	01:33:10:15	11.376	Phaeophyceae					Chromista	Laminariales	Phaeophycophyta									Eukaryota		V3163-02
 	cruise	ripples	41.63	3163	06:21:45:10	 	36.867264	-121.89778	2487246	5.57	15:01.0	Ventana	33.294	00:10:52:11	11.353																			V3163-01
 	cruise	Phyllospadix	34.99	3163	08:18:46:11	 	36.85832	-121.86679	2488579	5.91	13:01.0	Ventana	33.218	02:07:51:25	11.355		Zosteraceae	Phyllospadix			Plantae	Najadales										Eukaryota		V3163-03
 	transect	Pennatulacea	43.87	3163	06:44:14:28	 	36.86803	-121.89528	2487486	5.58	37:32.0	Ventana	33.295	00:33:22:11	11.347	Anthozoa					Animalia	Pennatulacea	Cnidaria		Octocorallia							Eukaryota		V3163-01
 	cruise	Laminariales	40.78	3163	07:52:55:26	 	36.862892	-121.8799	2488501	5.84	46:45.0	Ventana	33.232	01:42:05:16	11.388	Phaeophyceae					Chromista	Laminariales	Phaeophycophyta									Eukaryota		V3163-02
 	cruise	Laminariales	42.58	3163	07:41:35:02	 	36.864662	-121.88575	2488471	5.68	35:23.0	Ventana	33.272	01:30:45:02	11.375	Phaeophyceae					Chromista	Laminariales	Phaeophycophyta									Eukaryota		V3163-02
 	cruise	Luidia foliolata	36.8	3163	08:10:26:11	 	36.86006	-121.870804	2488556	5.91	04:41.0	Ventana	33.218	01:59:33:04	11.364		Luidiidae	Luidia			Animalia	Platyasterida	Echinodermata	Luidia foliolata	Asteroidea							Eukaryota		V3163-03
 	cruise	Laminariales	34.11	3163	08:22:55:18	 	36.85737	-121.86477	2488586	5.89	17:10.0	Ventana	33.213	02:12:01:17	11.354	Phaeophyceae					Chromista	Laminariales	Phaeophycophyta									Eukaryota		V3163-03
 	cruise	Cancer	43.61	3163	07:29:42:09	 	36.866096	-121.89045	2488441	5.65	23:30.0	Ventana	33.279	01:18:50:10	11.367	Malacostraca	Cancridae	Cancer		Brachyura	Animalia	Decapoda	Arthropoda		Eumalacostraca						Cancroidea	Eukaryota	Eucarida	V3163-02
 	transect	Laminariales	44.61	3163	07:03:21:24	 	36.86796	-121.89671	2487832	5.57	56:39.0	Ventana	33.297	00:52:28:17	11.345	Phaeophyceae					Chromista	Laminariales	Phaeophycophyta									Eukaryota		V3163-01
 	cruise	Pennatulacea	44.35	3163	06:46:59:23	 	36.867733	-121.89539	2487585	5.58	40:16.0	Ventana	33.296	00:36:07:06	11.346	Anthozoa					Animalia	Pennatulacea	Cnidaria		Octocorallia							Eukaryota		V3163-01
 	cruise	Pennatulacea	41.31	3163	07:50:53:14	 	36.863216	-121.88102	2488494	5.79	44:42.0	Ventana	33.244	01:40:03:05	11.386	Anthozoa					Animalia	Pennatulacea	Cnidaria		Octocorallia							Eukaryota		V3163-02
 	cruise	ripples	44.94	3163	07:09:51:00	http://search.mbari.org/ARCHIVE/frameGrabs/Ventana/images/3163/00_59_00_13.jpg	36.8679	-121.89728	20023685	5.58	03:38.0	Ventana	33.296	00:59:00:13	11.345																			V3163-02
 	cruise	Cancer	42.76	3163	07:38:56:07	 	36.864967	-121.88675	2488464	5.66	32:45.0	Ventana	33.276	01:28:06:14	11.371	Malacostraca	Cancridae	Cancer		Brachyura	Animalia	Decapoda	Arthropoda		Eumalacostraca						Cancroidea	Eukaryota	Eucarida	V3163-02
 	transect	Phyllospadix	44.14	3163	06:34:16:17	 	36.868526	-121.89649	2487352	5.57	27:33.0	Ventana	33.295	00:23:23:04	11.345		Zosteraceae	Phyllospadix			Plantae	Najadales										Eukaryota		V3163-01
 	cruise	Pycnopodia helianthoides	33.7	3163	08:24:55:29	http://search.mbari.org/ARCHIVE/frameGrabs/Ventana/images/3163/02_14_02_20.jpg	36.85692	-121.863815	2488593	5.88	19:11.0	Ventana	33.21	02:14:02:20	11.36		Asteriidae	Pycnopodia			Animalia	Forcipulatida	Echinodermata	Pycnopodia helianthoides	Asteroidea							Eukaryota		V3163-03
 	transect	Phyllospadix	44.55	3163	07:02:33:10	 	36.867943	-121.89658	2487825	5.58	55:51.0	Ventana	33.296	00:51:39:23	11.345		Zosteraceae	Phyllospadix			Plantae	Najadales										Eukaryota		V3163-01
 	cruise	Ptilosarcus gurneyi	37.47	3163	08:08:07:13	 	36.860535	-121.87211	2488547	5.89	01:58.0	Ventana	33.218	01:57:16:29	11.376	Anthozoa	Pennatulidae	Ptilosarcus			Animalia	Pennatulacea	Cnidaria	Ptilosarcus gurneyi	Octocorallia			Subselliflorae				Eukaryota		V3163-02
 	transect	Phyllospadix	43.89	3163	06:41:18:04	 	36.86819	-121.89572	2487442	5.57	34:35.0	Ventana	33.295	00:30:25:26	11.345		Zosteraceae	Phyllospadix			Plantae	Najadales										Eukaryota		V3163-01
 	transect	Phyllospadix	44.56	3163	07:00:16:29	 	36.86785	-121.896194	2487765	5.58	53:34.0	Ventana	33.296	00:49:24:04	11.346		Zosteraceae	Phyllospadix			Plantae	Najadales										Eukaryota		V3163-01
 	transect	Pennatulacea	43.93	3163	06:36:14:28	 	36.868435	-121.895515	2487412	5.57	29:31.0	Ventana	33.296	00:25:21:18	11.344	Anthozoa					Animalia	Pennatulacea	Cnidaria		Octocorallia							Eukaryota		V3163-01
 	transect	Phyllospadix	44.13	3163	06:34:36:16	 	36.868504	-121.89647	2487359	5.57	27:53.0	Ventana	33.296	00:23:43:29	11.344		Zosteraceae	Phyllospadix			Plantae	Najadales										Eukaryota		V3163-01
 	transect	Ceriantharia	44.22	3163	06:34:14:17	 	36.86853	-121.89649	2487502	5.57	27:31.0	Ventana	33.295	00:23:22:02	11.345	Anthozoa					Animalia	Ceriantharia	Cnidaria		Ceriantipatharia							Eukaryota		V3163-01
 	cruise	Pennatulacea	42.42	3163	07:43:11:14	 	36.864437	-121.88511	2488476	5.68	37:00.0	Ventana	33.272	01:32:20:21	11.375	Anthozoa					Animalia	Pennatulacea	Cnidaria		Octocorallia							Eukaryota		V3163-02
 	descend	water	45.36	3163	 	 	36.86776	-121.898155	2487094	5.58	06:26.0	Ventana	33.295	00:02:19:08	11.345																			V3163-01
 	transect	Ceriantharia	44.7	3163	07:00:22:29	 	36.867863	-121.89622	2487770	5.58	53:41.0	Ventana	33.295	00:49:30:22	11.346	Anthozoa					Animalia	Ceriantharia	Cnidaria		Ceriantipatharia							Eukaryota		V3163-01
 	transect	Ceriantharia	44.07	3163	06:43:18:15	 	36.868073	-121.89547	2487477	5.57	36:35.0	Ventana	33.295	00:32:26:23	11.346	Anthozoa					Animalia	Ceriantharia	Cnidaria		Ceriantipatharia							Eukaryota		V3163-01
 	cruise	benthos	46.25	3163	06:14:19:24	http://search.mbari.org/ARCHIVE/frameGrabs/Ventana/images/3163/00_03_25_18.jpg	36.867878	-121.89819	20023673	5.57	07:34.0	Ventana	33.295	00:03:25:18	11.347																			V3163-01
 	transect	Pennatulacea	44.67	3163	06:57:24:05	http://search.mbari.org/ARCHIVE/frameGrabs/Ventana/images/3163/00_46_30_14.jpg	36.86769	-121.895905	2487680	5.58	50:42.0	Ventana	33.296	00:46:30:14	11.346	Anthozoa					Animalia	Pennatulacea	Cnidaria		Octocorallia							Eukaryota		V3163-01
 	transect	Ceriantharia	44.22	3163	06:40:36:05	 	36.868248	-121.89577	2487537	5.57	33:52.0	Ventana	33.296	00:29:42:17	11.346	Anthozoa					Animalia	Ceriantharia	Cnidaria		Ceriantipatharia							Eukaryota		V3163-01
 	cruise	sand	43.2	3163	06:21:31:11	 	36.867252	-121.89778	2487244	5.56	14:47.0	Ventana	33.295	00:10:38:21	11.348																			V3163-01
 	cruise	Pennatulacea	44.78	3163	07:14:28:07	 	36.867702	-121.8959	2487950	5.58	08:15.0	Ventana	33.294	01:03:38:06	11.348	Anthozoa					Animalia	Pennatulacea	Cnidaria		Octocorallia							Eukaryota		V3163-02
 	transect	Gastropoda	44.3	3163	06:42:02:18	 	36.868126	-121.895645	2487454	5.57	35:19.0	Ventana	33.296	00:31:09:11	11.345	Gastropoda					Animalia		Mollusca									Eukaryota		V3163-01
 	transect	Pennatulacea	44.17	3163	06:35:13:00	 	36.86848	-121.89644	2487394	5.57	28:29.0	Ventana	33.296	00:24:19:15	11.344	Anthozoa					Animalia	Pennatulacea	Cnidaria		Octocorallia							Eukaryota		V3163-01
 	transect	Ceriantharia	44.01	3163	06:43:56:29	 	36.868053	-121.89534	2487484	5.57	37:13.0	Ventana	33.295	00:33:04:21	11.346	Anthozoa					Animalia	Ceriantharia	Cnidaria		Ceriantipatharia							Eukaryota		V3163-01
 	cruise	Pycnopodia helianthoides	43.9	3163	07:27:25:13	http://search.mbari.org/ARCHIVE/frameGrabs/Ventana/images/3163/01_16_35_20.jpg	36.86633	-121.89138	2488439	5.64	21:13.0	Ventana	33.281	01:16:35:20	11.366		Asteriidae	Pycnopodia			Animalia	Forcipulatida	Echinodermata	Pycnopodia helianthoides	Asteroidea							Eukaryota		V3163-02
 	transect	Ceriantharia	44.22	3163	06:37:19:11	http://search.mbari.org/ARCHIVE/frameGrabs/Ventana/images/3163/00_26_25_13.jpg	36.868355	-121.895996	2487424	5.57	30:35.0	Ventana	33.295	00:26:25:13	11.345	Anthozoa					Animalia	Ceriantharia	Cnidaria		Ceriantipatharia							Eukaryota		V3163-01
 	cruise	Ptilosarcus gurneyi	39.41	3163	08:00:49:26	 	36.86157	-121.87578	2488522	5.89	54:39.0	Ventana	33.219	01:49:59:25	11.392	Anthozoa	Pennatulidae	Ptilosarcus			Animalia	Pennatulacea	Cnidaria	Ptilosarcus gurneyi	Octocorallia			Subselliflorae				Eukaryota		V3163-02
 	transect	Phyllospadix	44.17	3163	06:40:07:21	 	36.86828	-121.895744	2487433	5.57	33:24.0	Ventana	33.296	00:29:15:26	11.345		Zosteraceae	Phyllospadix			Plantae	Najadales										Eukaryota		V3163-01
 	transect	Phyllospadix	43.87	3163	06:35:44:29	 	36.868443	-121.895996	2487403	5.57	29:01.0	Ventana	33.295	00:24:51:15	11.345		Zosteraceae	Phyllospadix			Plantae	Najadales										Eukaryota		V3163-01
 	cruise	ripples	46.46	3163	06:14:49:23	 	36.867943	-121.89822	2487200	5.56	08:05.0	Ventana	33.296	00:03:57:22	11.345																			V3163-01
 	cruise	Cancer	42.68	3163	07:38:46:07	 	36.865067	-121.88712	2488462	5.67	32:35.0	Ventana	33.276	01:27:55:17	11.372	Malacostraca	Cancridae	Cancer		Brachyura	Animalia	Decapoda	Arthropoda		Eumalacostraca						Cancroidea	Eukaryota	Eucarida	V3163-02
 	cruise	Pennatulacea	44.13	3163	07:25:31:02	 	36.866577	-121.89203	20023687	5.63	19:19.0	Ventana	33.284	01:14:40:14	11.362	Anthozoa					Animalia	Pennatulacea	Cnidaria		Octocorallia							Eukaryota		V3163-02
 	cruise	Asteroidea	37.63	3163	08:07:45:14	http://search.mbari.org/ARCHIVE/frameGrabs/Ventana/images/3163/01_56_54_06.jpg	36.860596	-121.872284	2488545	5.9	01:36.0	Ventana	33.217	01:56:54:06	11.379						Animalia		Echinodermata		Asteroidea							Eukaryota		V3163-02
 	transect	Pennatulacea	44.72	3163	07:04:17:22	 	36.86798	-121.896866	2487839	5.57	57:36.0	Ventana	33.296	00:53:24:23	11.345	Anthozoa					Animalia	Pennatulacea	Cnidaria		Octocorallia							Eukaryota		V3163-01
 	transect	Pennatulacea	44.23	3163	06:40:38:05	 	36.868248	-121.89577	2487440	5.57	33:54.0	Ventana	33.295	00:29:44:28	11.345	Anthozoa					Animalia	Pennatulacea	Cnidaria		Octocorallia							Eukaryota		V3163-01
 	transect	Phyllospadix	44.59	3163	07:00:12:29	 	36.867847	-121.89619	2487763	5.58	53:30.0	Ventana	33.296	00:49:19:21	11.346		Zosteraceae	Phyllospadix			Plantae	Najadales										Eukaryota		V3163-01
 	cruise	Laminariales	39.91	3163	07:58:27:16	 	36.86193	-121.87699	2488515	5.88	52:17.0	Ventana	33.22	01:47:37:08	11.394	Phaeophyceae					Chromista	Laminariales	Phaeophycophyta									Eukaryota		V3163-02
 	cruise	Pennatulacea	42.83	3163	07:35:29:13	 	36.865276	-121.88809	2488455	5.67	29:18.0	Ventana	33.276	01:24:38:13	11.372	Anthozoa					Animalia	Pennatulacea	Cnidaria		Octocorallia							Eukaryota		V3163-02
 	cruise	Pennatulacea	41.98	3163	07:46:08:09	 	36.863995	-121.88355	2488485	5.69	39:57.0	Ventana	33.267	01:35:16:09	11.381	Anthozoa					Animalia	Pennatulacea	Cnidaria		Octocorallia							Eukaryota		V3163-02
 	cruise	Cancer	45.15	3163	07:10:41:14	 	36.86787	-121.8971	2487899	5.58	04:28.0	Ventana	33.295	00:59:49:26	11.346	Malacostraca	Cancridae	Cancer		Brachyura	Animalia	Decapoda	Arthropoda		Eumalacostraca						Cancroidea	Eukaryota	Eucarida	V3163-02
 	cruise	Laminariales	36.81	3163	08:10:34:11	 	36.860043	-121.87074	2488557	5.91	04:49.0	Ventana	33.218	01:59:39:13	11.364	Phaeophyceae					Chromista	Laminariales	Phaeophycophyta									Eukaryota		V3163-03
 	cruise	Laminariales	33.9	3163	08:23:11:17	 	36.857304	-121.86464	2488587	5.89	17:27.0	Ventana	33.213	02:12:17:08	11.354	Phaeophyceae					Chromista	Laminariales	Phaeophycophyta									Eukaryota		V3163-03
 	stationary	ripples	46.63	3163	06:18:43:01	 	36.86713	-121.89784	2487237	5.55	11:58.0	Ventana	33.297	00:07:50:19	11.341																			V3163-01
 	cruise	Pycnopodia helianthoides	35.67	3163	08:15:19:17	 	36.859196	-121.86842	2488568	5.92	09:34.0	Ventana	33.217	02:04:25:20	11.358		Asteriidae	Pycnopodia			Animalia	Forcipulatida	Echinodermata	Pycnopodia helianthoides	Asteroidea							Eukaryota		V3163-03
 	transect	Gastropoda	44.22	3163	06:41:32:04	 	36.868168	-121.89569	2487445	5.57	34:49.0	Ventana	33.296	00:30:39:14	11.345	Gastropoda					Animalia		Mollusca									Eukaryota		V3163-01
 	cruise	Cancer	42.89	3163	07:39:40:20	 	36.864864	-121.88646	2488467	5.67	33:29.0	Ventana	33.274	01:28:49:17	11.374	Malacostraca	Cancridae	Cancer		Brachyura	Animalia	Decapoda	Arthropoda		Eumalacostraca						Cancroidea	Eukaryota	Eucarida	V3163-02
 	cruise	Pennatulacea	43.91	3163	07:27:17:13	 	36.866344	-121.89142	2488437	5.64	21:05.0	Ventana	33.281	01:16:26:00	11.366	Anthozoa					Animalia	Pennatulacea	Cnidaria		Octocorallia							Eukaryota		V3163-02
 	transect	Ceriantharia	44.22	3163	06:34:52:15	 	36.86849	-121.89645	2487505	5.57	28:09.0	Ventana	33.296	00:23:59:20	11.344	Anthozoa					Animalia	Ceriantharia	Cnidaria		Ceriantipatharia							Eukaryota		V3163-01
 	transect	Phyllospadix	44.71	3163	07:00:18:29	 	36.867855	-121.89621	2487768	5.58	53:37.0	Ventana	33.296	00:49:25:17	11.346		Zosteraceae	Phyllospadix			Plantae	Najadales										Eukaryota		V3163-01
 	cruise	Pycnopodia helianthoides	39.45	3163	08:00:01:12	http://search.mbari.org/ARCHIVE/frameGrabs/Ventana/images/3163/01_49_11_17.jpg	36.86169	-121.87619	2488520	5.89	53:51.0	Ventana	33.218	01:49:11:17	11.393		Asteriidae	Pycnopodia			Animalia	Forcipulatida	Echinodermata	Pycnopodia helianthoides	Asteroidea							Eukaryota		V3163-02
 	cruise	Cancer	44.49	3163	07:19:15:13	 	36.86724	-121.8944	2488077	5.6	13:02.0	Ventana	33.292	01:08:24:27	11.351	Malacostraca	Cancridae	Cancer		Brachyura	Animalia	Decapoda	Arthropoda		Eumalacostraca						Cancroidea	Eukaryota	Eucarida	V3163-02
 	cruise	sand	43.98	3163	07:26:13:15	 	36.866486	-121.89177	20023689	5.64	20:01.0	Ventana	33.282	01:15:22:28	11.365																			V3163-02
 	cruise	Phyllospadix	42.96	3163	07:37:29:24	 	36.86513	-121.887375	2488460	5.66	31:18.0	Ventana	33.275	01:26:39:25	11.372		Zosteraceae	Phyllospadix			Plantae	Najadales										Eukaryota		V3163-02
 	cruise	Pennatulacea	45.07	3163	06:26:34:16	 	36.867977	-121.89716	2487258	5.57	19:50.0	Ventana	33.296	00:15:42:18	11.345	Anthozoa					Animalia	Pennatulacea	Cnidaria		Octocorallia							Eukaryota		V3163-01
 	transect	Phyllospadix	44.25	3163	06:40:05:21	 	36.86828	-121.89574	2487431	5.57	33:22.0	Ventana	33.296	00:29:12:23	11.345		Zosteraceae	Phyllospadix			Plantae	Najadales										Eukaryota		V3163-01
 	cruise	benthos	46.65	3163	06:16:16:05	 	36.867195	-121.8978	2487228	5.57	09:31.0	Ventana	33.296	00:05:23:05	11.346																			V3163-01
 	cruise	Laminariales	43.38	3163	07:34:55:14	 	36.865334	-121.88835	2488453	5.67	28:43.0	Ventana	33.276	01:24:04:20	11.372	Phaeophyceae					Chromista	Laminariales	Phaeophycophyta									Eukaryota		V3163-02
 	transect	Phyllospadix	44.15	3163	06:42:34:16	 	36.868095	-121.895584	2487468	5.57	35:51.0	Ventana	33.296	00:31:41:13	11.345		Zosteraceae	Phyllospadix			Plantae	Najadales										Eukaryota		V3163-01
 	cruise	Laminariales	33.82	3163	08:23:46:01	 	36.857178	-121.86438	2488589	5.89	18:01.0	Ventana	33.212	02:12:52:06	11.354	Phaeophyceae					Chromista	Laminariales	Phaeophycophyta									Eukaryota		V3163-03
 	cruise	Pennatulacea	45.06	3163	07:10:26:29	 	36.86787	-121.89717	2487897	5.58	04:14.0	Ventana	33.297	00:59:35:14	11.345	Anthozoa					Animalia	Pennatulacea	Cnidaria		Octocorallia							Eukaryota		V3163-02
 	cruise	ripples	44.37	3163	06:28:41:12	 	36.868244	-121.89692	2487265	5.58	21:57.0	Ventana	33.296	00:17:47:19	11.345																			V3163-01
 	transect	Pennatulacea	44.16	3163	06:36:02:29	 	36.86844	-121.89569	2487408	5.57	29:19.0	Ventana	33.297	00:25:10:25	11.344	Anthozoa					Animalia	Pennatulacea	Cnidaria		Octocorallia							Eukaryota		V3163-01
comment | self | parallel to the cable; can be seen on radar and may be from grappling hook	cruise	track	586.93	3164	00:38:35:24	http://search.mbari.org/ARCHIVE/frameGrabs/Ventana/images/3164/00_38_36_10.jpg	36.770397	-122.19437	20023715	0.37	07:01.0	Ventana	34.309	00:38:36:10	5.363																			V3164-01
comment | self | parallel to the cable; can be seen on radar and may be from grappling hook	cruise	trench	587.56	3164	00:38:49:24	http://search.mbari.org/ARCHIVE/frameGrabs/Ventana/images/3164/00_38_50_09.jpg	36.770393	-122.19437	20023717	0.37	07:15.0	Ventana	34.311	00:38:50:09	5.366																			V3164-01
comment | self | parallel to the cable; can be seen on radar and may be from grappling hook	cruise	trench	587.37	3164	00:39:38:07	http://search.mbari.org/ARCHIVE/frameGrabs/Ventana/images/3164/00_39_39_08.jpg	36.770386	-122.19436	20023719	0.37	08:04.0	Ventana	34.311	00:39:39:08	5.349																			V3164-01
calibrated | self | 0	transect	lasers	 	3164	 	http://search.mbari.org/ARCHIVE/frameGrabs/Ventana/images/3164/00_01_11_08.jpg	 	 	2447849	 	 	Ventana	 	00:01:11:08	 																			V3164-01
perspective | self | distant	cruise	benthos	583.85	3164	00:31:46:07	 	36.77051	-122.193954	2447855	0.39	00:11.0	Ventana	34.305	00:31:47:05	5.393																			V3164-01
comment | self | MARS	cruise	trench	586.09	3164	00:32:48:20	http://search.mbari.org/ARCHIVE/frameGrabs/Ventana/images/3164/00_32_48_21.jpg	36.770523	-122.19407	20023711	0.39	01:14.0	Ventana	34.307	00:32:48:21	5.391																			V3164-01
population-quantity | self | 999	cruise	Chionoecetes tanneri	586.84	3164	00:38:19:24	 	36.770405	-122.19435	2447859	0.37	06:45.0	Ventana	34.31	00:38:19:26	5.361	Malacostraca	Majidae	Chionoecetes		Brachyura	Animalia	Decapoda	Arthropoda	Chionoecetes tanneri	Eumalacostraca						Majoidea	Eukaryota	Eucarida	V3164-01
population-quantity | self | 999	cruise	Allocentrotus fragilis	587.46	3164	00:39:16:08	 	36.77039	-122.194374	2447861	0.37	07:42.0	Ventana	34.311	00:39:16:13	5.353	Echinoidea	Strongylocentrotidae	Allocentrotus			Animalia	Echinoida	Echinodermata	Allocentrotus fragilis	Euechinoidea			Echinacea				Eukaryota		V3164-01
population-quantity | self | 999	cruise	Chionoecetes tanneri	587.48	3164	00:40:36:05	 	36.770367	-122.19423	2447862	0.37	09:02.0	Ventana	34.312	00:40:38:06	5.352	Malacostraca	Majidae	Chionoecetes		Brachyura	Animalia	Decapoda	Arthropoda	Chionoecetes tanneri	Eumalacostraca						Majoidea	Eukaryota	Eucarida	V3164-01
population-quantity | self | 999	cruise	Allocentrotus fragilis	587.69	3164	00:41:12:19	 	36.77037	-122.19415	2447863	0.37	09:38.0	Ventana	34.311	00:41:13:23	5.365	Echinoidea	Strongylocentrotidae	Allocentrotus			Animalia	Echinoida	Echinodermata	Allocentrotus fragilis	Euechinoidea			Echinacea				Eukaryota		V3164-01
population-quantity | self | 999	cruise	Halipteris californica	587.74	3164	00:41:30:19	 	36.77038	-122.19412	2447864	0.37	09:56.0	Ventana	34.31	00:41:31:04	5.363	Anthozoa	Halipteridae	Halipteris			Animalia	Pennatulacea	Cnidaria	Halipteris californica	Octocorallia			Subselliflorae				Eukaryota		V3164-01
"comment | self | re-start survey on cable, continuing ~100% filled trench"	cruise	physical object	587.3	3164	00:42:49:01	 	36.77043	-122.19412	2447872	0.37	11:15.0	Ventana	34.311	00:42:50:06	5.366																			V3164-01
population-quantity | self | 999	cruise	Chionoecetes tanneri	586.62	3164	00:43:09:01	 	36.770493	-122.19414	2447875	0.38	11:35.0	Ventana	34.309	00:43:10:11	5.378	Malacostraca	Majidae	Chionoecetes		Brachyura	Animalia	Decapoda	Arthropoda	Chionoecetes tanneri	Eumalacostraca						Majoidea	Eukaryota	Eucarida	V3164-01
population-quantity | self | 999	cruise	Umbellula lindahli	586.02	3164	00:43:23:00	 	36.77054	-122.19415	2447879	0.38	11:49.0	Ventana	34.309	00:43:24:01	5.382	Anthozoa	Umbellulidae	Umbellula			Animalia	Pennatulacea	Cnidaria	Umbellula lindahli	Octocorallia			Sessiliflorae				Eukaryota		V3164-01
"population-quantity | self | 999, contains | Asteronyx | nil"	cruise	Halipteris californica	585.74	3164	00:43:31:00	 	36.77057	-122.19416	2447882	0.37	11:57.0	Ventana	34.309	00:43:31:13	5.376	Anthozoa	Halipteridae	Halipteris			Animalia	Pennatulacea	Cnidaria	Halipteris californica	Octocorallia			Subselliflorae				Eukaryota		V3164-01
population-quantity | self | 999	cruise	Allocentrotus fragilis	584.59	3164	00:44:03:14	 	36.77069	-122.1942	2447891	0.38	12:29.0	Ventana	34.307	00:44:04:15	5.401	Echinoidea	Strongylocentrotidae	Allocentrotus			Animalia	Echinoida	Echinodermata	Allocentrotus fragilis	Euechinoidea			Echinacea				Eukaryota		V3164-01
population-quantity | self | 999	cruise	Allocentrotus fragilis	584.06	3164	00:44:17:13	 	36.77075	-122.19422	2447899	0.38	12:43.0	Ventana	34.307	00:44:17:05	5.4	Echinoidea	Strongylocentrotidae	Allocentrotus			Animalia	Echinoida	Echinodermata	Allocentrotus fragilis	Euechinoidea			Echinacea				Eukaryota		V3164-01
population-quantity | self | 999	cruise	Allocentrotus fragilis	583.77	3164	00:44:27:13	 	36.770786	-122.194244	2447902	0.38	12:53.0	Ventana	34.307	00:44:28:00	5.391	Echinoidea	Strongylocentrotidae	Allocentrotus			Animalia	Echinoida	Echinodermata	Allocentrotus fragilis	Euechinoidea			Echinacea				Eukaryota		V3164-01
population-quantity | self | 999	cruise	Halipteris californica	582.78	3164	00:44:51:12	 	36.77088	-122.194275	2447908	0.38	13:17.0	Ventana	34.307	00:44:52:15	5.399	Anthozoa	Halipteridae	Halipteris			Animalia	Pennatulacea	Cnidaria	Halipteris californica	Octocorallia			Subselliflorae				Eukaryota		V3164-01
population-quantity | self | 999	cruise	Allocentrotus fragilis	582.49	3164	00:44:57:12	 	36.770905	-122.19428	2447910	0.38	13:23.0	Ventana	34.306	00:44:58:00	5.402	Echinoidea	Strongylocentrotidae	Allocentrotus			Animalia	Echinoida	Echinodermata	Allocentrotus fragilis	Euechinoidea			Echinacea				Eukaryota		V3164-01
population-quantity | self | 999	cruise	Allocentrotus fragilis	581.2	3164	00:45:25:27	 	36.770996	-122.194305	2447942	0.38	13:52.0	Ventana	34.307	00:45:26:26	5.398	Echinoidea	Strongylocentrotidae	Allocentrotus			Animalia	Echinoida	Echinodermata	Allocentrotus fragilis	Euechinoidea			Echinacea				Eukaryota		V3164-01
population-quantity | self | 999	cruise	Halipteris californica	579.96	3164	00:46:43:24	 	36.77119	-122.19431	2447943	0.38	15:10.0	Ventana	34.305	00:46:45:18	5.41	Anthozoa	Halipteridae	Halipteris			Animalia	Pennatulacea	Cnidaria	Halipteris californica	Octocorallia			Subselliflorae				Eukaryota		V3164-01
population-quantity | self | 999	cruise	Allocentrotus fragilis	579.07	3164	00:47:06:09	 	36.771267	-122.19431	2447946	0.38	15:32.0	Ventana	34.306	00:47:06:05	5.41	Echinoidea	Strongylocentrotidae	Allocentrotus			Animalia	Echinoida	Echinodermata	Allocentrotus fragilis	Euechinoidea			Echinacea				Eukaryota		V3164-01
population-quantity | self | 999	cruise	Halipteris californica	576.85	3164	00:47:52:07	 	36.771435	-122.19429	2447949	0.38	16:18.0	Ventana	34.305	00:47:52:10	5.418	Anthozoa	Halipteridae	Halipteris			Animalia	Pennatulacea	Cnidaria	Halipteris californica	Octocorallia			Subselliflorae				Eukaryota		V3164-01
population-quantity | self | 999	cruise	Allocentrotus fragilis	576.46	3164	00:48:04:07	 	36.771484	-122.19426	2447950	0.38	16:30.0	Ventana	34.304	00:48:05:15	5.421	Echinoidea	Strongylocentrotidae	Allocentrotus			Animalia	Echinoida	Echinodermata	Allocentrotus fragilis	Euechinoidea			Echinacea				Eukaryota		V3164-01
population-quantity | self | 999	cruise	Halipteris californica	574.55	3164	00:48:42:20	 	36.771713	-122.19431	2447953	0.38	17:09.0	Ventana	34.304	00:48:42:08	5.427	Anthozoa	Halipteridae	Halipteris			Animalia	Pennatulacea	Cnidaria	Halipteris californica	Octocorallia			Subselliflorae				Eukaryota		V3164-01
population-quantity | self | 999	cruise	Allocentrotus fragilis	574.02	3164	00:48:56:20	 	36.77179	-122.194336	2447955	0.39	17:23.0	Ventana	34.302	00:48:57:10	5.432	Echinoidea	Strongylocentrotidae	Allocentrotus			Animalia	Echinoida	Echinodermata	Allocentrotus fragilis	Euechinoidea			Echinacea				Eukaryota		V3164-01
identity-certainty | self | maybe	cruise	Bothrocara	573.09	3164	00:49:18:19	 	36.771893	-122.19437	2447959	0.39	17:45.0	Ventana	34.303	00:49:19:21	5.429	Osteichthyes	Zoarcidae	Bothrocara	Neopterygii		Animalia	Perciformes	Chordata		Actinopterygii			Zoarcoidei	Vertebrata	Gnathostomata		Eukaryota	Acanthopterygii	V3164-01
population-quantity | self | 999	cruise	Halipteris californica	572.49	3164	00:49:30:19	 	36.77195	-122.19438	2447961	0.39	17:57.0	Ventana	34.304	00:49:30:25	5.425	Anthozoa	Halipteridae	Halipteris			Animalia	Pennatulacea	Cnidaria	Halipteris californica	Octocorallia			Subselliflorae				Eukaryota		V3164-01
population-quantity | self | 999	cruise	Allocentrotus fragilis	572.32	3164	00:49:34:19	 	36.771973	-122.19439	2447962	0.39	18:01.0	Ventana	34.304	00:49:36:07	5.425	Echinoidea	Strongylocentrotidae	Allocentrotus			Animalia	Echinoida	Echinodermata	Allocentrotus fragilis	Euechinoidea			Echinacea				Eukaryota		V3164-01
population-quantity | self | 999	cruise	Allocentrotus fragilis	571.49	3164	00:49:54:18	 	36.772083	-122.19441	2447964	0.39	18:21.0	Ventana	34.303	00:49:56:12	5.43	Echinoidea	Strongylocentrotidae	Allocentrotus			Animalia	Echinoida	Echinodermata	Allocentrotus fragilis	Euechinoidea			Echinacea				Eukaryota		V3164-01
population-quantity | self | 999	cruise	Halipteris californica	570.55	3164	00:50:15:03	 	36.772182	-122.19445	2447966	0.38	18:41.0	Ventana	34.303	00:50:15:05	5.43	Anthozoa	Halipteridae	Halipteris			Animalia	Pennatulacea	Cnidaria	Halipteris californica	Octocorallia			Subselliflorae				Eukaryota		V3164-01
population-quantity | self | 999	cruise	Ceriantharia sp. 1	569.56	3164	00:50:41:01	 	36.77231	-122.19447	2447968	0.39	19:07.0	Ventana	34.304	00:50:42:19	5.432	Anthozoa					Animalia	Ceriantharia	Cnidaria		Ceriantipatharia							Eukaryota		V3164-01
population-quantity | self | 999	cruise	Ceriantharia sp. 1	568.3	3164	00:51:17:01	 	36.772453	-122.19448	2447973	0.39	19:43.0	Ventana	34.301	00:51:18:28	5.441	Anthozoa					Animalia	Ceriantharia	Cnidaria		Ceriantipatharia							Eukaryota		V3164-01
population-quantity | self | 999	cruise	Halipteris californica	566.93	3164	00:51:59:14	 	36.77262	-122.19447	2447978	0.39	20:26.0	Ventana	34.301	00:52:00:20	5.44	Anthozoa	Halipteridae	Halipteris			Animalia	Pennatulacea	Cnidaria	Halipteris californica	Octocorallia			Subselliflorae				Eukaryota		V3164-01
population-quantity | self | 999	cruise	Allocentrotus fragilis	566.57	3164	00:52:11:14	 	36.77267	-122.194466	2447980	0.39	20:38.0	Ventana	34.303	00:52:12:03	5.441	Echinoidea	Strongylocentrotidae	Allocentrotus			Animalia	Echinoida	Echinodermata	Allocentrotus fragilis	Euechinoidea			Echinacea				Eukaryota		V3164-01
population-quantity | self | 999	cruise	Ceriantharia sp. 1	565.98	3164	00:52:27:13	 	36.77273	-122.194466	2447982	0.39	20:54.0	Ventana	34.301	00:52:28:06	5.444	Anthozoa					Animalia	Ceriantharia	Cnidaria		Ceriantipatharia							Eukaryota		V3164-01
population-quantity | self | 999	cruise	Allocentrotus fragilis	565.32	3164	00:52:47:13	 	36.7728	-122.194466	2447983	0.39	21:14.0	Ventana	34.3	00:52:48:27	5.448	Echinoidea	Strongylocentrotidae	Allocentrotus			Animalia	Echinoida	Echinodermata	Allocentrotus fragilis	Euechinoidea			Echinacea				Eukaryota		V3164-01
population-quantity | self | 999	cruise	Halipteris californica	562.96	3164	00:54:19:25	 	36.77309	-122.19452	2447990	0.39	22:46.0	Ventana	34.3	00:54:21:02	5.45	Anthozoa	Halipteridae	Halipteris			Animalia	Pennatulacea	Cnidaria	Halipteris californica	Octocorallia			Subselliflorae				Eukaryota		V3164-01
population-quantity | self | 999	cruise	Ceriantharia sp. 1	562.62	3164	00:54:49:24	 	36.773182	-122.19451	2447992	0.39	23:16.0	Ventana	34.3	00:54:50:29	5.452	Anthozoa					Animalia	Ceriantharia	Cnidaria		Ceriantipatharia							Eukaryota		V3164-01
population-quantity | self | 999	cruise	Halipteris californica	560.34	3164	00:55:58:07	 	36.773483	-122.19451	2447997	0.39	24:25.0	Ventana	34.302	00:55:59:21	5.444	Anthozoa	Halipteridae	Halipteris			Animalia	Pennatulacea	Cnidaria	Halipteris californica	Octocorallia			Subselliflorae				Eukaryota		V3164-01
population-quantity | self | 999	cruise	Halipteris californica	558.54	3164	00:56:48:20	 	36.773735	-122.19454	2448001	0.39	25:15.0	Ventana	34.301	00:56:49:01	5.443	Anthozoa	Halipteridae	Halipteris			Animalia	Pennatulacea	Cnidaria	Halipteris californica	Octocorallia			Subselliflorae				Eukaryota		V3164-01
population-quantity | self | 999	cruise	Ceriantharia sp. 1	557.73	3164	00:57:10:19	 	36.773838	-122.19456	2448002	0.39	25:37.0	Ventana	34.302	00:57:11:29	5.445	Anthozoa					Animalia	Ceriantharia	Cnidaria		Ceriantipatharia							Eukaryota		V3164-01
mating | nil | nil	cruise	Chionoecetes tanneri	557.07	3164	00:57:32:19	 	36.77393	-122.19458	2448003	0.39	25:59.0	Ventana	34.301	00:57:34:13	5.446	Malacostraca	Majidae	Chionoecetes		Brachyura	Animalia	Decapoda	Arthropoda	Chionoecetes tanneri	Eumalacostraca						Majoidea	Eukaryota	Eucarida	V3164-01
population-quantity | self | 999	cruise	Halipteris californica	553.77	3164	01:00:09:14	 	36.7744	-122.1947	2448011	0.39	28:36.0	Ventana	34.301	01:00:10:14	5.449	Anthozoa	Halipteridae	Halipteris			Animalia	Pennatulacea	Cnidaria	Halipteris californica	Octocorallia			Subselliflorae				Eukaryota		V3164-01
"comment | self | start: cable buried, trench filled, very low disturbance"	cruise	physical object	552.79	3164	01:00:35:13	 	36.774517	-122.19473	2448013	0.39	29:02.0	Ventana	34.299	01:00:37:09	5.454																			V3164-01
population-quantity | self | 999	cruise	Halipteris californica	550.75	3164	01:01:33:26	 	36.774788	-122.19477	2448017	0.39	30:00.0	Ventana	34.299	01:01:34:29	5.457	Anthozoa	Halipteridae	Halipteris			Animalia	Pennatulacea	Cnidaria	Halipteris californica	Octocorallia			Subselliflorae				Eukaryota		V3164-01
population-quantity | self | 999	cruise	Allocentrotus fragilis	548.09	3164	 	 	36.77518	-122.19482	2448047	0.39	31:33.0	Ventana	34.298	01:03:06:03	5.465	Echinoidea	Strongylocentrotidae	Allocentrotus			Animalia	Echinoida	Echinodermata	Allocentrotus fragilis	Euechinoidea			Echinacea				Eukaryota		V3164-01
population-quantity | self | 999	cruise	Allocentrotus fragilis	543.43	3164	01:05:01:16	 	36.77583	-122.194916	2448201	0.39	34:24.0	Ventana	34.296	01:05:06:06	5.475	Echinoidea	Strongylocentrotidae	Allocentrotus			Animalia	Echinoida	Echinodermata	Allocentrotus fragilis	Euechinoidea			Echinacea				Eukaryota		V3164-02
mating | nil | nil	cruise	Chionoecetes tanneri	541.22	3164	01:06:57:28	 	36.77619	-122.194954	2448208	0.39	36:20.0	Ventana	34.296	01:07:01:26	5.476	Malacostraca	Majidae	Chionoecetes		Brachyura	Animalia	Decapoda	Arthropoda	Chionoecetes tanneri	Eumalacostraca						Majoidea	Eukaryota	Eucarida	V3164-02
identity-certainty | self | maybe	cruise	Anthoptilum grandiflorum	537.61	3164	01:09:38:23	 	36.776737	-122.19502	2448240	0.4	39:01.0	Ventana	34.294	01:09:42:26	5.488	Anthozoa	Anthoptilidae	Anthoptilum			Animalia	Pennatulacea	Cnidaria	Anthoptilum grandiflorum	Octocorallia			Sessiliflorae				Eukaryota		V3164-02
population-quantity | self | 999	cruise	Allocentrotus fragilis	535.64	3164	01:11:07:05	 	36.777073	-122.19506	2448252	0.4	40:30.0	Ventana	34.292	01:11:12:08	5.5	Echinoidea	Strongylocentrotidae	Allocentrotus			Animalia	Echinoida	Echinodermata	Allocentrotus fragilis	Euechinoidea			Echinacea				Eukaryota		V3164-02
population-quantity | self | 999	cruise	Allocentrotus fragilis	535.07	3164	01:11:27:04	 	36.77716	-122.19506	2448256	0.4	40:50.0	Ventana	34.294	01:11:32:02	5.498	Echinoidea	Strongylocentrotidae	Allocentrotus			Animalia	Echinoida	Echinodermata	Allocentrotus fragilis	Euechinoidea			Echinacea				Eukaryota		V3164-02
population-quantity | self | 999	cruise	Allocentrotus fragilis	530.32	3164	01:14:37:29	 	36.77792	-122.195015	2448277	0.4	44:01.0	Ventana	34.291	01:14:41:23	5.513	Echinoidea	Strongylocentrotidae	Allocentrotus			Animalia	Echinoida	Echinodermata	Allocentrotus fragilis	Euechinoidea			Echinacea				Eukaryota		V3164-02
population-quantity | self | 999	cruise	Allocentrotus fragilis	528.44	3164	01:15:52:12	 	36.77818	-122.19498	2448286	0.41	45:15.0	Ventana	34.289	01:15:56:10	5.523	Echinoidea	Strongylocentrotidae	Allocentrotus			Animalia	Echinoida	Echinodermata	Allocentrotus fragilis	Euechinoidea			Echinacea				Eukaryota		V3164-02
comment | self | MARSl	cruise	trench	527.56	3164	01:19:21:05	http://search.mbari.org/ARCHIVE/frameGrabs/Ventana/images/3164/01_19_26_04.jpg	36.778378	-122.19502	2448321	0.41	48:44.0	Ventana	34.289	01:19:26:04	5.526																			V3164-02
comment | self | this whole section has been relatively depauperate	cruise	physical object	526.24	3164	01:20:27:18	 	36.778587	-122.195	2448332	0.41	49:50.0	Ventana	34.288	01:20:30:27	5.531																			V3164-02
mating | nil | nil	cruise	Chionoecetes tanneri	518.63	3164	01:25:46:24	 	36.7798	-122.19487	2448391	0.44	55:10.0	Ventana	34.277	01:25:52:00	5.604	Malacostraca	Majidae	Chionoecetes		Brachyura	Animalia	Decapoda	Arthropoda	Chionoecetes tanneri	Eumalacostraca						Majoidea	Eukaryota	Eucarida	V3164-02
identity-certainty | self | maybe	cruise	Henricia sanguinolenta	507.02	3164	01:33:32:24	 	36.78181	-122.19472	2448429	0.46	02:57.0	Ventana	34.271	01:33:36:20	5.654		Echinasteridae	Henricia			Animalia	Spinulosida	Echinodermata	Henricia sanguinolenta	Asteroidea			Leptognathina				Eukaryota		V3164-02
population-quantity | self | 999	cruise	Liponema brevicornis	497.38	3164	01:41:36:24	 	36.783607	-122.19464	2448924	0.46	11:01.0	Ventana	34.272	01:41:41:15	5.651	Anthozoa	Liponematidae	Liponema			Animalia	Actiniaria	Cnidaria	Liponema brevicornis	Hexacorallia			Nyantheae				Eukaryota		V3164-02
"identity-gender | self | female, habitat | self | flat mud"	cruise	Raja rhina	507.02	3164	01:33:32:24	http://search.mbari.org/ARCHIVE/frameGrabs/Ventana/images/3164/01_33_36_10.jpg	36.78181	-122.19472	2448428	0.46	02:57.0	Ventana	34.271	01:33:36:10	5.654	Chondrichthyes	Rajidae	Raja			Animalia	Rajiformes	Chordata	Raja rhina	Elasmobranchii				Vertebrata			Eukaryota	Batoidea	V3164-02
identity-reference | self | 1	cruise	Liponema brevicornis	501.54	3164	01:38:26:00	 	36.782795	-122.19471	2448450	0.47	07:50.0	Ventana	34.268	01:38:29:23	5.687	Anthozoa	Liponematidae	Liponema			Animalia	Actiniaria	Cnidaria	Liponema brevicornis	Hexacorallia			Nyantheae				Eukaryota		V3164-02
"identity-gender | self | female, habitat | self | flat mud"	cruise	Raja rhina	497.15	3164	01:41:42:24	http://search.mbari.org/ARCHIVE/frameGrabs/Ventana/images/3164/01_41_47_25.jpg	36.78364	-122.19464	2450611	0.46	11:07.0	Ventana	34.272	01:41:47:25	5.651	Chondrichthyes	Rajidae	Raja			Animalia	Rajiformes	Chordata	Raja rhina	Elasmobranchii				Vertebrata			Eukaryota	Batoidea	V3164-02
"identity-gender | self | female, habitat | self | flat mud"	cruise	Raja rhina	496.7	3164	01:42:04:23	 	36.783752	-122.19463	2450620	0.46	11:29.0	Ventana	34.273	01:42:08:26	5.644	Chondrichthyes	Rajidae	Raja			Animalia	Rajiformes	Chordata	Raja rhina	Elasmobranchii				Vertebrata			Eukaryota	Batoidea	V3164-02
population-quantity | self | 999	cruise	Liponema brevicornis	496.58	3164	01:42:06:23	 	36.783764	-122.19463	2450621	0.46	11:31.0	Ventana	34.273	01:42:12:04	5.644	Anthozoa	Liponematidae	Liponema			Animalia	Actiniaria	Cnidaria	Liponema brevicornis	Hexacorallia			Nyantheae				Eukaryota		V3164-02
population-quantity | self | 999	cruise	Liponema brevicornis	496.53	3164	01:42:08:23	 	36.78377	-122.194626	2450622	0.46	11:33.0	Ventana	34.273	01:42:12:28	5.644	Anthozoa	Liponematidae	Liponema			Animalia	Actiniaria	Cnidaria	Liponema brevicornis	Hexacorallia			Nyantheae				Eukaryota		V3164-02
part-of | Chionoecetes tanneri | nil	cruise	molt	494.14	3164	01:43:43:05	 	36.784233	-122.19458	2450629	0.47	13:08.0	Ventana	34.268	01:43:47:18	5.676																			V3164-02
population-quantity | self | 999	cruise	Liponema brevicornis	493.56	3164	01:44:21:19	 	36.784397	-122.19455	2450637	0.47	13:46.0	Ventana	34.268	01:44:24:28	5.673	Anthozoa	Liponematidae	Liponema			Animalia	Actiniaria	Cnidaria	Liponema brevicornis	Hexacorallia			Nyantheae				Eukaryota		V3164-02
mating | nil | nil	cruise	Chionoecetes tanneri	493.32	3164	01:44:27:19	 	36.784424	-122.19454	2450638	0.47	13:52.0	Ventana	34.268	01:44:31:27	5.673	Malacostraca	Majidae	Chionoecetes		Brachyura	Animalia	Decapoda	Arthropoda	Chionoecetes tanneri	Eumalacostraca						Majoidea	Eukaryota	Eucarida	V3164-02
mating | nil | nil	cruise	Chionoecetes tanneri	491.75	3164	01:45:29:17	 	36.784718	-122.194466	2450651	0.48	14:54.0	Ventana	34.269	01:45:33:05	5.681	Malacostraca	Majidae	Chionoecetes		Brachyura	Animalia	Decapoda	Arthropoda	Chionoecetes tanneri	Eumalacostraca						Majoidea	Eukaryota	Eucarida	V3164-02
population-quantity | self | 999	cruise	Liponema brevicornis	491.5	3164	01:45:41:17	 	36.784782	-122.19444	2450652	0.48	15:06.0	Ventana	34.269	01:45:45:04	5.681	Anthozoa	Liponematidae	Liponema			Animalia	Actiniaria	Cnidaria	Liponema brevicornis	Hexacorallia			Nyantheae				Eukaryota		V3164-02
population-quantity | self | 999	cruise	Liponema brevicornis	488.98	3164	01:48:08:12	 	36.785385	-122.19423	2450672	0.49	17:33.0	Ventana	34.264	01:48:11:29	5.722	Anthozoa	Liponematidae	Liponema			Animalia	Actiniaria	Cnidaria	Liponema brevicornis	Hexacorallia			Nyantheae				Eukaryota		V3164-02
population-quantity | self | 999	cruise	Liponema brevicornis	488.1	3164	01:49:00:11	 	36.785583	-122.19417	2450677	0.49	18:25.0	Ventana	34.263	01:49:04:17	5.724	Anthozoa	Liponematidae	Liponema			Animalia	Actiniaria	Cnidaria	Liponema brevicornis	Hexacorallia			Nyantheae				Eukaryota		V3164-02
mating | nil | nil	cruise	Chionoecetes tanneri	487.47	3164	01:49:30:24	 	36.785713	-122.19412	2450682	0.49	18:56.0	Ventana	34.262	01:49:35:05	5.73	Malacostraca	Majidae	Chionoecetes		Brachyura	Animalia	Decapoda	Arthropoda	Chionoecetes tanneri	Eumalacostraca						Majoidea	Eukaryota	Eucarida	V3164-02
population-quantity | self | 999	cruise	Liponema brevicornis	487.3	3164	01:49:44:24	 	36.785774	-122.1941	2450683	0.49	19:10.0	Ventana	34.262	01:49:49:07	5.723	Anthozoa	Liponematidae	Liponema			Animalia	Actiniaria	Cnidaria	Liponema brevicornis	Hexacorallia			Nyantheae				Eukaryota		V3164-02
population-quantity | self | 999	cruise	Liponema brevicornis	486.82	3164	01:50:00:24	 	36.785843	-122.19407	2450686	0.49	19:26.0	Ventana	34.263	01:50:04:29	5.721	Anthozoa	Liponematidae	Liponema			Animalia	Actiniaria	Cnidaria	Liponema brevicornis	Hexacorallia			Nyantheae				Eukaryota		V3164-02
population-quantity | self | 999	cruise	Liponema brevicornis	485.97	3164	01:50:46:22	 	36.786053	-122.193985	2450691	0.5	20:12.0	Ventana	34.259	01:50:51:19	5.748	Anthozoa	Liponematidae	Liponema			Animalia	Actiniaria	Cnidaria	Liponema brevicornis	Hexacorallia			Nyantheae				Eukaryota		V3164-02
population-quantity | self | 999	cruise	Liponema brevicornis	484.55	3164	01:52:01:05	 	36.786366	-122.193886	2450697	0.5	21:26.0	Ventana	34.261	01:52:05:28	5.746	Anthozoa	Liponematidae	Liponema			Animalia	Actiniaria	Cnidaria	Liponema brevicornis	Hexacorallia			Nyantheae				Eukaryota		V3164-02
population-quantity | self | 999	cruise	Liponema brevicornis	482.83	3164	01:53:25:17	 	36.786743	-122.19378	2450705	0.51	22:51.0	Ventana	34.259	01:53:29:18	5.762	Anthozoa	Liponematidae	Liponema			Animalia	Actiniaria	Cnidaria	Liponema brevicornis	Hexacorallia			Nyantheae				Eukaryota		V3164-02
mating | nil | nil	cruise	Chionoecetes tanneri	482.71	3164	01:53:35:17	 	36.786785	-122.19376	2450706	0.51	23:01.0	Ventana	34.258	01:53:39:05	5.764	Malacostraca	Majidae	Chionoecetes		Brachyura	Animalia	Decapoda	Arthropoda	Chionoecetes tanneri	Eumalacostraca						Majoidea	Eukaryota	Eucarida	V3164-02
population-quantity | self | 999	cruise	Liponema brevicornis	482.25	3164	01:53:53:16	 	36.78687	-122.19373	2450707	0.51	23:19.0	Ventana	34.257	01:53:57:10	5.771	Anthozoa	Liponematidae	Liponema			Animalia	Actiniaria	Cnidaria	Liponema brevicornis	Hexacorallia			Nyantheae				Eukaryota		V3164-02
population-quantity | self | 999	cruise	Liponema brevicornis	480.23	3164	01:55:14:00	 	36.787228	-122.1936	2450716	0.52	24:39.0	Ventana	34.255	01:55:18:15	5.79	Anthozoa	Liponematidae	Liponema			Animalia	Actiniaria	Cnidaria	Liponema brevicornis	Hexacorallia			Nyantheae				Eukaryota		V3164-02
population-quantity | self | 999	cruise	Liponema brevicornis	476.98	3164	01:58:22:24	 	36.78799	-122.19325	2450731	0.51	27:48.0	Ventana	34.257	01:58:27:00	5.77	Anthozoa	Liponematidae	Liponema			Animalia	Actiniaria	Cnidaria	Liponema brevicornis	Hexacorallia			Nyantheae				Eukaryota		V3164-02
population-quantity | self | 999	cruise	Liponema brevicornis	475.54	3164	01:59:09:07	 	36.78826	-122.1931	2450739	0.51	28:34.0	Ventana	34.257	01:59:13:08	5.774	Anthozoa	Liponematidae	Liponema			Animalia	Actiniaria	Cnidaria	Liponema brevicornis	Hexacorallia			Nyantheae				Eukaryota		V3164-02
population-quantity | self | 999	cruise	Liponema brevicornis	473.3	3164	02:00:27:05	 	36.78873	-122.19299	2450757	0.64	29:53.0	Ventana	34.227	02:00:31:05	6.079	Anthozoa	Liponematidae	Liponema			Animalia	Actiniaria	Cnidaria	Liponema brevicornis	Hexacorallia			Nyantheae				Eukaryota		V3164-02
population-quantity | self | 999	cruise	Liponema brevicornis	473.1	3164	02:00:33:05	 	36.78876	-122.19299	2450761	0.64	29:59.0	Ventana	34.227	02:00:36:19	6.079	Anthozoa	Liponematidae	Liponema			Animalia	Actiniaria	Cnidaria	Liponema brevicornis	Hexacorallia			Nyantheae				Eukaryota		V3164-02
population-quantity | self | 999	cruise	Liponema brevicornis	472.46	3164	02:00:57:19	 	36.788864	-122.192986	2450763	0.6	30:23.0	Ventana	34.235	02:01:02:14	5.981	Anthozoa	Liponematidae	Liponema			Animalia	Actiniaria	Cnidaria	Liponema brevicornis	Hexacorallia			Nyantheae				Eukaryota		V3164-02
population-quantity | self | 999	cruise	Liponema brevicornis	471.05	3164	02:01:45:18	 	36.789207	-122.19287	2450769	0.61	31:11.0	Ventana	34.232	02:01:49:15	6.029	Anthozoa	Liponematidae	Liponema			Animalia	Actiniaria	Cnidaria	Liponema brevicornis	Hexacorallia			Nyantheae				Eukaryota		V3164-02
population-quantity | self | 999	cruise	Liponema brevicornis	470.4	3164	02:02:16:02	 	36.78938	-122.192764	2450773	0.68	31:41.0	Ventana	34.221	02:02:19:03	6.165	Anthozoa	Liponematidae	Liponema			Animalia	Actiniaria	Cnidaria	Liponema brevicornis	Hexacorallia			Nyantheae				Eukaryota		V3164-02
population-quantity | self | 999	cruise	Liponema brevicornis	469.78	3164	02:03:06:00	 	36.78955	-122.19265	2450776	0.68	32:32.0	Ventana	34.223	02:03:10:23	6.163	Anthozoa	Liponematidae	Liponema			Animalia	Actiniaria	Cnidaria	Liponema brevicornis	Hexacorallia			Nyantheae				Eukaryota		V3164-02
population-quantity | self | 999	cruise	Liponema brevicornis	469.58	3164	02:03:27:29	 	36.789616	-122.19258	2450779	0.69	32:54.0	Ventana	34.22	02:03:32:10	6.185	Anthozoa	Liponematidae	Liponema			Animalia	Actiniaria	Cnidaria	Liponema brevicornis	Hexacorallia			Nyantheae				Eukaryota		V3164-02
population-quantity | self | 999	cruise	Liponema brevicornis	469.36	3164	02:04:01:28	http://search.mbari.org/ARCHIVE/frameGrabs/Ventana/images/3164/02_04_05_22.jpg	36.78974	-122.192535	2450786	0.69	33:28.0	Ventana	34.22	02:04:05:22	6.189	Anthozoa	Liponematidae	Liponema			Animalia	Actiniaria	Cnidaria	Liponema brevicornis	Hexacorallia			Nyantheae				Eukaryota		V3164-02
population-quantity | self | 999	cruise	Liponema brevicornis	468.94	3164	02:04:30:12	 	36.78987	-122.19251	2450789	0.7	33:56.0	Ventana	34.217	02:04:34:04	6.197	Anthozoa	Liponematidae	Liponema			Animalia	Actiniaria	Cnidaria	Liponema brevicornis	Hexacorallia			Nyantheae				Eukaryota		V3164-02
population-quantity | self | 999	cruise	Liponema brevicornis	467.88	3164	02:05:22:11	 	36.790173	-122.192474	2450798	0.73	34:48.0	Ventana	34.212	02:05:26:20	6.261	Anthozoa	Liponematidae	Liponema			Animalia	Actiniaria	Cnidaria	Liponema brevicornis	Hexacorallia			Nyantheae				Eukaryota		V3164-02
"identity-gender | self | male, habitat | self | flat mud"	cruise	Raja rhina	467.2	3164	02:05:48:25	 	36.790306	-122.19247	2450803	0.71	35:14.0	Ventana	34.216	02:05:52:20	6.217	Chondrichthyes	Rajidae	Raja			Animalia	Rajiformes	Chordata	Raja rhina	Elasmobranchii				Vertebrata			Eukaryota	Batoidea	V3164-02
population-quantity | self | 999	cruise	Liponema brevicornis	466.86	3164	02:05:56:24	 	36.790348	-122.19247	2450829	0.71	35:23.0	Ventana	34.216	02:06:01:14	6.216	Anthozoa	Liponematidae	Liponema			Animalia	Actiniaria	Cnidaria	Liponema brevicornis	Hexacorallia			Nyantheae				Eukaryota		V3164-02
population-quantity | self | 999	cruise	Liponema brevicornis	465.2	3164	02:06:21:27	 	36.790745	-122.19224	2450880	0.71	36:49.0	Ventana	34.217	02:06:25:01	6.203	Anthozoa	Liponematidae	Liponema			Animalia	Actiniaria	Cnidaria	Liponema brevicornis	Hexacorallia			Nyantheae				Eukaryota		V3164-03
population-quantity | self | 999	cruise	trench	464.96	3164	02:06:41:26	http://search.mbari.org/ARCHIVE/frameGrabs/Ventana/images/3164/02_06_45_20.jpg	36.790825	-122.19219	2450885	0.69	37:09.0	Ventana	34.22	02:06:45:20	6.184																			V3164-03
population-quantity | self | 999	cruise	Liponema brevicornis	464.35	3164	02:07:13:26	 	36.790962	-122.19212	2450896	0.69	37:41.0	Ventana	34.225	02:07:19:04	6.143	Anthozoa	Liponematidae	Liponema			Animalia	Actiniaria	Cnidaria	Liponema brevicornis	Hexacorallia			Nyantheae				Eukaryota		V3164-03
population-quantity | self | 999	cruise	Liponema brevicornis	463.87	3164	02:07:43:24	 	36.791092	-122.19206	2450899	0.67	38:11.0	Ventana	34.218	02:07:48:19	6.168	Anthozoa	Liponematidae	Liponema			Animalia	Actiniaria	Cnidaria	Liponema brevicornis	Hexacorallia			Nyantheae				Eukaryota		V3164-03
population-quantity | self | 999	cruise	Liponema brevicornis	463.09	3164	02:08:18:08	 	36.79124	-122.19198	2450908	0.69	38:46.0	Ventana	34.22	02:08:21:29	6.178	Anthozoa	Liponematidae	Liponema			Animalia	Actiniaria	Cnidaria	Liponema brevicornis	Hexacorallia			Nyantheae				Eukaryota		V3164-03
population-quantity | self | 999	cruise	Liponema brevicornis	462.01	3164	02:09:14:06	 	36.7915	-122.19185	2450915	0.69	39:42.0	Ventana	34.22	02:09:18:02	6.174	Anthozoa	Liponematidae	Liponema			Animalia	Actiniaria	Cnidaria	Liponema brevicornis	Hexacorallia			Nyantheae				Eukaryota		V3164-03
"identity-reference | self | start: cable buried, trench filled, moderate intermittent sediment distubance"	cruise	trench	461.83	3164	02:09:20:06	http://search.mbari.org/ARCHIVE/frameGrabs/Ventana/images/3164/02_09_25_06.jpg	36.791527	-122.191826	2450922	0.69	39:48.0	Ventana	34.22	02:09:25:06	6.174																			V3164-03
population-quantity | self | 999	cruise	Liponema brevicornis	461.52	3164	02:09:32:06	 	36.79158	-122.191795	2450958	0.69	40:00.0	Ventana	34.22	02:09:35:28	6.17	Anthozoa	Liponematidae	Liponema			Animalia	Actiniaria	Cnidaria	Liponema brevicornis	Hexacorallia			Nyantheae				Eukaryota		V3164-03
population-quantity | self | 999	cruise	Liponema brevicornis	461.22	3164	02:10:10:20	 	36.79175	-122.191696	2450971	0.68	40:38.0	Ventana	34.225	02:10:15:12	6.129	Anthozoa	Liponematidae	Liponema			Animalia	Actiniaria	Cnidaria	Liponema brevicornis	Hexacorallia			Nyantheae				Eukaryota		V3164-03
population-quantity | self | 999	cruise	Liponema brevicornis	460.24	3164	02:10:48:19	 	36.791927	-122.19161	2451004	0.73	41:16.0	Ventana	34.211	02:10:52:08	6.271	Anthozoa	Liponematidae	Liponema			Animalia	Actiniaria	Cnidaria	Liponema brevicornis	Hexacorallia			Nyantheae				Eukaryota		V3164-03
"identity-reference | self | start: cable buried, trench filled, minor sediment disturbance"	cruise	trench	460.3	3164	02:10:36:19	http://search.mbari.org/ARCHIVE/frameGrabs/Ventana/images/3164/02_10_41_17.jpg	36.79187	-122.191635	2451013	0.68	41:04.0	Ventana	34.222	02:10:41:17	6.18																			V3164-03
population-quantity | self | 999	cruise	Liponema brevicornis	460.05	3164	02:10:46:19	 	36.791916	-122.19161	2451014	0.73	41:14.0	Ventana	34.211	02:10:51:14	6.271	Anthozoa	Liponematidae	Liponema			Animalia	Actiniaria	Cnidaria	Liponema brevicornis	Hexacorallia			Nyantheae				Eukaryota		V3164-03
population-quantity | self | 999	cruise	Liponema brevicornis	457.39	3164	02:12:55:15	 	36.792534	-122.19133	2451021	0.74	43:23.0	Ventana	34.211	02:12:59:15	6.275	Anthozoa	Liponematidae	Liponema			Animalia	Actiniaria	Cnidaria	Liponema brevicornis	Hexacorallia			Nyantheae				Eukaryota		V3164-03
population-quantity | self | 999	cruise	Liponema brevicornis	456.23	3164	02:13:59:13	 	36.79283	-122.1912	2451024	0.73	44:27.0	Ventana	34.211	02:14:03:27	6.27	Anthozoa	Liponematidae	Liponema			Animalia	Actiniaria	Cnidaria	Liponema brevicornis	Hexacorallia			Nyantheae				Eukaryota		V3164-03
population-quantity | self | 999	cruise	Liponema brevicornis	455.53	3164	02:14:31:27	 	36.792984	-122.19113	2451029	0.74	44:59.0	Ventana	34.21	02:14:36:08	6.276	Anthozoa	Liponematidae	Liponema			Animalia	Actiniaria	Cnidaria	Liponema brevicornis	Hexacorallia			Nyantheae				Eukaryota		V3164-03
population-quantity | self | 999	cruise	Liponema brevicornis	455.12	3164	02:14:49:26	 	36.793068	-122.19108	2451030	0.74	45:18.0	Ventana	34.211	02:14:53:13	6.283	Anthozoa	Liponematidae	Liponema			Animalia	Actiniaria	Cnidaria	Liponema brevicornis	Hexacorallia			Nyantheae				Eukaryota		V3164-03
"identity-reference | self | start: cable buried, trench filled ~80%, minor sediment disturbance, population-quantity | self | 999"	cruise	trench	454.99	3164	02:14:57:26	http://search.mbari.org/ARCHIVE/frameGrabs/Ventana/images/3164/02_15_03_04.jpg	36.793102	-122.19106	2451031	0.75	45:26.0	Ventana	34.208	02:15:03:04	6.298																			V3164-03
population-quantity | self | 999	cruise	Liponema brevicornis	454.67	3164	02:15:19:25	 	36.79321	-122.191	2451032	0.75	45:48.0	Ventana	34.208	02:15:25:09	6.299	Anthozoa	Liponematidae	Liponema			Animalia	Actiniaria	Cnidaria	Liponema brevicornis	Hexacorallia			Nyantheae				Eukaryota		V3164-03
population-quantity | self | 999	cruise	Liponema brevicornis	453.91	3164	02:15:59:24	 	36.793373	-122.1909	2451034	0.75	46:28.0	Ventana	34.208	02:16:04:28	6.302	Anthozoa	Liponematidae	Liponema			Animalia	Actiniaria	Cnidaria	Liponema brevicornis	Hexacorallia			Nyantheae				Eukaryota		V3164-03
population-quantity | self | 999	cruise	Liponema brevicornis	453.91	3164	02:16:04:09	http://search.mbari.org/ARCHIVE/frameGrabs/Ventana/images/3164/02_16_08_17.jpg	36.793392	-122.190895	2451039	0.75	46:32.0	Ventana	34.208	02:16:08:17	6.302	Anthozoa	Liponematidae	Liponema			Animalia	Actiniaria	Cnidaria	Liponema brevicornis	Hexacorallia			Nyantheae				Eukaryota		V3164-03
"identity-reference | self | start: cable visible within trench, below seafloor"	cruise	cable	453.5	3164	02:16:24:08	http://search.mbari.org/ARCHIVE/frameGrabs/Ventana/images/3164/02_16_29_02.jpg	36.793476	-122.19084	2451047	0.75	46:52.0	Ventana	34.208	02:16:29:02	6.301																			V3164-03
"identity-reference | self | start: cable visible upon seafloor, minor disturbance"	cruise	cable	453.16	3164	02:16:48:08	http://search.mbari.org/ARCHIVE/frameGrabs/Ventana/images/3164/02_16_53_20.jpg	36.793587	-122.19078	2451081	0.76	47:16.0	Ventana	34.208	02:16:53:20	6.304																			V3164-03
population-quantity | self | 999	cruise	Liponema brevicornis	451.54	3164	02:18:18:20	 	36.793995	-122.190544	2451164	0.75	48:47.0	Ventana	34.208	02:18:22:15	6.298	Anthozoa	Liponematidae	Liponema			Animalia	Actiniaria	Cnidaria	Liponema brevicornis	Hexacorallia			Nyantheae				Eukaryota		V3164-03
"identity-reference | self | start: cable buried, trench filled ~80%, minor sediment disturbance"	cruise	trench	451.64	3164	02:18:16:20	http://search.mbari.org/ARCHIVE/frameGrabs/Ventana/images/3164/02_18_21_16.jpg	36.793987	-122.19055	2451173	0.75	48:45.0	Ventana	34.208	02:18:21:16	6.298																			V3164-03
mating | nil | nil	cruise	Chionoecetes tanneri	451.21	3164	02:18:36:19	http://search.mbari.org/ARCHIVE/frameGrabs/Ventana/images/3164/02_18_40_22.jpg	36.79409	-122.19049	2451187	0.75	49:05.0	Ventana	34.208	02:18:40:22	6.295	Malacostraca	Majidae	Chionoecetes		Brachyura	Animalia	Decapoda	Arthropoda	Chionoecetes tanneri	Eumalacostraca						Majoidea	Eukaryota	Eucarida	V3164-03
population-quantity | self | 999	cruise	Liponema brevicornis	451.21	3164	02:18:36:19	http://search.mbari.org/ARCHIVE/frameGrabs/Ventana/images/3164/02_18_40_22.jpg	36.79409	-122.19049	2451190	0.75	49:05.0	Ventana	34.208	02:18:40:22	6.295	Anthozoa	Liponematidae	Liponema			Animalia	Actiniaria	Cnidaria	Liponema brevicornis	Hexacorallia			Nyantheae				Eukaryota		V3164-03
population-quantity | self | 999	cruise	Liponema brevicornis	451.11	3164	02:18:42:19	 	36.794117	-122.190475	2451224	0.75	49:11.0	Ventana	34.208	02:18:46:20	6.296	Anthozoa	Liponematidae	Liponema			Animalia	Actiniaria	Cnidaria	Liponema brevicornis	Hexacorallia			Nyantheae				Eukaryota		V3164-03
mating | nil | nil	cruise	Chionoecetes tanneri	450.65	3164	02:19:06:18	 	36.794228	-122.19041	2451231	0.75	49:35.0	Ventana	34.208	02:19:12:02	6.295	Malacostraca	Majidae	Chionoecetes		Brachyura	Animalia	Decapoda	Arthropoda	Chionoecetes tanneri	Eumalacostraca						Majoidea	Eukaryota	Eucarida	V3164-03
population-quantity | self | 999	cruise	Liponema brevicornis	450.64	3164	02:19:10:18	 	36.794247	-122.1904	2451232	0.75	49:39.0	Ventana	34.208	02:19:15:04	6.291	Anthozoa	Liponematidae	Liponema			Animalia	Actiniaria	Cnidaria	Liponema brevicornis	Hexacorallia			Nyantheae				Eukaryota		V3164-03
population-quantity | self | 999	cruise	Liponema brevicornis	449.77	3164	02:19:59:01	 	36.794483	-122.19025	2451245	0.75	50:27.0	Ventana	34.21	02:20:03:29	6.287	Anthozoa	Liponematidae	Liponema			Animalia	Actiniaria	Cnidaria	Liponema brevicornis	Hexacorallia			Nyantheae				Eukaryota		V3164-03
mating | nil | nil	cruise	Chionoecetes tanneri	449.43	3164	02:20:25:01	 	36.7946	-122.19018	2451248	0.75	50:53.0	Ventana	34.21	02:20:28:20	6.29	Malacostraca	Majidae	Chionoecetes		Brachyura	Animalia	Decapoda	Arthropoda	Chionoecetes tanneri	Eumalacostraca						Majoidea	Eukaryota	Eucarida	V3164-03
mating | nil | nil	cruise	Chionoecetes tanneri	449.09	3164	02:20:51:15	 	36.794724	-122.1901	2451250	0.75	51:19.0	Ventana	34.209	02:20:55:19	6.294	Malacostraca	Majidae	Chionoecetes		Brachyura	Animalia	Decapoda	Arthropoda	Chionoecetes tanneri	Eumalacostraca						Majoidea	Eukaryota	Eucarida	V3164-03
"identity-reference | self | start: cable visible within trench, below seafloor, minor-moderate disturbance"	cruise	cable	448.99	3164	02:20:59:15	http://search.mbari.org/ARCHIVE/frameGrabs/Ventana/images/3164/02_21_03_04.jpg	36.79476	-122.19008	2451252	0.75	51:27.0	Ventana	34.208	02:21:03:04	6.293																			V3164-03
"identity-reference | self | start: cable visible upon seafloor, minor-moderate disturbance"	cruise	cable	448.71	3164	02:21:31:14	 	36.794914	-122.18999	2451328	0.75	52:00.0	Ventana	34.209	02:21:36:21	6.289																			V3164-03
population-quantity | self | 999	cruise	Liponema brevicornis	447.72	3164	02:22:47:27	 	36.7953	-122.18977	2451731	0.74	53:16.0	Ventana	34.21	02:22:51:00	6.284	Anthozoa	Liponematidae	Liponema			Animalia	Actiniaria	Cnidaria	Liponema brevicornis	Hexacorallia			Nyantheae				Eukaryota		V3164-03
identity-reference | self | minor suspension	cruise	cable	447.67	3164	02:22:51:26	http://search.mbari.org/ARCHIVE/frameGrabs/Ventana/images/3164/02_22_55_22.jpg	36.79532	-122.189766	2451762	0.74	53:20.0	Ventana	34.21	02:22:55:22	6.284																			V3164-03
identity-reference | self | minor suspension	cruise	cable	447.6	3164	02:22:57:26	http://search.mbari.org/ARCHIVE/frameGrabs/Ventana/images/3164/02_23_02_26.jpg	36.79534	-122.18975	2451800	0.75	53:26.0	Ventana	34.209	02:23:02:26	6.286																			V3164-03
identity-reference | self | splice	cruise	cable	447.63	3164	02:22:59:26	http://search.mbari.org/ARCHIVE/frameGrabs/Ventana/images/3164/02_23_04_03.jpg	36.795353	-122.18974	2451825	0.75	53:28.0	Ventana	34.209	02:23:04:03	6.286																			V3164-03
identity-reference | self | minor suspension	cruise	cable	447.47	3164	02:23:31:25	http://search.mbari.org/ARCHIVE/frameGrabs/Ventana/images/3164/02_23_35_25.jpg	36.795475	-122.18966	2451863	0.74	54:00.0	Ventana	34.209	02:23:35:25	6.286																			V3164-03
population-quantity | self | 999	cruise	Liponema brevicornis	447.56	3164	02:23:59:24	 	36.7956	-122.189575	2451879	0.75	54:28.0	Ventana	34.21	02:24:05:03	6.29	Anthozoa	Liponematidae	Liponema			Animalia	Actiniaria	Cnidaria	Liponema brevicornis	Hexacorallia			Nyantheae				Eukaryota		V3164-03
identity-reference | self | start: cable visible upon seafloor	cruise	cable	448.13	3164	02:24:48:07	http://search.mbari.org/ARCHIVE/frameGrabs/Ventana/images/3164/02_24_52_02.jpg	36.795967	-122.18941	2451900	0.75	55:17.0	Ventana	34.209	02:24:52:02	6.291																			V3164-03
"comment | self | unknown gender, cable taut upon seafloor, habitat | self | flat mud"	cruise	Bathyraja kincaidii	448.2	3164	02:24:56:07	http://search.mbari.org/ARCHIVE/frameGrabs/Ventana/images/3164/02_25_01_12.jpg	36.796013	-122.189384	2451943	0.75	55:25.0	Ventana	34.209	02:25:01:12	6.291	Chondrichthyes	Arhynchobatidae	Bathyraja			Animalia	Rajiformes	Chordata	Bathyraja kincaidii	Elasmobranchii				Vertebrata			Eukaryota	Batoidea	V3164-03
identity-reference | self | start: minor span	cruise	cable	448.48	3164	02:25:18:07	http://search.mbari.org/ARCHIVE/frameGrabs/Ventana/images/3164/02_25_23_21.jpg	36.796127	-122.18932	2452014	0.75	55:47.0	Ventana	34.209	02:25:23:21	6.29																			V3164-03
identity-reference | self | end: minor span	cruise	cable	448.19	3164	02:25:50:06	http://search.mbari.org/ARCHIVE/frameGrabs/Ventana/images/3164/02_25_55_10.jpg	36.79629	-122.18922	2452024	0.75	56:19.0	Ventana	34.209	02:25:55:10	6.286																			V3164-03
"identity-reference | self | start: mixed substrate, eroded surface"	cruise	eroded surface	448.19	3164	02:25:50:06	http://search.mbari.org/ARCHIVE/frameGrabs/Ventana/images/3164/02_25_55_10.jpg	36.79629	-122.18922	2452026	0.75	56:19.0	Ventana	34.209	02:25:55:10	6.286																			V3164-03
population-quantity | self | 999	cruise	Rathbunaster californicus	447.94	3164	02:25:58:21	 	36.796333	-122.18919	2452036	0.75	56:27.0	Ventana	34.209	02:26:03:10	6.292		Labidiasteridae	Rathbunaster			Animalia	Forcipulatida	Echinodermata	Rathbunaster californicus	Asteroidea							Eukaryota		V3164-03
population-quantity | self | 999	cruise	Porifera	447.1	3164	02:26:26:20	 	36.796474	-122.18911	2452045	0.75	56:55.0	Ventana	34.208	02:26:31:28	6.296						Animalia		Porifera									Eukaryota		V3164-03
population-quantity | self | 999	cruise	Microstomus pacificus	446.74	3164	02:26:38:20	 	36.79653	-122.18907	2452047	0.75	57:07.0	Ventana	34.208	02:26:42:12	6.296	Osteichthyes	Pleuronectidae	Microstomus	Neopterygii		Animalia	Pleuronectiformes	Chordata	Microstomus pacificus	Actinopterygii				Vertebrata	Gnathostomata		Eukaryota	Acanthopterygii	V3164-03
identity-reference | self | start: cable intermitt. taut	cruise	cable	448.19	3164	02:25:50:06	http://search.mbari.org/ARCHIVE/frameGrabs/Ventana/images/3164/02_25_55_10.jpg	36.79629	-122.18922	2452052	0.75	56:19.0	Ventana	34.209	02:25:55:10	6.286																			V3164-03
population-quantity | self | 999	cruise	Porifera	447.45	3164	02:26:10:20	 	36.79639	-122.189156	2452063	0.75	56:39.0	Ventana	34.209	02:26:14:22	6.295						Animalia		Porifera									Eukaryota		V3164-03
population-quantity | self | 999	cruise	Rathbunaster californicus	447.02	3164	02:26:30:20	 	36.796494	-122.189095	2452066	0.75	56:59.0	Ventana	34.208	02:26:34:24	6.296		Labidiasteridae	Rathbunaster			Animalia	Forcipulatida	Echinodermata	Rathbunaster californicus	Asteroidea							Eukaryota		V3164-03
population-quantity | self | 999	cruise	Microstomus pacificus	446.24	3164	02:26:48:19	 	36.796577	-122.18904	2452070	0.75	57:17.0	Ventana	34.208	02:26:54:03	6.298	Osteichthyes	Pleuronectidae	Microstomus	Neopterygii		Animalia	Pleuronectiformes	Chordata	Microstomus pacificus	Actinopterygii				Vertebrata	Gnathostomata		Eukaryota	Acanthopterygii	V3164-03
identity-reference | self | start: minor span	cruise	cable	445.7	3164	02:27:16:18	http://search.mbari.org/ARCHIVE/frameGrabs/Ventana/images/3164/02_27_21_02.jpg	36.79671	-122.188965	2452076	0.75	57:45.0	Ventana	34.208	02:27:21:02	6.295																			V3164-03
population-quantity | self | 999	cruise	Rathbunaster californicus	445.8	3164	02:27:20:18	 	36.796734	-122.18895	2452079	0.75	57:49.0	Ventana	34.208	02:27:24:29	6.295		Labidiasteridae	Rathbunaster			Animalia	Forcipulatida	Echinodermata	Rathbunaster californicus	Asteroidea							Eukaryota		V3164-03
identity-reference | self | end: minor span	cruise	cable	445.09	3164	02:27:49:02	 	36.79687	-122.188866	2452083	0.75	58:18.0	Ventana	34.209	02:27:52:14	6.294																			V3164-03
population-quantity | self | 999	cruise	Porifera	444.32	3164	02:28:09:02	 	36.79697	-122.18879	2452086	0.75	58:38.0	Ventana	34.208	02:28:13:07	6.297						Animalia		Porifera									Eukaryota		V3164-03
population-quantity | self | 999	cruise	Microstomus pacificus	443.57	3164	02:28:23:01	 	36.79703	-122.18874	2452087	0.75	58:52.0	Ventana	34.208	02:28:28:11	6.297	Osteichthyes	Pleuronectidae	Microstomus	Neopterygii		Animalia	Pleuronectiformes	Chordata	Microstomus pacificus	Actinopterygii				Vertebrata	Gnathostomata		Eukaryota	Acanthopterygii	V3164-03
population-quantity | self | 999	cruise	Asbestopluma	442.73	3164	02:28:41:01	 	36.797108	-122.18868	2452089	0.75	59:10.0	Ventana	34.207	02:28:44:22	6.303	Demospongiae	Cladorhizidae	Asbestopluma			Animalia	Poecilosclerida	Porifera					Mycalina				Eukaryota		V3164-03
population-quantity | self | 999	cruise	Rathbunaster californicus	441.46	3164	02:29:23:14	 	36.797276	-122.18856	2452096	0.76	59:52.0	Ventana	34.207	02:29:26:29	6.307		Labidiasteridae	Rathbunaster			Animalia	Forcipulatida	Echinodermata	Rathbunaster californicus	Asteroidea							Eukaryota		V3164-03
population-quantity | self | 999	cruise	Porifera	440.19	3164	02:30:03:13	 	36.797436	-122.188446	2452124	0.76	00:32.0	Ventana	34.206	02:30:08:20	6.312						Animalia		Porifera									Eukaryota		V3164-03
population-quantity | self | 999	cruise	Rathbunaster californicus	439.89	3164	02:30:25:12	 	36.797527	-122.188385	2452129	0.77	00:54.0	Ventana	34.204	02:30:29:27	6.327		Labidiasteridae	Rathbunaster			Animalia	Forcipulatida	Echinodermata	Rathbunaster californicus	Asteroidea							Eukaryota		V3164-03
identity-reference | self | start: minor span	cruise	cable	439.63	3164	02:30:17:13	 	36.797493	-122.18841	2452130	0.77	00:46.0	Ventana	34.204	02:30:22:21	6.324																			V3164-03
population-quantity | self | 999	cruise	Rathbunaster californicus	439.95	3164	02:30:33:12	 	36.79756	-122.18837	2452143	0.77	01:02.0	Ventana	34.204	02:30:37:23	6.327		Labidiasteridae	Rathbunaster			Animalia	Forcipulatida	Echinodermata	Rathbunaster californicus	Asteroidea							Eukaryota		V3164-03
identity-reference | self | end: minor span	cruise	cable	440.12	3164	02:30:41:27	 	36.797596	-122.18835	2452147	0.77	01:10.0	Ventana	34.204	02:30:46:28	6.331																			V3164-03
population-quantity | self | 999	cruise	Allocentrotus fragilis	440.09	3164	02:30:53:27	 	36.797646	-122.188324	2452176	0.77	01:22.0	Ventana	34.204	02:30:57:09	6.331	Echinoidea	Strongylocentrotidae	Allocentrotus			Animalia	Echinoida	Echinodermata	Allocentrotus fragilis	Euechinoidea			Echinacea				Eukaryota		V3164-03
identity-reference | self | end: minor span	cruise	cable	440.36	3164	02:31:25:25	 	36.797783	-122.188255	2452181	0.77	01:55.0	Ventana	34.205	02:31:30:13	6.326																			V3164-03
population-quantity | self | 999	cruise	Porifera	440.17	3164	02:31:35:26	 	36.797825	-122.18823	2452188	0.77	02:05.0	Ventana	34.205	02:31:39:29	6.326						Animalia		Porifera									Eukaryota		V3164-03
population-quantity | self | 999	cruise	Rathbunaster californicus	439.96	3164	02:31:45:25	 	36.79786	-122.18821	2452190	0.77	02:15.0	Ventana	34.205	02:31:50:10	6.323		Labidiasteridae	Rathbunaster			Animalia	Forcipulatida	Echinodermata	Rathbunaster californicus	Asteroidea							Eukaryota		V3164-03
population-quantity | self | 999	cruise	Rathbunaster californicus	439.79	3164	02:31:57:25	 	36.79791	-122.18818	2452195	0.77	02:27.0	Ventana	34.205	02:32:02:25	6.318		Labidiasteridae	Rathbunaster			Animalia	Forcipulatida	Echinodermata	Rathbunaster californicus	Asteroidea							Eukaryota		V3164-03
identity-reference | self | start: minor span	cruise	cable	439.8	3164	02:31:59:24	 	36.797913	-122.18817	2452198	0.77	02:29.0	Ventana	34.205	02:32:03:22	6.318																			V3164-03
identity-reference | self | end: minor span	cruise	cable	439.27	3164	02:32:40:08	 	36.798046	-122.18808	2452200	0.77	03:09.0	Ventana	34.205	02:32:43:27	6.319																			V3164-03
identity-certainty | self | maybe	cruise	Asbestopluma	438.77	3164	02:32:48:08	http://search.mbari.org/ARCHIVE/frameGrabs/Ventana/images/3164/02_32_51_17.jpg	36.798073	-122.188065	2452205	0.77	03:17.0	Ventana	34.205	02:32:51:17	6.319	Demospongiae	Cladorhizidae	Asbestopluma			Animalia	Poecilosclerida	Porifera					Mycalina				Eukaryota		V3164-03
population-quantity | self | 999	cruise	Rathbunaster californicus	438.49	3164	02:33:00:07	 	36.798115	-122.18804	2452209	0.76	03:29.0	Ventana	34.206	02:33:04:19	6.317		Labidiasteridae	Rathbunaster			Animalia	Forcipulatida	Echinodermata	Rathbunaster californicus	Asteroidea							Eukaryota		V3164-03
population-quantity | self | 999	cruise	Porifera	438.64	3164	02:33:24:07	 	36.798187	-122.18799	2452212	0.76	03:53.0	Ventana	34.205	02:33:28:13	6.316						Animalia		Porifera									Eukaryota		V3164-03
identity-reference | self | start: minor span	cruise	cable	438.25	3164	02:33:58:06	 	36.7983	-122.18791	2452218	0.76	04:27.0	Ventana	34.207	02:34:02:14	6.308																			V3164-03
population-quantity | self | 999	cruise	Rathbunaster californicus	438.55	3164	02:34:14:20	 	36.79835	-122.18788	2452224	0.76	04:43.0	Ventana	34.208	02:34:18:20	6.303		Labidiasteridae	Rathbunaster			Animalia	Forcipulatida	Echinodermata	Rathbunaster californicus	Asteroidea							Eukaryota		V3164-03
population-quantity | self | 999	cruise	Lycodes cortezianus	438.54	3164	02:35:02:19	 	36.79852	-122.187744	2452238	0.77	05:32.0	Ventana	34.204	02:35:07:16	6.329	Osteichthyes	Zoarcidae	Lycodes	Neopterygii		Animalia	Perciformes	Chordata	Lycodes cortezianus	Actinopterygii			Zoarcoidei	Vertebrata	Gnathostomata		Eukaryota	Acanthopterygii	V3164-03
"identity-reference | self | end: minor span, comment | self | long and higher, population-quantity | self | 999"	cruise	cable	438.1	3164	02:35:12:19	 	36.798553	-122.18771	2452242	0.77	05:42.0	Ventana	34.205	02:35:17:00	6.321																			V3164-03
population-quantity | self | 999	cruise	Porifera	437.17	3164	02:35:40:18	 	36.798653	-122.18761	2452257	0.77	06:10.0	Ventana	34.205	02:35:44:06	6.323						Animalia		Porifera									Eukaryota		V3164-03
population-quantity | self | 999	cruise	Allocentrotus fragilis	435.56	3164	02:36:25:02	 	36.798805	-122.18746	2452313	0.76	06:54.0	Ventana	34.206	02:36:29:14	6.312	Echinoidea	Strongylocentrotidae	Allocentrotus			Animalia	Echinoida	Echinodermata	Allocentrotus fragilis	Euechinoidea			Echinacea				Eukaryota		V3164-03
identity-reference | self | start: minor span	cruise	cable	435.33	3164	02:37:21:14	 	36.798985	-122.18732	2452322	0.76	07:50.0	Ventana	34.205	02:37:25:11	6.318																			V3164-03
"identity-reference | self | end: minor span, population-quantity | self | 999"	cruise	cable	435.38	3164	02:37:45:14	 	36.799084	-122.18726	2452328	0.77	08:15.0	Ventana	34.205	02:37:50:26	6.321																			V3164-03
upon | cable | nil	cruise	Stomphia	434.84	3164	02:38:49:12	 	36.7993	-122.187126	2452334	0.76	09:19.0	Ventana	34.205	02:38:53:03	6.318	Anthozoa	Actinostolidae	Stomphia			Animalia	Actiniaria	Cnidaria		Hexacorallia			Nyantheae				Eukaryota		V3164-03
population-quantity | self | 999	cruise	Merluccius productus	435.14	3164	02:39:09:26	 	36.79935	-122.18709	2452343	0.76	09:39.0	Ventana	34.205	02:39:13:06	6.317	Osteichthyes	Merlucciidae	Merluccius	Neopterygii		Animalia	Gadiformes	Chordata	Merluccius productus	Actinopterygii				Vertebrata	Gnathostomata		Eukaryota	Paracanthopterygii	V3164-03
upon | cable | nil	cruise	Stomphia	434.98	3164	02:39:57:25	 	36.799404	-122.18706	2452351	0.77	10:27.0	Ventana	34.203	02:40:02:06	6.319	Anthozoa	Actinostolidae	Stomphia			Animalia	Actiniaria	Cnidaria		Hexacorallia			Nyantheae				Eukaryota		V3164-03
upon | cable | nil	transect	Liponema brevicornis	435.43	3164	02:41:56:06	http://search.mbari.org/ARCHIVE/frameGrabs/Ventana/images/3164/02_42_00_23.jpg	36.79938	-122.18705	2452385	0.76	12:26.0	Ventana	34.205	02:42:00:23	6.317	Anthozoa	Liponematidae	Liponema			Animalia	Actiniaria	Cnidaria	Liponema brevicornis	Hexacorallia			Nyantheae				Eukaryota		V3164-03
upon | cable | nil	transect	Liponema brevicornis	435.49	3164	02:42:10:21	http://search.mbari.org/ARCHIVE/frameGrabs/Ventana/images/3164/02_42_14_09.jpg	36.79939	-122.18705	2452403	0.76	12:40.0	Ventana	34.205	02:42:14:09	6.316	Anthozoa	Liponematidae	Liponema			Animalia	Actiniaria	Cnidaria	Liponema brevicornis	Hexacorallia			Nyantheae				Eukaryota		V3164-03
relative-size | self | small	transect	Asteroidea	435.61	3164	02:42:28:20	 	36.799416	-122.18704	2452447	0.76	12:58.0	Ventana	34.206	02:42:31:23	6.315						Animalia		Echinodermata		Asteroidea							Eukaryota		V3164-03
upon | cable | nil	transect	Liponema brevicornis	435.49	3164	02:42:42:20	http://search.mbari.org/ARCHIVE/frameGrabs/Ventana/images/3164/02_42_46_11.jpg	36.79944	-122.187035	2452462	0.76	13:12.0	Ventana	34.206	02:42:46:11	6.315	Anthozoa	Liponematidae	Liponema			Animalia	Actiniaria	Cnidaria	Liponema brevicornis	Hexacorallia			Nyantheae				Eukaryota		V3164-03
"relative-size | self | small, upon | cable | nil"	transect	Stomphia	435.3	3164	02:43:08:19	 	36.799496	-122.187004	2453436	0.76	13:38.0	Ventana	34.205	02:43:12:19	6.317	Anthozoa	Actinostolidae	Stomphia			Animalia	Actiniaria	Cnidaria		Hexacorallia			Nyantheae				Eukaryota		V3164-03
relative-size | self | small	transect	Asteroidea	434.79	3164	02:43:49:03	 	36.79959	-122.18696	2453473	0.77	14:18.0	Ventana	34.205	02:43:52:14	6.318						Animalia		Echinodermata		Asteroidea							Eukaryota		V3164-03
upon | cable | nil	transect	Liponema brevicornis	434.22	3164	02:44:29:02	 	36.799713	-122.18693	2453491	0.77	14:59.0	Ventana	34.205	02:44:33:23	6.317	Anthozoa	Liponematidae	Liponema			Animalia	Actiniaria	Cnidaria	Liponema brevicornis	Hexacorallia			Nyantheae				Eukaryota		V3164-03
upon | cable | nil	transect	Liponema brevicornis	434.16	3164	02:44:33:02	 	36.799725	-122.18692	2453495	0.77	15:03.0	Ventana	34.205	02:44:37:20	6.317	Anthozoa	Liponematidae	Liponema			Animalia	Actiniaria	Cnidaria	Liponema brevicornis	Hexacorallia			Nyantheae				Eukaryota		V3164-03
upon | cable | nil	transect	Liponema brevicornis	434.14	3164	02:44:35:02	 	36.79973	-122.18692	2453498	0.77	15:05.0	Ventana	34.205	02:44:39:03	6.317	Anthozoa	Liponematidae	Liponema			Animalia	Actiniaria	Cnidaria	Liponema brevicornis	Hexacorallia			Nyantheae				Eukaryota		V3164-03
upon | cable | nil	transect	Stomphia	434.02	3164	02:44:41:02	 	36.799747	-122.18691	2453499	0.77	15:11.0	Ventana	34.205	02:44:45:14	6.316	Anthozoa	Actinostolidae	Stomphia			Animalia	Actiniaria	Cnidaria		Hexacorallia			Nyantheae				Eukaryota		V3164-03
upon | cable | nil	transect	Liponema brevicornis	434.01	3164	02:44:43:01	 	36.79975	-122.186905	2453500	0.77	15:13.0	Ventana	34.205	02:44:47:00	6.316	Anthozoa	Liponematidae	Liponema			Animalia	Actiniaria	Cnidaria	Liponema brevicornis	Hexacorallia			Nyantheae				Eukaryota		V3164-03
upon | cable | nil	transect	Stomphia	433.96	3164	02:44:47:01	 	36.799763	-122.186905	2453504	0.77	15:17.0	Ventana	34.205	02:44:52:03	6.316	Anthozoa	Actinostolidae	Stomphia			Animalia	Actiniaria	Cnidaria		Hexacorallia			Nyantheae				Eukaryota		V3164-03
upon | cable | nil	transect	Liponema brevicornis	433.64	3164	02:45:01:01	 	36.7998	-122.18688	2453511	0.77	15:31.0	Ventana	34.204	02:45:05:19	6.317	Anthozoa	Liponematidae	Liponema			Animalia	Actiniaria	Cnidaria	Liponema brevicornis	Hexacorallia			Nyantheae				Eukaryota		V3164-03
upon | cable | nil	transect	Liponema brevicornis	433.36	3164	02:45:15:01	 	36.79984	-122.18686	2453518	0.77	15:45.0	Ventana	34.204	02:45:19:01	6.317	Anthozoa	Liponematidae	Liponema			Animalia	Actiniaria	Cnidaria	Liponema brevicornis	Hexacorallia			Nyantheae				Eukaryota		V3164-03
relative-size | self | small	transect	Asteroidea	433.36	3164	02:45:15:01	 	36.79984	-122.18686	2453520	0.77	15:45.0	Ventana	34.204	02:45:19:01	6.317						Animalia		Echinodermata		Asteroidea							Eukaryota		V3164-03
upon | cable | nil	transect	Liponema brevicornis	433.13	3164	02:45:23:00	 	36.799862	-122.186844	2453524	0.77	15:53.0	Ventana	34.204	02:45:28:00	6.318	Anthozoa	Liponematidae	Liponema			Animalia	Actiniaria	Cnidaria	Liponema brevicornis	Hexacorallia			Nyantheae				Eukaryota		V3164-03
upon | cable | nil	transect	Liponema brevicornis	432.96	3164	02:45:27:15	 	36.799873	-122.18684	2453531	0.77	15:57.0	Ventana	34.204	02:45:31:10	6.318	Anthozoa	Liponematidae	Liponema			Animalia	Actiniaria	Cnidaria	Liponema brevicornis	Hexacorallia			Nyantheae				Eukaryota		V3164-03
upon | cable | nil	transect	Liponema brevicornis	432.67	3164	02:45:39:15	 	36.799908	-122.186806	2453536	0.77	16:09.0	Ventana	34.204	02:45:43:06	6.318	Anthozoa	Liponematidae	Liponema			Animalia	Actiniaria	Cnidaria	Liponema brevicornis	Hexacorallia			Nyantheae				Eukaryota		V3164-03
upon | cable | nil	transect	Stomphia	432.37	3164	02:45:59:14	 	36.799957	-122.18676	2453576	0.77	16:29.0	Ventana	34.204	02:46:03:01	6.316	Anthozoa	Actinostolidae	Stomphia			Animalia	Actiniaria	Cnidaria		Hexacorallia			Nyantheae				Eukaryota		V3164-03
"identity-gender | self | female, comment | self | cable taut upon seafloor, habitat | self | flat mud"	transect	Raja rhina	432	3164	02:46:13:14	http://search.mbari.org/ARCHIVE/frameGrabs/Ventana/images/3164/02_46_17_17.jpg	36.799995	-122.18673	2453616	0.77	16:43.0	Ventana	34.204	02:46:17:17	6.316	Chondrichthyes	Rajidae	Raja			Animalia	Rajiformes	Chordata	Raja rhina	Elasmobranchii				Vertebrata			Eukaryota	Batoidea	V3164-03
upon | cable | nil	transect	Stomphia	431.99	3164	02:46:15:14	 	36.8	-122.18672	2453673	0.77	16:45.0	Ventana	34.204	02:46:19:05	6.316	Anthozoa	Actinostolidae	Stomphia			Animalia	Actiniaria	Cnidaria		Hexacorallia			Nyantheae				Eukaryota		V3164-03
upon | cable | nil	transect	Stomphia	431.58	3164	02:46:33:13	 	36.80005	-122.186676	2453691	0.77	17:03.0	Ventana	34.204	02:46:38:14	6.318	Anthozoa	Actinostolidae	Stomphia			Animalia	Actiniaria	Cnidaria		Hexacorallia			Nyantheae				Eukaryota		V3164-03
upon | cable | nil	transect	Liponema brevicornis	431.32	3164	02:46:43:13	 	36.800076	-122.186646	2453694	0.77	17:13.0	Ventana	34.204	02:46:48:04	6.319	Anthozoa	Liponematidae	Liponema			Animalia	Actiniaria	Cnidaria	Liponema brevicornis	Hexacorallia			Nyantheae				Eukaryota		V3164-03
upon | cable | nil	transect	Stomphia	430.65	3164	02:47:25:26	http://search.mbari.org/ARCHIVE/frameGrabs/Ventana/images/3164/02_47_30_23.jpg	36.8002	-122.18652	2453738	0.77	17:56.0	Ventana	34.205	02:47:30:23	6.317	Anthozoa	Actinostolidae	Stomphia			Animalia	Actiniaria	Cnidaria		Hexacorallia			Nyantheae				Eukaryota		V3164-03
upon | cable | nil	transect	Liponema brevicornis	430.54	3164	02:47:31:26	 	36.800217	-122.18651	2453747	0.77	18:02.0	Ventana	34.205	02:47:36:10	6.317	Anthozoa	Liponematidae	Liponema			Animalia	Actiniaria	Cnidaria	Liponema brevicornis	Hexacorallia			Nyantheae				Eukaryota		V3164-03
upon | cable | nil	transect	Liponema brevicornis	430.54	3164	02:47:31:26	 	36.800217	-122.18651	2453748	0.77	18:02.0	Ventana	34.205	02:47:36:10	6.317	Anthozoa	Liponematidae	Liponema			Animalia	Actiniaria	Cnidaria	Liponema brevicornis	Hexacorallia			Nyantheae				Eukaryota		V3164-03
upon | cable | nil	transect	Liponema brevicornis	430.46	3164	02:47:33:26	 	36.800224	-122.1865	2453750	0.77	18:04.0	Ventana	34.205	02:47:38:19	6.317	Anthozoa	Liponematidae	Liponema			Animalia	Actiniaria	Cnidaria	Liponema brevicornis	Hexacorallia			Nyantheae				Eukaryota		V3164-03
upon | cable | nil	transect	Stomphia	430.37	3164	02:47:39:26	 	36.80024	-122.186485	2453754	0.77	18:10.0	Ventana	34.204	02:47:44:20	6.316	Anthozoa	Actinostolidae	Stomphia			Animalia	Actiniaria	Cnidaria		Hexacorallia			Nyantheae				Eukaryota		V3164-03
upon | cable | nil	transect	Liponema brevicornis	429.48	3164	02:48:17:25	 	36.80034	-122.186424	2454231	0.77	18:48.0	Ventana	34.205	02:48:23:10	6.314	Anthozoa	Liponematidae	Liponema			Animalia	Actiniaria	Cnidaria	Liponema brevicornis	Hexacorallia			Nyantheae				Eukaryota		V3164-03
relative-size | self | small	transect	Asteroidea	429.18	3164	02:48:35:24	 	36.80038	-122.1864	2454254	0.77	19:06.0	Ventana	34.205	02:48:40:16	6.313						Animalia		Echinodermata		Asteroidea							Eukaryota		V3164-03
upon | cable | nil	transect	Liponema brevicornis	429.04	3164	02:48:50:09	 	36.80041	-122.186386	2454279	0.77	19:20.0	Ventana	34.205	02:48:53:28	6.312	Anthozoa	Liponematidae	Liponema			Animalia	Actiniaria	Cnidaria	Liponema brevicornis	Hexacorallia			Nyantheae				Eukaryota		V3164-03
audio-comment | self | station B transect A	endtransect	physical object	428.59	3164	02:49:06:08	 	36.800434	-122.18637	2454303	0.77	19:36.0	Ventana	34.204	02:49:10:15	6.311																			V3164-03
population-quantity | self | 999	cruise	Rathbunaster californicus	428.65	3164	02:49:24:08	 	36.80045	-122.186356	2454316	0.77	19:54.0	Ventana	34.205	02:49:29:04	6.313		Labidiasteridae	Rathbunaster			Animalia	Forcipulatida	Echinodermata	Rathbunaster californicus	Asteroidea							Eukaryota		V3164-03
population-quantity | self | 999	cruise	rock	429.42	3164	02:50:32:20	 	36.80037	-122.18617	2454330	0.77	21:02.0	Ventana	34.205	02:50:36:24	6.312																			V3164-03
population-quantity | self | 999	cruise	Asbestopluma	429.97	3164	02:51:08:19	 	36.800243	-122.18601	2454345	0.77	21:39.0	Ventana	34.205	02:51:13:29	6.312	Demospongiae	Cladorhizidae	Asbestopluma			Animalia	Poecilosclerida	Porifera					Mycalina				Eukaryota		V3164-03
population-quantity | self | 999	cruise	Asteroidea	429.98	3164	02:51:10:20	 	36.80024	-122.186005	2454351	0.77	21:41.0	Ventana	34.205	02:51:15:12	6.312						Animalia		Echinodermata		Asteroidea							Eukaryota		V3164-03
population-quantity | self | 999	cruise	Rathbunaster californicus	430.18	3164	02:51:30:19	 	36.80019	-122.18594	2454355	0.77	22:01.0	Ventana	34.204	02:51:34:23	6.313		Labidiasteridae	Rathbunaster			Animalia	Forcipulatida	Echinodermata	Rathbunaster californicus	Asteroidea							Eukaryota		V3164-03
relative-size | self | small	transect	Asteroidea	431.8	3164	02:53:25:00	 	36.799976	-122.18598	2454426	0.77	23:55.0	Ventana	34.204	02:53:30:04	6.315						Animalia		Echinodermata		Asteroidea							Eukaryota		V3164-03
"comment | self | transect - no cable nearby, identity-gender | self | male, habitat | self | flat mud"	transect	Bathyraja kincaidii	432.33	3164	02:54:19:14	http://search.mbari.org/ARCHIVE/frameGrabs/Ventana/images/3164/02_54_24_13.jpg	36.79986	-122.186104	2454495	0.77	24:50.0	Ventana	34.204	02:54:24:13	6.316	Chondrichthyes	Arhynchobatidae	Bathyraja			Animalia	Rajiformes	Chordata	Bathyraja kincaidii	Elasmobranchii				Vertebrata			Eukaryota	Batoidea	V3164-03
relative-size | self | small	transect	Asteroidea	432.9	3164	02:55:15:27	 	36.79974	-122.18624	2454525	0.77	25:46.0	Ventana	34.203	02:55:19:04	6.323						Animalia		Echinodermata		Asteroidea							Eukaryota		V3164-03
comment | self | station B transect B	endtransect	physical object	435.71	3164	02:58:40:21	 	36.799408	-122.18662	2454629	0.76	29:11.0	Ventana	34.205	02:58:44:11	6.315																			V3164-03
population-quantity | self | 999	cruise	rock	435.7	3164	02:58:46:20	 	36.799408	-122.18662	2454635	0.76	29:17.0	Ventana	34.205	02:58:51:20	6.315																			V3164-03
population-quantity | self | 999	cruise	Porifera	435.73	3164	02:58:52:20	 	36.79941	-122.18663	2454637	0.76	29:23.0	Ventana	34.204	02:58:57:14	6.316						Animalia		Porifera									Eukaryota		V3164-03
population-quantity | self | 999	cruise	Actiniaria sp. 3	435.77	3164	02:59:34:19	 	36.799507	-122.186615	2454640	0.77	30:05.0	Ventana	34.205	02:59:39:17	6.315	Anthozoa					Animalia	Actiniaria	Cnidaria		Hexacorallia							Eukaryota		V3164-03
population-quantity | self | 999	cruise	Asbestopluma	434.88	3164	02:59:42:19	 	36.79954	-122.186615	2454641	0.77	30:13.0	Ventana	34.205	02:59:46:18	6.315	Demospongiae	Cladorhizidae	Asbestopluma			Animalia	Poecilosclerida	Porifera					Mycalina				Eukaryota		V3164-03
population-quantity | self | 999	cruise	Rathbunaster californicus	434.73	3164	02:59:50:19	 	36.79958	-122.1866	2454642	0.77	30:21.0	Ventana	34.205	02:59:55:16	6.315		Labidiasteridae	Rathbunaster			Animalia	Forcipulatida	Echinodermata	Rathbunaster californicus	Asteroidea							Eukaryota		V3164-03
population-quantity | self | 999	cruise	Asbestopluma	432.64	3164	03:00:43:02	 	36.799892	-122.18648	2454647	0.78	31:14.0	Ventana	34.201	03:00:47:20	6.331	Demospongiae	Cladorhizidae	Asbestopluma			Animalia	Poecilosclerida	Porifera					Mycalina				Eukaryota		V3164-03
population-quantity | self | 999	cruise	Rathbunaster californicus	431.56	3164	03:01:05:01	 	36.80001	-122.18643	2454649	0.78	31:36.0	Ventana	34.201	03:01:10:17	6.327		Labidiasteridae	Rathbunaster			Animalia	Forcipulatida	Echinodermata	Rathbunaster californicus	Asteroidea							Eukaryota		V3164-03
population-quantity | self | 999	cruise	rock	430.6	3164	03:01:35:00	 	36.80017	-122.18637	2454653	0.78	32:06.0	Ventana	34.202	03:01:38:24	6.326																			V3164-03
comment | self | back to cable route	cruise	cable	429.83	3164	03:02:01:14	 	36.80029	-122.18633	2454655	0.79	32:32.0	Ventana	34.2	03:02:06:13	6.347																			V3164-03
population-quantity | self | 999	cruise	Rathbunaster californicus	429.4	3164	03:02:33:13	 	36.800426	-122.18629	2455835	0.8	33:04.0	Ventana	34.199	03:02:38:28	6.364		Labidiasteridae	Rathbunaster			Animalia	Forcipulatida	Echinodermata	Rathbunaster californicus	Asteroidea							Eukaryota		V3164-03
population-quantity | self | 999	cruise	Porifera	429.4	3164	03:02:33:13	 	36.800426	-122.18629	2455838	0.8	33:04.0	Ventana	34.199	03:02:38:28	6.364						Animalia		Porifera									Eukaryota		V3164-03
population-quantity | self | 999	cruise	Rathbunaster californicus	427.36	3164	03:03:57:26	 	36.800816	-122.18609	2455845	0.78	34:29.0	Ventana	34.202	03:04:02:11	6.323		Labidiasteridae	Rathbunaster			Animalia	Forcipulatida	Echinodermata	Rathbunaster californicus	Asteroidea							Eukaryota		V3164-03
upon | cable | nil	cruise	Liponema brevicornis	427.25	3164	03:04:01:26	 	36.80083	-122.18607	2455846	0.78	34:33.0	Ventana	34.202	03:04:06:05	6.323	Anthozoa	Liponematidae	Liponema			Animalia	Actiniaria	Cnidaria	Liponema brevicornis	Hexacorallia			Nyantheae				Eukaryota		V3164-03
population-quantity | self | 999	cruise	Rathbunaster californicus	427.3	3164	03:04:29:25	 	36.800926	-122.18597	2455850	0.77	35:01.0	Ventana	34.205	03:04:34:20	6.309		Labidiasteridae	Rathbunaster			Animalia	Forcipulatida	Echinodermata	Rathbunaster californicus	Asteroidea							Eukaryota		V3164-03
population-quantity | self | 999	cruise	Microstomus pacificus	426.87	3164	03:04:53:24	 	36.801018	-122.185875	2455853	0.76	35:25.0	Ventana	34.205	03:04:57:19	6.306	Osteichthyes	Pleuronectidae	Microstomus	Neopterygii		Animalia	Pleuronectiformes	Chordata	Microstomus pacificus	Actinopterygii				Vertebrata	Gnathostomata		Eukaryota	Acanthopterygii	V3164-03
population-quantity | self | 999	cruise	Rathbunaster californicus	426.83	3164	03:04:59:24	 	36.80104	-122.18586	2455854	0.76	35:31.0	Ventana	34.205	03:05:05:01	6.306		Labidiasteridae	Rathbunaster			Animalia	Forcipulatida	Echinodermata	Rathbunaster californicus	Asteroidea							Eukaryota		V3164-03
population-quantity | self | 999	cruise	Allocentrotus fragilis	426.9	3164	03:05:08:09	 	36.801075	-122.18583	2455855	0.76	35:39.0	Ventana	34.206	03:05:12:00	6.304	Echinoidea	Strongylocentrotidae	Allocentrotus			Animalia	Echinoida	Echinodermata	Allocentrotus fragilis	Euechinoidea			Echinacea				Eukaryota		V3164-03
population-quantity | self | 999	cruise	Rathbunaster californicus	428.53	3164	03:03:07:12	 	36.80057	-122.18624	2455856	0.8	33:38.0	Ventana	34.198	03:03:11:14	6.372		Labidiasteridae	Rathbunaster			Animalia	Forcipulatida	Echinodermata	Rathbunaster californicus	Asteroidea							Eukaryota		V3164-03
population-quantity | self | 999	cruise	Microstomus pacificus	428.11	3164	03:03:23:27	 	36.800648	-122.1862	2455857	0.79	33:54.0	Ventana	34.199	03:03:28:04	6.356	Osteichthyes	Pleuronectidae	Microstomus	Neopterygii		Animalia	Pleuronectiformes	Chordata	Microstomus pacificus	Actinopterygii				Vertebrata	Gnathostomata		Eukaryota	Acanthopterygii	V3164-03
identity-reference | self | start: cable visible upon seafloor	cruise	cable	429.86	3164	03:02:03:14	http://search.mbari.org/ARCHIVE/frameGrabs/Ventana/images/3164/03_03_48_17.jpg	36.8003	-122.186325	2455861	0.79	32:34.0	Ventana	34.2	03:02:07:00	6.347																			V3164-03
population-quantity | self | 999	cruise	Rathbunaster californicus	427.04	3164	03:05:32:09	 	36.80119	-122.18574	2455876	0.76	36:03.0	Ventana	34.205	03:05:36:28	6.304		Labidiasteridae	Rathbunaster			Animalia	Forcipulatida	Echinodermata	Rathbunaster californicus	Asteroidea							Eukaryota		V3164-03
population-quantity | self | 999	cruise	Allocentrotus fragilis	426.91	3164	03:05:42:09	 	36.80124	-122.1857	2455877	0.76	36:13.0	Ventana	34.205	03:05:46:03	6.302	Echinoidea	Strongylocentrotidae	Allocentrotus			Animalia	Echinoida	Echinodermata	Allocentrotus fragilis	Euechinoidea			Echinacea				Eukaryota		V3164-03
population-quantity | self | 999	cruise	Allocentrotus fragilis	427.01	3164	03:06:30:07	 	36.801502	-122.18552	2455882	0.74	37:01.0	Ventana	34.21	03:06:34:22	6.275	Echinoidea	Strongylocentrotidae	Allocentrotus			Animalia	Echinoida	Echinodermata	Allocentrotus fragilis	Euechinoidea			Echinacea				Eukaryota		V3164-03
population-quantity | self | 999	cruise	Rathbunaster californicus	427.6	3164	03:07:08:21	 	36.80169	-122.18534	2455887	0.74	37:40.0	Ventana	34.211	03:07:13:23	6.253		Labidiasteridae	Rathbunaster			Animalia	Forcipulatida	Echinodermata	Rathbunaster californicus	Asteroidea							Eukaryota		V3164-03
identity-reference | self | start: minor span	cruise	cable	427.66	3164	03:07:22:20	 	36.801746	-122.18528	2455891	0.73	37:54.0	Ventana	34.212	03:07:26:22	6.242																			V3164-03
population-quantity | self | 999	cruise	Rathbunaster californicus	427.89	3164	03:07:34:20	 	36.80179	-122.18524	2455896	0.73	38:06.0	Ventana	34.212	03:07:39:22	6.242		Labidiasteridae	Rathbunaster			Animalia	Forcipulatida	Echinodermata	Rathbunaster californicus	Asteroidea							Eukaryota		V3164-03
"identity-gender | self | female, comment | self | cable minor suspension, habitat | self | flat mud"	cruise	Bathyraja kincaidii	428.05	3164	03:07:42:19	http://search.mbari.org/ARCHIVE/frameGrabs/Ventana/images/3164/03_07_47_21.jpg	36.801815	-122.18521	2455902	0.73	38:14.0	Ventana	34.211	03:07:47:21	6.246	Chondrichthyes	Arhynchobatidae	Bathyraja			Animalia	Rajiformes	Chordata	Bathyraja kincaidii	Elasmobranchii				Vertebrata			Eukaryota	Batoidea	V3164-03
identity-reference | self | end: minor span	cruise	cable	427.77	3164	03:08:14:19	 	36.801914	-122.18512	2455922	0.72	38:46.0	Ventana	34.213	03:08:19:20	6.235																			V3164-03
population-quantity | self | 999	cruise	Rathbunaster californicus	427.31	3164	03:08:29:03	 	36.80194	-122.1851	2455926	0.72	39:00.0	Ventana	34.213	03:08:33:21	6.238		Labidiasteridae	Rathbunaster			Animalia	Forcipulatida	Echinodermata	Rathbunaster californicus	Asteroidea							Eukaryota		V3164-03
population-quantity | self | 999	cruise	rock	426.4	3164	03:09:09:02	 	36.802258	-122.18487	2455930	0.73	39:40.0	Ventana	34.212	03:09:13:16	6.258																			V3164-03
"comment | self | cable upon seafloor, habitat | self | flat mud, life-stage | self | juvenile"	cruise	Raja rhina	425.62	3164	03:09:30:20	 	36.802612	-122.184586	2456503	0.71	40:53.0	Ventana	34.217	03:09:38:08	6.231	Chondrichthyes	Rajidae	Raja			Animalia	Rajiformes	Chordata	Raja rhina	Elasmobranchii				Vertebrata			Eukaryota	Batoidea	V3164-04
population-quantity | self | 999	cruise	Rathbunaster californicus	425.51	3164	03:09:40:20	 	36.802658	-122.18455	2456506	0.71	41:03.0	Ventana	34.217	03:09:49:06	6.231		Labidiasteridae	Rathbunaster			Animalia	Forcipulatida	Echinodermata	Rathbunaster californicus	Asteroidea							Eukaryota		V3164-04
population-quantity | self | 999	cruise	Rathbunaster californicus	425.47	3164	03:09:46:19	 	36.802685	-122.184525	2456507	0.71	41:09.0	Ventana	34.216	03:09:55:26	6.237		Labidiasteridae	Rathbunaster			Animalia	Forcipulatida	Echinodermata	Rathbunaster californicus	Asteroidea							Eukaryota		V3164-04
population-quantity | self | 999	cruise	Porifera	425.42	3164	03:09:56:19	 	36.80273	-122.18448	2456508	0.71	41:19.0	Ventana	34.216	03:10:04:00	6.237						Animalia		Porifera									Eukaryota		V3164-04
upon | cable | nil	cruise	Liponema brevicornis	425.33	3164	03:10:00:19	 	36.80275	-122.18446	2456510	0.71	41:23.0	Ventana	34.216	03:10:08:15	6.238	Anthozoa	Liponematidae	Liponema			Animalia	Actiniaria	Cnidaria	Liponema brevicornis	Hexacorallia			Nyantheae				Eukaryota		V3164-04
population-quantity | self | 999	cruise	Allocentrotus fragilis	424.92	3164	03:10:18:18	 	36.80283	-122.184395	2456511	0.71	41:41.0	Ventana	34.214	03:10:26:12	6.246	Echinoidea	Strongylocentrotidae	Allocentrotus			Animalia	Echinoida	Echinodermata	Allocentrotus fragilis	Euechinoidea			Echinacea				Eukaryota		V3164-04
population-quantity | self | 999	cruise	Rathbunaster californicus	424.55	3164	03:10:37:03	 	36.80291	-122.18431	2456517	0.72	41:59.0	Ventana	34.214	03:10:45:20	6.253		Labidiasteridae	Rathbunaster			Animalia	Forcipulatida	Echinodermata	Rathbunaster californicus	Asteroidea							Eukaryota		V3164-04
population-quantity | self | 999	cruise	Rathbunaster californicus	424.25	3164	03:11:29:01	 	36.803097	-122.1841	2456520	0.71	42:51.0	Ventana	34.215	03:11:36:19	6.243		Labidiasteridae	Rathbunaster			Animalia	Forcipulatida	Echinodermata	Rathbunaster californicus	Asteroidea							Eukaryota		V3164-04
population-quantity | self | 999	cruise	Sebastes	423.95	3164	03:11:57:00	 	36.8032	-122.184	2456523	0.72	43:19.0	Ventana	34.213	03:12:04:27	6.249	Osteichthyes	Scorpaenidae	Sebastes	Neopterygii		Animalia	Scorpaeniformes	Chordata		Actinopterygii			Scorpaenoidei	Vertebrata	Gnathostomata		Eukaryota	Acanthopterygii	V3164-04
population-quantity | self | 999	cruise	Allocentrotus fragilis	423.98	3164	03:12:23:15	 	36.803303	-122.18389	2456533	0.71	43:45.0	Ventana	34.217	03:12:30:10	6.237	Echinoidea	Strongylocentrotidae	Allocentrotus			Animalia	Echinoida	Echinodermata	Allocentrotus fragilis	Euechinoidea			Echinacea				Eukaryota		V3164-04
population-quantity | self | 999	cruise	Rathbunaster californicus	423.93	3164	03:12:31:14	 	36.803333	-122.18386	2456534	0.71	43:53.0	Ventana	34.215	03:12:39:26	6.233		Labidiasteridae	Rathbunaster			Animalia	Forcipulatida	Echinodermata	Rathbunaster californicus	Asteroidea							Eukaryota		V3164-04
population-quantity | self | 999	cruise	Allocentrotus fragilis	423.9	3164	03:12:39:14	 	36.803368	-122.18383	2456537	0.71	44:02.0	Ventana	34.215	03:12:47:08	6.233	Echinoidea	Strongylocentrotidae	Allocentrotus			Animalia	Echinoida	Echinodermata	Allocentrotus fragilis	Euechinoidea			Echinacea				Eukaryota		V3164-04
population-quantity | self | 999	cruise	Allocentrotus fragilis	423.82	3164	03:13:41:12	 	36.803585	-122.18361	2456553	0.71	45:04.0	Ventana	34.215	03:13:50:00	6.229	Echinoidea	Strongylocentrotidae	Allocentrotus			Animalia	Echinoida	Echinodermata	Allocentrotus fragilis	Euechinoidea			Echinacea				Eukaryota		V3164-04
population-quantity | self | 999	cruise	Rathbunaster californicus	423.87	3164	03:14:05:26	 	36.803677	-122.183525	2456560	0.71	45:28.0	Ventana	34.213	03:14:15:04	6.23		Labidiasteridae	Rathbunaster			Animalia	Forcipulatida	Echinodermata	Rathbunaster californicus	Asteroidea							Eukaryota		V3164-04
population-quantity | self | 999	cruise	Allocentrotus fragilis	424.24	3164	03:14:29:26	 	36.803776	-122.18343	2456561	0.71	45:52.0	Ventana	34.214	03:14:37:07	6.228	Echinoidea	Strongylocentrotidae	Allocentrotus			Animalia	Echinoida	Echinodermata	Allocentrotus fragilis	Euechinoidea			Echinacea				Eukaryota		V3164-04
population-quantity | self | 999	cruise	Allocentrotus fragilis	424.36	3164	03:15:12:09	 	36.803963	-122.18327	2456570	0.71	46:34.0	Ventana	34.216	03:15:20:22	6.228	Echinoidea	Strongylocentrotidae	Allocentrotus			Animalia	Echinoida	Echinodermata	Allocentrotus fragilis	Euechinoidea			Echinacea				Eukaryota		V3164-04
population-quantity | self | 999	cruise	Allocentrotus fragilis	424.37	3164	03:15:20:09	 	36.803997	-122.18324	2456594	0.71	46:42.0	Ventana	34.215	03:15:27:25	6.228	Echinoidea	Strongylocentrotidae	Allocentrotus			Animalia	Echinoida	Echinodermata	Allocentrotus fragilis	Euechinoidea			Echinacea				Eukaryota		V3164-04
identity-reference | self | start: minor span	cruise	cable	424.48	3164	03:15:24:09	 	36.804012	-122.18323	2456598	0.71	46:46.0	Ventana	34.215	03:15:31:16	6.228																			V3164-04
identity-reference | self | end: minor span	cruise	cable	424.5	3164	03:15:42:08	 	36.804096	-122.18316	2456605	0.71	47:05.0	Ventana	34.214	03:15:51:14	6.23																			V3164-04
population-quantity | self | 999	cruise	Rathbunaster californicus	423.57	3164	03:16:48:07	 	36.804306	-122.182976	2456616	0.72	48:11.0	Ventana	34.215	03:16:56:03	6.233		Labidiasteridae	Rathbunaster			Animalia	Forcipulatida	Echinodermata	Rathbunaster californicus	Asteroidea							Eukaryota		V3164-04
population-quantity | self | 999	cruise	Rathbunaster californicus	423.22	3164	03:17:22:20	 	36.804405	-122.18287	2456623	0.72	48:45.0	Ventana	34.214	03:17:31:01	6.234		Labidiasteridae	Rathbunaster			Animalia	Forcipulatida	Echinodermata	Rathbunaster californicus	Asteroidea							Eukaryota		V3164-04
population-quantity | self | 999	cruise	Allocentrotus fragilis	423.09	3164	03:17:26:20	 	36.80442	-122.18285	2456624	0.72	48:49.0	Ventana	34.214	03:17:34:25	6.234	Echinoidea	Strongylocentrotidae	Allocentrotus			Animalia	Echinoida	Echinodermata	Allocentrotus fragilis	Euechinoidea			Echinacea				Eukaryota		V3164-04
population-quantity | self | 999	cruise	Allocentrotus fragilis	422.72	3164	03:17:52:19	 	36.8045	-122.18275	2456626	0.72	49:15.0	Ventana	34.214	03:18:01:27	6.234	Echinoidea	Strongylocentrotidae	Allocentrotus			Animalia	Echinoida	Echinodermata	Allocentrotus fragilis	Euechinoidea			Echinacea				Eukaryota		V3164-04
population-quantity | self | 999	cruise	Sebastes	422.45	3164	03:18:33:03	 	36.80463	-122.18259	2456627	0.72	49:55.0	Ventana	34.214	03:18:41:03	6.235	Osteichthyes	Scorpaenidae	Sebastes	Neopterygii		Animalia	Scorpaeniformes	Chordata		Actinopterygii			Scorpaenoidei	Vertebrata	Gnathostomata		Eukaryota	Acanthopterygii	V3164-04
identity-reference | self | start: minor span	cruise	cable	422.01	3164	03:18:57:02	http://search.mbari.org/ARCHIVE/frameGrabs/Ventana/images/3164/03_19_05_11.jpg	36.80472	-122.182495	2456638	0.72	50:19.0	Ventana	34.214	03:19:05:11	6.234																			V3164-04
upon | cable | nil	cruise	Liponema brevicornis	421.86	3164	03:19:01:02	 	36.80474	-122.18247	2456640	0.72	50:24.0	Ventana	34.214	03:19:09:08	6.234	Anthozoa	Liponematidae	Liponema			Animalia	Actiniaria	Cnidaria	Liponema brevicornis	Hexacorallia			Nyantheae				Eukaryota		V3164-04
identity-reference | self | end: minor span	cruise	cable	422.11	3164	03:19:27:02	http://search.mbari.org/ARCHIVE/frameGrabs/Ventana/images/3164/03_19_35_06.jpg	36.804863	-122.182365	2456644	0.72	50:50.0	Ventana	34.214	03:19:35:06	6.233																			V3164-04
population-quantity | self | 999	cruise	Rathbunaster californicus	422.02	3164	03:19:13:02	 	36.804794	-122.18243	2456647	0.72	50:36.0	Ventana	34.214	03:19:21:06	6.234		Labidiasteridae	Rathbunaster			Animalia	Forcipulatida	Echinodermata	Rathbunaster californicus	Asteroidea							Eukaryota		V3164-04
"population-quantity | self | 999, upon | cable | nil"	cruise	Liponema brevicornis	421.9	3164	03:19:35:01	 	36.8049	-122.182335	2456649	0.72	50:58.0	Ventana	34.214	03:19:43:27	6.233	Anthozoa	Liponematidae	Liponema			Animalia	Actiniaria	Cnidaria	Liponema brevicornis	Hexacorallia			Nyantheae				Eukaryota		V3164-04
population-quantity | self | 999	cruise	Rathbunaster californicus	421.36	3164	03:19:59:00	 	36.80504	-122.18222	2456650	0.72	51:22.0	Ventana	34.213	03:20:07:16	6.236		Labidiasteridae	Rathbunaster			Animalia	Forcipulatida	Echinodermata	Rathbunaster californicus	Asteroidea							Eukaryota		V3164-04
population-quantity | self | 999	cruise	Rathbunaster californicus	421.38	3164	03:20:23:15	 	36.805164	-122.18213	2456651	0.72	51:46.0	Ventana	34.213	03:20:30:26	6.238		Labidiasteridae	Rathbunaster			Animalia	Forcipulatida	Echinodermata	Rathbunaster californicus	Asteroidea							Eukaryota		V3164-04
population-quantity | self | 999	cruise	Allocentrotus fragilis	421.46	3164	03:20:27:15	 	36.805183	-122.18211	2456652	0.72	51:50.0	Ventana	34.213	03:20:35:06	6.238	Echinoidea	Strongylocentrotidae	Allocentrotus			Animalia	Echinoida	Echinodermata	Allocentrotus fragilis	Euechinoidea			Echinacea				Eukaryota		V3164-04
population-quantity | self | 999	cruise	Allocentrotus fragilis	420.89	3164	03:21:01:14	 	36.805332	-122.18198	2456658	0.72	52:24.0	Ventana	34.213	03:21:09:19	6.238	Echinoidea	Strongylocentrotidae	Allocentrotus			Animalia	Echinoida	Echinodermata	Allocentrotus fragilis	Euechinoidea			Echinacea				Eukaryota		V3164-04
"comment | self | yikes, Linda is driving the rov!"	cruise	cable	421.01	3164	03:21:07:13	 	36.80536	-122.18195	2456659	0.72	52:30.0	Ventana	34.213	03:21:16:00	6.238																			V3164-04
population-quantity | self | 999	cruise	Rathbunaster californicus	420.71	3164	03:21:25:13	 	36.805435	-122.1819	2456660	0.72	52:48.0	Ventana	34.213	03:21:34:18	6.242		Labidiasteridae	Rathbunaster			Animalia	Forcipulatida	Echinodermata	Rathbunaster californicus	Asteroidea							Eukaryota		V3164-04
population-quantity | self | 999	cruise	Allocentrotus fragilis	420.51	3164	03:21:35:12	 	36.805485	-122.18187	2456662	0.72	52:58.0	Ventana	34.213	03:21:44:10	6.242	Echinoidea	Strongylocentrotidae	Allocentrotus			Animalia	Echinoida	Echinodermata	Allocentrotus fragilis	Euechinoidea			Echinacea				Eukaryota		V3164-04
upon | cable | nil	cruise	Liponema brevicornis	419.82	3164	03:22:21:26	 	36.805664	-122.181725	2456667	0.73	53:45.0	Ventana	34.212	03:22:30:03	6.246	Anthozoa	Liponematidae	Liponema			Animalia	Actiniaria	Cnidaria	Liponema brevicornis	Hexacorallia			Nyantheae				Eukaryota		V3164-04
identity-reference | self | start: minor span	cruise	cable	419.56	3164	03:22:41:25	 	36.80574	-122.181656	2456671	0.73	54:05.0	Ventana	34.211	03:22:50:25	6.247																			V3164-04
identity-reference | self | end: minor span	cruise	cable	419.17	3164	03:23:05:25	http://search.mbari.org/ARCHIVE/frameGrabs/Ventana/images/3164/03_23_14_09.jpg	36.805843	-122.18156	2456676	0.73	54:29.0	Ventana	34.213	03:23:14:09	6.247																			V3164-04
population-quantity | self | 999	cruise	Rathbunaster californicus	418.88	3164	03:23:13:24	 	36.805878	-122.181526	2456678	0.73	54:37.0	Ventana	34.213	03:23:22:11	6.247		Labidiasteridae	Rathbunaster			Animalia	Forcipulatida	Echinodermata	Rathbunaster californicus	Asteroidea							Eukaryota		V3164-04
population-quantity | self | 999	cruise	Rathbunaster californicus	417.85	3164	03:24:06:08	 	36.806107	-122.18131	2456687	0.73	55:29.0	Ventana	34.212	03:24:14:23	6.254		Labidiasteridae	Rathbunaster			Animalia	Forcipulatida	Echinodermata	Rathbunaster californicus	Asteroidea							Eukaryota		V3164-04
population-quantity | self | 999	cruise	Allocentrotus fragilis	416.93	3164	03:24:40:07	 	36.806255	-122.181175	2456688	0.73	56:03.0	Ventana	34.21	03:24:48:06	6.263	Echinoidea	Strongylocentrotidae	Allocentrotus			Animalia	Echinoida	Echinodermata	Allocentrotus fragilis	Euechinoidea			Echinacea				Eukaryota		V3164-04
"population-quantity | self | 999, upon | cable | nil"	cruise	Liponema brevicornis	416.18	3164	03:25:06:21	 	36.806343	-122.1811	2456689	0.73	56:29.0	Ventana	34.211	03:25:15:03	6.256	Anthozoa	Liponematidae	Liponema			Animalia	Actiniaria	Cnidaria	Liponema brevicornis	Hexacorallia			Nyantheae				Eukaryota		V3164-04
population-quantity | self | 999	cruise	Rathbunaster californicus	415.96	3164	03:25:18:21	 	36.806377	-122.18107	2456691	0.73	56:41.0	Ventana	34.211	03:25:27:10	6.257		Labidiasteridae	Rathbunaster			Animalia	Forcipulatida	Echinodermata	Rathbunaster californicus	Asteroidea							Eukaryota		V3164-04
population-quantity | self | 999	cruise	Rathbunaster californicus	414.74	3164	03:25:52:20	 	36.806454	-122.18098	2456692	0.73	57:16.0	Ventana	34.211	03:26:01:09	6.261		Labidiasteridae	Rathbunaster			Animalia	Forcipulatida	Echinodermata	Rathbunaster californicus	Asteroidea							Eukaryota		V3164-04
identity-reference | self | start: minor span	cruise	cable	414.89	3164	03:26:47:03	 	36.80656	-122.18086	2456699	0.73	58:10.0	Ventana	34.211	03:26:54:27	6.263																			V3164-04
identity-reference | self | end: minor span	cruise	cable	413.86	3164	03:27:21:02	 	36.806664	-122.18075	2456701	0.74	58:44.0	Ventana	34.21	03:27:29:02	6.268																			V3164-04
population-quantity | self | 999	cruise	Allocentrotus fragilis	413.42	3164	03:27:31:01	 	36.806698	-122.18071	2456703	0.74	58:54.0	Ventana	34.21	03:27:40:00	6.271	Echinoidea	Strongylocentrotidae	Allocentrotus			Animalia	Echinoida	Echinodermata	Allocentrotus fragilis	Euechinoidea			Echinacea				Eukaryota		V3164-04
population-quantity | self | 999	cruise	Rathbunaster californicus	412.1	3164	03:28:07:01	 	36.806805	-122.18056	2456710	0.74	59:30.0	Ventana	34.209	03:28:16:08	6.279		Labidiasteridae	Rathbunaster			Animalia	Forcipulatida	Echinodermata	Rathbunaster californicus	Asteroidea							Eukaryota		V3164-04
population-quantity | self | 999	cruise	Rathbunaster californicus	410.42	3164	03:28:49:14	 	36.80693	-122.18041	2456715	0.75	00:13.0	Ventana	34.208	03:28:56:29	6.291		Labidiasteridae	Rathbunaster			Animalia	Forcipulatida	Echinodermata	Rathbunaster californicus	Asteroidea							Eukaryota		V3164-04
"comment | self | cable taut upon seafloor, habitat | self | mud, life-stage | self | juvenile"	cruise	Raja rhina	408.72	3164	03:29:25:13	 	36.807068	-122.180275	2456718	0.75	00:49.0	Ventana	34.208	03:29:33:16	6.299	Chondrichthyes	Rajidae	Raja			Animalia	Rajiformes	Chordata	Raja rhina	Elasmobranchii				Vertebrata			Eukaryota	Batoidea	V3164-04
population-quantity | self | 999	cruise	Rathbunaster californicus	408.35	3164	03:29:31:13	 	36.80709	-122.18025	2456724	0.76	00:55.0	Ventana	34.205	03:29:39:23	6.318		Labidiasteridae	Rathbunaster			Animalia	Forcipulatida	Echinodermata	Rathbunaster californicus	Asteroidea							Eukaryota		V3164-04
"population-quantity | self | 999, upon | cable | nil"	cruise	Liponema brevicornis	406.06	3164	03:30:17:26	 	36.807293	-122.18006	2456736	0.77	01:41.0	Ventana	34.207	03:30:25:17	6.32	Anthozoa	Liponematidae	Liponema			Animalia	Actiniaria	Cnidaria	Liponema brevicornis	Hexacorallia			Nyantheae				Eukaryota		V3164-04
population-quantity | self | 999	cruise	Allocentrotus fragilis	405.2	3164	03:30:31:26	 	36.80735	-122.18	2456738	0.77	01:55.0	Ventana	34.204	03:30:40:27	6.332	Echinoidea	Strongylocentrotidae	Allocentrotus			Animalia	Echinoida	Echinodermata	Allocentrotus fragilis	Euechinoidea			Echinacea				Eukaryota		V3164-04
population-quantity | self | 999	cruise	Rathbunaster californicus	401.07	3164	03:31:50:08	 	36.807632	-122.179665	2456744	0.78	03:13.0	Ventana	34.204	03:31:58:25	6.354		Labidiasteridae	Rathbunaster			Animalia	Forcipulatida	Echinodermata	Rathbunaster californicus	Asteroidea							Eukaryota		V3164-04
"identity-gender | self | female, comment | self | cable taut upon seafloor, habitat | self | mud"	cruise	Raja rhina	399.49	3164	03:32:22:08	http://search.mbari.org/ARCHIVE/frameGrabs/Ventana/images/3164/03_32_30_25.jpg	36.80776	-122.17952	2456752	0.79	03:46.0	Ventana	34.202	03:32:30:25	6.365	Chondrichthyes	Rajidae	Raja			Animalia	Rajiformes	Chordata	Raja rhina	Elasmobranchii				Vertebrata			Eukaryota	Batoidea	V3164-04
population-quantity | self | 999	cruise	Rathbunaster californicus	399	3164	03:32:46:07	 	36.807858	-122.17942	2456757	0.8	04:10.0	Ventana	34.201	03:32:55:09	6.382		Labidiasteridae	Rathbunaster			Animalia	Forcipulatida	Echinodermata	Rathbunaster californicus	Asteroidea							Eukaryota		V3164-04
identity-reference | self | start: cable intermitt. taut	cruise	cable	397.28	3164	03:33:36:20	http://search.mbari.org/ARCHIVE/frameGrabs/Ventana/images/3164/03_33_43_24.jpg	36.808067	-122.1792	2456762	0.82	05:00.0	Ventana	34.2	03:33:43:24	6.432																			V3164-04
population-quantity | self | 999	cruise	Rathbunaster californicus	396.27	3164	03:34:06:19	 	36.808193	-122.17906	2456764	0.82	05:30.0	Ventana	34.199	03:34:15:13	6.425		Labidiasteridae	Rathbunaster			Animalia	Forcipulatida	Echinodermata	Rathbunaster californicus	Asteroidea							Eukaryota		V3164-04
population-quantity | self | 999	cruise	Allocentrotus fragilis	395.27	3164	03:34:30:19	 	36.80829	-122.17894	2456766	0.85	05:54.0	Ventana	34.191	03:34:38:00	6.513	Echinoidea	Strongylocentrotidae	Allocentrotus			Animalia	Echinoida	Echinodermata	Allocentrotus fragilis	Euechinoidea			Echinacea				Eukaryota		V3164-04
identity-reference | self | end: minor span	cruise	cable	391.76	3164	03:36:03:00	http://search.mbari.org/ARCHIVE/frameGrabs/Ventana/images/3164/03_36_10_22.jpg	36.808647	-122.17853	2456773	0.91	07:27.0	Ventana	34.187	03:36:10:22	6.605																			V3164-04
identity-reference | self | start: minor span	cruise	cable	392.48	3164	03:35:41:01	 	36.80856	-122.17862	2456782	0.88	07:05.0	Ventana	34.189	03:35:49:28	6.553																			V3164-04
"comment | self | cable upon seafloor, identity-gender | self | male, habitat | self | flat mud"	cruise	Raja rhina	360.81	3164	04:04:26:09	http://search.mbari.org/ARCHIVE/frameGrabs/Ventana/images/3164/04_04_33_19.jpg	36.81544	-122.17281	20023791	0.91	35:51.0	Ventana	34.187	04:04:33:19	6.601	Chondrichthyes	Rajidae	Raja			Animalia	Rajiformes	Chordata	Raja rhina	Elasmobranchii				Vertebrata			Eukaryota	Batoidea	V3164-04
identity-reference | self | start: minor suspension	cruise	cable	389.26	3164	03:37:05:14	http://search.mbari.org/ARCHIVE/frameGrabs/Ventana/images/3164/03_37_13_24.jpg	36.808853	-122.17827	20023775	0.87	08:29.0	Ventana	34.192	03:37:13:24	6.546																			V3164-04
population-quantity | self | 999	cruise	Rathbunaster californicus	389.04	3164	03:37:19:14	http://search.mbari.org/ARCHIVE/frameGrabs/Ventana/images/3164/03_37_27_14.jpg	36.80889	-122.178215	2457099	0.85	08:43.0	Ventana	34.197	03:37:27:14	6.466		Labidiasteridae	Rathbunaster			Animalia	Forcipulatida	Echinodermata	Rathbunaster californicus	Asteroidea							Eukaryota		V3164-04
identity-reference | self | end: minor span	cruise	cable	388.78	3164	03:38:49:25	http://search.mbari.org/ARCHIVE/frameGrabs/Ventana/images/3164/03_38_58_16.jpg	36.809074	-122.178	2457103	0.91	10:14.0	Ventana	34.187	03:38:58:16	6.609																			V3164-04
population-quantity | self | 999	cruise	Corallimorphus pilatus	388.56	3164	03:38:57:25	 	36.8091	-122.17798	2457107	0.91	10:22.0	Ventana	34.187	03:39:05:25	6.609	Anthozoa	Corallimorphidae	Corallimorphus			Animalia	Corallimorpharia	Cnidaria	Corallimorphus pilatus	Hexacorallia							Eukaryota		V3164-04
population-quantity | self | 999	cruise	Allocentrotus fragilis	388.7	3164	03:39:01:25	 	36.809116	-122.17796	2457108	0.91	10:26.0	Ventana	34.188	03:39:10:12	6.607	Echinoidea	Strongylocentrotidae	Allocentrotus			Animalia	Echinoida	Echinodermata	Allocentrotus fragilis	Euechinoidea			Echinacea				Eukaryota		V3164-04
population-quantity | self | 999	cruise	Rathbunaster californicus	388.14	3164	03:39:05:25	 	36.80913	-122.17795	2457109	0.91	10:30.0	Ventana	34.188	03:39:14:23	6.607		Labidiasteridae	Rathbunaster			Animalia	Forcipulatida	Echinodermata	Rathbunaster californicus	Asteroidea							Eukaryota		V3164-04
population-quantity | self | 999	cruise	Corallimorphus pilatus	388.09	3164	03:39:13:25	 	36.809162	-122.17792	2457110	0.89	10:38.0	Ventana	34.191	03:39:21:24	6.572	Anthozoa	Corallimorphidae	Corallimorphus			Animalia	Corallimorpharia	Cnidaria	Corallimorphus pilatus	Hexacorallia							Eukaryota		V3164-04
identity-reference | self | start: minor span	cruise	cable	388.13	3164	03:39:15:25	http://search.mbari.org/ARCHIVE/frameGrabs/Ventana/images/3164/03_39_23_22.jpg	36.809174	-122.17791	2457112	0.89	10:40.0	Ventana	34.191	03:39:23:22	6.572																			V3164-04
population-quantity | self | 999	cruise	Corallimorphus pilatus	388.13	3164	03:39:15:25	http://search.mbari.org/ARCHIVE/frameGrabs/Ventana/images/3164/03_39_23_22.jpg	36.809174	-122.17791	2457114	0.89	10:40.0	Ventana	34.191	03:39:23:22	6.572	Anthozoa	Corallimorphidae	Corallimorphus			Animalia	Corallimorpharia	Cnidaria	Corallimorphus pilatus	Hexacorallia							Eukaryota		V3164-04
upon | cable | nil	cruise	Florometra serratissima	387.98	3164	03:39:21:25	 	36.809196	-122.17789	2457116	0.89	10:46.0	Ventana	34.191	03:39:30:14	6.572	Crinoidea	Antedonidae	Florometra			Animalia	Comatulidina	Echinodermata	Florometra serratissima							Antedonacea	Eukaryota		V3164-04
identity-reference | self | end: minor span	cruise	cable	387.83	3164	03:39:29:24	 	36.80923	-122.17786	2457117	0.88	10:54.0	Ventana	34.195	03:39:39:04	6.562																			V3164-04
population-quantity | self | 999	cruise	Rathbunaster californicus	387	3164	03:39:47:24	 	36.80931	-122.17778	2457119	0.88	11:12.0	Ventana	34.191	03:39:55:06	6.567		Labidiasteridae	Rathbunaster			Animalia	Forcipulatida	Echinodermata	Rathbunaster californicus	Asteroidea							Eukaryota		V3164-04
population-quantity | self | 999	cruise	Allocentrotus fragilis	386.73	3164	03:39:56:08	 	36.809357	-122.177734	2457120	0.88	11:20.0	Ventana	34.191	03:40:04:14	6.567	Echinoidea	Strongylocentrotidae	Allocentrotus			Animalia	Echinoida	Echinodermata	Allocentrotus fragilis	Euechinoidea			Echinacea				Eukaryota		V3164-04
population-quantity | self | 999	cruise	Corallimorphus pilatus	385.13	3164	03:41:08:06	 	36.809685	-122.17741	2457125	0.93	12:33.0	Ventana	34.185	03:41:15:25	6.641	Anthozoa	Corallimorphidae	Corallimorphus			Animalia	Corallimorpharia	Cnidaria	Corallimorphus pilatus	Hexacorallia							Eukaryota		V3164-04
population-quantity | self | 999	cruise	Rathbunaster californicus	384.98	3164	03:41:22:06	 	36.809746	-122.177345	2457126	0.93	12:47.0	Ventana	34.184	03:41:30:02	6.648		Labidiasteridae	Rathbunaster			Animalia	Forcipulatida	Echinodermata	Rathbunaster californicus	Asteroidea							Eukaryota		V3164-04
identity-reference | self | start: minor span	cruise	cable	385.11	3164	03:41:12:06	 	36.809704	-122.17739	2457127	0.93	12:37.0	Ventana	34.185	03:41:20:24	6.641																			V3164-04
population-quantity | self | 999	cruise	Allocentrotus fragilis	384.77	3164	03:41:36:20	 	36.809803	-122.177284	2457131	0.93	13:01.0	Ventana	34.183	03:41:44:21	6.655	Echinoidea	Strongylocentrotidae	Allocentrotus			Animalia	Echinoida	Echinodermata	Allocentrotus fragilis	Euechinoidea			Echinacea				Eukaryota		V3164-04
population-quantity | self | 999	cruise	Corallimorphus pilatus	384.74	3164	03:41:38:20	 	36.80981	-122.17728	2457132	0.93	13:03.0	Ventana	34.183	03:41:46:23	6.655	Anthozoa	Corallimorphidae	Corallimorphus			Animalia	Corallimorpharia	Cnidaria	Corallimorphus pilatus	Hexacorallia							Eukaryota		V3164-04
identity-reference | self | end: minor span	cruise	cable	384.04	3164	03:41:54:20	 	36.809875	-122.17721	2457137	0.94	13:19.0	Ventana	34.184	03:42:03:09	6.671																			V3164-04
"upon | cable | nil, population-quantity | self | 999"	cruise	Liponema brevicornis	383.18	3164	03:42:12:19	 	36.809948	-122.17713	2457139	0.95	13:37.0	Ventana	34.18	03:42:20:13	6.716	Anthozoa	Liponematidae	Liponema			Animalia	Actiniaria	Cnidaria	Liponema brevicornis	Hexacorallia			Nyantheae				Eukaryota		V3164-04
population-quantity | self | 999	cruise	Rathbunaster californicus	383.02	3164	03:42:26:19	 	36.81001	-122.17706	2457140	0.98	13:51.0	Ventana	34.178	03:42:34:00	6.735		Labidiasteridae	Rathbunaster			Animalia	Forcipulatida	Echinodermata	Rathbunaster californicus	Asteroidea							Eukaryota		V3164-04
population-quantity | self | 999	cruise	Allocentrotus fragilis	382.37	3164	03:42:34:18	 	36.81004	-122.17703	2457142	0.98	13:59.0	Ventana	34.179	03:42:42:26	6.738	Echinoidea	Strongylocentrotidae	Allocentrotus			Animalia	Echinoida	Echinodermata	Allocentrotus fragilis	Euechinoidea			Echinacea				Eukaryota		V3164-04
population-quantity | self | 999	cruise	Corallimorphus pilatus	382.23	3164	03:42:38:19	 	36.810055	-122.17702	2457143	0.98	14:03.0	Ventana	34.179	03:42:47:06	6.738	Anthozoa	Corallimorphidae	Corallimorphus			Animalia	Corallimorpharia	Cnidaria	Corallimorphus pilatus	Hexacorallia							Eukaryota		V3164-04
population-quantity | self | 999	cruise	Rathbunaster californicus	382.08	3164	03:42:42:18	 	36.81007	-122.177	2457144	0.98	14:07.0	Ventana	34.179	03:42:50:29	6.738		Labidiasteridae	Rathbunaster			Animalia	Forcipulatida	Echinodermata	Rathbunaster californicus	Asteroidea							Eukaryota		V3164-04
population-quantity | self | 999	cruise	Corallimorphus pilatus	381.74	3164	03:42:50:18	 	36.8101	-122.17697	2457146	0.98	14:15.0	Ventana	34.178	03:42:59:02	6.75	Anthozoa	Corallimorphidae	Corallimorphus			Animalia	Corallimorpharia	Cnidaria	Corallimorphus pilatus	Hexacorallia							Eukaryota		V3164-04
population-quantity | self | 999	cruise	Porifera	381.8	3164	03:42:58:18	 	36.810127	-122.17694	2457147	0.98	14:23.0	Ventana	34.178	03:43:06:11	6.747						Animalia		Porifera									Eukaryota		V3164-04
population-quantity | self | 999	cruise	Corallimorphus pilatus	381.42	3164	03:43:19:02	 	36.8102	-122.176865	2457715	0.99	14:43.0	Ventana	34.178	03:43:25:29	6.747	Anthozoa	Corallimorphidae	Corallimorphus			Animalia	Corallimorpharia	Cnidaria	Corallimorphus pilatus	Hexacorallia							Eukaryota		V3164-04
identity-reference | self | start: minor span	cruise	cable	381.42	3164	03:43:19:02	 	36.8102	-122.176865	2457716	0.99	14:43.0	Ventana	34.178	03:43:26:07	6.747																			V3164-04
population-quantity | self | 999	cruise	Rathbunaster californicus	381.42	3164	03:43:19:02	 	36.8102	-122.176865	2457717	0.99	14:43.0	Ventana	34.178	03:43:27:12	6.747		Labidiasteridae	Rathbunaster			Animalia	Forcipulatida	Echinodermata	Rathbunaster californicus	Asteroidea							Eukaryota		V3164-04
population-quantity | self | 999	cruise	Corallimorphus pilatus	381.18	3164	03:43:25:02	 	36.81022	-122.17684	2457718	0.99	14:49.0	Ventana	34.178	03:43:32:21	6.747	Anthozoa	Corallimorphidae	Corallimorphus			Animalia	Corallimorpharia	Cnidaria	Corallimorphus pilatus	Hexacorallia							Eukaryota		V3164-04
population-quantity | self | 999	cruise	Rathbunaster californicus	381.12	3164	03:43:31:02	 	36.810238	-122.17682	2457719	0.99	14:55.0	Ventana	34.177	03:43:40:03	6.76		Labidiasteridae	Rathbunaster			Animalia	Forcipulatida	Echinodermata	Rathbunaster californicus	Asteroidea							Eukaryota		V3164-04
identity-reference | self | end: minor span	cruise	cable	380.63	3164	03:43:51:01	 	36.810303	-122.17674	2457721	0.99	15:16.0	Ventana	34.176	03:43:58:29	6.753																			V3164-04
upon | cable | nil	cruise	Liponema brevicornis	380.54	3164	03:43:57:01	 	36.81032	-122.17672	2457724	0.99	15:22.0	Ventana	34.176	03:44:05:15	6.753	Anthozoa	Liponematidae	Liponema			Animalia	Actiniaria	Cnidaria	Liponema brevicornis	Hexacorallia			Nyantheae				Eukaryota		V3164-04
"comment | self | cable upon seafloor, identity-gender | self | male, habitat | self | flat mud"	cruise	Raja rhina	379.19	3164	03:44:31:00	http://search.mbari.org/ARCHIVE/frameGrabs/Ventana/images/3164/03_44_39_26.jpg	36.810432	-122.1766	2457730	1	15:56.0	Ventana	34.175	03:44:39:26	6.777	Chondrichthyes	Rajidae	Raja			Animalia	Rajiformes	Chordata	Raja rhina	Elasmobranchii				Vertebrata			Eukaryota	Batoidea	V3164-04
upon | cable | nil	cruise	Stomphia	379.5	3164	03:45:03:14	 	36.810547	-122.17648	2457732	0.98	16:28.0	Ventana	34.179	03:45:11:08	6.721	Anthozoa	Actinostolidae	Stomphia			Animalia	Actiniaria	Cnidaria		Hexacorallia			Nyantheae				Eukaryota		V3164-04
identity-reference | self | start: minor suspension	cruise	cable	379.47	3164	03:45:09:14	http://search.mbari.org/ARCHIVE/frameGrabs/Ventana/images/3164/03_45_17_07.jpg	36.810566	-122.17646	2457733	0.98	16:34.0	Ventana	34.179	03:45:17:07	6.721																			V3164-04
identity-reference | self | end: minor suspension	cruise	cable	379.11	3164	03:45:37:13	http://search.mbari.org/ARCHIVE/frameGrabs/Ventana/images/3164/03_45_45_23.jpg	36.810684	-122.176346	2457740	0.94	17:02.0	Ventana	34.183	03:45:45:23	6.678																			V3164-04
population-quantity | self | 999	cruise	Porifera	378.88	3164	03:45:43:13	 	36.810707	-122.17632	2457747	0.95	17:08.0	Ventana	34.182	03:45:52:22	6.699						Animalia		Porifera									Eukaryota		V3164-04
population-quantity | self | 999	cruise	Corallimorphus pilatus	378.19	3164	03:45:51:13	 	36.81074	-122.17629	2457749	0.95	17:16.0	Ventana	34.182	03:45:59:20	6.699	Anthozoa	Corallimorphidae	Corallimorphus			Animalia	Corallimorpharia	Cnidaria	Corallimorphus pilatus	Hexacorallia							Eukaryota		V3164-04
population-quantity | self | 999	cruise	Allocentrotus fragilis	378.06	3164	03:45:55:12	 	36.81076	-122.17628	2457750	0.95	17:20.0	Ventana	34.182	03:46:03:04	6.699	Echinoidea	Strongylocentrotidae	Allocentrotus			Animalia	Echinoida	Echinodermata	Allocentrotus fragilis	Euechinoidea			Echinacea				Eukaryota		V3164-04
identity-reference | self | start: minor span	cruise	cable	378.06	3164	03:45:55:12	http://search.mbari.org/ARCHIVE/frameGrabs/Ventana/images/3164/03_46_02_24.jpg	36.81076	-122.17628	2457755	0.95	17:20.0	Ventana	34.182	03:46:02:24	6.699																			V3164-04
population-quantity | self | 999	cruise	Rathbunaster californicus	378.07	3164	03:46:01:12	 	36.810787	-122.17625	2457761	0.96	17:26.0	Ventana	34.181	03:46:09:16	6.697		Labidiasteridae	Rathbunaster			Animalia	Forcipulatida	Echinodermata	Rathbunaster californicus	Asteroidea							Eukaryota		V3164-04
population-quantity | self | 999	cruise	Corallimorphus pilatus	377.82	3164	03:46:21:12	http://search.mbari.org/ARCHIVE/frameGrabs/Ventana/images/3164/03_46_30_00.jpg	36.810883	-122.17616	2457777	0.94	17:46.0	Ventana	34.185	03:46:30:00	6.658	Anthozoa	Corallimorphidae	Corallimorphus			Animalia	Corallimorpharia	Cnidaria	Corallimorphus pilatus	Hexacorallia							Eukaryota		V3164-04
identity-reference | self | end: minor suspension	cruise	cable	377.12	3164	03:46:35:26	 	36.810944	-122.176094	2457781	0.92	18:00.0	Ventana	34.184	03:46:44:18	6.642																			V3164-04
population-quantity | self | 999	cruise	Porifera	377.1	3164	03:46:37:26	 	36.810955	-122.17609	2457784	0.92	18:02.0	Ventana	34.184	03:46:46:14	6.642						Animalia		Porifera									Eukaryota		V3164-04
population-quantity | self | 999	cruise	Allocentrotus fragilis	376.84	3164	03:46:47:26	 	36.810997	-122.17604	2457786	0.93	18:12.0	Ventana	34.185	03:46:55:29	6.642	Echinoidea	Strongylocentrotidae	Allocentrotus			Animalia	Echinoida	Echinodermata	Allocentrotus fragilis	Euechinoidea			Echinacea				Eukaryota		V3164-04
population-quantity | self | 999	cruise	Rathbunaster californicus	376.61	3164	03:47:01:25	 	36.81107	-122.175964	2457790	0.91	18:27.0	Ventana	34.191	03:47:09:11	6.606		Labidiasteridae	Rathbunaster			Animalia	Forcipulatida	Echinodermata	Rathbunaster californicus	Asteroidea							Eukaryota		V3164-04
population-quantity | self | 999	cruise	Porifera	376.06	3164	03:47:29:24	 	36.811172	-122.17585	2457827	0.9	18:55.0	Ventana	34.192	03:47:37:26	6.604						Animalia		Porifera									Eukaryota		V3164-04
population-quantity | self | 999	cruise	Corallimorphus pilatus	375.91	3164	03:47:33:25	 	36.811188	-122.17583	2457830	0.9	18:59.0	Ventana	34.192	03:47:42:23	6.604	Anthozoa	Corallimorphidae	Corallimorphus			Animalia	Corallimorpharia	Cnidaria	Corallimorphus pilatus	Hexacorallia							Eukaryota		V3164-04
population-quantity | self | 999	cruise	Corallimorphus pilatus	375.89	3164	03:48:22:08	 	36.81134	-122.17567	2458021	0.89	19:47.0	Ventana	34.191	03:48:29:11	6.562	Anthozoa	Corallimorphidae	Corallimorphus			Animalia	Corallimorpharia	Cnidaria	Corallimorphus pilatus	Hexacorallia							Eukaryota		V3164-04
population-quantity | self | 999	cruise	Allocentrotus fragilis	375.55	3164	03:48:48:07	 	36.81142	-122.17558	2458029	0.89	20:13.0	Ventana	34.192	03:48:56:02	6.558	Echinoidea	Strongylocentrotidae	Allocentrotus			Animalia	Echinoida	Echinodermata	Allocentrotus fragilis	Euechinoidea			Echinacea				Eukaryota		V3164-04
"swimming | nil | nil, comment | self | cable taut upon seafloor, identity-gender | self | male, habitat | self | flat mud"	cruise	Bathyraja kincaidii	374.71	3164	03:49:30:06	http://search.mbari.org/ARCHIVE/frameGrabs/Ventana/images/3164/03_49_38_25.jpg	36.811558	-122.17546	2458039	0.92	20:55.0	Ventana	34.185	03:49:38:25	6.627	Chondrichthyes	Arhynchobatidae	Bathyraja			Animalia	Rajiformes	Chordata	Bathyraja kincaidii	Elasmobranchii				Vertebrata			Eukaryota	Batoidea	V3164-04
identity-reference | self | start: minor suspension	cruise	cable	374.9	3164	03:49:44:05	http://search.mbari.org/ARCHIVE/frameGrabs/Ventana/images/3164/03_49_51_22.jpg	36.8116	-122.17541	2458045	0.92	21:09.0	Ventana	34.187	03:49:51:22	6.608																			V3164-04
identity-reference | self | end: minor suspension	cruise	cable	374.93	3164	03:50:24:20	 	36.811745	-122.175255	2458053	0.89	21:50.0	Ventana	34.19	03:50:32:13	6.553																			V3164-04
population-quantity | self | 999	cruise	Allocentrotus fragilis	374.93	3164	03:50:24:20	 	36.811745	-122.175255	2458055	0.89	21:50.0	Ventana	34.19	03:50:32:13	6.553	Echinoidea	Strongylocentrotidae	Allocentrotus			Animalia	Echinoida	Echinodermata	Allocentrotus fragilis	Euechinoidea			Echinacea				Eukaryota		V3164-04
population-quantity | self | 999	cruise	Allocentrotus fragilis	374.75	3164	03:50:42:19	 	36.811813	-122.17519	2458060	0.87	22:08.0	Ventana	34.192	03:50:50:03	6.535	Echinoidea	Strongylocentrotidae	Allocentrotus			Animalia	Echinoida	Echinodermata	Allocentrotus fragilis	Euechinoidea			Echinacea				Eukaryota		V3164-04
population-quantity | self | 999	cruise	Corallimorphus pilatus	374.64	3164	03:50:46:19	 	36.81183	-122.17518	2458063	0.87	22:12.0	Ventana	34.192	03:50:55:01	6.535	Anthozoa	Corallimorphidae	Corallimorphus			Animalia	Corallimorpharia	Cnidaria	Corallimorphus pilatus	Hexacorallia							Eukaryota		V3164-04
"upon | cable | nil, population-quantity | self | 999"	cruise	Liponema brevicornis	374.43	3164	03:50:56:19	 	36.811867	-122.17514	2458067	0.87	22:22.0	Ventana	34.192	03:51:04:05	6.535	Anthozoa	Liponematidae	Liponema			Animalia	Actiniaria	Cnidaria	Liponema brevicornis	Hexacorallia			Nyantheae				Eukaryota		V3164-04
population-quantity | self | 999	cruise	Rathbunaster californicus	373.56	3164	03:51:43:02	 	36.812057	-122.17497	2458072	0.87	23:08.0	Ventana	34.193	03:51:51:25	6.527		Labidiasteridae	Rathbunaster			Animalia	Forcipulatida	Echinodermata	Rathbunaster californicus	Asteroidea							Eukaryota		V3164-04
identity-reference | self | start: minor suspension	cruise	cable	374.03	3164	03:51:51:02	http://search.mbari.org/ARCHIVE/frameGrabs/Ventana/images/3164/03_51_58_18.jpg	36.81209	-122.17495	2458078	0.87	23:16.0	Ventana	34.193	03:51:58:18	6.527																			V3164-04
"identity-gender | self | female, comment | self | cable minor suspension, habitat | self | flat mud"	cruise	Raja rhina	373.94	3164	03:51:53:02	http://search.mbari.org/ARCHIVE/frameGrabs/Ventana/images/3164/03_52_00_16.jpg	36.8121	-122.17494	2458096	0.87	23:18.0	Ventana	34.193	03:52:00:16	6.527	Chondrichthyes	Rajidae	Raja			Animalia	Rajiformes	Chordata	Raja rhina	Elasmobranchii				Vertebrata			Eukaryota	Batoidea	V3164-04
"comment | self | cable minor suspension, habitat | self | flat mud, life-stage | self | juvenile"	cruise	Raja rhina	373.94	3164	03:51:53:02	http://search.mbari.org/ARCHIVE/frameGrabs/Ventana/images/3164/03_52_00_16.jpg	36.8121	-122.17494	2458108	0.87	23:18.0	Ventana	34.193	03:52:00:16	6.527	Chondrichthyes	Rajidae	Raja			Animalia	Rajiformes	Chordata	Raja rhina	Elasmobranchii				Vertebrata			Eukaryota	Batoidea	V3164-04
"identity-gender | self | female, comment | self | cable minor suspension, habitat | self | flat mud"	cruise	Raja rhina	373.86	3164	03:52:01:01	 	36.812138	-122.174904	2458119	0.87	23:26.0	Ventana	34.193	03:52:09:13	6.528	Chondrichthyes	Rajidae	Raja			Animalia	Rajiformes	Chordata	Raja rhina	Elasmobranchii				Vertebrata			Eukaryota	Batoidea	V3164-04
upon | cable | nil	cruise	Florometra serratissima	373.97	3164	03:52:09:01	 	36.812172	-122.17488	2458125	0.87	23:34.0	Ventana	34.193	03:52:17:19	6.528	Crinoidea	Antedonidae	Florometra			Animalia	Comatulidina	Echinodermata	Florometra serratissima							Antedonacea	Eukaryota		V3164-04
identity-reference | self | end: minor suspension	cruise	cable	373.27	3164	03:52:15:01	 	36.8122	-122.17486	2458132	0.87	23:40.0	Ventana	34.192	03:52:24:03	6.536																			V3164-04
population-quantity | self | 999	cruise	Rathbunaster californicus	373.13	3164	03:52:19:01	 	36.812218	-122.17484	2458135	0.87	23:44.0	Ventana	34.192	03:52:26:28	6.536		Labidiasteridae	Rathbunaster			Animalia	Forcipulatida	Echinodermata	Rathbunaster californicus	Asteroidea							Eukaryota		V3164-04
population-quantity | self | 999	cruise	Merluccius productus	373.36	3164	03:52:25:01	 	36.81224	-122.17482	2458139	0.87	23:50.0	Ventana	34.192	03:52:33:05	6.536	Osteichthyes	Merlucciidae	Merluccius	Neopterygii		Animalia	Gadiformes	Chordata	Merluccius productus	Actinopterygii				Vertebrata	Gnathostomata		Eukaryota	Paracanthopterygii	V3164-04
population-quantity | self | 999	cruise	Rathbunaster californicus	373.24	3164	03:52:27:01	 	36.812252	-122.17481	2458140	0.87	23:52.0	Ventana	34.192	03:52:36:04	6.536		Labidiasteridae	Rathbunaster			Animalia	Forcipulatida	Echinodermata	Rathbunaster californicus	Asteroidea							Eukaryota		V3164-04
population-quantity | self | 999	cruise	Allocentrotus fragilis	373.1	3164	03:52:37:00	 	36.812294	-122.17478	2458146	0.88	24:02.0	Ventana	34.191	03:52:46:08	6.539	Echinoidea	Strongylocentrotidae	Allocentrotus			Animalia	Echinoida	Echinodermata	Allocentrotus fragilis	Euechinoidea			Echinacea				Eukaryota		V3164-04
population-quantity | self | 999	cruise	Stylasterias forreri	372.86	3164	03:52:47:15	 	36.81234	-122.17474	2458149	0.88	24:12.0	Ventana	34.192	03:52:54:10	6.536		Asteriidae	Stylasterias			Animalia	Forcipulatida	Echinodermata	Stylasterias forreri	Asteroidea							Eukaryota		V3164-04
population-quantity | self | 999	cruise	Rathbunaster californicus	372.98	3164	03:52:57:15	 	36.81238	-122.174706	2458151	0.88	24:22.0	Ventana	34.192	03:53:05:02	6.536		Labidiasteridae	Rathbunaster			Animalia	Forcipulatida	Echinodermata	Rathbunaster californicus	Asteroidea							Eukaryota		V3164-04
population-quantity | self | 999	cruise	Allocentrotus fragilis	372.7	3164	03:53:25:14	 	36.812508	-122.1746	2458157	0.87	24:51.0	Ventana	34.192	03:53:34:20	6.533	Echinoidea	Strongylocentrotidae	Allocentrotus			Animalia	Echinoida	Echinodermata	Allocentrotus fragilis	Euechinoidea			Echinacea				Eukaryota		V3164-04
population-quantity | self | 999	cruise	Allocentrotus fragilis	372.15	3164	03:53:59:13	 	36.81266	-122.17448	2458160	0.88	25:25.0	Ventana	34.192	03:54:06:24	6.535	Echinoidea	Strongylocentrotidae	Allocentrotus			Animalia	Echinoida	Echinodermata	Allocentrotus fragilis	Euechinoidea			Echinacea				Eukaryota		V3164-04
identity-certainty | self | maybe	cruise	Merluccius productus	371.91	3164	03:54:13:13	 	36.81272	-122.17443	2458162	0.88	25:39.0	Ventana	34.191	03:54:20:23	6.537	Osteichthyes	Merlucciidae	Merluccius	Neopterygii		Animalia	Gadiformes	Chordata	Merluccius productus	Actinopterygii				Vertebrata	Gnathostomata		Eukaryota	Paracanthopterygii	V3164-04
population-quantity | self | 999	cruise	Merluccius productus	371.64	3164	03:54:33:27	 	36.812805	-122.17436	2458166	0.87	25:59.0	Ventana	34.191	03:54:41:07	6.536	Osteichthyes	Merlucciidae	Merluccius	Neopterygii		Animalia	Gadiformes	Chordata	Merluccius productus	Actinopterygii				Vertebrata	Gnathostomata		Eukaryota	Paracanthopterygii	V3164-04
population-quantity | self | 999	cruise	Rathbunaster californicus	370.26	3164	03:55:43:25	 	36.81309	-122.17413	2458176	0.89	27:09.0	Ventana	34.19	03:55:51:24	6.564		Labidiasteridae	Rathbunaster			Animalia	Forcipulatida	Echinodermata	Rathbunaster californicus	Asteroidea							Eukaryota		V3164-04
population-quantity | self | 999	cruise	Merluccius productus	370.36	3164	03:55:55:24	 	36.81314	-122.174095	2458213	0.89	27:21.0	Ventana	34.19	03:56:04:00	6.564	Osteichthyes	Merlucciidae	Merluccius	Neopterygii		Animalia	Gadiformes	Chordata	Merluccius productus	Actinopterygii				Vertebrata	Gnathostomata		Eukaryota	Paracanthopterygii	V3164-04
population-quantity | self | 999	cruise	Rathbunaster californicus	370.19	3164	03:56:01:24	 	36.813168	-122.17408	2458214	0.89	27:27.0	Ventana	34.19	03:56:10:07	6.565		Labidiasteridae	Rathbunaster			Animalia	Forcipulatida	Echinodermata	Rathbunaster californicus	Asteroidea							Eukaryota		V3164-04
population-quantity | self | 999	cruise	Merluccius productus	368.75	3164	03:57:06:07	 	36.813477	-122.17386	2458223	0.9	28:32.0	Ventana	34.188	03:57:14:09	6.594	Osteichthyes	Merlucciidae	Merluccius	Neopterygii		Animalia	Gadiformes	Chordata	Merluccius productus	Actinopterygii				Vertebrata	Gnathostomata		Eukaryota	Paracanthopterygii	V3164-04
population-quantity | self | 999	cruise	Rathbunaster californicus	367.24	3164	03:57:40:21	 	36.81363	-122.17374	2458226	0.93	29:06.0	Ventana	34.184	03:57:49:01	6.647		Labidiasteridae	Rathbunaster			Animalia	Forcipulatida	Echinodermata	Rathbunaster californicus	Asteroidea							Eukaryota		V3164-04
population-quantity | self | 999	cruise	Rathbunaster californicus	366.66	3164	03:58:06:21	 	36.813755	-122.17365	2458229	0.92	29:32.0	Ventana	34.186	03:58:15:19	6.637		Labidiasteridae	Rathbunaster			Animalia	Forcipulatida	Echinodermata	Rathbunaster californicus	Asteroidea							Eukaryota		V3164-04
population-quantity | self | 999	cruise	Rathbunaster californicus	366.47	3164	03:58:24:19	 	36.813843	-122.17359	2458231	0.94	29:50.0	Ventana	34.182	03:58:32:07	6.67		Labidiasteridae	Rathbunaster			Animalia	Forcipulatida	Echinodermata	Rathbunaster californicus	Asteroidea							Eukaryota		V3164-04
population-quantity | self | 999	cruise	Liponema brevicornis	366.57	3164	03:58:32:19	 	36.81388	-122.17357	2458232	0.93	29:58.0	Ventana	34.187	03:58:40:26	6.622	Anthozoa	Liponematidae	Liponema			Animalia	Actiniaria	Cnidaria	Liponema brevicornis	Hexacorallia			Nyantheae				Eukaryota		V3164-04
population-quantity | self | 999	cruise	Allocentrotus fragilis	366.57	3164	03:58:42:19	 	36.813934	-122.17354	2458234	0.92	30:08.0	Ventana	34.186	03:58:50:13	6.61	Echinoidea	Strongylocentrotidae	Allocentrotus			Animalia	Echinoida	Echinodermata	Allocentrotus fragilis	Euechinoidea			Echinacea				Eukaryota		V3164-04
population-quantity | self | 999	cruise	Merluccius productus	365.39	3164	03:59:08:19	 	36.814056	-122.17347	2458237	0.91	30:34.0	Ventana	34.187	03:59:17:23	6.609	Osteichthyes	Merlucciidae	Merluccius	Neopterygii		Animalia	Gadiformes	Chordata	Merluccius productus	Actinopterygii				Vertebrata	Gnathostomata		Eukaryota	Paracanthopterygii	V3164-04
population-quantity | self | 999	cruise	Rathbunaster californicus	363.98	3164	03:59:31:03	 	36.81416	-122.17341	2458239	0.98	30:56.0	Ventana	34.178	03:59:37:28	6.745		Labidiasteridae	Rathbunaster			Animalia	Forcipulatida	Echinodermata	Rathbunaster californicus	Asteroidea							Eukaryota		V3164-04
population-quantity | self | 999	cruise	Merluccius productus	363.45	3164	04:00:19:01	 	36.814384	-122.1733	2458243	0.92	31:44.0	Ventana	34.186	04:00:27:23	6.627	Osteichthyes	Merlucciidae	Merluccius	Neopterygii		Animalia	Gadiformes	Chordata	Merluccius productus	Actinopterygii				Vertebrata	Gnathostomata		Eukaryota	Paracanthopterygii	V3164-04
population-quantity | self | 999	cruise	Merluccius productus	362.54	3164	04:00:57:15	 	36.814556	-122.17321	2458246	0.91	32:22.0	Ventana	34.188	04:01:05:05	6.613	Osteichthyes	Merlucciidae	Merluccius	Neopterygii		Animalia	Gadiformes	Chordata	Merluccius productus	Actinopterygii				Vertebrata	Gnathostomata		Eukaryota	Paracanthopterygii	V3164-04
population-quantity | self | 999	cruise	Merluccius productus	363.19	3164	04:01:33:14	 	36.814686	-122.17314	2458256	0.91	32:59.0	Ventana	34.187	04:01:42:14	6.608	Osteichthyes	Merlucciidae	Merluccius	Neopterygii		Animalia	Gadiformes	Chordata	Merluccius productus	Actinopterygii				Vertebrata	Gnathostomata		Eukaryota	Paracanthopterygii	V3164-04
"upon | cable | nil, population-quantity | self | 999"	cruise	Florometra serratissima	362	3164	04:02:01:13	 	36.81478	-122.173096	2458257	0.91	33:27.0	Ventana	34.187	04:02:08:23	6.614	Crinoidea	Antedonidae	Florometra			Animalia	Comatulidina	Echinodermata	Florometra serratissima							Antedonacea	Eukaryota		V3164-04
population-quantity | self | 999	cruise	Rathbunaster californicus	361.54	3164	04:02:23:12	 	36.81487	-122.17305	2458260	0.92	33:49.0	Ventana	34.187	04:02:31:10	6.613		Labidiasteridae	Rathbunaster			Animalia	Forcipulatida	Echinodermata	Rathbunaster californicus	Asteroidea							Eukaryota		V3164-04
population-quantity | self | 999	cruise	Allocentrotus fragilis	364.78	3164	04:02:39:27	 	36.814938	-122.17302	2458262	0.91	34:05.0	Ventana	34.188	04:02:47:14	6.606	Echinoidea	Strongylocentrotidae	Allocentrotus			Animalia	Echinoida	Echinodermata	Allocentrotus fragilis	Euechinoidea			Echinacea				Eukaryota		V3164-04
population-quantity | self | 999	cruise	Rathbunaster californicus	361.45	3164	04:02:49:27	 	36.814987	-122.173	2458263	0.91	34:15.0	Ventana	34.187	04:02:58:04	6.611		Labidiasteridae	Rathbunaster			Animalia	Forcipulatida	Echinodermata	Rathbunaster californicus	Asteroidea							Eukaryota		V3164-04
identity-reference | self | start: minor suspension	cruise	cable	361.78	3164	04:03:09:26	http://search.mbari.org/ARCHIVE/frameGrabs/Ventana/images/3164/04_03_19_04.jpg	36.81508	-122.17295	2458266	0.92	34:35.0	Ventana	34.187	04:03:19:04	6.618																			V3164-04
population-quantity | self | 999	cruise	Rathbunaster californicus	360.75	3164	04:03:21:25	 	36.81514	-122.17293	2458269	0.92	34:47.0	Ventana	34.188	04:03:29:23	6.612		Labidiasteridae	Rathbunaster			Animalia	Forcipulatida	Echinodermata	Rathbunaster californicus	Asteroidea							Eukaryota		V3164-04
population-quantity | self | 999	cruise	Sebastes diploproa	360.76	3164	04:03:27:25	 	36.815166	-122.17292	2458270	0.91	34:53.0	Ventana	34.187	04:03:36:09	6.612	Osteichthyes	Scorpaenidae	Sebastes	Neopterygii		Animalia	Scorpaeniformes	Chordata	Sebastes diploproa	Actinopterygii			Scorpaenoidei	Vertebrata	Gnathostomata		Eukaryota	Acanthopterygii	V3164-04
identity-reference | self | end: minor suspension	cruise	cable	360.99	3164	04:03:23:26	 	36.815147	-122.17293	2458272	0.92	34:49.0	Ventana	34.188	04:03:32:27	6.612																			V3164-04
population-quantity | self | 999	cruise	Merluccius productus	360.76	3164	04:03:27:25	 	36.815166	-122.17292	2458273	0.91	34:53.0	Ventana	34.187	04:03:36:06	6.612	Osteichthyes	Merlucciidae	Merluccius	Neopterygii		Animalia	Gadiformes	Chordata	Merluccius productus	Actinopterygii				Vertebrata	Gnathostomata		Eukaryota	Paracanthopterygii	V3164-04
identity-reference | self | start: minor suspension	cruise	cable	360.57	3164	04:03:35:25	 	36.815205	-122.172905	2458274	0.91	35:01.0	Ventana	34.187	04:03:45:02	6.612																			V3164-04
population-quantity | self | 999	cruise	Rathbunaster californicus	360.85	3164	04:03:41:25	 	36.815235	-122.17289	2458275	0.91	35:07.0	Ventana	34.187	04:03:50:02	6.612		Labidiasteridae	Rathbunaster			Animalia	Forcipulatida	Echinodermata	Rathbunaster californicus	Asteroidea							Eukaryota		V3164-04
"comment | self | cable minor suspension, habitat | self | flat mud, life-stage | self | juvenile"	cruise	Raja rhina	361.02	3164	04:03:45:25	http://search.mbari.org/ARCHIVE/frameGrabs/Ventana/images/3164/04_03_53_21.jpg	36.815254	-122.17288	2458281	0.91	35:11.0	Ventana	34.188	04:03:53:21	6.608	Chondrichthyes	Rajidae	Raja			Animalia	Rajiformes	Chordata	Raja rhina	Elasmobranchii				Vertebrata			Eukaryota	Batoidea	V3164-04
population-quantity | self | 999	cruise	Rathbunaster californicus	360.9	3164	04:04:00:09	 	36.81533	-122.17285	2458290	0.91	35:25.0	Ventana	34.187	04:04:08:04	6.606		Labidiasteridae	Rathbunaster			Animalia	Forcipulatida	Echinodermata	Rathbunaster californicus	Asteroidea							Eukaryota		V3164-04
identity-reference | self | end: minor suspension	cruise	cable	360.9	3164	04:04:00:09	 	36.81533	-122.17285	2458291	0.91	35:25.0	Ventana	34.187	04:04:08:04	6.606																			V3164-04
population-quantity | self | 999	cruise	Allocentrotus fragilis	360.92	3164	04:04:02:10	 	36.815334	-122.17285	2458293	0.91	35:27.0	Ventana	34.187	04:04:10:09	6.606	Echinoidea	Strongylocentrotidae	Allocentrotus			Animalia	Echinoida	Echinodermata	Allocentrotus fragilis	Euechinoidea			Echinacea				Eukaryota		V3164-04
population-quantity | self | 999	cruise	Rathbunaster californicus	360.14	3164	04:05:04:08	 	36.815605	-122.17275	2458301	0.91	36:30.0	Ventana	34.187	04:05:12:21	6.599		Labidiasteridae	Rathbunaster			Animalia	Forcipulatida	Echinodermata	Rathbunaster californicus	Asteroidea							Eukaryota		V3164-04
population-quantity | self | 999	cruise	Allocentrotus fragilis	361.78	3164	04:05:12:07	 	36.81564	-122.17274	2458303	0.91	36:38.0	Ventana	34.188	04:05:21:12	6.601	Echinoidea	Strongylocentrotidae	Allocentrotus			Animalia	Echinoida	Echinodermata	Allocentrotus fragilis	Euechinoidea			Echinacea				Eukaryota		V3164-04
identity-reference | self | start: minor suspension	cruise	cable	359.35	3164	04:05:52:21	 	36.815823	-122.17267	2458317	0.91	37:18.0	Ventana	34.187	04:06:00:19	6.603																			V3164-04
population-quantity | self | 999	cruise	Merluccius productus	359.21	3164	04:06:18:20	 	36.815937	-122.17263	2458323	0.91	37:44.0	Ventana	34.187	04:06:27:18	6.603	Osteichthyes	Merlucciidae	Merluccius	Neopterygii		Animalia	Gadiformes	Chordata	Merluccius productus	Actinopterygii				Vertebrata	Gnathostomata		Eukaryota	Paracanthopterygii	V3164-04
"comment | self | cable minor suspension, habitat | self | flat mud, life-stage | self | juvenile"	cruise	Raja rhina	359.06	3164	04:06:22:20	http://search.mbari.org/ARCHIVE/frameGrabs/Ventana/images/3164/04_06_31_05.jpg	36.815952	-122.17262	2458324	0.91	37:48.0	Ventana	34.187	04:06:31:05	6.603	Chondrichthyes	Rajidae	Raja			Animalia	Rajiformes	Chordata	Raja rhina	Elasmobranchii				Vertebrata			Eukaryota	Batoidea	V3164-04
population-quantity | self | 999	cruise	Rathbunaster californicus	358.37	3164	04:06:50:19	 	36.816074	-122.17258	2458327	0.91	38:16.0	Ventana	34.188	04:06:59:01	6.603		Labidiasteridae	Rathbunaster			Animalia	Forcipulatida	Echinodermata	Rathbunaster californicus	Asteroidea							Eukaryota		V3164-04
"comment | self | cable upon seafloor, habitat | self | flat mud, life-stage | self | juvenile"	cruise	Raja rhina	358.51	3164	04:07:02:19	 	36.81613	-122.172554	2458328	0.91	38:28.0	Ventana	34.186	04:07:10:05	6.603	Chondrichthyes	Rajidae	Raja			Animalia	Rajiformes	Chordata	Raja rhina	Elasmobranchii				Vertebrata			Eukaryota	Batoidea	V3164-04
population-quantity | self | 999	cruise	Merluccius productus	358.56	3164	04:07:04:18	 	36.816143	-122.17255	2458329	0.91	38:30.0	Ventana	34.186	04:07:12:21	6.603	Osteichthyes	Merlucciidae	Merluccius	Neopterygii		Animalia	Gadiformes	Chordata	Merluccius productus	Actinopterygii				Vertebrata	Gnathostomata		Eukaryota	Paracanthopterygii	V3164-04
population-quantity | self | 999	cruise	Merluccius productus	358.28	3164	04:07:31:03	 	36.816257	-122.17251	2458332	0.91	38:56.0	Ventana	34.188	04:07:39:01	6.597	Osteichthyes	Merlucciidae	Merluccius	Neopterygii		Animalia	Gadiformes	Chordata	Merluccius productus	Actinopterygii				Vertebrata	Gnathostomata		Eukaryota	Paracanthopterygii	V3164-04
population-quantity | self | 999	cruise	Sebastes diploproa	358.26	3164	04:08:03:02	 	36.816418	-122.17248	2458333	0.91	39:29.0	Ventana	34.188	04:08:11:15	6.598	Osteichthyes	Scorpaenidae	Sebastes	Neopterygii		Animalia	Scorpaeniformes	Chordata	Sebastes diploproa	Actinopterygii			Scorpaenoidei	Vertebrata	Gnathostomata		Eukaryota	Acanthopterygii	V3164-04
population-quantity | self | 999	cruise	Merluccius productus	357.27	3164	04:08:25:01	 	36.816525	-122.17244	2458334	0.91	39:51.0	Ventana	34.188	04:08:34:03	6.596	Osteichthyes	Merlucciidae	Merluccius	Neopterygii		Animalia	Gadiformes	Chordata	Merluccius productus	Actinopterygii				Vertebrata	Gnathostomata		Eukaryota	Paracanthopterygii	V3164-04
population-quantity | self | 999	cruise	Rathbunaster californicus	357.2	3164	04:08:33:01	 	36.816574	-122.17243	2458335	0.91	39:59.0	Ventana	34.189	04:08:40:29	6.591		Labidiasteridae	Rathbunaster			Animalia	Forcipulatida	Echinodermata	Rathbunaster californicus	Asteroidea							Eukaryota		V3164-04
population-quantity | self | 999	cruise	Liponema brevicornis	356.55	3164	04:08:51:00	 	36.816666	-122.1724	2458336	0.91	40:17.0	Ventana	34.188	04:08:58:13	6.595	Anthozoa	Liponematidae	Liponema			Animalia	Actiniaria	Cnidaria	Liponema brevicornis	Hexacorallia			Nyantheae				Eukaryota		V3164-04
population-quantity | self | 999	cruise	Rathbunaster californicus	356.53	3164	04:08:57:00	 	36.816696	-122.17239	2458337	0.91	40:23.0	Ventana	34.188	04:09:04:23	6.593		Labidiasteridae	Rathbunaster			Animalia	Forcipulatida	Echinodermata	Rathbunaster californicus	Asteroidea							Eukaryota		V3164-04
population-quantity | self | 999	cruise	Merluccius productus	356.05	3164	04:09:09:15	 	36.816753	-122.172386	2458339	0.91	40:35.0	Ventana	34.188	04:09:17:18	6.593	Osteichthyes	Merlucciidae	Merluccius	Neopterygii		Animalia	Gadiformes	Chordata	Merluccius productus	Actinopterygii				Vertebrata	Gnathostomata		Eukaryota	Paracanthopterygii	V3164-04
population-quantity | self | 999	cruise	Merluccius productus	355.07	3164	04:09:47:14	 	36.816933	-122.17235	2458341	0.9	41:13.0	Ventana	34.19	04:09:54:28	6.586	Osteichthyes	Merlucciidae	Merluccius	Neopterygii		Animalia	Gadiformes	Chordata	Merluccius productus	Actinopterygii				Vertebrata	Gnathostomata		Eukaryota	Paracanthopterygii	V3164-04
population-quantity | self | 999	cruise	Rathbunaster californicus	354.56	3164	04:10:29:27	 	36.8171	-122.17231	2458344	0.9	41:55.0	Ventana	34.188	04:10:38:23	6.587		Labidiasteridae	Rathbunaster			Animalia	Forcipulatida	Echinodermata	Rathbunaster californicus	Asteroidea							Eukaryota		V3164-04
"identity-gender | self | female, comment | self | cable upon seafloor, habitat | self | flat mud"	cruise	Raja rhina	354.07	3164	04:10:37:27	http://search.mbari.org/ARCHIVE/frameGrabs/Ventana/images/3164/04_10_45_28.jpg	36.81713	-122.1723	2458353	0.9	42:03.0	Ventana	34.188	04:10:45:28	6.587	Chondrichthyes	Rajidae	Raja			Animalia	Rajiformes	Chordata	Raja rhina	Elasmobranchii				Vertebrata			Eukaryota	Batoidea	V3164-04
"comment | self | cable upon seafloor, identity-gender | self | male, habitat | self | flat mud"	cruise	Raja rhina	354.07	3164	04:10:37:27	http://search.mbari.org/ARCHIVE/frameGrabs/Ventana/images/3164/04_10_45_28.jpg	36.81713	-122.1723	2458355	0.9	42:03.0	Ventana	34.188	04:10:45:28	6.587	Chondrichthyes	Rajidae	Raja			Animalia	Rajiformes	Chordata	Raja rhina	Elasmobranchii				Vertebrata			Eukaryota	Batoidea	V3164-04
population-quantity | self | 999	cruise	Merluccius productus	353.83	3164	04:11:17:26	 	36.817287	-122.172264	2458364	0.9	42:44.0	Ventana	34.189	04:11:25:15	6.587	Osteichthyes	Merlucciidae	Merluccius	Neopterygii		Animalia	Gadiformes	Chordata	Merluccius productus	Actinopterygii				Vertebrata	Gnathostomata		Eukaryota	Paracanthopterygii	V3164-04
"swimming | nil | nil, comment | self | cable taut upon seafloor, habitat | self | flat mud, life-stage | self | juvenile"	cruise	Raja rhina	427.52	3164	03:03:41:27	 	36.800735	-122.18615	2458948	0.79	34:12.0	Ventana	34.201	03:03:47:11	6.336	Chondrichthyes	Rajidae	Raja			Animalia	Rajiformes	Chordata	Raja rhina	Elasmobranchii				Vertebrata			Eukaryota	Batoidea	V3164-03
upon | cable | nil	cruise	Liponema brevicornis	377.82	3164	03:46:21:12	http://search.mbari.org/ARCHIVE/frameGrabs/Ventana/images/3164/03_46_30_00.jpg	36.810883	-122.17616	2457775	0.94	17:46.0	Ventana	34.185	03:46:30:00	6.658	Anthozoa	Liponematidae	Liponema			Animalia	Actiniaria	Cnidaria	Liponema brevicornis	Hexacorallia			Nyantheae				Eukaryota		V3164-04
identity-reference | self | start: minor suspension	cruise	cable	353.96	3164	04:11:51:09	http://search.mbari.org/ARCHIVE/frameGrabs/Ventana/images/3164/04_12_00_18.jpg	36.81751	-122.1722	20023796	0.9	43:44.0	Ventana	34.188	04:12:00:18	6.589																			V3164-05
population-quantity | self | 999	cruise	Merluccius productus	353.45	3164	04:11:30:25	 	36.817436	-122.172226	2458950	0.9	43:24.0	Ventana	34.187	04:11:41:20	6.589	Osteichthyes	Merlucciidae	Merluccius	Neopterygii		Animalia	Gadiformes	Chordata	Merluccius productus	Actinopterygii				Vertebrata	Gnathostomata		Eukaryota	Paracanthopterygii	V3164-05
population-quantity | self | 999	cruise	Rathbunaster californicus	353.47	3164	04:11:37:09	 	36.81746	-122.17222	2458951	0.9	43:30.0	Ventana	34.187	04:11:47:02	6.589		Labidiasteridae	Rathbunaster			Animalia	Forcipulatida	Echinodermata	Rathbunaster californicus	Asteroidea							Eukaryota		V3164-05
identity-reference | self | end: minor suspension	cruise	cable	352.9	3164	04:12:13:08	 	36.817593	-122.17218	2458958	0.9	44:06.0	Ventana	34.189	04:12:24:29	6.584																			V3164-05
population-quantity | self | 999	cruise	Rathbunaster californicus	352.9	3164	04:12:13:08	 	36.817593	-122.17218	2458959	0.9	44:06.0	Ventana	34.189	04:12:24:29	6.584		Labidiasteridae	Rathbunaster			Animalia	Forcipulatida	Echinodermata	Rathbunaster californicus	Asteroidea							Eukaryota		V3164-05
population-quantity | self | 999	cruise	Merluccius productus	353.02	3164	04:12:17:08	 	36.817608	-122.17217	2458960	0.9	44:10.0	Ventana	34.189	04:12:27:07	6.585	Osteichthyes	Merlucciidae	Merluccius	Neopterygii		Animalia	Gadiformes	Chordata	Merluccius productus	Actinopterygii				Vertebrata	Gnathostomata		Eukaryota	Paracanthopterygii	V3164-05
population-quantity | self | 999	cruise	Stylasterias forreri	353.33	3164	04:12:53:07	 	36.817764	-122.17212	2458962	0.9	44:46.0	Ventana	34.188	04:13:03:15	6.584		Asteriidae	Stylasterias			Animalia	Forcipulatida	Echinodermata	Stylasterias forreri	Asteroidea							Eukaryota		V3164-05
population-quantity | self | 999	cruise	Rathbunaster californicus	353.34	3164	04:12:59:07	 	36.817787	-122.17211	2458963	0.9	44:52.0	Ventana	34.188	04:13:10:07	6.584		Labidiasteridae	Rathbunaster			Animalia	Forcipulatida	Echinodermata	Rathbunaster californicus	Asteroidea							Eukaryota		V3164-05
"identity-gender | self | female, comment | self | cable upon seafloor, habitat | self | flat mud"	cruise	Raja rhina	353.14	3164	04:13:39:20	http://search.mbari.org/ARCHIVE/frameGrabs/Ventana/images/3164/04_13_49_18.jpg	36.81798	-122.17203	2458967	0.9	45:33.0	Ventana	34.19	04:13:49:18	6.569	Chondrichthyes	Rajidae	Raja			Animalia	Rajiformes	Chordata	Raja rhina	Elasmobranchii				Vertebrata			Eukaryota	Batoidea	V3164-05
"comment | self | cable upon seafloor, habitat | self | flat mud, life-stage | self | juvenile"	cruise	Raja rhina	353.37	3164	04:13:33:21	http://search.mbari.org/ARCHIVE/frameGrabs/Ventana/images/3164/04_13_45_11.jpg	36.81795	-122.172035	2458968	0.9	45:27.0	Ventana	34.19	04:13:45:11	6.569	Chondrichthyes	Rajidae	Raja			Animalia	Rajiformes	Chordata	Raja rhina	Elasmobranchii				Vertebrata			Eukaryota	Batoidea	V3164-05
population-quantity | self | 999	cruise	Rathbunaster californicus	353.08	3164	04:13:41:21	 	36.81799	-122.17203	2458969	0.9	45:35.0	Ventana	34.19	04:13:52:28	6.569		Labidiasteridae	Rathbunaster			Animalia	Forcipulatida	Echinodermata	Rathbunaster californicus	Asteroidea							Eukaryota		V3164-05
population-quantity | self | 999	cruise	Rathbunaster californicus	353.46	3164	04:14:46:03	 	36.818336	-122.17194	2458978	0.9	46:39.0	Ventana	34.189	04:14:57:04	6.578		Labidiasteridae	Rathbunaster			Animalia	Forcipulatida	Echinodermata	Rathbunaster californicus	Asteroidea							Eukaryota		V3164-05
population-quantity | self | 999	cruise	Rathbunaster californicus	351.56	3164	04:16:02:17	 	36.818768	-122.171844	2458987	0.9	47:55.0	Ventana	34.188	04:16:12:27	6.577		Labidiasteridae	Rathbunaster			Animalia	Forcipulatida	Echinodermata	Rathbunaster californicus	Asteroidea							Eukaryota		V3164-05
population-quantity | self | 999	cruise	Allocentrotus fragilis	351.52	3164	04:16:10:16	 	36.818825	-122.17184	2458988	0.9	48:03.0	Ventana	34.188	04:16:22:02	6.577	Echinoidea	Strongylocentrotidae	Allocentrotus			Animalia	Echinoida	Echinodermata	Allocentrotus fragilis	Euechinoidea			Echinacea				Eukaryota		V3164-05
population-quantity | self | 999	cruise	Rathbunaster californicus	351.52	3164	04:16:32:15	 	36.81893	-122.17181	2458989	0.89	48:25.0	Ventana	34.191	04:16:43:26	6.575		Labidiasteridae	Rathbunaster			Animalia	Forcipulatida	Echinodermata	Rathbunaster californicus	Asteroidea							Eukaryota		V3164-05
"comment | self | cable taut upon seafloor, identity-gender | self | male, habitat | self | flat mud"	cruise	Raja rhina	350.8	3164	04:16:54:15	http://search.mbari.org/ARCHIVE/frameGrabs/Ventana/images/3164/04_17_06_06.jpg	36.81905	-122.17177	2458993	0.9	48:48.0	Ventana	34.189	04:17:06:06	6.58	Chondrichthyes	Rajidae	Raja			Animalia	Rajiformes	Chordata	Raja rhina	Elasmobranchii				Vertebrata			Eukaryota	Batoidea	V3164-05
population-quantity | self | 999	cruise	Rathbunaster californicus	350.3	3164	04:17:08:14	 	36.81924	-122.17171	2459000	0.9	49:02.0	Ventana	34.189	04:17:18:16	6.576		Labidiasteridae	Rathbunaster			Animalia	Forcipulatida	Echinodermata	Rathbunaster californicus	Asteroidea							Eukaryota		V3164-05
identity-reference | self | start: minor span	cruise	cable	350.12	3164	04:17:16:14	http://search.mbari.org/ARCHIVE/frameGrabs/Ventana/images/3164/04_17_27_02.jpg	36.819256	-122.17171	2459008	0.9	49:10.0	Ventana	34.188	04:17:27:02	6.584																			V3164-05
upon | cable | nil	cruise	Florometra serratissima	349.89	3164	04:17:34:14	 	36.819313	-122.171684	2459009	0.9	49:28.0	Ventana	34.188	04:17:45:09	6.589	Crinoidea	Antedonidae	Florometra			Animalia	Comatulidina	Echinodermata	Florometra serratissima							Antedonacea	Eukaryota		V3164-05
identity-reference | self | end: minor span	cruise	cable	349.45	3164	04:17:42:28	http://search.mbari.org/ARCHIVE/frameGrabs/Ventana/images/3164/04_17_52_10.jpg	36.819344	-122.17167	2459011	0.9	49:36.0	Ventana	34.188	04:17:52:10	6.589																			V3164-05
population-quantity | self | 999	cruise	Rathbunaster californicus	348.68	3164	04:18:12:27	 	36.81948	-122.17164	2459013	0.9	50:06.0	Ventana	34.189	04:18:23:01	6.595		Labidiasteridae	Rathbunaster			Animalia	Forcipulatida	Echinodermata	Rathbunaster californicus	Asteroidea							Eukaryota		V3164-05
"population-quantity | self | 999, upon | cable | nil"	cruise	Florometra serratissima	347.85	3164	04:18:36:26	 	36.819595	-122.171616	2459015	0.91	50:30.0	Ventana	34.187	04:18:47:22	6.622	Crinoidea	Antedonidae	Florometra			Animalia	Comatulidina	Echinodermata	Florometra serratissima							Antedonacea	Eukaryota		V3164-05
identity-reference | self | start: minor span	cruise	cable	347.85	3164	04:18:36:26	 	36.819595	-122.171616	2459018	0.91	50:30.0	Ventana	34.187	04:18:47:22	6.622																			V3164-05
identity-reference | self | end: minor span	cruise	cable	346.85	3164	04:18:57:11	http://search.mbari.org/ARCHIVE/frameGrabs/Ventana/images/3164/04_19_08_04.jpg	36.81969	-122.1716	2459023	0.94	50:50.0	Ventana	34.183	04:19:08:04	6.68																			V3164-05
population-quantity | self | 999	cruise	Rathbunaster californicus	345.92	3164	04:19:11:11	 	36.819763	-122.171585	2459026	0.95	51:04.0	Ventana	34.181	04:19:21:29	6.688		Labidiasteridae	Rathbunaster			Animalia	Forcipulatida	Echinodermata	Rathbunaster californicus	Asteroidea							Eukaryota		V3164-05
population-quantity | self | 999	cruise	Rathbunaster californicus	343.34	3164	04:20:09:09	 	36.819977	-122.17158	2459031	0.95	52:03.0	Ventana	34.183	04:20:20:15	6.672		Labidiasteridae	Rathbunaster			Animalia	Forcipulatida	Echinodermata	Rathbunaster californicus	Asteroidea							Eukaryota		V3164-05
population-quantity | self | 999	cruise	Rathbunaster californicus	343.85	3164	04:20:31:08	http://search.mbari.org/ARCHIVE/frameGrabs/Ventana/images/3164/04_20_41_02.jpg	36.81998	-122.17162	2459032	0.94	52:25.0	Ventana	34.184	04:20:41:02	6.661		Labidiasteridae	Rathbunaster			Animalia	Forcipulatida	Echinodermata	Rathbunaster californicus	Asteroidea							Eukaryota		V3164-05
perspective | self | distant	ascend	benthos	339.86	3164	04:22:09:20	 	36.819973	-122.17185	2459036	0.98	54:03.0	Ventana	34.181	04:22:20:14	6.766																			V3164-05
population-quantity | self | 999	ascend	Merluccius productus	308.71	3164	04:25:00:15	 	36.82011	-122.17218	2459044	1.22	56:54.0	Ventana	34.15	04:25:10:17	7.168	Osteichthyes	Merlucciidae	Merluccius	Neopterygii		Animalia	Gadiformes	Chordata	Merluccius productus	Actinopterygii				Vertebrata	Gnathostomata		Eukaryota	Paracanthopterygii	V3164-05
calibrated | self | lower 2 are 23 cm apart	launch	lasers	 	3164	 	http://search.mbari.org/ARCHIVE/frameGrabs/Ventana/images/3164/00_00_28_21.jpg	 	 	20023698	 	 	Ventana	 	00:00:28:21	 																			V3164-01
population-quantity | self | 999	descend	Euphausiacea	184.56	3164	00:13:19:10	 	36.770702	-122.19387	20023703	2.52	41:43.0	Ventana	34.001	00:13:19:12	9.212	Malacostraca					Animalia	Euphausiacea	Arthropoda		Eumalacostraca							Eukaryota	Eucarida	V3164-01
identity-reference | self | 1	descend	Lampocteis	539.14	3164	00:27:07:00	http://search.mbari.org/ARCHIVE/frameGrabs/Ventana/images/3164/00_27_08_16.jpg	36.770557	-122.193695	20023707	0.45	55:32.0	Ventana	34.281	00:27:08:16	5.57		Lampoctenidae	Lampocteis			Animalia	Tentaculata	Ctenophora									Eukaryota		V3164-01
identity-reference | self | 1	descend	Lampocteis	538.56	3164	00:27:34:29	http://search.mbari.org/ARCHIVE/frameGrabs/Ventana/images/3164/00_27_36_01.jpg	36.770557	-122.19367	20023708	0.44	56:00.0	Ventana	34.28	00:27:36:01	5.572		Lampoctenidae	Lampocteis			Animalia	Tentaculata	Ctenophora									Eukaryota		V3164-01
population-quantity | self | 999	cruise	Allocentrotus fragilis	586.34	3164	00:43:15:01	http://search.mbari.org/ARCHIVE/frameGrabs/Ventana/images/3164/00_43_15_16.jpg	36.77051	-122.194145	20023721	0.38	11:41.0	Ventana	34.309	00:43:15:16	5.382	Echinoidea	Strongylocentrotidae	Allocentrotus			Animalia	Echinoida	Echinodermata	Allocentrotus fragilis	Euechinoidea			Echinacea				Eukaryota		V3164-01
population-quantity | self | 999	cruise	Allocentrotus fragilis	581.07	3164	00:45:27:26	http://search.mbari.org/ARCHIVE/frameGrabs/Ventana/images/3164/00_45_28_12.jpg	36.771004	-122.19431	20023723	0.38	13:54.0	Ventana	34.307	00:45:28:12	5.401	Echinoidea	Strongylocentrotidae	Allocentrotus			Animalia	Echinoida	Echinodermata	Allocentrotus fragilis	Euechinoidea			Echinacea				Eukaryota		V3164-01
identity-reference | self | 3	cruise	Nereocystis luetkeana	581.07	3164	00:45:27:26	http://search.mbari.org/ARCHIVE/frameGrabs/Ventana/images/3164/00_45_28_12.jpg	36.771004	-122.19431	20023722	0.38	13:54.0	Ventana	34.307	00:45:28:12	5.401	Phaeophyceae	Lessoniaceae	Nereocystis			Chromista	Laminariales	Phaeophycophyta	Nereocystis luetkeana								Eukaryota		V3164-01
identity-reference | self | 3	cruise	Nereocystis luetkeana	580.79	3164	00:46:09:25	http://search.mbari.org/ARCHIVE/frameGrabs/Ventana/images/3164/00_46_11_11.jpg	36.771088	-122.19432	20023724	0.38	14:36.0	Ventana	34.306	00:46:11:11	5.405	Phaeophyceae	Lessoniaceae	Nereocystis			Chromista	Laminariales	Phaeophycophyta	Nereocystis luetkeana								Eukaryota		V3164-01
population-quantity | self | 999	cruise	Ceriantharia sp. 1	534.57	3164	01:11:43:04	 	36.777218	-122.19507	20023731	0.4	41:06.0	Ventana	34.293	01:11:48:02	5.498	Anthozoa					Animalia	Ceriantharia	Cnidaria		Ceriantipatharia							Eukaryota		V3164-02
population-quantity | self | 999	cruise	Allocentrotus fragilis	530.32	3164	01:14:37:29	 	36.77792	-122.195015	20023734	0.4	44:01.0	Ventana	34.291	01:14:42:11	5.513	Echinoidea	Strongylocentrotidae	Allocentrotus			Animalia	Echinoida	Echinodermata	Allocentrotus fragilis	Euechinoidea			Echinacea				Eukaryota		V3164-02
audio-comment | self | looking to the west for a sonar trace; grappel mark can still be seen	cruise	physical object	527.86	3164	01:16:30:10	http://search.mbari.org/ARCHIVE/frameGrabs/Ventana/images/3164/01_16_35_08.jpg	36.77825	-122.19497	20023735	0.41	45:53.0	Ventana	34.289	01:16:35:08	5.524																			V3164-02
population-quantity | self | 999	cruise	Chionoecetes tanneri	526	3164	01:20:35:18	http://search.mbari.org/ARCHIVE/frameGrabs/Ventana/images/3164/01_20_39_16.jpg	36.77862	-122.19499	20023738	0.41	49:59.0	Ventana	34.287	01:20:39:16	5.534	Malacostraca	Majidae	Chionoecetes		Brachyura	Animalia	Decapoda	Arthropoda	Chionoecetes tanneri	Eumalacostraca						Majoidea	Eukaryota	Eucarida	V3164-02
population-quantity | self | 999	cruise	Liponema brevicornis	525.96	3164	01:20:41:18	http://search.mbari.org/ARCHIVE/frameGrabs/Ventana/images/3164/01_20_46_00.jpg	36.77865	-122.194984	20023739	0.41	50:05.0	Ventana	34.287	01:20:46:00	5.534	Anthozoa	Liponematidae	Liponema			Animalia	Actiniaria	Cnidaria	Liponema brevicornis	Hexacorallia			Nyantheae				Eukaryota		V3164-02
audio-comment | self | ~25 m from parallel to the cable; can be seen on radar and may be from grappling hook	cruise	trench	586.83	3164	00:38:03:25	http://search.mbari.org/ARCHIVE/frameGrabs/Ventana/images/3164/00_38_05_11.jpg	36.77041	-122.19432	20023714	0.37	06:29.0	Ventana	34.31	00:38:05:11	5.356																			V3164-01
mating | nil | nil	cruise	Chionoecetes tanneri	496.1	3164	01:42:37:07	http://search.mbari.org/ARCHIVE/frameGrabs/Ventana/images/3164/01_42_40_20.jpg	36.78392	-122.19462	20023747	0.46	12:01.0	Ventana	34.27	01:42:40:20	5.664	Malacostraca	Majidae	Chionoecetes		Brachyura	Animalia	Decapoda	Arthropoda	Chionoecetes tanneri	Eumalacostraca						Majoidea	Eukaryota	Eucarida	V3164-02
population-quantity | self | 999	cruise	Liponema brevicornis	491.55	3164	01:46:02:01	 	36.78487	-122.194405	20023749	0.49	15:26.0	Ventana	34.263	01:46:06:28	5.722	Anthozoa	Liponematidae	Liponema			Animalia	Actiniaria	Cnidaria	Liponema brevicornis	Hexacorallia			Nyantheae				Eukaryota		V3164-02
population-quantity | self | 999	cruise	Liponema brevicornis	485.73	3164	01:50:57:07	 	36.786095	-122.19397	20023751	0.5	20:22.0	Ventana	34.259	01:51:00:04	5.748	Anthozoa	Liponematidae	Liponema			Animalia	Actiniaria	Cnidaria	Liponema brevicornis	Hexacorallia			Nyantheae				Eukaryota		V3164-02
upon | benthos | nil	cruise	Siphonophora	479.72	3164	01:56:08:13	http://search.mbari.org/ARCHIVE/frameGrabs/Ventana/images/3164/01_56_12_25.jpg	36.787403	-122.19355	20023753	0.54	25:34.0	Ventana	34.25	01:56:12:25	5.843						Animalia	Siphonophora	Cnidaria							Hydrozoa		Eukaryota		V3164-02
population-quantity | self | 999	cruise	Liponema brevicornis	477.17	3164	01:58:14:24	http://search.mbari.org/ARCHIVE/frameGrabs/Ventana/images/3164/01_58_19_21.jpg	36.78795	-122.19328	20023754	0.51	27:40.0	Ventana	34.257	01:58:19:21	5.77	Anthozoa	Liponematidae	Liponema			Animalia	Actiniaria	Cnidaria	Liponema brevicornis	Hexacorallia			Nyantheae				Eukaryota		V3164-02
"comment | self | start Station B transect A (cable), cable taut ~1-2 inches off seafloor)"	starttransect	physical object	435.43	3164	02:41:56:06	http://search.mbari.org/ARCHIVE/frameGrabs/Ventana/images/3164/02_41_59_23.jpg	36.79938	-122.18705	20023762	0.76	12:26.0	Ventana	34.205	02:41:59:23	6.317																			V3164-03
curling | nil | nil	cruise	Eptatretus stoutii	435.44	3164	02:41:44:07	http://search.mbari.org/ARCHIVE/frameGrabs/Ventana/images/3164/02_41_48_08.jpg	36.799377	-122.18704	20023761	0.76	12:14.0	Ventana	34.205	02:41:48:08	6.317	Agnatha		Eptatretus			Animalia		Chordata						Vertebrata			Eukaryota		V3164-03
perspective | self | close-up	cruise	trash	428.68	3164	02:50:06:06	http://search.mbari.org/ARCHIVE/frameGrabs/Ventana/images/3164/02_50_09_23.jpg	36.800426	-122.18627	20023765	0.76	20:36.0	Ventana	34.205	02:50:09:23	6.313																			V3164-03
comment | self | Station B transect B (off cable)	starttransect	physical object	431.06	3164	02:52:49:01	http://search.mbari.org/ARCHIVE/frameGrabs/Ventana/images/3164/02_52_54_03.jpg	36.80005	-122.18593	20023766	0.77	23:19.0	Ventana	34.205	02:52:54:03	6.313																			V3164-03
"life-stage | self | dead, identity-reference | self | 5, life-stage | self | juvenile"	cruise	Raja rhina	423.84	3164	03:16:10:07	http://search.mbari.org/ARCHIVE/frameGrabs/Ventana/images/3164/03_16_19_03.jpg	36.804203	-122.18307	20023769	0.72	47:33.0	Ventana	34.215	03:16:19:03	6.232	Chondrichthyes	Rajidae	Raja			Animalia	Rajiformes	Chordata	Raja rhina	Elasmobranchii				Vertebrata			Eukaryota	Batoidea	V3164-04
"life-stage | self | dead, identity-reference | self | 5, life-stage | self | juvenile"	cruise	Raja rhina	423.61	3164	03:16:28:07	http://search.mbari.org/ARCHIVE/frameGrabs/Ventana/images/3164/03_16_35_17.jpg	36.80426	-122.18302	20023770	0.72	47:51.0	Ventana	34.213	03:16:35:17	6.236	Chondrichthyes	Rajidae	Raja			Animalia	Rajiformes	Chordata	Raja rhina	Elasmobranchii				Vertebrata			Eukaryota	Batoidea	V3164-04
"comment | self | yikes, Linda is driving the rov!"	cruise	cable	415.81	3164	03:26:36:18	http://search.mbari.org/ARCHIVE/frameGrabs/Ventana/images/3164/03_26_45_13.jpg	36.806538	-122.18089	20023771	0.73	58:00.0	Ventana	34.211	03:26:45:13	6.26																			V3164-04
population-density | self | dense	cruise	Allocentrotus fragilis	406.87	3164	03:29:57:12	http://search.mbari.org/ARCHIVE/frameGrabs/Ventana/images/3164/03_30_06_22.jpg	36.807205	-122.180145	20023772	0.77	01:21.0	Ventana	34.205	03:30:06:22	6.316	Echinoidea	Strongylocentrotidae	Allocentrotus			Animalia	Echinoida	Echinodermata	Allocentrotus fragilis	Euechinoidea			Echinacea				Eukaryota		V3164-04
identity-reference | self | 6	cruise	ridge	388.42	3164	03:38:07:12	http://search.mbari.org/ARCHIVE/frameGrabs/Ventana/images/3164/03_38_15_07.jpg	36.808964	-122.17811	20023779	0.89	09:31.0	Ventana	34.189	03:38:15:07	6.58																			V3164-04
 	transect	Stomphia	433.23	3164	02:55:25:27	 	36.79972	-122.18627	2454531	0.77	25:56.0	Ventana	34.203	02:55:30:06	6.321	Anthozoa	Actinostolidae	Stomphia			Animalia	Actiniaria	Cnidaria		Hexacorallia			Nyantheae				Eukaryota		V3164-03
 	cruise	Sebastes	343.22	3164	04:20:05:09	 	36.81997	-122.17158	2459030	0.95	51:59.0	Ventana	34.183	04:20:16:28	6.672	Osteichthyes	Scorpaenidae	Sebastes	Neopterygii		Animalia	Scorpaeniformes	Chordata		Actinopterygii			Scorpaenoidei	Vertebrata	Gnathostomata		Eukaryota	Acanthopterygii	V3164-05
 	cruise	Stylasterias forreri	423.79	3164	03:16:58:21	 	36.804333	-122.18295	2456619	0.72	48:21.0	Ventana	34.215	03:17:06:00	6.233		Asteriidae	Stylasterias			Animalia	Forcipulatida	Echinodermata	Stylasterias forreri	Asteroidea							Eukaryota		V3164-04
 	transect	Rathbunaster californicus	433.84	3164	02:56:33:25	 	36.799576	-122.18651	2454561	0.77	27:04.0	Ventana	34.205	02:56:38:26	6.318		Labidiasteridae	Rathbunaster			Animalia	Forcipulatida	Echinodermata	Rathbunaster californicus	Asteroidea							Eukaryota		V3164-03
 	cruise	Halipteris californica	541.52	3164	01:06:43:28	 	36.77614	-122.19495	2448207	0.4	36:06.0	Ventana	34.296	01:06:47:18	5.475	Anthozoa	Halipteridae	Halipteris			Animalia	Pennatulacea	Cnidaria	Halipteris californica	Octocorallia			Subselliflorae				Eukaryota		V3164-02
 	cruise	Parmaturus xaniurus	440.73	3164	02:29:55:13	 	36.797405	-122.18847	2452120	0.76	00:24.0	Ventana	34.206	02:30:00:23	6.312	Chondrichthyes	Scyliorhinidae	Parmaturus			Animalia	Carcharhiniformes	Chordata	Parmaturus xaniurus	Elasmobranchii				Vertebrata			Eukaryota	Galeomorphi	V3164-03
 	cruise	Merluccius productus	584.36	3164	00:31:04:08	 	36.77049	-122.19381	2447854	0.39	59:29.0	Ventana	34.302	00:31:04:13	5.412	Osteichthyes	Merlucciidae	Merluccius	Neopterygii		Animalia	Gadiformes	Chordata	Merluccius productus	Actinopterygii				Vertebrata	Gnathostomata		Eukaryota	Paracanthopterygii	V3164-01
 	cruise	trench	498.8	3164	01:40:34:11	http://search.mbari.org/ARCHIVE/frameGrabs/Ventana/images/3164/01_40_39_16.jpg	36.783306	-122.19466	2448913	0.48	09:59.0	Ventana	34.267	01:40:39:16	5.697																			V3164-02
 	transect	Asbestopluma	432.15	3164	02:54:05:14	 	36.79989	-122.18607	2454471	0.76	24:36.0	Ventana	34.205	02:54:10:17	6.314	Demospongiae	Cladorhizidae	Asbestopluma			Animalia	Poecilosclerida	Porifera					Mycalina				Eukaryota		V3164-03
 	cruise	Halipteris californica	482.2	3164	01:53:55:16	 	36.786877	-122.19373	2450708	0.51	23:21.0	Ventana	34.257	01:54:00:13	5.771	Anthozoa	Halipteridae	Halipteris			Animalia	Pennatulacea	Cnidaria	Halipteris californica	Octocorallia			Subselliflorae				Eukaryota		V3164-02
 	transect	Rathbunaster californicus	431.88	3164	02:53:35:15	 	36.799953	-122.186005	2454441	0.77	24:05.0	Ventana	34.204	02:53:38:25	6.315		Labidiasteridae	Rathbunaster			Animalia	Forcipulatida	Echinodermata	Rathbunaster californicus	Asteroidea							Eukaryota		V3164-03
 	transect	Rathbunaster californicus	434.74	3164	02:57:40:08	 	36.799477	-122.186554	2454591	0.77	28:11.0	Ventana	34.205	02:57:44:13	6.316		Labidiasteridae	Rathbunaster			Animalia	Forcipulatida	Echinodermata	Rathbunaster californicus	Asteroidea							Eukaryota		V3164-03
 	cruise	Parmaturus xaniurus	527.39	3164	01:19:35:05	 	36.778416	-122.19503	20023737	0.41	48:58.0	Ventana	34.289	01:19:39:17	5.526	Chondrichthyes	Scyliorhinidae	Parmaturus			Animalia	Carcharhiniformes	Chordata	Parmaturus xaniurus	Elasmobranchii				Vertebrata			Eukaryota	Galeomorphi	V3164-02
 	cruise	object	557.04	3164	00:57:36:19	 	36.773945	-122.19459	2448004	0.39	26:03.0	Ventana	34.301	00:57:37:08	5.446																			V3164-01
 	transect	Rathbunaster californicus	432.96	3164	02:45:27:15	 	36.799873	-122.18684	2453532	0.77	15:57.0	Ventana	34.204	02:45:31:10	6.318		Labidiasteridae	Rathbunaster			Animalia	Forcipulatida	Echinodermata	Rathbunaster californicus	Asteroidea							Eukaryota		V3164-03
 	transect	Porifera	431.11	3164	02:46:59:27	 	36.80012	-122.1866	2453705	0.77	17:29.0	Ventana	34.204	02:47:03:20	6.318						Animalia		Porifera									Eukaryota		V3164-03
 	cruise	Microstomus pacificus	404.48	3164	03:30:43:26	 	36.8074	-122.17995	2456739	0.77	02:07.0	Ventana	34.204	03:30:52:25	6.332	Osteichthyes	Pleuronectidae	Microstomus	Neopterygii		Animalia	Pleuronectiformes	Chordata	Microstomus pacificus	Actinopterygii				Vertebrata	Gnathostomata		Eukaryota	Acanthopterygii	V3164-04
 	cruise	Halipteris californica	568.05	3164	00:51:27:00	 	36.772495	-122.19448	2447974	0.39	19:53.0	Ventana	34.302	00:51:27:28	5.434	Anthozoa	Halipteridae	Halipteris			Animalia	Pennatulacea	Cnidaria	Halipteris californica	Octocorallia			Subselliflorae				Eukaryota		V3164-01
 	cruise	Actiniaria sp. 3	389.26	3164	03:37:05:14	 	36.808853	-122.17827	2456792	0.87	08:29.0	Ventana	34.192	03:37:13:13	6.546	Anthozoa					Animalia	Actiniaria	Cnidaria		Hexacorallia							Eukaryota		V3164-04
 	cruise	Careproctus melanurus	511.71	3164	01:30:10:00	 	36.781006	-122.19474	2448417	0.46	59:34.0	Ventana	34.274	01:30:14:21	5.637	Osteichthyes	Liparidae	Careproctus	Neopterygii		Animalia	Scorpaeniformes	Chordata	Careproctus melanurus	Actinopterygii				Vertebrata	Gnathostomata		Eukaryota	Acanthopterygii	V3164-02
 	cruise	Porifera	385.42	3164	03:40:28:08	 	36.809505	-122.17759	2457122	0.91	11:53.0	Ventana	34.19	03:40:35:19	6.603						Animalia		Porifera									Eukaryota		V3164-04
 	cruise	Merluccius productus	371	3164	03:55:27:25	 	36.813026	-122.17419	2458174	0.89	26:53.0	Ventana	34.191	03:55:36:16	6.562	Osteichthyes	Merlucciidae	Merluccius	Neopterygii		Animalia	Gadiformes	Chordata	Merluccius productus	Actinopterygii				Vertebrata	Gnathostomata		Eukaryota	Paracanthopterygii	V3164-04
 	cruise	Liponema brevicornis	502.05	3164	01:38:00:01	 	36.782715	-122.19471	2448447	0.48	07:24.0	Ventana	34.267	01:38:03:11	5.694	Anthozoa	Liponematidae	Liponema			Animalia	Actiniaria	Cnidaria	Liponema brevicornis	Hexacorallia			Nyantheae				Eukaryota		V3164-02
 	cruise	Merluccius productus	434.05	3164	03:00:17:02	 	36.799736	-122.18655	2454644	0.77	30:47.0	Ventana	34.203	03:00:21:15	6.317	Osteichthyes	Merlucciidae	Merluccius	Neopterygii		Animalia	Gadiformes	Chordata	Merluccius productus	Actinopterygii				Vertebrata	Gnathostomata		Eukaryota	Paracanthopterygii	V3164-03
 	transect	Rathbunaster californicus	429.12	3164	02:48:39:24	 	36.80039	-122.1864	2454268	0.77	19:10.0	Ventana	34.205	02:48:45:05	6.312		Labidiasteridae	Rathbunaster			Animalia	Forcipulatida	Echinodermata	Rathbunaster californicus	Asteroidea							Eukaryota		V3164-03
 	cruise	Microstomus pacificus	471.55	3164	02:01:33:18	 	36.789112	-122.19292	2450768	0.63	30:59.0	Ventana	34.236	02:01:37:13	5.991	Osteichthyes	Pleuronectidae	Microstomus	Neopterygii		Animalia	Pleuronectiformes	Chordata	Microstomus pacificus	Actinopterygii				Vertebrata	Gnathostomata		Eukaryota	Acanthopterygii	V3164-02
 	cruise	Henricia sanguinolenta	434.96	3164	02:40:15:24	 	36.79941	-122.18706	2452353	0.77	10:45.0	Ventana	34.205	02:40:19:27	6.318		Echinasteridae	Henricia			Animalia	Spinulosida	Echinodermata	Henricia sanguinolenta	Asteroidea			Leptognathina				Eukaryota		V3164-03
 	cruise	Asbestopluma	361.09	3164	04:03:01:26	 	36.815044	-122.17297	2458264	0.92	34:27.0	Ventana	34.187	04:03:10:09	6.618	Demospongiae	Cladorhizidae	Asbestopluma			Animalia	Poecilosclerida	Porifera					Mycalina				Eukaryota		V3164-04
 	cruise	Lycodes cortezianus	353.2	3164	04:13:49:21	 	36.818027	-122.17201	2458970	0.89	45:43.0	Ventana	34.189	04:14:00:06	6.568	Osteichthyes	Zoarcidae	Lycodes	Neopterygii		Animalia	Perciformes	Chordata	Lycodes cortezianus	Actinopterygii			Zoarcoidei	Vertebrata	Gnathostomata		Eukaryota	Acanthopterygii	V3164-05
 	cruise	Sebastes	448.01	3164	02:22:23:12	 	36.795177	-122.18984	2451301	0.74	52:52.0	Ventana	34.21	02:22:27:10	6.284	Osteichthyes	Scorpaenidae	Sebastes	Neopterygii		Animalia	Scorpaeniformes	Chordata		Actinopterygii			Scorpaenoidei	Vertebrata	Gnathostomata		Eukaryota	Acanthopterygii	V3164-03
 	transect	Anthomastus ritteri	429.99	3164	02:47:51:25	 	36.800274	-122.18646	2453765	0.77	18:22.0	Ventana	34.204	02:47:55:23	6.316	Anthozoa	Alcyoniidae				Animalia	Alcyonacea	Cnidaria	Anthomastus	Octocorallia							Eukaryota		V3164-03
 	cruise	Halipteris californica	462.78	3164	02:08:38:07	 	36.791336	-122.19193	2450911	0.69	39:06.0	Ventana	34.218	02:08:42:04	6.187	Anthozoa	Halipteridae	Halipteris			Animalia	Pennatulacea	Cnidaria	Halipteris californica	Octocorallia			Subselliflorae				Eukaryota		V3164-03
 	cruise	Merluccius productus	379.43	3164	03:44:55:14	 	36.810516	-122.17651	2457731	0.99	16:20.0	Ventana	34.176	03:45:02:12	6.759	Osteichthyes	Merlucciidae	Merluccius	Neopterygii		Animalia	Gadiformes	Chordata	Merluccius productus	Actinopterygii				Vertebrata	Gnathostomata		Eukaryota	Paracanthopterygii	V3164-04
 	transect	Mediaster tenellus	432.41	3164	02:54:25:14	 	36.799847	-122.18612	2454501	0.77	24:56.0	Ventana	34.204	02:54:30:20	6.318		Goniasteridae	Mediaster			Animalia	Valvatida	Echinodermata	Mediaster tenellus	Asteroidea			Granulosina				Eukaryota		V3164-03
 	cruise	Actiniaria sp. 3	358.33	3164	04:07:23:03	 	36.816223	-122.17252	2458331	0.91	38:48.0	Ventana	34.187	04:07:32:05	6.601	Anthozoa					Animalia	Actiniaria	Cnidaria		Hexacorallia							Eukaryota		V3164-04
 	transect	Rathbunaster californicus	435.25	3164	02:43:14:19	 	36.79951	-122.187	2453449	0.76	13:44.0	Ventana	34.205	02:43:20:01	6.317		Labidiasteridae	Rathbunaster			Animalia	Forcipulatida	Echinodermata	Rathbunaster californicus	Asteroidea							Eukaryota		V3164-03
 	transect	Eptatretus stoutii	435.54	3164	02:42:20:20	http://search.mbari.org/ARCHIVE/frameGrabs/Ventana/images/3164/02_42_24_01.jpg	36.7994	-122.18704	2452420	0.76	12:50.0	Ventana	34.205	02:42:24:01	6.316	Agnatha		Eptatretus			Animalia		Chordata						Vertebrata			Eukaryota		V3164-03
 	transect	Porifera	434.73	3164	02:44:07:02	http://search.mbari.org/ARCHIVE/frameGrabs/Ventana/images/3164/02_44_11_04.jpg	36.79965	-122.18694	2453479	0.77	14:37.0	Ventana	34.205	02:44:11:04	6.317						Animalia		Porifera									Eukaryota		V3164-03
 	cruise	Allocentrotus fragilis	539.01	3164	01:08:40:10	 	36.776543	-122.19501	2448214	0.4	38:03.0	Ventana	34.295	01:08:44:23	5.483	Echinoidea	Strongylocentrotidae	Allocentrotus			Animalia	Echinoida	Echinodermata	Allocentrotus fragilis	Euechinoidea			Echinacea				Eukaryota		V3164-02
 	cruise	Liponema brevicornis	495.52	3164	01:42:49:07	 	36.783985	-122.19461	2450625	0.47	12:14.0	Ventana	34.269	01:42:53:14	5.671	Anthozoa	Liponematidae	Liponema			Animalia	Actiniaria	Cnidaria	Liponema brevicornis	Hexacorallia			Nyantheae				Eukaryota		V3164-02
 	cruise	Lycodes cortezianus	431.85	3164	02:53:33:15	http://search.mbari.org/ARCHIVE/frameGrabs/Ventana/images/3164/02_53_37_22.jpg	36.799957	-122.186005	2455966	0.77	24:03.0	Ventana	34.204	02:53:37:22	6.315	Osteichthyes	Zoarcidae	Lycodes	Neopterygii		Animalia	Perciformes	Chordata	Lycodes cortezianus	Actinopterygii			Zoarcoidei	Vertebrata	Gnathostomata		Eukaryota	Acanthopterygii	V3164-03
 	transect	Benthopecten	435.5	3164	02:42:00:07	http://search.mbari.org/ARCHIVE/frameGrabs/Ventana/images/3164/02_42_05_10.jpg	36.79938	-122.18705	2452390	0.76	12:30.0	Ventana	34.205	02:42:05:10	6.317		Benthopectinidae	Benthopecten			Animalia		Echinodermata									Eukaryota		V3164-03
 	transect	Merluccius productus	433.68	3164	02:56:17:25	 	36.79963	-122.18642	2454554	0.77	26:48.0	Ventana	34.205	02:56:21:26	6.318	Osteichthyes	Merlucciidae	Merluccius	Neopterygii		Animalia	Gadiformes	Chordata	Merluccius productus	Actinopterygii				Vertebrata	Gnathostomata		Eukaryota	Paracanthopterygii	V3164-03
 	transect	Mediaster aequalis	431.99	3164	02:53:55:14	 	36.79991	-122.18605	2454464	0.76	24:25.0	Ventana	34.205	02:53:59:17	6.314		Goniasteridae	Mediaster			Animalia	Valvatida	Echinodermata	Mediaster aequalis	Asteroidea			Granulosina				Eukaryota		V3164-03
 	cruise	sinker	545.72	3164	01:03:17:05	 	36.775482	-122.19487	2448154	0.39	32:39.0	Ventana	34.296	01:03:22:15	5.474																			V3164-02
 	transect	Porifera	431.08	3164	02:47:01:27	 	36.800125	-122.18659	2453712	0.77	17:31.0	Ventana	34.204	02:47:06:06	6.318						Animalia		Porifera									Eukaryota		V3164-03
 	cruise	Anthoptilum grandiflorum	575.93	3164	00:48:14:06	 	36.771538	-122.194244	2447951	0.38	16:40.0	Ventana	34.305	00:48:14:07	5.419	Anthozoa	Anthoptilidae	Anthoptilum			Animalia	Pennatulacea	Cnidaria	Anthoptilum grandiflorum	Octocorallia			Sessiliflorae				Eukaryota		V3164-01
 	cruise	Microstomus pacificus	566.23	3164	00:52:19:14	 	36.7727	-122.194466	2447981	0.39	20:46.0	Ventana	34.303	00:52:21:05	5.441	Osteichthyes	Pleuronectidae	Microstomus	Neopterygii		Animalia	Pleuronectiformes	Chordata	Microstomus pacificus	Actinopterygii				Vertebrata	Gnathostomata		Eukaryota	Acanthopterygii	V3164-01
 	cruise	Actiniaria sp. 3	417.88	3164	03:24:02:08	 	36.806087	-122.18133	2456686	0.73	55:25.0	Ventana	34.212	03:24:10:08	6.254	Anthozoa					Animalia	Actiniaria	Cnidaria		Hexacorallia							Eukaryota		V3164-04
 	transect	Mediaster aequalis	431.83	3164	02:53:29:00	 	36.79997	-122.18599	2454434	0.77	23:59.0	Ventana	34.204	02:53:34:12	6.315		Goniasteridae	Mediaster			Animalia	Valvatida	Echinodermata	Mediaster aequalis	Asteroidea			Granulosina				Eukaryota		V3164-03
 	transect	Rathbunaster californicus	434.66	3164	02:57:28:08	 	36.799496	-122.18654	2454584	0.77	27:59.0	Ventana	34.205	02:57:31:27	6.316		Labidiasteridae	Rathbunaster			Animalia	Forcipulatida	Echinodermata	Rathbunaster californicus	Asteroidea							Eukaryota		V3164-03
 	transect	Rathbunaster californicus	433.71	3164	02:44:57:01	 	36.79979	-122.18689	2453509	0.77	15:27.0	Ventana	34.204	02:45:01:26	6.317		Labidiasteridae	Rathbunaster			Animalia	Forcipulatida	Echinodermata	Rathbunaster californicus	Asteroidea							Eukaryota		V3164-03
 	cruise	Actiniaria sp. 3	381.81	3164	03:42:46:18	 	36.810085	-122.17699	2457145	0.98	14:11.0	Ventana	34.178	03:42:55:10	6.75	Anthozoa					Animalia	Actiniaria	Cnidaria		Hexacorallia							Eukaryota		V3164-04
 	cruise	Liponema brevicornis	503.12	3164	01:36:19:19	 	36.78248	-122.19469	2448440	0.47	05:44.0	Ventana	34.269	01:36:24:26	5.67	Anthozoa	Liponematidae	Liponema			Animalia	Actiniaria	Cnidaria	Liponema brevicornis	Hexacorallia			Nyantheae				Eukaryota		V3164-02
 	cruise	Stylasterias forreri	373.49	3164	03:52:13:01	 	36.812187	-122.174866	2458128	0.87	23:38.0	Ventana	34.192	03:52:21:01	6.536		Asteriidae	Stylasterias			Animalia	Forcipulatida	Echinodermata	Stylasterias forreri	Asteroidea							Eukaryota		V3164-04
 	cruise	cable	388.06	3164	03:39:19:25	http://search.mbari.org/ARCHIVE/frameGrabs/Ventana/images/3164/03_39_28_02.jpg	36.80919	-122.177895	2457115	0.89	10:44.0	Ventana	34.191	03:39:28:02	6.572																			V3164-04
 	cruise	Chionoecetes tanneri	515.13	3164	01:27:55:05	 	36.78043	-122.19479	2448410	0.45	57:19.0	Ventana	34.275	01:27:59:27	5.622	Malacostraca	Majidae	Chionoecetes		Brachyura	Animalia	Decapoda	Arthropoda	Chionoecetes tanneri	Eumalacostraca						Majoidea	Eukaryota	Eucarida	V3164-02
 	cruise	Porifera	548.21	3164	01:03:01:24	http://search.mbari.org/ARCHIVE/frameGrabs/Ventana/images/3164/01_03_03_15.jpg	36.77516	-122.19482	2448034	0.39	31:29.0	Ventana	34.298	01:03:03:15	5.465						Animalia		Porifera									Eukaryota		V3164-01
 	cruise	Sebastes aurora	469.89	3164	02:02:54:00	 	36.789516	-122.19268	2450775	0.68	32:20.0	Ventana	34.22	02:02:58:11	6.164	Osteichthyes	Scorpaenidae	Sebastes	Neopterygii		Animalia	Scorpaeniformes	Chordata	Sebastes aurora	Actinopterygii			Scorpaenoidei	Vertebrata	Gnathostomata		Eukaryota	Acanthopterygii	V3164-02
 	cruise	Sebastes	392.48	3164	03:35:41:01	 	36.80856	-122.17862	2456769	0.88	07:05.0	Ventana	34.189	03:35:49:29	6.553	Osteichthyes	Scorpaenidae	Sebastes	Neopterygii		Animalia	Scorpaeniformes	Chordata		Actinopterygii			Scorpaenoidei	Vertebrata	Gnathostomata		Eukaryota	Acanthopterygii	V3164-04
 	cruise	Merluccius productus	480.49	3164	01:55:03:29	 	36.787186	-122.19362	2450715	0.52	24:29.0	Ventana	34.255	01:55:08:00	5.796	Osteichthyes	Merlucciidae	Merluccius	Neopterygii		Animalia	Gadiformes	Chordata	Merluccius productus	Actinopterygii				Vertebrata	Gnathostomata		Eukaryota	Paracanthopterygii	V3164-02
 	transect	Rathbunaster californicus	432.38	3164	02:45:55:14	 	36.799946	-122.18677	2453569	0.77	16:25.0	Ventana	34.204	02:45:59:23	6.316		Labidiasteridae	Rathbunaster			Animalia	Forcipulatida	Echinodermata	Rathbunaster californicus	Asteroidea							Eukaryota		V3164-03
 	cruise	Sebastes diploproa	363.92	3164	04:00:05:02	 	36.81432	-122.17333	2458241	0.93	31:30.0	Ventana	34.186	04:00:13:14	6.635	Osteichthyes	Scorpaenidae	Sebastes	Neopterygii		Animalia	Scorpaeniformes	Chordata	Sebastes diploproa	Actinopterygii			Scorpaenoidei	Vertebrata	Gnathostomata		Eukaryota	Acanthopterygii	V3164-04
 	transect	Actiniaria sp. 3	432.24	3164	02:54:13:14	 	36.799873	-122.18609	2454485	0.77	24:44.0	Ventana	34.204	02:54:18:17	6.316	Anthozoa					Animalia	Actiniaria	Cnidaria		Hexacorallia							Eukaryota		V3164-03
 	transect	Mediaster aequalis	431.92	3164	02:53:45:15	 	36.799934	-122.18603	2454455	0.76	24:15.0	Ventana	34.204	02:53:49:28	6.315		Goniasteridae	Mediaster			Animalia	Valvatida	Echinodermata	Mediaster aequalis	Asteroidea			Granulosina				Eukaryota		V3164-03
 	cruise	Microstomus pacificus	459.53	3164	02:11:13:03	 	36.792038	-122.19156	2451015	0.74	41:40.0	Ventana	34.211	02:11:17:26	6.276	Osteichthyes	Pleuronectidae	Microstomus	Neopterygii		Animalia	Pleuronectiformes	Chordata	Microstomus pacificus	Actinopterygii				Vertebrata	Gnathostomata		Eukaryota	Acanthopterygii	V3164-03
 	transect	Microstomus pacificus	429.92	3164	02:47:55:26	 	36.800285	-122.186455	2454102	0.77	18:26.0	Ventana	34.205	02:48:00:26	6.314	Osteichthyes	Pleuronectidae	Microstomus	Neopterygii		Animalia	Pleuronectiformes	Chordata	Microstomus pacificus	Actinopterygii				Vertebrata	Gnathostomata		Eukaryota	Acanthopterygii	V3164-03
 	transect	Mediaster aequalis	432.58	3164	02:54:53:13	 	36.79979	-122.18619	2454515	0.77	25:24.0	Ventana	34.203	02:54:57:26	6.324		Goniasteridae	Mediaster			Animalia	Valvatida	Echinodermata	Mediaster aequalis	Asteroidea			Granulosina				Eukaryota		V3164-03
 	transect	Rathbunaster californicus	431.72	3164	02:53:23:00	 	36.79998	-122.18598	2454425	0.77	23:53.0	Ventana	34.204	02:53:27:01	6.315		Labidiasteridae	Rathbunaster			Animalia	Forcipulatida	Echinodermata	Rathbunaster californicus	Asteroidea							Eukaryota		V3164-03
 	cruise	Parmaturus xaniurus	485.73	3164	01:50:54:22	 	36.786087	-122.19397	2450692	0.5	20:20.0	Ventana	34.259	01:50:59:15	5.748	Chondrichthyes	Scyliorhinidae	Parmaturus			Animalia	Carcharhiniformes	Chordata	Parmaturus xaniurus	Elasmobranchii				Vertebrata			Eukaryota	Galeomorphi	V3164-02
 	transect	Hippasteria spinosa	430.93	3164	02:47:13:27	 	36.800163	-122.186554	2453719	0.77	17:43.0	Ventana	34.205	02:47:17:08	6.318		Goniasteridae	Hippasteria			Animalia	Valvatida	Echinodermata	Hippasteria spinosa	Asteroidea			Granulosina				Eukaryota		V3164-03
 	transect	Benthopecten	429.96	3164	02:47:53:26	http://search.mbari.org/ARCHIVE/frameGrabs/Ventana/images/3164/02_47_59_06.jpg	36.800278	-122.18646	2454072	0.77	18:24.0	Ventana	34.205	02:47:59:06	6.314		Benthopectinidae	Benthopecten			Animalia		Echinodermata									Eukaryota		V3164-03
 	transect	Psolus squamatus	433.36	3164	02:45:15:01	 	36.79984	-122.18686	2453516	0.77	15:45.0	Ventana	34.204	02:45:18:21	6.317	Holothuroidea	Psolidae	Psolus			Animalia	Dendrochirotida	Echinodermata	Psolus squamatus								Eukaryota		V3164-03
 	cruise	Careproctus melanurus	529.66	3164	01:14:59:28	 	36.778008	-122.19501	2448281	0.41	44:23.0	Ventana	34.29	01:15:03:17	5.519	Osteichthyes	Liparidae	Careproctus	Neopterygii		Animalia	Scorpaeniformes	Chordata	Careproctus melanurus	Actinopterygii				Vertebrata	Gnathostomata		Eukaryota	Acanthopterygii	V3164-02
 	cruise	Sebastolobus	424.71	3164	03:10:30:18	 	36.802883	-122.18433	2456513	0.72	41:53.0	Ventana	34.214	03:10:38:06	6.253	Osteichthyes	Scorpaenidae	Sebastolobus	Neopterygii		Animalia	Scorpaeniformes	Chordata		Actinopterygii			Scorpaenoidei	Vertebrata	Gnathostomata		Eukaryota	Acanthopterygii	V3164-04
 	cruise	Merluccius productus	430.76	3164	02:52:33:02	 	36.800076	-122.18591	2454365	0.77	23:03.0	Ventana	34.205	02:52:36:20	6.313	Osteichthyes	Merlucciidae	Merluccius	Neopterygii		Animalia	Gadiformes	Chordata	Merluccius productus	Actinopterygii				Vertebrata	Gnathostomata		Eukaryota	Paracanthopterygii	V3164-03
 	transect	Eptatretus stoutii	429.71	3164	02:48:09:25	 	36.80032	-122.18643	2454222	0.77	18:40.0	Ventana	34.205	02:48:13:23	6.314	Agnatha		Eptatretus			Animalia		Chordata						Vertebrata			Eukaryota		V3164-03
 	cruise	Florometra serratissima	355.58	3164	04:09:25:14	 	36.816833	-122.17236	2458340	0.91	40:51.0	Ventana	34.189	04:09:33:21	6.588	Crinoidea	Antedonidae	Florometra			Animalia	Comatulidina	Echinodermata	Florometra serratissima							Antedonacea	Eukaryota		V3164-04
 	cruise	Microstomus pacificus	429.4	3164	03:02:33:13	 	36.800426	-122.18629	2455839	0.8	33:04.0	Ventana	34.199	03:02:38:29	6.364	Osteichthyes	Pleuronectidae	Microstomus	Neopterygii		Animalia	Pleuronectiformes	Chordata	Microstomus pacificus	Actinopterygii				Vertebrata	Gnathostomata		Eukaryota	Acanthopterygii	V3164-03
 	transect	Rathbunaster californicus	434.51	3164	02:44:17:02	 	36.79968	-122.186935	2453486	0.76	14:47.0	Ventana	34.204	02:44:20:28	6.317		Labidiasteridae	Rathbunaster			Animalia	Forcipulatida	Echinodermata	Rathbunaster californicus	Asteroidea							Eukaryota		V3164-03
 	transect	Eptatretus stoutii	435.58	3164	02:42:38:20	 	36.79943	-122.187035	2452459	0.76	13:08.0	Ventana	34.206	02:42:42:23	6.315	Agnatha		Eptatretus			Animalia		Chordata						Vertebrata			Eukaryota		V3164-03
 	cruise	Sebastolobus	573.3	3164	00:49:14:19	 	36.771873	-122.19436	2447958	0.39	17:41.0	Ventana	34.303	00:49:15:13	5.429	Osteichthyes	Scorpaenidae	Sebastolobus	Neopterygii		Animalia	Scorpaeniformes	Chordata		Actinopterygii			Scorpaenoidei	Vertebrata	Gnathostomata		Eukaryota	Acanthopterygii	V3164-01
 	cruise	Careproctus melanurus	521.99	3164	01:22:45:29	 	36.779232	-122.1949	2448371	0.43	52:09.0	Ventana	34.283	01:22:50:02	5.567	Osteichthyes	Liparidae	Careproctus	Neopterygii		Animalia	Scorpaeniformes	Chordata	Careproctus melanurus	Actinopterygii				Vertebrata	Gnathostomata		Eukaryota	Acanthopterygii	V3164-02
 	cruise	Anthomastus ritteri	436.13	3164	02:36:11:02	 	36.798756	-122.18751	2452309	0.76	06:40.0	Ventana	34.206	02:36:14:25	6.315	Anthozoa	Alcyoniidae				Animalia	Alcyonacea	Cnidaria	Anthomastus	Octocorallia							Eukaryota		V3164-03
 	cruise	Allocentrotus fragilis	369.32	3164	03:56:44:08	 	36.813366	-122.173935	2458220	0.9	28:10.0	Ventana	34.189	03:56:52:03	6.594	Echinoidea	Strongylocentrotidae	Allocentrotus			Animalia	Echinoida	Echinodermata	Allocentrotus fragilis	Euechinoidea			Echinacea				Eukaryota		V3164-04
 	transect	Psolus squamatus	432.07	3164	02:46:09:14	 	36.799984	-122.18674	2453606	0.77	16:39.0	Ventana	34.204	02:46:13:22	6.316	Holothuroidea	Psolidae	Psolus			Animalia	Dendrochirotida	Echinodermata	Psolus squamatus								Eukaryota		V3164-03
 	cruise	Merluccius productus	400.06	3164	03:32:10:08	 	36.80771	-122.17958	2456746	0.79	03:34.0	Ventana	34.203	03:32:19:16	6.363	Osteichthyes	Merlucciidae	Merluccius	Neopterygii		Animalia	Gadiformes	Chordata	Merluccius productus	Actinopterygii				Vertebrata	Gnathostomata		Eukaryota	Paracanthopterygii	V3164-04
 	cruise	Allocentrotus fragilis	452.53	3164	02:17:22:07	 	36.79373	-122.1907	2451158	0.75	47:50.0	Ventana	34.209	02:17:27:15	6.298	Echinoidea	Strongylocentrotidae	Allocentrotus			Animalia	Echinoida	Echinodermata	Allocentrotus fragilis	Euechinoidea			Echinacea				Eukaryota		V3164-03
 	transect	Stomphia	435.73	3164	02:58:38:21	 	36.799408	-122.18662	2454628	0.76	29:09.0	Ventana	34.205	02:58:42:01	6.315	Anthozoa	Actinostolidae	Stomphia			Animalia	Actiniaria	Cnidaria		Hexacorallia			Nyantheae				Eukaryota		V3164-03
 	cruise	Anoplopoma fimbria	473.95	3164	02:00:05:06	 	36.788605	-122.193	2450752	0.53	29:31.0	Ventana	34.245	02:00:08:22	5.869	Osteichthyes	Anoplopomatidae	Anoplopoma	Neopterygii		Animalia	Scorpaeniformes	Chordata	Anoplopoma fimbria	Actinopterygii			Anoplopomatoidei	Vertebrata	Gnathostomata		Eukaryota	Acanthopterygii	V3164-02
 	cruise	Halipteris californica	505.88	3164	01:34:28:22	 	36.782047	-122.194695	2448431	0.46	03:53.0	Ventana	34.273	01:34:33:00	5.649	Anthozoa	Halipteridae	Halipteris			Animalia	Pennatulacea	Cnidaria	Halipteris californica	Octocorallia			Subselliflorae				Eukaryota		V3164-02
 	cruise	Asbestopluma	388.81	3164	03:38:53:26	 	36.80909	-122.177986	2457106	0.91	10:18.0	Ventana	34.187	03:39:02:24	6.609	Demospongiae	Cladorhizidae	Asbestopluma			Animalia	Poecilosclerida	Porifera					Mycalina				Eukaryota		V3164-04
 	cruise	Sebastes	435.13	3164	02:39:05:27	 	36.799335	-122.187096	2452339	0.76	09:35.0	Ventana	34.206	02:39:09:14	6.317	Osteichthyes	Scorpaenidae	Sebastes	Neopterygii		Animalia	Scorpaeniformes	Chordata		Actinopterygii			Scorpaenoidei	Vertebrata	Gnathostomata		Eukaryota	Acanthopterygii	V3164-03
 	transect	Porifera	430.54	3164	02:47:31:26	 	36.800217	-122.18651	2453749	0.77	18:02.0	Ventana	34.205	02:47:36:10	6.317						Animalia		Porifera									Eukaryota		V3164-03
 	cruise	Sebastes diploproa	361.02	3164	04:03:45:25	http://search.mbari.org/ARCHIVE/frameGrabs/Ventana/images/3164/04_03_53_21.jpg	36.815254	-122.17288	2458280	0.91	35:11.0	Ventana	34.188	04:03:53:21	6.608	Osteichthyes	Scorpaenidae	Sebastes	Neopterygii		Animalia	Scorpaeniformes	Chordata	Sebastes diploproa	Actinopterygii			Scorpaenoidei	Vertebrata	Gnathostomata		Eukaryota	Acanthopterygii	V3164-04
 	cruise	Sebastes	384.07	3164	03:41:52:20	 	36.809868	-122.177216	2457136	0.94	13:17.0	Ventana	34.184	03:42:01:13	6.671	Osteichthyes	Scorpaenidae	Sebastes	Neopterygii		Animalia	Scorpaeniformes	Chordata		Actinopterygii			Scorpaenoidei	Vertebrata	Gnathostomata		Eukaryota	Acanthopterygii	V3164-04
 	cruise	Eptatretus stoutii	439.8	3164	02:31:59:24	 	36.797913	-122.18817	2452196	0.77	02:29.0	Ventana	34.205	02:32:04:02	6.318	Agnatha		Eptatretus			Animalia		Chordata						Vertebrata			Eukaryota		V3164-03
 	cruise	Parastichopus leukothele	351.63	3164	04:15:58:16	 	36.818745	-122.17185	2458986	0.9	47:51.0	Ventana	34.189	04:16:08:27	6.581	Holothuroidea	Stichopodidae	Parastichopus			Animalia	Aspidochirotida	Echinodermata	Parastichopus leukothele	Aspidochirotacea							Eukaryota		V3164-05
 	transect	Rathbunaster californicus	430.37	3164	02:47:39:26	 	36.80024	-122.186485	2453756	0.77	18:10.0	Ventana	34.204	02:47:44:20	6.316		Labidiasteridae	Rathbunaster			Animalia	Forcipulatida	Echinodermata	Rathbunaster californicus	Asteroidea							Eukaryota		V3164-03
 	transect	Asbestopluma	429.92	3164	02:47:59:25	http://search.mbari.org/ARCHIVE/frameGrabs/Ventana/images/3164/02_48_05_04.jpg	36.800297	-122.18645	2454155	0.77	18:30.0	Ventana	34.205	02:48:05:04	6.314	Demospongiae	Cladorhizidae	Asbestopluma			Animalia	Poecilosclerida	Porifera					Mycalina				Eukaryota		V3164-03
 	cruise	Stylasterias forreri	424.29	3164	03:14:41:25	 	36.803825	-122.18339	2456580	0.71	46:04.0	Ventana	34.215	03:14:50:16	6.226		Asteriidae	Stylasterias			Animalia	Forcipulatida	Echinodermata	Stylasterias forreri	Asteroidea							Eukaryota		V3164-04
 	transect	Rathbunaster californicus	433.41	3164	02:55:33:26	 	36.7997	-122.186295	2454538	0.77	26:04.0	Ventana	34.203	02:55:37:24	6.321		Labidiasteridae	Rathbunaster			Animalia	Forcipulatida	Echinodermata	Rathbunaster californicus	Asteroidea							Eukaryota		V3164-03
 	cruise	Chionoecetes tanneri	530.78	3164	01:14:19:29	 	36.777843	-122.195015	2448274	0.4	43:43.0	Ventana	34.291	01:14:23:20	5.51	Malacostraca	Majidae	Chionoecetes		Brachyura	Animalia	Decapoda	Arthropoda	Chionoecetes tanneri	Eumalacostraca						Majoidea	Eukaryota	Eucarida	V3164-02
 	transect	Mediaster aequalis	431.91	3164	02:53:39:15	 	36.799946	-122.18601	2454448	0.76	24:09.0	Ventana	34.204	02:53:43:02	6.315		Goniasteridae	Mediaster			Animalia	Valvatida	Echinodermata	Mediaster aequalis	Asteroidea			Granulosina				Eukaryota		V3164-03
 	cruise	Phialidium	501.89	3164	01:38:10:00	 	36.78274	-122.19471	20023744	0.48	07:34.0	Ventana	34.267	01:38:13:28	5.694		Campanulariidae	Phialidium			Animalia	Leptomedusae	Cnidaria		Hydromedusae					Hydrozoa		Eukaryota		V3164-02
 	cruise	Microstomus pacificus	457.23	3164	02:13:07:14	 	36.792587	-122.19131	2451022	0.74	43:35.0	Ventana	34.211	02:13:11:00	6.275	Osteichthyes	Pleuronectidae	Microstomus	Neopterygii		Animalia	Pleuronectiformes	Chordata	Microstomus pacificus	Actinopterygii				Vertebrata	Gnathostomata		Eukaryota	Acanthopterygii	V3164-03
 	cruise	Hippasteria	489.14	3164	01:47:42:13	http://search.mbari.org/ARCHIVE/frameGrabs/Ventana/images/3164/01_47_46_03.jpg	36.785297	-122.19426	2450669	0.49	17:07.0	Ventana	34.266	01:47:46:03	5.712		Goniasteridae	Hippasteria			Animalia	Valvatida	Echinodermata		Asteroidea			Granulosina				Eukaryota		V3164-02
 	transect	Rathbunaster californicus	434.22	3164	02:44:29:02	 	36.799713	-122.18693	2453493	0.77	14:59.0	Ventana	34.205	02:44:33:23	6.317		Labidiasteridae	Rathbunaster			Animalia	Forcipulatida	Echinodermata	Rathbunaster californicus	Asteroidea							Eukaryota		V3164-03
 	transect	Phyllospadix	431.67	3164	02:53:13:01	 	36.800003	-122.18596	2454418	0.77	23:43.0	Ventana	34.205	02:53:18:11	6.314		Zosteraceae	Phyllospadix			Plantae	Najadales										Eukaryota		V3164-03
 	cruise	Parmaturus xaniurus	500.69	3164	01:39:05:29	http://search.mbari.org/ARCHIVE/frameGrabs/Ventana/images/3164/01_39_09_11.jpg	36.78294	-122.1947	2448477	0.48	08:30.0	Ventana	34.266	01:39:09:11	5.702	Chondrichthyes	Scyliorhinidae	Parmaturus			Animalia	Carcharhiniformes	Chordata	Parmaturus xaniurus	Elasmobranchii				Vertebrata			Eukaryota	Galeomorphi	V3164-02
 	transect	Porifera	435	3164	02:43:32:19	 	36.79955	-122.18698	2453463	0.77	14:02.0	Ventana	34.205	02:43:37:28	6.317						Animalia		Porifera									Eukaryota		V3164-03
 	cruise	Liponema brevicornis	376.58	3164	03:47:03:25	 	36.811073	-122.17596	2457791	0.91	18:29.0	Ventana	34.191	03:47:13:03	6.606	Anthozoa	Liponematidae	Liponema			Animalia	Actiniaria	Cnidaria	Liponema brevicornis	Hexacorallia			Nyantheae				Eukaryota		V3164-04
 	cruise	Umbellula lindahli	582.66	3164	00:44:55:13	 	36.770897	-122.19428	2447935	0.38	13:21.0	Ventana	34.307	00:44:56:01	5.399	Anthozoa	Umbellulidae	Umbellula			Animalia	Pennatulacea	Cnidaria	Umbellula lindahli	Octocorallia			Sessiliflorae				Eukaryota		V3164-01
 	transect	Mediaster aequalis	434.01	3164	02:56:50:09	 	36.799564	-122.186516	2454568	0.77	27:20.0	Ventana	34.204	02:56:54:29	6.318		Goniasteridae	Mediaster			Animalia	Valvatida	Echinodermata	Mediaster aequalis	Asteroidea			Granulosina				Eukaryota		V3164-03
 	cruise	Lycodes cortezianus	518.63	3164	01:25:46:24	 	36.7798	-122.19487	2448394	0.44	55:10.0	Ventana	34.277	01:25:52:00	5.604	Osteichthyes	Zoarcidae	Lycodes	Neopterygii		Animalia	Perciformes	Chordata	Lycodes cortezianus	Actinopterygii			Zoarcoidei	Vertebrata	Gnathostomata		Eukaryota	Acanthopterygii	V3164-02
 	transect	Rathbunaster californicus	432.24	3164	02:46:03:14	 	36.79997	-122.18675	2453583	0.77	16:33.0	Ventana	34.204	02:46:07:03	6.316		Labidiasteridae	Rathbunaster			Animalia	Forcipulatida	Echinodermata	Rathbunaster californicus	Asteroidea							Eukaryota		V3164-03
 	cruise	Stomphia	353.06	3164	04:14:50:04	 	36.818356	-122.171936	2458979	0.9	46:43.0	Ventana	34.189	04:15:00:25	6.578	Anthozoa	Actinostolidae	Stomphia			Animalia	Actiniaria	Cnidaria		Hexacorallia			Nyantheae				Eukaryota		V3164-05
 	cruise	Careproctus melanurus	550.3	3164	01:01:53:26	 	36.774864	-122.19477	2448018	0.39	30:21.0	Ventana	34.299	01:01:55:01	5.459	Osteichthyes	Liparidae	Careproctus	Neopterygii		Animalia	Scorpaeniformes	Chordata	Careproctus melanurus	Actinopterygii				Vertebrata	Gnathostomata		Eukaryota	Acanthopterygii	V3164-01
 	cruise	Actiniaria sp. 3	408.44	3164	03:29:29:13	 	36.807083	-122.18026	2456723	0.76	00:53.0	Ventana	34.205	03:29:37:16	6.318	Anthozoa					Animalia	Actiniaria	Cnidaria		Hexacorallia							Eukaryota		V3164-04
 	transect	Eptatretus stoutii	429.02	3164	02:48:48:09	 	36.800407	-122.186386	2454275	0.77	19:18.0	Ventana	34.205	02:48:51:17	6.312	Agnatha		Eptatretus			Animalia		Chordata						Vertebrata			Eukaryota		V3164-03
 	cruise	Anthoptilum grandiflorum	563.46	3164	00:53:59:26	 	36.77303	-122.19452	2447988	0.39	22:26.0	Ventana	34.3	00:54:01:10	5.445	Anthozoa	Anthoptilidae	Anthoptilum			Animalia	Pennatulacea	Cnidaria	Anthoptilum grandiflorum	Octocorallia			Sessiliflorae				Eukaryota		V3164-01
 	transect	Sebastolobus	435.64	3164	02:58:28:21	 	36.79941	-122.18661	2454621	0.76	28:59.0	Ventana	34.205	02:58:33:19	6.316	Osteichthyes	Scorpaenidae	Sebastolobus	Neopterygii		Animalia	Scorpaeniformes	Chordata		Actinopterygii			Scorpaenoidei	Vertebrata	Gnathostomata		Eukaryota	Acanthopterygii	V3164-03
 	cruise	Asbestopluma	366.88	3164	03:57:52:21	 	36.813686	-122.1737	2458227	0.92	29:18.0	Ventana	34.185	03:57:59:24	6.632	Demospongiae	Cladorhizidae	Asbestopluma			Animalia	Poecilosclerida	Porifera					Mycalina				Eukaryota		V3164-04
 	cruise	trench	473.41	3164	02:00:23:05	http://search.mbari.org/ARCHIVE/frameGrabs/Ventana/images/3164/02_00_26_21.jpg	36.78871	-122.193	2450759	0.61	29:49.0	Ventana	34.225	02:00:26:21	6.065																			V3164-02
 	cruise	cable	379.23	3164	03:45:29:13	http://search.mbari.org/ARCHIVE/frameGrabs/Ventana/images/3164/03_45_38_11.jpg	36.810642	-122.176384	2457738	0.94	16:54.0	Ventana	34.183	03:45:38:11	6.678																			V3164-04
 	cruise	Sebastes	361.16	3164	04:03:53:25	 	36.815292	-122.17287	2458287	0.91	35:19.0	Ventana	34.188	04:04:02:09	6.608	Osteichthyes	Scorpaenidae	Sebastes	Neopterygii		Animalia	Scorpaeniformes	Chordata		Actinopterygii			Scorpaenoidei	Vertebrata	Gnathostomata		Eukaryota	Acanthopterygii	V3164-04
 	cruise	trench	484.1	3164	01:52:25:04	http://search.mbari.org/ARCHIVE/frameGrabs/Ventana/images/3164/01_52_29_28.jpg	36.786476	-122.193855	2450699	0.5	21:50.0	Ventana	34.26	01:52:29:28	5.746																			V3164-02
 	cruise	Liponema brevicornis	508.93	3164	01:32:08:12	 	36.78149	-122.19471	2448424	0.46	01:32.0	Ventana	34.274	01:32:11:24	5.644	Anthozoa	Liponematidae	Liponema			Animalia	Actiniaria	Cnidaria	Liponema brevicornis	Hexacorallia			Nyantheae				Eukaryota		V3164-02
 	transect	Rathbunaster californicus	432.48	3164	02:45:51:14	 	36.79994	-122.186775	2453564	0.77	16:21.0	Ventana	34.204	02:45:55:00	6.318		Labidiasteridae	Rathbunaster			Animalia	Forcipulatida	Echinodermata	Rathbunaster californicus	Asteroidea							Eukaryota		V3164-03
 	cruise	Halipteris californica	556.24	3164	00:58:23:02	 	36.77412	-122.19462	2448006	0.39	26:50.0	Ventana	34.3	00:58:22:27	5.448	Anthozoa	Halipteridae	Halipteris			Animalia	Pennatulacea	Cnidaria	Halipteris californica	Octocorallia			Subselliflorae				Eukaryota		V3164-01
 	transect	Rathbunaster californicus	432.85	3164	02:45:35:15	 	36.799896	-122.18681	2453534	0.77	16:05.0	Ventana	34.204	02:45:40:01	6.318		Labidiasteridae	Rathbunaster			Animalia	Forcipulatida	Echinodermata	Rathbunaster californicus	Asteroidea							Eukaryota		V3164-03
 	cruise	Anoplopoma fimbria	423.97	3164	03:12:15:15	http://search.mbari.org/ARCHIVE/frameGrabs/Ventana/images/3164/03_12_22_27.jpg	36.803272	-122.18392	2456527	0.72	43:37.0	Ventana	34.215	03:12:22:27	6.245	Osteichthyes	Anoplopomatidae	Anoplopoma	Neopterygii		Animalia	Scorpaeniformes	Chordata	Anoplopoma fimbria	Actinopterygii			Anoplopomatoidei	Vertebrata	Gnathostomata		Eukaryota	Acanthopterygii	V3164-04
 	cruise	Sebastes diploproa	360.15	3164	04:06:00:21	 	36.815857	-122.17266	2458322	0.91	37:26.0	Ventana	34.187	04:06:08:18	6.603	Osteichthyes	Scorpaenidae	Sebastes	Neopterygii		Animalia	Scorpaeniformes	Chordata	Sebastes diploproa	Actinopterygii			Scorpaenoidei	Vertebrata	Gnathostomata		Eukaryota	Acanthopterygii	V3164-04
 	cruise	Allocentrotus fragilis	 	3164	 	 	 	 	2447976	 	 	Ventana	 	00:00:01:18	 	Echinoidea	Strongylocentrotidae	Allocentrotus			Animalia	Echinoida	Echinodermata	Allocentrotus fragilis	Euechinoidea			Echinacea				Eukaryota		V3164-01
 	cruise	Allocentrotus fragilis	510.8	3164	01:30:47:29	 	36.781162	-122.19474	2448419	0.46	00:12.0	Ventana	34.271	01:30:52:27	5.646	Echinoidea	Strongylocentrotidae	Allocentrotus			Animalia	Echinoida	Echinodermata	Allocentrotus fragilis	Euechinoidea			Echinacea				Eukaryota		V3164-02
 	cruise	Anthomastus ritteri	436.98	3164	02:35:51:02	 	36.798687	-122.18758	2452261	0.77	06:20.0	Ventana	34.205	02:35:55:21	6.323	Anthozoa	Alcyoniidae				Animalia	Alcyonacea	Cnidaria	Anthomastus	Octocorallia							Eukaryota		V3164-03
 	cruise	Liponema brevicornis	345.75	3164	04:19:27:10	 	36.819836	-122.17158	2459028	0.95	51:20.0	Ventana	34.183	04:19:37:13	6.678	Anthozoa	Liponematidae	Liponema			Animalia	Actiniaria	Cnidaria	Liponema brevicornis	Hexacorallia			Nyantheae				Eukaryota		V3164-05
 	cruise	Gastropoda	586.22	3164	00:32:38:20	 	36.770523	-122.19405	2447856	0.39	01:04.0	Ventana	34.305	00:32:39:11	5.393	Gastropoda					Animalia		Mollusca									Eukaryota		V3164-01
 	cruise	Sebastes	461.03	3164	02:10:06:20	http://search.mbari.org/ARCHIVE/frameGrabs/Ventana/images/3164/02_10_11_25.jpg	36.791733	-122.19171	2450969	0.68	40:34.0	Ventana	34.222	02:10:11:25	6.156	Osteichthyes	Scorpaenidae	Sebastes	Neopterygii		Animalia	Scorpaeniformes	Chordata		Actinopterygii			Scorpaenoidei	Vertebrata	Gnathostomata		Eukaryota	Acanthopterygii	V3164-03
 	cruise	trench	540.21	3164	01:07:40:12	http://search.mbari.org/ARCHIVE/frameGrabs/Ventana/images/3164/01_07_44_04.jpg	36.776333	-122.19498	2448209	0.4	37:03.0	Ventana	34.295	01:07:44:04	5.48																			V3164-02
 	transect	Rathbunaster californicus	431.67	3164	02:53:13:01	 	36.800003	-122.18596	2454420	0.77	23:43.0	Ventana	34.205	02:53:18:11	6.314		Labidiasteridae	Rathbunaster			Animalia	Forcipulatida	Echinodermata	Rathbunaster californicus	Asteroidea							Eukaryota		V3164-03
 	cruise	Halipteris californica	471.94	3164	02:01:19:18	 	36.788994	-122.192955	2450766	0.63	30:45.0	Ventana	34.227	02:01:24:01	6.082	Anthozoa	Halipteridae	Halipteris			Animalia	Pennatulacea	Cnidaria	Halipteris californica	Octocorallia			Subselliflorae				Eukaryota		V3164-02
 	cruise	cable	414.75	3164	03:26:59:03	http://search.mbari.org/ARCHIVE/frameGrabs/Ventana/images/3164/03_27_06_03.jpg	36.806595	-122.180824	2456700	0.73	58:22.0	Ventana	34.211	03:27:06:03	6.263																			V3164-04
 	cruise	Eptatretus stoutii	499.37	3164	01:40:12:11	 	36.783215	-122.19467	20023746	0.48	09:37.0	Ventana	34.266	01:40:15:24	5.695	Agnatha		Eptatretus			Animalia		Chordata						Vertebrata			Eukaryota		V3164-02
 	cruise	cable	379.19	3164	03:44:31:00	http://search.mbari.org/ARCHIVE/frameGrabs/Ventana/images/3164/03_44_39_26.jpg	36.810432	-122.1766	2457729	1	15:56.0	Ventana	34.175	03:44:39:26	6.777																			V3164-04
 	cruise	Sebastes diploproa	374.66	3164	03:50:38:19	 	36.8118	-122.17521	2458059	0.88	22:04.0	Ventana	34.192	03:50:47:11	6.534	Osteichthyes	Scorpaenidae	Sebastes	Neopterygii		Animalia	Scorpaeniformes	Chordata	Sebastes diploproa	Actinopterygii			Scorpaenoidei	Vertebrata	Gnathostomata		Eukaryota	Acanthopterygii	V3164-04
 	transect	Rathbunaster californicus	432.42	3164	02:54:29:13	 	36.79984	-122.18613	2454503	0.77	25:00.0	Ventana	34.204	02:54:33:09	6.318		Labidiasteridae	Rathbunaster			Animalia	Forcipulatida	Echinodermata	Rathbunaster californicus	Asteroidea							Eukaryota		V3164-03
 	cruise	Anthoptilum grandiflorum	443.14	3164	02:28:33:01	 	36.797073	-122.18871	2452088	0.75	59:02.0	Ventana	34.207	02:28:37:09	6.293	Anthozoa	Anthoptilidae	Anthoptilum			Animalia	Pennatulacea	Cnidaria	Anthoptilum grandiflorum	Octocorallia			Sessiliflorae				Eukaryota		V3164-03
 	cruise	Anthomastus ritteri	371.1	3164	03:55:17:26	 	36.81299	-122.17422	2458172	0.89	26:43.0	Ventana	34.19	03:55:26:20	6.559	Anthozoa	Alcyoniidae				Animalia	Alcyonacea	Cnidaria	Anthomastus	Octocorallia							Eukaryota		V3164-04
 	transect	Actiniaria sp. 3	435.15	3164	02:43:22:19	 	36.79953	-122.18699	2453451	0.76	13:52.0	Ventana	34.205	02:43:26:20	6.317	Anthozoa					Animalia	Actiniaria	Cnidaria		Hexacorallia							Eukaryota		V3164-03
 	transect	Sebastolobus	434.68	3164	02:44:09:02	 	36.799652	-122.18694	2453481	0.76	14:39.0	Ventana	34.204	02:44:14:07	6.317	Osteichthyes	Scorpaenidae	Sebastolobus	Neopterygii		Animalia	Scorpaeniformes	Chordata		Actinopterygii			Scorpaenoidei	Vertebrata	Gnathostomata		Eukaryota	Acanthopterygii	V3164-03
 	cruise	Liponema brevicornis	501.86	3164	01:38:08:01	 	36.782738	-122.19471	2448449	0.48	07:32.0	Ventana	34.267	01:38:13:05	5.694	Anthozoa	Liponematidae	Liponema			Animalia	Actiniaria	Cnidaria	Liponema brevicornis	Hexacorallia			Nyantheae				Eukaryota		V3164-02
 	transect	Rathbunaster californicus	429.92	3164	02:47:59:25	http://search.mbari.org/ARCHIVE/frameGrabs/Ventana/images/3164/02_48_05_04.jpg	36.800297	-122.18645	2454187	0.77	18:30.0	Ventana	34.205	02:48:05:04	6.314		Labidiasteridae	Rathbunaster			Animalia	Forcipulatida	Echinodermata	Rathbunaster californicus	Asteroidea							Eukaryota		V3164-03
 	cruise	Eptatretus stoutii	430.47	3164	02:52:01:03	 	36.800137	-122.18591	2454360	0.77	22:31.0	Ventana	34.205	02:52:04:17	6.314	Agnatha		Eptatretus			Animalia		Chordata						Vertebrata			Eukaryota		V3164-03
 	cruise	Hippasteria	524.39	3164	01:21:29:16	 	36.778877	-122.19494	2448352	0.42	50:53.0	Ventana	34.284	01:21:33:21	5.551		Goniasteridae	Hippasteria			Animalia	Valvatida	Echinodermata		Asteroidea			Granulosina				Eukaryota		V3164-02
 	cruise	Stomphia	425.67	3164	03:09:34:20	 	36.80263	-122.18457	2456504	0.71	40:57.0	Ventana	34.217	03:09:43:27	6.231	Anthozoa	Actinostolidae	Stomphia			Animalia	Actiniaria	Cnidaria		Hexacorallia			Nyantheae				Eukaryota		V3164-04
 	cruise	Lycodes cortezianus	448.34	3164	02:25:04:07	 	36.796055	-122.18936	2451975	0.75	55:33.0	Ventana	34.209	02:25:09:20	6.291	Osteichthyes	Zoarcidae	Lycodes	Neopterygii		Animalia	Perciformes	Chordata	Lycodes cortezianus	Actinopterygii			Zoarcoidei	Vertebrata	Gnathostomata		Eukaryota	Acanthopterygii	V3164-03
 	cruise	Merluccius productus	353.17	3164	04:12:45:07	 	36.81773	-122.172134	2458961	0.9	44:38.0	Ventana	34.188	04:12:56:00	6.584	Osteichthyes	Merlucciidae	Merluccius	Neopterygii		Animalia	Gadiformes	Chordata	Merluccius productus	Actinopterygii				Vertebrata	Gnathostomata		Eukaryota	Paracanthopterygii	V3164-05
 	transect	Microstomus pacificus	434.66	3164	02:57:28:08	 	36.799496	-122.18654	2454586	0.77	27:59.0	Ventana	34.205	02:57:33:00	6.316	Osteichthyes	Pleuronectidae	Microstomus	Neopterygii		Animalia	Pleuronectiformes	Chordata	Microstomus pacificus	Actinopterygii				Vertebrata	Gnathostomata		Eukaryota	Acanthopterygii	V3164-03
 	transect	Allocentrotus fragilis	435.54	3164	02:42:20:20	http://search.mbari.org/ARCHIVE/frameGrabs/Ventana/images/3164/02_42_24_01.jpg	36.7994	-122.18704	2452418	0.76	12:50.0	Ventana	34.205	02:42:24:01	6.316	Echinoidea	Strongylocentrotidae	Allocentrotus			Animalia	Echinoida	Echinodermata	Allocentrotus fragilis	Euechinoidea			Echinacea				Eukaryota		V3164-03
 	cruise	trench	460.77	3164	02:10:22:20	http://search.mbari.org/ARCHIVE/frameGrabs/Ventana/images/3164/02_10_26_27.jpg	36.79181	-122.191666	2450976	0.68	40:50.0	Ventana	34.225	02:10:26:27	6.129																			V3164-03
 	cruise	Halipteris californica	539.01	3164	01:08:50:10	 	36.77658	-122.19501	2448216	0.4	38:13.0	Ventana	34.295	01:08:53:22	5.482	Anthozoa	Halipteridae	Halipteris			Animalia	Pennatulacea	Cnidaria	Halipteris californica	Octocorallia			Subselliflorae				Eukaryota		V3164-02
 	cruise	Microstomus pacificus	514.17	3164	01:28:29:18	 	36.780567	-122.19478	2448412	0.46	57:53.0	Ventana	34.273	01:28:34:24	5.641	Osteichthyes	Pleuronectidae	Microstomus	Neopterygii		Animalia	Pleuronectiformes	Chordata	Microstomus pacificus	Actinopterygii				Vertebrata	Gnathostomata		Eukaryota	Acanthopterygii	V3164-02
 	cruise	Anthomastus ritteri	447.94	3164	02:25:58:21	 	36.796333	-122.18919	2452035	0.75	56:27.0	Ventana	34.209	02:26:03:10	6.292	Anthozoa	Alcyoniidae				Animalia	Alcyonacea	Cnidaria	Anthomastus	Octocorallia							Eukaryota		V3164-03
 	cruise	Actiniaria sp. 3	432.7	3164	03:00:35:02	 	36.799847	-122.18649	2454646	0.77	31:06.0	Ventana	34.203	03:00:40:09	6.322	Anthozoa					Animalia	Actiniaria	Cnidaria		Hexacorallia							Eukaryota		V3164-03
 	cruise	Sebastolobus	374.49	3164	03:50:55:04	 	36.81186	-122.17515	2458066	0.87	22:20.0	Ventana	34.192	03:51:02:03	6.535	Osteichthyes	Scorpaenidae	Sebastolobus	Neopterygii		Animalia	Scorpaeniformes	Chordata		Actinopterygii			Scorpaenoidei	Vertebrata	Gnathostomata		Eukaryota	Acanthopterygii	V3164-04
 	cruise	Liponema brevicornis	378.05	3164	03:45:57:12	 	36.81077	-122.17627	2457752	0.95	17:22.0	Ventana	34.182	03:46:06:08	6.699	Anthozoa	Liponematidae	Liponema			Animalia	Actiniaria	Cnidaria	Liponema brevicornis	Hexacorallia			Nyantheae				Eukaryota		V3164-04
 	cruise	Merluccius productus	480.86	3164	01:54:52:00	 	36.787132	-122.193634	2450713	0.53	24:17.0	Ventana	34.255	01:54:55:15	5.799	Osteichthyes	Merlucciidae	Merluccius	Neopterygii		Animalia	Gadiformes	Chordata	Merluccius productus	Actinopterygii				Vertebrata	Gnathostomata		Eukaryota	Paracanthopterygii	V3164-02
 	cruise	Microstomus pacificus	405.58	3164	03:30:25:26	 	36.807327	-122.18002	2456737	0.77	01:49.0	Ventana	34.207	03:30:34:04	6.32	Osteichthyes	Pleuronectidae	Microstomus	Neopterygii		Animalia	Pleuronectiformes	Chordata	Microstomus pacificus	Actinopterygii				Vertebrata	Gnathostomata		Eukaryota	Acanthopterygii	V3164-04
 	cruise	Sebastes	380.63	3164	03:43:51:01	 	36.810303	-122.17674	2457722	0.99	15:16.0	Ventana	34.176	03:43:58:29	6.753	Osteichthyes	Scorpaenidae	Sebastes	Neopterygii		Animalia	Scorpaeniformes	Chordata		Actinopterygii			Scorpaenoidei	Vertebrata	Gnathostomata		Eukaryota	Acanthopterygii	V3164-04
 	transect	Rathbunaster californicus	431.61	3164	02:53:09:01	 	36.80001	-122.18596	2454413	0.77	23:39.0	Ventana	34.205	02:53:13:15	6.314		Labidiasteridae	Rathbunaster			Animalia	Forcipulatida	Echinodermata	Rathbunaster californicus	Asteroidea							Eukaryota		V3164-03
 	cruise	Merluccius productus	392.98	3164	03:35:29:02	 	36.80852	-122.178665	2456767	0.88	06:53.0	Ventana	34.189	03:35:37:13	6.553	Osteichthyes	Merlucciidae	Merluccius	Neopterygii		Animalia	Gadiformes	Chordata	Merluccius productus	Actinopterygii				Vertebrata	Gnathostomata		Eukaryota	Paracanthopterygii	V3164-04
 	cruise	Henricia sanguinolenta	502.69	3164	01:36:55:18	 	36.782562	-122.1947	2448442	0.47	06:20.0	Ventana	34.269	01:37:00:18	5.678		Echinasteridae	Henricia			Animalia	Spinulosida	Echinodermata	Henricia sanguinolenta	Asteroidea			Leptognathina				Eukaryota		V3164-02
 	cruise	Parmaturus xaniurus	490.74	3164	01:46:18:01	 	36.78495	-122.19438	2450653	0.48	15:43.0	Ventana	34.267	01:46:23:09	5.702	Chondrichthyes	Scyliorhinidae	Parmaturus			Animalia	Carcharhiniformes	Chordata	Parmaturus xaniurus	Elasmobranchii				Vertebrata			Eukaryota	Galeomorphi	V3164-02
 	transect	Benthopecten	431.11	3164	02:52:51:02	 	36.800045	-122.18593	2454383	0.77	23:21.0	Ventana	34.205	02:52:54:27	6.313		Benthopectinidae	Benthopecten			Animalia		Echinodermata									Eukaryota		V3164-03
 	cruise	Sebastes	424.32	3164	03:14:45:25	 	36.803844	-122.18337	2456564	0.71	46:08.0	Ventana	34.215	03:14:55:02	6.227	Osteichthyes	Scorpaenidae	Sebastes	Neopterygii		Animalia	Scorpaeniformes	Chordata		Actinopterygii			Scorpaenoidei	Vertebrata	Gnathostomata		Eukaryota	Acanthopterygii	V3164-04
 	cruise	Stylasterias forreri	388.13	3164	03:39:15:25	http://search.mbari.org/ARCHIVE/frameGrabs/Ventana/images/3164/03_39_23_22.jpg	36.809174	-122.17791	2457113	0.89	10:40.0	Ventana	34.191	03:39:23:22	6.572		Asteriidae	Stylasterias			Animalia	Forcipulatida	Echinodermata	Stylasterias forreri	Asteroidea							Eukaryota		V3164-04
 	cruise	Sebastolobus	464.96	3164	02:06:41:26	http://search.mbari.org/ARCHIVE/frameGrabs/Ventana/images/3164/02_06_45_20.jpg	36.790825	-122.19219	2450886	0.69	37:09.0	Ventana	34.22	02:06:45:20	6.184	Osteichthyes	Scorpaenidae	Sebastolobus	Neopterygii		Animalia	Scorpaeniformes	Chordata		Actinopterygii			Scorpaenoidei	Vertebrata	Gnathostomata		Eukaryota	Acanthopterygii	V3164-03
 	transect	Rathbunaster californicus	433.67	3164	02:56:19:25	 	36.79963	-122.18642	2454556	0.77	26:50.0	Ventana	34.205	02:56:24:17	6.318		Labidiasteridae	Rathbunaster			Animalia	Forcipulatida	Echinodermata	Rathbunaster californicus	Asteroidea							Eukaryota		V3164-03
 	cruise	Careproctus melanurus	529.32	3164	01:15:11:28	 	36.778053	-122.19499	2448283	0.41	44:35.0	Ventana	34.29	01:15:15:20	5.519	Osteichthyes	Liparidae	Careproctus	Neopterygii		Animalia	Scorpaeniformes	Chordata	Careproctus melanurus	Actinopterygii				Vertebrata	Gnathostomata		Eukaryota	Acanthopterygii	V3164-02
 	cruise	Hippasteria	347.93	3164	04:18:30:27	 	36.819565	-122.17162	2459014	0.91	50:24.0	Ventana	34.187	04:18:42:16	6.622		Goniasteridae	Hippasteria			Animalia	Valvatida	Echinodermata		Asteroidea			Granulosina				Eukaryota		V3164-05
 	transect	Rathbunaster californicus	434.27	3164	02:57:10:08	 	36.799534	-122.18652	2454577	0.77	27:40.0	Ventana	34.205	02:57:13:24	6.316		Labidiasteridae	Rathbunaster			Animalia	Forcipulatida	Echinodermata	Rathbunaster californicus	Asteroidea							Eukaryota		V3164-03
 	transect	Rathbunaster californicus	433.45	3164	02:55:41:26	 	36.799686	-122.18632	2454547	0.77	26:12.0	Ventana	34.202	02:55:45:25	6.322		Labidiasteridae	Rathbunaster			Animalia	Forcipulatida	Echinodermata	Rathbunaster californicus	Asteroidea							Eukaryota		V3164-03
 	cruise	Asbestopluma	356.47	3164	04:09:03:15	 	36.816727	-122.17239	2458338	0.91	40:29.0	Ventana	34.188	04:09:10:26	6.593	Demospongiae	Cladorhizidae	Asbestopluma			Animalia	Poecilosclerida	Porifera					Mycalina				Eukaryota		V3164-04
 	transect	Benthopecten	429.71	3164	02:48:09:25	 	36.80032	-122.18643	2454224	0.77	18:40.0	Ventana	34.205	02:48:13:23	6.314		Benthopectinidae	Benthopecten			Animalia		Echinodermata									Eukaryota		V3164-03
 	cruise	Hippasteria	351.9	3164	04:15:46:02	 	36.81868	-122.17187	2458984	0.9	47:39.0	Ventana	34.189	04:15:56:05	6.581		Goniasteridae	Hippasteria			Animalia	Valvatida	Echinodermata		Asteroidea			Granulosina				Eukaryota		V3164-05
 	transect	Rathbunaster californicus	434.5	3164	02:44:19:02	 	36.799683	-122.186935	2453488	0.76	14:49.0	Ventana	34.204	02:44:24:12	6.317		Labidiasteridae	Rathbunaster			Animalia	Forcipulatida	Echinodermata	Rathbunaster californicus	Asteroidea							Eukaryota		V3164-03
 	cruise	Hippasteria	452.56	3164	02:17:20:07	 	36.793724	-122.1907	2451156	0.75	47:48.0	Ventana	34.209	02:17:23:23	6.298		Goniasteridae	Hippasteria			Animalia	Valvatida	Echinodermata		Asteroidea			Granulosina				Eukaryota		V3164-03
 	transect	Rathbunaster californicus	429.92	3164	02:47:55:26	 	36.800285	-122.186455	2454104	0.77	18:26.0	Ventana	34.205	02:48:00:26	6.314		Labidiasteridae	Rathbunaster			Animalia	Forcipulatida	Echinodermata	Rathbunaster californicus	Asteroidea							Eukaryota		V3164-03
 	cruise	Liponema brevicornis	426.34	3164	 	 	36.80232	-122.18482	2455931	0.73	39:52.0	Ventana	34.212	03:09:25:29	6.258	Anthozoa	Liponematidae	Liponema			Animalia	Actiniaria	Cnidaria	Liponema brevicornis	Hexacorallia			Nyantheae				Eukaryota		V3164-03
 	cruise	Halipteris californica	550.2	3164	01:01:57:26	 	36.77488	-122.19478	2448020	0.39	30:25.0	Ventana	34.298	01:01:58:24	5.461	Anthozoa	Halipteridae	Halipteris			Animalia	Pennatulacea	Cnidaria	Halipteris californica	Octocorallia			Subselliflorae				Eukaryota		V3164-01
 	cruise	Anthoptilum grandiflorum	447.92	3164	02:22:35:27	 	36.79524	-122.189804	2451306	0.74	53:04.0	Ventana	34.21	02:22:40:23	6.282	Anthozoa	Anthoptilidae	Anthoptilum			Animalia	Pennatulacea	Cnidaria	Anthoptilum grandiflorum	Octocorallia			Sessiliflorae				Eukaryota		V3164-03
 	transect	Anthomastus ritteri	435.22	3164	02:58:02:07	 	36.79944	-122.18658	2454607	0.77	28:33.0	Ventana	34.204	02:58:06:05	6.316	Anthozoa	Alcyoniidae				Animalia	Alcyonacea	Cnidaria	Anthomastus	Octocorallia							Eukaryota		V3164-03
 	cruise	Parmaturus xaniurus	479.54	3164	01:56:28:12	 	36.787468	-122.19353	2450720	0.52	25:54.0	Ventana	34.253	01:56:33:20	5.799	Chondrichthyes	Scyliorhinidae	Parmaturus			Animalia	Carcharhiniformes	Chordata	Parmaturus xaniurus	Elasmobranchii				Vertebrata			Eukaryota	Galeomorphi	V3164-02
 	transect	Stomphia	431.47	3164	02:53:05:01	 	36.80002	-122.18595	2454404	0.77	23:35.0	Ventana	34.204	02:53:09:16	6.313	Anthozoa	Actinostolidae	Stomphia			Animalia	Actiniaria	Cnidaria		Hexacorallia			Nyantheae				Eukaryota		V3164-03
 	cruise	Corallimorphus pilatus	372.49	3164	03:53:45:14	 	36.812603	-122.17452	2458158	0.88	25:11.0	Ventana	34.191	03:53:54:00	6.538	Anthozoa	Corallimorphidae	Corallimorphus			Animalia	Corallimorpharia	Cnidaria	Corallimorphus pilatus	Hexacorallia							Eukaryota		V3164-04
 	transect	Anthomastus ritteri	430.46	3164	02:47:33:26	 	36.800224	-122.1865	2453751	0.77	18:04.0	Ventana	34.205	02:47:38:19	6.317	Anthozoa	Alcyoniidae				Animalia	Alcyonacea	Cnidaria	Anthomastus	Octocorallia							Eukaryota		V3164-03
 	launch	lasers	 	3164	 	http://search.mbari.org/ARCHIVE/frameGrabs/Ventana/images/3164/00_01_05_20.jpg	 	 	20023700	 	 	Ventana	 	00:01:05:20	 																			V3164-01
 	cruise	Actiniaria sp. 3	427.03	3164	03:04:13:26	 	36.800877	-122.18603	2455848	0.77	34:45.0	Ventana	34.204	03:04:17:13	6.316	Anthozoa					Animalia	Actiniaria	Cnidaria		Hexacorallia							Eukaryota		V3164-03
 	cruise	Stomphia	439.88	3164	02:31:55:25	 	36.797897	-122.18819	2452194	0.77	02:25.0	Ventana	34.205	02:31:59:16	6.318	Anthozoa	Actinostolidae	Stomphia			Animalia	Actiniaria	Cnidaria		Hexacorallia			Nyantheae				Eukaryota		V3164-03
 	transect	Chorilia longipes	435.43	3164	02:42:58:20	 	36.799473	-122.18701	2452480	0.76	13:28.0	Ventana	34.205	02:43:02:17	6.315	Malacostraca	Majidae	Chorilia		Brachyura	Animalia	Decapoda	Arthropoda	Chorilia longipes	Eumalacostraca						Majoidea	Eukaryota	Eucarida	V3164-03
 	transect	Mediaster aequalis	432.33	3164	02:54:19:14	 	36.79986	-122.186104	2454487	0.77	24:50.0	Ventana	34.204	02:54:23:00	6.316		Goniasteridae	Mediaster			Animalia	Valvatida	Echinodermata	Mediaster aequalis	Asteroidea			Granulosina				Eukaryota		V3164-03
 	cruise	Sebastes	490.02	3164	01:46:49:29	 	36.785095	-122.19432	2450660	0.49	16:15.0	Ventana	34.263	01:46:53:16	5.717	Osteichthyes	Scorpaenidae	Sebastes	Neopterygii		Animalia	Scorpaeniformes	Chordata		Actinopterygii			Scorpaenoidei	Vertebrata	Gnathostomata		Eukaryota	Acanthopterygii	V3164-02
 	cruise	Merluccius productus	423.79	3164	03:12:57:14	 	36.803432	-122.18376	2456541	0.71	44:20.0	Ventana	34.215	03:13:05:26	6.231	Osteichthyes	Merlucciidae	Merluccius	Neopterygii		Animalia	Gadiformes	Chordata	Merluccius productus	Actinopterygii				Vertebrata	Gnathostomata		Eukaryota	Paracanthopterygii	V3164-04
 	cruise	mud	428.56	3164	02:49:10:08	 	36.800438	-122.18637	2454314	0.77	19:40.0	Ventana	34.205	02:49:14:08	6.312																			V3164-03
 	cruise	Anthoptilum grandiflorum	583.84	3164	00:44:21:13	 	36.770763	-122.19423	2447900	0.38	12:47.0	Ventana	34.307	00:44:21:04	5.4	Anthozoa	Anthoptilidae	Anthoptilum			Animalia	Pennatulacea	Cnidaria	Anthoptilum grandiflorum	Octocorallia			Sessiliflorae				Eukaryota		V3164-01
 	transect	Mediaster aequalis	432.58	3164	02:54:57:12	 	36.79978	-122.186195	2454517	0.77	25:28.0	Ventana	34.203	02:55:02:23	6.324		Goniasteridae	Mediaster			Animalia	Valvatida	Echinodermata	Mediaster aequalis	Asteroidea			Granulosina				Eukaryota		V3164-03
 	cruise	Sebastes diploproa	388.78	3164	03:38:49:25	http://search.mbari.org/ARCHIVE/frameGrabs/Ventana/images/3164/03_38_58_16.jpg	36.809074	-122.178	2457104	0.91	10:14.0	Ventana	34.187	03:38:58:16	6.609	Osteichthyes	Scorpaenidae	Sebastes	Neopterygii		Animalia	Scorpaeniformes	Chordata	Sebastes diploproa	Actinopterygii			Scorpaenoidei	Vertebrata	Gnathostomata		Eukaryota	Acanthopterygii	V3164-04
 	cruise	Allocentrotus fragilis	353.33	3164	04:11:41:10	 	36.817474	-122.17222	2458954	0.9	43:34.0	Ventana	34.187	04:11:51:10	6.589	Echinoidea	Strongylocentrotidae	Allocentrotus			Animalia	Echinoida	Echinodermata	Allocentrotus fragilis	Euechinoidea			Echinacea				Eukaryota		V3164-05
 	cruise	Parmaturus xaniurus	505.34	3164	01:34:49:07	 	36.78214	-122.19469	2448433	0.46	04:13.0	Ventana	34.273	01:34:52:16	5.648	Chondrichthyes	Scyliorhinidae	Parmaturus			Animalia	Carcharhiniformes	Chordata	Parmaturus xaniurus	Elasmobranchii				Vertebrata			Eukaryota	Galeomorphi	V3164-02
 	transect	Rathbunaster californicus	435.33	3164	02:43:06:19	 	36.79949	-122.187004	2453435	0.76	13:36.0	Ventana	34.205	02:43:10:14	6.315		Labidiasteridae	Rathbunaster			Animalia	Forcipulatida	Echinodermata	Rathbunaster californicus	Asteroidea							Eukaryota		V3164-03
 	transect	Allocentrotus fragilis	429.35	3164	02:48:29:25	 	36.80037	-122.18641	2454247	0.77	19:00.0	Ventana	34.205	02:48:34:16	6.313	Echinoidea	Strongylocentrotidae	Allocentrotus			Animalia	Echinoida	Echinodermata	Allocentrotus fragilis	Euechinoidea			Echinacea				Eukaryota		V3164-03
 	transect	Porifera	435	3164	02:43:37:04	 	36.79956	-122.18697	2453465	0.77	14:06.0	Ventana	34.205	02:43:40:29	6.317						Animalia		Porifera									Eukaryota		V3164-03
 	cruise	Allocentrotus fragilis	424.44	3164	03:10:41:03	 	36.80292	-122.184296	2456518	0.72	42:03.0	Ventana	34.214	03:10:49:16	6.253	Echinoidea	Strongylocentrotidae	Allocentrotus			Animalia	Echinoida	Echinodermata	Allocentrotus fragilis	Euechinoidea			Echinacea				Eukaryota		V3164-04
 	cruise	cable	363.12	3164	04:01:25:14	http://search.mbari.org/ARCHIVE/frameGrabs/Ventana/images/3164/04_01_33_15.jpg	36.81466	-122.17315	2458255	0.91	32:51.0	Ventana	34.187	04:01:33:15	6.609																			V3164-04
 	cruise	Hippasteria	448.71	3164	02:21:29:14	 	36.794903	-122.189995	2451269	0.75	51:58.0	Ventana	34.209	02:21:33:05	6.289		Goniasteridae	Hippasteria			Animalia	Valvatida	Echinodermata		Asteroidea			Granulosina				Eukaryota		V3164-03
 	cruise	Hippasteria	447.96	3164	02:24:28:08	 	36.795837	-122.18948	2451885	0.75	54:57.0	Ventana	34.208	02:24:33:15	6.29		Goniasteridae	Hippasteria			Animalia	Valvatida	Echinodermata		Asteroidea			Granulosina				Eukaryota		V3164-03
 	cruise	Parmaturus xaniurus	497.57	3164	01:41:22:25	 	36.78354	-122.19464	2448922	0.46	10:47.0	Ventana	34.271	01:41:26:14	5.663	Chondrichthyes	Scyliorhinidae	Parmaturus			Animalia	Carcharhiniformes	Chordata	Parmaturus xaniurus	Elasmobranchii				Vertebrata			Eukaryota	Galeomorphi	V3164-02
 	cruise	Merluccius productus	469.39	3164	02:03:35:29	 	36.789646	-122.19257	2450780	0.69	33:02.0	Ventana	34.22	02:03:39:25	6.185	Osteichthyes	Merlucciidae	Merluccius	Neopterygii		Animalia	Gadiformes	Chordata	Merluccius productus	Actinopterygii				Vertebrata	Gnathostomata		Eukaryota	Paracanthopterygii	V3164-02
 	transect	Stomphia	432.57	3164	02:45:43:14	http://search.mbari.org/ARCHIVE/frameGrabs/Ventana/images/3164/02_45_47_24.jpg	36.799915	-122.1868	2453555	0.77	16:13.0	Ventana	34.204	02:45:47:24	6.318	Anthozoa	Actinostolidae	Stomphia			Animalia	Actiniaria	Cnidaria		Hexacorallia			Nyantheae				Eukaryota		V3164-03
 	transect	Parmaturus xaniurus	435.6	3164	02:42:24:21	http://search.mbari.org/ARCHIVE/frameGrabs/Ventana/images/3164/02_42_27_23.jpg	36.799404	-122.18704	2452434	0.76	12:54.0	Ventana	34.206	02:42:27:23	6.315	Chondrichthyes	Scyliorhinidae	Parmaturus			Animalia	Carcharhiniformes	Chordata	Parmaturus xaniurus	Elasmobranchii				Vertebrata			Eukaryota	Galeomorphi	V3164-03
 	cruise	Sebastes	437.48	3164	02:35:24:18	 	36.7986	-122.18767	2452254	0.76	05:54.0	Ventana	34.206	02:35:28:22	6.316	Osteichthyes	Scorpaenidae	Sebastes	Neopterygii		Animalia	Scorpaeniformes	Chordata		Actinopterygii			Scorpaenoidei	Vertebrata	Gnathostomata		Eukaryota	Acanthopterygii	V3164-03
 	transect	Porifera	430.88	3164	02:47:19:27	 	36.800182	-122.18654	2453728	0.77	17:49.0	Ventana	34.205	02:47:23:20	6.318						Animalia		Porifera									Eukaryota		V3164-03
 	cruise	Anthoptilum grandiflorum	569.85	3164	00:50:33:02	 	36.772274	-122.19447	2447967	0.39	18:59.0	Ventana	34.304	00:50:33:15	5.432	Anthozoa	Anthoptilidae	Anthoptilum			Animalia	Pennatulacea	Cnidaria	Anthoptilum grandiflorum	Octocorallia			Sessiliflorae				Eukaryota		V3164-01
 	transect	Hippasteria spinosa	431.91	3164	02:53:39:15	 	36.799946	-122.18601	2454450	0.76	24:09.0	Ventana	34.204	02:53:43:02	6.315		Goniasteridae	Hippasteria			Animalia	Valvatida	Echinodermata	Hippasteria spinosa	Asteroidea			Granulosina				Eukaryota		V3164-03
 	transect	Megalodicopia hians	433.13	3164	02:45:23:00	http://search.mbari.org/ARCHIVE/frameGrabs/Ventana/images/3164/02_45_27_03.jpg	36.799862	-122.186844	2453525	0.77	15:53.0	Ventana	34.204	02:45:27:03	6.318	Ascidiacea		Megalodicopia			Animalia	Enterogona 	Chordata						Urochordata			Eukaryota		V3164-03
 	cruise	Sebastes	379.47	3164	03:45:13:14	 	36.81058	-122.176445	2457736	0.94	16:38.0	Ventana	34.184	03:45:21:22	6.653	Osteichthyes	Scorpaenidae	Sebastes	Neopterygii		Animalia	Scorpaeniformes	Chordata		Actinopterygii			Scorpaenoidei	Vertebrata	Gnathostomata		Eukaryota	Acanthopterygii	V3164-04
 	cruise	Parmaturus xaniurus	499.52	3164	01:40:02:12	 	36.783173	-122.19468	2448486	0.48	09:27.0	Ventana	34.266	01:40:07:20	5.695	Chondrichthyes	Scyliorhinidae	Parmaturus			Animalia	Carcharhiniformes	Chordata	Parmaturus xaniurus	Elasmobranchii				Vertebrata			Eukaryota	Galeomorphi	V3164-02
 	cruise	Parmaturus xaniurus	477.45	3164	01:57:52:25	 	36.78784	-122.19334	2450727	0.52	27:18.0	Ventana	34.257	01:57:58:04	5.789	Chondrichthyes	Scyliorhinidae	Parmaturus			Animalia	Carcharhiniformes	Chordata	Parmaturus xaniurus	Elasmobranchii				Vertebrata			Eukaryota	Galeomorphi	V3164-02
 	transect	Mediaster aequalis	431.99	3164	02:46:15:14	 	36.8	-122.18672	2453675	0.77	16:45.0	Ventana	34.204	02:46:19:05	6.316		Goniasteridae	Mediaster			Animalia	Valvatida	Echinodermata	Mediaster aequalis	Asteroidea			Granulosina				Eukaryota		V3164-03
 	cruise	Lycodes cortezianus	371.78	3164	03:54:21:27	 	36.812756	-122.1744	2458165	0.88	25:47.0	Ventana	34.191	03:54:29:23	6.537	Osteichthyes	Zoarcidae	Lycodes	Neopterygii		Animalia	Perciformes	Chordata	Lycodes cortezianus	Actinopterygii			Zoarcoidei	Vertebrata	Gnathostomata		Eukaryota	Acanthopterygii	V3164-04
 	cruise	Microstomus pacificus	508.55	3164	01:32:34:11	 	36.781586	-122.19472	2448426	0.46	01:58.0	Ventana	34.272	01:32:37:24	5.652	Osteichthyes	Pleuronectidae	Microstomus	Neopterygii		Animalia	Pleuronectiformes	Chordata	Microstomus pacificus	Actinopterygii				Vertebrata	Gnathostomata		Eukaryota	Acanthopterygii	V3164-02
 	cruise	ridge	389.04	3164	03:37:19:14	http://search.mbari.org/ARCHIVE/frameGrabs/Ventana/images/3164/03_37_27_14.jpg	36.80889	-122.178215	2457097	0.85	08:43.0	Ventana	34.197	03:37:27:14	6.466																			V3164-04
 	transect	Actiniaria sp. 3	430.29	3164	02:47:45:26	 	36.80026	-122.18648	2453758	0.77	18:16.0	Ventana	34.204	02:47:49:24	6.316	Anthozoa					Animalia	Actiniaria	Cnidaria		Hexacorallia							Eukaryota		V3164-03
 	cruise	Sebastes	375.68	3164	03:48:24:08	http://search.mbari.org/ARCHIVE/frameGrabs/Ventana/images/3164/03_48_32_22.jpg	36.811348	-122.17566	2458022	0.89	19:49.0	Ventana	34.191	03:48:32:22	6.562	Osteichthyes	Scorpaenidae	Sebastes	Neopterygii		Animalia	Scorpaeniformes	Chordata		Actinopterygii			Scorpaenoidei	Vertebrata	Gnathostomata		Eukaryota	Acanthopterygii	V3164-04
 	transect	Psolus squamatus	435.4	3164	02:43:04:20	 	36.799488	-122.187004	2452487	0.76	13:34.0	Ventana	34.205	02:43:08:08	6.315	Holothuroidea	Psolidae	Psolus			Animalia	Dendrochirotida	Echinodermata	Psolus squamatus								Eukaryota		V3164-03
 	cruise	Merluccius productus	353.18	3164	04:14:42:04	http://search.mbari.org/ARCHIVE/frameGrabs/Ventana/images/3164/04_14_53_27.jpg	36.818314	-122.17195	2458977	0.9	46:35.0	Ventana	34.189	04:14:53:27	6.577	Osteichthyes	Merlucciidae	Merluccius	Neopterygii		Animalia	Gadiformes	Chordata	Merluccius productus	Actinopterygii				Vertebrata	Gnathostomata		Eukaryota	Paracanthopterygii	V3164-05
 	cruise	Actiniaria sp. 1	427.95	3164	03:03:43:27	 	36.800743	-122.18614	2455841	0.79	34:14.0	Ventana	34.201	03:03:48:01	6.336	Anthozoa					Animalia	Actiniaria	Cnidaria		Hexacorallia							Eukaryota		V3164-03
 	cruise	Liponema brevicornis	367.09	3164	03:57:36:21	 	36.81361	-122.17375	2458225	0.93	29:02.0	Ventana	34.184	03:57:43:16	6.647	Anthozoa	Liponematidae	Liponema			Animalia	Actiniaria	Cnidaria	Liponema brevicornis	Hexacorallia			Nyantheae				Eukaryota		V3164-04
 	cruise	Careproctus melanurus	582.9	3164	00:44:49:13	 	36.770878	-122.194275	2447907	0.38	13:15.0	Ventana	34.307	00:44:49:21	5.399	Osteichthyes	Liparidae	Careproctus	Neopterygii		Animalia	Scorpaeniformes	Chordata	Careproctus melanurus	Actinopterygii				Vertebrata	Gnathostomata		Eukaryota	Acanthopterygii	V3164-01
 	cruise	Liponema brevicornis	489.14	3164	01:47:42:13	http://search.mbari.org/ARCHIVE/frameGrabs/Ventana/images/3164/01_47_46_03.jpg	36.785297	-122.19426	2450667	0.49	17:07.0	Ventana	34.266	01:47:46:03	5.712	Anthozoa	Liponematidae	Liponema			Animalia	Actiniaria	Cnidaria	Liponema brevicornis	Hexacorallia			Nyantheae				Eukaryota		V3164-02
 	cruise	Parmaturus xaniurus	510.49	3164	01:30:59:29	 	36.781223	-122.19473	2448421	0.46	00:24.0	Ventana	34.272	01:31:03:22	5.655	Chondrichthyes	Scyliorhinidae	Parmaturus			Animalia	Carcharhiniformes	Chordata	Parmaturus xaniurus	Elasmobranchii				Vertebrata			Eukaryota	Galeomorphi	V3164-02
 	cruise	Rathbunaster californicus	375.8	3164	03:47:39:25	 	36.811207	-122.175804	2457832	0.9	19:05.0	Ventana	34.192	03:47:48:06	6.604		Labidiasteridae	Rathbunaster			Animalia	Forcipulatida	Echinodermata	Rathbunaster californicus	Asteroidea							Eukaryota		V3164-04
 	cruise	trench	501.39	3164	01:38:36:00	http://search.mbari.org/ARCHIVE/frameGrabs/Ventana/images/3164/01_38_39_17.jpg	36.782825	-122.19471	2448451	0.48	08:00.0	Ventana	34.266	01:38:39:17	5.693																			V3164-02
 	cruise	Henricia sanguinolenta	451.64	3164	02:18:16:20	 	36.793987	-122.19055	2451170	0.75	48:45.0	Ventana	34.208	02:18:21:04	6.298		Echinasteridae	Henricia			Animalia	Spinulosida	Echinodermata	Henricia sanguinolenta	Asteroidea			Leptognathina				Eukaryota		V3164-03
 	cruise	Liponema brevicornis	370.18	3164	03:56:12:09	 	36.81321	-122.17404	2458215	0.89	27:37.0	Ventana	34.19	03:56:20:03	6.565	Anthozoa	Liponematidae	Liponema			Animalia	Actiniaria	Cnidaria	Liponema brevicornis	Hexacorallia			Nyantheae				Eukaryota		V3164-04
 	transect	Mediaster aequalis	429.04	3164	02:48:50:09	 	36.80041	-122.186386	2454287	0.77	19:20.0	Ventana	34.205	02:48:53:28	6.312		Goniasteridae	Mediaster			Animalia	Valvatida	Echinodermata	Mediaster aequalis	Asteroidea			Granulosina				Eukaryota		V3164-03
 	cruise	Sebastolobus	447.53	3164	02:23:13:25	 	36.795414	-122.189705	2451846	0.75	53:42.0	Ventana	34.209	02:23:18:03	6.287	Osteichthyes	Scorpaenidae	Sebastolobus	Neopterygii		Animalia	Scorpaeniformes	Chordata		Actinopterygii			Scorpaenoidei	Vertebrata	Gnathostomata		Eukaryota	Acanthopterygii	V3164-03
 	transect	Agonidae	430.17	3164	02:47:47:26	http://search.mbari.org/ARCHIVE/frameGrabs/Ventana/images/3164/02_47_53_00.jpg	36.800262	-122.18647	2453761	0.77	18:18.0	Ventana	34.204	02:47:53:00	6.316	Osteichthyes	Agonidae		Neopterygii		Animalia	Scorpaeniformes	Chordata		Actinopterygii				Vertebrata	Gnathostomata		Eukaryota	Acanthopterygii	V3164-03
 	transect	Phyllospadix	432.24	3164	02:46:03:14	 	36.79997	-122.18675	2453581	0.77	16:33.0	Ventana	34.204	02:46:07:03	6.316		Zosteraceae	Phyllospadix			Plantae	Najadales										Eukaryota		V3164-03
 	cruise	Allocentrotus fragilis	352.23	3164	04:15:22:03	 	36.818542	-122.1719	2458981	0.89	47:15.0	Ventana	34.19	04:15:33:13	6.567	Echinoidea	Strongylocentrotidae	Allocentrotus			Animalia	Echinoida	Echinodermata	Allocentrotus fragilis	Euechinoidea			Echinacea				Eukaryota		V3164-05
 	cruise	Sebastes	362.34	3164	04:00:51:15	 	36.81453	-122.17322	2458245	0.91	32:16.0	Ventana	34.188	04:00:58:26	6.613	Osteichthyes	Scorpaenidae	Sebastes	Neopterygii		Animalia	Scorpaeniformes	Chordata		Actinopterygii			Scorpaenoidei	Vertebrata	Gnathostomata		Eukaryota	Acanthopterygii	V3164-04
 	cruise	Liponema brevicornis	353.94	3164	04:10:51:26	 	36.817184	-122.172295	2458358	0.9	42:17.0	Ventana	34.187	04:11:00:26	6.587	Anthozoa	Liponematidae	Liponema			Animalia	Actiniaria	Cnidaria	Liponema brevicornis	Hexacorallia			Nyantheae				Eukaryota		V3164-04
 	transect	physical object	435.6	3164	02:42:24:21	http://search.mbari.org/ARCHIVE/frameGrabs/Ventana/images/3164/02_42_27_23.jpg	36.799404	-122.18704	2452432	0.76	12:54.0	Ventana	34.206	02:42:27:23	6.315																			V3164-03
 	cruise	Hippasteria	488.46	3164	01:48:40:11	 	36.7855	-122.1942	2450674	0.49	18:05.0	Ventana	34.263	01:48:45:15	5.726		Goniasteridae	Hippasteria			Animalia	Valvatida	Echinodermata		Asteroidea			Granulosina				Eukaryota		V3164-02
 	cruise	Parastichopus leukothele	343.85	3164	04:20:31:08	http://search.mbari.org/ARCHIVE/frameGrabs/Ventana/images/3164/04_20_41_02.jpg	36.81998	-122.17162	2459034	0.94	52:25.0	Ventana	34.184	04:20:41:02	6.661	Holothuroidea	Stichopodidae	Parastichopus			Animalia	Aspidochirotida	Echinodermata	Parastichopus leukothele	Aspidochirotacea							Eukaryota		V3164-05
 	transect	Benthopecten	432.12	3164	02:53:59:14	 	36.799904	-122.18606	2454467	0.76	24:29.0	Ventana	34.205	02:54:03:24	6.314		Benthopectinidae	Benthopecten			Animalia		Echinodermata									Eukaryota		V3164-03
 	cruise	trench	577.33	3164	00:47:44:07	http://search.mbari.org/ARCHIVE/frameGrabs/Ventana/images/3164/00_47_45_19.jpg	36.77141	-122.1943	2447948	0.38	16:10.0	Ventana	34.305	00:47:45:19	5.418																			V3164-01
 	cruise	Stylasterias forreri	418.16	3164	03:23:44:09	 	36.806007	-122.181404	2456683	0.73	55:07.0	Ventana	34.212	03:23:51:21	6.248		Asteriidae	Stylasterias			Animalia	Forcipulatida	Echinodermata	Stylasterias forreri	Asteroidea							Eukaryota		V3164-04
 	cruise	Lycodes cortezianus	360.13	3164	04:04:50:08	 	36.815544	-122.172775	2458298	0.91	36:16.0	Ventana	34.188	04:04:58:20	6.598	Osteichthyes	Zoarcidae	Lycodes	Neopterygii		Animalia	Perciformes	Chordata	Lycodes cortezianus	Actinopterygii			Zoarcoidei	Vertebrata	Gnathostomata		Eukaryota	Acanthopterygii	V3164-04
 	transect	Mediaster tenellus	430.75	3164	02:47:21:26	 	36.800186	-122.18653	2453731	0.77	17:51.0	Ventana	34.205	02:47:27:08	6.318		Goniasteridae	Mediaster			Animalia	Valvatida	Echinodermata	Mediaster tenellus	Asteroidea			Granulosina				Eukaryota		V3164-03
 	transect	Stomphia	435.36	3164	02:58:08:07	 	36.79943	-122.186584	2454610	0.76	28:39.0	Ventana	34.205	02:58:12:11	6.316	Anthozoa	Actinostolidae	Stomphia			Animalia	Actiniaria	Cnidaria		Hexacorallia			Nyantheae				Eukaryota		V3164-03
 	transect	Psolus squamatus	431.83	3164	02:53:29:00	 	36.79997	-122.18599	2454437	0.77	23:59.0	Ventana	34.204	02:53:34:12	6.315	Holothuroidea	Psolidae	Psolus			Animalia	Dendrochirotida	Echinodermata	Psolus squamatus								Eukaryota		V3164-03
 	cruise	Sebastes aurora	493.41	3164	01:44:25:19	http://search.mbari.org/ARCHIVE/frameGrabs/Ventana/images/3164/01_44_29_02.jpg	36.784416	-122.19454	20023748	0.47	13:50.0	Ventana	34.268	01:44:29:02	5.673	Osteichthyes	Scorpaenidae	Sebastes	Neopterygii		Animalia	Scorpaeniformes	Chordata	Sebastes aurora	Actinopterygii			Scorpaenoidei	Vertebrata	Gnathostomata		Eukaryota	Acanthopterygii	V3164-02
 	cruise	Liponema brevicornis	555.37	3164	00:58:53:01	 	36.77419	-122.194626	2448008	0.39	27:20.0	Ventana	34.301	00:58:54:29	5.449	Anthozoa	Liponematidae	Liponema			Animalia	Actiniaria	Cnidaria	Liponema brevicornis	Hexacorallia			Nyantheae				Eukaryota		V3164-01
 	cruise	Microstomus pacificus	427.49	3164	03:04:27:26	 	36.800922	-122.185974	2455849	0.77	34:59.0	Ventana	34.205	03:04:32:26	6.309	Osteichthyes	Pleuronectidae	Microstomus	Neopterygii		Animalia	Pleuronectiformes	Chordata	Microstomus pacificus	Actinopterygii				Vertebrata	Gnathostomata		Eukaryota	Acanthopterygii	V3164-03
 	cruise	Lycodes cortezianus	410.97	3164	03:28:39:15	 	36.806892	-122.18045	2456713	0.75	00:02.0	Ventana	34.209	03:28:48:24	6.283	Osteichthyes	Zoarcidae	Lycodes	Neopterygii		Animalia	Perciformes	Chordata	Lycodes cortezianus	Actinopterygii			Zoarcoidei	Vertebrata	Gnathostomata		Eukaryota	Acanthopterygii	V3164-04
 	transect	Actiniaria sp. 3	433.13	3164	02:45:23:00	http://search.mbari.org/ARCHIVE/frameGrabs/Ventana/images/3164/02_45_27_03.jpg	36.799862	-122.186844	2453528	0.77	15:53.0	Ventana	34.204	02:45:27:03	6.318	Anthozoa					Animalia	Actiniaria	Cnidaria		Hexacorallia							Eukaryota		V3164-03
 	cruise	Actiniaria sp. 3	401.57	3164	03:31:42:09	 	36.807606	-122.179695	2456743	0.78	03:05.0	Ventana	34.205	03:31:50:17	6.343	Anthozoa					Animalia	Actiniaria	Cnidaria		Hexacorallia							Eukaryota		V3164-04
 	cruise	Merluccius productus	493.07	3164	01:44:39:18	 	36.784477	-122.19453	2450644	0.47	14:04.0	Ventana	34.267	01:44:44:13	5.689	Osteichthyes	Merlucciidae	Merluccius	Neopterygii		Animalia	Gadiformes	Chordata	Merluccius productus	Actinopterygii				Vertebrata	Gnathostomata		Eukaryota	Paracanthopterygii	V3164-02
 	cruise	Sebastolobus	377.82	3164	03:46:21:12	http://search.mbari.org/ARCHIVE/frameGrabs/Ventana/images/3164/03_46_30_00.jpg	36.810883	-122.17616	2457779	0.94	17:46.0	Ventana	34.185	03:46:30:00	6.658	Osteichthyes	Scorpaenidae	Sebastolobus	Neopterygii		Animalia	Scorpaeniformes	Chordata		Actinopterygii			Scorpaenoidei	Vertebrata	Gnathostomata		Eukaryota	Acanthopterygii	V3164-04
 	cruise	Merluccius productus	457.68	3164	02:12:37:00	 	36.79245	-122.191376	2451020	0.74	43:05.0	Ventana	34.21	02:12:40:24	6.279	Osteichthyes	Merlucciidae	Merluccius	Neopterygii		Animalia	Gadiformes	Chordata	Merluccius productus	Actinopterygii				Vertebrata	Gnathostomata		Eukaryota	Paracanthopterygii	V3164-03
 	cruise	Liponema brevicornis	502.54	3164	01:37:09:17	 	36.782593	-122.1947	2448444	0.47	06:34.0	Ventana	34.269	01:37:14:16	5.678	Anthozoa	Liponematidae	Liponema			Animalia	Actiniaria	Cnidaria	Liponema brevicornis	Hexacorallia			Nyantheae				Eukaryota		V3164-02
 	cruise	Microstomus pacificus	391.76	3164	03:36:03:00	http://search.mbari.org/ARCHIVE/frameGrabs/Ventana/images/3164/03_36_10_22.jpg	36.808647	-122.17853	2456780	0.91	07:27.0	Ventana	34.187	03:36:10:22	6.605	Osteichthyes	Pleuronectidae	Microstomus	Neopterygii		Animalia	Pleuronectiformes	Chordata	Microstomus pacificus	Actinopterygii				Vertebrata	Gnathostomata		Eukaryota	Acanthopterygii	V3164-04
 	cruise	Merluccius productus	513.17	3164	01:29:15:17	 	36.780758	-122.194756	2448414	0.46	58:39.0	Ventana	34.274	01:29:20:05	5.637	Osteichthyes	Merlucciidae	Merluccius	Neopterygii		Animalia	Gadiformes	Chordata	Merluccius productus	Actinopterygii				Vertebrata	Gnathostomata		Eukaryota	Paracanthopterygii	V3164-02
 	cruise	Microstomus pacificus	451.16	3164	02:18:40:19	 	36.794106	-122.19048	2451223	0.75	49:09.0	Ventana	34.208	02:18:44:09	6.296	Osteichthyes	Pleuronectidae	Microstomus	Neopterygii		Animalia	Pleuronectiformes	Chordata	Microstomus pacificus	Actinopterygii				Vertebrata	Gnathostomata		Eukaryota	Acanthopterygii	V3164-03
 	cruise	Halipteris californica	552.01	3164	01:00:55:13	 	36.774616	-122.19475	2448015	0.39	29:22.0	Ventana	34.302	01:00:56:24	5.451	Anthozoa	Halipteridae	Halipteris			Animalia	Pennatulacea	Cnidaria	Halipteris californica	Octocorallia			Subselliflorae				Eukaryota		V3164-01
 	cruise	Sebastes aurora	468.65	3164	02:04:42:12	 	36.78994	-122.19251	2450794	0.7	34:08.0	Ventana	34.217	02:04:46:04	6.196	Osteichthyes	Scorpaenidae	Sebastes	Neopterygii		Animalia	Scorpaeniformes	Chordata	Sebastes aurora	Actinopterygii			Scorpaenoidei	Vertebrata	Gnathostomata		Eukaryota	Acanthopterygii	V3164-02
 	cruise	Anthoptilum grandiflorum	472.21	3164	02:01:09:19	 	36.788925	-122.19297	2450764	0.6	30:35.0	Ventana	34.235	02:01:14:08	5.981	Anthozoa	Anthoptilidae	Anthoptilum			Animalia	Pennatulacea	Cnidaria	Anthoptilum grandiflorum	Octocorallia			Sessiliflorae				Eukaryota		V3164-02
 	cruise	Stomphia	353.66	3164	04:14:30:04	 	36.818237	-122.17197	2458974	0.9	46:23.0	Ventana	34.189	04:14:41:11	6.577	Anthozoa	Actinostolidae	Stomphia			Animalia	Actiniaria	Cnidaria		Hexacorallia			Nyantheae				Eukaryota		V3164-05
 	transect	Rathbunaster californicus	432.53	3164	02:45:47:14	 	36.799927	-122.18679	2453558	0.77	16:17.0	Ventana	34.204	02:45:50:26	6.318		Labidiasteridae	Rathbunaster			Animalia	Forcipulatida	Echinodermata	Rathbunaster californicus	Asteroidea							Eukaryota		V3164-03
 	cruise	Actiniaria sp. 3	368.76	3164	03:56:58:07	 	36.813442	-122.17388	2458222	0.9	28:24.0	Ventana	34.188	03:57:06:10	6.594	Anthozoa					Animalia	Actiniaria	Cnidaria		Hexacorallia							Eukaryota		V3164-04
 	cruise	Sebastes diploproa	374.82	3164	03:49:38:05	 	36.81158	-122.17543	2458042	0.92	21:03.0	Ventana	34.185	03:49:46:09	6.627	Osteichthyes	Scorpaenidae	Sebastes	Neopterygii		Animalia	Scorpaeniformes	Chordata	Sebastes diploproa	Actinopterygii			Scorpaenoidei	Vertebrata	Gnathostomata		Eukaryota	Acanthopterygii	V3164-04
 	cruise	Allocentrotus fragilis	363.12	3164	04:01:25:14	http://search.mbari.org/ARCHIVE/frameGrabs/Ventana/images/3164/04_01_33_15.jpg	36.81466	-122.17315	2458252	0.91	32:51.0	Ventana	34.187	04:01:33:15	6.609	Echinoidea	Strongylocentrotidae	Allocentrotus			Animalia	Echinoida	Echinodermata	Allocentrotus fragilis	Euechinoidea			Echinacea				Eukaryota		V3164-04
 	cruise	Hippasteria	448.44	3164	02:21:57:13	 	36.795048	-122.18991	2451283	0.75	52:26.0	Ventana	34.21	02:22:02:10	6.284		Goniasteridae	Hippasteria			Animalia	Valvatida	Echinodermata		Asteroidea			Granulosina				Eukaryota		V3164-03
 	cruise	Agonidae	379.47	3164	03:45:13:14	 	36.81058	-122.176445	2457735	0.94	16:38.0	Ventana	34.184	03:45:21:22	6.653	Osteichthyes	Agonidae		Neopterygii		Animalia	Scorpaeniformes	Chordata		Actinopterygii				Vertebrata	Gnathostomata		Eukaryota	Acanthopterygii	V3164-04
 	transect	Mediaster aequalis	429.99	3164	02:47:51:25	 	36.800274	-122.18646	2453768	0.77	18:22.0	Ventana	34.204	02:47:56:17	6.316		Goniasteridae	Mediaster			Animalia	Valvatida	Echinodermata	Mediaster aequalis	Asteroidea			Granulosina				Eukaryota		V3164-03
 	cruise	Merluccius productus	455.75	3164	02:14:19:27	 	36.792927	-122.191154	2451027	0.74	44:47.0	Ventana	34.21	02:14:24:09	6.275	Osteichthyes	Merlucciidae	Merluccius	Neopterygii		Animalia	Gadiformes	Chordata	Merluccius productus	Actinopterygii				Vertebrata	Gnathostomata		Eukaryota	Paracanthopterygii	V3164-03
 	transect	Mediaster aequalis	433.43	3164	02:55:37:26	 	36.799694	-122.1863	2454543	0.77	26:08.0	Ventana	34.202	02:55:41:26	6.322		Goniasteridae	Mediaster			Animalia	Valvatida	Echinodermata	Mediaster aequalis	Asteroidea			Granulosina				Eukaryota		V3164-03
 	transect	Rathbunaster californicus	434.17	3164	02:57:02:08	 	36.799545	-122.18652	2454573	0.77	27:32.0	Ventana	34.203	02:57:06:16	6.318		Labidiasteridae	Rathbunaster			Animalia	Forcipulatida	Echinodermata	Rathbunaster californicus	Asteroidea							Eukaryota		V3164-03
 	transect	Rathbunaster californicus	434.79	3164	02:43:49:03	 	36.79959	-122.18696	2453475	0.77	14:18.0	Ventana	34.205	02:43:52:14	6.318		Labidiasteridae	Rathbunaster			Animalia	Forcipulatida	Echinodermata	Rathbunaster californicus	Asteroidea							Eukaryota		V3164-03
 	cruise	Sebastolobus	441.46	3164	02:29:23:14	 	36.797276	-122.18856	2452093	0.76	59:52.0	Ventana	34.207	02:29:26:29	6.307	Osteichthyes	Scorpaenidae	Sebastolobus	Neopterygii		Animalia	Scorpaeniformes	Chordata		Actinopterygii			Scorpaenoidei	Vertebrata	Gnathostomata		Eukaryota	Acanthopterygii	V3164-03
 	transect	Rathbunaster californicus	435.49	3164	02:42:42:20	http://search.mbari.org/ARCHIVE/frameGrabs/Ventana/images/3164/02_42_46_11.jpg	36.79944	-122.187035	2452469	0.76	13:12.0	Ventana	34.206	02:42:46:11	6.315		Labidiasteridae	Rathbunaster			Animalia	Forcipulatida	Echinodermata	Rathbunaster californicus	Asteroidea							Eukaryota		V3164-03
 	cruise	Asbestopluma	345.94	3164	04:19:19:10	 	36.8198	-122.17158	2459027	0.95	51:12.0	Ventana	34.183	04:19:30:08	6.678	Demospongiae	Cladorhizidae	Asbestopluma			Animalia	Poecilosclerida	Porifera					Mycalina				Eukaryota		V3164-05
 	transect	Asbestopluma	431.91	3164	02:53:49:15	 	36.799927	-122.186035	2454460	0.76	24:19.0	Ventana	34.204	02:53:52:17	6.315	Demospongiae	Cladorhizidae	Asbestopluma			Animalia	Poecilosclerida	Porifera					Mycalina				Eukaryota		V3164-03
 	transect	Rathbunaster californicus	431.08	3164	02:47:01:27	 	36.800125	-122.18659	2453708	0.77	17:31.0	Ventana	34.204	02:47:06:06	6.318		Labidiasteridae	Rathbunaster			Animalia	Forcipulatida	Echinodermata	Rathbunaster californicus	Asteroidea							Eukaryota		V3164-03
 	cruise	Actiniaria sp. 3	415.99	3164	03:25:14:21	 	36.806366	-122.181076	2456690	0.73	56:37.0	Ventana	34.211	03:25:21:29	6.256	Anthozoa					Animalia	Actiniaria	Cnidaria		Hexacorallia							Eukaryota		V3164-04
 	cruise	mud	564.11	3164	00:53:29:27	 	36.77294	-122.1945	2447985	0.39	21:56.0	Ventana	34.301	00:53:29:18	5.443																			V3164-01
 	cruise	Liponema brevicornis	521.16	3164	01:23:32:13	http://search.mbari.org/ARCHIVE/frameGrabs/Ventana/images/3164/01_23_36_25.jpg	36.77941	-122.194885	20023741	0.43	52:56.0	Ventana	34.281	01:23:36:25	5.572	Anthozoa	Liponematidae	Liponema			Animalia	Actiniaria	Cnidaria	Liponema brevicornis	Hexacorallia			Nyantheae				Eukaryota		V3164-02
 	cruise	mud	435.7	3164	02:58:42:20	 	36.799408	-122.18662	2454633	0.76	29:13.0	Ventana	34.205	02:58:47:13	6.315																			V3164-03
 	transect	Psolus squamatus	429.18	3164	02:48:35:24	 	36.80038	-122.1864	2454257	0.77	19:06.0	Ventana	34.205	02:48:40:16	6.313	Holothuroidea	Psolidae	Psolus			Animalia	Dendrochirotida	Echinodermata	Psolus squamatus								Eukaryota		V3164-03
 	transect	Benthopecten	431.47	3164	02:53:05:01	 	36.80002	-122.18595	2454400	0.77	23:35.0	Ventana	34.204	02:53:09:16	6.313		Benthopectinidae	Benthopecten			Animalia		Echinodermata									Eukaryota		V3164-03
 	transect	Mediaster tenellus	435.19	3164	02:57:58:07	 	36.799446	-122.18658	2454603	0.77	28:29.0	Ventana	34.204	02:58:02:15	6.316		Goniasteridae	Mediaster			Animalia	Valvatida	Echinodermata	Mediaster tenellus	Asteroidea			Granulosina				Eukaryota		V3164-03
 	transect	Mediaster tenellus	435.62	3164	02:58:30:20	 	36.79941	-122.186615	2454624	0.76	29:01.0	Ventana	34.205	02:58:35:05	6.316		Goniasteridae	Mediaster			Animalia	Valvatida	Echinodermata	Mediaster tenellus	Asteroidea			Granulosina				Eukaryota		V3164-03
 	cruise	Liponema brevicornis	452.76	3164	02:17:08:07	 	36.79367	-122.19073	2451154	0.75	47:36.0	Ventana	34.208	02:17:12:19	6.3	Anthozoa	Liponematidae	Liponema			Animalia	Actiniaria	Cnidaria	Liponema brevicornis	Hexacorallia			Nyantheae				Eukaryota		V3164-03
 	cruise	Liponema brevicornis	504.47	3164	01:35:17:06	 	36.78227	-122.19469	2448435	0.46	04:41.0	Ventana	34.273	01:35:21:18	5.644	Anthozoa	Liponematidae	Liponema			Animalia	Actiniaria	Cnidaria	Liponema brevicornis	Hexacorallia			Nyantheae				Eukaryota		V3164-02
 	cruise	Stomphia	379.61	3164	03:44:17:01	 	36.81039	-122.17664	2457726	0.99	15:42.0	Ventana	34.18	03:44:25:26	6.762	Anthozoa	Actinostolidae	Stomphia			Animalia	Actiniaria	Cnidaria		Hexacorallia			Nyantheae				Eukaryota		V3164-04
 	transect	Rathbunaster californicus	432.87	3164	02:45:37:15	 	36.799904	-122.186806	2453535	0.77	16:07.0	Ventana	34.204	02:45:40:20	6.318		Labidiasteridae	Rathbunaster			Animalia	Forcipulatida	Echinodermata	Rathbunaster californicus	Asteroidea							Eukaryota		V3164-03
 	cruise	Parmaturus xaniurus	470.62	3164	02:02:01:17	 	36.789318	-122.19281	2450771	0.67	31:27.0	Ventana	34.221	02:02:05:25	6.159	Chondrichthyes	Scyliorhinidae	Parmaturus			Animalia	Carcharhiniformes	Chordata	Parmaturus xaniurus	Elasmobranchii				Vertebrata			Eukaryota	Galeomorphi	V3164-02
 	cruise	Eptatretus stoutii	438.12	3164	02:33:46:06	 	36.79826	-122.18794	2452215	0.76	04:15.0	Ventana	34.207	02:33:51:01	6.309	Agnatha		Eptatretus			Animalia		Chordata						Vertebrata			Eukaryota		V3164-03
 	cruise	Chionoecetes tanneri	475.14	3164	01:59:21:07	 	36.78834	-122.19307	2450741	0.52	28:47.0	Ventana	34.256	01:59:24:26	5.787	Malacostraca	Majidae	Chionoecetes		Brachyura	Animalia	Decapoda	Arthropoda	Chionoecetes tanneri	Eumalacostraca						Majoidea	Eukaryota	Eucarida	V3164-02
 	cruise	Lycodapus	481.69	3164	01:54:18:01	 	36.786976	-122.193695	2450711	0.51	23:43.0	Ventana	34.257	01:54:22:13	5.78	Osteichthyes	Zoarcidae	Lycodapus	Neopterygii		Animalia	Perciformes	Chordata		Actinopterygii			Zoarcoidei	Vertebrata	Gnathostomata		Eukaryota	Acanthopterygii	V3164-02
 	cruise	Sebastes diploproa	361.78	3164	04:02:37:27	 	36.814926	-122.17302	2458261	0.91	34:03.0	Ventana	34.188	04:02:45:00	6.606	Osteichthyes	Scorpaenidae	Sebastes	Neopterygii		Animalia	Scorpaeniformes	Chordata	Sebastes diploproa	Actinopterygii			Scorpaenoidei	Vertebrata	Gnathostomata		Eukaryota	Acanthopterygii	V3164-04
 	cruise	Actiniaria sp. 3	390.07	3164	03:36:39:15	 	36.80878	-122.17837	2456787	0.87	08:03.0	Ventana	34.19	03:36:46:20	6.528	Anthozoa					Animalia	Actiniaria	Cnidaria		Hexacorallia							Eukaryota		V3164-04
 	transect	Henricia aspera	430.56	3164	02:47:29:26	 	36.800213	-122.186516	2453745	0.77	18:00.0	Ventana	34.205	02:47:34:24	6.317		Echinasteridae	Henricia			Animalia	Spinulosida	Echinodermata	Henricia aspera	Asteroidea			Leptognathina				Eukaryota		V3164-03
 	transect	Eptatretus stoutii	435.45	3164	02:42:56:20	 	36.79947	-122.18702	2452478	0.76	13:26.0	Ventana	34.205	02:43:00:16	6.315	Agnatha		Eptatretus			Animalia		Chordata						Vertebrata			Eukaryota		V3164-03
 	cruise	Microstomus pacificus	427.3	3164	03:08:24:18	 	36.801937	-122.185104	2455925	0.72	38:56.0	Ventana	34.213	03:08:28:16	6.238	Osteichthyes	Pleuronectidae	Microstomus	Neopterygii		Animalia	Pleuronectiformes	Chordata	Microstomus pacificus	Actinopterygii				Vertebrata	Gnathostomata		Eukaryota	Acanthopterygii	V3164-03
 	transect	Rathbunaster californicus	432.42	3164	02:54:29:13	 	36.79984	-122.18613	2454504	0.77	25:00.0	Ventana	34.204	02:54:33:28	6.318		Labidiasteridae	Rathbunaster			Animalia	Forcipulatida	Echinodermata	Rathbunaster californicus	Asteroidea							Eukaryota		V3164-03
 	cruise	Merluccius productus	374.7	3164	03:50:36:20	 	36.81179	-122.17522	2458058	0.88	22:02.0	Ventana	34.192	03:50:44:03	6.534	Osteichthyes	Merlucciidae	Merluccius	Neopterygii		Animalia	Gadiformes	Chordata	Merluccius productus	Actinopterygii				Vertebrata	Gnathostomata		Eukaryota	Paracanthopterygii	V3164-04
 	cruise	Liponema brevicornis	532.18	3164	01:13:35:15	http://search.mbari.org/ARCHIVE/frameGrabs/Ventana/images/3164/01_13_38_29.jpg	36.777653	-122.19504	20023732	0.4	42:58.0	Ventana	34.291	01:13:38:29	5.503	Anthozoa	Liponematidae	Liponema			Animalia	Actiniaria	Cnidaria	Liponema brevicornis	Hexacorallia			Nyantheae				Eukaryota		V3164-02
 	transect	Porifera	431.67	3164	02:53:13:01	 	36.800003	-122.18596	2454421	0.77	23:43.0	Ventana	34.205	02:53:18:11	6.314						Animalia		Porifera									Eukaryota		V3164-03
 	transect	Eptatretus stoutii	435.11	3164	02:43:24:19	 	36.799534	-122.18698	2453452	0.77	13:54.0	Ventana	34.205	02:43:28:18	6.317	Agnatha		Eptatretus			Animalia		Chordata						Vertebrata			Eukaryota		V3164-03
 	transect	Mediaster aequalis	433.36	3164	02:55:29:26	 	36.79971	-122.18628	2454534	0.77	26:00.0	Ventana	34.203	02:55:33:20	6.321		Goniasteridae	Mediaster			Animalia	Valvatida	Echinodermata	Mediaster aequalis	Asteroidea			Granulosina				Eukaryota		V3164-03
 	cruise	Hippasteria	533.98	3164	01:12:13:03	 	36.777332	-122.19506	2448262	0.4	41:36.0	Ventana	34.292	01:12:18:09	5.499		Goniasteridae	Hippasteria			Animalia	Valvatida	Echinodermata		Asteroidea			Granulosina				Eukaryota		V3164-02
 	cruise	Parmaturus xaniurus	501.21	3164	01:38:45:29	 	36.78286	-122.19471	2448465	0.48	08:10.0	Ventana	34.267	01:38:49:12	5.692	Chondrichthyes	Scyliorhinidae	Parmaturus			Animalia	Carcharhiniformes	Chordata	Parmaturus xaniurus	Elasmobranchii				Vertebrata			Eukaryota	Galeomorphi	V3164-02
 	transect	Rathbunaster californicus	433.99	3164	02:56:41:24	 	36.799572	-122.18651	2454564	0.77	27:12.0	Ventana	34.204	02:56:46:22	6.318		Labidiasteridae	Rathbunaster			Animalia	Forcipulatida	Echinodermata	Rathbunaster californicus	Asteroidea							Eukaryota		V3164-03
 	transect	Mediaster	433.61	3164	02:45:03:01	 	36.79981	-122.186874	2453512	0.77	15:33.0	Ventana	34.204	02:45:08:06	6.317		Goniasteridae	Mediaster			Animalia	Valvatida	Echinodermata		Asteroidea			Granulosina				Eukaryota		V3164-03
 	transect	Rathbunaster californicus	431.2	3164	02:52:55:01	 	36.800037	-122.185936	2454391	0.77	23:25.0	Ventana	34.204	02:52:59:13	6.313		Labidiasteridae	Rathbunaster			Animalia	Forcipulatida	Echinodermata	Rathbunaster californicus	Asteroidea							Eukaryota		V3164-03
 	transect	Hippasteria spinosa	429.71	3164	02:48:09:25	 	36.80032	-122.18643	2454218	0.77	18:40.0	Ventana	34.205	02:48:13:23	6.314		Goniasteridae	Hippasteria			Animalia	Valvatida	Echinodermata	Hippasteria spinosa	Asteroidea			Granulosina				Eukaryota		V3164-03
 	transect	Allocentrotus fragilis	434.76	3164	02:57:42:07	 	36.799473	-122.186554	2454594	0.77	28:13.0	Ventana	34.205	02:57:46:04	6.316	Echinoidea	Strongylocentrotidae	Allocentrotus			Animalia	Echinoida	Echinodermata	Allocentrotus fragilis	Euechinoidea			Echinacea				Eukaryota		V3164-03
 	cruise	Hippasteria	545.33	3164	01:03:35:04	 	36.77556	-122.194885	2448165	0.39	32:57.0	Ventana	34.296	01:03:40:07	5.475		Goniasteridae	Hippasteria			Animalia	Valvatida	Echinodermata		Asteroidea			Granulosina				Eukaryota		V3164-02
 	cruise	Actiniaria sp. 3	414.75	3164	03:26:57:03	 	36.80659	-122.18083	2456697	0.73	58:20.0	Ventana	34.211	03:27:05:13	6.263	Anthozoa					Animalia	Actiniaria	Cnidaria		Hexacorallia							Eukaryota		V3164-04
 	transect	Phyllospadix	434.68	3164	02:44:09:02	 	36.799652	-122.18694	2453482	0.76	14:39.0	Ventana	34.204	02:44:14:07	6.317		Zosteraceae	Phyllospadix			Plantae	Najadales										Eukaryota		V3164-03
 	cruise	Chionoecetes tanneri	559.01	3164	00:56:34:06	 	36.773663	-122.194534	2447999	0.39	25:01.0	Ventana	34.302	00:56:35:18	5.442	Malacostraca	Majidae	Chionoecetes		Brachyura	Animalia	Decapoda	Arthropoda	Chionoecetes tanneri	Eumalacostraca						Majoidea	Eukaryota	Eucarida	V3164-01
 	cruise	Florometra serratissima	384.35	3164	03:41:44:20	 	36.809834	-122.17725	2457133	0.94	13:09.0	Ventana	34.184	03:41:52:00	6.671	Crinoidea	Antedonidae	Florometra			Animalia	Comatulidina	Echinodermata	Florometra serratissima							Antedonacea	Eukaryota		V3164-04
 	transect	Porifera	435.53	3164	02:58:22:06	 	36.799416	-122.18661	2454617	0.76	28:53.0	Ventana	34.205	02:58:27:17	6.316						Animalia		Porifera									Eukaryota		V3164-03
 	cruise	Hippasteria	523.08	3164	01:22:04:01	 	36.77905	-122.194916	2448368	0.42	51:27.0	Ventana	34.284	01:22:07:25	5.551		Goniasteridae	Hippasteria			Animalia	Valvatida	Echinodermata		Asteroidea			Granulosina				Eukaryota		V3164-02
 	transect	Porifera	429.11	3164	02:48:37:24	 	36.800385	-122.1864	2454264	0.77	19:08.0	Ventana	34.205	02:48:42:03	6.312						Animalia		Porifera									Eukaryota		V3164-03
 	cruise	Stylasterias forreri	360.67	3164	04:03:19:26	 	36.81513	-122.172935	2458268	0.92	34:45.0	Ventana	34.188	04:03:27:24	6.612		Asteriidae	Stylasterias			Animalia	Forcipulatida	Echinodermata	Stylasterias forreri	Asteroidea							Eukaryota		V3164-04
 	cruise	Sebastolobus	486.54	3164	01:50:14:23	 	36.785904	-122.19404	2450688	0.49	19:40.0	Ventana	34.264	01:50:18:18	5.731	Osteichthyes	Scorpaenidae	Sebastolobus	Neopterygii		Animalia	Scorpaeniformes	Chordata		Actinopterygii			Scorpaenoidei	Vertebrata	Gnathostomata		Eukaryota	Acanthopterygii	V3164-02
 	cruise	Actiniaria sp. 3	364.72	3164	03:59:21:03	 	36.814114	-122.17343	2458238	0.92	30:46.0	Ventana	34.188	03:59:29:16	6.65	Anthozoa					Animalia	Actiniaria	Cnidaria		Hexacorallia							Eukaryota		V3164-04
 	transect	Rathbunaster californicus	428.74	3164	02:49:00:09	 	36.800426	-122.18638	2454294	0.77	19:30.0	Ventana	34.204	02:49:03:26	6.311		Labidiasteridae	Rathbunaster			Animalia	Forcipulatida	Echinodermata	Rathbunaster californicus	Asteroidea							Eukaryota		V3164-03
 	transect	Rathbunaster californicus	432.4	3164	02:45:57:14	 	36.799953	-122.18677	2453572	0.77	16:27.0	Ventana	34.204	02:46:01:24	6.316		Labidiasteridae	Rathbunaster			Animalia	Forcipulatida	Echinodermata	Rathbunaster californicus	Asteroidea							Eukaryota		V3164-03
 	cruise	Chionoecetes tanneri	544.03	3164	01:05:11:16	 	36.775864	-122.194916	2448202	0.39	34:34.0	Ventana	34.296	01:05:15:20	5.475	Malacostraca	Majidae	Chionoecetes		Brachyura	Animalia	Decapoda	Arthropoda	Chionoecetes tanneri	Eumalacostraca						Majoidea	Eukaryota	Eucarida	V3164-02
 	cruise	Parmaturus xaniurus	493.82	3164	01:43:59:05	 	36.784306	-122.194565	2450635	0.47	13:24.0	Ventana	34.268	01:44:03:03	5.683	Chondrichthyes	Scyliorhinidae	Parmaturus			Animalia	Carcharhiniformes	Chordata	Parmaturus xaniurus	Elasmobranchii				Vertebrata			Eukaryota	Galeomorphi	V3164-02
 	transect	Rathbunaster californicus	431.88	3164	02:53:35:15	 	36.799953	-122.186005	2454444	0.77	24:05.0	Ventana	34.204	02:53:38:25	6.315		Labidiasteridae	Rathbunaster			Animalia	Forcipulatida	Echinodermata	Rathbunaster californicus	Asteroidea							Eukaryota		V3164-03
 	transect	Rathbunaster californicus	431.42	3164	02:46:37:13	 	36.80006	-122.18667	2453692	0.77	17:07.0	Ventana	34.204	02:46:41:27	6.318		Labidiasteridae	Rathbunaster			Animalia	Forcipulatida	Echinodermata	Rathbunaster californicus	Asteroidea							Eukaryota		V3164-03
 	cruise	Merluccius productus	374.78	3164	03:49:24:06	 	36.811543	-122.17548	2458035	0.9	20:49.0	Ventana	34.193	03:49:32:29	6.598	Osteichthyes	Merlucciidae	Merluccius	Neopterygii		Animalia	Gadiformes	Chordata	Merluccius productus	Actinopterygii				Vertebrata	Gnathostomata		Eukaryota	Paracanthopterygii	V3164-04
 	cruise	Parmaturus xaniurus	544.93	3164	01:03:49:03	 	36.775608	-122.19489	2448172	0.39	33:11.0	Ventana	34.296	01:03:52:17	5.475	Chondrichthyes	Scyliorhinidae	Parmaturus			Animalia	Carcharhiniformes	Chordata	Parmaturus xaniurus	Elasmobranchii				Vertebrata			Eukaryota	Galeomorphi	V3164-02
 	transect	Lycodes cortezianus	432.9	3164	02:55:15:27	 	36.79974	-122.18624	2454527	0.77	25:46.0	Ventana	34.203	02:55:19:04	6.323	Osteichthyes	Zoarcidae	Lycodes	Neopterygii		Animalia	Perciformes	Chordata	Lycodes cortezianus	Actinopterygii			Zoarcoidei	Vertebrata	Gnathostomata		Eukaryota	Acanthopterygii	V3164-03
 	transect	Rathbunaster californicus	434.67	3164	02:57:30:08	 	36.799496	-122.18655	2454587	0.77	28:01.0	Ventana	34.205	02:57:34:09	6.316		Labidiasteridae	Rathbunaster			Animalia	Forcipulatida	Echinodermata	Rathbunaster californicus	Asteroidea							Eukaryota		V3164-03
 	transect	Porifera	434.26	3164	02:44:27:02	 	36.799706	-122.18693	2453489	0.77	14:57.0	Ventana	34.205	02:44:31:08	6.317						Animalia		Porifera									Eukaryota		V3164-03
 	cruise	cable	378	3164	03:46:11:12	http://search.mbari.org/ARCHIVE/frameGrabs/Ventana/images/3164/03_46_19_05.jpg	36.810837	-122.17621	2457772	0.96	17:36.0	Ventana	34.181	03:46:19:05	6.697																			V3164-04
 	cruise	Microstomus pacificus	549.59	3164	01:02:21:25	http://search.mbari.org/ARCHIVE/frameGrabs/Ventana/images/3164/01_02_21_26.jpg	36.774982	-122.194786	20023725	0.39	30:49.0	Ventana	34.297	01:02:21:26	5.462	Osteichthyes	Pleuronectidae	Microstomus	Neopterygii		Animalia	Pleuronectiformes	Chordata	Microstomus pacificus	Actinopterygii				Vertebrata	Gnathostomata		Eukaryota	Acanthopterygii	V3164-01
 	transect	Stomphia	433.76	3164	02:56:23:25	 	36.79962	-122.186424	2454557	0.77	26:54.0	Ventana	34.205	02:56:28:06	6.318	Anthozoa	Actinostolidae	Stomphia			Animalia	Actiniaria	Cnidaria		Hexacorallia			Nyantheae				Eukaryota		V3164-03
 	cruise	trench	569.06	3164	00:50:57:02	http://search.mbari.org/ARCHIVE/frameGrabs/Ventana/images/3164/00_50_57_23.jpg	36.772373	-122.19448	2447969	0.39	19:23.0	Ventana	34.303	00:50:57:23	5.437																			V3164-01
 	cruise	Actiniaria sp. 3	428.11	3164	03:03:23:27	 	36.800648	-122.1862	2455858	0.79	33:54.0	Ventana	34.199	03:03:28:04	6.356	Anthozoa					Animalia	Actiniaria	Cnidaria		Hexacorallia							Eukaryota		V3164-03
 	transect	Sebastolobus	429.85	3164	02:48:05:25	 	36.80031	-122.18644	2454211	0.77	18:36.0	Ventana	34.205	02:48:10:18	6.314	Osteichthyes	Scorpaenidae	Sebastolobus	Neopterygii		Animalia	Scorpaeniformes	Chordata		Actinopterygii			Scorpaenoidei	Vertebrata	Gnathostomata		Eukaryota	Acanthopterygii	V3164-03
 	transect	Rathbunaster californicus	430.7	3164	02:47:23:26	 	36.800194	-122.18653	2453733	0.77	17:53.0	Ventana	34.205	02:47:28:26	6.317		Labidiasteridae	Rathbunaster			Animalia	Forcipulatida	Echinodermata	Rathbunaster californicus	Asteroidea							Eukaryota		V3164-03
 	cruise	Sebastes diploproa	486.31	3164	01:50:32:22	http://search.mbari.org/ARCHIVE/frameGrabs/Ventana/images/3164/01_50_37_20.jpg	36.785995	-122.19401	20023750	0.5	19:58.0	Ventana	34.26	01:50:37:20	5.747	Osteichthyes	Scorpaenidae	Sebastes	Neopterygii		Animalia	Scorpaeniformes	Chordata	Sebastes diploproa	Actinopterygii			Scorpaenoidei	Vertebrata	Gnathostomata		Eukaryota	Acanthopterygii	V3164-02
 	transect	Actiniaria sp. 3	431.85	3164	02:53:33:15	 	36.799957	-122.186005	2454439	0.77	24:03.0	Ventana	34.204	02:53:36:24	6.315	Anthozoa					Animalia	Actiniaria	Cnidaria		Hexacorallia							Eukaryota		V3164-03
 	cruise	Actiniaria sp. 3	427.28	3164	03:04:33:25	 	36.80094	-122.18595	2455851	0.77	35:05.0	Ventana	34.205	03:04:38:18	6.309	Anthozoa					Animalia	Actiniaria	Cnidaria		Hexacorallia							Eukaryota		V3164-03
 	cruise	Actiniaria sp. 3	411.34	3164	03:28:31:15	 	36.80687	-122.18047	2456711	0.75	59:54.0	Ventana	34.209	03:28:39:10	6.283	Anthozoa					Animalia	Actiniaria	Cnidaria		Hexacorallia							Eukaryota		V3164-04
 	transect	Mediaster aequalis	431.05	3164	02:46:55:27	 	36.80011	-122.18661	2453703	0.77	17:25.0	Ventana	34.204	02:47:00:00	6.318		Goniasteridae	Mediaster			Animalia	Valvatida	Echinodermata	Mediaster aequalis	Asteroidea			Granulosina				Eukaryota		V3164-03
 	cruise	Anthoptilum grandiflorum	473.71	3164	02:00:11:05	http://search.mbari.org/ARCHIVE/frameGrabs/Ventana/images/3164/02_00_15_10.jpg	36.78864	-122.193	2450755	0.53	29:37.0	Ventana	34.245	02:00:15:10	5.869	Anthozoa	Anthoptilidae	Anthoptilum			Animalia	Pennatulacea	Cnidaria	Anthoptilum grandiflorum	Octocorallia			Sessiliflorae				Eukaryota		V3164-02
 	transect	Psolus squamatus	431.47	3164	02:53:05:01	 	36.80002	-122.18595	2454409	0.77	23:35.0	Ventana	34.204	02:53:09:16	6.313	Holothuroidea	Psolidae	Psolus			Animalia	Dendrochirotida	Echinodermata	Psolus squamatus								Eukaryota		V3164-03
 	cruise	Parmaturus xaniurus	587.58	3164	00:40:48:20	http://search.mbari.org/ARCHIVE/frameGrabs/Ventana/images/3164/00_40_49_06.jpg	36.770367	-122.1942	20023720	0.37	09:14.0	Ventana	34.31	00:40:49:06	5.359	Chondrichthyes	Scyliorhinidae	Parmaturus			Animalia	Carcharhiniformes	Chordata	Parmaturus xaniurus	Elasmobranchii				Vertebrata			Eukaryota	Galeomorphi	V3164-01
 	cruise	Chionoecetes tanneri	485.35	3164	01:51:27:06	 	36.786224	-122.193924	2450695	0.5	20:52.0	Ventana	34.258	01:51:31:29	5.754	Malacostraca	Majidae	Chionoecetes		Brachyura	Animalia	Decapoda	Arthropoda	Chionoecetes tanneri	Eumalacostraca						Majoidea	Eukaryota	Eucarida	V3164-02
 	cruise	Lycodes cortezianus	385.17	3164	03:40:56:07	 	36.809635	-122.17746	2457124	0.92	12:21.0	Ventana	34.184	03:41:05:09	6.64	Osteichthyes	Zoarcidae	Lycodes	Neopterygii		Animalia	Perciformes	Chordata	Lycodes cortezianus	Actinopterygii			Zoarcoidei	Vertebrata	Gnathostomata		Eukaryota	Acanthopterygii	V3164-04
 	transect	Mediaster aequalis	432.97	3164	02:55:17:27	http://search.mbari.org/ARCHIVE/frameGrabs/Ventana/images/3164/02_55_22_26.jpg	36.799736	-122.18625	2454529	0.77	25:48.0	Ventana	34.203	02:55:22:26	6.323		Goniasteridae	Mediaster			Animalia	Valvatida	Echinodermata	Mediaster aequalis	Asteroidea			Granulosina				Eukaryota		V3164-03
 	transect	Rathbunaster californicus	435.58	3164	02:42:38:20	 	36.79943	-122.187035	2452460	0.76	13:08.0	Ventana	34.206	02:42:42:23	6.315		Labidiasteridae	Rathbunaster			Animalia	Forcipulatida	Echinodermata	Rathbunaster californicus	Asteroidea							Eukaryota		V3164-03
 	cruise	Actiniaria sp. 3	423.23	3164	03:17:20:20	 	36.8044	-122.18288	2456621	0.72	48:43.0	Ventana	34.214	03:17:29:08	6.234	Anthozoa					Animalia	Actiniaria	Cnidaria		Hexacorallia							Eukaryota		V3164-04
 	cruise	Parmaturus xaniurus	500.22	3164	01:39:34:13	 	36.78306	-122.194695	2448483	0.48	08:59.0	Ventana	34.266	01:39:37:21	5.702	Chondrichthyes	Scyliorhinidae	Parmaturus			Animalia	Carcharhiniformes	Chordata	Parmaturus xaniurus	Elasmobranchii				Vertebrata			Eukaryota	Galeomorphi	V3164-02
 	cruise	Sebastes aurora	465.23	3164	02:06:17:27	 	36.790726	-122.192245	2450875	0.71	36:45.0	Ventana	34.217	02:06:21:07	6.203	Osteichthyes	Scorpaenidae	Sebastes	Neopterygii		Animalia	Scorpaeniformes	Chordata	Sebastes aurora	Actinopterygii			Scorpaenoidei	Vertebrata	Gnathostomata		Eukaryota	Acanthopterygii	V3164-03
 	cruise	Microstomus pacificus	353.25	3164	04:14:13:20	 	36.81815	-122.17198	2458972	0.89	46:07.0	Ventana	34.19	04:14:24:23	6.572	Osteichthyes	Pleuronectidae	Microstomus	Neopterygii		Animalia	Pleuronectiformes	Chordata	Microstomus pacificus	Actinopterygii				Vertebrata	Gnathostomata		Eukaryota	Acanthopterygii	V3164-05
 	transect	Stomphia	433.13	3164	02:45:25:15	 	36.799866	-122.18684	2453530	0.77	15:55.0	Ventana	34.204	02:45:29:15	6.318	Anthozoa	Actinostolidae	Stomphia			Animalia	Actiniaria	Cnidaria		Hexacorallia			Nyantheae				Eukaryota		V3164-03
 	cruise	Halipteris californica	555.2	3164	00:59:21:01	 	36.774246	-122.19464	2448010	0.39	27:48.0	Ventana	34.302	00:59:21:19	5.449	Anthozoa	Halipteridae	Halipteris			Animalia	Pennatulacea	Cnidaria	Halipteris californica	Octocorallia			Subselliflorae				Eukaryota		V3164-01
 	transect	Porifera	435.36	3164	02:58:08:07	 	36.79943	-122.186584	2454612	0.76	28:39.0	Ventana	34.205	02:58:12:11	6.316						Animalia		Porifera									Eukaryota		V3164-03
 	cruise	Anthomastus ritteri	365.61	3164	03:59:04:19	 	36.814037	-122.17348	2458236	0.91	30:30.0	Ventana	34.187	03:59:12:22	6.609	Anthozoa	Alcyoniidae				Animalia	Alcyonacea	Cnidaria	Anthomastus	Octocorallia							Eukaryota		V3164-04
 	cruise	Actiniaria sp. 3	358.51	3164	04:06:46:20	 	36.816055	-122.172585	2458326	0.91	38:12.0	Ventana	34.188	04:06:55:24	6.603	Anthozoa					Animalia	Actiniaria	Cnidaria		Hexacorallia							Eukaryota		V3164-04
 	transect	Porifera	434.39	3164	02:57:16:08	 	36.799522	-122.18653	2454582	0.77	27:46.0	Ventana	34.205	02:57:21:07	6.316						Animalia		Porifera									Eukaryota		V3164-03
 	cruise	Merluccius productus	458.02	3164	02:12:23:01	 	36.792385	-122.19141	2451018	0.74	42:51.0	Ventana	34.21	02:12:27:11	6.284	Osteichthyes	Merlucciidae	Merluccius	Neopterygii		Animalia	Gadiformes	Chordata	Merluccius productus	Actinopterygii				Vertebrata	Gnathostomata		Eukaryota	Paracanthopterygii	V3164-03
 	cruise	Halipteris californica	537.31	3164	01:09:48:23	 	36.77677	-122.19502	2448243	0.4	39:11.0	Ventana	34.294	01:09:52:29	5.49	Anthozoa	Halipteridae	Halipteris			Animalia	Pennatulacea	Cnidaria	Halipteris californica	Octocorallia			Subselliflorae				Eukaryota		V3164-02
 	transect	Stomphia	432.15	3164	02:54:03:14	 	36.799892	-122.186066	2454469	0.76	24:34.0	Ventana	34.205	02:54:07:18	6.314	Anthozoa	Actinostolidae	Stomphia			Animalia	Actiniaria	Cnidaria		Hexacorallia			Nyantheae				Eukaryota		V3164-03
 	transect	Allocentrotus fragilis	429.12	3164	02:48:39:24	 	36.80039	-122.1864	2454266	0.77	19:10.0	Ventana	34.205	02:48:45:05	6.312	Echinoidea	Strongylocentrotidae	Allocentrotus			Animalia	Echinoida	Echinodermata	Allocentrotus fragilis	Euechinoidea			Echinacea				Eukaryota		V3164-03
 	cruise	Microstomus pacificus	418.41	3164	03:23:38:09	 	36.80598	-122.18143	2456681	0.73	55:01.0	Ventana	34.212	03:23:46:14	6.248	Osteichthyes	Pleuronectidae	Microstomus	Neopterygii		Animalia	Pleuronectiformes	Chordata	Microstomus pacificus	Actinopterygii				Vertebrata	Gnathostomata		Eukaryota	Acanthopterygii	V3164-04
 	cruise	Merluccius productus	452.34	3164	02:17:32:06	 	36.793777	-122.19067	2451161	0.75	48:00.0	Ventana	34.209	02:17:37:06	6.298	Osteichthyes	Merlucciidae	Merluccius	Neopterygii		Animalia	Gadiformes	Chordata	Merluccius productus	Actinopterygii				Vertebrata	Gnathostomata		Eukaryota	Paracanthopterygii	V3164-03
 	cruise	Stylasterias forreri	374.08	3164	03:51:27:03	 	36.811993	-122.17503	2458070	0.87	22:52.0	Ventana	34.192	03:51:35:00	6.531		Asteriidae	Stylasterias			Animalia	Forcipulatida	Echinodermata	Stylasterias forreri	Asteroidea							Eukaryota		V3164-04
 	transect	Mediaster tenellus	431.08	3164	02:47:01:27	 	36.800125	-122.18659	2453710	0.77	17:31.0	Ventana	34.204	02:47:06:06	6.318		Goniasteridae	Mediaster			Animalia	Valvatida	Echinodermata	Mediaster tenellus	Asteroidea			Granulosina				Eukaryota		V3164-03
 	cruise	Apolemia	502.76	3164	01:36:57:18	http://search.mbari.org/ARCHIVE/frameGrabs/Ventana/images/3164/01_37_02_00.jpg	36.782566	-122.1947	20023743	0.47	06:22.0	Ventana	34.269	01:37:02:00	5.678		Apolemidae	Apolemia			Animalia	Siphonophora	Cnidaria					Physonectae		Hydrozoa		Eukaryota		V3164-02
 	transect	Anthoptilum grandiflorum	435.25	3164	02:43:10:19	 	36.799503	-122.187	2453447	0.76	13:40.0	Ventana	34.205	02:43:15:26	6.317	Anthozoa	Anthoptilidae	Anthoptilum			Animalia	Pennatulacea	Cnidaria	Anthoptilum grandiflorum	Octocorallia			Sessiliflorae				Eukaryota		V3164-03
 	cruise	trench	456.06	3164	02:14:05:13	http://search.mbari.org/ARCHIVE/frameGrabs/Ventana/images/3164/02_14_10_04.jpg	36.792862	-122.191185	2451025	0.73	44:33.0	Ventana	34.211	02:14:10:04	6.27																			V3164-03
 	cruise	Anthomastus ritteri	391.76	3164	03:36:03:00	http://search.mbari.org/ARCHIVE/frameGrabs/Ventana/images/3164/03_36_10_22.jpg	36.808647	-122.17853	2456778	0.91	07:27.0	Ventana	34.187	03:36:10:22	6.605	Anthozoa	Alcyoniidae				Animalia	Alcyonacea	Cnidaria	Anthomastus	Octocorallia							Eukaryota		V3164-04
 	cruise	trench	586.45	3164	00:34:45:01	http://search.mbari.org/ARCHIVE/frameGrabs/Ventana/images/3164/00_34_45_17.jpg	36.770466	-122.19414	20023713	0.39	03:10.0	Ventana	34.307	00:34:45:17	5.39																			V3164-01
 	transect	Rathbunaster californicus	434.78	3164	02:43:55:03	 	36.799606	-122.18696	2453477	0.77	14:24.0	Ventana	34.205	02:43:59:06	6.317		Labidiasteridae	Rathbunaster			Animalia	Forcipulatida	Echinodermata	Rathbunaster californicus	Asteroidea							Eukaryota		V3164-03
 	cruise	Parmaturus xaniurus	483.45	3164	01:52:51:18	 	36.786594	-122.193825	2450702	0.5	22:17.0	Ventana	34.26	01:52:56:22	5.751	Chondrichthyes	Scyliorhinidae	Parmaturus			Animalia	Carcharhiniformes	Chordata	Parmaturus xaniurus	Elasmobranchii				Vertebrata			Eukaryota	Galeomorphi	V3164-02
 	cruise	Parmaturus xaniurus	583.59	3164	00:44:33:13	 	36.770813	-122.19425	2447904	0.38	12:59.0	Ventana	34.307	00:44:34:13	5.391	Chondrichthyes	Scyliorhinidae	Parmaturus			Animalia	Carcharhiniformes	Chordata	Parmaturus xaniurus	Elasmobranchii				Vertebrata			Eukaryota	Galeomorphi	V3164-01
 	transect	Lycodes cortezianus	435.49	3164	02:42:42:20	http://search.mbari.org/ARCHIVE/frameGrabs/Ventana/images/3164/02_42_46_11.jpg	36.79944	-122.187035	2452467	0.76	13:12.0	Ventana	34.206	02:42:46:11	6.315	Osteichthyes	Zoarcidae	Lycodes	Neopterygii		Animalia	Perciformes	Chordata	Lycodes cortezianus	Actinopterygii			Zoarcoidei	Vertebrata	Gnathostomata		Eukaryota	Acanthopterygii	V3164-03
 	transect	Rathbunaster californicus	433.64	3164	02:56:03:25	 	36.79965	-122.18638	2454552	0.77	26:34.0	Ventana	34.204	02:56:08:14	6.316		Labidiasteridae	Rathbunaster			Animalia	Forcipulatida	Echinodermata	Rathbunaster californicus	Asteroidea							Eukaryota		V3164-03
 	cruise	Halipteris californica	563.68	3164	00:53:51:26	 	36.773003	-122.19451	2447987	0.39	22:18.0	Ventana	34.301	00:53:52:14	5.442	Anthozoa	Halipteridae	Halipteris			Animalia	Pennatulacea	Cnidaria	Halipteris californica	Octocorallia			Subselliflorae				Eukaryota		V3164-01
 	transect	Psolus squamatus	429.18	3164	02:48:35:24	 	36.80038	-122.1864	2454259	0.77	19:06.0	Ventana	34.205	02:48:40:16	6.313	Holothuroidea	Psolidae	Psolus			Animalia	Dendrochirotida	Echinodermata	Psolus squamatus								Eukaryota		V3164-03
 	cruise	Rathbunaster californicus	448.45	3164	02:25:10:07	 	36.79609	-122.18935	2452001	0.75	55:39.0	Ventana	34.209	02:25:14:03	6.29		Labidiasteridae	Rathbunaster			Animalia	Forcipulatida	Echinodermata	Rathbunaster californicus	Asteroidea							Eukaryota		V3164-03
 	cruise	Microstomus pacificus	353.29	3164	04:13:17:21	 	36.817875	-122.17207	2458965	0.9	45:10.0	Ventana	34.188	04:13:27:23	6.586	Osteichthyes	Pleuronectidae	Microstomus	Neopterygii		Animalia	Pleuronectiformes	Chordata	Microstomus pacificus	Actinopterygii				Vertebrata	Gnathostomata		Eukaryota	Acanthopterygii	V3164-05
 	cruise	Sebastes	448.39	3164	02:21:51:13	 	36.795017	-122.18993	2451281	0.75	52:20.0	Ventana	34.21	02:21:56:20	6.289	Osteichthyes	Scorpaenidae	Sebastes	Neopterygii		Animalia	Scorpaeniformes	Chordata		Actinopterygii			Scorpaenoidei	Vertebrata	Gnathostomata		Eukaryota	Acanthopterygii	V3164-03
 	cruise	Hydrolagus colliei	460.77	3164	02:10:22:20	http://search.mbari.org/ARCHIVE/frameGrabs/Ventana/images/3164/02_10_26_27.jpg	36.79181	-122.191666	2450995	0.68	40:50.0	Ventana	34.225	02:10:26:27	6.129	Chondrichthyes	Chimaeridae	Hydrolagus			Animalia	Chimaeriformes	Chordata	Hydrolagus colliei	Holocephali			Chimaeroidei	Vertebrata			Eukaryota	Holocephalimorpha	V3164-03
 	cruise	cable	423.75	3164	03:13:15:13	http://search.mbari.org/ARCHIVE/frameGrabs/Ventana/images/3164/03_13_24_13.jpg	36.803493	-122.1837	2456545	0.71	44:38.0	Ventana	34.215	03:13:24:13	6.23																			V3164-04
 	transect	Benthopecten	435.22	3164	02:58:00:07	 	36.799442	-122.18658	2454605	0.77	28:31.0	Ventana	34.204	02:58:04:03	6.316		Benthopectinidae	Benthopecten			Animalia		Echinodermata									Eukaryota		V3164-03
 	cruise	Hippasteria	509.27	3164	01:31:40:12	 	36.7814	-122.19472	2448423	0.46	01:04.0	Ventana	34.273	01:31:44:20	5.647		Goniasteridae	Hippasteria			Animalia	Valvatida	Echinodermata		Asteroidea			Granulosina				Eukaryota		V3164-02
 	cruise	Neptunea	496.87	3164	01:41:56:24	 	36.78371	-122.19463	2450619	0.46	11:21.0	Ventana	34.272	01:42:01:06	5.652	Gastropoda		Neptunea			Animalia	Neogastropoda	Mollusca					Rachiglossa			Muricacea	Eukaryota		V3164-02
 	cruise	Anthoptilum grandiflorum	468.98	3164	02:04:28:12	 	36.789864	-122.19251	2450792	0.7	33:54.0	Ventana	34.217	02:04:32:28	6.197	Anthozoa	Anthoptilidae	Anthoptilum			Animalia	Pennatulacea	Cnidaria	Anthoptilum grandiflorum	Octocorallia			Sessiliflorae				Eukaryota		V3164-02
 	cruise	Sebastes	345.99	3164	04:19:07:10	 	36.81975	-122.17159	2459025	0.95	51:00.0	Ventana	34.181	04:19:18:12	6.688	Osteichthyes	Scorpaenidae	Sebastes	Neopterygii		Animalia	Scorpaeniformes	Chordata		Actinopterygii			Scorpaenoidei	Vertebrata	Gnathostomata		Eukaryota	Acanthopterygii	V3164-05
 	cruise	trench	461.03	3164	02:10:06:20	http://search.mbari.org/ARCHIVE/frameGrabs/Ventana/images/3164/02_10_11_25.jpg	36.791733	-122.19171	2450965	0.68	40:34.0	Ventana	34.222	02:10:11:25	6.156																			V3164-03
 	cruise	Henricia sanguinolenta	429.4	3164	03:02:33:13	 	36.800426	-122.18629	2455837	0.8	33:04.0	Ventana	34.199	03:02:38:28	6.364		Echinasteridae	Henricia			Animalia	Spinulosida	Echinodermata	Henricia sanguinolenta	Asteroidea			Leptognathina				Eukaryota		V3164-03
 	cruise	Merluccius productus	414.25	3164	03:26:28:18	 	36.80652	-122.18091	2456695	0.73	57:52.0	Ventana	34.211	03:26:37:11	6.26	Osteichthyes	Merlucciidae	Merluccius	Neopterygii		Animalia	Gadiformes	Chordata	Merluccius productus	Actinopterygii				Vertebrata	Gnathostomata		Eukaryota	Paracanthopterygii	V3164-04
 	cruise	Liponema brevicornis	516.37	3164	01:27:07:06	 	36.780235	-122.19483	2448407	0.44	56:31.0	Ventana	34.277	01:27:12:10	5.608	Anthozoa	Liponematidae	Liponema			Animalia	Actiniaria	Cnidaria	Liponema brevicornis	Hexacorallia			Nyantheae				Eukaryota		V3164-02
 	transect	Stomphia	432.24	3164	02:54:13:14	 	36.799873	-122.18609	2454483	0.77	24:44.0	Ventana	34.204	02:54:18:17	6.316	Anthozoa	Actinostolidae	Stomphia			Animalia	Actiniaria	Cnidaria		Hexacorallia			Nyantheae				Eukaryota		V3164-03
 	cruise	trench	492.66	3164	01:44:53:18	http://search.mbari.org/ARCHIVE/frameGrabs/Ventana/images/3164/01_44_58_07.jpg	36.784546	-122.19451	2450649	0.47	14:18.0	Ventana	34.268	01:44:58:07	5.684																			V3164-02
 	cruise	Henricia sanguinolenta	503.96	3164	01:35:35:05	 	36.78234	-122.19469	2448437	0.46	04:59.0	Ventana	34.271	01:35:40:09	5.656		Echinasteridae	Henricia			Animalia	Spinulosida	Echinodermata	Henricia sanguinolenta	Asteroidea			Leptognathina				Eukaryota		V3164-02
 	transect	Sebastolobus	435.11	3164	02:43:24:19	 	36.799534	-122.18698	2453454	0.77	13:54.0	Ventana	34.205	02:43:29:18	6.317	Osteichthyes	Scorpaenidae	Sebastolobus	Neopterygii		Animalia	Scorpaeniformes	Chordata		Actinopterygii			Scorpaenoidei	Vertebrata	Gnathostomata		Eukaryota	Acanthopterygii	V3164-03
 	cruise	Halipteris californica	582.25	3164	00:45:03:12	 	36.770924	-122.19429	2447911	0.38	13:29.0	Ventana	34.306	00:45:03:25	5.402	Anthozoa	Halipteridae	Halipteris			Animalia	Pennatulacea	Cnidaria	Halipteris californica	Octocorallia			Subselliflorae				Eukaryota		V3164-01
 	cruise	Sebastolobus	487.98	3164	01:49:06:10	 	36.78561	-122.19416	2450679	0.49	18:31.0	Ventana	34.263	01:49:10:07	5.724	Osteichthyes	Scorpaenidae	Sebastolobus	Neopterygii		Animalia	Scorpaeniformes	Chordata		Actinopterygii			Scorpaenoidei	Vertebrata	Gnathostomata		Eukaryota	Acanthopterygii	V3164-02
 	cruise	Anthomastus ritteri	375.29	3164	03:49:52:20	 	36.811626	-122.17538	2458049	0.92	21:17.0	Ventana	34.187	03:50:01:12	6.608	Anthozoa	Alcyoniidae				Animalia	Alcyonacea	Cnidaria	Anthomastus	Octocorallia							Eukaryota		V3164-04
 	cruise	Sebastes	450.16	3164	02:19:49:02	 	36.794426	-122.190285	2451242	0.75	50:17.0	Ventana	34.209	02:19:53:05	6.288	Osteichthyes	Scorpaenidae	Sebastes	Neopterygii		Animalia	Scorpaeniformes	Chordata		Actinopterygii			Scorpaenoidei	Vertebrata	Gnathostomata		Eukaryota	Acanthopterygii	V3164-03
 	cruise	Hippasteria	359.35	3164	04:05:52:21	 	36.815823	-122.17267	2458312	0.91	37:18.0	Ventana	34.187	04:06:01:06	6.603		Goniasteridae	Hippasteria			Animalia	Valvatida	Echinodermata		Asteroidea			Granulosina				Eukaryota		V3164-04
 	transect	Rathbunaster californicus	433.49	3164	02:45:07:01	 	36.79982	-122.186874	2453514	0.77	15:37.0	Ventana	34.204	02:45:10:28	6.317		Labidiasteridae	Rathbunaster			Animalia	Forcipulatida	Echinodermata	Rathbunaster californicus	Asteroidea							Eukaryota		V3164-03
 	transect	Asbestopluma	429.85	3164	02:48:05:25	 	36.80031	-122.18644	2454190	0.77	18:36.0	Ventana	34.205	02:48:10:18	6.314	Demospongiae	Cladorhizidae	Asbestopluma			Animalia	Poecilosclerida	Porifera					Mycalina				Eukaryota		V3164-03
 	cruise	Careproctus melanurus	582.78	3164	00:44:51:12	 	36.77088	-122.194275	2447934	0.38	13:17.0	Ventana	34.307	00:44:51:14	5.399	Osteichthyes	Liparidae	Careproctus	Neopterygii		Animalia	Scorpaeniformes	Chordata	Careproctus melanurus	Actinopterygii				Vertebrata	Gnathostomata		Eukaryota	Acanthopterygii	V3164-01
 	transect	Psolus squamatus	434.76	3164	02:57:42:07	 	36.799473	-122.186554	2454596	0.77	28:13.0	Ventana	34.205	02:57:46:04	6.316	Holothuroidea	Psolidae	Psolus			Animalia	Dendrochirotida	Echinodermata	Psolus squamatus								Eukaryota		V3164-03
 	cruise	Liponema brevicornis	448.49	3164	02:21:45:13	 	36.794987	-122.18995	2451272	0.75	52:14.0	Ventana	34.21	02:21:50:04	6.289	Anthozoa	Liponematidae	Liponema			Animalia	Actiniaria	Cnidaria	Liponema brevicornis	Hexacorallia			Nyantheae				Eukaryota		V3164-03
 	cruise	Anoplopoma fimbria	354.78	3164	04:10:09:13	 	36.817028	-122.17233	2458342	0.9	41:35.0	Ventana	34.188	04:10:17:14	6.581	Osteichthyes	Anoplopomatidae	Anoplopoma	Neopterygii		Animalia	Scorpaeniformes	Chordata	Anoplopoma fimbria	Actinopterygii			Anoplopomatoidei	Vertebrata	Gnathostomata		Eukaryota	Acanthopterygii	V3164-04
 	cruise	Microstomus pacificus	383.5	3164	03:42:06:19	 	36.809925	-122.177155	2457138	0.95	13:31.0	Ventana	34.18	03:42:15:09	6.716	Osteichthyes	Pleuronectidae	Microstomus	Neopterygii		Animalia	Pleuronectiformes	Chordata	Microstomus pacificus	Actinopterygii				Vertebrata	Gnathostomata		Eukaryota	Acanthopterygii	V3164-04
 	transect	Rathbunaster californicus	433.99	3164	02:56:43:24	 	36.79957	-122.18651	2454566	0.77	27:14.0	Ventana	34.204	02:56:49:10	6.318		Labidiasteridae	Rathbunaster			Animalia	Forcipulatida	Echinodermata	Rathbunaster californicus	Asteroidea							Eukaryota		V3164-03
 	descend	Lobata	37.3	3164	00:07:07:22	http://search.mbari.org/ARCHIVE/frameGrabs/Ventana/images/3164/00_07_07_26.jpg	36.771164	-122.19411	2447851	5.67	35:31.0	Ventana	33.351	00:07:07:26	11.429						Animalia	Tentaculata	Ctenophora									Eukaryota		V3164-01
 	cruise	Parmaturus xaniurus	467.63	3164	02:05:28:11	 	36.790203	-122.192474	2450799	0.73	34:54.0	Ventana	34.212	02:05:33:02	6.255	Chondrichthyes	Scyliorhinidae	Parmaturus			Animalia	Carcharhiniformes	Chordata	Parmaturus xaniurus	Elasmobranchii				Vertebrata			Eukaryota	Galeomorphi	V3164-02
 	transect	Sebastes aurora	432.57	3164	02:45:43:14	http://search.mbari.org/ARCHIVE/frameGrabs/Ventana/images/3164/02_45_47_24.jpg	36.799915	-122.1868	2453544	0.77	16:13.0	Ventana	34.204	02:45:47:24	6.318	Osteichthyes	Scorpaenidae	Sebastes	Neopterygii		Animalia	Scorpaeniformes	Chordata	Sebastes aurora	Actinopterygii			Scorpaenoidei	Vertebrata	Gnathostomata		Eukaryota	Acanthopterygii	V3164-03
 	transect	Porifera	435.62	3164	02:58:30:20	 	36.79941	-122.186615	2454626	0.76	29:01.0	Ventana	34.205	02:58:35:05	6.316						Animalia		Porifera									Eukaryota		V3164-03
 	cruise	Halipteris californica	561.82	3164	00:55:16:08	 	36.773293	-122.1945	2447994	0.39	23:43.0	Ventana	34.301	00:55:17:01	5.446	Anthozoa	Halipteridae	Halipteris			Animalia	Pennatulacea	Cnidaria	Halipteris californica	Octocorallia			Subselliflorae				Eukaryota		V3164-01
 	transect	Allocentrotus fragilis	435.54	3164	02:42:20:20	http://search.mbari.org/ARCHIVE/frameGrabs/Ventana/images/3164/02_42_24_01.jpg	36.7994	-122.18704	2452416	0.76	12:50.0	Ventana	34.205	02:42:24:01	6.316	Echinoidea	Strongylocentrotidae	Allocentrotus			Animalia	Echinoida	Echinodermata	Allocentrotus fragilis	Euechinoidea			Echinacea				Eukaryota		V3164-03
 	transect	Rathbunaster californicus	430.98	3164	02:47:11:27	 	36.80016	-122.18656	2453717	0.77	17:41.0	Ventana	34.205	02:47:15:04	6.318		Labidiasteridae	Rathbunaster			Animalia	Forcipulatida	Echinodermata	Rathbunaster californicus	Asteroidea							Eukaryota		V3164-03
 	cruise	Liponema brevicornis	544.28	3164	01:04:17:18	http://search.mbari.org/ARCHIVE/frameGrabs/Ventana/images/3164/01_04_21_16.jpg	36.775703	-122.19491	20023727	0.39	33:40.0	Ventana	34.297	01:04:21:16	5.474	Anthozoa	Liponematidae	Liponema			Animalia	Actiniaria	Cnidaria	Liponema brevicornis	Hexacorallia			Nyantheae				Eukaryota		V3164-02
 	transect	Actiniaria sp. 3	431.64	3164	02:53:11:01	 	36.800007	-122.18596	2454416	0.77	23:41.0	Ventana	34.205	02:53:16:08	6.314	Anthozoa					Animalia	Actiniaria	Cnidaria		Hexacorallia							Eukaryota		V3164-03
 	cruise	cable	419.33	3164	03:22:53:25	http://search.mbari.org/ARCHIVE/frameGrabs/Ventana/images/3164/03_23_02_09.jpg	36.80579	-122.18161	2456672	0.73	54:17.0	Ventana	34.212	03:23:02:09	6.246																			V3164-04
 	cruise	Allocentrotus fragilis	428.11	3164	03:03:23:27	 	36.800648	-122.1862	2455860	0.79	33:54.0	Ventana	34.199	03:03:28:04	6.356	Echinoidea	Strongylocentrotidae	Allocentrotus			Animalia	Echinoida	Echinodermata	Allocentrotus fragilis	Euechinoidea			Echinacea				Eukaryota		V3164-03
 	transect	Benthopecten	432.19	3164	02:54:11:14	 	36.799877	-122.18609	2454476	0.77	24:42.0	Ventana	34.204	02:54:15:10	6.316		Benthopectinidae	Benthopecten			Animalia		Echinodermata									Eukaryota		V3164-03
 	cruise	Anthomastus ritteri	423.61	3164	03:16:28:07	 	36.80426	-122.18302	2456612	0.72	47:51.0	Ventana	34.213	03:16:37:03	6.236	Anthozoa	Alcyoniidae				Animalia	Alcyonacea	Cnidaria	Anthomastus	Octocorallia							Eukaryota		V3164-04
 	cruise	cable	389.11	3164	03:37:35:13	http://search.mbari.org/ARCHIVE/frameGrabs/Ventana/images/3164/03_37_43_09.jpg	36.80892	-122.17817	2457101	0.85	08:59.0	Ventana	34.2	03:37:43:09	6.525																			V3164-04
 	cruise	Microstomus pacificus	506.85	3164	01:33:42:24	 	36.78185	-122.19472	2448430	0.46	03:07.0	Ventana	34.271	01:33:46:24	5.654	Osteichthyes	Pleuronectidae	Microstomus	Neopterygii		Animalia	Pleuronectiformes	Chordata	Microstomus pacificus	Actinopterygii				Vertebrata	Gnathostomata		Eukaryota	Acanthopterygii	V3164-02
 	transect	Actiniaria sp. 3	435.43	3164	02:42:58:20	 	36.799473	-122.18701	2452483	0.76	13:28.0	Ventana	34.205	02:43:02:17	6.315	Anthozoa					Animalia	Actiniaria	Cnidaria		Hexacorallia							Eukaryota		V3164-03
 	cruise	Anthomastus ritteri	374.92	3164	03:50:28:20	 	36.81176	-122.17525	2458056	0.88	21:54.0	Ventana	34.192	03:50:37:13	6.534	Anthozoa	Alcyoniidae				Animalia	Alcyonacea	Cnidaria	Anthomastus	Octocorallia							Eukaryota		V3164-04
 	transect	Mediaster tenellus	432.43	3164	02:54:31:13	 	36.799835	-122.186134	2454506	0.77	25:02.0	Ventana	34.204	02:54:36:14	6.318		Goniasteridae	Mediaster			Animalia	Valvatida	Echinodermata	Mediaster tenellus	Asteroidea			Granulosina				Eukaryota		V3164-03
 	cruise	trench	450.22	3164	02:19:33:03	http://search.mbari.org/ARCHIVE/frameGrabs/Ventana/images/3164/02_19_36_25.jpg	36.79435	-122.19033	2451235	0.75	50:01.0	Ventana	34.209	02:19:36:25	6.289																			V3164-03
 	transect	Rathbunaster californicus	434.71	3164	02:57:34:08	 	36.799488	-122.18655	2454589	0.77	28:05.0	Ventana	34.205	02:57:39:08	6.316		Labidiasteridae	Rathbunaster			Animalia	Forcipulatida	Echinodermata	Rathbunaster californicus	Asteroidea							Eukaryota		V3164-03
 	cruise	Ceriantharia sp. 1	581.29	3164	00:45:21:26	 	36.770985	-122.194305	2447941	0.38	13:48.0	Ventana	34.307	00:45:22:21	5.398	Anthozoa					Animalia	Ceriantharia	Cnidaria		Ceriantipatharia							Eukaryota		V3164-01
 	transect	Mediaster	435	3164	02:43:30:18	 	36.799545	-122.18698	2453461	0.77	14:00.0	Ventana	34.205	02:43:34:12	6.317		Goniasteridae	Mediaster			Animalia	Valvatida	Echinodermata		Asteroidea			Granulosina				Eukaryota		V3164-03
 	cruise	Halipteris californica	568.67	3164	00:51:07:01	 	36.772415	-122.19448	2447971	0.39	19:33.0	Ventana	34.303	00:51:07:27	5.437	Anthozoa	Halipteridae	Halipteris			Animalia	Pennatulacea	Cnidaria	Halipteris californica	Octocorallia			Subselliflorae				Eukaryota		V3164-01
 	transect	Rathbunaster californicus	433.85	3164	02:56:29:25	 	36.799576	-122.1865	2454559	0.77	27:00.0	Ventana	34.205	02:56:34:13	6.318		Labidiasteridae	Rathbunaster			Animalia	Forcipulatida	Echinodermata	Rathbunaster californicus	Asteroidea							Eukaryota		V3164-03
 	cruise	Merluccius productus	362.15	3164	04:02:17:13	 	36.814842	-122.173065	2458259	0.92	33:43.0	Ventana	34.187	04:02:26:18	6.613	Osteichthyes	Merlucciidae	Merluccius	Neopterygii		Animalia	Gadiformes	Chordata	Merluccius productus	Actinopterygii				Vertebrata	Gnathostomata		Eukaryota	Paracanthopterygii	V3164-04
 	cruise	Asbestopluma	390.93	3164	03:36:15:00	 	36.808693	-122.178474	2456785	0.9	07:39.0	Ventana	34.191	03:36:23:23	6.565	Demospongiae	Cladorhizidae	Asbestopluma			Animalia	Poecilosclerida	Porifera					Mycalina				Eukaryota		V3164-04
 	cruise	Careproctus melanurus	586.48	3164	00:35:57:14	 	36.77045	-122.19414	2447858	0.38	04:23.0	Ventana	34.307	00:35:58:02	5.386	Osteichthyes	Liparidae	Careproctus	Neopterygii		Animalia	Scorpaeniformes	Chordata	Careproctus melanurus	Actinopterygii				Vertebrata	Gnathostomata		Eukaryota	Acanthopterygii	V3164-01
 	cruise	Hippasteria	542.86	3164	01:05:37:15	 	36.775944	-122.19491	2448204	0.39	35:00.0	Ventana	34.297	01:05:42:09	5.472		Goniasteridae	Hippasteria			Animalia	Valvatida	Echinodermata		Asteroidea			Granulosina				Eukaryota		V3164-02
 	transect	Rathbunaster californicus	432.57	3164	02:45:43:14	http://search.mbari.org/ARCHIVE/frameGrabs/Ventana/images/3164/02_45_47_24.jpg	36.799915	-122.1868	2453551	0.77	16:13.0	Ventana	34.204	02:45:47:24	6.318		Labidiasteridae	Rathbunaster			Animalia	Forcipulatida	Echinodermata	Rathbunaster californicus	Asteroidea							Eukaryota		V3164-03
 	transect	Porifera	435.58	3164	02:58:24:06	 	36.799416	-122.18661	2454619	0.76	28:55.0	Ventana	34.205	02:58:29:12	6.316						Animalia		Porifera									Eukaryota		V3164-03
 	transect	Psolus squamatus	434.5	3164	02:44:19:02	 	36.799683	-122.186935	2453487	0.76	14:49.0	Ventana	34.204	02:44:24:12	6.317	Holothuroidea	Psolidae	Psolus			Animalia	Dendrochirotida	Echinodermata	Psolus squamatus								Eukaryota		V3164-03
 	cruise	Merluccius productus	479.13	3164	01:56:54:11	 	36.787582	-122.193474	2450723	0.53	26:20.0	Ventana	34.255	01:56:58:18	5.802	Osteichthyes	Merlucciidae	Merluccius	Neopterygii		Animalia	Gadiformes	Chordata	Merluccius productus	Actinopterygii				Vertebrata	Gnathostomata		Eukaryota	Paracanthopterygii	V3164-02
 	cruise	cable	429.95	3164	03:02:21:14	http://search.mbari.org/ARCHIVE/frameGrabs/Ventana/images/3164/03_02_25_22.jpg	36.800377	-122.1863	2455868	0.79	32:52.0	Ventana	34.201	03:02:25:22	6.35																			V3164-03
 	cruise	Allocentrotus fragilis	359.08	3164	04:05:48:21	 	36.815804	-122.172676	2458309	0.91	37:14.0	Ventana	34.187	04:05:56:05	6.603	Echinoidea	Strongylocentrotidae	Allocentrotus			Animalia	Echinoida	Echinodermata	Allocentrotus fragilis	Euechinoidea			Echinacea				Eukaryota		V3164-04
 	transect	Allocentrotus fragilis	435.4	3164	02:43:04:20	 	36.799488	-122.187004	2452488	0.76	13:34.0	Ventana	34.205	02:43:08:08	6.315	Echinoidea	Strongylocentrotidae	Allocentrotus			Animalia	Echinoida	Echinodermata	Allocentrotus fragilis	Euechinoidea			Echinacea				Eukaryota		V3164-03
 	transect	Merluccius productus	433.43	3164	02:55:37:26	 	36.799694	-122.1863	2454546	0.77	26:08.0	Ventana	34.202	02:55:41:26	6.322	Osteichthyes	Merlucciidae	Merluccius	Neopterygii		Animalia	Gadiformes	Chordata	Merluccius productus	Actinopterygii				Vertebrata	Gnathostomata		Eukaryota	Paracanthopterygii	V3164-03
 	transect	Rathbunaster californicus	435.49	3164	02:42:10:21	 	36.79939	-122.18705	2452398	0.76	12:40.0	Ventana	34.205	02:42:13:28	6.316		Labidiasteridae	Rathbunaster			Animalia	Forcipulatida	Echinodermata	Rathbunaster californicus	Asteroidea							Eukaryota		V3164-03
 	cruise	Careproctus melanurus	485.67	3164	01:51:03:07	http://search.mbari.org/ARCHIVE/frameGrabs/Ventana/images/3164/01_51_07_04.jpg	36.78612	-122.19396	20023752	0.5	20:28.0	Ventana	34.26	01:51:07:04	5.748	Osteichthyes	Liparidae	Careproctus	Neopterygii		Animalia	Scorpaeniformes	Chordata	Careproctus melanurus	Actinopterygii				Vertebrata	Gnathostomata		Eukaryota	Acanthopterygii	V3164-02
 	cruise	trench	563.34	3164	00:54:09:25	http://search.mbari.org/ARCHIVE/frameGrabs/Ventana/images/3164/00_54_10_17.jpg	36.77306	-122.19452	2447989	0.39	22:36.0	Ventana	34.3	00:54:10:17	5.445																			V3164-01
 	transect	Henricia aspera	435.19	3164	02:57:58:07	 	36.799446	-122.18658	2454606	0.77	28:29.0	Ventana	34.204	02:58:02:07	6.316		Echinasteridae	Henricia			Animalia	Spinulosida	Echinodermata	Henricia aspera	Asteroidea			Leptognathina				Eukaryota		V3164-03
 	transect	Lycodes cortezianus	433.36	3164	02:45:15:01	 	36.79984	-122.18686	2453517	0.77	15:45.0	Ventana	34.204	02:45:19:01	6.317	Osteichthyes	Zoarcidae	Lycodes	Neopterygii		Animalia	Perciformes	Chordata	Lycodes cortezianus	Actinopterygii			Zoarcoidei	Vertebrata	Gnathostomata		Eukaryota	Acanthopterygii	V3164-03
 	cruise	Halipteris californica	459.03	3164	02:11:37:02	 	36.792156	-122.191505	2451016	0.74	42:05.0	Ventana	34.212	02:11:41:27	6.27	Anthozoa	Halipteridae	Halipteris			Animalia	Pennatulacea	Cnidaria	Halipteris californica	Octocorallia			Subselliflorae				Eukaryota		V3164-03
 	cruise	Umbellula lindahli	489.64	3164	01:47:13:29	 	36.7852	-122.19429	2450663	0.49	16:39.0	Ventana	34.264	01:47:19:07	5.726	Anthozoa	Umbellulidae	Umbellula			Animalia	Pennatulacea	Cnidaria	Umbellula lindahli	Octocorallia			Sessiliflorae				Eukaryota		V3164-02
 	cruise	Liponema brevicornis	505.39	3164	01:34:43:07	 	36.78211	-122.19469	2448432	0.46	04:07.0	Ventana	34.273	01:34:46:05	5.649	Anthozoa	Liponematidae	Liponema			Animalia	Actiniaria	Cnidaria	Liponema brevicornis	Hexacorallia			Nyantheae				Eukaryota		V3164-02
 	transect	Stomphia	429.04	3164	02:48:50:09	 	36.80041	-122.186386	2454283	0.77	19:20.0	Ventana	34.205	02:48:53:28	6.312	Anthozoa	Actinostolidae	Stomphia			Animalia	Actiniaria	Cnidaria		Hexacorallia			Nyantheae				Eukaryota		V3164-03
 	cruise	Parastichopus leukothele	369.45	3164	03:56:38:08	 	36.81334	-122.17395	2458219	0.9	28:04.0	Ventana	34.189	03:56:46:27	6.58	Holothuroidea	Stichopodidae	Parastichopus			Animalia	Aspidochirotida	Echinodermata	Parastichopus leukothele	Aspidochirotacea							Eukaryota		V3164-04
 	cruise	cable	361.02	3164	04:03:45:25	http://search.mbari.org/ARCHIVE/frameGrabs/Ventana/images/3164/04_03_53_21.jpg	36.815254	-122.17288	2458279	0.91	35:11.0	Ventana	34.188	04:03:53:21	6.608																			V3164-04
 	cruise	Lycodes cortezianus	353.33	3164	04:11:41:10	 	36.817474	-122.17222	2458955	0.9	43:34.0	Ventana	34.187	04:11:51:10	6.589	Osteichthyes	Zoarcidae	Lycodes	Neopterygii		Animalia	Perciformes	Chordata	Lycodes cortezianus	Actinopterygii			Zoarcoidei	Vertebrata	Gnathostomata		Eukaryota	Acanthopterygii	V3164-05
 	cruise	Stylasterias forreri	379	3164	03:45:41:13	 	36.8107	-122.17633	2457746	0.94	17:06.0	Ventana	34.183	03:45:49:29	6.678		Asteriidae	Stylasterias			Animalia	Forcipulatida	Echinodermata	Stylasterias forreri	Asteroidea							Eukaryota		V3164-04
 	cruise	Sebastes	351.85	3164	04:15:50:02	 	36.818703	-122.17186	2458985	0.9	47:43.0	Ventana	34.189	04:16:01:07	6.581	Osteichthyes	Scorpaenidae	Sebastes	Neopterygii		Animalia	Scorpaeniformes	Chordata		Actinopterygii			Scorpaenoidei	Vertebrata	Gnathostomata		Eukaryota	Acanthopterygii	V3164-05
 	transect	Rathbunaster californicus	432.03	3164	02:46:11:13	 	36.799988	-122.18674	2453607	0.77	16:41.0	Ventana	34.204	02:46:15:07	6.316		Labidiasteridae	Rathbunaster			Animalia	Forcipulatida	Echinodermata	Rathbunaster californicus	Asteroidea							Eukaryota		V3164-03
 	cruise	Hippasteria	363.05	3164	04:01:19:14	 	36.814644	-122.17316	2458249	0.91	32:45.0	Ventana	34.187	04:01:28:12	6.609		Goniasteridae	Hippasteria			Animalia	Valvatida	Echinodermata		Asteroidea			Granulosina				Eukaryota		V3164-04
 	cruise	Actiniaria sp. 3	426.9	3164	03:08:39:03	 	36.80195	-122.18509	2455928	0.73	39:10.0	Ventana	34.213	03:08:42:26	6.249	Anthozoa					Animalia	Actiniaria	Cnidaria		Hexacorallia							Eukaryota		V3164-03
 	cruise	Careproctus melanurus	586.5	3164	00:43:13:01	 	36.770504	-122.194145	2447876	0.38	11:39.0	Ventana	34.309	00:43:14:17	5.382	Osteichthyes	Liparidae	Careproctus	Neopterygii		Animalia	Scorpaeniformes	Chordata	Careproctus melanurus	Actinopterygii				Vertebrata	Gnathostomata		Eukaryota	Acanthopterygii	V3164-01
 	transect	Mediaster aequalis	434	3164	02:56:52:09	 	36.79956	-122.186516	2454569	0.77	27:22.0	Ventana	34.204	02:56:55:25	6.318		Goniasteridae	Mediaster			Animalia	Valvatida	Echinodermata	Mediaster aequalis	Asteroidea			Granulosina				Eukaryota		V3164-03
 	cruise	Ceriantharia sp. 1	582.98	3164	00:44:45:13	 	36.770855	-122.19427	2447906	0.38	13:11.0	Ventana	34.307	00:44:47:09	5.399	Anthozoa					Animalia	Ceriantharia	Cnidaria		Ceriantipatharia							Eukaryota		V3164-01
 	ascend	water	335.08	3164	04:22:34:04	 	36.81998	-122.1719	2459038	1.04	54:27.0	Ventana	34.169	04:22:44:26	6.867																			V3164-05
 	cruise	Chionoecetes tanneri	456.8	3164	02:13:25:14	 	36.792667	-122.19127	2451023	0.74	43:53.0	Ventana	34.211	02:13:30:14	6.271	Malacostraca	Majidae	Chionoecetes		Brachyura	Animalia	Decapoda	Arthropoda	Chionoecetes tanneri	Eumalacostraca						Majoidea	Eukaryota	Eucarida	V3164-03
 	cruise	Microstomus pacificus	489.14	3164	01:47:42:13	http://search.mbari.org/ARCHIVE/frameGrabs/Ventana/images/3164/01_47_46_03.jpg	36.785297	-122.19426	2450670	0.49	17:07.0	Ventana	34.266	01:47:46:03	5.712	Osteichthyes	Pleuronectidae	Microstomus	Neopterygii		Animalia	Pleuronectiformes	Chordata	Microstomus pacificus	Actinopterygii				Vertebrata	Gnathostomata		Eukaryota	Acanthopterygii	V3164-02
 	transect	Parmaturus xaniurus	435	3164	02:43:32:19	 	36.79955	-122.18698	2453464	0.77	14:02.0	Ventana	34.205	02:43:37:28	6.317	Chondrichthyes	Scyliorhinidae	Parmaturus			Animalia	Carcharhiniformes	Chordata	Parmaturus xaniurus	Elasmobranchii				Vertebrata			Eukaryota	Galeomorphi	V3164-03
 	cruise	Hippasteria	424.32	3164	03:14:45:25	 	36.803844	-122.18337	2456581	0.71	46:08.0	Ventana	34.215	03:14:54:19	6.227		Goniasteridae	Hippasteria			Animalia	Valvatida	Echinodermata		Asteroidea			Granulosina				Eukaryota		V3164-04
 	cruise	Halipteris californica	582.47	3164	00:44:59:12	 	36.770912	-122.19428	2447936	0.38	13:25.0	Ventana	34.306	00:45:00:14	5.402	Anthozoa	Halipteridae	Halipteris			Animalia	Pennatulacea	Cnidaria	Halipteris californica	Octocorallia			Subselliflorae				Eukaryota		V3164-01
 	cruise	Sebastes	424.07	3164	03:11:45:01	 	36.803154	-122.18404	2456521	0.72	43:07.0	Ventana	34.213	03:11:53:13	6.248	Osteichthyes	Scorpaenidae	Sebastes	Neopterygii		Animalia	Scorpaeniformes	Chordata		Actinopterygii			Scorpaenoidei	Vertebrata	Gnathostomata		Eukaryota	Acanthopterygii	V3164-04
 	transect	Mediaster	434.21	3164	02:44:31:02	 	36.799717	-122.18692	2453494	0.77	15:01.0	Ventana	34.205	02:44:36:02	6.317		Goniasteridae	Mediaster			Animalia	Valvatida	Echinodermata		Asteroidea			Granulosina				Eukaryota		V3164-03
 	cruise	Anthomastus ritteri	389.51	3164	03:37:23:13	 	36.8089	-122.1782	2457100	0.85	08:47.0	Ventana	34.197	03:37:32:14	6.466	Anthozoa	Alcyoniidae				Animalia	Alcyonacea	Cnidaria	Anthomastus	Octocorallia							Eukaryota		V3164-04
 	transect	Mediaster aequalis	429.35	3164	02:48:29:25	 	36.80037	-122.18641	2454246	0.77	19:00.0	Ventana	34.205	02:48:34:16	6.313		Goniasteridae	Mediaster			Animalia	Valvatida	Echinodermata	Mediaster aequalis	Asteroidea			Granulosina				Eukaryota		V3164-03
 	transect	Rathbunaster californicus	431.2	3164	02:46:47:13	 	36.800087	-122.18663	2453697	0.77	17:17.0	Ventana	34.204	02:46:51:28	6.319		Labidiasteridae	Rathbunaster			Animalia	Forcipulatida	Echinodermata	Rathbunaster californicus	Asteroidea							Eukaryota		V3164-03
 	cruise	Merluccius productus	451.21	3164	02:18:36:19	http://search.mbari.org/ARCHIVE/frameGrabs/Ventana/images/3164/02_18_40_22.jpg	36.79409	-122.19049	2451189	0.75	49:05.0	Ventana	34.208	02:18:40:22	6.295	Osteichthyes	Merlucciidae	Merluccius	Neopterygii		Animalia	Gadiformes	Chordata	Merluccius productus	Actinopterygii				Vertebrata	Gnathostomata		Eukaryota	Paracanthopterygii	V3164-03
 	transect	Actiniaria sp. 3	435.6	3164	02:42:24:21	http://search.mbari.org/ARCHIVE/frameGrabs/Ventana/images/3164/02_42_27_23.jpg	36.799404	-122.18704	2452435	0.76	12:54.0	Ventana	34.206	02:42:27:23	6.315	Anthozoa					Animalia	Actiniaria	Cnidaria		Hexacorallia							Eukaryota		V3164-03
 	transect	Stomphia	434.89	3164	02:57:46:07	 	36.799465	-122.18656	2454599	0.77	28:17.0	Ventana	34.205	02:57:51:11	6.316	Anthozoa	Actinostolidae	Stomphia			Animalia	Actiniaria	Cnidaria		Hexacorallia			Nyantheae				Eukaryota		V3164-03
 	cruise	Liponema brevicornis	508.69	3164	01:32:24:12	 	36.78154	-122.19472	2448425	0.46	01:48.0	Ventana	34.272	01:32:29:04	5.646	Anthozoa	Liponematidae	Liponema			Animalia	Actiniaria	Cnidaria	Liponema brevicornis	Hexacorallia			Nyantheae				Eukaryota		V3164-02
 	cruise	Microstomus pacificus	547.86	3164	 	 	36.77522	-122.194824	2448049	0.39	31:41.0	Ventana	34.297	01:03:13:25	5.469	Osteichthyes	Pleuronectidae	Microstomus	Neopterygii		Animalia	Pleuronectiformes	Chordata	Microstomus pacificus	Actinopterygii				Vertebrata	Gnathostomata		Eukaryota	Acanthopterygii	V3164-01
 	cruise	Merluccius productus	499.81	3164	01:39:52:12	 	36.78313	-122.19468	2448485	0.48	09:17.0	Ventana	34.265	01:39:57:17	5.697	Osteichthyes	Merlucciidae	Merluccius	Neopterygii		Animalia	Gadiformes	Chordata	Merluccius productus	Actinopterygii				Vertebrata	Gnathostomata		Eukaryota	Paracanthopterygii	V3164-02
 	cruise	Hippasteria	376.24	3164	03:47:21:25	 	36.811142	-122.17588	2457820	0.9	18:47.0	Ventana	34.188	03:47:29:05	6.59		Goniasteridae	Hippasteria			Animalia	Valvatida	Echinodermata		Asteroidea			Granulosina				Eukaryota		V3164-04
 	cruise	Asbestopluma	384.82	3164	03:41:34:21	 	36.809795	-122.17729	2457130	0.93	12:59.0	Ventana	34.183	03:41:42:19	6.655	Demospongiae	Cladorhizidae	Asbestopluma			Animalia	Poecilosclerida	Porifera					Mycalina				Eukaryota		V3164-04
 	cruise	mud	430.91	3164	03:01:27:00	 	36.80012	-122.186386	2454652	0.78	31:58.0	Ventana	34.202	03:01:32:00	6.326																			V3164-03
 	cruise	Hippasteria	550.3	3164	01:01:53:26	 	36.774864	-122.19477	2448019	0.39	30:21.0	Ventana	34.299	01:01:55:01	5.459		Goniasteridae	Hippasteria			Animalia	Valvatida	Echinodermata		Asteroidea			Granulosina				Eukaryota		V3164-01
 	cruise	cable	379.51	3164	03:45:17:14	http://search.mbari.org/ARCHIVE/frameGrabs/Ventana/images/3164/03_45_26_08.jpg	36.810596	-122.17643	2457739	0.94	16:42.0	Ventana	34.184	03:45:26:08	6.653																			V3164-04
 	cruise	Merluccius productus	477.11	3164	01:58:12:24	 	36.78794	-122.19329	2450730	0.51	27:38.0	Ventana	34.257	01:58:17:23	5.77	Osteichthyes	Merlucciidae	Merluccius	Neopterygii		Animalia	Gadiformes	Chordata	Merluccius productus	Actinopterygii				Vertebrata	Gnathostomata		Eukaryota	Paracanthopterygii	V3164-02
 	cruise	Ceriantharia sp. 1	542.18	3164	01:06:15:29	 	36.77605	-122.19493	2448206	0.4	35:38.0	Ventana	34.296	01:06:20:10	5.476	Anthozoa					Animalia	Ceriantharia	Cnidaria		Ceriantipatharia							Eukaryota		V3164-02
 	cruise	mud	585.15	3164	00:30:35:24	 	36.770477	-122.19372	2447853	0.4	59:01.0	Ventana	34.301	00:30:37:01	5.421																			V3164-01
 	cruise	Careproctus melanurus	527.4	3164	01:19:27:05	 	36.778393	-122.19503	20023736	0.41	48:50.0	Ventana	34.289	01:19:32:03	5.526	Osteichthyes	Liparidae	Careproctus	Neopterygii		Animalia	Scorpaeniformes	Chordata	Careproctus melanurus	Actinopterygii				Vertebrata	Gnathostomata		Eukaryota	Acanthopterygii	V3164-02
 	transect	Rathbunaster californicus	430.65	3164	02:47:25:26	 	36.8002	-122.18652	2453734	0.77	17:56.0	Ventana	34.205	02:47:29:20	6.317		Labidiasteridae	Rathbunaster			Animalia	Forcipulatida	Echinodermata	Rathbunaster californicus	Asteroidea							Eukaryota		V3164-03
 	transect	Actiniaria sp. 3	433.06	3164	02:55:21:26	 	36.79973	-122.18626	2454530	0.77	25:52.0	Ventana	34.203	02:55:26:10	6.323	Anthozoa					Animalia	Actiniaria	Cnidaria		Hexacorallia							Eukaryota		V3164-03
 	cruise	Merluccius productus	447.69	3164	02:26:06:20	 	36.79637	-122.18917	2452061	0.75	56:35.0	Ventana	34.209	02:26:09:23	6.292	Osteichthyes	Merlucciidae	Merluccius	Neopterygii		Animalia	Gadiformes	Chordata	Merluccius productus	Actinopterygii				Vertebrata	Gnathostomata		Eukaryota	Paracanthopterygii	V3164-03
 	cruise	Stomphia	359.26	3164	04:06:38:20	 	36.816025	-122.17259	2458325	0.91	38:04.0	Ventana	34.188	04:06:47:20	6.603	Anthozoa	Actinostolidae	Stomphia			Animalia	Actiniaria	Cnidaria		Hexacorallia			Nyantheae				Eukaryota		V3164-04
 	transect	Porifera	431.11	3164	02:46:59:27	 	36.80012	-122.1866	2453704	0.77	17:29.0	Ventana	34.204	02:47:03:03	6.318						Animalia		Porifera									Eukaryota		V3164-03
 	transect	Parmaturus xaniurus	434.01	3164	02:44:43:01	 	36.79975	-122.186905	2453501	0.77	15:13.0	Ventana	34.205	02:44:47:00	6.316	Chondrichthyes	Scyliorhinidae	Parmaturus			Animalia	Carcharhiniformes	Chordata	Parmaturus xaniurus	Elasmobranchii				Vertebrata			Eukaryota	Galeomorphi	V3164-03
 	cruise	Asteroidea	427.2	3164	03:06:42:22	 	36.80156	-122.185455	2455884	0.75	37:13.0	Ventana	34.208	03:06:46:17	6.287						Animalia		Echinodermata		Asteroidea							Eukaryota		V3164-03
 	transect	Henricia aspera	434.81	3164	02:43:45:03	 	36.79958	-122.186966	2453471	0.77	14:14.0	Ventana	34.205	02:43:49:28	6.318		Echinasteridae	Henricia			Animalia	Spinulosida	Echinodermata	Henricia aspera	Asteroidea			Leptognathina				Eukaryota		V3164-03
 	cruise	Microstomus pacificus	412.3	3164	03:28:01:01	 	36.80679	-122.18058	2456708	0.74	59:24.0	Ventana	34.209	03:28:09:20	6.279	Osteichthyes	Pleuronectidae	Microstomus	Neopterygii		Animalia	Pleuronectiformes	Chordata	Microstomus pacificus	Actinopterygii				Vertebrata	Gnathostomata		Eukaryota	Acanthopterygii	V3164-04
 	transect	Rathbunaster californicus	433.84	3164	02:56:33:25	 	36.799576	-122.18651	2454560	0.77	27:04.0	Ventana	34.205	02:56:37:23	6.318		Labidiasteridae	Rathbunaster			Animalia	Forcipulatida	Echinodermata	Rathbunaster californicus	Asteroidea							Eukaryota		V3164-03
 	cruise	Sebastolobus	423.97	3164	03:12:15:15	http://search.mbari.org/ARCHIVE/frameGrabs/Ventana/images/3164/03_12_22_27.jpg	36.803272	-122.18392	2456528	0.72	43:37.0	Ventana	34.215	03:12:22:27	6.245	Osteichthyes	Scorpaenidae	Sebastolobus	Neopterygii		Animalia	Scorpaeniformes	Chordata		Actinopterygii			Scorpaenoidei	Vertebrata	Gnathostomata		Eukaryota	Acanthopterygii	V3164-04
 	cruise	Sebastes	366.2	3164	03:58:52:19	 	36.81398	-122.17351	2458235	0.92	30:18.0	Ventana	34.186	03:59:01:10	6.61	Osteichthyes	Scorpaenidae	Sebastes	Neopterygii		Animalia	Scorpaeniformes	Chordata		Actinopterygii			Scorpaenoidei	Vertebrata	Gnathostomata		Eukaryota	Acanthopterygii	V3164-04
 	cruise	Microstomus pacificus	467.94	3164	02:05:14:11	 	36.79013	-122.19248	2450797	0.73	34:40.0	Ventana	34.212	02:05:18:14	6.261	Osteichthyes	Pleuronectidae	Microstomus	Neopterygii		Animalia	Pleuronectiformes	Chordata	Microstomus pacificus	Actinopterygii				Vertebrata	Gnathostomata		Eukaryota	Acanthopterygii	V3164-02
 	cruise	Parmaturus xaniurus	519.7	3164	01:25:16:24	 	36.77967	-122.19486	2448386	0.44	54:40.0	Ventana	34.279	01:25:20:27	5.595	Chondrichthyes	Scyliorhinidae	Parmaturus			Animalia	Carcharhiniformes	Chordata	Parmaturus xaniurus	Elasmobranchii				Vertebrata			Eukaryota	Galeomorphi	V3164-02
 	cruise	Sebastolobus	385.84	3164	03:40:18:08	 	36.809456	-122.177635	2457121	0.9	11:42.0	Ventana	34.186	03:40:26:29	6.609	Osteichthyes	Scorpaenidae	Sebastolobus	Neopterygii		Animalia	Scorpaeniformes	Chordata		Actinopterygii			Scorpaenoidei	Vertebrata	Gnathostomata		Eukaryota	Acanthopterygii	V3164-04
 	cruise	Halipteris californica	560.67	3164	00:55:46:07	 	36.77343	-122.19451	2447996	0.39	24:13.0	Ventana	34.301	00:55:48:03	5.446	Anthozoa	Halipteridae	Halipteris			Animalia	Pennatulacea	Cnidaria	Halipteris californica	Octocorallia			Subselliflorae				Eukaryota		V3164-01
 	transect	Stomphia	429.36	3164	02:48:27:24	 	36.800365	-122.18641	2454237	0.77	18:58.0	Ventana	34.205	02:48:32:12	6.313	Anthozoa	Actinostolidae	Stomphia			Animalia	Actiniaria	Cnidaria		Hexacorallia			Nyantheae				Eukaryota		V3164-03
 	cruise	Stomphia	397.46	3164	03:33:32:20	 	36.808052	-122.17922	2456761	0.82	04:56.0	Ventana	34.2	03:33:39:24	6.432	Anthozoa	Actinostolidae	Stomphia			Animalia	Actiniaria	Cnidaria		Hexacorallia			Nyantheae				Eukaryota		V3164-04
 	transect	Allocentrotus fragilis	435.42	3164	02:58:14:06	 	36.799427	-122.18659	2454613	0.76	28:45.0	Ventana	34.205	02:58:18:00	6.316	Echinoidea	Strongylocentrotidae	Allocentrotus			Animalia	Echinoida	Echinodermata	Allocentrotus fragilis	Euechinoidea			Echinacea				Eukaryota		V3164-03
 	cruise	Merluccius productus	476.34	3164	01:58:42:23	 	36.78811	-122.19318	2450737	0.51	28:08.0	Ventana	34.258	01:58:46:07	5.771	Osteichthyes	Merlucciidae	Merluccius	Neopterygii		Animalia	Gadiformes	Chordata	Merluccius productus	Actinopterygii				Vertebrata	Gnathostomata		Eukaryota	Paracanthopterygii	V3164-02
 	cruise	Chionoecetes tanneri	450.18	3164	02:19:37:02	 	36.79437	-122.19032	2451240	0.75	50:05.0	Ventana	34.209	02:19:41:29	6.289	Malacostraca	Majidae	Chionoecetes		Brachyura	Animalia	Decapoda	Arthropoda	Chionoecetes tanneri	Eumalacostraca						Majoidea	Eukaryota	Eucarida	V3164-03
 	cruise	Sebastes	422.1	3164	03:19:25:01	 	36.80485	-122.18238	2456648	0.72	50:48.0	Ventana	34.214	03:19:33:25	6.233	Osteichthyes	Scorpaenidae	Sebastes	Neopterygii		Animalia	Scorpaeniformes	Chordata		Actinopterygii			Scorpaenoidei	Vertebrata	Gnathostomata		Eukaryota	Acanthopterygii	V3164-04
 	cruise	Sebastolobus	447.79	3164	02:26:04:21	 	36.79636	-122.18918	2452038	0.75	56:33.0	Ventana	34.209	02:26:08:10	6.292	Osteichthyes	Scorpaenidae	Sebastolobus	Neopterygii		Animalia	Scorpaeniformes	Chordata		Actinopterygii			Scorpaenoidei	Vertebrata	Gnathostomata		Eukaryota	Acanthopterygii	V3164-03
 	cruise	Hippasteria	448.71	3164	02:21:31:14	 	36.794914	-122.18999	2451270	0.75	52:00.0	Ventana	34.209	02:21:35:13	6.289		Goniasteridae	Hippasteria			Animalia	Valvatida	Echinodermata		Asteroidea			Granulosina				Eukaryota		V3164-03
 	cruise	Parmaturus xaniurus	511.85	3164	01:30:02:01	 	36.780968	-122.19475	2448416	0.46	59:26.0	Ventana	34.274	01:30:07:01	5.637	Chondrichthyes	Scyliorhinidae	Parmaturus			Animalia	Carcharhiniformes	Chordata	Parmaturus xaniurus	Elasmobranchii				Vertebrata			Eukaryota	Galeomorphi	V3164-02
 	cruise	Merluccius productus	360.81	3164	04:04:12:09	 	36.81538	-122.17284	2458295	0.91	35:37.0	Ventana	34.187	04:04:19:21	6.606	Osteichthyes	Merlucciidae	Merluccius	Neopterygii		Animalia	Gadiformes	Chordata	Merluccius productus	Actinopterygii				Vertebrata	Gnathostomata		Eukaryota	Paracanthopterygii	V3164-04
 	cruise	Stylasterias forreri	389.75	3164	03:36:59:14	 	36.808838	-122.17828	2456791	0.87	08:23.0	Ventana	34.192	03:37:08:23	6.546		Asteriidae	Stylasterias			Animalia	Forcipulatida	Echinodermata	Stylasterias forreri	Asteroidea							Eukaryota		V3164-04
 	cruise	Stylasterias forreri	353.31	3164	04:14:05:20	 	36.818108	-122.172	2458971	0.89	45:59.0	Ventana	34.19	04:14:15:18	6.572		Asteriidae	Stylasterias			Animalia	Forcipulatida	Echinodermata	Stylasterias forreri	Asteroidea							Eukaryota		V3164-05
 	transect	Rathbunaster californicus	429.99	3164	02:47:51:25	 	36.800274	-122.18646	2453764	0.77	18:22.0	Ventana	34.204	02:47:55:23	6.316		Labidiasteridae	Rathbunaster			Animalia	Forcipulatida	Echinodermata	Rathbunaster californicus	Asteroidea							Eukaryota		V3164-03
 	cruise	Halipteris californica	544.34	3164	01:04:15:18	 	36.7757	-122.19491	2448183	0.39	33:38.0	Ventana	34.297	01:04:20:08	5.474	Anthozoa	Halipteridae	Halipteris			Animalia	Pennatulacea	Cnidaria	Halipteris californica	Octocorallia			Subselliflorae				Eukaryota		V3164-02
 	cruise	cable	353.81	3164	04:11:03:26	http://search.mbari.org/ARCHIVE/frameGrabs/Ventana/images/3164/04_11_12_27.jpg	36.817238	-122.17228	2458362	0.9	42:30.0	Ventana	34.188	04:11:12:27	6.587																			V3164-04
 	transect	Mediaster tenellus	431.9	3164	02:53:51:15	 	36.799923	-122.18604	2454463	0.76	24:21.0	Ventana	34.204	02:53:55:27	6.315		Goniasteridae	Mediaster			Animalia	Valvatida	Echinodermata	Mediaster tenellus	Asteroidea			Granulosina				Eukaryota		V3164-03
 	transect	Rathbunaster californicus	435.25	3164	02:43:10:19	 	36.799503	-122.187	2453448	0.76	13:40.0	Ventana	34.205	02:43:15:26	6.317		Labidiasteridae	Rathbunaster			Animalia	Forcipulatida	Echinodermata	Rathbunaster californicus	Asteroidea							Eukaryota		V3164-03
 	cruise	Microstomus pacificus	459.53	3164	02:11:13:03	 	36.792038	-122.19156	2451007	0.74	41:40.0	Ventana	34.211	02:11:17:22	6.276	Osteichthyes	Pleuronectidae	Microstomus	Neopterygii		Animalia	Pleuronectiformes	Chordata	Microstomus pacificus	Actinopterygii				Vertebrata	Gnathostomata		Eukaryota	Acanthopterygii	V3164-03
 	transect	Sebastolobus	435.54	3164	02:42:20:20	http://search.mbari.org/ARCHIVE/frameGrabs/Ventana/images/3164/02_42_24_01.jpg	36.7994	-122.18704	2452421	0.76	12:50.0	Ventana	34.205	02:42:24:01	6.316	Osteichthyes	Scorpaenidae	Sebastolobus	Neopterygii		Animalia	Scorpaeniformes	Chordata		Actinopterygii			Scorpaenoidei	Vertebrata	Gnathostomata		Eukaryota	Acanthopterygii	V3164-03
 	cruise	Umbellula lindahli	584.6	3164	00:44:01:14	 	36.770683	-122.1942	2447890	0.38	12:27.0	Ventana	34.307	00:44:01:26	5.401	Anthozoa	Umbellulidae	Umbellula			Animalia	Pennatulacea	Cnidaria	Umbellula lindahli	Octocorallia			Sessiliflorae				Eukaryota		V3164-01
 	cruise	Merluccius productus	490.46	3164	01:46:28:00	 	36.784996	-122.19436	2450654	0.48	15:53.0	Ventana	34.265	01:46:32:15	5.708	Osteichthyes	Merlucciidae	Merluccius	Neopterygii		Animalia	Gadiformes	Chordata	Merluccius productus	Actinopterygii				Vertebrata	Gnathostomata		Eukaryota	Paracanthopterygii	V3164-02
 	transect	Henricia aspera	432.9	3164	02:55:15:27	 	36.79974	-122.18624	2454523	0.77	25:46.0	Ventana	34.203	02:55:19:04	6.323		Echinasteridae	Henricia			Animalia	Spinulosida	Echinodermata	Henricia aspera	Asteroidea			Leptognathina				Eukaryota		V3164-03
 	cruise	Hippasteria	538.72	3164	01:08:56:09	http://search.mbari.org/ARCHIVE/frameGrabs/Ventana/images/3164/01_08_59_22.jpg	36.7766	-122.19501	20023729	0.4	38:19.0	Ventana	34.295	01:08:59:22	5.482		Goniasteridae	Hippasteria			Animalia	Valvatida	Echinodermata		Asteroidea			Granulosina				Eukaryota		V3164-02
 	transect	Mediaster aequalis	434.6	3164	02:57:20:08	 	36.79951	-122.18654	2454583	0.77	27:51.0	Ventana	34.205	02:57:24:15	6.316		Goniasteridae	Mediaster			Animalia	Valvatida	Echinodermata	Mediaster aequalis	Asteroidea			Granulosina				Eukaryota		V3164-03
 	transect	Rathbunaster californicus	433.75	3164	02:44:55:01	 	36.799786	-122.18689	2453508	0.77	15:25.0	Ventana	34.204	02:44:59:05	6.317		Labidiasteridae	Rathbunaster			Animalia	Forcipulatida	Echinodermata	Rathbunaster californicus	Asteroidea							Eukaryota		V3164-03
 	launch	lasers	 	3164	 	http://search.mbari.org/ARCHIVE/frameGrabs/Ventana/images/3164/00_00_51_20.jpg	 	 	20023699	 	 	Ventana	 	00:00:51:20	 																			V3164-01
 	transect	Mediaster aequalis	433.67	3164	02:56:05:25	 	36.79965	-122.186386	2454553	0.77	26:36.0	Ventana	34.204	02:56:11:05	6.316		Goniasteridae	Mediaster			Animalia	Valvatida	Echinodermata	Mediaster aequalis	Asteroidea			Granulosina				Eukaryota		V3164-03
 	cruise	Hippasteria	425.68	3164	03:09:38:19	 	36.802647	-122.184555	2456505	0.71	41:01.0	Ventana	34.217	03:09:47:17	6.231		Goniasteridae	Hippasteria			Animalia	Valvatida	Echinodermata		Asteroidea			Granulosina				Eukaryota		V3164-04
 	cruise	Lycodes cortezianus	372.36	3164	03:53:51:13	 	36.81263	-122.1745	2458159	0.88	25:17.0	Ventana	34.191	03:54:00:17	6.538	Osteichthyes	Zoarcidae	Lycodes	Neopterygii		Animalia	Perciformes	Chordata	Lycodes cortezianus	Actinopterygii			Zoarcoidei	Vertebrata	Gnathostomata		Eukaryota	Acanthopterygii	V3164-04
 	cruise	Sebastes	418.01	3164	03:23:56:08	 	36.80606	-122.18135	2456685	0.73	55:19.0	Ventana	34.212	03:24:04:12	6.252	Osteichthyes	Scorpaenidae	Sebastes	Neopterygii		Animalia	Scorpaeniformes	Chordata		Actinopterygii			Scorpaenoidei	Vertebrata	Gnathostomata		Eukaryota	Acanthopterygii	V3164-04
 	transect	Mediaster tenellus	431.47	3164	02:53:05:01	 	36.80002	-122.18595	2454403	0.77	23:35.0	Ventana	34.204	02:53:09:16	6.313		Goniasteridae	Mediaster			Animalia	Valvatida	Echinodermata	Mediaster tenellus	Asteroidea			Granulosina				Eukaryota		V3164-03
 	transect	Psolus squamatus	434.73	3164	02:44:07:02	 	36.79965	-122.18694	2453478	0.77	14:37.0	Ventana	34.205	02:44:11:20	6.317	Holothuroidea	Psolidae	Psolus			Animalia	Dendrochirotida	Echinodermata	Psolus squamatus								Eukaryota		V3164-03
 	cruise	Lycodes cortezianus	353.44	3164	04:13:11:21	 	36.81785	-122.17208	2458964	0.9	45:04.0	Ventana	34.188	04:13:22:09	6.59	Osteichthyes	Zoarcidae	Lycodes	Neopterygii		Animalia	Perciformes	Chordata	Lycodes cortezianus	Actinopterygii			Zoarcoidei	Vertebrata	Gnathostomata		Eukaryota	Acanthopterygii	V3164-05
 	cruise	Hippasteria	363.98	3164	04:00:09:02	 	36.81434	-122.173325	2458242	0.93	31:34.0	Ventana	34.186	04:00:18:04	6.635		Goniasteridae	Hippasteria			Animalia	Valvatida	Echinodermata		Asteroidea			Granulosina				Eukaryota		V3164-04
 	cruise	Chionoecetes tanneri	524.86	3164	01:21:13:17	 	36.77879	-122.19495	2448349	0.41	50:37.0	Ventana	34.285	01:21:18:04	5.54	Malacostraca	Majidae	Chionoecetes		Brachyura	Animalia	Decapoda	Arthropoda	Chionoecetes tanneri	Eumalacostraca						Majoidea	Eukaryota	Eucarida	V3164-02
 	transect	Sebastolobus	432.14	3164	02:46:05:14	 	36.799973	-122.186745	2453598	0.77	16:35.0	Ventana	34.204	02:46:10:25	6.316	Osteichthyes	Scorpaenidae	Sebastolobus	Neopterygii		Animalia	Scorpaeniformes	Chordata		Actinopterygii			Scorpaenoidei	Vertebrata	Gnathostomata		Eukaryota	Acanthopterygii	V3164-03
 	cruise	Liponema brevicornis	503.5	3164	01:35:57:20	 	36.782417	-122.19469	2448439	0.47	05:21.0	Ventana	34.27	01:36:02:12	5.668	Anthozoa	Liponematidae	Liponema			Animalia	Actiniaria	Cnidaria	Liponema brevicornis	Hexacorallia			Nyantheae				Eukaryota		V3164-02
 	cruise	Actiniaria sp. 3	422.87	3164	03:17:46:20	 	36.80448	-122.18277	2456625	0.72	49:09.0	Ventana	34.214	03:17:54:25	6.234	Anthozoa					Animalia	Actiniaria	Cnidaria		Hexacorallia							Eukaryota		V3164-04
 	cruise	Stylasterias forreri	380.63	3164	03:43:51:01	 	36.810303	-122.17674	2457723	0.99	15:16.0	Ventana	34.176	03:43:58:29	6.753		Asteriidae	Stylasterias			Animalia	Forcipulatida	Echinodermata	Stylasterias forreri	Asteroidea							Eukaryota		V3164-04
 	cruise	Parmaturus xaniurus	487.21	3164	01:49:42:24	 	36.785763	-122.1941	2450684	0.49	19:08.0	Ventana	34.262	01:49:48:04	5.723	Chondrichthyes	Scyliorhinidae	Parmaturus			Animalia	Carcharhiniformes	Chordata	Parmaturus xaniurus	Elasmobranchii				Vertebrata			Eukaryota	Galeomorphi	V3164-02
 	cruise	Parastichopus leukothele	392.48	3164	03:35:41:01	 	36.80856	-122.17862	2456768	0.88	07:05.0	Ventana	34.189	03:35:49:29	6.553	Holothuroidea	Stichopodidae	Parastichopus			Animalia	Aspidochirotida	Echinodermata	Parastichopus leukothele	Aspidochirotacea							Eukaryota		V3164-04
 	cruise	cable	374.4	3164	03:51:13:03	http://search.mbari.org/ARCHIVE/frameGrabs/Ventana/images/3164/03_51_21_24.jpg	36.81193	-122.17509	2458069	0.87	22:38.0	Ventana	34.192	03:51:21:24	6.531																			V3164-04
 	cruise	Ceriantharia sp. 1	587.37	3164	00:39:02:09	 	36.770393	-122.194374	2447860	0.37	07:28.0	Ventana	34.31	00:39:02:16	5.362	Anthozoa					Animalia	Ceriantharia	Cnidaria		Ceriantipatharia							Eukaryota		V3164-01
 	cruise	Hippasteria	480.59	3164	01:55:00:00	 	36.787167	-122.19363	2450714	0.52	24:25.0	Ventana	34.255	01:55:03:16	5.796		Goniasteridae	Hippasteria			Animalia	Valvatida	Echinodermata		Asteroidea			Granulosina				Eukaryota		V3164-02
 	cruise	Merluccius productus	515.76	3164	01:27:25:05	 	36.780308	-122.19482	2448409	0.44	56:49.0	Ventana	34.277	01:27:28:26	5.613	Osteichthyes	Merlucciidae	Merluccius	Neopterygii		Animalia	Gadiformes	Chordata	Merluccius productus	Actinopterygii				Vertebrata	Gnathostomata		Eukaryota	Paracanthopterygii	V3164-02
 	cruise	Actiniaria sp. 3	424.75	3164	03:10:24:18	 	36.802864	-122.18436	2456512	0.71	41:47.0	Ventana	34.214	03:10:32:24	6.246	Anthozoa					Animalia	Actiniaria	Cnidaria		Hexacorallia							Eukaryota		V3164-04
 	cruise	Microstomus pacificus	361.14	3164	04:03:43:25	 	36.815243	-122.17289	2458277	0.91	35:09.0	Ventana	34.188	04:03:52:08	6.608	Osteichthyes	Pleuronectidae	Microstomus	Neopterygii		Animalia	Pleuronectiformes	Chordata	Microstomus pacificus	Actinopterygii				Vertebrata	Gnathostomata		Eukaryota	Acanthopterygii	V3164-04
 	cruise	Sebastes diploproa	353.33	3164	04:11:41:10	 	36.817474	-122.17222	2458953	0.9	43:34.0	Ventana	34.187	04:11:51:10	6.589	Osteichthyes	Scorpaenidae	Sebastes	Neopterygii		Animalia	Scorpaeniformes	Chordata	Sebastes diploproa	Actinopterygii			Scorpaenoidei	Vertebrata	Gnathostomata		Eukaryota	Acanthopterygii	V3164-05
 	cruise	Microstomus pacificus	562.63	3164	00:54:37:24	 	36.773148	-122.19452	2447991	0.39	23:04.0	Ventana	34.299	00:54:39:13	5.453	Osteichthyes	Pleuronectidae	Microstomus	Neopterygii		Animalia	Pleuronectiformes	Chordata	Microstomus pacificus	Actinopterygii				Vertebrata	Gnathostomata		Eukaryota	Acanthopterygii	V3164-01
 	transect	Sebastolobus	432.57	3164	02:45:43:14	http://search.mbari.org/ARCHIVE/frameGrabs/Ventana/images/3164/02_45_47_24.jpg	36.799915	-122.1868	2453549	0.77	16:13.0	Ventana	34.204	02:45:47:24	6.318	Osteichthyes	Scorpaenidae	Sebastolobus	Neopterygii		Animalia	Scorpaeniformes	Chordata		Actinopterygii			Scorpaenoidei	Vertebrata	Gnathostomata		Eukaryota	Acanthopterygii	V3164-03
 	cruise	Liponema brevicornis	447.75	3164	02:22:41:27	 	36.79527	-122.18979	2451307	0.74	53:10.0	Ventana	34.21	02:22:46:13	6.284	Anthozoa	Liponematidae	Liponema			Animalia	Actiniaria	Cnidaria	Liponema brevicornis	Hexacorallia			Nyantheae				Eukaryota		V3164-03
 	cruise	Liponema brevicornis	351.96	3164	04:15:38:02	 	36.818634	-122.171875	2458983	0.89	47:31.0	Ventana	34.19	04:15:47:26	6.571	Anthozoa	Liponematidae	Liponema			Animalia	Actiniaria	Cnidaria	Liponema brevicornis	Hexacorallia			Nyantheae				Eukaryota		V3164-05
 	transect	Porifera	435.22	3164	02:58:02:07	 	36.79944	-122.18658	2454608	0.77	28:33.0	Ventana	34.204	02:58:06:05	6.316						Animalia		Porifera									Eukaryota		V3164-03
 	transect	Rathbunaster californicus	429.67	3164	02:48:11:25	 	36.800323	-122.18643	2454225	0.77	18:42.0	Ventana	34.205	02:48:16:21	6.314		Labidiasteridae	Rathbunaster			Animalia	Forcipulatida	Echinodermata	Rathbunaster californicus	Asteroidea							Eukaryota		V3164-03
 	transect	Rathbunaster californicus	434.27	3164	02:57:10:08	 	36.799534	-122.18652	2454578	0.77	27:40.0	Ventana	34.205	02:57:14:20	6.316		Labidiasteridae	Rathbunaster			Animalia	Forcipulatida	Echinodermata	Rathbunaster californicus	Asteroidea							Eukaryota		V3164-03
 	cruise	Sebastes diploproa	363.02	3164	04:01:13:15	 	36.81462	-122.17317	2458247	0.91	32:38.0	Ventana	34.187	04:01:22:19	6.609	Osteichthyes	Scorpaenidae	Sebastes	Neopterygii		Animalia	Scorpaeniformes	Chordata	Sebastes diploproa	Actinopterygii			Scorpaenoidei	Vertebrata	Gnathostomata		Eukaryota	Acanthopterygii	V3164-04
 	cruise	Merluccius productus	537.94	3164	01:09:24:23	 	36.776688	-122.19501	2448224	0.4	38:47.0	Ventana	34.295	01:09:28:27	5.485	Osteichthyes	Merlucciidae	Merluccius	Neopterygii		Animalia	Gadiformes	Chordata	Merluccius productus	Actinopterygii				Vertebrata	Gnathostomata		Eukaryota	Paracanthopterygii	V3164-02
 	cruise	Ceriantharia sp. 1	587.37	3164	00:42:47:01	 	36.770428	-122.19412	2447871	0.37	11:13.0	Ventana	34.311	00:42:48:23	5.366	Anthozoa					Animalia	Ceriantharia	Cnidaria		Ceriantipatharia							Eukaryota		V3164-01
 	cruise	trench	549.94	3164	01:02:05:26	http://search.mbari.org/ARCHIVE/frameGrabs/Ventana/images/3164/01_02_07_01.jpg	36.774914	-122.19478	2448021	0.39	30:33.0	Ventana	34.298	01:02:07:01	5.461																			V3164-01
 	transect	Rathbunaster californicus	435.49	3164	02:42:10:21	 	36.79939	-122.18705	2452396	0.76	12:40.0	Ventana	34.205	02:42:13:28	6.316		Labidiasteridae	Rathbunaster			Animalia	Forcipulatida	Echinodermata	Rathbunaster californicus	Asteroidea							Eukaryota		V3164-03
 	transect	Porifera	430.88	3164	02:47:19:27	 	36.800182	-122.18654	2453729	0.77	17:49.0	Ventana	34.205	02:47:24:20	6.318						Animalia		Porifera									Eukaryota		V3164-03
 	cruise	Sebastes	474.18	3164	01:59:51:06	 	36.788525	-122.193016	2450751	0.52	29:17.0	Ventana	34.255	01:59:55:26	5.811	Osteichthyes	Scorpaenidae	Sebastes	Neopterygii		Animalia	Scorpaeniformes	Chordata		Actinopterygii			Scorpaenoidei	Vertebrata	Gnathostomata		Eukaryota	Acanthopterygii	V3164-02
 	cruise	Hippasteria	381.42	3164	03:43:14:17	 	36.810184	-122.17688	2457714	0.99	14:39.0	Ventana	34.178	03:43:23:27	6.747		Goniasteridae	Hippasteria			Animalia	Valvatida	Echinodermata		Asteroidea			Granulosina				Eukaryota		V3164-04
 	transect	Mediaster aequalis	431.16	3164	02:46:51:12	 	36.8001	-122.18662	2453699	0.77	17:21.0	Ventana	34.204	02:46:56:04	6.319		Goniasteridae	Mediaster			Animalia	Valvatida	Echinodermata	Mediaster aequalis	Asteroidea			Granulosina				Eukaryota		V3164-03
 	transect	Parmaturus xaniurus	432.33	3164	02:54:19:14	 	36.79986	-122.186104	2454488	0.77	24:50.0	Ventana	34.204	02:54:23:00	6.316	Chondrichthyes	Scyliorhinidae	Parmaturus			Animalia	Carcharhiniformes	Chordata	Parmaturus xaniurus	Elasmobranchii				Vertebrata			Eukaryota	Galeomorphi	V3164-03
 	cruise	Hippasteria	400.69	3164	03:31:58:08	 	36.80766	-122.179634	2456745	0.78	03:21.0	Ventana	34.204	03:32:07:03	6.354		Goniasteridae	Hippasteria			Animalia	Valvatida	Echinodermata		Asteroidea			Granulosina				Eukaryota		V3164-04
 	transect	Rathbunaster californicus	431.47	3164	02:53:05:01	 	36.80002	-122.18595	2454405	0.77	23:35.0	Ventana	34.204	02:53:09:16	6.313		Labidiasteridae	Rathbunaster			Animalia	Forcipulatida	Echinodermata	Rathbunaster californicus	Asteroidea							Eukaryota		V3164-03
 	cruise	Hippasteria	545.36	3164	01:03:33:04	 	36.77555	-122.194885	2448164	0.39	32:55.0	Ventana	34.296	01:03:37:19	5.475		Goniasteridae	Hippasteria			Animalia	Valvatida	Echinodermata		Asteroidea			Granulosina				Eukaryota		V3164-02
 	transect	Stomphia	432.65	3164	02:55:01:12	 	36.79977	-122.1862	2454518	0.77	25:32.0	Ventana	34.203	02:55:06:10	6.324	Anthozoa	Actinostolidae	Stomphia			Animalia	Actiniaria	Cnidaria		Hexacorallia			Nyantheae				Eukaryota		V3164-03
 	transect	Rathbunaster californicus	434.96	3164	02:43:39:03	 	36.799564	-122.18697	2453466	0.77	14:08.0	Ventana	34.205	02:43:42:12	6.318		Labidiasteridae	Rathbunaster			Animalia	Forcipulatida	Echinodermata	Rathbunaster californicus	Asteroidea							Eukaryota		V3164-03
 	cruise	Merluccius productus	504.71	3164	01:35:09:06	 	36.78223	-122.19469	2448434	0.46	04:33.0	Ventana	34.273	01:35:13:17	5.647	Osteichthyes	Merlucciidae	Merluccius	Neopterygii		Animalia	Gadiformes	Chordata	Merluccius productus	Actinopterygii				Vertebrata	Gnathostomata		Eukaryota	Paracanthopterygii	V3164-02
 	cruise	physical object	453.91	3164	02:16:04:09	http://search.mbari.org/ARCHIVE/frameGrabs/Ventana/images/3164/02_16_08_17.jpg	36.793392	-122.190895	2451037	0.75	46:32.0	Ventana	34.208	02:16:08:17	6.302																			V3164-03
 	cruise	Sebastes	384.07	3164	03:41:52:20	 	36.809868	-122.177216	2457135	0.94	13:17.0	Ventana	34.184	03:42:00:16	6.671	Osteichthyes	Scorpaenidae	Sebastes	Neopterygii		Animalia	Scorpaeniformes	Chordata		Actinopterygii			Scorpaenoidei	Vertebrata	Gnathostomata		Eukaryota	Acanthopterygii	V3164-04
 	cruise	Benthopecten	388.78	3164	03:38:49:25	http://search.mbari.org/ARCHIVE/frameGrabs/Ventana/images/3164/03_38_58_16.jpg	36.809074	-122.178	2457105	0.91	10:14.0	Ventana	34.187	03:38:58:16	6.609		Benthopectinidae	Benthopecten			Animalia		Echinodermata									Eukaryota		V3164-04
 	cruise	Merluccius productus	479.31	3164	01:56:34:12	 	36.78749	-122.19352	2450721	0.52	26:00.0	Ventana	34.253	01:56:38:15	5.799	Osteichthyes	Merlucciidae	Merluccius	Neopterygii		Animalia	Gadiformes	Chordata	Merluccius productus	Actinopterygii				Vertebrata	Gnathostomata		Eukaryota	Paracanthopterygii	V3164-02
 	cruise	Sebastes diploproa	369.7	3164	03:56:32:08	 	36.81331	-122.17397	2458217	0.9	27:58.0	Ventana	34.189	03:56:40:08	6.58	Osteichthyes	Scorpaenidae	Sebastes	Neopterygii		Animalia	Scorpaeniformes	Chordata	Sebastes diploproa	Actinopterygii			Scorpaenoidei	Vertebrata	Gnathostomata		Eukaryota	Acanthopterygii	V3164-04
 	cruise	Parmaturus xaniurus	464.63	3164	02:06:55:26	 	36.790882	-122.19217	2450894	0.71	37:23.0	Ventana	34.216	02:06:59:23	6.206	Chondrichthyes	Scyliorhinidae	Parmaturus			Animalia	Carcharhiniformes	Chordata	Parmaturus xaniurus	Elasmobranchii				Vertebrata			Eukaryota	Galeomorphi	V3164-03
 	transect	Rathbunaster californicus	433.45	3164	02:55:41:26	 	36.799686	-122.18632	2454548	0.77	26:12.0	Ventana	34.202	02:55:47:06	6.322		Labidiasteridae	Rathbunaster			Animalia	Forcipulatida	Echinodermata	Rathbunaster californicus	Asteroidea							Eukaryota		V3164-03
 	cruise	Parmaturus xaniurus	583.62	3164	00:44:31:13	 	36.770805	-122.194244	2447931	0.38	12:57.0	Ventana	34.307	00:44:32:06	5.391	Chondrichthyes	Scyliorhinidae	Parmaturus			Animalia	Carcharhiniformes	Chordata	Parmaturus xaniurus	Elasmobranchii				Vertebrata			Eukaryota	Galeomorphi	V3164-01
 	transect	Rathbunaster californicus	429.04	3164	02:48:50:09	 	36.80041	-122.186386	2454278	0.77	19:20.0	Ventana	34.205	02:48:53:28	6.312		Labidiasteridae	Rathbunaster			Animalia	Forcipulatida	Echinodermata	Rathbunaster californicus	Asteroidea							Eukaryota		V3164-03
 	cruise	Sebastes	353.18	3164	04:14:42:04	http://search.mbari.org/ARCHIVE/frameGrabs/Ventana/images/3164/04_14_53_27.jpg	36.818314	-122.17195	2458976	0.9	46:35.0	Ventana	34.189	04:14:53:27	6.577	Osteichthyes	Scorpaenidae	Sebastes	Neopterygii		Animalia	Scorpaeniformes	Chordata		Actinopterygii			Scorpaenoidei	Vertebrata	Gnathostomata		Eukaryota	Acanthopterygii	V3164-05
 	cruise	cable	424.28	3164	03:10:59:02	http://search.mbari.org/ARCHIVE/frameGrabs/Ventana/images/3164/03_11_07_14.jpg	36.802986	-122.18422	2456519	0.72	42:21.0	Ventana	34.215	03:11:07:14	6.248																			V3164-04
 	cruise	Lycodes cortezianus	523.22	3164	01:22:00:00	 	36.77903	-122.194916	2448367	0.42	51:23.0	Ventana	34.284	01:22:03:03	5.551	Osteichthyes	Zoarcidae	Lycodes	Neopterygii		Animalia	Perciformes	Chordata	Lycodes cortezianus	Actinopterygii			Zoarcoidei	Vertebrata	Gnathostomata		Eukaryota	Acanthopterygii	V3164-02
 	cruise	Rathbunaster californicus	363.12	3164	04:01:25:14	http://search.mbari.org/ARCHIVE/frameGrabs/Ventana/images/3164/04_01_33_15.jpg	36.81466	-122.17315	2458254	0.91	32:51.0	Ventana	34.187	04:01:33:15	6.609		Labidiasteridae	Rathbunaster			Animalia	Forcipulatida	Echinodermata	Rathbunaster californicus	Asteroidea							Eukaryota		V3164-04
 	transect	Rathbunaster californicus	434.16	3164	02:44:33:02	 	36.799725	-122.18692	2453496	0.77	15:03.0	Ventana	34.205	02:44:37:20	6.317		Labidiasteridae	Rathbunaster			Animalia	Forcipulatida	Echinodermata	Rathbunaster californicus	Asteroidea							Eukaryota		V3164-03
 	transect	Mediaster tenellus	432.1	3164	02:46:07:14	 	36.799976	-122.186745	2453586	0.77	16:37.0	Ventana	34.204	02:46:11:07	6.316		Goniasteridae	Mediaster			Animalia	Valvatida	Echinodermata	Mediaster tenellus	Asteroidea			Granulosina				Eukaryota		V3164-03
 	transect	Rathbunaster californicus	429.35	3164	02:48:29:25	 	36.80037	-122.18641	2454248	0.77	19:00.0	Ventana	34.205	02:48:34:16	6.313		Labidiasteridae	Rathbunaster			Animalia	Forcipulatida	Echinodermata	Rathbunaster californicus	Asteroidea							Eukaryota		V3164-03
 	cruise	Anthoptilum grandiflorum	463.7	3164	02:07:47:24	 	36.791107	-122.19205	2450901	0.67	38:15.0	Ventana	34.218	02:07:53:09	6.168	Anthozoa	Anthoptilidae	Anthoptilum			Animalia	Pennatulacea	Cnidaria	Anthoptilum grandiflorum	Octocorallia			Sessiliflorae				Eukaryota		V3164-03
 	cruise	Liponema brevicornis	507.97	3164	01:32:50:25	 	36.781647	-122.194725	2448427	0.46	02:14.0	Ventana	34.272	01:32:54:05	5.65	Anthozoa	Liponematidae	Liponema			Animalia	Actiniaria	Cnidaria	Liponema brevicornis	Hexacorallia			Nyantheae				Eukaryota		V3164-02
 	cruise	trench	559.44	3164	00:56:20:06	http://search.mbari.org/ARCHIVE/frameGrabs/Ventana/images/3164/00_56_21_07.jpg	36.773594	-122.19453	2447998	0.39	24:47.0	Ventana	34.302	00:56:21:07	5.443																			V3164-01
 	transect	Porifera	431.11	3164	02:46:59:27	 	36.80012	-122.1866	2453706	0.77	17:29.0	Ventana	34.204	02:47:04:05	6.318						Animalia		Porifera									Eukaryota		V3164-03
 	transect	Stomphia	432.24	3164	02:54:13:14	 	36.799873	-122.18609	2454481	0.77	24:44.0	Ventana	34.204	02:54:18:17	6.316	Anthozoa	Actinostolidae	Stomphia			Animalia	Actiniaria	Cnidaria		Hexacorallia			Nyantheae				Eukaryota		V3164-03
 	cruise	cable	373.94	3164	03:51:53:02	http://search.mbari.org/ARCHIVE/frameGrabs/Ventana/images/3164/03_52_00_16.jpg	36.8121	-122.17494	2458081	0.87	23:18.0	Ventana	34.193	03:52:00:16	6.527																			V3164-04
 	cruise	Hippasteria	389.04	3164	03:37:19:14	http://search.mbari.org/ARCHIVE/frameGrabs/Ventana/images/3164/03_37_27_14.jpg	36.80889	-122.178215	2457098	0.85	08:43.0	Ventana	34.197	03:37:27:14	6.466		Goniasteridae	Hippasteria			Animalia	Valvatida	Echinodermata		Asteroidea			Granulosina				Eukaryota		V3164-04
 	cruise	Stylasterias forreri	379.47	3164	03:45:13:14	 	36.81058	-122.176445	2457737	0.94	16:38.0	Ventana	34.184	03:45:21:22	6.653		Asteriidae	Stylasterias			Animalia	Forcipulatida	Echinodermata	Stylasterias forreri	Asteroidea							Eukaryota		V3164-04
 	transect	Benthopecten	435.58	3164	02:42:38:20	 	36.79943	-122.187035	2452456	0.76	13:08.0	Ventana	34.206	02:42:42:23	6.315		Benthopectinidae	Benthopecten			Animalia		Echinodermata									Eukaryota		V3164-03
 	transect	Psolus squamatus	430.06	3164	02:47:49:26	 	36.800266	-122.18647	2453759	0.77	18:20.0	Ventana	34.204	02:47:53:16	6.316	Holothuroidea	Psolidae	Psolus			Animalia	Dendrochirotida	Echinodermata	Psolus squamatus								Eukaryota		V3164-03
 	cruise	Microstomus pacificus	440.31	3164	02:30:43:27	 	36.797604	-122.18835	2452170	0.77	01:12.0	Ventana	34.204	02:30:48:06	6.331	Osteichthyes	Pleuronectidae	Microstomus	Neopterygii		Animalia	Pleuronectiformes	Chordata	Microstomus pacificus	Actinopterygii				Vertebrata	Gnathostomata		Eukaryota	Acanthopterygii	V3164-03
 	transect	Rathbunaster californicus	432.73	3164	02:54:43:13	 	36.79981	-122.186165	2454511	0.77	25:14.0	Ventana	34.205	02:54:47:05	6.319		Labidiasteridae	Rathbunaster			Animalia	Forcipulatida	Echinodermata	Rathbunaster californicus	Asteroidea							Eukaryota		V3164-03
 	cruise	Stylasterias forreri	376.79	3164	03:46:53:26	 	36.81102	-122.17601	2457788	0.93	18:18.0	Ventana	34.185	03:47:02:17	6.642		Asteriidae	Stylasterias			Animalia	Forcipulatida	Echinodermata	Stylasterias forreri	Asteroidea							Eukaryota		V3164-04
 	transect	Rathbunaster californicus	433.43	3164	02:55:35:26	 	36.799698	-122.186295	2454541	0.77	26:06.0	Ventana	34.203	02:55:39:25	6.321		Labidiasteridae	Rathbunaster			Animalia	Forcipulatida	Echinodermata	Rathbunaster californicus	Asteroidea							Eukaryota		V3164-03
 	cruise	Parmaturus xaniurus	384.85	3164	03:41:30:20	http://search.mbari.org/ARCHIVE/frameGrabs/Ventana/images/3164/03_41_38_18.jpg	36.809776	-122.17731	2457128	0.93	12:55.0	Ventana	34.183	03:41:38:18	6.655	Chondrichthyes	Scyliorhinidae	Parmaturus			Animalia	Carcharhiniformes	Chordata	Parmaturus xaniurus	Elasmobranchii				Vertebrata			Eukaryota	Galeomorphi	V3164-04
 	cruise	Microstomus pacificus	424.27	3164	03:15:52:08	 	36.804134	-122.18313	2456609	0.72	47:15.0	Ventana	34.214	03:16:00:20	6.231	Osteichthyes	Pleuronectidae	Microstomus	Neopterygii		Animalia	Pleuronectiformes	Chordata	Microstomus pacificus	Actinopterygii				Vertebrata	Gnathostomata		Eukaryota	Acanthopterygii	V3164-04
 	transect	Allocentrotus fragilis	434.09	3164	02:56:58:09	 	36.799553	-122.186516	2454571	0.77	27:28.0	Ventana	34.203	02:57:02:23	6.318	Echinoidea	Strongylocentrotidae	Allocentrotus			Animalia	Echinoida	Echinodermata	Allocentrotus fragilis	Euechinoidea			Echinacea				Eukaryota		V3164-03
 	cruise	Stomphia	489.14	3164	01:47:42:13	http://search.mbari.org/ARCHIVE/frameGrabs/Ventana/images/3164/01_47_46_03.jpg	36.785297	-122.19426	2450668	0.49	17:07.0	Ventana	34.266	01:47:46:03	5.712	Anthozoa	Actinostolidae	Stomphia			Animalia	Actiniaria	Cnidaria		Hexacorallia			Nyantheae				Eukaryota		V3164-02
 	cruise	Merluccius productus	453.5	3164	02:16:24:08	http://search.mbari.org/ARCHIVE/frameGrabs/Ventana/images/3164/02_16_29_02.jpg	36.793476	-122.19084	2451074	0.75	46:52.0	Ventana	34.208	02:16:29:02	6.301	Osteichthyes	Merlucciidae	Merluccius	Neopterygii		Animalia	Gadiformes	Chordata	Merluccius productus	Actinopterygii				Vertebrata	Gnathostomata		Eukaryota	Paracanthopterygii	V3164-03
 	cruise	Ceriantharia sp. 1	528.69	3164	01:15:36:12	 	36.778133	-122.194984	2448284	0.41	44:59.0	Ventana	34.289	01:15:41:02	5.523	Anthozoa					Animalia	Ceriantharia	Cnidaria		Ceriantipatharia							Eukaryota		V3164-02
 	cruise	Ceriantharia sp. 1	581.91	3164	00:45:11:12	 	36.77095	-122.1943	2447938	0.38	13:37.0	Ventana	34.306	00:45:12:06	5.402	Anthozoa					Animalia	Ceriantharia	Cnidaria		Ceriantipatharia							Eukaryota		V3164-01
 	cruise	Anoplopoma fimbria	579.82	3164	00:46:49:24	http://search.mbari.org/ARCHIVE/frameGrabs/Ventana/images/3164/00_46_51_00.jpg	36.77121	-122.19431	2447945	0.38	15:16.0	Ventana	34.305	00:46:51:00	5.41	Osteichthyes	Anoplopomatidae	Anoplopoma	Neopterygii		Animalia	Scorpaeniformes	Chordata	Anoplopoma fimbria	Actinopterygii			Anoplopomatoidei	Vertebrata	Gnathostomata		Eukaryota	Acanthopterygii	V3164-01
 	transect	Stomphia	433.9	3164	02:56:37:24	 	36.799576	-122.18651	2454562	0.77	27:08.0	Ventana	34.204	02:56:42:10	6.318	Anthozoa	Actinostolidae	Stomphia			Animalia	Actiniaria	Cnidaria		Hexacorallia			Nyantheae				Eukaryota		V3164-03
 	cruise	Stylasterias forreri	350.42	3164	04:17:04:15	 	36.819237	-122.17171	2458999	0.9	48:58.0	Ventana	34.189	04:17:16:04	6.576		Asteriidae	Stylasterias			Animalia	Forcipulatida	Echinodermata	Stylasterias forreri	Asteroidea							Eukaryota		V3164-05
 	transect	Rathbunaster californicus	433.99	3164	02:44:45:01	 	36.79976	-122.186905	2453503	0.77	15:15.0	Ventana	34.205	02:44:49:07	6.316		Labidiasteridae	Rathbunaster			Animalia	Forcipulatida	Echinodermata	Rathbunaster californicus	Asteroidea							Eukaryota		V3164-03
 	cruise	Chionoecetes tanneri	567.59	3164	00:51:39:15	 	36.772545	-122.19447	2447975	0.39	20:06.0	Ventana	34.302	00:51:39:12	5.434	Malacostraca	Majidae	Chionoecetes		Brachyura	Animalia	Decapoda	Arthropoda	Chionoecetes tanneri	Eumalacostraca						Majoidea	Eukaryota	Eucarida	V3164-01
 	transect	Rathbunaster californicus	432.15	3164	02:54:07:14	 	36.799885	-122.18607	2454472	0.77	24:38.0	Ventana	34.204	02:54:12:24	6.316		Labidiasteridae	Rathbunaster			Animalia	Forcipulatida	Echinodermata	Rathbunaster californicus	Asteroidea							Eukaryota		V3164-03
 	cruise	Sebastolobus	447.36	3164	02:23:55:24	 	36.795563	-122.18959	2451877	0.75	54:24.0	Ventana	34.21	02:23:59:15	6.29	Osteichthyes	Scorpaenidae	Sebastolobus	Neopterygii		Animalia	Scorpaeniformes	Chordata		Actinopterygii			Scorpaenoidei	Vertebrata	Gnathostomata		Eukaryota	Acanthopterygii	V3164-03
 	transect	Porifera	435.62	3164	02:58:30:20	 	36.79941	-122.186615	2454622	0.76	29:01.0	Ventana	34.205	02:58:35:05	6.316						Animalia		Porifera									Eukaryota		V3164-03
 	cruise	Parastichopus leukothele	378.02	3164	03:45:59:13	 	36.81078	-122.176254	2457758	0.96	17:24.0	Ventana	34.181	03:46:07:09	6.697	Holothuroidea	Stichopodidae	Parastichopus			Animalia	Aspidochirotida	Echinodermata	Parastichopus leukothele	Aspidochirotacea							Eukaryota		V3164-04
 	transect	Osmeridae	429.12	3164	02:48:39:24	 	36.80039	-122.1864	2454269	0.77	19:10.0	Ventana	34.205	02:48:45:05	6.312	Osteichthyes	Osmeridae		Neopterygii		Animalia	Osmeriformes	Chordata		Actinopterygii			Osmeroidei	Vertebrata	Gnathostomata		Eukaryota	Protacanthopterygii	V3164-03
 	transect	Psolus squamatus	434.76	3164	02:57:42:07	 	36.799473	-122.186554	2454592	0.77	28:13.0	Ventana	34.205	02:57:46:04	6.316	Holothuroidea	Psolidae	Psolus			Animalia	Dendrochirotida	Echinodermata	Psolus squamatus								Eukaryota		V3164-03
 	cruise	Sebastes diploproa	379.64	3164	03:44:25:00	 	36.810413	-122.17662	2457728	0.99	15:50.0	Ventana	34.18	03:44:33:10	6.762	Osteichthyes	Scorpaenidae	Sebastes	Neopterygii		Animalia	Scorpaeniformes	Chordata	Sebastes diploproa	Actinopterygii			Scorpaenoidei	Vertebrata	Gnathostomata		Eukaryota	Acanthopterygii	V3164-04
 	transect	Benthopecten	432.85	3164	02:45:31:15	 	36.79988	-122.18683	2453533	0.77	16:01.0	Ventana	34.204	02:45:35:13	6.318		Benthopectinidae	Benthopecten			Animalia		Echinodermata									Eukaryota		V3164-03
 	cruise	Chionoecetes tanneri	556.45	3164	00:57:52:18	 	36.77401	-122.1946	2448005	0.39	26:19.0	Ventana	34.302	00:57:53:20	5.445	Malacostraca	Majidae	Chionoecetes		Brachyura	Animalia	Decapoda	Arthropoda	Chionoecetes tanneri	Eumalacostraca						Majoidea	Eukaryota	Eucarida	V3164-01
 	cruise	Actiniaria sp. 3	419.4	3164	03:22:51:25	 	36.805782	-122.18162	2456669	0.73	54:15.0	Ventana	34.212	03:22:59:26	6.246	Anthozoa					Animalia	Actiniaria	Cnidaria		Hexacorallia							Eukaryota		V3164-04
 	cruise	Hippasteria	345.14	3164	04:19:41:09	 	36.819897	-122.17157	2459029	0.95	51:35.0	Ventana	34.184	04:19:51:15	6.672		Goniasteridae	Hippasteria			Animalia	Valvatida	Echinodermata		Asteroidea			Granulosina				Eukaryota		V3164-05
 	transect	Rathbunaster californicus	431.75	3164	02:46:21:14	 	36.800014	-122.18671	2453683	0.77	16:51.0	Ventana	34.204	02:46:26:25	6.316		Labidiasteridae	Rathbunaster			Animalia	Forcipulatida	Echinodermata	Rathbunaster californicus	Asteroidea							Eukaryota		V3164-03
 	cruise	Liponema brevicornis	502.05	3164	01:38:00:01	 	36.782715	-122.19471	2448448	0.48	07:24.0	Ventana	34.267	01:38:04:25	5.694	Anthozoa	Liponematidae	Liponema			Animalia	Actiniaria	Cnidaria	Liponema brevicornis	Hexacorallia			Nyantheae				Eukaryota		V3164-02
 	cruise	cable	421.86	3164	03:19:01:02	http://search.mbari.org/ARCHIVE/frameGrabs/Ventana/images/3164/03_19_09_09.jpg	36.80474	-122.18247	2456646	0.72	50:24.0	Ventana	34.214	03:19:09:09	6.234																			V3164-04
 	cruise	Merluccius productus	430.37	3164	02:51:48:18	 	36.800156	-122.18592	2454359	0.77	22:19.0	Ventana	34.204	02:51:52:23	6.318	Osteichthyes	Merlucciidae	Merluccius	Neopterygii		Animalia	Gadiformes	Chordata	Merluccius productus	Actinopterygii				Vertebrata	Gnathostomata		Eukaryota	Paracanthopterygii	V3164-03
 	cruise	Merluccius productus	476.94	3164	01:58:24:23	 	36.788002	-122.193245	2450735	0.51	27:50.0	Ventana	34.257	01:58:28:11	5.77	Osteichthyes	Merlucciidae	Merluccius	Neopterygii		Animalia	Gadiformes	Chordata	Merluccius productus	Actinopterygii				Vertebrata	Gnathostomata		Eukaryota	Paracanthopterygii	V3164-02
 	cruise	Liponema brevicornis	511.03	3164	01:30:36:00	 	36.78111	-122.19474	2448418	0.46	00:00.0	Ventana	34.27	01:30:39:19	5.656	Anthozoa	Liponematidae	Liponema			Animalia	Actiniaria	Cnidaria	Liponema brevicornis	Hexacorallia			Nyantheae				Eukaryota		V3164-02
 	transect	Henricia aspera	429.99	3164	02:47:51:25	 	36.800274	-122.18646	2453766	0.77	18:22.0	Ventana	34.204	02:47:55:23	6.316		Echinasteridae	Henricia			Animalia	Spinulosida	Echinodermata	Henricia aspera	Asteroidea			Leptognathina				Eukaryota		V3164-03
 	cruise	Stomphia	366.54	3164	03:58:36:19	 	36.81391	-122.17355	2458233	0.93	30:02.0	Ventana	34.187	03:58:44:18	6.622	Anthozoa	Actinostolidae	Stomphia			Animalia	Actiniaria	Cnidaria		Hexacorallia			Nyantheae				Eukaryota		V3164-04
 	cruise	cable	375.84	3164	03:48:54:07	http://search.mbari.org/ARCHIVE/frameGrabs/Ventana/images/3164/03_49_01_25.jpg	36.81144	-122.17557	2458030	0.89	20:19.0	Ventana	34.192	03:49:01:25	6.558																			V3164-04
 	cruise	cable	343.85	3164	04:20:31:08	http://search.mbari.org/ARCHIVE/frameGrabs/Ventana/images/3164/04_20_41_02.jpg	36.81998	-122.17162	20023798	0.94	52:25.0	Ventana	34.184	04:20:41:02	6.661																			V3164-05
 	transect	Rathbunaster californicus	433.29	3164	02:55:27:26	 	36.799713	-122.18628	2454532	0.77	25:58.0	Ventana	34.203	02:55:32:07	6.321		Labidiasteridae	Rathbunaster			Animalia	Forcipulatida	Echinodermata	Rathbunaster californicus	Asteroidea							Eukaryota		V3164-03
 	transect	Rathbunaster californicus	435.25	3164	02:43:16:19	 	36.799515	-122.18699	2453450	0.76	13:46.0	Ventana	34.205	02:43:20:22	6.317		Labidiasteridae	Rathbunaster			Animalia	Forcipulatida	Echinodermata	Rathbunaster californicus	Asteroidea							Eukaryota		V3164-03
 	cruise	Sebastes	397.46	3164	03:33:32:20	 	36.808052	-122.17922	2456759	0.82	04:56.0	Ventana	34.2	03:33:40:21	6.432	Osteichthyes	Scorpaenidae	Sebastes	Neopterygii		Animalia	Scorpaeniformes	Chordata		Actinopterygii			Scorpaenoidei	Vertebrata	Gnathostomata		Eukaryota	Acanthopterygii	V3164-04
 	cruise	Chionoecetes tanneri	581.91	3164	00:45:11:12	 	36.77095	-122.1943	2447915	0.38	13:37.0	Ventana	34.306	00:45:12:01	5.402	Malacostraca	Majidae	Chionoecetes		Brachyura	Animalia	Decapoda	Arthropoda	Chionoecetes tanneri	Eumalacostraca						Majoidea	Eukaryota	Eucarida	V3164-01
 	cruise	Stomphia	488.23	3164	01:48:52:10	 	36.785557	-122.19418	2450675	0.49	18:17.0	Ventana	34.264	01:48:55:24	5.721	Anthozoa	Actinostolidae	Stomphia			Animalia	Actiniaria	Cnidaria		Hexacorallia			Nyantheae				Eukaryota		V3164-02
 	transect	Rathbunaster californicus	433.66	3164	02:44:59:01	 	36.799797	-122.18688	2453510	0.77	15:29.0	Ventana	34.204	02:45:02:27	6.317		Labidiasteridae	Rathbunaster			Animalia	Forcipulatida	Echinodermata	Rathbunaster californicus	Asteroidea							Eukaryota		V3164-03
 	transect	Rathbunaster californicus	433.67	3164	02:56:19:25	 	36.79963	-122.18642	2454555	0.77	26:50.0	Ventana	34.205	02:56:23:26	6.318		Labidiasteridae	Rathbunaster			Animalia	Forcipulatida	Echinodermata	Rathbunaster californicus	Asteroidea							Eukaryota		V3164-03
 	cruise	Hippasteria	364.46	3164	03:59:55:02	 	36.814278	-122.173355	2458240	0.95	31:21.0	Ventana	34.182	04:00:03:06	6.661		Goniasteridae	Hippasteria			Animalia	Valvatida	Echinodermata		Asteroidea			Granulosina				Eukaryota		V3164-04
 	cruise	Liponema brevicornis	358.83	3164	04:07:09:03	 	36.81616	-122.17255	2458330	0.91	38:34.0	Ventana	34.186	04:07:16:25	6.603	Anthozoa	Liponematidae	Liponema			Animalia	Actiniaria	Cnidaria	Liponema brevicornis	Hexacorallia			Nyantheae				Eukaryota		V3164-04
 	cruise	Anthoptilum grandiflorum	575.67	3164	00:48:20:06	 	36.771572	-122.19426	2447952	0.38	16:46.0	Ventana	34.305	00:48:20:15	5.419	Anthozoa	Anthoptilidae	Anthoptilum			Animalia	Pennatulacea	Cnidaria	Anthoptilum grandiflorum	Octocorallia			Sessiliflorae				Eukaryota		V3164-01
 	transect	Mediaster aequalis	428.82	3164	02:48:58:08	 	36.800426	-122.18638	2454292	0.77	19:28.0	Ventana	34.204	02:49:02:14	6.311		Goniasteridae	Mediaster			Animalia	Valvatida	Echinodermata	Mediaster aequalis	Asteroidea			Granulosina				Eukaryota		V3164-03
 	transect	Mediaster	434.73	3164	02:44:07:02	http://search.mbari.org/ARCHIVE/frameGrabs/Ventana/images/3164/02_44_11_04.jpg	36.79965	-122.18694	2453480	0.77	14:37.0	Ventana	34.205	02:44:11:04	6.317		Goniasteridae	Mediaster			Animalia	Valvatida	Echinodermata		Asteroidea			Granulosina				Eukaryota		V3164-03
 	cruise	Microstomus pacificus	468.45	3164	02:04:48:12	 	36.789974	-122.192505	2450795	0.7	34:14.0	Ventana	34.217	02:04:53:19	6.196	Osteichthyes	Pleuronectidae	Microstomus	Neopterygii		Animalia	Pleuronectiformes	Chordata	Microstomus pacificus	Actinopterygii				Vertebrata	Gnathostomata		Eukaryota	Acanthopterygii	V3164-02
 	cruise	Microstomus pacificus	433.45	3164	03:00:27:02	 	36.799793	-122.186516	2454645	0.77	30:57.0	Ventana	34.203	03:00:31:18	6.322	Osteichthyes	Pleuronectidae	Microstomus	Neopterygii		Animalia	Pleuronectiformes	Chordata	Microstomus pacificus	Actinopterygii				Vertebrata	Gnathostomata		Eukaryota	Acanthopterygii	V3164-03
 	cruise	trench	552.79	3164	01:00:35:13	http://search.mbari.org/ARCHIVE/frameGrabs/Ventana/images/3164/01_00_36_26.jpg	36.774517	-122.19473	2448012	0.39	29:02.0	Ventana	34.299	01:00:36:26	5.454																			V3164-01
 	transect	Rathbunaster californicus	432.05	3164	02:53:57:15	 	36.799908	-122.18605	2454465	0.76	24:27.0	Ventana	34.205	02:54:01:15	6.314		Labidiasteridae	Rathbunaster			Animalia	Forcipulatida	Echinodermata	Rathbunaster californicus	Asteroidea							Eukaryota		V3164-03
 	transect	Allocentrotus fragilis	435.54	3164	02:42:20:20	http://search.mbari.org/ARCHIVE/frameGrabs/Ventana/images/3164/02_42_24_01.jpg	36.7994	-122.18704	2452419	0.76	12:50.0	Ventana	34.205	02:42:24:01	6.316	Echinoidea	Strongylocentrotidae	Allocentrotus			Animalia	Echinoida	Echinodermata	Allocentrotus fragilis	Euechinoidea			Echinacea				Eukaryota		V3164-03
 	transect	Rathbunaster californicus	435.44	3164	02:58:16:06	 	36.799423	-122.1866	2454615	0.76	28:47.0	Ventana	34.205	02:58:21:03	6.316		Labidiasteridae	Rathbunaster			Animalia	Forcipulatida	Echinodermata	Rathbunaster californicus	Asteroidea							Eukaryota		V3164-03
 	transect	Porifera	431.01	3164	02:47:05:27	 	36.800137	-122.186584	2453713	0.77	17:35.0	Ventana	34.204	02:47:09:23	6.318						Animalia		Porifera									Eukaryota		V3164-03
 	transect	Mediaster aequalis	429.11	3164	02:48:37:24	 	36.800385	-122.1864	2454262	0.77	19:08.0	Ventana	34.205	02:48:42:03	6.312		Goniasteridae	Mediaster			Animalia	Valvatida	Echinodermata	Mediaster aequalis	Asteroidea			Granulosina				Eukaryota		V3164-03
 	cruise	Liponema brevicornis	360.47	3164	04:05:00:08	 	36.815586	-122.17276	2458300	0.91	36:26.0	Ventana	34.187	04:05:09:05	6.599	Anthozoa	Liponematidae	Liponema			Animalia	Actiniaria	Cnidaria	Liponema brevicornis	Hexacorallia			Nyantheae				Eukaryota		V3164-04
 	cruise	Merluccius productus	372.8	3164	03:52:49:15	 	36.812347	-122.174736	2458150	0.88	24:14.0	Ventana	34.192	03:52:58:04	6.536	Osteichthyes	Merlucciidae	Merluccius	Neopterygii		Animalia	Gadiformes	Chordata	Merluccius productus	Actinopterygii				Vertebrata	Gnathostomata		Eukaryota	Paracanthopterygii	V3164-04
 	cruise	Actiniaria sp. 3	427.3	3164	03:06:48:22	 	36.801586	-122.18543	2455886	0.75	37:19.0	Ventana	34.208	03:06:52:02	6.287	Anthozoa					Animalia	Actiniaria	Cnidaria		Hexacorallia							Eukaryota		V3164-03
 	transect	Benthopecten	431.11	3164	02:52:51:02	 	36.800045	-122.18593	2454382	0.77	23:21.0	Ventana	34.205	02:52:54:27	6.313		Benthopectinidae	Benthopecten			Animalia		Echinodermata									Eukaryota		V3164-03
 	cruise	Anthomastus ritteri	412.56	3164	03:27:55:01	 	36.806774	-122.1806	2456706	0.74	59:18.0	Ventana	34.21	03:28:02:24	6.274	Anthozoa	Alcyoniidae				Animalia	Alcyonacea	Cnidaria	Anthomastus	Octocorallia							Eukaryota		V3164-04
 	cruise	Parmaturus xaniurus	514.57	3164	01:28:15:19	 	36.78051	-122.194786	2448411	0.45	57:39.0	Ventana	34.274	01:28:19:13	5.632	Chondrichthyes	Scyliorhinidae	Parmaturus			Animalia	Carcharhiniformes	Chordata	Parmaturus xaniurus	Elasmobranchii				Vertebrata			Eukaryota	Galeomorphi	V3164-02
 	cruise	Actiniaria sp. 3	375.77	3164	03:47:41:24	 	36.811214	-122.1758	2457834	0.9	19:07.0	Ventana	34.192	03:47:51:00	6.604	Anthozoa					Animalia	Actiniaria	Cnidaria		Hexacorallia							Eukaryota		V3164-04
 	cruise	Microstomus pacificus	455.66	3164	02:14:25:27	 	36.792957	-122.19114	2451028	0.74	44:53.0	Ventana	34.21	02:14:29:29	6.276	Osteichthyes	Pleuronectidae	Microstomus	Neopterygii		Animalia	Pleuronectiformes	Chordata	Microstomus pacificus	Actinopterygii				Vertebrata	Gnathostomata		Eukaryota	Acanthopterygii	V3164-03
 	cruise	Merluccius productus	502.94	3164	01:36:39:19	 	36.78253	-122.194695	2448441	0.47	06:04.0	Ventana	34.269	01:36:44:02	5.675	Osteichthyes	Merlucciidae	Merluccius	Neopterygii		Animalia	Gadiformes	Chordata	Merluccius productus	Actinopterygii				Vertebrata	Gnathostomata		Eukaryota	Paracanthopterygii	V3164-02
 	cruise	Microstomus pacificus	439.79	3164	02:30:15:13	 	36.797485	-122.188416	2452126	0.77	00:44.0	Ventana	34.204	02:30:19:14	6.324	Osteichthyes	Pleuronectidae	Microstomus	Neopterygii		Animalia	Pleuronectiformes	Chordata	Microstomus pacificus	Actinopterygii				Vertebrata	Gnathostomata		Eukaryota	Acanthopterygii	V3164-03
 	cruise	Chionoecetes tanneri	532.6	3164	01:13:05:17	 	36.77754	-122.195045	2448268	0.41	42:28.0	Ventana	34.29	01:13:09:25	5.511	Malacostraca	Majidae	Chionoecetes		Brachyura	Animalia	Decapoda	Arthropoda	Chionoecetes tanneri	Eumalacostraca						Majoidea	Eukaryota	Eucarida	V3164-02
 	cruise	Corallimorphus pilatus	371.26	3164	03:55:03:26	 	36.812927	-122.17426	2458170	0.88	26:29.0	Ventana	34.191	03:55:12:26	6.549	Anthozoa	Corallimorphidae	Corallimorphus			Animalia	Corallimorpharia	Cnidaria	Corallimorphus pilatus	Hexacorallia							Eukaryota		V3164-04
 	cruise	Liponema brevicornis	504.34	3164	01:35:21:06	 	36.782284	-122.19468	2448436	0.46	04:45.0	Ventana	34.273	01:35:24:24	5.644	Anthozoa	Liponematidae	Liponema			Animalia	Actiniaria	Cnidaria	Liponema brevicornis	Hexacorallia			Nyantheae				Eukaryota		V3164-02
 	cruise	Stylasterias forreri	382.6	3164	03:42:30:19	 	36.810024	-122.17705	2457141	0.98	13:55.0	Ventana	34.179	03:42:39:06	6.738		Asteriidae	Stylasterias			Animalia	Forcipulatida	Echinodermata	Stylasterias forreri	Asteroidea							Eukaryota		V3164-04
 	cruise	Liponema brevicornis	516.32	3164	01:26:59:06	 	36.7802	-122.19484	2448406	0.44	56:23.0	Ventana	34.277	01:27:04:00	5.608	Anthozoa	Liponematidae	Liponema			Animalia	Actiniaria	Cnidaria	Liponema brevicornis	Hexacorallia			Nyantheae				Eukaryota		V3164-02
 	cruise	Anthomastus ritteri	397.46	3164	03:33:28:21	 	36.808037	-122.17924	2456758	0.81	04:52.0	Ventana	34.197	03:33:35:21	6.426	Anthozoa	Alcyoniidae				Animalia	Alcyonacea	Cnidaria	Anthomastus	Octocorallia							Eukaryota		V3164-04
 	cruise	Rathbunaster californicus	438.47	3164	02:33:36:06	 	36.79823	-122.187965	2452214	0.76	04:05.0	Ventana	34.205	02:33:39:27	6.316		Labidiasteridae	Rathbunaster			Animalia	Forcipulatida	Echinodermata	Rathbunaster californicus	Asteroidea							Eukaryota		V3164-03
 	transect	Rathbunaster californicus	429.12	3164	02:48:39:24	 	36.80039	-122.1864	2454272	0.77	19:10.0	Ventana	34.205	02:48:45:05	6.312		Labidiasteridae	Rathbunaster			Animalia	Forcipulatida	Echinodermata	Rathbunaster californicus	Asteroidea							Eukaryota		V3164-03
 	cruise	Eptatretus stoutii	430.69	3164	02:52:09:03	 	36.80012	-122.18591	2454362	0.77	22:39.0	Ventana	34.205	02:52:14:00	6.313	Agnatha		Eptatretus			Animalia		Chordata						Vertebrata			Eukaryota		V3164-03
 	transect	Rathbunaster californicus	432.48	3164	02:45:51:14	 	36.79994	-122.186775	2453566	0.77	16:21.0	Ventana	34.204	02:45:55:17	6.318		Labidiasteridae	Rathbunaster			Animalia	Forcipulatida	Echinodermata	Rathbunaster californicus	Asteroidea							Eukaryota		V3164-03
 	cruise	Florometra serratissima	353.82	3164	04:13:31:21	 	36.817944	-122.17204	2458966	0.9	45:25.0	Ventana	34.19	04:13:41:23	6.569	Crinoidea	Antedonidae	Florometra			Animalia	Comatulidina	Echinodermata	Florometra serratissima							Antedonacea	Eukaryota		V3164-05
 	cruise	Merluccius productus	374.03	3164	03:51:51:02	 	36.81209	-122.17495	2458080	0.87	23:16.0	Ventana	34.193	03:51:58:21	6.527	Osteichthyes	Merlucciidae	Merluccius	Neopterygii		Animalia	Gadiformes	Chordata	Merluccius productus	Actinopterygii				Vertebrata	Gnathostomata		Eukaryota	Paracanthopterygii	V3164-04
 	cruise	Lycodes cortezianus	379.7	3164	03:44:21:00	 	36.810402	-122.176636	2457727	0.99	15:46.0	Ventana	34.18	03:44:29:28	6.762	Osteichthyes	Zoarcidae	Lycodes	Neopterygii		Animalia	Perciformes	Chordata	Lycodes cortezianus	Actinopterygii			Zoarcoidei	Vertebrata	Gnathostomata		Eukaryota	Acanthopterygii	V3164-04
 	cruise	Anthoptilum grandiflorum	470.52	3164	02:02:07:17	 	36.78935	-122.19279	2450772	0.67	31:33.0	Ventana	34.221	02:02:11:21	6.159	Anthozoa	Anthoptilidae	Anthoptilum			Animalia	Pennatulacea	Cnidaria	Anthoptilum grandiflorum	Octocorallia			Sessiliflorae				Eukaryota		V3164-02
 	cruise	Stylasterias forreri	366.52	3164	03:58:16:20	 	36.813805	-122.17362	2458230	0.94	29:42.0	Ventana	34.182	03:58:24:05	6.67		Asteriidae	Stylasterias			Animalia	Forcipulatida	Echinodermata	Stylasterias forreri	Asteroidea							Eukaryota		V3164-04
 	cruise	Rathbunaster californicus	448.39	3164	02:21:51:13	 	36.795017	-122.18993	2451275	0.75	52:20.0	Ventana	34.21	02:21:56:20	6.289		Labidiasteridae	Rathbunaster			Animalia	Forcipulatida	Echinodermata	Rathbunaster californicus	Asteroidea							Eukaryota		V3164-03
 	transect	Benthopecten	435.11	3164	02:43:24:19	 	36.799534	-122.18698	2453453	0.77	13:54.0	Ventana	34.205	02:43:29:18	6.317		Benthopectinidae	Benthopecten			Animalia		Echinodermata									Eukaryota		V3164-03
 	transect	Actiniaria sp. 3	434.57	3164	02:44:13:02	 	36.799667	-122.18694	2453483	0.76	14:43.0	Ventana	34.204	02:44:17:07	6.317	Anthozoa					Animalia	Actiniaria	Cnidaria		Hexacorallia							Eukaryota		V3164-03
 	transect	Rathbunaster californicus	433.99	3164	02:56:43:24	 	36.79957	-122.18651	2454565	0.77	27:14.0	Ventana	34.204	02:56:47:17	6.318		Labidiasteridae	Rathbunaster			Animalia	Forcipulatida	Echinodermata	Rathbunaster californicus	Asteroidea							Eukaryota		V3164-03
 	descend	surface water	 	3164	 	 	 	 	2447850	 	 	Ventana	 	00:02:52:16	 																			V3164-01
 	cruise	Microstomus pacificus	375.23	3164	03:48:44:07	 	36.811413	-122.1756	2458027	0.89	20:09.0	Ventana	34.192	03:48:52:26	6.558	Osteichthyes	Pleuronectidae	Microstomus	Neopterygii		Animalia	Pleuronectiformes	Chordata	Microstomus pacificus	Actinopterygii				Vertebrata	Gnathostomata		Eukaryota	Acanthopterygii	V3164-04
 	transect	Allocentrotus fragilis	435.54	3164	02:42:20:20	http://search.mbari.org/ARCHIVE/frameGrabs/Ventana/images/3164/02_42_24_01.jpg	36.7994	-122.18704	2452417	0.76	12:50.0	Ventana	34.205	02:42:24:01	6.316	Echinoidea	Strongylocentrotidae	Allocentrotus			Animalia	Echinoida	Echinodermata	Allocentrotus fragilis	Euechinoidea			Echinacea				Eukaryota		V3164-03
 	cruise	trench	583.14	3164	00:44:41:13	http://search.mbari.org/ARCHIVE/frameGrabs/Ventana/images/3164/00_44_42_24.jpg	36.770844	-122.19427	2447933	0.38	13:07.0	Ventana	34.307	00:44:42:24	5.391																			V3164-01
 	cruise	Microstomus pacificus	447.45	3164	02:26:10:20	 	36.79639	-122.189156	2452041	0.75	56:39.0	Ventana	34.209	02:26:15:17	6.295	Osteichthyes	Pleuronectidae	Microstomus	Neopterygii		Animalia	Pleuronectiformes	Chordata	Microstomus pacificus	Actinopterygii				Vertebrata	Gnathostomata		Eukaryota	Acanthopterygii	V3164-03
 	cruise	Parmaturus xaniurus	562.4	3164	00:54:51:24	 	36.77319	-122.19451	2447993	0.39	23:18.0	Ventana	34.3	00:54:53:21	5.452	Chondrichthyes	Scyliorhinidae	Parmaturus			Animalia	Carcharhiniformes	Chordata	Parmaturus xaniurus	Elasmobranchii				Vertebrata			Eukaryota	Galeomorphi	V3164-01
 	cruise	Anthoptilum grandiflorum	571.43	3164	00:49:52:18	 	36.77207	-122.19441	2447963	0.39	18:19.0	Ventana	34.303	00:49:52:27	5.43	Anthozoa	Anthoptilidae	Anthoptilum			Animalia	Pennatulacea	Cnidaria	Anthoptilum grandiflorum	Octocorallia			Sessiliflorae				Eukaryota		V3164-01
 	transect	Rathbunaster californicus	431.02	3164	02:47:07:27	 	36.80014	-122.18658	2453716	0.77	17:37.0	Ventana	34.204	02:47:12:21	6.318		Labidiasteridae	Rathbunaster			Animalia	Forcipulatida	Echinodermata	Rathbunaster californicus	Asteroidea							Eukaryota		V3164-03
 	cruise	Merluccius productus	423.96	3164	03:12:13:15	 	36.803265	-122.18393	2456525	0.72	43:35.0	Ventana	34.215	03:12:21:09	6.245	Osteichthyes	Merlucciidae	Merluccius	Neopterygii		Animalia	Gadiformes	Chordata	Merluccius productus	Actinopterygii				Vertebrata	Gnathostomata		Eukaryota	Paracanthopterygii	V3164-04
 	transect	Rathbunaster californicus	433.49	3164	02:45:07:01	 	36.79982	-122.186874	2453513	0.77	15:37.0	Ventana	34.204	02:45:10:28	6.317		Labidiasteridae	Rathbunaster			Animalia	Forcipulatida	Echinodermata	Rathbunaster californicus	Asteroidea							Eukaryota		V3164-03
 	transect	Psolus squamatus	434.76	3164	02:57:42:07	 	36.799473	-122.186554	2454595	0.77	28:13.0	Ventana	34.205	02:57:46:04	6.316	Holothuroidea	Psolidae	Psolus			Animalia	Dendrochirotida	Echinodermata	Psolus squamatus								Eukaryota		V3164-03
 	cruise	Halipteris californica	545.32	3164	01:03:37:04	 	36.775566	-122.194885	2448166	0.39	32:59.0	Ventana	34.296	01:03:41:21	5.475	Anthozoa	Halipteridae	Halipteris			Animalia	Pennatulacea	Cnidaria	Halipteris californica	Octocorallia			Subselliflorae				Eukaryota		V3164-02
 	cruise	Lycodes cortezianus	396.11	3164	03:34:10:19	 	36.80821	-122.17904	2456765	0.82	05:34.0	Ventana	34.199	03:34:19:23	6.425	Osteichthyes	Zoarcidae	Lycodes	Neopterygii		Animalia	Perciformes	Chordata	Lycodes cortezianus	Actinopterygii			Zoarcoidei	Vertebrata	Gnathostomata		Eukaryota	Acanthopterygii	V3164-04
 	cruise	Merluccius productus	438.16	3164	02:34:06:20	 	36.79833	-122.1879	2452221	0.76	04:35.0	Ventana	34.207	02:34:11:10	6.308	Osteichthyes	Merlucciidae	Merluccius	Neopterygii		Animalia	Gadiformes	Chordata	Merluccius productus	Actinopterygii				Vertebrata	Gnathostomata		Eukaryota	Paracanthopterygii	V3164-03
 	transect	Mediaster aequalis	431.11	3164	02:52:51:02	 	36.800045	-122.18593	2454385	0.77	23:21.0	Ventana	34.205	02:52:54:27	6.313		Goniasteridae	Mediaster			Animalia	Valvatida	Echinodermata	Mediaster aequalis	Asteroidea			Granulosina				Eukaryota		V3164-03
 	cruise	Actiniaria sp. 3	370.73	3164	03:55:53:25	 	36.813133	-122.1741	2458177	0.89	27:19.0	Ventana	34.19	03:56:01:17	6.564	Anthozoa					Animalia	Actiniaria	Cnidaria		Hexacorallia							Eukaryota		V3164-04
 	cruise	Actiniaria sp. 3	373.99	3164	03:51:59:02	 	36.81213	-122.17491	2458117	0.87	23:24.0	Ventana	34.193	03:52:08:01	6.528	Anthozoa					Animalia	Actiniaria	Cnidaria		Hexacorallia							Eukaryota		V3164-04
 	cruise	trench	516.84	3164	01:26:37:07	http://search.mbari.org/ARCHIVE/frameGrabs/Ventana/images/3164/01_26_41_29.jpg	36.7801	-122.194855	2448399	0.44	56:01.0	Ventana	34.279	01:26:41:29	5.597																			V3164-02
 	cruise	Actiniaria sp. 1	558.75	3164	00:56:40:05	 	36.773693	-122.19454	2448000	0.39	25:07.0	Ventana	34.302	00:56:42:00	5.442	Anthozoa					Animalia	Actiniaria	Cnidaria		Hexacorallia							Eukaryota		V3164-01
 	cruise	Hippasteria	384.24	3164	03:41:48:20	 	36.809853	-122.17723	2457134	0.94	13:13.0	Ventana	34.184	03:41:56:10	6.671		Goniasteridae	Hippasteria			Animalia	Valvatida	Echinodermata		Asteroidea			Granulosina				Eukaryota		V3164-04
 	cruise	Asteroidea	435.91	3164	02:36:17:02	 	36.79878	-122.187485	2452311	0.76	06:46.0	Ventana	34.206	02:36:20:14	6.315						Animalia		Echinodermata		Asteroidea							Eukaryota		V3164-03
 	transect	Rathbunaster californicus	428.74	3164	02:49:00:09	 	36.800426	-122.18638	2454295	0.77	19:30.0	Ventana	34.204	02:49:04:26	6.311		Labidiasteridae	Rathbunaster			Animalia	Forcipulatida	Echinodermata	Rathbunaster californicus	Asteroidea							Eukaryota		V3164-03
 	cruise	Anthoptilum grandiflorum	447.47	3164	02:23:31:25	 	36.795475	-122.18966	2451854	0.74	54:00.0	Ventana	34.209	02:23:35:16	6.286	Anthozoa	Anthoptilidae	Anthoptilum			Animalia	Pennatulacea	Cnidaria	Anthoptilum grandiflorum	Octocorallia			Sessiliflorae				Eukaryota		V3164-03
 	transect	Stomphia	430.37	3164	02:47:39:26	 	36.80024	-122.186485	2453753	0.77	18:10.0	Ventana	34.204	02:47:43:16	6.316	Anthozoa	Actinostolidae	Stomphia			Animalia	Actiniaria	Cnidaria		Hexacorallia			Nyantheae				Eukaryota		V3164-03
 	cruise	Porifera	428.68	3164	02:50:06:06	 	36.800426	-122.18627	2454325	0.76	20:36.0	Ventana	34.205	02:50:10:19	6.313						Animalia		Porifera									Eukaryota		V3164-03
 	cruise	Hippasteria	374.8	3164	03:50:32:19	 	36.811775	-122.17523	2458057	0.88	21:58.0	Ventana	34.192	03:50:40:22	6.534		Goniasteridae	Hippasteria			Animalia	Valvatida	Echinodermata		Asteroidea			Granulosina				Eukaryota		V3164-04
 	transect	Asbestopluma	432.97	3164	02:55:17:27	http://search.mbari.org/ARCHIVE/frameGrabs/Ventana/images/3164/02_55_22_26.jpg	36.799736	-122.18625	2454528	0.77	25:48.0	Ventana	34.203	02:55:22:26	6.323	Demospongiae	Cladorhizidae	Asbestopluma			Animalia	Poecilosclerida	Porifera					Mycalina				Eukaryota		V3164-03
 	cruise	trench	586.14	3164	00:33:04:19	 	36.77052	-122.19409	2447857	0.39	01:30.0	Ventana	34.306	00:33:04:06	5.39																			V3164-01
 	cruise	trench	489.14	3164	01:47:42:13	http://search.mbari.org/ARCHIVE/frameGrabs/Ventana/images/3164/01_47_46_03.jpg	36.785297	-122.19426	2450666	0.49	17:07.0	Ventana	34.266	01:47:46:03	5.712																			V3164-02
 	cruise	Halipteris californica	484.69	3164	01:51:49:06	 	36.786316	-122.19389	2450696	0.51	21:14.0	Ventana	34.259	01:51:53:18	5.757	Anthozoa	Halipteridae	Halipteris			Animalia	Pennatulacea	Cnidaria	Halipteris californica	Octocorallia			Subselliflorae				Eukaryota		V3164-02
 	cruise	Chionoecetes tanneri	581.62	3164	00:45:15:12	 	36.770966	-122.1943	2447940	0.38	13:41.0	Ventana	34.307	00:45:16:09	5.398	Malacostraca	Majidae	Chionoecetes		Brachyura	Animalia	Decapoda	Arthropoda	Chionoecetes tanneri	Eumalacostraca						Majoidea	Eukaryota	Eucarida	V3164-01
 	transect	Actiniaria sp. 3	435.43	3164	02:42:58:20	 	36.799473	-122.18701	2452484	0.76	13:28.0	Ventana	34.205	02:43:02:17	6.315	Anthozoa					Animalia	Actiniaria	Cnidaria		Hexacorallia							Eukaryota		V3164-03
 	transect	Mediaster	435.5	3164	02:42:00:07	http://search.mbari.org/ARCHIVE/frameGrabs/Ventana/images/3164/02_42_05_10.jpg	36.79938	-122.18705	2452394	0.76	12:30.0	Ventana	34.205	02:42:05:10	6.317		Goniasteridae	Mediaster			Animalia	Valvatida	Echinodermata		Asteroidea			Granulosina				Eukaryota		V3164-03
 	transect	Mediaster tenellus	433.79	3164	02:56:25:25	 	36.79962	-122.18643	2454558	0.77	26:56.0	Ventana	34.205	02:56:31:09	6.318		Goniasteridae	Mediaster			Animalia	Valvatida	Echinodermata	Mediaster tenellus	Asteroidea			Granulosina				Eukaryota		V3164-03
 	cruise	Chionoecetes tanneri	525.2	3164	01:20:59:17	 	36.778725	-122.19496	2448346	0.41	50:23.0	Ventana	34.285	01:21:03:15	5.54	Malacostraca	Majidae	Chionoecetes		Brachyura	Animalia	Decapoda	Arthropoda	Chionoecetes tanneri	Eumalacostraca						Majoidea	Eukaryota	Eucarida	V3164-02
 	transect	Rathbunaster californicus	431.88	3164	02:53:35:15	 	36.799953	-122.186005	2454445	0.77	24:05.0	Ventana	34.204	02:53:38:25	6.315		Labidiasteridae	Rathbunaster			Animalia	Forcipulatida	Echinodermata	Rathbunaster californicus	Asteroidea							Eukaryota		V3164-03
 	transect	Mediaster aequalis	431.35	3164	02:46:41:13	 	36.80007	-122.18665	2453693	0.77	17:11.0	Ventana	34.204	02:46:45:03	6.319		Goniasteridae	Mediaster			Animalia	Valvatida	Echinodermata	Mediaster aequalis	Asteroidea			Granulosina				Eukaryota		V3164-03
 	transect	Porifera	435.58	3164	02:58:24:06	 	36.799416	-122.18661	2454618	0.76	28:55.0	Ventana	34.205	02:58:27:26	6.316						Animalia		Porifera									Eukaryota		V3164-03
 	transect	Stomphia	434.22	3164	02:44:29:02	 	36.799713	-122.18693	2453490	0.77	14:59.0	Ventana	34.205	02:44:32:22	6.317	Anthozoa	Actinostolidae	Stomphia			Animalia	Actiniaria	Cnidaria		Hexacorallia			Nyantheae				Eukaryota		V3164-03
 	transect	Porifera	434.69	3164	02:57:32:08	 	36.79949	-122.18655	2454588	0.77	28:03.0	Ventana	34.205	02:57:37:05	6.316						Animalia		Porifera									Eukaryota		V3164-03
 	transect	Rathbunaster californicus	431.64	3164	02:53:11:01	 	36.800007	-122.18596	2454415	0.77	23:41.0	Ventana	34.205	02:53:14:21	6.314		Labidiasteridae	Rathbunaster			Animalia	Forcipulatida	Echinodermata	Rathbunaster californicus	Asteroidea							Eukaryota		V3164-03
 	cruise	Parmaturus xaniurus	544.58	3164	01:04:07:18	http://search.mbari.org/ARCHIVE/frameGrabs/Ventana/images/3164/01_04_12_01.jpg	36.775673	-122.19491	20023726	0.39	33:30.0	Ventana	34.297	01:04:12:01	5.474	Chondrichthyes	Scyliorhinidae	Parmaturus			Animalia	Carcharhiniformes	Chordata	Parmaturus xaniurus	Elasmobranchii				Vertebrata			Eukaryota	Galeomorphi	V3164-02
 	cruise	Chionoecetes tanneri	568.81	3164	00:51:01:01	 	36.772392	-122.19448	2447970	0.39	19:27.0	Ventana	34.303	00:51:01:20	5.437	Malacostraca	Majidae	Chionoecetes		Brachyura	Animalia	Decapoda	Arthropoda	Chionoecetes tanneri	Eumalacostraca						Majoidea	Eukaryota	Eucarida	V3164-01
 	cruise	Asbestopluma	372.89	3164	03:52:43:15	 	36.81232	-122.17476	2458147	0.88	24:08.0	Ventana	34.192	03:52:51:13	6.536	Demospongiae	Cladorhizidae	Asbestopluma			Animalia	Poecilosclerida	Porifera					Mycalina				Eukaryota		V3164-04
 	cruise	Microstomus pacificus	402.18	3164	03:31:29:24	 	36.807564	-122.17975	2456742	0.78	02:53.0	Ventana	34.205	03:31:38:25	6.343	Osteichthyes	Pleuronectidae	Microstomus	Neopterygii		Animalia	Pleuronectiformes	Chordata	Microstomus pacificus	Actinopterygii				Vertebrata	Gnathostomata		Eukaryota	Acanthopterygii	V3164-04
 	cruise	Stomphia	369.86	3164	03:56:26:09	 	36.813274	-122.173996	2458216	0.89	27:51.0	Ventana	34.19	03:56:34:17	6.567	Anthozoa	Actinostolidae	Stomphia			Animalia	Actiniaria	Cnidaria		Hexacorallia			Nyantheae				Eukaryota		V3164-04
 	transect	Gastropoda	432	3164	02:46:13:14	 	36.799995	-122.18673	2453610	0.77	16:43.0	Ventana	34.204	02:46:17:10	6.316	Gastropoda					Animalia		Mollusca									Eukaryota		V3164-03
 	cruise	Rathbunaster californicus	435.72	3164	02:58:56:20	 	36.799416	-122.18663	2454639	0.76	29:27.0	Ventana	34.204	02:59:01:09	6.316		Labidiasteridae	Rathbunaster			Animalia	Forcipulatida	Echinodermata	Rathbunaster californicus	Asteroidea							Eukaryota		V3164-03
 	transect	Asbestopluma	435.32	3164	02:58:06:06	 	36.799435	-122.186584	2454609	0.77	28:37.0	Ventana	34.204	02:58:11:01	6.316	Demospongiae	Cladorhizidae	Asbestopluma			Animalia	Poecilosclerida	Porifera					Mycalina				Eukaryota		V3164-03
 	cruise	Sebastes	353.33	3164	04:11:41:10	 	36.817474	-122.17222	2458952	0.9	43:34.0	Ventana	34.187	04:11:51:10	6.589	Osteichthyes	Scorpaenidae	Sebastes	Neopterygii		Animalia	Scorpaeniformes	Chordata		Actinopterygii			Scorpaenoidei	Vertebrata	Gnathostomata		Eukaryota	Acanthopterygii	V3164-05
 	cruise	Antimora microlepis	523.31	3164	01:21:56:01	 	36.77901	-122.194916	2448360	0.42	51:19.0	Ventana	34.284	01:21:59:05	5.553	Osteichthyes	Moridae	Antimora	Neopterygii		Animalia	Gadiformes	Chordata	Antimora microlepis	Actinopterygii				Vertebrata	Gnathostomata		Eukaryota	Paracanthopterygii	V3164-02
 	cruise	Chionoecetes tanneri	555.61	3164	00:58:33:02	 	36.774147	-122.19462	2448007	0.39	27:00.0	Ventana	34.301	00:58:33:06	5.448	Malacostraca	Majidae	Chionoecetes		Brachyura	Animalia	Decapoda	Arthropoda	Chionoecetes tanneri	Eumalacostraca						Majoidea	Eukaryota	Eucarida	V3164-01
 	cruise	Lycodes cortezianus	360.18	3164	04:05:26:07	 	36.8157	-122.172714	2458306	0.91	36:52.0	Ventana	34.188	04:05:34:06	6.601	Osteichthyes	Zoarcidae	Lycodes	Neopterygii		Animalia	Perciformes	Chordata	Lycodes cortezianus	Actinopterygii			Zoarcoidei	Vertebrata	Gnathostomata		Eukaryota	Acanthopterygii	V3164-04
 	cruise	Lycodes cortezianus	349.09	3164	04:17:50:28	 	36.819378	-122.17166	2459012	0.9	49:44.0	Ventana	34.189	04:18:01:05	6.586	Osteichthyes	Zoarcidae	Lycodes	Neopterygii		Animalia	Perciformes	Chordata	Lycodes cortezianus	Actinopterygii			Zoarcoidei	Vertebrata	Gnathostomata		Eukaryota	Acanthopterygii	V3164-05
 	cruise	Parmaturus xaniurus	473.61	3164	02:00:15:05	 	36.78867	-122.193	2450756	0.61	29:41.0	Ventana	34.225	02:00:19:03	6.065	Chondrichthyes	Scyliorhinidae	Parmaturus			Animalia	Carcharhiniformes	Chordata	Parmaturus xaniurus	Elasmobranchii				Vertebrata			Eukaryota	Galeomorphi	V3164-02
 	cruise	Liponema brevicornis	510.57	3164	01:30:57:29	 	36.781216	-122.19473	2448420	0.46	00:22.0	Ventana	34.271	01:31:01:26	5.646	Anthozoa	Liponematidae	Liponema			Animalia	Actiniaria	Cnidaria	Liponema brevicornis	Hexacorallia			Nyantheae				Eukaryota		V3164-02
 	cruise	Sebastes	361.02	3164	04:03:45:25	 	36.815254	-122.17288	2458276	0.91	35:11.0	Ventana	34.188	04:03:53:11	6.608	Osteichthyes	Scorpaenidae	Sebastes	Neopterygii		Animalia	Scorpaeniformes	Chordata		Actinopterygii			Scorpaenoidei	Vertebrata	Gnathostomata		Eukaryota	Acanthopterygii	V3164-04
 	cruise	Merluccius productus	478.04	3164	01:57:28:25	 	36.78773	-122.19339	2450726	0.52	26:54.0	Ventana	34.258	01:57:32:14	5.781	Osteichthyes	Merlucciidae	Merluccius	Neopterygii		Animalia	Gadiformes	Chordata	Merluccius productus	Actinopterygii				Vertebrata	Gnathostomata		Eukaryota	Paracanthopterygii	V3164-02
 	transect	Phyllospadix	432.24	3164	02:46:03:14	 	36.79997	-122.18675	2453580	0.77	16:33.0	Ventana	34.204	02:46:07:03	6.316		Zosteraceae	Phyllospadix			Plantae	Najadales										Eukaryota		V3164-03
 	cruise	Hippasteria	352.14	3164	04:15:28:02	 	36.818577	-122.17189	2458982	0.89	47:21.0	Ventana	34.19	04:15:37:28	6.567		Goniasteridae	Hippasteria			Animalia	Valvatida	Echinodermata		Asteroidea			Granulosina				Eukaryota		V3164-05
 	cruise	Microstomus pacificus	457.82	3164	02:12:31:01	 	36.792423	-122.19138	2451019	0.74	42:59.0	Ventana	34.21	02:12:36:12	6.279	Osteichthyes	Pleuronectidae	Microstomus	Neopterygii		Animalia	Pleuronectiformes	Chordata	Microstomus pacificus	Actinopterygii				Vertebrata	Gnathostomata		Eukaryota	Acanthopterygii	V3164-03
 	transect	Mediaster aequalis	430.75	3164	02:47:21:26	 	36.800186	-122.18653	2453730	0.77	17:51.0	Ventana	34.205	02:47:26:00	6.318		Goniasteridae	Mediaster			Animalia	Valvatida	Echinodermata	Mediaster aequalis	Asteroidea			Granulosina				Eukaryota		V3164-03
 	cruise	Hippasteria	536.98	3164	01:10:08:22	http://search.mbari.org/ARCHIVE/frameGrabs/Ventana/images/3164/01_10_14_04.jpg	36.776848	-122.19504	2448247	0.4	39:31.0	Ventana	34.295	01:10:14:04	5.486		Goniasteridae	Hippasteria			Animalia	Valvatida	Echinodermata		Asteroidea			Granulosina				Eukaryota		V3164-02
 	transect	Actiniaria sp. 3	434.3	3164	02:57:12:08	 	36.799526	-122.18653	2454579	0.77	27:42.0	Ventana	34.205	02:57:16:19	6.316	Anthozoa					Animalia	Actiniaria	Cnidaria		Hexacorallia							Eukaryota		V3164-03
 	transect	Allocentrotus fragilis	434.16	3164	02:44:33:02	 	36.799725	-122.18692	2453497	0.77	15:03.0	Ventana	34.205	02:44:37:20	6.317	Echinoidea	Strongylocentrotidae	Allocentrotus			Animalia	Echinoida	Echinodermata	Allocentrotus fragilis	Euechinoidea			Echinacea				Eukaryota		V3164-03
 	cruise	Chionoecetes tanneri	578.87	3164	00:47:12:08	 	36.77129	-122.19431	2447947	0.38	15:38.0	Ventana	34.304	00:47:13:00	5.421	Malacostraca	Majidae	Chionoecetes		Brachyura	Animalia	Decapoda	Arthropoda	Chionoecetes tanneri	Eumalacostraca						Majoidea	Eukaryota	Eucarida	V3164-01
 	transect	Eptatretus stoutii	433.56	3164	02:55:49:25	 	36.79967	-122.18634	2454549	0.77	26:20.0	Ventana	34.202	02:55:54:00	6.322	Agnatha		Eptatretus			Animalia		Chordata						Vertebrata			Eukaryota		V3164-03
 	cruise	Asbestopluma	372.78	3164	03:53:21:14	 	36.812492	-122.174614	2458156	0.87	24:47.0	Ventana	34.192	03:53:29:27	6.533	Demospongiae	Cladorhizidae	Asbestopluma			Animalia	Poecilosclerida	Porifera					Mycalina				Eukaryota		V3164-04
 	cruise	cable	426.96	3164	03:06:10:08	http://search.mbari.org/ARCHIVE/frameGrabs/Ventana/images/3164/03_06_15_16.jpg	36.80139	-122.1856	2455880	0.75	36:41.0	Ventana	34.209	03:06:15:16	6.284																			V3164-03
 	cruise	Actiniaria sp. 3	 	3164	 	 	 	 	2447977	 	 	Ventana	 	00:00:01:18	 	Anthozoa					Animalia	Actiniaria	Cnidaria		Hexacorallia							Eukaryota		V3164-01
 	cruise	Sebastes diploproa	353.88	3164	04:10:57:26	 	36.817207	-122.17229	2458359	0.9	42:23.0	Ventana	34.188	04:11:05:18	6.587	Osteichthyes	Scorpaenidae	Sebastes	Neopterygii		Animalia	Scorpaeniformes	Chordata	Sebastes diploproa	Actinopterygii			Scorpaenoidei	Vertebrata	Gnathostomata		Eukaryota	Acanthopterygii	V3164-04
 	transect	Porifera	434.92	3164	02:43:41:03	 	36.799572	-122.18697	2453467	0.77	14:10.0	Ventana	34.205	02:43:45:01	6.318						Animalia		Porifera									Eukaryota		V3164-03
 	cruise	Anthoptilum grandiflorum	447.66	3164	02:23:01:26	 	36.79536	-122.189735	2451349	0.75	53:30.0	Ventana	34.209	02:23:05:21	6.286	Anthozoa	Anthoptilidae	Anthoptilum			Animalia	Pennatulacea	Cnidaria	Anthoptilum grandiflorum	Octocorallia			Sessiliflorae				Eukaryota		V3164-03
 	cruise	Chionoecetes tanneri	520.13	3164	01:25:02:25	 	36.77964	-122.19485	2448383	0.44	54:26.0	Ventana	34.28	01:25:07:03	5.588	Malacostraca	Majidae	Chionoecetes		Brachyura	Animalia	Decapoda	Arthropoda	Chionoecetes tanneri	Eumalacostraca						Majoidea	Eukaryota	Eucarida	V3164-02
 	cruise	Chionoecetes tanneri	552.58	3164	01:00:45:13	 	36.774567	-122.19474	2448014	0.39	29:12.0	Ventana	34.302	01:00:46:10	5.451	Malacostraca	Majidae	Chionoecetes		Brachyura	Animalia	Decapoda	Arthropoda	Chionoecetes tanneri	Eumalacostraca						Majoidea	Eukaryota	Eucarida	V3164-01
 	cruise	Halipteris californica	502.59	3164	01:37:03:17	 	36.78258	-122.1947	2448443	0.47	06:28.0	Ventana	34.269	01:37:08:21	5.678	Anthozoa	Halipteridae	Halipteris			Animalia	Pennatulacea	Cnidaria	Halipteris californica	Octocorallia			Subselliflorae				Eukaryota		V3164-02
 	cruise	Anthoptilum grandiflorum	564.8	3164	00:52:59:13	 	36.772846	-122.19447	2447984	0.39	21:26.0	Ventana	34.299	00:52:59:15	5.453	Anthozoa	Anthoptilidae	Anthoptilum			Animalia	Pennatulacea	Cnidaria	Anthoptilum grandiflorum	Octocorallia			Sessiliflorae				Eukaryota		V3164-01
 	transect	Rathbunaster californicus	433.13	3164	02:45:23:00	http://search.mbari.org/ARCHIVE/frameGrabs/Ventana/images/3164/02_45_27_03.jpg	36.799862	-122.186844	2453527	0.77	15:53.0	Ventana	34.204	02:45:27:03	6.318		Labidiasteridae	Rathbunaster			Animalia	Forcipulatida	Echinodermata	Rathbunaster californicus	Asteroidea							Eukaryota		V3164-03
 	cruise	Actiniaria sp. 3	387.83	3164	03:39:29:24	 	36.80923	-122.17786	2457118	0.88	10:54.0	Ventana	34.195	03:39:39:04	6.562	Anthozoa					Animalia	Actiniaria	Cnidaria		Hexacorallia							Eukaryota		V3164-04
 	cruise	Hippasteria	462.67	3164	02:08:42:08	 	36.791355	-122.19192	2450913	0.7	39:10.0	Ventana	34.218	02:08:47:22	6.191		Goniasteridae	Hippasteria			Animalia	Valvatida	Echinodermata		Asteroidea			Granulosina				Eukaryota		V3164-03
 	cruise	cable	381.64	3164	03:43:06:18	http://search.mbari.org/ARCHIVE/frameGrabs/Ventana/images/3164/03_43_14_26.jpg	36.810158	-122.17691	2457148	0.98	14:31.0	Ventana	34.178	03:43:14:26	6.747																			V3164-04
 	cruise	cable	353.18	3164	04:14:42:04	http://search.mbari.org/ARCHIVE/frameGrabs/Ventana/images/3164/04_14_53_27.jpg	36.818314	-122.17195	2458975	0.9	46:35.0	Ventana	34.189	04:14:53:27	6.577																			V3164-05
 	cruise	Hippasteria	538.49	3164	01:08:58:09	 	36.776608	-122.19501	2448217	0.4	38:21.0	Ventana	34.295	01:09:03:00	5.482		Goniasteridae	Hippasteria			Animalia	Valvatida	Echinodermata		Asteroidea			Granulosina				Eukaryota		V3164-02
 	cruise	Umbellula lindahli	513.62	3164	01:29:01:18	 	36.7807	-122.194756	2448413	0.46	58:25.0	Ventana	34.272	01:29:05:20	5.638	Anthozoa	Umbellulidae	Umbellula			Animalia	Pennatulacea	Cnidaria	Umbellula lindahli	Octocorallia			Sessiliflorae				Eukaryota		V3164-02
 	cruise	Rathbunaster californicus	363.12	3164	04:01:25:14	http://search.mbari.org/ARCHIVE/frameGrabs/Ventana/images/3164/04_01_33_15.jpg	36.81466	-122.17315	2458253	0.91	32:51.0	Ventana	34.187	04:01:33:15	6.609		Labidiasteridae	Rathbunaster			Animalia	Forcipulatida	Echinodermata	Rathbunaster californicus	Asteroidea							Eukaryota		V3164-04
 	cruise	Parmaturus xaniurus	448.48	3164	02:25:18:07	 	36.796127	-122.18932	2452004	0.75	55:47.0	Ventana	34.209	02:25:22:05	6.29	Chondrichthyes	Scyliorhinidae	Parmaturus			Animalia	Carcharhiniformes	Chordata	Parmaturus xaniurus	Elasmobranchii				Vertebrata			Eukaryota	Galeomorphi	V3164-03
 	transect	Allocentrotus fragilis	435.6	3164	02:42:24:21	http://search.mbari.org/ARCHIVE/frameGrabs/Ventana/images/3164/02_42_27_23.jpg	36.799404	-122.18704	2452440	0.76	12:54.0	Ventana	34.206	02:42:27:23	6.315	Echinoidea	Strongylocentrotidae	Allocentrotus			Animalia	Echinoida	Echinodermata	Allocentrotus fragilis	Euechinoidea			Echinacea				Eukaryota		V3164-03
 	cruise	Stylasterias forreri	375.29	3164	03:49:58:20	 	36.811646	-122.17536	2458050	0.89	21:23.0	Ventana	34.191	03:50:06:25	6.562		Asteriidae	Stylasterias			Animalia	Forcipulatida	Echinodermata	Stylasterias forreri	Asteroidea							Eukaryota		V3164-04
 	transect	Merluccius productus	435.3	3164	02:43:08:19	http://search.mbari.org/ARCHIVE/frameGrabs/Ventana/images/3164/02_43_13_18.jpg	36.799496	-122.187004	2453444	0.76	13:38.0	Ventana	34.205	02:43:13:18	6.317	Osteichthyes	Merlucciidae	Merluccius	Neopterygii		Animalia	Gadiformes	Chordata	Merluccius productus	Actinopterygii				Vertebrata	Gnathostomata		Eukaryota	Paracanthopterygii	V3164-03
 	cruise	Anthoptilum grandiflorum	455.88	3164	02:14:13:13	 	36.7929	-122.19117	2451026	0.74	44:41.0	Ventana	34.21	02:14:18:14	6.275	Anthozoa	Anthoptilidae	Anthoptilum			Animalia	Pennatulacea	Cnidaria	Anthoptilum grandiflorum	Octocorallia			Sessiliflorae				Eukaryota		V3164-03
 	cruise	Parmaturus xaniurus	521.16	3164	01:23:32:13	http://search.mbari.org/ARCHIVE/frameGrabs/Ventana/images/3164/01_23_36_25.jpg	36.77941	-122.194885	20023740	0.43	52:56.0	Ventana	34.281	01:23:36:25	5.572	Chondrichthyes	Scyliorhinidae	Parmaturus			Animalia	Carcharhiniformes	Chordata	Parmaturus xaniurus	Elasmobranchii				Vertebrata			Eukaryota	Galeomorphi	V3164-02
 	transect	Mediaster aequalis	433.43	3164	02:55:37:26	 	36.799694	-122.1863	2454542	0.77	26:08.0	Ventana	34.202	02:55:41:26	6.322		Goniasteridae	Mediaster			Animalia	Valvatida	Echinodermata	Mediaster aequalis	Asteroidea			Granulosina				Eukaryota		V3164-03
 	cruise	Octopoda	584.3	3164	00:44:09:14	http://search.mbari.org/ARCHIVE/frameGrabs/Ventana/images/3164/00_44_09_11.jpg	36.770718	-122.194214	2447894	0.38	12:35.0	Ventana	34.307	00:44:09:11	5.401	Cephalopoda					Animalia	Octopoda	Mollusca		Coleoidea							Eukaryota	Octopodiformes	V3164-01
 	cruise	Merluccius productus	531.77	3164	01:13:52:00	 	36.777718	-122.19502	2448270	0.4	43:14.0	Ventana	34.291	01:13:55:29	5.51	Osteichthyes	Merlucciidae	Merluccius	Neopterygii		Animalia	Gadiformes	Chordata	Merluccius productus	Actinopterygii				Vertebrata	Gnathostomata		Eukaryota	Paracanthopterygii	V3164-02
 	cruise	Merluccius productus	499.05	3164	01:40:26:11	 	36.78327	-122.194664	2448909	0.48	09:51.0	Ventana	34.267	01:40:31:20	5.691	Osteichthyes	Merlucciidae	Merluccius	Neopterygii		Animalia	Gadiformes	Chordata	Merluccius productus	Actinopterygii				Vertebrata	Gnathostomata		Eukaryota	Paracanthopterygii	V3164-02
 	descend	benthos	584.56	3164	00:29:37:26	http://search.mbari.org/ARCHIVE/frameGrabs/Ventana/images/3164/00_29_38_26.jpg	36.77048	-122.19359	20023710	0.4	58:03.0	Ventana	34.304	00:29:38:26	5.4																			V3164-01
 	transect	Rathbunaster californicus	429.63	3164	02:48:13:25	 	36.80033	-122.186424	2454226	0.77	18:44.0	Ventana	34.205	02:48:17:20	6.314		Labidiasteridae	Rathbunaster			Animalia	Forcipulatida	Echinodermata	Rathbunaster californicus	Asteroidea							Eukaryota		V3164-03
 	cruise	Merluccius productus	500.69	3164	01:39:13:29	 	36.782974	-122.1947	2448473	0.48	08:38.0	Ventana	34.266	01:39:17:15	5.699	Osteichthyes	Merlucciidae	Merluccius	Neopterygii		Animalia	Gadiformes	Chordata	Merluccius productus	Actinopterygii				Vertebrata	Gnathostomata		Eukaryota	Paracanthopterygii	V3164-02
 	transect	Psolus squamatus	435.14	3164	02:57:56:07	 	36.79945	-122.18657	2454602	0.77	28:27.0	Ventana	34.204	02:58:00:20	6.316	Holothuroidea	Psolidae	Psolus			Animalia	Dendrochirotida	Echinodermata	Psolus squamatus								Eukaryota		V3164-03
 	cruise	Anthoptilum grandiflorum	574.24	3164	00:48:48:20	 	36.771744	-122.19432	2447954	0.38	17:15.0	Ventana	34.304	00:48:49:08	5.427	Anthozoa	Anthoptilidae	Anthoptilum			Animalia	Pennatulacea	Cnidaria	Anthoptilum grandiflorum	Octocorallia			Sessiliflorae				Eukaryota		V3164-01
 	transect	Stomphia	434.12	3164	02:57:00:09	 	36.79955	-122.18652	2454572	0.77	27:30.0	Ventana	34.203	02:57:04:29	6.318	Anthozoa	Actinostolidae	Stomphia			Animalia	Actiniaria	Cnidaria		Hexacorallia			Nyantheae				Eukaryota		V3164-03
 	transect	Rathbunaster californicus	430.98	3164	02:47:11:27	 	36.80016	-122.18656	2453718	0.77	17:41.0	Ventana	34.205	02:47:15:21	6.318		Labidiasteridae	Rathbunaster			Animalia	Forcipulatida	Echinodermata	Rathbunaster californicus	Asteroidea							Eukaryota		V3164-03
 	cruise	Anoplopoma fimbria	379.73	3164	03:44:13:01	 	36.810375	-122.17666	2457725	0.99	15:38.0	Ventana	34.18	03:44:22:08	6.762	Osteichthyes	Anoplopomatidae	Anoplopoma	Neopterygii		Animalia	Scorpaeniformes	Chordata	Anoplopoma fimbria	Actinopterygii			Anoplopomatoidei	Vertebrata	Gnathostomata		Eukaryota	Acanthopterygii	V3164-04
 	cruise	cable	420.24	3164	03:21:55:27	http://search.mbari.org/ARCHIVE/frameGrabs/Ventana/images/3164/03_22_02_23.jpg	36.80556	-122.18181	2456666	0.72	53:18.0	Ventana	34.213	03:22:02:23	6.243																			V3164-04
 	cruise	Halipteris californica	470.86	3164	02:01:53:17	 	36.789272	-122.19283	2450770	0.61	31:19.0	Ventana	34.232	02:01:57:24	6.029	Anthozoa	Halipteridae	Halipteris			Animalia	Pennatulacea	Cnidaria	Halipteris californica	Octocorallia			Subselliflorae				Eukaryota		V3164-02
 	transect	Actiniaria sp. 3	431.31	3164	02:52:59:01	 	36.80003	-122.18594	2454394	0.77	23:29.0	Ventana	34.204	02:53:03:18	6.313	Anthozoa					Animalia	Actiniaria	Cnidaria		Hexacorallia							Eukaryota		V3164-03
 	descend	ink	520.36	3164	00:24:52:20	http://search.mbari.org/ARCHIVE/frameGrabs/Ventana/images/3164/00_24_52_05.jpg	36.77057	-122.193825	20023705	0.54	53:17.0	Ventana	34.258	00:24:52:05	5.76																			V3164-01
 	cruise	Parmaturus xaniurus	475.37	3164	01:59:13:07	 	36.788292	-122.193085	2450740	0.52	28:39.0	Ventana	34.256	01:59:17:03	5.787	Chondrichthyes	Scyliorhinidae	Parmaturus			Animalia	Carcharhiniformes	Chordata	Parmaturus xaniurus	Elasmobranchii				Vertebrata			Eukaryota	Galeomorphi	V3164-02
 	cruise	Eptatretus stoutii	429.4	3164	03:02:33:13	 	36.800426	-122.18629	2455836	0.8	33:04.0	Ventana	34.199	03:02:38:28	6.364	Agnatha		Eptatretus			Animalia		Chordata						Vertebrata			Eukaryota		V3164-03
 	transect	Mediaster aequalis	432.58	3164	02:54:51:12	 	36.799793	-122.18618	2454514	0.77	25:22.0	Ventana	34.205	02:54:56:07	6.319		Goniasteridae	Mediaster			Animalia	Valvatida	Echinodermata	Mediaster aequalis	Asteroidea			Granulosina				Eukaryota		V3164-03
 	cruise	cable	371.34	3164	03:54:47:26	http://search.mbari.org/ARCHIVE/frameGrabs/Ventana/images/3164/03_54_56_04.jpg	36.812862	-122.17432	2458168	0.88	26:13.0	Ventana	34.191	03:54:56:04	6.546																			V3164-04
 	cruise	Sebastes	390.36	3164	03:36:33:00	 	36.808758	-122.17839	2456786	0.87	07:57.0	Ventana	34.19	03:36:41:06	6.528	Osteichthyes	Scorpaenidae	Sebastes	Neopterygii		Animalia	Scorpaeniformes	Chordata		Actinopterygii			Scorpaenoidei	Vertebrata	Gnathostomata		Eukaryota	Acanthopterygii	V3164-04
 	cruise	Parmaturus xaniurus	503.64	3164	01:35:51:05	 	36.7824	-122.19469	2448438	0.47	05:15.0	Ventana	34.27	01:35:55:03	5.668	Chondrichthyes	Scyliorhinidae	Parmaturus			Animalia	Carcharhiniformes	Chordata	Parmaturus xaniurus	Elasmobranchii				Vertebrata			Eukaryota	Galeomorphi	V3164-02
 	transect	Rathbunaster californicus	435.11	3164	02:43:24:19	 	36.799534	-122.18698	2453455	0.77	13:54.0	Ventana	34.205	02:43:29:18	6.317		Labidiasteridae	Rathbunaster			Animalia	Forcipulatida	Echinodermata	Rathbunaster californicus	Asteroidea							Eukaryota		V3164-03
 	cruise	trench	533.02	3164	01:12:43:17	http://search.mbari.org/ARCHIVE/frameGrabs/Ventana/images/3164/01_12_47_18.jpg	36.777454	-122.19505	2448265	0.4	42:06.0	Ventana	34.292	01:12:47:18	5.509																			V3164-02
 	cruise	Stylasterias forreri	399.29	3164	03:32:34:07	 	36.807808	-122.17947	2456756	0.79	03:58.0	Ventana	34.201	03:32:43:14	6.381		Asteriidae	Stylasterias			Animalia	Forcipulatida	Echinodermata	Stylasterias forreri	Asteroidea							Eukaryota		V3164-04
 	transect	Psolus squamatus	434.54	3164	02:44:15:02	 	36.79967	-122.18694	2453485	0.76	14:45.0	Ventana	34.204	02:44:19:02	6.317	Holothuroidea	Psolidae	Psolus			Animalia	Dendrochirotida	Echinodermata	Psolus squamatus								Eukaryota		V3164-03
 	cruise	Microstomus pacificus	449.95	3164	02:19:51:02	 	36.794434	-122.190285	2451243	0.75	50:19.0	Ventana	34.209	02:19:55:20	6.288	Osteichthyes	Pleuronectidae	Microstomus	Neopterygii		Animalia	Pleuronectiformes	Chordata	Microstomus pacificus	Actinopterygii				Vertebrata	Gnathostomata		Eukaryota	Acanthopterygii	V3164-03
 	transect	Liponema brevicornis	435.67	3164	02:58:34:21	 	36.799408	-122.186615	2454627	0.76	29:05.0	Ventana	34.205	02:58:38:11	6.316	Anthozoa	Liponematidae	Liponema			Animalia	Actiniaria	Cnidaria	Liponema brevicornis	Hexacorallia			Nyantheae				Eukaryota		V3164-03
 	cruise	Actiniaria sp. 1	561.14	3164	00:55:34:08	 	36.773376	-122.1945	2447995	0.39	24:01.0	Ventana	34.302	00:55:34:21	5.445	Anthozoa					Animalia	Actiniaria	Cnidaria		Hexacorallia							Eukaryota		V3164-01
 	cruise	cable	448.29	3164	02:25:00:07	http://search.mbari.org/ARCHIVE/frameGrabs/Ventana/images/3164/02_25_05_01.jpg	36.796032	-122.18937	2451979	0.75	55:29.0	Ventana	34.209	02:25:05:01	6.291																			V3164-03
 	cruise	cable	353	3164	04:12:01:09	http://search.mbari.org/ARCHIVE/frameGrabs/Ventana/images/3164/04_12_11_20.jpg	36.817547	-122.172195	2458957	0.9	43:54.0	Ventana	34.189	04:12:11:20	6.584																			V3164-05
 	cruise	Sebastes	448.01	3164	02:22:23:12	 	36.795177	-122.18984	2451303	0.74	52:52.0	Ventana	34.21	02:22:28:16	6.284	Osteichthyes	Scorpaenidae	Sebastes	Neopterygii		Animalia	Scorpaeniformes	Chordata		Actinopterygii			Scorpaenoidei	Vertebrata	Gnathostomata		Eukaryota	Acanthopterygii	V3164-03
 	cruise	Asteroidea	571.25	3164	00:49:58:18	 	36.772102	-122.19442	2447965	0.39	18:25.0	Ventana	34.304	00:50:00:17	5.43						Animalia		Echinodermata		Asteroidea							Eukaryota		V3164-01
 	cruise	Anthoptilum grandiflorum	494.81	3164	01:43:15:06	 	36.784107	-122.194595	2450627	0.47	12:40.0	Ventana	34.267	01:43:20:09	5.684	Anthozoa	Anthoptilidae	Anthoptilum			Animalia	Pennatulacea	Cnidaria	Anthoptilum grandiflorum	Octocorallia			Sessiliflorae				Eukaryota		V3164-02
 	transect	Mediaster	433.43	3164	02:45:09:01	 	36.799824	-122.18687	2453515	0.77	15:39.0	Ventana	34.204	02:45:14:13	6.317		Goniasteridae	Mediaster			Animalia	Valvatida	Echinodermata		Asteroidea			Granulosina				Eukaryota		V3164-03
 	cruise	Merluccius productus	460.43	3164	02:10:34:19	 	36.791862	-122.19164	2451003	0.68	41:02.0	Ventana	34.222	02:10:39:12	6.18	Osteichthyes	Merlucciidae	Merluccius	Neopterygii		Animalia	Gadiformes	Chordata	Merluccius productus	Actinopterygii				Vertebrata	Gnathostomata		Eukaryota	Paracanthopterygii	V3164-03
 	cruise	Sebastes diploproa	363.12	3164	04:01:25:14	http://search.mbari.org/ARCHIVE/frameGrabs/Ventana/images/3164/04_01_33_15.jpg	36.81466	-122.17315	2458251	0.91	32:51.0	Ventana	34.187	04:01:33:15	6.609	Osteichthyes	Scorpaenidae	Sebastes	Neopterygii		Animalia	Scorpaeniformes	Chordata	Sebastes diploproa	Actinopterygii			Scorpaenoidei	Vertebrata	Gnathostomata		Eukaryota	Acanthopterygii	V3164-04
 	cruise	Parmaturus xaniurus	490.02	3164	01:46:49:29	 	36.785095	-122.19432	2450657	0.49	16:15.0	Ventana	34.263	01:46:53:16	5.717	Chondrichthyes	Scyliorhinidae	Parmaturus			Animalia	Carcharhiniformes	Chordata	Parmaturus xaniurus	Elasmobranchii				Vertebrata			Eukaryota	Galeomorphi	V3164-02
 	cruise	Anthoptilum grandiflorum	447.03	3164	02:26:46:19	 	36.79657	-122.18905	2452069	0.75	57:15.0	Ventana	34.208	02:26:51:26	6.298	Anthozoa	Anthoptilidae	Anthoptilum			Animalia	Pennatulacea	Cnidaria	Anthoptilum grandiflorum	Octocorallia			Sessiliflorae				Eukaryota		V3164-03
 	cruise	Sebastes	447.92	3164	02:24:14:09	 	36.795727	-122.18953	2451882	0.75	54:42.0	Ventana	34.208	02:24:19:04	6.292	Osteichthyes	Scorpaenidae	Sebastes	Neopterygii		Animalia	Scorpaeniformes	Chordata		Actinopterygii			Scorpaenoidei	Vertebrata	Gnathostomata		Eukaryota	Acanthopterygii	V3164-03
 	descend	water	157.41	3164	00:12:08:28	 	36.77103	-122.19395	2447852	3.28	40:33.0	Ventana	33.793	00:12:09:09	10.177																			V3164-01
 	cruise	Sebastes diploproa	347.85	3164	04:18:36:26	 	36.819595	-122.171616	2459017	0.91	50:30.0	Ventana	34.187	04:18:47:22	6.622	Osteichthyes	Scorpaenidae	Sebastes	Neopterygii		Animalia	Scorpaeniformes	Chordata	Sebastes diploproa	Actinopterygii			Scorpaenoidei	Vertebrata	Gnathostomata		Eukaryota	Acanthopterygii	V3164-05
 	transect	Porifera	429.04	3164	02:48:50:09	 	36.80041	-122.186386	2454281	0.77	19:20.0	Ventana	34.205	02:48:53:28	6.312						Animalia		Porifera									Eukaryota		V3164-03
 	transect	Rathbunaster californicus	431.92	3164	02:53:43:15	 	36.79994	-122.18603	2454454	0.76	24:13.0	Ventana	34.204	02:53:48:13	6.315		Labidiasteridae	Rathbunaster			Animalia	Forcipulatida	Echinodermata	Rathbunaster californicus	Asteroidea							Eukaryota		V3164-03
 	cruise	Lycodes cortezianus	447.69	3164	02:26:06:20	 	36.79637	-122.18917	2452039	0.75	56:35.0	Ventana	34.209	02:26:11:07	6.292	Osteichthyes	Zoarcidae	Lycodes	Neopterygii		Animalia	Perciformes	Chordata	Lycodes cortezianus	Actinopterygii			Zoarcoidei	Vertebrata	Gnathostomata		Eukaryota	Acanthopterygii	V3164-03
 	transect	Mediaster aequalis	431.91	3164	02:53:39:15	 	36.799946	-122.18601	2454447	0.76	24:09.0	Ventana	34.204	02:53:43:02	6.315		Goniasteridae	Mediaster			Animalia	Valvatida	Echinodermata	Mediaster aequalis	Asteroidea			Granulosina				Eukaryota		V3164-03
 	cruise	Anoplopoma fimbria	474.56	3164	01:59:41:06	http://search.mbari.org/ARCHIVE/frameGrabs/Ventana/images/3164/01_59_45_24.jpg	36.788467	-122.19303	2450747	0.52	29:07.0	Ventana	34.255	01:59:45:24	5.791	Osteichthyes	Anoplopomatidae	Anoplopoma	Neopterygii		Animalia	Scorpaeniformes	Chordata	Anoplopoma fimbria	Actinopterygii			Anoplopomatoidei	Vertebrata	Gnathostomata		Eukaryota	Acanthopterygii	V3164-02
 	transect	Mediaster aequalis	432.19	3164	02:54:11:14	 	36.799877	-122.18609	2454477	0.77	24:42.0	Ventana	34.204	02:54:15:10	6.316		Goniasteridae	Mediaster			Animalia	Valvatida	Echinodermata	Mediaster aequalis	Asteroidea			Granulosina				Eukaryota		V3164-03
 	cruise	Agonidae	378.53	3164	03:45:47:13	 	36.810726	-122.17631	2457748	0.95	17:12.0	Ventana	34.182	03:45:56:08	6.699	Osteichthyes	Agonidae		Neopterygii		Animalia	Scorpaeniformes	Chordata		Actinopterygii				Vertebrata	Gnathostomata		Eukaryota	Acanthopterygii	V3164-04
 	cruise	Sebastolobus	447.48	3164	02:23:19:25	 	36.795437	-122.18969	2451852	0.75	53:48.0	Ventana	34.209	02:23:24:24	6.287	Osteichthyes	Scorpaenidae	Sebastolobus	Neopterygii		Animalia	Scorpaeniformes	Chordata		Actinopterygii			Scorpaenoidei	Vertebrata	Gnathostomata		Eukaryota	Acanthopterygii	V3164-03
 	transect	Psolus squamatus	430.37	3164	02:47:39:26	 	36.80024	-122.186485	2453755	0.77	18:10.0	Ventana	34.204	02:47:44:20	6.316	Holothuroidea	Psolidae	Psolus			Animalia	Dendrochirotida	Echinodermata	Psolus squamatus								Eukaryota		V3164-03
 	cruise	Hippasteria	542.83	3164	01:05:40:00	http://search.mbari.org/ARCHIVE/frameGrabs/Ventana/images/3164/01_05_44_13.jpg	36.775948	-122.19491	20023728	0.39	35:02.0	Ventana	34.297	01:05:44:13	5.472		Goniasteridae	Hippasteria			Animalia	Valvatida	Echinodermata		Asteroidea			Granulosina				Eukaryota		V3164-02
 	cruise	Stylasterias forreri	373.15	3164	03:52:35:00	 	36.812286	-122.17479	2458145	0.88	24:00.0	Ventana	34.191	03:52:43:13	6.539		Asteriidae	Stylasterias			Animalia	Forcipulatida	Echinodermata	Stylasterias forreri	Asteroidea							Eukaryota		V3164-04
 	transect	Hippasteria spinosa	432.53	3164	02:54:33:13	 	36.79983	-122.186134	2454507	0.77	25:04.0	Ventana	34.204	02:54:38:18	6.318		Goniasteridae	Hippasteria			Animalia	Valvatida	Echinodermata	Hippasteria spinosa	Asteroidea			Granulosina				Eukaryota		V3164-03
 	transect	Henricia aspera	433.42	3164	02:55:31:27	 	36.799706	-122.18629	2454537	0.77	26:02.0	Ventana	34.203	02:55:36:12	6.321		Echinasteridae	Henricia			Animalia	Spinulosida	Echinodermata	Henricia aspera	Asteroidea			Leptognathina				Eukaryota		V3164-03
 	transect	Rathbunaster californicus	431.11	3164	02:52:51:02	 	36.800045	-122.18593	2454387	0.77	23:21.0	Ventana	34.205	02:52:54:27	6.313		Labidiasteridae	Rathbunaster			Animalia	Forcipulatida	Echinodermata	Rathbunaster californicus	Asteroidea							Eukaryota		V3164-03
 	cruise	Actiniaria sp. 3	423.66	3164	03:16:38:06	 	36.80428	-122.183	2456613	0.72	48:01.0	Ventana	34.213	03:16:47:08	6.238	Anthozoa					Animalia	Actiniaria	Cnidaria		Hexacorallia							Eukaryota		V3164-04
 	cruise	Sebastes	370.31	3164	03:55:35:25	 	36.81306	-122.174164	2458175	0.89	27:01.0	Ventana	34.191	03:55:44:04	6.562	Osteichthyes	Scorpaenidae	Sebastes	Neopterygii		Animalia	Scorpaeniformes	Chordata		Actinopterygii			Scorpaenoidei	Vertebrata	Gnathostomata		Eukaryota	Acanthopterygii	V3164-04
 	cruise	Lycodes cortezianus	375.34	3164	03:48:40:07	 	36.811398	-122.175606	2458025	0.88	20:05.0	Ventana	34.193	03:48:49:06	6.562	Osteichthyes	Zoarcidae	Lycodes	Neopterygii		Animalia	Perciformes	Chordata	Lycodes cortezianus	Actinopterygii			Zoarcoidei	Vertebrata	Gnathostomata		Eukaryota	Acanthopterygii	V3164-04
 	cruise	Stylasterias forreri	424.31	3164	03:14:49:25	 	36.80386	-122.18336	2456583	0.71	46:12.0	Ventana	34.215	03:14:59:01	6.227		Asteriidae	Stylasterias			Animalia	Forcipulatida	Echinodermata	Stylasterias forreri	Asteroidea							Eukaryota		V3164-04
 	cruise	Sebastes	434.46	3164	02:38:13:13	 	36.79919	-122.187195	2452332	0.77	08:43.0	Ventana	34.205	02:38:18:21	6.319	Osteichthyes	Scorpaenidae	Sebastes	Neopterygii		Animalia	Scorpaeniformes	Chordata		Actinopterygii			Scorpaenoidei	Vertebrata	Gnathostomata		Eukaryota	Acanthopterygii	V3164-03
 	cruise	Hippasteria	362.25	3164	04:02:05:13	 	36.814796	-122.17309	2458258	0.91	33:31.0	Ventana	34.187	04:02:14:06	6.614		Goniasteridae	Hippasteria			Animalia	Valvatida	Echinodermata		Asteroidea			Granulosina				Eukaryota		V3164-04
 	cruise	Sebastes diploproa	349.38	3164	04:17:40:28	 	36.819336	-122.17168	2459010	0.9	49:34.0	Ventana	34.188	04:17:51:25	6.589	Osteichthyes	Scorpaenidae	Sebastes	Neopterygii		Animalia	Scorpaeniformes	Chordata	Sebastes diploproa	Actinopterygii			Scorpaenoidei	Vertebrata	Gnathostomata		Eukaryota	Acanthopterygii	V3164-05
 	transect	Mediaster aequalis	435.62	3164	02:58:26:21	 	36.799416	-122.18661	2454620	0.76	28:57.0	Ventana	34.205	02:58:30:20	6.316		Goniasteridae	Mediaster			Animalia	Valvatida	Echinodermata	Mediaster aequalis	Asteroidea			Granulosina				Eukaryota		V3164-03
 	transect	Mediaster	433.18	3164	02:45:21:00	 	36.799854	-122.186844	2453522	0.77	15:51.0	Ventana	34.204	02:45:25:22	6.317		Goniasteridae	Mediaster			Animalia	Valvatida	Echinodermata		Asteroidea			Granulosina				Eukaryota		V3164-03
 	transect	Rathbunaster californicus	434.22	3164	02:44:29:02	 	36.799713	-122.18693	2453492	0.77	14:59.0	Ventana	34.205	02:44:33:23	6.317		Labidiasteridae	Rathbunaster			Animalia	Forcipulatida	Echinodermata	Rathbunaster californicus	Asteroidea							Eukaryota		V3164-03
 	transect	Allocentrotus fragilis	434.74	3164	02:57:38:07	 	36.79948	-122.186554	2454590	0.77	28:09.0	Ventana	34.205	02:57:42:14	6.316	Echinoidea	Strongylocentrotidae	Allocentrotus			Animalia	Echinoida	Echinodermata	Allocentrotus fragilis	Euechinoidea			Echinacea				Eukaryota		V3164-03
 	transect	Rathbunaster californicus	429.35	3164	02:48:29:25	 	36.80037	-122.18641	2454244	0.77	19:00.0	Ventana	34.205	02:48:34:16	6.313		Labidiasteridae	Rathbunaster			Animalia	Forcipulatida	Echinodermata	Rathbunaster californicus	Asteroidea							Eukaryota		V3164-03
 	cruise	Merluccius productus	353	3164	04:14:52:03	 	36.818367	-122.171936	2458980	0.9	46:45.0	Ventana	34.189	04:15:02:11	6.578	Osteichthyes	Merlucciidae	Merluccius	Neopterygii		Animalia	Gadiformes	Chordata	Merluccius productus	Actinopterygii				Vertebrata	Gnathostomata		Eukaryota	Paracanthopterygii	V3164-05
 	cruise	Halipteris californica	568.53	3164	00:51:11:01	 	36.77243	-122.19448	2447972	0.39	19:37.0	Ventana	34.303	00:51:11:24	5.437	Anthozoa	Halipteridae	Halipteris			Animalia	Pennatulacea	Cnidaria	Halipteris californica	Octocorallia			Subselliflorae				Eukaryota		V3164-01
 	cruise	Lycodes cortezianus	446.92	3164	02:26:32:20	 	36.7965	-122.18909	2452046	0.75	57:01.0	Ventana	34.208	02:26:37:16	6.296	Osteichthyes	Zoarcidae	Lycodes	Neopterygii		Animalia	Perciformes	Chordata	Lycodes cortezianus	Actinopterygii			Zoarcoidei	Vertebrata	Gnathostomata		Eukaryota	Acanthopterygii	V3164-03
 	cruise	Stylasterias forreri	359.54	3164	04:05:56:21	 	36.815838	-122.17267	2458318	0.91	37:22.0	Ventana	34.187	04:06:04:03	6.603		Asteriidae	Stylasterias			Animalia	Forcipulatida	Echinodermata	Stylasterias forreri	Asteroidea							Eukaryota		V3164-04
 	cruise	Microstomus pacificus	549.32	3164	01:02:27:25	 	36.77501	-122.194786	2448032	0.39	30:55.0	Ventana	34.299	01:02:28:23	5.462	Osteichthyes	Pleuronectidae	Microstomus	Neopterygii		Animalia	Pleuronectiformes	Chordata	Microstomus pacificus	Actinopterygii				Vertebrata	Gnathostomata		Eukaryota	Acanthopterygii	V3164-01
 	cruise	Stomphia	469.67	3164	02:03:20:00	 	36.789593	-122.192604	2450777	0.69	32:46.0	Ventana	34.222	02:03:23:14	6.168	Anthozoa	Actinostolidae	Stomphia			Animalia	Actiniaria	Cnidaria		Hexacorallia			Nyantheae				Eukaryota		V3164-02
 	transect	Porifera	430.93	3164	02:47:13:27	 	36.800163	-122.186554	2453725	0.77	17:43.0	Ventana	34.205	02:47:17:08	6.318						Animalia		Porifera									Eukaryota		V3164-03
 	transect	Benthopecten	431.05	3164	02:46:57:27	 	36.800114	-122.18661	2453702	0.77	17:27.0	Ventana	34.204	02:47:01:23	6.318		Benthopectinidae	Benthopecten			Animalia		Echinodermata									Eukaryota		V3164-03
 	cruise	Merluccius productus	500.39	3164	01:39:26:13	 	36.78302	-122.1947	2448482	0.48	08:50.0	Ventana	34.266	01:39:30:19	5.699	Osteichthyes	Merlucciidae	Merluccius	Neopterygii		Animalia	Gadiformes	Chordata	Merluccius productus	Actinopterygii				Vertebrata	Gnathostomata		Eukaryota	Paracanthopterygii	V3164-02
 	cruise	Stomphia	509.73	3164	01:31:30:13	 	36.781357	-122.19472	2448422	0.46	00:54.0	Ventana	34.273	01:31:34:02	5.647	Anthozoa	Actinostolidae	Stomphia			Animalia	Actiniaria	Cnidaria		Hexacorallia			Nyantheae				Eukaryota		V3164-02
 	cruise	Sebastolobus	426.93	3164	03:04:41:25	 	36.80097	-122.18592	2455852	0.77	35:13.0	Ventana	34.204	03:04:46:20	6.307	Osteichthyes	Scorpaenidae	Sebastolobus	Neopterygii		Animalia	Scorpaeniformes	Chordata		Actinopterygii			Scorpaenoidei	Vertebrata	Gnathostomata		Eukaryota	Acanthopterygii	V3164-03
 	cruise	Actiniaria sp. 3	423.56	3164	03:17:08:20	 	36.804363	-122.18292	2456620	0.72	48:31.0	Ventana	34.213	03:17:15:17	6.233	Anthozoa					Animalia	Actiniaria	Cnidaria		Hexacorallia							Eukaryota		V3164-04
 	cruise	Actiniaria sp. 1	478.74	3164	01:57:02:11	 	36.787613	-122.19346	2450724	0.53	26:28.0	Ventana	34.254	01:57:06:00	5.82	Anthozoa					Animalia	Actiniaria	Cnidaria		Hexacorallia							Eukaryota		V3164-02
 	cruise	Actiniaria sp. 3	404.16	3164	03:30:49:25	 	36.807423	-122.179924	2456740	0.77	02:13.0	Ventana	34.204	03:30:58:09	6.338	Anthozoa					Animalia	Actiniaria	Cnidaria		Hexacorallia							Eukaryota		V3164-04
 	cruise	Allocentrotus fragilis	424.37	3164	03:14:59:25	 	36.80391	-122.18331	2456590	0.71	46:22.0	Ventana	34.215	03:15:08:22	6.227	Echinoidea	Strongylocentrotidae	Allocentrotus			Animalia	Echinoida	Echinodermata	Allocentrotus fragilis	Euechinoidea			Echinacea				Eukaryota		V3164-04
 	cruise	Microstomus pacificus	374.84	3164	03:49:12:06	 	36.8115	-122.175514	2458034	0.89	20:37.0	Ventana	34.189	03:49:20:20	6.594	Osteichthyes	Pleuronectidae	Microstomus	Neopterygii		Animalia	Pleuronectiformes	Chordata	Microstomus pacificus	Actinopterygii				Vertebrata	Gnathostomata		Eukaryota	Acanthopterygii	V3164-04
 	cruise	Careproctus melanurus	489.41	3164	01:47:35:28	 	36.785275	-122.19427	2450664	0.49	17:01.0	Ventana	34.266	01:47:40:21	5.712	Osteichthyes	Liparidae	Careproctus	Neopterygii		Animalia	Scorpaeniformes	Chordata	Careproctus melanurus	Actinopterygii				Vertebrata	Gnathostomata		Eukaryota	Acanthopterygii	V3164-02
 	cruise	Parmaturus xaniurus	362.56	3164	04:00:45:15	 	36.814503	-122.17323	2458244	0.91	32:10.0	Ventana	34.188	04:00:53:01	6.613	Chondrichthyes	Scyliorhinidae	Parmaturus			Animalia	Carcharhiniformes	Chordata	Parmaturus xaniurus	Elasmobranchii				Vertebrata			Eukaryota	Galeomorphi	V3164-04
 	cruise	Sebastes	458.34	3164	02:12:05:01	 	36.792297	-122.191444	2451017	0.74	42:33.0	Ventana	34.21	02:12:09:28	6.276	Osteichthyes	Scorpaenidae	Sebastes	Neopterygii		Animalia	Scorpaeniformes	Chordata		Actinopterygii			Scorpaenoidei	Vertebrata	Gnathostomata		Eukaryota	Acanthopterygii	V3164-03
 	cruise	Sebastes	385.4	3164	03:40:44:07	 	36.809574	-122.17752	2457123	0.92	12:09.0	Ventana	34.184	03:40:51:19	6.64	Osteichthyes	Scorpaenidae	Sebastes	Neopterygii		Animalia	Scorpaeniformes	Chordata		Actinopterygii			Scorpaenoidei	Vertebrata	Gnathostomata		Eukaryota	Acanthopterygii	V3164-04
 	cruise	Ceriantharia sp. 1	536.26	3164	01:10:41:06	 	36.776966	-122.19505	2448249	0.4	40:04.0	Ventana	34.293	01:10:44:17	5.492	Anthozoa					Animalia	Ceriantharia	Cnidaria		Ceriantipatharia							Eukaryota		V3164-02
 	cruise	Merluccius productus	485.48	3164	01:51:17:06	 	36.786182	-122.19394	2450694	0.5	20:42.0	Ventana	34.258	01:51:20:22	5.754	Osteichthyes	Merlucciidae	Merluccius	Neopterygii		Animalia	Gadiformes	Chordata	Merluccius productus	Actinopterygii				Vertebrata	Gnathostomata		Eukaryota	Paracanthopterygii	V3164-02
 	cruise	Hippasteria	349.97	3164	04:17:18:14	 	36.81926	-122.1717	2459003	0.9	49:12.0	Ventana	34.188	04:17:29:03	6.584		Goniasteridae	Hippasteria			Animalia	Valvatida	Echinodermata		Asteroidea			Granulosina				Eukaryota		V3164-05
 	transect	Asbestopluma	434.34	3164	02:57:14:08	 	36.799522	-122.18653	2454581	0.77	27:44.0	Ventana	34.205	02:57:18:09	6.316	Demospongiae	Cladorhizidae	Asbestopluma			Animalia	Poecilosclerida	Porifera					Mycalina				Eukaryota		V3164-03
 	transect	Rathbunaster californicus	433.55	3164	02:55:53:26	 	36.799664	-122.18635	2454551	0.77	26:24.0	Ventana	34.204	02:55:58:15	6.316		Labidiasteridae	Rathbunaster			Animalia	Forcipulatida	Echinodermata	Rathbunaster californicus	Asteroidea							Eukaryota		V3164-03
 	cruise	Chionoecetes tanneri	566.6	3164	00:52:07:14	 	36.772655	-122.194466	2447979	0.39	20:34.0	Ventana	34.301	00:52:07:20	5.44	Malacostraca	Majidae	Chionoecetes		Brachyura	Animalia	Decapoda	Arthropoda	Chionoecetes tanneri	Eumalacostraca						Majoidea	Eukaryota	Eucarida	V3164-01
 	transect	Benthopecten	434.85	3164	02:43:43:03	 	36.799576	-122.186966	2453469	0.77	14:12.0	Ventana	34.205	02:43:47:16	6.318		Benthopectinidae	Benthopecten			Animalia		Echinodermata									Eukaryota		V3164-03
 	cruise	Actiniaria sp. 3	353.97	3164	04:10:47:27	 	36.81717	-122.172295	2458357	0.9	42:13.0	Ventana	34.187	04:10:55:22	6.587	Anthozoa					Animalia	Actiniaria	Cnidaria		Hexacorallia							Eukaryota		V3164-04
 	cruise	Allocentrotus fragilis	353.47	3164	04:14:19:20	 	36.818184	-122.171974	2458973	0.9	46:13.0	Ventana	34.19	04:14:31:10	6.574	Echinoidea	Strongylocentrotidae	Allocentrotus			Animalia	Echinoida	Echinodermata	Allocentrotus fragilis	Euechinoidea			Echinacea				Eukaryota		V3164-05
 	cruise	Rathbunaster californicus	360.98	3164	04:03:15:26	 	36.81511	-122.17294	2458267	0.92	34:41.0	Ventana	34.188	04:03:24:24	6.612		Labidiasteridae	Rathbunaster			Animalia	Forcipulatida	Echinodermata	Rathbunaster californicus	Asteroidea							Eukaryota		V3164-04
 	transect	Rathbunaster californicus	432.53	3164	02:45:47:14	 	36.799927	-122.18679	2453559	0.77	16:17.0	Ventana	34.204	02:45:50:26	6.318		Labidiasteridae	Rathbunaster			Animalia	Forcipulatida	Echinodermata	Rathbunaster californicus	Asteroidea							Eukaryota		V3164-03
 	transect	Actiniaria sp. 3	429.38	3164	02:48:25:24	 	36.80036	-122.18641	2454235	0.77	18:56.0	Ventana	34.205	02:48:30:04	6.313	Anthozoa					Animalia	Actiniaria	Cnidaria		Hexacorallia							Eukaryota		V3164-03
 	transect	Microstomus pacificus	433.13	3164	02:45:25:15	 	36.799866	-122.18684	2453529	0.77	15:55.0	Ventana	34.204	02:45:29:15	6.318	Osteichthyes	Pleuronectidae	Microstomus	Neopterygii		Animalia	Pleuronectiformes	Chordata	Microstomus pacificus	Actinopterygii				Vertebrata	Gnathostomata		Eukaryota	Acanthopterygii	V3164-03
 	cruise	Microstomus pacificus	555.31	3164	00:59:09:01	 	36.774216	-122.19463	2448009	0.39	27:36.0	Ventana	34.3	00:59:09:14	5.451	Osteichthyes	Pleuronectidae	Microstomus	Neopterygii		Animalia	Pleuronectiformes	Chordata	Microstomus pacificus	Actinopterygii				Vertebrata	Gnathostomata		Eukaryota	Acanthopterygii	V3164-01
 	transect	Rathbunaster californicus	435.36	3164	02:58:08:07	 	36.79943	-122.186584	2454611	0.76	28:39.0	Ventana	34.205	02:58:12:11	6.316		Labidiasteridae	Rathbunaster			Animalia	Forcipulatida	Echinodermata	Rathbunaster californicus	Asteroidea							Eukaryota		V3164-03
 	cruise	Chionoecetes tanneri	483.84	3164	01:52:37:19	 	36.78653	-122.19384	2450701	0.5	22:02.0	Ventana	34.261	01:52:42:14	5.748	Malacostraca	Majidae	Chionoecetes		Brachyura	Animalia	Decapoda	Arthropoda	Chionoecetes tanneri	Eumalacostraca						Majoidea	Eukaryota	Eucarida	V3164-02
 	cruise	Merluccius productus	373.79	3164	03:51:35:03	 	36.812023	-122.175	2458071	0.87	23:00.0	Ventana	34.192	03:51:44:07	6.534	Osteichthyes	Merlucciidae	Merluccius	Neopterygii		Animalia	Gadiformes	Chordata	Merluccius productus	Actinopterygii				Vertebrata	Gnathostomata		Eukaryota	Paracanthopterygii	V3164-04
 	cruise	Microstomus pacificus	426.93	3164	03:05:30:09	 	36.80118	-122.185745	2455875	0.76	36:01.0	Ventana	34.205	03:05:34:01	6.304	Osteichthyes	Pleuronectidae	Microstomus	Neopterygii		Animalia	Pleuronectiformes	Chordata	Microstomus pacificus	Actinopterygii				Vertebrata	Gnathostomata		Eukaryota	Acanthopterygii	V3164-03
 	cruise	Liponema brevicornis	511.89	3164	01:30:00:01	 	36.78096	-122.19475	2448415	0.46	59:24.0	Ventana	34.274	01:30:04:09	5.637	Anthozoa	Liponematidae	Liponema			Animalia	Actiniaria	Cnidaria	Liponema brevicornis	Hexacorallia			Nyantheae				Eukaryota		V3164-02
 	cruise	Microstomus pacificus	409.15	3164	03:29:17:13	 	36.807034	-122.180305	2456717	0.75	00:41.0	Ventana	34.208	03:29:25:13	6.299	Osteichthyes	Pleuronectidae	Microstomus	Neopterygii		Animalia	Pleuronectiformes	Chordata	Microstomus pacificus	Actinopterygii				Vertebrata	Gnathostomata		Eukaryota	Acanthopterygii	V3164-04
 	transect	Benthopecten	435.25	3164	02:43:10:19	 	36.799503	-122.187	2453446	0.76	13:40.0	Ventana	34.205	02:43:15:26	6.317		Benthopectinidae	Benthopecten			Animalia		Echinodermata									Eukaryota		V3164-03
 	cruise	Asbestopluma	368.93	3164	03:56:50:07	 	36.813396	-122.17391	2458221	0.9	28:16.0	Ventana	34.189	03:56:57:28	6.594	Demospongiae	Cladorhizidae	Asbestopluma			Animalia	Poecilosclerida	Porifera					Mycalina				Eukaryota		V3164-04
 	transect	Psolus squamatus	432.84	3164	02:55:11:27	 	36.799747	-122.18623	2454521	0.77	25:42.0	Ventana	34.203	02:55:15:17	6.323	Holothuroidea	Psolidae	Psolus			Animalia	Dendrochirotida	Echinodermata	Psolus squamatus								Eukaryota		V3164-03
 	cruise	Umbellula lindahli	531.02	3164	01:14:13:29	 	36.777817	-122.19502	2448272	0.41	43:37.0	Ventana	34.291	01:14:17:23	5.511	Anthozoa	Umbellulidae	Umbellula			Animalia	Pennatulacea	Cnidaria	Umbellula lindahli	Octocorallia			Sessiliflorae				Eukaryota		V3164-02
 	cruise	Merluccius productus	374.81	3164	03:49:34:06	 	36.81157	-122.175446	2458041	0.92	20:59.0	Ventana	34.185	03:49:42:09	6.627	Osteichthyes	Merlucciidae	Merluccius	Neopterygii		Animalia	Gadiformes	Chordata	Merluccius productus	Actinopterygii				Vertebrata	Gnathostomata		Eukaryota	Paracanthopterygii	V3164-04
 	transect	Rathbunaster californicus	433.91	3164	02:44:49:01	 	36.79977	-122.1869	2453506	0.77	15:19.0	Ventana	34.205	02:44:54:03	6.316		Labidiasteridae	Rathbunaster			Animalia	Forcipulatida	Echinodermata	Rathbunaster californicus	Asteroidea							Eukaryota		V3164-03
 	cruise	Allocentrotus fragilis	434.99	3164	02:39:35:25	 	36.79938	-122.187065	2452348	0.76	10:05.0	Ventana	34.206	02:39:40:24	6.318	Echinoidea	Strongylocentrotidae	Allocentrotus			Animalia	Echinoida	Echinodermata	Allocentrotus fragilis	Euechinoidea			Echinacea				Eukaryota		V3164-03
 	transect	Rathbunaster californicus	434.24	3164	02:57:08:08	 	36.799538	-122.18652	2454574	0.77	27:38.0	Ventana	34.205	02:57:11:20	6.316		Labidiasteridae	Rathbunaster			Animalia	Forcipulatida	Echinodermata	Rathbunaster californicus	Asteroidea							Eukaryota		V3164-03
 	cruise	Anthoptilum grandiflorum	573.44	3164	00:49:08:20	 	36.771847	-122.19435	2447956	0.39	17:35.0	Ventana	34.302	00:49:09:27	5.432	Anthozoa	Anthoptilidae	Anthoptilum			Animalia	Pennatulacea	Cnidaria	Anthoptilum grandiflorum	Octocorallia			Sessiliflorae				Eukaryota		V3164-01
 	transect	Rathbunaster californicus	434.79	3164	02:43:49:03	 	36.79959	-122.18696	2453476	0.77	14:18.0	Ventana	34.205	02:43:52:14	6.318		Labidiasteridae	Rathbunaster			Animalia	Forcipulatida	Echinodermata	Rathbunaster californicus	Asteroidea							Eukaryota		V3164-03
 	cruise	Parmaturus xaniurus	551.92	3164	01:01:01:12	 	36.774647	-122.194756	2448016	0.39	29:28.0	Ventana	34.301	01:01:02:09	5.453	Chondrichthyes	Scyliorhinidae	Parmaturus			Animalia	Carcharhiniformes	Chordata	Parmaturus xaniurus	Elasmobranchii				Vertebrata			Eukaryota	Galeomorphi	V3164-01
 	transect	Psolus squamatus	435.6	3164	02:42:24:21	http://search.mbari.org/ARCHIVE/frameGrabs/Ventana/images/3164/02_42_27_23.jpg	36.799404	-122.18704	2452438	0.76	12:54.0	Ventana	34.206	02:42:27:23	6.315	Holothuroidea	Psolidae	Psolus			Animalia	Dendrochirotida	Echinodermata	Psolus squamatus								Eukaryota		V3164-03
 	cruise	Sebastes	448.09	3164	02:24:42:08	 	36.79594	-122.18942	2451889	0.75	55:11.0	Ventana	34.209	02:24:46:02	6.291	Osteichthyes	Scorpaenidae	Sebastes	Neopterygii		Animalia	Scorpaeniformes	Chordata		Actinopterygii			Scorpaenoidei	Vertebrata	Gnathostomata		Eukaryota	Acanthopterygii	V3164-03
 	transect	Actiniaria sp. 3	431.92	3164	02:53:47:14	 	36.79993	-122.186035	2454461	0.76	24:17.0	Ventana	34.204	02:53:51:18	6.315	Anthozoa					Animalia	Actiniaria	Cnidaria		Hexacorallia							Eukaryota		V3164-03
 	cruise	Umbellula lindahli	564.04	3164	00:53:37:27	 	36.772964	-122.19451	2447986	0.39	22:04.0	Ventana	34.301	00:53:38:11	5.443	Anthozoa	Umbellulidae	Umbellula			Animalia	Pennatulacea	Cnidaria	Umbellula lindahli	Octocorallia			Sessiliflorae				Eukaryota		V3164-01
 	cruise	Liponema brevicornis	506.12	3164	01:34:18:23	http://search.mbari.org/ARCHIVE/frameGrabs/Ventana/images/3164/01_34_22_05.jpg	36.782005	-122.194695	20023742	0.46	03:43.0	Ventana	34.272	01:34:22:05	5.648	Anthozoa	Liponematidae	Liponema			Animalia	Actiniaria	Cnidaria	Liponema brevicornis	Hexacorallia			Nyantheae				Eukaryota		V3164-02
 	transect	Benthopecten	431.83	3164	02:53:29:00	 	36.79997	-122.18599	2454431	0.77	23:59.0	Ventana	34.204	02:53:34:12	6.315		Benthopectinidae	Benthopecten			Animalia		Echinodermata									Eukaryota		V3164-03
 	cruise	Liponema brevicornis	420.91	3164	03:20:59:13	 	36.805325	-122.181984	2456657	0.72	52:22.0	Ventana	34.213	03:21:07:14	6.238	Anthozoa	Liponematidae	Liponema			Animalia	Actiniaria	Cnidaria	Liponema brevicornis	Hexacorallia			Nyantheae				Eukaryota		V3164-04
 	transect	Psolus squamatus	429.18	3164	02:48:35:24	 	36.80038	-122.1864	2454258	0.77	19:06.0	Ventana	34.205	02:48:40:16	6.313	Holothuroidea	Psolidae	Psolus			Animalia	Dendrochirotida	Echinodermata	Psolus squamatus								Eukaryota		V3164-03
calibrated | self | 23 cm	launch	lasers	 	3165	 	http://search.mbari.org/ARCHIVE/frameGrabs/Ventana/images/3165/00_00_58_24.jpg	 	 	20023803	 	 	Ventana	 	00:00:58:24	 																			V3165-01
population-density | self | dense	descend	Merluccius productus	349.7	3165	04:42:58:22	http://search.mbari.org/ARCHIVE/frameGrabs/Ventana/images/3165/00_01_26_28.jpg	36.788647	-122.11637	20023804	 	18:07.0	Ventana	 	00:01:26:28	 	Osteichthyes	Merlucciidae	Merluccius	Neopterygii		Animalia	Gadiformes	Chordata	Merluccius productus	Actinopterygii				Vertebrata	Gnathostomata		Eukaryota	Paracanthopterygii	V3165-01
population-density | self | dense	descend	Merluccius productus	349.7	3165	04:42:58:22	 	36.788647	-122.11637	2488757	 	18:07.0	Ventana	 	00:01:27:04	 	Osteichthyes	Merlucciidae	Merluccius	Neopterygii		Animalia	Gadiformes	Chordata	Merluccius productus	Actinopterygii				Vertebrata	Gnathostomata		Eukaryota	Paracanthopterygii	V3165-01
"population-density | self | dense, image-quality | self | good"	descend	Merluccius productus	376.52	3165	04:43:48:20	 	36.788643	-122.11634	20023805	0.95	18:57.0	Ventana	34.173	00:02:15:12	6.749	Osteichthyes	Merlucciidae	Merluccius	Neopterygii		Animalia	Gadiformes	Chordata	Merluccius productus	Actinopterygii				Vertebrata	Gnathostomata		Eukaryota	Paracanthopterygii	V3165-01
"population-density | self | dense, image-quality | self | good"	descend	Merluccius productus	399.17	3165	04:44:55:03	http://search.mbari.org/ARCHIVE/frameGrabs/Ventana/images/3165/00_03_23_05.jpg	36.78864	-122.11638	2488765	0.93	20:04.0	Ventana	34.175	00:03:23:05	6.731	Osteichthyes	Merlucciidae	Merluccius	Neopterygii		Animalia	Gadiformes	Chordata	Merluccius productus	Actinopterygii				Vertebrata	Gnathostomata		Eukaryota	Paracanthopterygii	V3165-01
population-density | self | dense	cruise	Merluccius productus	398.98	3165	04:45:29:02	 	36.788654	-122.11643	2488787	0.92	20:38.0	Ventana	34.177	00:03:56:22	6.713	Osteichthyes	Merlucciidae	Merluccius	Neopterygii		Animalia	Gadiformes	Chordata	Merluccius productus	Actinopterygii				Vertebrata	Gnathostomata		Eukaryota	Paracanthopterygii	V3165-01
"mating | nil | nil, comment | self | male hold female up above his head with one claw, population-quantity | self | 2, identity-reference | self | 2"	cruise	Chionoecetes tanneri	399.37	3165	04:46:13:00	http://search.mbari.org/ARCHIVE/frameGrabs/Ventana/images/3165/00_04_41_01.jpg	36.788635	-122.11655	2488799	0.92	21:22.0	Ventana	34.177	00:04:41:01	6.707	Malacostraca	Majidae	Chionoecetes		Brachyura	Animalia	Decapoda	Arthropoda	Chionoecetes tanneri	Eumalacostraca						Majoidea	Eukaryota	Eucarida	V3165-01
"mating | nil | nil, comment | self | male hold female up above his head with one claw, population-quantity | self | 2, identity-reference | self | 2"	cruise	Chionoecetes tanneri	399.37	3165	04:46:11:01	http://search.mbari.org/ARCHIVE/frameGrabs/Ventana/images/3165/00_04_38_11.jpg	36.788635	-122.11655	2488845	0.92	21:20.0	Ventana	34.177	00:04:38:11	6.707	Malacostraca	Majidae	Chionoecetes		Brachyura	Animalia	Decapoda	Arthropoda	Chionoecetes tanneri	Eumalacostraca						Majoidea	Eukaryota	Eucarida	V3165-01
comment | self | Start Station NC-1 transect A	starttransect	object	399.19	3165	04:47:13:13	 	36.788647	-122.11665	2488870	0.92	22:22.0	Ventana	34.176	00:05:41:26	6.718																			V3165-01
"habitat | self | flat mud amongst rocky habitat, life-stage | self | juvenile"	transect	Raja rhina	398.61	3165	04:47:49:12	http://search.mbari.org/ARCHIVE/frameGrabs/Ventana/images/3165/00_06_18_18.jpg	36.788727	-122.11672	2488911	0.92	22:58.0	Ventana	34.176	00:06:18:18	6.723	Chondrichthyes	Rajidae	Raja			Animalia	Rajiformes	Chordata	Raja rhina	Elasmobranchii				Vertebrata			Eukaryota	Batoidea	V3165-01
population-quantity | self | 2	transect	Porifera	398.61	3165	04:47:49:12	http://search.mbari.org/ARCHIVE/frameGrabs/Ventana/images/3165/00_06_18_18.jpg	36.788727	-122.11672	2488957	0.92	22:58.0	Ventana	34.176	00:06:18:18	6.723						Animalia		Porifera									Eukaryota		V3165-01
"habitat | self | flat mud amongst rocky habitat, identity-gender | self | female, swimming | nil | nil"	stationary	Raja rhina	393.2	3165	05:02:19:01	http://search.mbari.org/ARCHIVE/frameGrabs/Ventana/images/3165/00_20_46_09.jpg	36.78851	-122.117546	2489219	0.91	37:29.0	Ventana	34.176	00:20:46:09	6.733	Chondrichthyes	Rajidae	Raja			Animalia	Rajiformes	Chordata	Raja rhina	Elasmobranchii				Vertebrata			Eukaryota	Batoidea	V3165-01
"identity-certainty | self | maybe, life-stage | self | juvenile"	transect	Mediaster aequalis	393.42	3165	05:04:25:27	 	36.78847	-122.11769	2489292	0.9	39:35.0	Ventana	34.179	00:22:52:19	6.729		Goniasteridae	Mediaster			Animalia	Valvatida	Echinodermata	Mediaster aequalis	Asteroidea			Granulosina				Eukaryota		V3165-01
comment | self | off transect	cruise	Calliostoma platinum	393.54	3165	05:04:35:27	http://search.mbari.org/ARCHIVE/frameGrabs/Ventana/images/3165/00_23_02_29.jpg	36.788467	-122.11771	2489327	0.91	39:46.0	Ventana	34.178	00:23:02:29	6.741	Gastropoda	Trochidae	Calliostoma			Animalia	Archaeogastropoda	Mollusca	Calliostoma platinum	Prosobranchia						Trochacea	Eukaryota		V3165-01
population-quantity | self | 2	transect	Stomphia	393.69	3165	05:05:01:26	http://search.mbari.org/ARCHIVE/frameGrabs/Ventana/images/3165/00_23_30_15.jpg	36.788464	-122.11776	2489354	0.91	40:12.0	Ventana	34.177	00:23:30:15	6.743	Anthozoa	Actinostolidae	Stomphia			Animalia	Actiniaria	Cnidaria		Hexacorallia			Nyantheae				Eukaryota		V3165-01
surface-color | self | dark	cruise	mud	394.79	3165	05:06:58:08	http://search.mbari.org/ARCHIVE/frameGrabs/Ventana/images/3165/00_25_26_24.jpg	36.78855	-122.118004	2489405	0.85	42:08.0	Ventana	34.189	00:25:26:24	6.581																			V3165-01
"habitat | self | flat mud amongst rocky habitat, identity-gender | self | female"	transect	Bathyraja kincaidii	390.49	3165	05:15:56:21	http://search.mbari.org/ARCHIVE/frameGrabs/Ventana/images/3165/00_34_25_02.jpg	36.788906	-122.11799	2490381	0.86	51:07.0	Ventana	34.188	00:34:25:02	6.617	Chondrichthyes	Arhynchobatidae	Bathyraja			Animalia	Rajiformes	Chordata	Bathyraja kincaidii	Elasmobranchii				Vertebrata			Eukaryota	Batoidea	V3165-01
life-stage | self | dead	transect	Chionoecetes tanneri	390.32	3165	05:16:10:21	http://search.mbari.org/ARCHIVE/frameGrabs/Ventana/images/3165/00_34_37_24.jpg	36.788906	-122.11793	2490387	0.85	51:21.0	Ventana	34.182	00:34:37:24	6.608	Malacostraca	Majidae	Chionoecetes		Brachyura	Animalia	Decapoda	Arthropoda	Chionoecetes tanneri	Eumalacostraca						Majoidea	Eukaryota	Eucarida	V3165-01
comment | self | can	transect	trash	390.32	3165	05:16:10:21	http://search.mbari.org/ARCHIVE/frameGrabs/Ventana/images/3165/00_34_37_24.jpg	36.788906	-122.11793	2490388	0.85	51:21.0	Ventana	34.182	00:34:37:24	6.608																			V3165-01
population-quantity | self | 5	transect	Porifera	390.24	3165	05:16:16:21	 	36.788914	-122.11792	2490391	0.84	51:27.0	Ventana	34.188	00:34:44:05	6.602						Animalia		Porifera									Eukaryota		V3165-01
population-quantity | self | 5	transect	Porifera	388.63	3165	05:17:04:19	 	36.78898	-122.117935	2490428	0.89	52:15.0	Ventana	34.196	00:35:33:10	6.724						Animalia		Porifera									Eukaryota		V3165-01
comment | self | barrel-shaped	transect	Porifera	387.95	3165	05:17:23:04	http://search.mbari.org/ARCHIVE/frameGrabs/Ventana/images/3165/00_35_50_24.jpg	36.788994	-122.11792	2490436	0.91	52:33.0	Ventana	34.178	00:35:50:24	6.75						Animalia		Porifera									Eukaryota		V3165-01
upon | Porifera | nil	transect	Calliostoma platinum	387.95	3165	05:17:23:04	http://search.mbari.org/ARCHIVE/frameGrabs/Ventana/images/3165/00_35_50_24.jpg	36.788994	-122.11792	2490434	0.91	52:33.0	Ventana	34.178	00:35:50:24	6.75	Gastropoda	Trochidae	Calliostoma			Animalia	Archaeogastropoda	Mollusca	Calliostoma platinum	Prosobranchia						Trochacea	Eukaryota		V3165-01
surface-color | self | yellow	transect	Porifera	387.85	3165	05:17:27:03	http://search.mbari.org/ARCHIVE/frameGrabs/Ventana/images/3165/00_35_54_00.jpg	36.788998	-122.11791	2490458	0.91	52:37.0	Ventana	34.178	00:35:54:00	6.75						Animalia		Porifera									Eukaryota		V3165-01
part-of | Brisaster | nil	transect	test	386.13	3165	05:29:37:26	 	36.789402	-122.11669	2490779	0.81	04:49.0	Ventana	34.192	00:48:06:04	6.523																			V3165-01
part-of | Brisaster | nil	transect	test	387.5	3165	05:36:35:13	 	36.789463	-122.11623	2490846	0.82	11:47.0	Ventana	34.191	00:55:03:23	6.541																			V3165-01
population-quantity | self | 4	transect	Sebastes diploproa	387.46	3165	05:37:23:26	http://search.mbari.org/ARCHIVE/frameGrabs/Ventana/images/3165/00_55_52_04.jpg	36.789486	-122.11617	2490867	0.82	12:35.0	Ventana	34.19	00:55:52:04	6.56	Osteichthyes	Scorpaenidae	Sebastes	Neopterygii		Animalia	Scorpaeniformes	Chordata	Sebastes diploproa	Actinopterygii			Scorpaenoidei	Vertebrata	Gnathostomata		Eukaryota	Acanthopterygii	V3165-01
population-quantity | self | 10	transect	Allocentrotus fragilis	387.33	3165	05:38:11:25	http://search.mbari.org/ARCHIVE/frameGrabs/Ventana/images/3165/00_56_40_03.jpg	36.789494	-122.11609	2490904	0.82	13:24.0	Ventana	34.19	00:56:40:03	6.547	Echinoidea	Strongylocentrotidae	Allocentrotus			Animalia	Echinoida	Echinodermata	Allocentrotus fragilis	Euechinoidea			Echinacea				Eukaryota		V3165-01
population-quantity | self | 10	transect	Allocentrotus fragilis	387.31	3165	05:38:15:24	 	36.789494	-122.11608	2491314	0.82	13:28.0	Ventana	34.19	00:56:44:12	6.547	Echinoidea	Strongylocentrotidae	Allocentrotus			Animalia	Echinoida	Echinodermata	Allocentrotus fragilis	Euechinoidea			Echinacea				Eukaryota		V3165-01
population-quantity | self | 24	transect	Allocentrotus fragilis	387.29	3165	05:38:19:25	 	36.789494	-122.11607	2491330	0.82	13:32.0	Ventana	34.19	00:56:48:03	6.547	Echinoidea	Strongylocentrotidae	Allocentrotus			Animalia	Echinoida	Echinodermata	Allocentrotus fragilis	Euechinoidea			Echinacea				Eukaryota		V3165-01
population-quantity | self | 6	transect	Psolus squamatus	386.35	3165	05:41:06:20	http://search.mbari.org/ARCHIVE/frameGrabs/Ventana/images/3165/00_59_34_04.jpg	36.789547	-122.11577	2491506	0.83	16:19.0	Ventana	34.188	00:59:34:04	6.581	Holothuroidea	Psolidae	Psolus			Animalia	Dendrochirotida	Echinodermata	Psolus squamatus								Eukaryota		V3165-01
comment | self | end Station NC-1 transect C	endtransect	physical object	386.58	3165	05:41:46:18	 	36.78955	-122.1157	2491531	0.83	16:59.0	Ventana	34.188	01:00:15:00	6.58																			V3165-01
comment | self | transitting to NC2	cruise	sediment	373.3	3165	05:46:28:07	 	36.790398	-122.114975	2491885	0.84	22:20.0	Ventana	34.188	01:05:01:12	6.603																			V3165-02
population-quantity | self | 999	cruise	Sebastes diploproa	371.79	3165	05:46:42:07	 	36.790478	-122.11492	2491888	0.85	22:34.0	Ventana	34.186	01:05:14:14	6.608	Osteichthyes	Scorpaenidae	Sebastes	Neopterygii		Animalia	Scorpaeniformes	Chordata	Sebastes diploproa	Actinopterygii			Scorpaenoidei	Vertebrata	Gnathostomata		Eukaryota	Acanthopterygii	V3165-02
population-quantity | self | 999	cruise	rock	370.07	3165	05:46:58:06	 	36.790585	-122.11487	2491889	0.85	22:51.0	Ventana	34.189	01:05:29:22	6.631																			V3165-02
population-quantity | self | 999	cruise	Sebastes diploproa	367.3	3165	05:47:38:05	 	36.790806	-122.11474	2491891	0.87	23:31.0	Ventana	34.185	01:06:11:02	6.648	Osteichthyes	Scorpaenidae	Sebastes	Neopterygii		Animalia	Scorpaeniformes	Chordata	Sebastes diploproa	Actinopterygii			Scorpaenoidei	Vertebrata	Gnathostomata		Eukaryota	Acanthopterygii	V3165-02
population-quantity | self | 999	cruise	Rathbunaster californicus	366.48	3165	05:47:50:05	 	36.79085	-122.1147	2491892	0.87	23:43.0	Ventana	34.183	01:06:23:13	6.648		Labidiasteridae	Rathbunaster			Animalia	Forcipulatida	Echinodermata	Rathbunaster californicus	Asteroidea							Eukaryota		V3165-02
population-quantity | self | 999	cruise	Allocentrotus fragilis	361.35	3165	05:48:48:18	 	36.791084	-122.11454	2491893	0.89	24:41.0	Ventana	34.182	01:07:20:10	6.731	Echinoidea	Strongylocentrotidae	Allocentrotus			Animalia	Echinoida	Echinodermata	Allocentrotus fragilis	Euechinoidea			Echinacea				Eukaryota		V3165-02
population-quantity | self | 999	cruise	Rathbunaster californicus	359.31	3165	05:49:00:18	 	36.791134	-122.1145	2491894	0.92	24:53.0	Ventana	34.176	01:07:33:14	6.787		Labidiasteridae	Rathbunaster			Animalia	Forcipulatida	Echinodermata	Rathbunaster californicus	Asteroidea							Eukaryota		V3165-02
"perspective | self | distant, comment | self | transitting to NC2"	cruise	benthos	349.75	3165	05:49:41:01	 	36.79132	-122.11437	2491895	0.94	25:33.0	Ventana	34.174	01:08:14:01	6.825																			V3165-02
"swimming | nil | nil, population-quantity | self | 999"	cruise	sebastes	339.46	3165	05:51:23:13	 	36.79181	-122.113945	2491900	0.98	27:16.0	Ventana	34.171	01:09:56:07	6.865																			V3165-02
"perspective | self | distant, comment | self | transitting to NC2"	cruise	benthos	304.05	3165	05:55:06:06	 	36.7926	-122.11332	2491903	1.09	30:59.0	Ventana	34.156	01:13:38:14	7.14																			V3165-02
"perspective | self | distant, comment | self | transitting to NC2"	cruise	benthos	287.6	3165	05:56:16:19	 	36.792854	-122.11313	2491904	1.15	32:09.0	Ventana	34.15	01:14:48:16	7.216																			V3165-02
"perspective | self | distant, comment | self | transitting to NC2"	cruise	benthos	259.59	3165	05:58:17:01	 	36.793262	-122.11266	2491905	1.26	34:10.0	Ventana	34.137	01:16:48:26	7.509																			V3165-02
"perspective | self | distant, comment | self | transitting to NC2"	cruise	benthos	241.59	3165	05:59:35:13	 	36.79349	-122.11241	2491907	1.42	35:28.0	Ventana	34.119	01:18:07:09	7.764																			V3165-02
"perspective | self | distant, comment | self | transitting to NC2"	cruise	benthos	204.61	3165	06:04:42:21	 	36.7946	-122.111145	2491908	1.61	40:36.0	Ventana	34.094	01:23:15:04	8.013																			V3165-02
"perspective | self | distant, comment | self | transitting to NC2"	cruise	benthos	204.52	3165	06:07:25:01	 	36.795273	-122.110214	2491910	1.66	43:19.0	Ventana	34.084	01:25:57:24	8.11																			V3165-02
"perspective | self | distant, comment | self | transitting to NC2"	cruise	benthos	204.23	3165	06:10:33:25	 	36.796295	-122.109344	2491912	1.87	46:28.0	Ventana	34.047	01:29:05:25	8.44																			V3165-02
"perspective | self | distant, comment | self | transitting to NC2"	cruise	benthos	204.2	3165	06:12:14:07	 	36.796883	-122.10901	2491914	1.9	48:08.0	Ventana	34.046	01:30:46:24	8.464																			V3165-02
"perspective | self | distant, comment | self | transitting to NC2"	cruise	benthos	204.42	3165	06:17:13:13	 	36.79865	-122.108086	2491922	1.56	53:08.0	Ventana	34.1	01:35:44:28	7.923																			V3165-02
comment | self | Start Station NC-2 transect A	starttransect	object	206.56	3165	06:19:01:25	http://search.mbari.org/ARCHIVE/frameGrabs/Ventana/images/3165/01_37_34_02.jpg	36.798943	-122.10797	2491932	1.42	54:56.0	Ventana	34.118	01:37:34:02	7.627																			V3165-02
surface-color | self | orange	transect	Ceriantharia	205.91	3165	06:19:30:08	http://search.mbari.org/ARCHIVE/frameGrabs/Ventana/images/3165/01_38_02_06.jpg	36.79898	-122.107956	2491966	1.33	55:24.0	Ventana	34.13	01:38:02:06	7.59	Anthozoa					Animalia	Ceriantharia	Cnidaria		Ceriantipatharia							Eukaryota		V3165-02
identity-certainty | self | maybe	transect	Actiniaria sp. 3	202.68	3165	06:21:42:20	 	36.799152	-122.10785	2492089	1.38	57:37.0	Ventana	34.135	01:40:14:11	7.643	Anthozoa					Animalia	Actiniaria	Cnidaria		Hexacorallia							Eukaryota		V3165-02
"habitat | self | flat mud, life-stage | self | juvenile"	transect	Raja rhina	202.47	3165	06:21:52:20	http://search.mbari.org/ARCHIVE/frameGrabs/Ventana/images/3165/01_40_24_23.jpg	36.799168	-122.10784	2492097	1.36	57:47.0	Ventana	34.137	01:40:24:23	7.648	Chondrichthyes	Rajidae	Raja			Animalia	Rajiformes	Chordata	Raja rhina	Elasmobranchii				Vertebrata			Eukaryota	Batoidea	V3165-02
life-stage | self | juvenile	transect	Lycodes cortezianus	202.47	3165	06:21:52:20	http://search.mbari.org/ARCHIVE/frameGrabs/Ventana/images/3165/01_40_24_23.jpg	36.799168	-122.10784	2492108	1.36	57:47.0	Ventana	34.137	01:40:24:23	7.648	Osteichthyes	Zoarcidae	Lycodes	Neopterygii		Animalia	Perciformes	Chordata	Lycodes cortezianus	Actinopterygii			Zoarcoidei	Vertebrata	Gnathostomata		Eukaryota	Acanthopterygii	V3165-02
moving | nil | nil	transect	Luidia foliolata	195.78	3165	06:30:48:18	http://search.mbari.org/ARCHIVE/frameGrabs/Ventana/images/3165/01_49_20_13.jpg	36.79938	-122.10753	2492188	1.43	06:44.0	Ventana	34.112	01:49:20:13	7.771		Luidiidae	Luidia			Animalia	Platyasterida	Echinodermata	Luidia foliolata	Asteroidea							Eukaryota		V3165-02
surface-color | self | orange	transect	Ceriantharia	191.03	3165	06:33:47:13	 	36.79967	-122.107285	2492268	1.52	09:43.0	Ventana	34.105	01:52:19:20	7.904	Anthozoa					Animalia	Ceriantharia	Cnidaria		Ceriantipatharia							Eukaryota		V3165-02
"identity-certainty | self | maybe, life-stage | self | juvenile"	transect	Lycodes cortezianus	194.95	3165	06:31:25:02	http://search.mbari.org/ARCHIVE/frameGrabs/Ventana/images/3165/01_49_57_22.jpg	36.799416	-122.1075	2492202	1.47	07:20.0	Ventana	34.11	01:49:57:22	7.83	Osteichthyes	Zoarcidae	Lycodes	Neopterygii		Animalia	Perciformes	Chordata	Lycodes cortezianus	Actinopterygii			Zoarcoidei	Vertebrata	Gnathostomata		Eukaryota	Acanthopterygii	V3165-02
part-of | Brisaster | nil	transect	test	189.78	3165	06:34:27:26	 	36.799732	-122.10723	2492358	1.54	10:23.0	Ventana	34.097	01:53:01:03	7.943																			V3165-02
"jetting | nil | nil, image-quality | self | selects, perspective | self | close-up, identity-reference | self | 1"	stationary	Octopus rubescens	190.1	3165	06:36:02:08	http://search.mbari.org/ARCHIVE/frameGrabs/Ventana/images/3165/01_54_35_08.jpg	36.79976	-122.10725	20023890	1.48	11:57.0	Ventana	34.107	01:54:35:08	7.906	Cephalopoda	Octopodidae	Octopus			Animalia	Octopoda	Mollusca	Octopus rubescens	Coleoidea	Octopodinae		Incirrata				Eukaryota	Octopodiformes	V3165-02
"image-quality | self | selects, identity-reference | self | 1"	stationary	Octopus rubescens	190.08	3165	06:35:11:25	http://search.mbari.org/ARCHIVE/frameGrabs/Ventana/images/3165/01_53_44_10.jpg	36.79976	-122.10724	20023889	1.52	11:07.0	Ventana	34.084	01:53:44:10	7.922	Cephalopoda	Octopodidae	Octopus			Animalia	Octopoda	Mollusca	Octopus rubescens	Coleoidea	Octopodinae		Incirrata				Eukaryota	Octopodiformes	V3165-02
comment | self | end Station NC-2 transect A	endtransect	physical object	186.91	3165	06:42:19:26	 	36.799915	-122.10717	2492624	1.69	18:15.0	Ventana	34.068	02:00:52:07	8.219																			V3165-02
water-quality | self | sediment-cloudy	cruise	water	188.81	3165	06:45:08:26	 	36.799847	-122.10781	2492680	1.6	21:44.0	Ventana	34.088	02:03:52:00	8.056																			V3165-03
part-of | Brisaster | nil	transect	test	188.84	3165	06:45:56:25	 	36.799862	-122.107895	2492685	1.63	22:33.0	Ventana	34.086	02:04:39:20	8.076																			V3165-03
life-stage | self | juvenile	transect	Pleuronectiformes	188.82	3165	06:46:41:08	 	36.799873	-122.108	2492692	1.62	23:17.0	Ventana	34.085	02:05:23:19	8.078	Osteichthyes			Neopterygii		Animalia	Pleuronectiformes	Chordata		Actinopterygii				Vertebrata	Gnathostomata		Eukaryota	Acanthopterygii	V3165-03
comment | self | could be L. cortezianus or diapterus	transect	Lycodes	188.78	3165	06:47:57:06	 	36.79991	-122.10816	2492710	1.65	24:33.0	Ventana	34.082	02:06:40:05	8.113	Osteichthyes	Zoarcidae	Lycodes	Neopterygii		Animalia	Perciformes	Chordata		Actinopterygii			Zoarcoidei	Vertebrata	Gnathostomata		Eukaryota	Acanthopterygii	V3165-03
comment | self | could be L. cortezianus or diapterus	transect	Lycodes	188.67	3165	06:48:33:20	http://search.mbari.org/ARCHIVE/frameGrabs/Ventana/images/3165/02_07_15_18.jpg	36.7999	-122.10823	2492722	1.65	25:09.0	Ventana	34.081	02:07:15:18	8.129	Osteichthyes	Zoarcidae	Lycodes	Neopterygii		Animalia	Perciformes	Chordata		Actinopterygii			Zoarcoidei	Vertebrata	Gnathostomata		Eukaryota	Acanthopterygii	V3165-03
feeding-association-parasitized-by | marine organism | nil	transect	Pleurobranchaea californica	188.77	3165	06:48:41:20	http://search.mbari.org/ARCHIVE/frameGrabs/Ventana/images/3165/02_07_24_22.jpg	36.799896	-122.108246	2492725	1.65	25:17.0	Ventana	34.081	02:07:24:22	8.129	Gastropoda	Pleurobranchidae	Pleurobranchaea			Animalia	Notaspidea	Mollusca	Pleurobranchaea californica	Opisthobranchia						Pleurobranchiacea	Eukaryota		V3165-03
comment | self | could be L. cortezianus or diapterus	transect	Lycodes	188.77	3165	06:55:45:07	 	36.79997	-122.10848	2492737	1.75	32:22.0	Ventana	34.06	02:14:27:15	8.346	Osteichthyes	Zoarcidae	Lycodes	Neopterygii		Animalia	Perciformes	Chordata		Actinopterygii			Zoarcoidei	Vertebrata	Gnathostomata		Eukaryota	Acanthopterygii	V3165-03
comment | self | could be L. cortezianus or diapterus	transect	Lycodes	199.09	3165	07:12:07:07	 	36.799313	-122.10861	2492829	1.69	48:45.0	Ventana	34.076	02:30:49:25	8.171	Osteichthyes	Zoarcidae	Lycodes	Neopterygii		Animalia	Perciformes	Chordata		Actinopterygii			Zoarcoidei	Vertebrata	Gnathostomata		Eukaryota	Acanthopterygii	V3165-03
comment | self | could be L. cortezianus or diapterus	transect	Lycodes	199.81	3165	07:12:31:21	 	36.799267	-122.10857	2492831	1.67	49:09.0	Ventana	34.078	02:31:13:11	8.138	Osteichthyes	Zoarcidae	Lycodes	Neopterygii		Animalia	Perciformes	Chordata		Actinopterygii			Zoarcoidei	Vertebrata	Gnathostomata		Eukaryota	Acanthopterygii	V3165-03
comment | self | could be L. cortezianus or diapterus	transect	Lycodes	200.71	3165	07:13:13:20	 	36.799217	-122.1085	2492836	1.66	49:51.0	Ventana	34.08	02:31:56:00	8.133	Osteichthyes	Zoarcidae	Lycodes	Neopterygii		Animalia	Perciformes	Chordata		Actinopterygii			Zoarcoidei	Vertebrata	Gnathostomata		Eukaryota	Acanthopterygii	V3165-03
life-stage | self | juvenile	transect	Pleuronectiformes	202.52	3165	07:14:30:03	 	36.79912	-122.10838	2492849	1.68	51:07.0	Ventana	34.076	02:33:12:06	8.153	Osteichthyes			Neopterygii		Animalia	Pleuronectiformes	Chordata		Actinopterygii				Vertebrata	Gnathostomata		Eukaryota	Acanthopterygii	V3165-03
identity-certainty | self | maybe	transect	Porifera	207.98	3165	07:20:55:21	http://search.mbari.org/ARCHIVE/frameGrabs/Ventana/images/3165/02_39_37_28.jpg	36.79884	-122.108055	2492868	1.39	57:33.0	Ventana	34.125	02:39:37:28	7.605						Animalia		Porifera									Eukaryota		V3165-03
life-stage | self | juvenile	transect	Pleuronectiformes	209.12	3165	07:21:37:20	 	36.798763	-122.10802	2492871	1.41	58:16.0	Ventana	34.119	02:40:20:03	7.691	Osteichthyes			Neopterygii		Animalia	Pleuronectiformes	Chordata		Actinopterygii				Vertebrata	Gnathostomata		Eukaryota	Acanthopterygii	V3165-03
life-stage | self | juvenile	transect	Pleuronectiformes	210.39	3165	07:22:26:03	 	36.798668	-122.10796	2492880	1.38	59:04.0	Ventana	34.119	02:41:08:11	7.637	Osteichthyes			Neopterygii		Animalia	Pleuronectiformes	Chordata		Actinopterygii				Vertebrata	Gnathostomata		Eukaryota	Acanthopterygii	V3165-03
life-stage | self | juvenile	transect	Pleuronectiformes	210.54	3165	07:22:30:03	 	36.798656	-122.10796	2492881	1.38	59:08.0	Ventana	34.123	02:41:12:14	7.631	Osteichthyes			Neopterygii		Animalia	Pleuronectiformes	Chordata		Actinopterygii				Vertebrata	Gnathostomata		Eukaryota	Acanthopterygii	V3165-03
"comment | self | distance 1.5 m , calibrated | self | bottom 2 lasers = 22cm apart"	launch	lasers	 	3165	 	http://search.mbari.org/ARCHIVE/frameGrabs/Ventana/images/3165/00_00_25_25.jpg	 	 	20023800	 	 	Ventana	 	00:00:25:25	 																			V3165-01
state | self | on	cruise	lasers	399.32	3165	04:46:17:15	 	36.78863	-122.116554	20023809	0.91	21:26.0	Ventana	34.177	00:04:44:22	6.707																			V3165-01
"sampled-by | Push Corer | nil, sample-reference | self | V3165-PC24, comment | self | macro"	stationary	mud	395.73	3165	04:53:51:01	http://search.mbari.org/ARCHIVE/frameGrabs/Ventana/images/3165/00_12_17_23.jpg	36.78855	-122.11714	20023831	0.88	29:00.0	Ventana	34.175	00:12:17:23	6.687																			V3165-01
"sampled-by | Push Corer | nil, comment | self | tracer, sample-reference | self | V3165-PC35"	stationary	mud	395.73	3165	04:55:13:14	http://search.mbari.org/ARCHIVE/frameGrabs/Ventana/images/3165/00_13_40_20.jpg	36.788567	-122.11715	20023832	0.88	30:23.0	Ventana	34.179	00:13:40:20	6.684																			V3165-01
"sampled-by | Push Corer | nil, sample-reference | self | V3165-PC28, comment | self | macro"	stationary	mud	393.24	3165	05:00:57:04	http://search.mbari.org/ARCHIVE/frameGrabs/Ventana/images/3165/00_19_25_09.jpg	36.788483	-122.11751	20023847	0.91	36:06.0	Ventana	34.177	00:19:25:09	6.745																			V3165-01
comment | self | end Station NC-1 transect A	endtransect	object	394.12	3165	05:06:12:09	 	36.78849	-122.11786	20023862	0.85	41:22.0	Ventana	34.189	00:24:39:15	6.592																			V3165-01
"sampled-by | Push Corer | nil, sample-reference | self | V3165-PC2, comment | self | macro"	stationary	mud	395.22	3165	05:09:55:02	http://search.mbari.org/ARCHIVE/frameGrabs/Ventana/images/3165/00_28_23_08.jpg	36.788754	-122.118286	20023864	0.82	45:05.0	Ventana	34.188	00:28:23:08	6.562																			V3165-01
"sampled-by | Push Corer | nil, sample-reference | self | V3165-PC8, comment | self | tracer"	stationary	mud	395.18	3165	05:11:29:14	http://search.mbari.org/ARCHIVE/frameGrabs/Ventana/images/3165/00_29_57_20.jpg	36.788746	-122.1183	20023865	0.82	46:40.0	Ventana	34.195	00:29:57:20	6.564																			V3165-01
comment | self | Start Station NC-1 transect B	starttransect	object	394.18	3165	05:14:04:09	 	36.78883	-122.11821	20023866	0.85	49:14.0	Ventana	34.185	00:32:31:01	6.633																			V3165-01
"sampled-by | Push Corer | nil, comment | self | macro, sample-reference | self | V3165-PC17"	stationary	mud	387.99	3165	05:21:21:26	http://search.mbari.org/ARCHIVE/frameGrabs/Ventana/images/3165/00_39_49_03.jpg	36.789158	-122.11762	20023874	0.83	56:33.0	Ventana	34.188	00:39:49:03	6.586																			V3165-01
nil | nil | end Station NC-1 transect B	endtransect	object	385.37	3165	05:26:13:02	 	36.78938	-122.1173	20023876	0.86	01:24.0	Ventana	34.185	00:44:39:24	6.648																			V3165-01
comment | self | Start Station NC-1 transect C	starttransect	object	386.46	3165	05:28:15:13	 	36.789417	-122.1169	20023877	0.82	03:27.0	Ventana	34.193	00:46:42:20	6.544																			V3165-01
"sampled-by | Push Corer | nil, sample-reference | self | V3165-PC23, comment | self | macro"	stationary	mud	388.26	3165	05:32:54:20	http://search.mbari.org/ARCHIVE/frameGrabs/Ventana/images/3165/00_51_22_27.jpg	36.789425	-122.11636	20023878	0.8	08:06.0	Ventana	34.198	00:51:22:27	6.519																			V3165-01
"sampled-by | Push Corer | nil, sample-reference | self | V3165-PC15, comment | self | tracer"	stationary	mud	388.26	3165	05:34:17:02	http://search.mbari.org/ARCHIVE/frameGrabs/Ventana/images/3165/00_52_43_24.jpg	36.78943	-122.116356	20023879	0.81	09:29.0	Ventana	34.192	00:52:43:24	6.543																			V3165-01
"sample-reference | self | V3165-PC40, sampled-by | Push Corer | nil, comment | self | macro"	stationary	sediment	387.47	3165	05:42:21:00	http://search.mbari.org/ARCHIVE/frameGrabs/Ventana/images/3165/01_00_53_00.jpg	36.789547	-122.11566	20023881	0.82	18:13.0	Ventana	34.19	01:00:53:00	6.558																			V3165-02
state | self | on	stationary	lasers	205.95	3165	06:18:31:25	 	36.7989	-122.10799	20023883	1.46	54:26.0	Ventana	34.113	01:37:04:11	7.75																			V3165-02
"sample-reference | self | V3165-PC31, sampled-by | Push Corer | nil, comment | self | macro"	stationary	sediment	200.61	3165	06:24:29:15	http://search.mbari.org/ARCHIVE/frameGrabs/Ventana/images/3165/01_43_02_00.jpg	36.799255	-122.10766	20023886	1.44	00:24.0	Ventana	34.113	01:43:02:00	7.755																			V3165-02
"sample-reference | self | V3165-PC30, sampled-by | Push Corer | nil, comment | self | tracer"	stationary	sediment	200.62	3165	06:25:31:13	http://search.mbari.org/ARCHIVE/frameGrabs/Ventana/images/3165/01_44_03_28.jpg	36.799187	-122.10765	20023887	1.44	01:26.0	Ventana	34.116	01:44:03:28	7.748																			V3165-02
"sampled-by | Push Corer | nil, sample-reference | self | V3165-PC39, comment | self | macro"	stationary	sediment	190.15	3165	06:38:36:19	http://search.mbari.org/ARCHIVE/frameGrabs/Ventana/images/3165/01_57_08_19.jpg	36.799786	-122.10722	20023891	1.51	14:32.0	Ventana	34.1	01:57:08:19	7.932																			V3165-02
comment | self | Start Station NC-2 transect B	starttransect	physical object	188.83	3165	06:45:50:25	 	36.79986	-122.10789	20023893	1.63	22:27.0	Ventana	34.086	02:04:32:25	8.076																			V3165-03
"sampled-by | Push Corer | nil, sample-reference | self | V3165-PC10, comment | self | macro"	stationary	mud	189.2	3165	06:51:38:14	http://search.mbari.org/ARCHIVE/frameGrabs/Ventana/images/3165/02_10_21_14.jpg	36.79995	-122.1084	20023894	1.64	28:14.0	Ventana	34.091	02:10:21:14	8.131																			V3165-03
"sample-reference | self | V3165-PC29, sampled-by | Push Corer | nil, comment | self | tracer"	stationary	mud	189.18	3165	06:52:46:12	http://search.mbari.org/ARCHIVE/frameGrabs/Ventana/images/3165/02_11_28_27.jpg	36.799934	-122.108406	20023895	1.65	29:23.0	Ventana	34.077	02:11:28:27	8.152																			V3165-03
"sampled-by | Push Corer | nil, sample-reference | self | V3165-PC34, comment | self | macro"	stationary	mud	188.99	3165	06:58:40:01	http://search.mbari.org/ARCHIVE/frameGrabs/Ventana/images/3165/02_17_21_16.jpg	36.799946	-122.108665	20023897	1.85	35:17.0	Ventana	34.033	02:17:21:16	8.478																			V3165-03
comment | self | end Station NC-2 transect B	endtransect	physical object	189.02	3165	07:02:55:09	 	36.799976	-122.109055	20023899	1.84	39:32.0	Ventana	34.044	02:21:38:08	8.422																			V3165-03
"sampled-by | Push Corer | nil, sample-reference | self | V3165-PC33, comment | self | macro"	stationary	mud	196.05	3165	07:06:42:02	http://search.mbari.org/ARCHIVE/frameGrabs/Ventana/images/3165/02_25_24_01.jpg	36.799572	-122.10882	20023900	1.7	43:19.0	Ventana	34.079	02:25:24:01	8.231																			V3165-03
"sampled-by | Push Corer | nil, sample-reference | self | V3165-PC3, comment | self | tracer"	stationary	mud	196.03	3165	07:08:10:14	http://search.mbari.org/ARCHIVE/frameGrabs/Ventana/images/3165/02_26_53_28.jpg	36.799587	-122.108826	20023901	1.69	44:48.0	Ventana	34.07	02:26:53:28	8.273																			V3165-03
comment | self | Start Station NC-2 transect C	starttransect	physical object	195.2	3165	07:09:40:26	 	36.799572	-122.10873	20023902	1.75	46:18.0	Ventana	34.059	02:28:22:26	8.296																			V3165-03
"sampled-by | Push Corer | nil, sample-reference | self | V3165-PC37, comment | self | macro"	stationary	mud	203.88	3165	07:16:08:15	http://search.mbari.org/ARCHIVE/frameGrabs/Ventana/images/3165/02_34_50_14.jpg	36.799076	-122.108315	20023903	1.61	52:46.0	Ventana	34.085	02:34:50:14	8.048																			V3165-03
comment | self | end Station NC-2 transect C	endtransect	object	211.29	3165	07:22:54:03	 	36.798607	-122.10797	20023905	1.37	59:32.0	Ventana	34.121	02:41:36:02	7.621																			V3165-03
 	transect	Phyllospadix	199.58	3165	06:27:46:09	 	36.799217	-122.10762	2492145	1.39	03:41.0	Ventana	34.115	01:46:18:07	7.701		Zosteraceae	Phyllospadix			Plantae	Najadales										Eukaryota		V3165-02
 	transect	Phyllospadix	197.9	3165	07:11:35:07	 	36.799377	-122.108635	2492821	1.69	48:13.0	Ventana	34.076	02:30:18:20	8.169		Zosteraceae	Phyllospadix			Plantae	Najadales										Eukaryota		V3165-03
 	transect	Stylasterias forreri	387.25	3165	05:17:57:03	 	36.789017	-122.11788	2490470	0.92	53:08.0	Ventana	34.177	00:36:24:08	6.762		Asteriidae	Stylasterias			Animalia	Forcipulatida	Echinodermata	Stylasterias forreri	Asteroidea							Eukaryota		V3165-01
 	transect	Phyllospadix	189.12	3165	07:00:54:12	 	36.79994	-122.10883	2492761	1.84	37:31.0	Ventana	34.04	02:19:36:12	8.437		Zosteraceae	Phyllospadix			Plantae	Najadales										Eukaryota		V3165-03
 	transect	Allocentrotus fragilis	385.54	3165	05:25:53:02	 	36.789375	-122.117325	2490673	0.84	01:04.0	Ventana	34.187	00:44:20:06	6.627	Echinoidea	Strongylocentrotidae	Allocentrotus			Animalia	Echinoida	Echinodermata	Allocentrotus fragilis	Euechinoidea			Echinacea				Eukaryota		V3165-01
 	transect	Psolus squamatus	386.92	3165	05:18:43:01	 	36.78906	-122.1178	2490500	0.92	53:54.0	Ventana	34.178	00:37:10:26	6.76	Holothuroidea	Psolidae	Psolus			Animalia	Dendrochirotida	Echinodermata	Psolus squamatus								Eukaryota		V3165-01
 	transect	Merluccius productus	398.97	3165	04:47:27:13	 	36.78867	-122.11668	2488878	0.92	22:36.0	Ventana	34.179	00:05:55:23	6.72	Osteichthyes	Merlucciidae	Merluccius	Neopterygii		Animalia	Gadiformes	Chordata	Merluccius productus	Actinopterygii				Vertebrata	Gnathostomata		Eukaryota	Paracanthopterygii	V3165-01
 	transect	Phyllospadix	189.01	3165	07:02:53:09	 	36.799976	-122.109055	2492791	1.84	39:30.0	Ventana	34.044	02:21:36:15	8.422		Zosteraceae	Phyllospadix			Plantae	Najadales										Eukaryota		V3165-03
 	transect	Phyllospadix	187.69	3165	06:41:47:13	 	36.799885	-122.10717	2492618	1.71	17:43.0	Ventana	34.068	02:00:19:18	8.254		Zosteraceae	Phyllospadix			Plantae	Najadales										Eukaryota		V3165-02
 	transect	Mediaster aequalis	392.64	3165	04:59:52:20	 	36.7885	-122.11749	2489201	0.91	35:02.0	Ventana	34.175	00:18:20:19	6.744		Goniasteridae	Mediaster			Animalia	Valvatida	Echinodermata	Mediaster aequalis	Asteroidea			Granulosina				Eukaryota		V3165-01
 	transect	Phyllospadix	190.22	3165	06:34:09:12	 	36.7997	-122.10726	2492325	1.54	10:05.0	Ventana	34.1	01:52:41:19	7.941		Zosteraceae	Phyllospadix			Plantae	Najadales										Eukaryota		V3165-02
 	endtransect	object	188.75	3165	06:49:47:17	 	36.79991	-122.10835	2492731	1.65	26:24.0	Ventana	34.081	02:08:30:19	8.153																			V3165-03
 	transect	Phyllospadix	195.03	3165	06:31:21:02	 	36.79941	-122.107506	2492198	1.47	07:16.0	Ventana	34.11	01:49:54:14	7.83		Zosteraceae	Phyllospadix			Plantae	Najadales										Eukaryota		V3165-02
 	transect	Rathbunaster californicus	394.02	3165	05:14:12:09	 	36.788837	-122.118195	2489471	0.85	49:22.0	Ventana	34.185	00:32:40:29	6.633		Labidiasteridae	Rathbunaster			Animalia	Forcipulatida	Echinodermata	Rathbunaster californicus	Asteroidea							Eukaryota		V3165-01
 	transect	Phyllospadix	188.78	3165	06:47:19:07	 	36.799892	-122.108086	2492701	1.66	23:55.0	Ventana	34.079	02:06:01:11	8.14		Zosteraceae	Phyllospadix			Plantae	Najadales										Eukaryota		V3165-03
 	transect	Glyptocephalus zachirus	398.12	3165	04:48:29:27	http://search.mbari.org/ARCHIVE/frameGrabs/Ventana/images/3165/00_06_57_07.jpg	36.78867	-122.11681	2488968	0.91	23:39.0	Ventana	34.177	00:06:57:07	6.712	Osteichthyes	Pleuronectidae	Glyptocephalus	Neopterygii		Animalia	Pleuronectiformes	Chordata		Actinopterygii				Vertebrata	Gnathostomata		Eukaryota	Acanthopterygii	V3165-01
 	transect	Sebastes diploproa	396.99	3165	04:49:52:09	 	36.7886	-122.11694	2488975	0.9	25:01.0	Ventana	34.177	00:08:20:09	6.694	Osteichthyes	Scorpaenidae	Sebastes	Neopterygii		Animalia	Scorpaeniformes	Chordata	Sebastes diploproa	Actinopterygii			Scorpaenoidei	Vertebrata	Gnathostomata		Eukaryota	Acanthopterygii	V3165-01
 	transect	Sebastes saxicola	201.51	3165	06:22:34:18	 	36.799225	-122.107796	2492122	1.41	58:29.0	Ventana	34.115	01:41:07:09	7.726	Osteichthyes	Scorpaenidae	Sebastes	Neopterygii		Animalia	Scorpaeniformes	Chordata	Sebastes saxicola	Actinopterygii			Scorpaenoidei	Vertebrata	Gnathostomata		Eukaryota	Acanthopterygii	V3165-02
 	transect	Phyllospadix	201.68	3165	07:13:58:04	 	36.799164	-122.10842	2492844	1.69	50:35.0	Ventana	34.074	02:32:40:28	8.178		Zosteraceae	Phyllospadix			Plantae	Najadales										Eukaryota		V3165-03
 	transect	Phyllospadix	209.55	3165	07:21:57:19	 	36.79873	-122.10799	2492874	1.39	58:36.0	Ventana	34.119	02:40:40:25	7.66		Zosteraceae	Phyllospadix			Plantae	Najadales										Eukaryota		V3165-03
 	transect	Mediaster aequalis	385.4	3165	05:26:11:02	 	36.78938	-122.1173	2490680	0.85	01:22.0	Ventana	34.189	00:44:38:16	6.642		Goniasteridae	Mediaster			Animalia	Valvatida	Echinodermata	Mediaster aequalis	Asteroidea			Granulosina				Eukaryota		V3165-01
 	transect	Porifera	388.97	3165	05:16:52:19	 	36.788967	-122.11794	2490417	0.87	52:03.0	Ventana	34.193	00:35:20:03	6.662						Animalia		Porifera									Eukaryota		V3165-01
 	transect	Phyllospadix	188.95	3165	07:02:33:09	 	36.799988	-122.10902	2492784	1.84	39:10.0	Ventana	34.041	02:21:16:22	8.439		Zosteraceae	Phyllospadix			Plantae	Najadales										Eukaryota		V3165-03
 	transect	Phyllospadix	197.11	3165	07:11:07:08	 	36.799435	-122.108665	2492814	1.69	47:44.0	Ventana	34.074	02:29:49:10	8.185		Zosteraceae	Phyllospadix			Plantae	Najadales										Eukaryota		V3165-03
 	cruise	Octopus rubescens	187.38	3165	06:43:55:24	 	36.799904	-122.10749	2492641	1.67	19:52.0	Ventana	34.067	02:02:28:01	8.173	Cephalopoda	Octopodidae	Octopus			Animalia	Octopoda	Mollusca	Octopus rubescens	Coleoidea	Octopodinae		Incirrata				Eukaryota	Octopodiformes	V3165-02
 	transect	Phyllospadix	188.8	3165	06:46:49:08	 	36.799873	-122.108025	2492694	1.63	23:25.0	Ventana	34.084	02:05:31:18	8.084		Zosteraceae	Phyllospadix			Plantae	Najadales										Eukaryota		V3165-03
 	transect	Allocentrotus fragilis	392.46	3165	04:59:22:21	http://search.mbari.org/ARCHIVE/frameGrabs/Ventana/images/3165/00_17_51_04.jpg	36.78851	-122.11747	2489178	0.9	34:32.0	Ventana	34.178	00:17:51:04	6.719	Echinoidea	Strongylocentrotidae	Allocentrotus			Animalia	Echinoida	Echinodermata	Allocentrotus fragilis	Euechinoidea			Echinacea				Eukaryota		V3165-01
 	transect	Phyllospadix	188.89	3165	07:00:26:13	 	36.799942	-122.10877	2492754	1.83	37:03.0	Ventana	34.042	02:19:09:11	8.426		Zosteraceae	Phyllospadix			Plantae	Najadales										Eukaryota		V3165-03
 	transect	Phyllospadix	197.08	3165	06:29:42:20	 	36.799328	-122.10757	2492175	1.43	05:38.0	Ventana	34.128	01:48:15:29	7.742		Zosteraceae	Phyllospadix			Plantae	Najadales										Eukaryota		V3165-02
 	transect	Phyllospadix	196.28	3165	07:10:26:25	 	36.799503	-122.1087	2492805	1.71	47:04.0	Ventana	34.073	02:29:10:16	8.195		Zosteraceae	Phyllospadix			Plantae	Najadales										Eukaryota		V3165-03
 	transect	Mediaster aequalis	388.63	3165	05:17:04:19	 	36.78898	-122.117935	2490426	0.89	52:15.0	Ventana	34.196	00:35:31:25	6.724		Goniasteridae	Mediaster			Animalia	Valvatida	Echinodermata	Mediaster aequalis	Asteroidea			Granulosina				Eukaryota		V3165-01
 	transect	Luidia foliolata	200.7	3165	06:23:07:02	 	36.799263	-122.107765	2492129	1.42	59:01.0	Ventana	34.115	01:41:40:09	7.741		Luidiidae	Luidia			Animalia	Platyasterida	Echinodermata	Luidia foliolata	Asteroidea							Eukaryota		V3165-02
 	transect	Phyllospadix	200.43	3165	07:13:01:20	 	36.799236	-122.10851	2492835	1.66	49:39.0	Ventana	34.08	02:31:43:15	8.133		Zosteraceae	Phyllospadix			Plantae	Najadales										Eukaryota		V3165-03
 	transect	Phyllospadix	188.64	3165	06:56:21:06	 	36.799957	-122.10857	2492745	1.82	32:58.0	Ventana	34.043	02:15:02:25	8.444		Zosteraceae	Phyllospadix			Plantae	Najadales										Eukaryota		V3165-03
 	transect	Sebastes diploproa	396.54	3165	04:50:16:08	 	36.78859	-122.11698	2488982	0.9	25:25.0	Ventana	34.178	00:08:43:22	6.686	Osteichthyes	Scorpaenidae	Sebastes	Neopterygii		Animalia	Scorpaeniformes	Chordata	Sebastes diploproa	Actinopterygii			Scorpaenoidei	Vertebrata	Gnathostomata		Eukaryota	Acanthopterygii	V3165-01
 	transect	Mediaster aequalis	387.42	3165	05:37:27:26	 	36.78949	-122.11617	2490869	0.82	12:39.0	Ventana	34.191	00:55:54:27	6.555		Goniasteridae	Mediaster			Animalia	Valvatida	Echinodermata	Mediaster aequalis	Asteroidea			Granulosina				Eukaryota		V3165-01
 	transect	Allocentrotus fragilis	394.34	3165	04:57:19:25	 	36.788544	-122.11724	2489042	0.89	32:29.0	Ventana	34.18	00:15:47:12	6.686	Echinoidea	Strongylocentrotidae	Allocentrotus			Animalia	Echinoida	Echinodermata	Allocentrotus fragilis	Euechinoidea			Echinacea				Eukaryota		V3165-01
 	transect	Glyptocephalus zachirus	386.73	3165	05:40:36:20	 	36.78954	-122.11584	2491483	0.83	15:48.0	Ventana	34.189	00:59:03:13	6.572	Osteichthyes	Pleuronectidae	Glyptocephalus	Neopterygii		Animalia	Pleuronectiformes	Chordata		Actinopterygii				Vertebrata	Gnathostomata		Eukaryota	Acanthopterygii	V3165-01
 	transect	Porifera	387.15	3165	05:38:48:09	 	36.789505	-122.11602	2491425	0.82	14:00.0	Ventana	34.191	00:57:15:19	6.562						Animalia		Porifera									Eukaryota		V3165-01
 	transect	Mediaster aequalis	387.52	3165	05:36:21:13	 	36.789463	-122.11624	2490839	0.81	11:33.0	Ventana	34.191	00:54:49:12	6.541		Goniasteridae	Mediaster			Animalia	Valvatida	Echinodermata	Mediaster aequalis	Asteroidea			Granulosina				Eukaryota		V3165-01
 	transect	Porifera	386.35	3165	05:41:06:20	http://search.mbari.org/ARCHIVE/frameGrabs/Ventana/images/3165/00_59_34_04.jpg	36.789547	-122.11577	2491513	0.83	16:19.0	Ventana	34.188	00:59:34:04	6.581						Animalia		Porifera									Eukaryota		V3165-01
 	transect	Phyllospadix	188.99	3165	07:02:02:25	 	36.799957	-122.10896	2492775	1.84	38:40.0	Ventana	34.038	02:20:45:29	8.451		Zosteraceae	Phyllospadix			Plantae	Najadales										Eukaryota		V3165-03
 	transect	Glyptocephalus zachirus	387.18	3165	05:38:41:24	 	36.789505	-122.11603	2491395	0.82	13:54.0	Ventana	34.191	00:57:08:20	6.562	Osteichthyes	Pleuronectidae	Glyptocephalus	Neopterygii		Animalia	Pleuronectiformes	Chordata		Actinopterygii				Vertebrata	Gnathostomata		Eukaryota	Acanthopterygii	V3165-01
 	transect	Porifera	391.87	3165	05:15:10:08	 	36.788906	-122.11809	2489485	0.88	50:21.0	Ventana	34.18	00:33:37:22	6.694						Animalia		Porifera									Eukaryota		V3165-01
 	transect	Sebastes saxicola	206.56	3165	06:19:01:25	http://search.mbari.org/ARCHIVE/frameGrabs/Ventana/images/3165/01_37_34_24.jpg	36.798943	-122.10797	2491949	1.42	54:56.0	Ventana	34.118	01:37:34:24	7.627	Osteichthyes	Scorpaenidae	Sebastes	Neopterygii		Animalia	Scorpaeniformes	Chordata	Sebastes saxicola	Actinopterygii			Scorpaenoidei	Vertebrata	Gnathostomata		Eukaryota	Acanthopterygii	V3165-02
 	cruise	Phyllospadix	186.74	3165	06:42:33:26	 	36.799915	-122.10718	2492625	1.69	18:29.0	Ventana	34.068	02:01:06:06	8.243		Zosteraceae	Phyllospadix			Plantae	Najadales										Eukaryota		V3165-02
 	transect	Rathbunaster californicus	392.82	3165	04:58:04:09	 	36.788532	-122.11732	2489095	0.88	33:14.0	Ventana	34.181	00:16:31:24	6.678		Labidiasteridae	Rathbunaster			Animalia	Forcipulatida	Echinodermata	Rathbunaster californicus	Asteroidea							Eukaryota		V3165-01
 	transect	Allocentrotus fragilis	387.32	3165	05:38:07:25	 	36.789494	-122.1161	2490899	0.82	13:20.0	Ventana	34.19	00:56:36:11	6.55	Echinoidea	Strongylocentrotidae	Allocentrotus			Animalia	Echinoida	Echinodermata	Allocentrotus fragilis	Euechinoidea			Echinacea				Eukaryota		V3165-01
 	transect	Phyllospadix	188.85	3165	06:48:07:06	 	36.799908	-122.108185	2492715	1.64	24:43.0	Ventana	34.084	02:06:50:10	8.113		Zosteraceae	Phyllospadix			Plantae	Najadales										Eukaryota		V3165-03
 	transect	Phyllospadix	198.82	3165	06:28:24:07	 	36.79924	-122.10761	2492152	1.45	04:19.0	Ventana	34.114	01:46:56:08	7.786		Zosteraceae	Phyllospadix			Plantae	Najadales										Eukaryota		V3165-02
 	transect	Phyllospadix	204.46	3165	07:18:32:26	 	36.79906	-122.10823	2492858	1.5	55:11.0	Ventana	34.109	02:37:14:14	7.8		Zosteraceae	Phyllospadix			Plantae	Najadales										Eukaryota		V3165-03
 	transect	Phyllospadix	203.01	3165	06:21:28:20	 	36.799137	-122.107864	2492076	1.38	57:23.0	Ventana	34.135	01:40:00:08	7.643		Zosteraceae	Phyllospadix			Plantae	Najadales										Eukaryota		V3165-02
 	transect	Phyllospadix	388.14	3165	05:17:19:03	 	36.78899	-122.11792	2490433	0.91	52:29.0	Ventana	34.178	00:35:47:15	6.75		Zosteraceae	Phyllospadix			Plantae	Najadales										Eukaryota		V3165-01
 	transect	Phyllospadix	195.74	3165	07:10:04:26	 	36.799538	-122.10872	2492798	1.73	46:42.0	Ventana	34.069	02:28:47:14	8.233		Zosteraceae	Phyllospadix			Plantae	Najadales										Eukaryota		V3165-03
 	transect	Porifera	386.79	3165	05:40:30:21	 	36.78954	-122.115845	2491478	0.83	15:42.0	Ventana	34.189	00:58:58:00	6.572						Animalia		Porifera									Eukaryota		V3165-01
 	transect	Porifera	390.77	3165	05:15:40:06	 	36.7889	-122.11804	2490373	0.88	50:51.0	Ventana	34.183	00:34:08:19	6.652						Animalia		Porifera									Eukaryota		V3165-01
 	transect	Calliostoma platinum	393.69	3165	05:05:01:26	http://search.mbari.org/ARCHIVE/frameGrabs/Ventana/images/3165/00_23_30_15.jpg	36.788464	-122.11776	2489358	0.91	40:12.0	Ventana	34.177	00:23:30:15	6.743	Gastropoda	Trochidae	Calliostoma			Animalia	Archaeogastropoda	Mollusca	Calliostoma platinum	Prosobranchia						Trochacea	Eukaryota		V3165-01
 	transect	Rathbunaster californicus	392.64	3165	05:03:07:14	 	36.7885	-122.11759	2489252	0.9	38:17.0	Ventana	34.178	00:21:35:06	6.727		Labidiasteridae	Rathbunaster			Animalia	Forcipulatida	Echinodermata	Rathbunaster californicus	Asteroidea							Eukaryota		V3165-01
 	transect	Phyllospadix	199.09	3165	07:12:07:07	 	36.799313	-122.10861	2492828	1.69	48:45.0	Ventana	34.076	02:30:49:21	8.171		Zosteraceae	Phyllospadix			Plantae	Najadales										Eukaryota		V3165-03
 	transect	Glyptocephalus zachirus	387.38	3165	05:38:03:25	 	36.78949	-122.116104	2490892	0.82	13:16.0	Ventana	34.19	00:56:31:18	6.55	Osteichthyes	Pleuronectidae	Glyptocephalus	Neopterygii		Animalia	Pleuronectiformes	Chordata		Actinopterygii				Vertebrata	Gnathostomata		Eukaryota	Acanthopterygii	V3165-01
 	transect	Parastichopus leukothele	194.75	3165	06:31:31:02	 	36.79943	-122.10748	2492212	1.48	07:26.0	Ventana	34.111	01:50:03:12	7.833	Holothuroidea	Stichopodidae	Parastichopus			Animalia	Aspidochirotida	Echinodermata	Parastichopus leukothele	Aspidochirotacea							Eukaryota		V3165-02
 	transect	Mediaster aequalis	395.55	3165	04:51:14:21	 	36.788567	-122.11709	2488989	0.89	26:23.0	Ventana	34.178	00:09:41:19	6.682		Goniasteridae	Mediaster			Animalia	Valvatida	Echinodermata	Mediaster aequalis	Asteroidea			Granulosina				Eukaryota		V3165-01
 	transect	Phyllospadix	189.1	3165	07:01:30:27	 	36.799946	-122.10891	2492768	1.85	38:07.0	Ventana	34.041	02:20:13:05	8.441		Zosteraceae	Phyllospadix			Plantae	Najadales										Eukaryota		V3165-03
 	transect	Sebastes saxicola	204.26	3165	06:20:32:06	 	36.79907	-122.10791	2492046	1.31	56:27.0	Ventana	34.142	01:39:04:19	7.493	Osteichthyes	Scorpaenidae	Sebastes	Neopterygii		Animalia	Scorpaeniformes	Chordata	Sebastes saxicola	Actinopterygii			Scorpaenoidei	Vertebrata	Gnathostomata		Eukaryota	Acanthopterygii	V3165-02
 	transect	Rathbunaster californicus	392.41	3165	04:58:56:07	 	36.788517	-122.11743	2489132	0.9	34:06.0	Ventana	34.177	00:17:23:10	6.723		Labidiasteridae	Rathbunaster			Animalia	Forcipulatida	Echinodermata	Rathbunaster californicus	Asteroidea							Eukaryota		V3165-01
 	cruise	Mediaster aequalis	395.06	3165	05:07:22:07	 	36.788616	-122.118095	2489448	0.85	42:32.0	Ventana	34.189	00:25:51:00	6.607		Goniasteridae	Mediaster			Animalia	Valvatida	Echinodermata	Mediaster aequalis	Asteroidea			Granulosina				Eukaryota		V3165-01
 	transect	Psolus squamatus	391.27	3165	05:15:28:07	 	36.788902	-122.118065	2489538	0.88	50:39.0	Ventana	34.183	00:33:56:16	6.652	Holothuroidea	Psolidae	Psolus			Animalia	Dendrochirotida	Echinodermata	Psolus squamatus								Eukaryota		V3165-01
 	transect	Sebastes diploproa	387.28	3165	05:20:01:13	 	36.78912	-122.117714	2490546	0.85	55:12.0	Ventana	34.189	00:38:28:23	6.629	Osteichthyes	Scorpaenidae	Sebastes	Neopterygii		Animalia	Scorpaeniformes	Chordata	Sebastes diploproa	Actinopterygii			Scorpaenoidei	Vertebrata	Gnathostomata		Eukaryota	Acanthopterygii	V3165-01
 	cruise	mud	206.1	3165	06:18:53:25	 	36.79893	-122.10798	2491926	1.45	54:48.0	Ventana	34.109	01:37:25:24	7.732																			V3165-02
 	transect	Phyllospadix	195.58	3165	06:30:59:02	 	36.79939	-122.10752	2492189	1.43	06:54.0	Ventana	34.112	01:49:31:29	7.803		Zosteraceae	Phyllospadix			Plantae	Najadales										Eukaryota		V3165-02
 	transect	Phyllospadix	188.75	3165	06:55:49:07	 	36.799965	-122.1085	2492738	1.78	32:26.0	Ventana	34.053	02:14:31:18	8.381		Zosteraceae	Phyllospadix			Plantae	Najadales										Eukaryota		V3165-03
 	transect	Phyllospadix	188.83	3165	06:47:43:07	 	36.79991	-122.10812	2492708	1.66	24:19.0	Ventana	34.079	02:06:25:17	8.13		Zosteraceae	Phyllospadix			Plantae	Najadales										Eukaryota		V3165-03
 	transect	Porifera	389.59	3165	05:16:36:20	http://search.mbari.org/ARCHIVE/frameGrabs/Ventana/images/3165/00_35_03_23.jpg	36.78895	-122.11794	2490403	0.84	51:47.0	Ventana	34.195	00:35:03:23	6.618						Animalia		Porifera									Eukaryota		V3165-01
 	transect	Mediaster aequalis	393.18	3165	05:14:40:08	 	36.788868	-122.11815	2489478	0.86	49:51.0	Ventana	34.187	00:33:08:01	6.64		Goniasteridae	Mediaster			Animalia	Valvatida	Echinodermata	Mediaster aequalis	Asteroidea			Granulosina				Eukaryota		V3165-01
 	cruise	Opisthoteuthis	395.04	3165	05:07:14:07	http://search.mbari.org/ARCHIVE/frameGrabs/Ventana/images/3165/00_25_42_15.jpg	36.788593	-122.118065	2489443	0.85	42:24.0	Ventana	34.189	00:25:42:15	6.607	Cephalopoda	Opisthoteuthidae	Opisthoteuthis			Animalia	Octopoda	Mollusca		Coleoidea			Cirrata				Eukaryota	Octopodiformes	V3165-01
 	transect	Anoplopoma fimbria	387.03	3165	05:31:16:07	http://search.mbari.org/ARCHIVE/frameGrabs/Ventana/images/3165/00_49_44_28.jpg	36.7894	-122.11677	2490825	0.81	06:28.0	Ventana	34.192	00:49:44:28	6.545	Osteichthyes	Anoplopomatidae	Anoplopoma	Neopterygii		Animalia	Scorpaeniformes	Chordata	Anoplopoma fimbria	Actinopterygii			Anoplopomatoidei	Vertebrata	Gnathostomata		Eukaryota	Acanthopterygii	V3165-01
 	transect	Phyllospadix	188.73	3165	06:49:35:18	 	36.79991	-122.108345	2492729	1.66	26:12.0	Ventana	34.08	02:08:18:22	8.152		Zosteraceae	Phyllospadix			Plantae	Najadales										Eukaryota		V3165-03
 	transect	Sebastolobus altivelis	393.9	3165	05:14:18:09	 	36.78884	-122.11819	2489473	0.85	49:28.0	Ventana	34.192	00:32:45:19	6.64	Osteichthyes	Scorpaenidae	Sebastolobus	Neopterygii		Animalia	Scorpaeniformes	Chordata	Sebastolobus altivelis	Actinopterygii			Scorpaenoidei	Vertebrata	Gnathostomata		Eukaryota	Acanthopterygii	V3165-01
 	transect	Phyllospadix	188.99	3165	07:02:51:09	 	36.799976	-122.109055	2492789	1.84	39:28.0	Ventana	34.044	02:21:33:04	8.422		Zosteraceae	Phyllospadix			Plantae	Najadales										Eukaryota		V3165-03
 	transect	Calliostoma platinum	386.83	3165	05:40:26:21	 	36.78954	-122.11585	2491471	0.83	15:38.0	Ventana	34.189	00:58:53:21	6.572	Gastropoda	Trochidae	Calliostoma			Animalia	Archaeogastropoda	Mollusca	Calliostoma platinum	Prosobranchia						Trochacea	Eukaryota		V3165-01
 	transect	Phyllospadix	188.75	3165	06:47:11:07	 	36.799885	-122.10806	2492699	1.63	23:47.0	Ventana	34.084	02:05:54:02	8.111		Zosteraceae	Phyllospadix			Plantae	Najadales										Eukaryota		V3165-03
 	transect	Sebastes diploproa	387.25	3165	05:17:59:02	 	36.789017	-122.117874	2490472	0.92	53:10.0	Ventana	34.177	00:36:26:11	6.762	Osteichthyes	Scorpaenidae	Sebastes	Neopterygii		Animalia	Scorpaeniformes	Chordata	Sebastes diploproa	Actinopterygii			Scorpaenoidei	Vertebrata	Gnathostomata		Eukaryota	Acanthopterygii	V3165-01
 	transect	Rathbunaster californicus	387.02	3165	05:39:38:07	 	36.789524	-122.115944	2491441	0.83	14:50.0	Ventana	34.189	00:58:05:18	6.574		Labidiasteridae	Rathbunaster			Animalia	Forcipulatida	Echinodermata	Rathbunaster californicus	Asteroidea							Eukaryota		V3165-01
 	transect	Phyllospadix	189.09	3165	07:00:52:12	 	36.79994	-122.108826	2492759	1.84	37:29.0	Ventana	34.04	02:19:35:08	8.437		Zosteraceae	Phyllospadix			Plantae	Najadales										Eukaryota		V3165-03
 	transect	Phyllospadix	193.22	3165	06:32:29:15	 	36.79954	-122.10738	2492233	1.52	08:24.0	Ventana	34.102	01:51:01:21	7.927		Zosteraceae	Phyllospadix			Plantae	Najadales										Eukaryota		V3165-02
 	transect	Rathbunaster californicus	398.66	3165	04:47:45:13	 	36.78871	-122.116714	2488887	0.92	22:54.0	Ventana	34.176	00:06:14:17	6.723		Labidiasteridae	Rathbunaster			Animalia	Forcipulatida	Echinodermata	Rathbunaster californicus	Asteroidea							Eukaryota		V3165-01
 	transect	Sebastes diploproa	397.69	3165	04:49:01:25	 	36.788612	-122.11688	2488970	0.91	24:11.0	Ventana	34.177	00:07:30:08	6.703	Osteichthyes	Scorpaenidae	Sebastes	Neopterygii		Animalia	Scorpaeniformes	Chordata	Sebastes diploproa	Actinopterygii			Scorpaenoidei	Vertebrata	Gnathostomata		Eukaryota	Acanthopterygii	V3165-01
 	transect	Porifera	393.47	3165	05:04:29:27	 	36.788467	-122.1177	2489300	0.91	39:39.0	Ventana	34.178	00:22:57:21	6.741						Animalia		Porifera									Eukaryota		V3165-01
 	transect	Rathbunaster californicus	392.68	3165	04:59:56:20	 	36.788498	-122.1175	2489203	0.91	35:06.0	Ventana	34.175	00:18:24:02	6.744		Labidiasteridae	Rathbunaster			Animalia	Forcipulatida	Echinodermata	Rathbunaster californicus	Asteroidea							Eukaryota		V3165-01
 	transect	Phyllospadix	198.05	3165	06:29:00:06	 	36.79928	-122.1076	2492166	1.47	04:55.0	Ventana	34.112	01:47:33:02	7.808		Zosteraceae	Phyllospadix			Plantae	Najadales										Eukaryota		V3165-02
 	transect	Phyllospadix	201.64	3165	07:13:56:04	 	36.799164	-122.10843	2492842	1.69	50:33.0	Ventana	34.074	02:32:37:26	8.178		Zosteraceae	Phyllospadix			Plantae	Najadales										Eukaryota		V3165-03
 	transect	Sebastes aurora	392.46	3165	04:59:22:21	http://search.mbari.org/ARCHIVE/frameGrabs/Ventana/images/3165/00_17_51_04.jpg	36.78851	-122.11747	2489173	0.9	34:32.0	Ventana	34.178	00:17:51:04	6.719	Osteichthyes	Scorpaenidae	Sebastes	Neopterygii		Animalia	Scorpaeniformes	Chordata	Sebastes aurora	Actinopterygii			Scorpaenoidei	Vertebrata	Gnathostomata		Eukaryota	Acanthopterygii	V3165-01
 	cruise	Pleurobranchaea californica	187.47	3165	06:43:49:24	 	36.799908	-122.10747	2492639	1.67	19:46.0	Ventana	34.067	02:02:23:00	8.173	Gastropoda	Pleurobranchidae	Pleurobranchaea			Animalia	Notaspidea	Mollusca	Pleurobranchaea californica	Opisthobranchia						Pleurobranchiacea	Eukaryota		V3165-02
 	transect	Phyllospadix	190.32	3165	06:34:07:12	 	36.799698	-122.10726	2492323	1.54	10:03.0	Ventana	34.1	01:52:41:03	7.941		Zosteraceae	Phyllospadix			Plantae	Najadales										Eukaryota		V3165-02
 	transect	Sebastolobus altivelis	393.69	3165	05:05:01:26	http://search.mbari.org/ARCHIVE/frameGrabs/Ventana/images/3165/00_23_30_15.jpg	36.788464	-122.11776	2489360	0.91	40:12.0	Ventana	34.177	00:23:30:15	6.743	Osteichthyes	Scorpaenidae	Sebastolobus	Neopterygii		Animalia	Scorpaeniformes	Chordata	Sebastolobus altivelis	Actinopterygii			Scorpaenoidei	Vertebrata	Gnathostomata		Eukaryota	Acanthopterygii	V3165-01
 	transect	Mediaster aequalis	386.14	3165	05:24:18:20	 	36.789333	-122.11753	2490615	0.85	59:30.0	Ventana	34.188	00:42:45:15	6.663		Goniasteridae	Mediaster			Animalia	Valvatida	Echinodermata	Mediaster aequalis	Asteroidea			Granulosina				Eukaryota		V3165-01
 	transect	Sabellidae	394.23	3165	05:14:06:10	 	36.78883	-122.1182	2489466	0.85	49:16.0	Ventana	34.185	00:32:34:14	6.633	Polychaeta	Sabellidae				Animalia	Sabellida	Annelida		Palpata							Eukaryota	Canalipalpata	V3165-01
 	transect	Phyllospadix	188.83	3165	07:00:16:13	 	36.79994	-122.10876	2492752	1.83	36:53.0	Ventana	34.042	02:18:59:09	8.426		Zosteraceae	Phyllospadix			Plantae	Najadales										Eukaryota		V3165-03
 	transect	Psolus squamatus	386.99	3165	05:18:17:02	 	36.789032	-122.11785	2490479	0.92	53:28.0	Ventana	34.177	00:36:44:29	6.76	Holothuroidea	Psolidae	Psolus			Animalia	Dendrochirotida	Echinodermata	Psolus squamatus								Eukaryota		V3165-01
 	transect	Phyllospadix	188.94	3165	07:02:29:10	 	36.799988	-122.10901	2492782	1.84	39:06.0	Ventana	34.039	02:21:12:08	8.436		Zosteraceae	Phyllospadix			Plantae	Najadales										Eukaryota		V3165-03
 	transect	Glyptocephalus zachirus	197	3165	07:11:03:09	 	36.799442	-122.108665	2492812	1.69	47:40.0	Ventana	34.074	02:29:45:27	8.185	Osteichthyes	Pleuronectidae	Glyptocephalus	Neopterygii		Animalia	Pleuronectiformes	Chordata		Actinopterygii				Vertebrata	Gnathostomata		Eukaryota	Acanthopterygii	V3165-03
 	transect	Phyllospadix	189.68	3165	06:34:31:26	 	36.799744	-122.10722	2492369	1.54	10:27.0	Ventana	34.097	01:53:05:04	7.943		Zosteraceae	Phyllospadix			Plantae	Najadales										Eukaryota		V3165-02
 	transect	Mediaster aequalis	387.3	3165	05:19:35:14	 	36.78911	-122.11774	2490539	0.92	54:46.0	Ventana	34.177	00:38:03:27	6.759		Goniasteridae	Mediaster			Animalia	Valvatida	Echinodermata	Mediaster aequalis	Asteroidea			Granulosina				Eukaryota		V3165-01
 	transect	Glyptocephalus zachirus	387.42	3165	05:37:35:26	 	36.789494	-122.116165	2490878	0.82	12:48.0	Ventana	34.191	00:56:03:28	6.555	Osteichthyes	Pleuronectidae	Glyptocephalus	Neopterygii		Animalia	Pleuronectiformes	Chordata		Actinopterygii				Vertebrata	Gnathostomata		Eukaryota	Acanthopterygii	V3165-01
 	transect	Mediaster aequalis	392.99	3165	05:03:37:13	http://search.mbari.org/ARCHIVE/frameGrabs/Ventana/images/3165/00_22_04_08.jpg	36.78849	-122.11762	2489270	0.9	38:47.0	Ventana	34.178	00:22:04:08	6.727		Goniasteridae	Mediaster			Animalia	Valvatida	Echinodermata	Mediaster aequalis	Asteroidea			Granulosina				Eukaryota		V3165-01
 	transect	Psolus squamatus	386.01	3165	05:24:34:20	 	36.789333	-122.117485	2490622	0.87	59:46.0	Ventana	34.183	00:43:02:11	6.674	Holothuroidea	Psolidae	Psolus			Animalia	Dendrochirotida	Echinodermata	Psolus squamatus								Eukaryota		V3165-01
 	ascend	water	203.09	3165	07:26:28:26	 	36.79865	-122.10811	2492895	1.48	03:07.0	Ventana	34.107	02:45:12:05	7.828																			V3165-03
 	transect	Sebastes diploproa	385.64	3165	05:25:14:19	 	36.789356	-122.1174	2490652	0.86	00:26.0	Ventana	34.187	00:43:43:02	6.617	Osteichthyes	Scorpaenidae	Sebastes	Neopterygii		Animalia	Scorpaeniformes	Chordata	Sebastes diploproa	Actinopterygii			Scorpaenoidei	Vertebrata	Gnathostomata		Eukaryota	Acanthopterygii	V3165-01
 	transect	Psolus squamatus	390.32	3165	05:16:10:21	http://search.mbari.org/ARCHIVE/frameGrabs/Ventana/images/3165/00_34_37_24.jpg	36.788906	-122.11793	2490389	0.85	51:21.0	Ventana	34.182	00:34:37:24	6.608	Holothuroidea	Psolidae	Psolus			Animalia	Dendrochirotida	Echinodermata	Psolus squamatus								Eukaryota		V3165-01
 	transect	physical object	393.69	3165	05:05:01:26	http://search.mbari.org/ARCHIVE/frameGrabs/Ventana/images/3165/00_23_30_15.jpg	36.788464	-122.11776	2489353	0.91	40:12.0	Ventana	34.177	00:23:30:15	6.743																			V3165-01
 	transect	Psolus squamatus	392.37	3165	04:59:14:06	 	36.788513	-122.117455	2489150	0.9	34:24.0	Ventana	34.178	00:17:41:22	6.719	Holothuroidea	Psolidae	Psolus			Animalia	Dendrochirotida	Echinodermata	Psolus squamatus								Eukaryota		V3165-01
 	transect	Phyllospadix	202.28	3165	06:22:04:20	 	36.799187	-122.10783	2492113	1.34	57:59.0	Ventana	34.128	01:40:37:25	7.683		Zosteraceae	Phyllospadix			Plantae	Najadales										Eukaryota		V3165-02
 	transect	Porifera	388.88	3165	05:16:54:19	 	36.78897	-122.11794	2490419	0.87	52:05.0	Ventana	34.193	00:35:22:25	6.662						Animalia		Porifera									Eukaryota		V3165-01
 	transect	Mediaster aequalis	386.15	3165	05:29:45:26	 	36.7894	-122.116684	2490795	0.8	04:57.0	Ventana	34.193	00:48:13:12	6.516		Goniasteridae	Mediaster			Animalia	Valvatida	Echinodermata	Mediaster aequalis	Asteroidea			Granulosina				Eukaryota		V3165-01
 	transect	Pleurobranchaea californica	206.84	3165	07:20:09:07	 	36.798897	-122.10813	2492865	1.41	56:47.0	Ventana	34.112	02:38:52:10	7.722	Gastropoda	Pleurobranchidae	Pleurobranchaea			Animalia	Notaspidea	Mollusca	Pleurobranchaea californica	Opisthobranchia						Pleurobranchiacea	Eukaryota		V3165-03
 	transect	Porifera	393.78	3165	05:05:11:26	 	36.788464	-122.117775	2489367	0.91	40:22.0	Ventana	34.177	00:23:39:18	6.743						Animalia		Porifera									Eukaryota		V3165-01
 	transect	Phyllospadix	188.82	3165	06:48:03:06	 	36.79991	-122.10818	2492713	1.64	24:39.0	Ventana	34.084	02:06:45:10	8.113		Zosteraceae	Phyllospadix			Plantae	Najadales										Eukaryota		V3165-03
 	transect	Osmeridae	387.01	3165	05:23:16:08	 	36.789272	-122.11756	2490578	0.85	58:27.0	Ventana	34.186	00:41:44:11	6.622	Osteichthyes	Osmeridae		Neopterygii		Animalia	Osmeriformes	Chordata		Actinopterygii			Osmeroidei	Vertebrata	Gnathostomata		Eukaryota	Protacanthopterygii	V3165-01
 	transect	Phyllospadix	188.81	3165	06:45:54:25	 	36.79986	-122.107895	2492683	1.63	22:31.0	Ventana	34.086	02:04:37:12	8.076		Zosteraceae	Phyllospadix			Plantae	Najadales										Eukaryota		V3165-03
 	transect	Phyllospadix	188.95	3165	07:01:56:26	 	36.799953	-122.108955	2492773	1.82	38:34.0	Ventana	34.043	02:20:38:27	8.408		Zosteraceae	Phyllospadix			Plantae	Najadales										Eukaryota		V3165-03
 	cruise	Rathbunaster californicus	394.69	3165	05:07:58:21	 	36.788715	-122.11823	2489457	0.83	43:09.0	Ventana	34.195	00:26:26:02	6.545		Labidiasteridae	Rathbunaster			Animalia	Forcipulatida	Echinodermata	Rathbunaster californicus	Asteroidea							Eukaryota		V3165-01
 	transect	Rathbunaster californicus	393.14	3165	05:03:55:13	 	36.788483	-122.117645	2489277	0.9	39:05.0	Ventana	34.178	00:22:23:11	6.725		Labidiasteridae	Rathbunaster			Animalia	Forcipulatida	Echinodermata	Rathbunaster californicus	Asteroidea							Eukaryota		V3165-01
 	transect	Phyllospadix	188.69	3165	06:56:05:06	 	36.799957	-122.108536	2492743	1.8	32:42.0	Ventana	34.047	02:14:48:09	8.408		Zosteraceae	Phyllospadix			Plantae	Najadales										Eukaryota		V3165-03
 	transect	Sebastes diploproa	386.95	3165	05:40:12:06	 	36.789536	-122.11588	2491457	0.82	15:24.0	Ventana	34.189	00:58:39:11	6.571	Osteichthyes	Scorpaenidae	Sebastes	Neopterygii		Animalia	Scorpaeniformes	Chordata	Sebastes diploproa	Actinopterygii			Scorpaenoidei	Vertebrata	Gnathostomata		Eukaryota	Acanthopterygii	V3165-01
 	transect	Phyllospadix	194.81	3165	06:31:29:02	 	36.799423	-122.10749	2492210	1.48	07:24.0	Ventana	34.111	01:50:00:28	7.833		Zosteraceae	Phyllospadix			Plantae	Najadales										Eukaryota		V3165-02
 	transect	Phyllospadix	196.7	3165	06:29:58:20	 	36.79934	-122.10756	2492180	1.46	05:54.0	Ventana	34.111	01:48:30:14	7.798		Zosteraceae	Phyllospadix			Plantae	Najadales										Eukaryota		V3165-02
 	transect	Porifera	389.81	3165	05:16:30:20	 	36.78894	-122.117935	2490398	0.84	51:41.0	Ventana	34.195	00:34:59:06	6.618						Animalia		Porifera									Eukaryota		V3165-01
 	transect	Phyllospadix	194.53	3165	06:31:41:01	 	36.79945	-122.10747	2492217	1.48	07:36.0	Ventana	34.111	01:50:14:05	7.833		Zosteraceae	Phyllospadix			Plantae	Najadales										Eukaryota		V3165-02
 	transect	Agonidae	204.19	3165	07:18:14:26	 	36.799076	-122.108246	2492856	1.54	54:53.0	Ventana	34.103	02:36:57:20	7.9	Osteichthyes	Agonidae		Neopterygii		Animalia	Scorpaeniformes	Chordata		Actinopterygii				Vertebrata	Gnathostomata		Eukaryota	Acanthopterygii	V3165-03
 	transect	Porifera	393.38	3165	05:04:21:28	 	36.78847	-122.11768	2489284	0.9	39:31.0	Ventana	34.179	00:22:49:24	6.729						Animalia		Porifera									Eukaryota		V3165-01
 	cruise	Rathbunaster californicus	372.27	3165	05:46:38:07	 	36.790455	-122.11494	2491887	0.85	22:30.0	Ventana	34.186	01:05:10:05	6.608		Labidiasteridae	Rathbunaster			Animalia	Forcipulatida	Echinodermata	Rathbunaster californicus	Asteroidea							Eukaryota		V3165-02
 	transect	Phyllospadix	201.84	3165	06:22:22:18	 	36.799206	-122.10781	2492120	1.38	58:17.0	Ventana	34.116	01:40:55:02	7.715		Zosteraceae	Phyllospadix			Plantae	Najadales										Eukaryota		V3165-02
 	transect	Phyllospadix	195.5	3165	07:09:52:26	 	36.799553	-122.10872	2492796	1.74	46:30.0	Ventana	34.069	02:28:35:10	8.244		Zosteraceae	Phyllospadix			Plantae	Najadales										Eukaryota		V3165-03
 	transect	Porifera	386.03	3165	05:24:32:20	 	36.789333	-122.11749	2490631	0.87	59:44.0	Ventana	34.183	00:43:00:27	6.674						Animalia		Porifera									Eukaryota		V3165-01
 	transect	Glyptocephalus zachirus	187.09	3165	06:42:07:12	 	36.799908	-122.10717	2492623	1.71	18:03.0	Ventana	34.063	02:00:39:29	8.247	Osteichthyes	Pleuronectidae	Glyptocephalus	Neopterygii		Animalia	Pleuronectiformes	Chordata		Actinopterygii				Vertebrata	Gnathostomata		Eukaryota	Acanthopterygii	V3165-02
 	transect	Phyllospadix	198.69	3165	07:11:55:07	 	36.79934	-122.10862	2492826	1.69	48:33.0	Ventana	34.072	02:30:36:23	8.191		Zosteraceae	Phyllospadix			Plantae	Najadales										Eukaryota		V3165-03
 	transect	Merluccius productus	396.82	3165	04:50:00:08	http://search.mbari.org/ARCHIVE/frameGrabs/Ventana/images/3165/00_08_27_29.jpg	36.788597	-122.11696	2488984	0.9	25:09.0	Ventana	34.178	00:08:27:29	6.691	Osteichthyes	Merlucciidae	Merluccius	Neopterygii		Animalia	Gadiformes	Chordata	Merluccius productus	Actinopterygii				Vertebrata	Gnathostomata		Eukaryota	Paracanthopterygii	V3165-01
 	transect	Allocentrotus fragilis	387.37	3165	05:38:05:25	 	36.78949	-122.116104	2490894	0.82	13:18.0	Ventana	34.19	00:56:34:04	6.55	Echinoidea	Strongylocentrotidae	Allocentrotus			Animalia	Echinoida	Echinodermata	Allocentrotus fragilis	Euechinoidea			Echinacea				Eukaryota		V3165-01
 	transect	Phyllospadix	189.15	3165	07:01:14:12	 	36.79994	-122.10887	2492766	1.85	37:51.0	Ventana	34.037	02:19:58:00	8.446		Zosteraceae	Phyllospadix			Plantae	Najadales										Eukaryota		V3165-03
 	transect	Phyllospadix	188.81	3165	06:47:39:06	 	36.799908	-122.108116	2492706	1.66	24:15.0	Ventana	34.079	02:06:21:13	8.13		Zosteraceae	Phyllospadix			Plantae	Najadales										Eukaryota		V3165-03
 	transect	Porifera	392.96	3165	05:14:44:08	 	36.78887	-122.11814	2489480	0.85	49:55.0	Ventana	34.19	00:33:12:25	6.691						Animalia		Porifera									Eukaryota		V3165-01
 	transect	Glyptocephalus zachirus	387.03	3165	05:39:52:07	 	36.789528	-122.11592	2491450	0.83	15:04.0	Ventana	34.189	00:58:20:03	6.571	Osteichthyes	Pleuronectidae	Glyptocephalus	Neopterygii		Animalia	Pleuronectiformes	Chordata		Actinopterygii				Vertebrata	Gnathostomata		Eukaryota	Acanthopterygii	V3165-01
 	transect	Phyllospadix	188.8	3165	06:55:39:07	 	36.79997	-122.10847	2492736	1.75	32:16.0	Ventana	34.06	02:14:21:05	8.346		Zosteraceae	Phyllospadix			Plantae	Najadales										Eukaryota		V3165-03
 	transect	Phyllospadix	198.56	3165	06:28:34:07	 	36.799248	-122.10761	2492157	1.46	04:29.0	Ventana	34.111	01:47:06:04	7.796		Zosteraceae	Phyllospadix			Plantae	Najadales										Eukaryota		V3165-02
 	transect	Phyllospadix	188.2	3165	06:41:29:13	 	36.799862	-122.10718	2492616	1.63	17:25.0	Ventana	34.089	02:00:01:11	8.165		Zosteraceae	Phyllospadix			Plantae	Najadales										Eukaryota		V3165-02
 	transect	Phyllospadix	192.59	3165	06:32:51:14	 	36.79958	-122.107346	2492240	1.51	08:46.0	Ventana	34.107	01:51:23:01	7.874		Zosteraceae	Phyllospadix			Plantae	Najadales										Eukaryota		V3165-02
 	cruise	Phyllospadix	187.55	3165	06:44:26:08	 	36.799892	-122.107635	2492646	1.7	20:22.0	Ventana	34.071	02:02:59:04	8.169		Zosteraceae	Phyllospadix			Plantae	Najadales										Eukaryota		V3165-02
 	transect	Stylasterias forreri	387.95	3165	05:17:23:04	http://search.mbari.org/ARCHIVE/frameGrabs/Ventana/images/3165/00_35_50_24.jpg	36.788994	-122.11792	2490435	0.91	52:33.0	Ventana	34.178	00:35:50:24	6.75		Asteriidae	Stylasterias			Animalia	Forcipulatida	Echinodermata	Stylasterias forreri	Asteroidea							Eukaryota		V3165-01
 	transect	Phyllospadix	197.63	3165	07:11:25:08	 	36.799397	-122.10864	2492819	1.7	48:03.0	Ventana	34.071	02:30:07:22	8.193		Zosteraceae	Phyllospadix			Plantae	Najadales										Eukaryota		V3165-03
 	transect	Merluccius productus	392.38	3165	04:58:58:07	 	36.788517	-122.11743	2489134	0.9	34:08.0	Ventana	34.179	00:17:26:07	6.72	Osteichthyes	Merlucciidae	Merluccius	Neopterygii		Animalia	Gadiformes	Chordata	Merluccius productus	Actinopterygii				Vertebrata	Gnathostomata		Eukaryota	Paracanthopterygii	V3165-01
 	transect	Porifera	385.89	3165	05:24:40:20	 	36.789333	-122.11747	2490638	0.87	59:52.0	Ventana	34.183	00:43:07:23	6.674						Animalia		Porifera									Eukaryota		V3165-01
 	cruise	mud	399	3165	04:45:33:02	 	36.78868	-122.116516	2488788	0.92	20:42.0	Ventana	34.177	00:04:01:21	6.713																			V3165-01
 	transect	Phyllospadix	188.81	3165	06:45:54:25	 	36.79986	-122.107895	2492682	1.63	22:31.0	Ventana	34.086	02:04:36:17	8.076		Zosteraceae	Phyllospadix			Plantae	Najadales										Eukaryota		V3165-03
 	transect	Mediaster aequalis	387.31	3165	05:38:15:24	 	36.789494	-122.11608	2491315	0.82	13:28.0	Ventana	34.19	00:56:44:12	6.547		Goniasteridae	Mediaster			Animalia	Valvatida	Echinodermata	Mediaster aequalis	Asteroidea			Granulosina				Eukaryota		V3165-01
 	transect	Phyllospadix	387.24	3165	05:19:07:15	 	36.789093	-122.117744	2490519	0.92	54:18.0	Ventana	34.177	00:37:35:16	6.762		Zosteraceae	Phyllospadix			Plantae	Najadales										Eukaryota		V3165-01
 	transect	Parastichopus leukothele	204.79	3165	06:20:04:07	http://search.mbari.org/ARCHIVE/frameGrabs/Ventana/images/3165/01_38_36_03.jpg	36.79903	-122.10793	2492036	1.4	55:59.0	Ventana	34.129	01:38:36:03	7.582	Holothuroidea	Stichopodidae	Parastichopus			Animalia	Aspidochirotida	Echinodermata	Parastichopus leukothele	Aspidochirotacea							Eukaryota		V3165-02
 	transect	Phyllospadix	188.69	3165	06:56:05:06	 	36.799957	-122.108536	2492742	1.8	32:42.0	Ventana	34.047	02:14:47:14	8.408		Zosteraceae	Phyllospadix			Plantae	Najadales										Eukaryota		V3165-03
 	transect	Mediaster aequalis	392.61	3165	04:58:14:08	 	36.78853	-122.11734	2489107	0.89	33:24.0	Ventana	34.181	00:16:41:13	6.702		Goniasteridae	Mediaster			Animalia	Valvatida	Echinodermata	Mediaster aequalis	Asteroidea			Granulosina				Eukaryota		V3165-01
 	transect	Phyllospadix	194.89	3165	06:31:27:02	 	36.79942	-122.10749	2492209	1.47	07:22.0	Ventana	34.11	01:50:00:06	7.83		Zosteraceae	Phyllospadix			Plantae	Najadales										Eukaryota		V3165-02
 	transect	Stylasterias forreri	393.39	3165	05:04:23:27	 	36.78847	-122.11768	2489287	0.9	39:33.0	Ventana	34.179	00:22:52:08	6.729		Asteriidae	Stylasterias			Animalia	Forcipulatida	Echinodermata	Stylasterias forreri	Asteroidea							Eukaryota		V3165-01
 	transect	Phyllospadix	188.78	3165	06:47:57:06	 	36.79991	-122.10816	2492712	1.65	24:33.0	Ventana	34.082	02:06:40:07	8.113		Zosteraceae	Phyllospadix			Plantae	Najadales										Eukaryota		V3165-03
 	transect	Mediaster aequalis	393.54	3165	05:04:37:27	 	36.788467	-122.117714	2489317	0.91	39:48.0	Ventana	34.178	00:23:04:20	6.741		Goniasteridae	Mediaster			Animalia	Valvatida	Echinodermata	Mediaster aequalis	Asteroidea			Granulosina				Eukaryota		V3165-01
 	transect	Phyllospadix	196.73	3165	06:29:56:20	 	36.799335	-122.10756	2492179	1.43	05:52.0	Ventana	34.128	01:48:29:23	7.742		Zosteraceae	Phyllospadix			Plantae	Najadales										Eukaryota		V3165-02
 	transect	Phyllospadix	199.05	3165	06:28:10:08	 	36.79923	-122.10762	2492149	1.42	04:05.0	Ventana	34.115	01:46:42:00	7.767		Zosteraceae	Phyllospadix			Plantae	Najadales										Eukaryota		V3165-02
 	transect	Glyptocephalus zachirus	386.92	3165	05:40:14:06	 	36.789536	-122.115875	2491458	0.82	15:26.0	Ventana	34.189	00:58:42:17	6.571	Osteichthyes	Pleuronectidae	Glyptocephalus	Neopterygii		Animalia	Pleuronectiformes	Chordata		Actinopterygii				Vertebrata	Gnathostomata		Eukaryota	Acanthopterygii	V3165-01
 	transect	Phyllospadix	203.98	3165	07:18:06:26	 	36.799084	-122.10825	2492855	1.56	54:45.0	Ventana	34.097	02:36:50:03	7.94		Zosteraceae	Phyllospadix			Plantae	Najadales										Eukaryota		V3165-03
 	transect	Parastichopus leukothele	198.47	3165	07:11:49:07	 	36.79935	-122.10862	2492825	1.69	48:27.0	Ventana	34.072	02:30:32:19	8.191	Holothuroidea	Stichopodidae	Parastichopus			Animalia	Aspidochirotida	Echinodermata	Parastichopus leukothele	Aspidochirotacea							Eukaryota		V3165-03
 	transect	Lycodes diapterus	396.42	3165	04:50:32:08	 	36.788586	-122.11702	2488987	0.9	25:41.0	Ventana	34.179	00:08:59:22	6.683	Osteichthyes	Zoarcidae	Lycodes	Neopterygii		Animalia	Perciformes	Chordata	Lycodes diapterus	Actinopterygii			Zoarcoidei	Vertebrata	Gnathostomata		Eukaryota	Acanthopterygii	V3165-01
 	transect	Mediaster aequalis	386.09	3165	05:29:15:26	 	36.78941	-122.11673	2490759	0.82	04:27.0	Ventana	34.192	00:47:44:17	6.534		Goniasteridae	Mediaster			Animalia	Valvatida	Echinodermata	Mediaster aequalis	Asteroidea			Granulosina				Eukaryota		V3165-01
 	transect	Mediaster aequalis	393.98	3165	05:05:37:25	 	36.78847	-122.11781	2489377	0.9	40:48.0	Ventana	34.182	00:24:04:18	6.699		Goniasteridae	Mediaster			Animalia	Valvatida	Echinodermata	Mediaster aequalis	Asteroidea			Granulosina				Eukaryota		V3165-01
 	transect	Porifera	386.79	3165	05:40:30:21	 	36.78954	-122.115845	2491480	0.83	15:42.0	Ventana	34.189	00:58:58:00	6.572						Animalia		Porifera									Eukaryota		V3165-01
 	transect	Phyllospadix	189.21	3165	07:01:06:13	 	36.79994	-122.10886	2492765	1.85	37:43.0	Ventana	34.037	02:19:48:27	8.446		Zosteraceae	Phyllospadix			Plantae	Najadales										Eukaryota		V3165-03
 	transect	Phyllospadix	194.53	3165	06:31:41:01	 	36.79945	-122.10747	2492216	1.48	07:36.0	Ventana	34.111	01:50:13:09	7.833		Zosteraceae	Phyllospadix			Plantae	Najadales										Eukaryota		V3165-02
 	transect	Actiniaria sp. 1	387.43	3165	05:36:45:13	 	36.789463	-122.11621	2490849	0.81	11:57.0	Ventana	34.193	00:55:13:12	6.534	Anthozoa					Animalia	Actiniaria	Cnidaria		Hexacorallia							Eukaryota		V3165-01
 	transect	Anthomastus ritteri	387.85	3165	05:17:27:03	http://search.mbari.org/ARCHIVE/frameGrabs/Ventana/images/3165/00_35_54_00.jpg	36.788998	-122.11791	2490459	0.91	52:37.0	Ventana	34.178	00:35:54:00	6.75	Anthozoa	Alcyoniidae				Animalia	Alcyonacea	Cnidaria	Anthomastus	Octocorallia							Eukaryota		V3165-01
 	transect	Glyptocephalus zachirus	394.08	3165	04:57:30:09	 	36.788544	-122.11726	2489047	0.88	32:39.0	Ventana	34.179	00:15:57:20	6.683	Osteichthyes	Pleuronectidae	Glyptocephalus	Neopterygii		Animalia	Pleuronectiformes	Chordata		Actinopterygii				Vertebrata	Gnathostomata		Eukaryota	Acanthopterygii	V3165-01
 	transect	Phyllospadix	195.42	3165	07:09:48:26	 	36.79956	-122.10872	2492795	1.74	46:26.0	Ventana	34.069	02:28:31:20	8.244		Zosteraceae	Phyllospadix			Plantae	Najadales										Eukaryota		V3165-03
 	transect	Porifera	385.71	3165	05:25:30:19	 	36.789368	-122.11737	2490662	0.84	00:42.0	Ventana	34.191	00:43:58:19	6.606						Animalia		Porifera									Eukaryota		V3165-01
 	transect	Phyllospadix	187.15	3165	06:42:05:12	 	36.799908	-122.10717	2492622	1.71	18:01.0	Ventana	34.063	02:00:37:09	8.247		Zosteraceae	Phyllospadix			Plantae	Najadales										Eukaryota		V3165-02
 	transect	Rathbunaster californicus	387.35	3165	05:38:13:25	 	36.789494	-122.11608	2491308	0.82	13:26.0	Ventana	34.19	00:56:41:13	6.547		Labidiasteridae	Rathbunaster			Animalia	Forcipulatida	Echinodermata	Rathbunaster californicus	Asteroidea							Eukaryota		V3165-01
 	transect	Phyllospadix	188.82	3165	06:47:37:07	 	36.799908	-122.108116	2492705	1.66	24:13.0	Ventana	34.079	02:06:20:03	8.13		Zosteraceae	Phyllospadix			Plantae	Najadales										Eukaryota		V3165-03
 	transect	Allocentrotus fragilis	387.32	3165	05:38:07:25	 	36.789494	-122.1161	2490895	0.82	13:20.0	Ventana	34.19	00:56:34:26	6.55	Echinoidea	Strongylocentrotidae	Allocentrotus			Animalia	Echinoida	Echinodermata	Allocentrotus fragilis	Euechinoidea			Echinacea				Eukaryota		V3165-01
 	transect	Porifera	386.92	3165	05:18:39:01	 	36.789055	-122.11781	2490496	0.92	53:50.0	Ventana	34.177	00:37:07:20	6.76						Animalia		Porifera									Eukaryota		V3165-01
 	transect	Mediaster aequalis	387.29	3165	05:38:19:25	 	36.789494	-122.11607	2491338	0.82	13:32.0	Ventana	34.19	00:56:48:03	6.547		Goniasteridae	Mediaster			Animalia	Valvatida	Echinodermata	Mediaster aequalis	Asteroidea			Granulosina				Eukaryota		V3165-01
 	transect	Rathbunaster californicus	392.56	3165	05:14:50:08	 	36.788883	-122.11812	2489483	0.85	50:01.0	Ventana	34.19	00:33:17:06	6.691		Labidiasteridae	Rathbunaster			Animalia	Forcipulatida	Echinodermata	Rathbunaster californicus	Asteroidea							Eukaryota		V3165-01
 	transect	Phyllospadix	188.83	3165	06:55:35:07	 	36.799965	-122.10847	2492735	1.75	32:12.0	Ventana	34.06	02:14:17:22	8.346		Zosteraceae	Phyllospadix			Plantae	Najadales										Eukaryota		V3165-03
 	transect	Rathbunaster californicus	392.38	3165	04:58:30:08	 	36.78852	-122.11737	2489114	0.89	33:40.0	Ventana	34.178	00:16:58:09	6.712		Labidiasteridae	Rathbunaster			Animalia	Forcipulatida	Echinodermata	Rathbunaster californicus	Asteroidea							Eukaryota		V3165-01
 	transect	Phyllospadix	201.06	3165	06:22:53:03	 	36.799244	-122.10778	2492126	1.41	58:47.0	Ventana	34.116	01:41:26:07	7.731		Zosteraceae	Phyllospadix			Plantae	Najadales										Eukaryota		V3165-02
 	transect	Psolus squamatus	386.11	3165	05:29:05:27	 	36.78941	-122.116745	2490752	0.81	04:17.0	Ventana	34.191	00:47:32:27	6.558	Holothuroidea	Psolidae	Psolus			Animalia	Dendrochirotida	Echinodermata	Psolus squamatus								Eukaryota		V3165-01
 	transect	Phyllospadix	202.29	3165	07:14:22:03	 	36.799133	-122.10839	2492848	1.68	50:59.0	Ventana	34.076	02:33:04:01	8.153		Zosteraceae	Phyllospadix			Plantae	Najadales										Eukaryota		V3165-03
 	transect	Porifera	389.54	3165	05:16:38:20	 	36.788956	-122.11794	2490406	0.84	51:49.0	Ventana	34.195	00:35:06:19	6.618						Animalia		Porifera									Eukaryota		V3165-01
 	transect	Phyllospadix	210.03	3165	07:22:12:04	 	36.798702	-122.10797	2492878	1.38	58:50.0	Ventana	34.124	02:40:54:02	7.616		Zosteraceae	Phyllospadix			Plantae	Najadales										Eukaryota		V3165-03
 	transect	Calliostoma platinum	393.82	3165	05:05:17:26	 	36.788464	-122.11778	2489370	0.91	40:28.0	Ventana	34.179	00:23:45:18	6.73	Gastropoda	Trochidae	Calliostoma			Animalia	Archaeogastropoda	Mollusca	Calliostoma platinum	Prosobranchia						Trochacea	Eukaryota		V3165-01
 	transect	Allocentrotus fragilis	392.84	3165	05:03:27:14	 	36.78849	-122.117615	2489257	0.9	38:37.0	Ventana	34.18	00:21:55:09	6.725	Echinoidea	Strongylocentrotidae	Allocentrotus			Animalia	Echinoida	Echinodermata	Allocentrotus fragilis	Euechinoidea			Echinacea				Eukaryota		V3165-01
 	transect	Allocentrotus fragilis	387.17	3165	05:38:37:24	 	36.7895	-122.116035	2491391	0.82	13:50.0	Ventana	34.191	00:57:05:28	6.548	Echinoidea	Strongylocentrotidae	Allocentrotus			Animalia	Echinoida	Echinodermata	Allocentrotus fragilis	Euechinoidea			Echinacea				Eukaryota		V3165-01
 	transect	Psolus squamatus	386.62	3165	05:40:48:20	 	36.789543	-122.11581	2491487	0.83	16:00.0	Ventana	34.19	00:59:16:25	6.577	Holothuroidea	Psolidae	Psolus			Animalia	Dendrochirotida	Echinodermata	Psolus squamatus								Eukaryota		V3165-01
 	transect	Phyllospadix	189.02	3165	07:02:47:09	 	36.799976	-122.10905	2492788	1.84	39:24.0	Ventana	34.044	02:21:30:03	8.422		Zosteraceae	Phyllospadix			Plantae	Najadales										Eukaryota		V3165-03
 	transect	Phyllospadix	188.48	3165	06:41:21:13	 	36.79985	-122.10718	2492615	1.58	17:17.0	Ventana	34.093	01:59:54:25	8.083		Zosteraceae	Phyllospadix			Plantae	Najadales										Eukaryota		V3165-02
 	transect	Mediaster aequalis	385.67	3165	05:25:41:03	 	36.789375	-122.11735	2490669	0.84	00:52.0	Ventana	34.191	00:44:07:28	6.606		Goniasteridae	Mediaster			Animalia	Valvatida	Echinodermata	Mediaster aequalis	Asteroidea			Granulosina				Eukaryota		V3165-01
 	transect	Phyllospadix	192.77	3165	06:32:45:14	 	36.79957	-122.10735	2492239	1.51	08:40.0	Ventana	34.107	01:51:18:02	7.874		Zosteraceae	Phyllospadix			Plantae	Najadales										Eukaryota		V3165-02
 	cruise	Parastichopus leukothele	187.45	3165	06:44:22:08	 	36.799892	-122.10761	2492645	1.7	20:18.0	Ventana	34.071	02:02:54:11	8.169	Holothuroidea	Stichopodidae	Parastichopus			Animalia	Aspidochirotida	Echinodermata	Parastichopus leukothele	Aspidochirotacea							Eukaryota		V3165-02
 	transect	Sebastes diploproa	386.36	3165	05:41:14:19	 	36.78955	-122.11575	2491517	0.84	16:27.0	Ventana	34.187	00:59:42:09	6.583	Osteichthyes	Scorpaenidae	Sebastes	Neopterygii		Animalia	Scorpaeniformes	Chordata	Sebastes diploproa	Actinopterygii			Scorpaenoidei	Vertebrata	Gnathostomata		Eukaryota	Acanthopterygii	V3165-01
 	transect	Phyllospadix	197.21	3165	07:11:13:08	 	36.799423	-122.10866	2492818	1.69	47:50.0	Ventana	34.074	02:29:55:00	8.185		Zosteraceae	Phyllospadix			Plantae	Najadales										Eukaryota		V3165-03
 	transect	Psolus squamatus	392.37	3165	04:59:14:06	 	36.788513	-122.117455	2489151	0.9	34:24.0	Ventana	34.178	00:17:41:22	6.719	Holothuroidea	Psolidae	Psolus			Animalia	Dendrochirotida	Echinodermata	Psolus squamatus								Eukaryota		V3165-01
 	transect	Phyllospadix	188.78	3165	06:46:51:08	 	36.799873	-122.108025	2492696	1.63	23:27.0	Ventana	34.084	02:05:34:19	8.084		Zosteraceae	Phyllospadix			Plantae	Najadales										Eukaryota		V3165-03
 	transect	Phyllospadix	195.44	3165	06:31:05:02	 	36.799393	-122.10752	2492193	1.43	07:00.0	Ventana	34.112	01:49:38:08	7.803		Zosteraceae	Phyllospadix			Plantae	Najadales										Eukaryota		V3165-02
 	transect	Porifera	393.9	3165	05:14:18:09	 	36.78884	-122.11819	2489474	0.85	49:28.0	Ventana	34.192	00:32:45:19	6.64						Animalia		Porifera									Eukaryota		V3165-01
 	transect	Merluccius productus	397.69	3165	04:49:01:25	 	36.788612	-122.11688	2488971	0.91	24:11.0	Ventana	34.177	00:07:30:08	6.703	Osteichthyes	Merlucciidae	Merluccius	Neopterygii		Animalia	Gadiformes	Chordata	Merluccius productus	Actinopterygii				Vertebrata	Gnathostomata		Eukaryota	Paracanthopterygii	V3165-01
 	transect	Phyllospadix	196.77	3165	07:10:55:09	 	36.799454	-122.10868	2492809	1.69	47:32.0	Ventana	34.073	02:29:37:18	8.183		Zosteraceae	Phyllospadix			Plantae	Najadales										Eukaryota		V3165-03
 	transect	Psolus squamatus	386.83	3165	05:40:26:21	 	36.78954	-122.11585	2491474	0.83	15:38.0	Ventana	34.189	00:58:53:21	6.572	Holothuroidea	Psolidae	Psolus			Animalia	Dendrochirotida	Echinodermata	Psolus squamatus								Eukaryota		V3165-01
 	transect	Phyllospadix	201.43	3165	07:13:49:19	 	36.79917	-122.10844	2492839	1.69	50:27.0	Ventana	34.074	02:32:32:10	8.178		Zosteraceae	Phyllospadix			Plantae	Najadales										Eukaryota		V3165-03
 	endtransect	object	188.49	3165	06:56:55:19	 	36.79996	-122.10863	2492749	1.83	33:32.0	Ventana	34.039	02:15:37:27	8.435																			V3165-03
 	transect	Porifera	393.8	3165	04:57:44:09	http://search.mbari.org/ARCHIVE/frameGrabs/Ventana/images/3165/00_16_11_10.jpg	36.788544	-122.11728	2489061	0.88	32:53.0	Ventana	34.18	00:16:11:10	6.679						Animalia		Porifera									Eukaryota		V3165-01
 	starttransect	object	387.5	3165	05:35:59:14	 	36.789463	-122.116264	2490835	0.82	11:11.0	Ventana	34.192	00:54:26:21	6.544																			V3165-01
 	transect	Rathbunaster californicus	391.27	3165	05:15:28:07	 	36.788902	-122.118065	2489534	0.88	50:39.0	Ventana	34.183	00:33:56:16	6.652		Labidiasteridae	Rathbunaster			Animalia	Forcipulatida	Echinodermata	Rathbunaster californicus	Asteroidea							Eukaryota		V3165-01
 	transect	Psolus squamatus	386.54	3165	05:40:52:20	 	36.789543	-122.1158	2491494	0.83	16:04.0	Ventana	34.19	00:59:20:00	6.577	Holothuroidea	Psolidae	Psolus			Animalia	Dendrochirotida	Echinodermata	Psolus squamatus								Eukaryota		V3165-01
 	endtransect	object	392.66	3165	04:59:58:20	 	36.788498	-122.1175	2489204	0.91	35:08.0	Ventana	34.176	00:18:27:02	6.744																			V3165-01
 	transect	Phyllospadix	188.88	3165	07:02:14:25	 	36.799973	-122.108986	2492779	1.84	38:52.0	Ventana	34.038	02:20:58:02	8.451		Zosteraceae	Phyllospadix			Plantae	Najadales										Eukaryota		V3165-03
 	transect	Glyptocephalus zachirus	193.56	3165	06:32:17:00	 	36.79952	-122.1074	2492230	1.51	08:12.0	Ventana	34.104	01:50:49:04	7.902	Osteichthyes	Pleuronectidae	Glyptocephalus	Neopterygii		Animalia	Pleuronectiformes	Chordata		Actinopterygii				Vertebrata	Gnathostomata		Eukaryota	Acanthopterygii	V3165-02
 	transect	Merluccius productus	392.34	3165	04:58:52:07	 	36.788517	-122.117424	2489128	0.9	34:02.0	Ventana	34.177	00:17:19:17	6.723	Osteichthyes	Merlucciidae	Merluccius	Neopterygii		Animalia	Gadiformes	Chordata	Merluccius productus	Actinopterygii				Vertebrata	Gnathostomata		Eukaryota	Paracanthopterygii	V3165-01
 	cruise	Sebastes diploproa	399.2	3165	04:46:25:15	 	36.788628	-122.11657	2488805	0.91	21:34.0	Ventana	34.177	00:04:53:00	6.707	Osteichthyes	Scorpaenidae	Sebastes	Neopterygii		Animalia	Scorpaeniformes	Chordata	Sebastes diploproa	Actinopterygii			Scorpaenoidei	Vertebrata	Gnathostomata		Eukaryota	Acanthopterygii	V3165-01
 	transect	Mediaster aequalis	188.67	3165	06:48:17:20	http://search.mbari.org/ARCHIVE/frameGrabs/Ventana/images/3165/02_06_59_23.jpg	36.799908	-122.1082	2492719	1.65	24:53.0	Ventana	34.08	02:06:59:23	8.133		Goniasteridae	Mediaster			Animalia	Valvatida	Echinodermata	Mediaster aequalis	Asteroidea			Granulosina				Eukaryota		V3165-03
 	cruise	Laminariales	211.15	3165	07:24:12:15	 	36.79859	-122.10798	2492892	1.36	00:50.0	Ventana	34.122	02:42:55:18	7.615	Phaeophyceae					Chromista	Laminariales	Phaeophycophyta									Eukaryota		V3165-03
 	transect	Phyllospadix	205.98	3165	07:19:31:09	 	36.798973	-122.10818	2492862	1.42	56:09.0	Ventana	34.12	02:38:13:19	7.68		Zosteraceae	Phyllospadix			Plantae	Najadales										Eukaryota		V3165-03
 	transect	Phyllospadix	188.91	3165	06:46:22:24	 	36.79987	-122.107956	2492689	1.61	22:59.0	Ventana	34.089	02:05:05:16	8.049		Zosteraceae	Phyllospadix			Plantae	Najadales										Eukaryota		V3165-03
 	transect	Lycodes cortezianus	189.85	3165	06:34:25:26	 	36.79973	-122.10724	2492336	1.55	10:21.0	Ventana	34.096	01:52:58:17	7.948	Osteichthyes	Zoarcidae	Lycodes	Neopterygii		Animalia	Perciformes	Chordata	Lycodes cortezianus	Actinopterygii			Zoarcoidei	Vertebrata	Gnathostomata		Eukaryota	Acanthopterygii	V3165-02
 	transect	Laminariales	202.91	3165	06:21:32:20	 	36.79914	-122.107864	2492080	1.38	57:27.0	Ventana	34.135	01:40:04:14	7.643	Phaeophyceae					Chromista	Laminariales	Phaeophycophyta									Eukaryota		V3165-02
 	transect	Porifera	388.74	3165	05:16:58:19	 	36.788975	-122.117935	2490422	0.89	52:09.0	Ventana	34.196	00:35:27:07	6.724						Animalia		Porifera									Eukaryota		V3165-01
 	cruise	Parmaturus xaniurus	399.37	3165	04:46:11:01	 	36.788635	-122.11655	20023808	0.92	21:20.0	Ventana	34.177	00:04:39:22	6.707	Chondrichthyes	Scyliorhinidae	Parmaturus			Animalia	Carcharhiniformes	Chordata	Parmaturus xaniurus	Elasmobranchii				Vertebrata			Eukaryota	Galeomorphi	V3165-01
 	transect	Sebastolobus altivelis	386.93	3165	05:40:18:21	 	36.789536	-122.11587	2491467	0.82	15:30.0	Ventana	34.189	00:58:46:00	6.571	Osteichthyes	Scorpaenidae	Sebastolobus	Neopterygii		Animalia	Scorpaeniformes	Chordata	Sebastolobus altivelis	Actinopterygii			Scorpaenoidei	Vertebrata	Gnathostomata		Eukaryota	Acanthopterygii	V3165-01
 	transect	Merluccius productus	396.73	3165	04:50:04:09	 	36.788597	-122.11697	2488978	0.9	25:13.0	Ventana	34.178	00:08:31:06	6.691	Osteichthyes	Merlucciidae	Merluccius	Neopterygii		Animalia	Gadiformes	Chordata	Merluccius productus	Actinopterygii				Vertebrata	Gnathostomata		Eukaryota	Paracanthopterygii	V3165-01
 	transect	Phyllospadix	199.93	3165	07:12:35:21	 	36.799263	-122.10856	2492832	1.67	49:13.0	Ventana	34.078	02:31:17:12	8.138		Zosteraceae	Phyllospadix			Plantae	Najadales										Eukaryota		V3165-03
 	transect	Allocentrotus fragilis	387.13	3165	05:39:20:08	 	36.789516	-122.115974	2491437	0.83	14:32.0	Ventana	34.19	00:57:47:18	6.569	Echinoidea	Strongylocentrotidae	Allocentrotus			Animalia	Echinoida	Echinodermata	Allocentrotus fragilis	Euechinoidea			Echinacea				Eukaryota		V3165-01
 	transect	Sebastes diploproa	394.43	3165	04:57:13:25	 	36.788548	-122.11723	2489038	0.89	32:23.0	Ventana	34.18	00:15:41:02	6.686	Osteichthyes	Scorpaenidae	Sebastes	Neopterygii		Animalia	Scorpaeniformes	Chordata	Sebastes diploproa	Actinopterygii			Scorpaenoidei	Vertebrata	Gnathostomata		Eukaryota	Acanthopterygii	V3165-01
 	transect	Phyllospadix	189	3165	07:01:42:26	 	36.799946	-122.10893	2492772	1.84	38:19.0	Ventana	34.041	02:20:24:15	8.427		Zosteraceae	Phyllospadix			Plantae	Najadales										Eukaryota		V3165-03
 	transect	Phyllospadix	195.96	3165	07:10:12:25	 	36.799526	-122.10872	2492802	1.73	46:50.0	Ventana	34.069	02:28:54:11	8.233		Zosteraceae	Phyllospadix			Plantae	Najadales										Eukaryota		V3165-03
 	transect	Mediaster aequalis	392.96	3165	05:03:35:13	 	36.78849	-122.11762	2489259	0.9	38:45.0	Ventana	34.178	00:22:03:04	6.727		Goniasteridae	Mediaster			Animalia	Valvatida	Echinodermata	Mediaster aequalis	Asteroidea			Granulosina				Eukaryota		V3165-01
 	transect	Mediaster aequalis	398.15	3165	04:48:27:26	 	36.788673	-122.116806	2488966	0.91	23:37.0	Ventana	34.175	00:06:55:09	6.712		Goniasteridae	Mediaster			Animalia	Valvatida	Echinodermata	Mediaster aequalis	Asteroidea			Granulosina				Eukaryota		V3165-01
 	transect	Laminariales	196.88	3165	06:29:50:20	 	36.79933	-122.10756	2492177	1.43	05:46.0	Ventana	34.128	01:48:22:17	7.742	Phaeophyceae					Chromista	Laminariales	Phaeophycophyta									Eukaryota		V3165-02
 	endtransect	object	203.13	3165	07:14:52:02	 	36.799103	-122.10835	2492853	1.65	51:30.0	Ventana	34.08	02:33:34:24	8.113																			V3165-03
 	transect	Porifera	389.48	3165	05:16:40:19	 	36.788956	-122.11794	2490408	0.84	51:51.0	Ventana	34.195	00:35:08:16	6.618						Animalia		Porifera									Eukaryota		V3165-01
 	transect	Phyllospadix	198.4	3165	07:11:47:07	 	36.799355	-122.10863	2492823	1.69	48:25.0	Ventana	34.072	02:30:29:05	8.191		Zosteraceae	Phyllospadix			Plantae	Najadales										Eukaryota		V3165-03
 	transect	Rathbunaster californicus	386.31	3165	05:24:04:21	 	36.789326	-122.11755	2490611	0.84	59:15.0	Ventana	34.192	00:42:31:29	6.607		Labidiasteridae	Rathbunaster			Animalia	Forcipulatida	Echinodermata	Rathbunaster californicus	Asteroidea							Eukaryota		V3165-01
 	transect	Mediaster aequalis	392.52	3165	04:58:16:08	 	36.788525	-122.11734	2489109	0.89	33:26.0	Ventana	34.181	00:16:43:14	6.702		Goniasteridae	Mediaster			Animalia	Valvatida	Echinodermata	Mediaster aequalis	Asteroidea			Granulosina				Eukaryota		V3165-01
 	transect	Octopus rubescens	188.87	3165	06:55:15:07	 	36.79994	-122.108444	2492733	1.71	31:51.0	Ventana	34.068	02:13:56:25	8.26	Cephalopoda	Octopodidae	Octopus			Animalia	Octopoda	Mollusca	Octopus rubescens	Coleoidea	Octopodinae		Incirrata				Eukaryota	Octopodiformes	V3165-03
 	transect	Mediaster aequalis	387.47	3165	05:36:53:12	 	36.789467	-122.1162	2490851	0.81	12:05.0	Ventana	34.193	00:55:21:00	6.534		Goniasteridae	Mediaster			Animalia	Valvatida	Echinodermata	Mediaster aequalis	Asteroidea			Granulosina				Eukaryota		V3165-01
 	transect	Calliostoma platinum	387.68	3165	05:17:35:03	 	36.789	-122.117905	2490461	0.91	52:45.0	Ventana	34.177	00:36:02:01	6.752	Gastropoda	Trochidae	Calliostoma			Animalia	Archaeogastropoda	Mollusca	Calliostoma platinum	Prosobranchia						Trochacea	Eukaryota		V3165-01
 	transect	Actiniaria sp. 3	394.02	3165	05:14:12:09	 	36.788837	-122.118195	2489469	0.85	49:22.0	Ventana	34.185	00:32:39:02	6.633	Anthozoa					Animalia	Actiniaria	Cnidaria		Hexacorallia							Eukaryota		V3165-01
 	transect	Phyllospadix	188.84	3165	06:47:23:07	 	36.799896	-122.108086	2492703	1.66	23:59.0	Ventana	34.079	02:06:06:04	8.14		Zosteraceae	Phyllospadix			Plantae	Najadales										Eukaryota		V3165-03
 	transect	Phyllospadix	195.36	3165	07:09:44:26	 	36.79957	-122.10873	2492793	1.75	46:22.0	Ventana	34.059	02:28:28:02	8.296		Zosteraceae	Phyllospadix			Plantae	Najadales										Eukaryota		V3165-03
 	transect	Tactostoma macropus	386.92	3165	05:40:16:06	http://search.mbari.org/ARCHIVE/frameGrabs/Ventana/images/3165/00_58_43_23.jpg	36.789536	-122.115875	2491460	0.82	15:28.0	Ventana	34.189	00:58:43:23	6.571	Osteichthyes	Stomiidae	Tactostoma	Neopterygii		Animalia	Stomiiformes	Chordata	Tactostoma macropus	Actinopterygii	Melanostomiinae			Vertebrata	Gnathostomata		Eukaryota	Stenopterygii	V3165-01
 	transect	Stomphia	390.57	3165	05:15:52:21	 	36.788902	-122.118004	2490378	0.86	51:03.0	Ventana	34.188	00:34:19:23	6.617	Anthozoa	Actinostolidae	Stomphia			Animalia	Actiniaria	Cnidaria		Hexacorallia			Nyantheae				Eukaryota		V3165-01
 	transect	Porifera	387.1	3165	05:39:00:08	 	36.78951	-122.116005	2491430	0.82	14:12.0	Ventana	34.19	00:57:28:08	6.555						Animalia		Porifera									Eukaryota		V3165-01
 	cruise	Allocentrotus fragilis	395.04	3165	05:07:14:07	 	36.788593	-122.118065	2489439	0.85	42:24.0	Ventana	34.189	00:25:42:18	6.607	Echinoidea	Strongylocentrotidae	Allocentrotus			Animalia	Echinoida	Echinodermata	Allocentrotus fragilis	Euechinoidea			Echinacea				Eukaryota		V3165-01
 	transect	Mediaster aequalis	386.11	3165	05:24:24:20	 	36.789333	-122.117516	2490618	0.85	59:36.0	Ventana	34.188	00:42:52:15	6.663		Goniasteridae	Mediaster			Animalia	Valvatida	Echinodermata	Mediaster aequalis	Asteroidea			Granulosina				Eukaryota		V3165-01
 	transect	Phyllospadix	188.99	3165	06:40:59:14	 	36.799828	-122.10719	2492613	1.54	16:55.0	Ventana	34.112	01:59:31:25	7.944		Zosteraceae	Phyllospadix			Plantae	Najadales										Eukaryota		V3165-02
 	cruise	Octopus rubescens	187.48	3165	06:44:08:08	http://search.mbari.org/ARCHIVE/frameGrabs/Ventana/images/3165/02_02_39_27.jpg	36.7999	-122.10755	2492643	1.72	20:04.0	Ventana	34.063	02:02:39:27	8.246	Cephalopoda	Octopodidae	Octopus			Animalia	Octopoda	Mollusca	Octopus rubescens	Coleoidea	Octopodinae		Incirrata				Eukaryota	Octopodiformes	V3165-02
 	transect	Phyllospadix	198.66	3165	06:28:30:07	 	36.799244	-122.10761	2492154	1.46	04:25.0	Ventana	34.111	01:47:02:06	7.796		Zosteraceae	Phyllospadix			Plantae	Najadales										Eukaryota		V3165-02
 	endtransect	object	387.25	3165	05:20:27:13	 	36.789127	-122.11768	2490558	0.84	55:38.0	Ventana	34.188	00:38:55:07	6.603																			V3165-01
 	transect	Psolus squamatus	386.13	3165	05:29:07:26	 	36.78941	-122.116745	2490754	0.81	04:19.0	Ventana	34.191	00:47:34:23	6.558	Holothuroidea	Psolidae	Psolus			Animalia	Dendrochirotida	Echinodermata	Psolus squamatus								Eukaryota		V3165-01
 	transect	Phyllospadix	190.43	3165	06:34:05:12	 	36.799694	-122.10726	2492320	1.54	10:01.0	Ventana	34.1	01:52:38:12	7.941		Zosteraceae	Phyllospadix			Plantae	Najadales										Eukaryota		V3165-02
 	transect	Mediaster aequalis	397.3	3165	04:49:27:25	 	36.78861	-122.11691	2488973	0.9	24:37.0	Ventana	34.177	00:07:55:25	6.698		Goniasteridae	Mediaster			Animalia	Valvatida	Echinodermata	Mediaster aequalis	Asteroidea			Granulosina				Eukaryota		V3165-01
 	transect	Phyllospadix	201.83	3165	07:14:06:04	 	36.799152	-122.10841	2492846	1.69	50:43.0	Ventana	34.075	02:32:47:28	8.166		Zosteraceae	Phyllospadix			Plantae	Najadales										Eukaryota		V3165-03
 	transect	Psolus squamatus	392.34	3165	04:58:52:07	 	36.788517	-122.117424	2489146	0.9	34:02.0	Ventana	34.177	00:17:19:17	6.723	Holothuroidea	Psolidae	Psolus			Animalia	Dendrochirotida	Echinodermata	Psolus squamatus								Eukaryota		V3165-01
 	transect	Allocentrotus fragilis	209.9	3165	07:22:07:19	 	36.79871	-122.10797	2492876	1.38	58:46.0	Ventana	34.124	02:40:49:24	7.616	Echinoidea	Strongylocentrotidae	Allocentrotus			Animalia	Echinoida	Echinodermata	Allocentrotus fragilis	Euechinoidea			Echinacea				Eukaryota		V3165-03
 	transect	Swiftia simplex	389.09	3165	05:16:50:20	 	36.788967	-122.11794	2490415	0.87	52:01.0	Ventana	34.193	00:35:18:11	6.662	Anthozoa	Plexauridae	Swiftia			Animalia	Gorgonacea	Cnidaria		Octocorallia			Holaxonia				Eukaryota		V3165-01
 	transect	Phyllospadix	189.06	3165	07:02:45:09	 	36.799976	-122.10904	2492786	1.84	39:22.0	Ventana	34.041	02:21:27:25	8.439		Zosteraceae	Phyllospadix			Plantae	Najadales										Eukaryota		V3165-03
 	transect	Phyllospadix	188.89	3165	07:00:28:13	 	36.799942	-122.10878	2492756	1.83	37:05.0	Ventana	34.042	02:19:11:12	8.426		Zosteraceae	Phyllospadix			Plantae	Najadales										Eukaryota		V3165-03
 	transect	Mediaster aequalis	386.69	3165	05:30:52:09	 	36.789406	-122.11672	2490814	0.81	06:03.0	Ventana	34.19	00:49:19:11	6.55		Goniasteridae	Mediaster			Animalia	Valvatida	Echinodermata	Mediaster aequalis	Asteroidea			Granulosina				Eukaryota		V3165-01
 	transect	Phyllospadix	197.18	3165	07:11:11:09	 	36.799427	-122.10866	2492816	1.69	47:48.0	Ventana	34.074	02:29:52:25	8.185		Zosteraceae	Phyllospadix			Plantae	Najadales										Eukaryota		V3165-03
 	transect	Phyllospadix	188.76	3165	06:49:11:19	 	36.799904	-122.108315	2492726	1.69	25:48.0	Ventana	34.074	02:07:54:01	8.215		Zosteraceae	Phyllospadix			Plantae	Najadales										Eukaryota		V3165-03
 	transect	Mediaster aequalis	386.1	3165	05:28:37:12	 	36.78942	-122.11681	2490731	0.81	03:49.0	Ventana	34.195	00:47:05:20	6.517		Goniasteridae	Mediaster			Animalia	Valvatida	Echinodermata	Mediaster aequalis	Asteroidea			Granulosina				Eukaryota		V3165-01
 	transect	Porifera	387.26	3165	05:19:15:15	 	36.7891	-122.11774	2490528	0.92	54:26.0	Ventana	34.177	00:37:44:00	6.764						Animalia		Porifera									Eukaryota		V3165-01
 	transect	Porifera	390.1	3165	05:16:20:20	 	36.78892	-122.11793	2490394	0.84	51:31.0	Ventana	34.188	00:34:47:22	6.602						Animalia		Porifera									Eukaryota		V3165-01
 	transect	Mediaster aequalis	386.13	3165	05:29:01:27	 	36.78941	-122.11676	2490747	0.81	04:13.0	Ventana	34.191	00:47:29:20	6.558		Goniasteridae	Mediaster			Animalia	Valvatida	Echinodermata	Mediaster aequalis	Asteroidea			Granulosina				Eukaryota		V3165-01
 	transect	Glyptocephalus zachirus	207.22	3165	07:20:23:22	 	36.798878	-122.108116	2492867	1.44	57:01.0	Ventana	34.115	02:39:05:16	7.732	Osteichthyes	Pleuronectidae	Glyptocephalus	Neopterygii		Animalia	Pleuronectiformes	Chordata		Actinopterygii				Vertebrata	Gnathostomata		Eukaryota	Acanthopterygii	V3165-03
 	transect	Mediaster aequalis	393.54	3165	05:04:37:27	 	36.788467	-122.117714	2489303	0.91	39:48.0	Ventana	34.178	00:23:04:20	6.741		Goniasteridae	Mediaster			Animalia	Valvatida	Echinodermata	Mediaster aequalis	Asteroidea			Granulosina				Eukaryota		V3165-01
 	transect	Octopus rubescens	196.45	3165	07:10:37:10	 	36.799484	-122.108696	2492807	1.69	47:14.0	Ventana	34.076	02:29:19:28	8.177	Cephalopoda	Octopodidae	Octopus			Animalia	Octopoda	Mollusca	Octopus rubescens	Coleoidea	Octopodinae		Incirrata				Eukaryota	Octopodiformes	V3165-03
 	transect	Phyllospadix	200.95	3165	07:13:27:19	 	36.7992	-122.10848	2492837	1.67	50:05.0	Ventana	34.074	02:32:10:28	8.178		Zosteraceae	Phyllospadix			Plantae	Najadales										Eukaryota		V3165-03
 	transect	Mediaster aequalis	393.54	3165	05:04:43:27	 	36.788464	-122.11772	2489333	0.91	39:54.0	Ventana	34.177	00:23:12:10	6.743		Goniasteridae	Mediaster			Animalia	Valvatida	Echinodermata	Mediaster aequalis	Asteroidea			Granulosina				Eukaryota		V3165-01
 	transect	Phyllospadix	188.78	3165	06:48:11:06	 	36.799908	-122.10819	2492717	1.64	24:47.0	Ventana	34.084	02:06:53:14	8.113		Zosteraceae	Phyllospadix			Plantae	Najadales										Eukaryota		V3165-03
 	starttransect	object	387.07	3165	05:23:06:08	 	36.789253	-122.11757	2490567	0.84	58:17.0	Ventana	34.191	00:41:34:23	6.611																			V3165-01
 	transect	Phyllospadix	188.92	3165	07:02:10:25	 	36.79997	-122.10898	2492777	1.84	38:48.0	Ventana	34.038	02:20:54:05	8.451		Zosteraceae	Phyllospadix			Plantae	Najadales										Eukaryota		V3165-03
 	transect	Phyllospadix	203.58	3165	06:21:04:06	 	36.799107	-122.10789	2492071	1.33	56:59.0	Ventana	34.121	01:39:36:01	7.665		Zosteraceae	Phyllospadix			Plantae	Najadales										Eukaryota		V3165-02
 	transect	Phyllospadix	188.93	3165	06:46:02:25	 	36.799866	-122.1079	2492687	1.61	22:39.0	Ventana	34.088	02:04:46:05	8.055		Zosteraceae	Phyllospadix			Plantae	Najadales										Eukaryota		V3165-03
 	cruise	Allocentrotus fragilis	394.93	3165	05:07:38:21	 	36.78866	-122.11816	2489453	0.85	42:48.0	Ventana	34.19	00:26:06:27	6.581	Echinoidea	Strongylocentrotidae	Allocentrotus			Animalia	Echinoida	Echinodermata	Allocentrotus fragilis	Euechinoidea			Echinacea				Eukaryota		V3165-01
 	transect	Sebastolobus	392.95	3165	04:58:02:09	 	36.788536	-122.11731	2489093	0.88	33:12.0	Ventana	34.181	00:16:30:09	6.678	Osteichthyes	Scorpaenidae	Sebastolobus	Neopterygii		Animalia	Scorpaeniformes	Chordata		Actinopterygii			Scorpaenoidei	Vertebrata	Gnathostomata		Eukaryota	Acanthopterygii	V3165-01
 	transect	Phyllospadix	188.64	3165	06:56:29:06	 	36.79996	-122.10859	2492747	1.82	33:06.0	Ventana	34.043	02:15:12:17	8.444		Zosteraceae	Phyllospadix			Plantae	Najadales										Eukaryota		V3165-03
 	transect	Allocentrotus fragilis	387.32	3165	05:38:07:25	 	36.789494	-122.1161	2490897	0.82	13:20.0	Ventana	34.19	00:56:35:28	6.55	Echinoidea	Strongylocentrotidae	Allocentrotus			Animalia	Echinoida	Echinodermata	Allocentrotus fragilis	Euechinoidea			Echinacea				Eukaryota		V3165-01
 	transect	Phyllospadix	194.71	3165	06:31:33:02	 	36.799435	-122.10748	2492214	1.48	07:28.0	Ventana	34.111	01:50:06:16	7.833		Zosteraceae	Phyllospadix			Plantae	Najadales										Eukaryota		V3165-02
 	cruise	Allocentrotus fragilis	211.16	3165	07:24:10:15	 	36.79859	-122.10798	2492890	1.36	00:48.0	Ventana	34.122	02:42:53:12	7.615	Echinoidea	Strongylocentrotidae	Allocentrotus			Animalia	Echinoida	Echinodermata	Allocentrotus fragilis	Euechinoidea			Echinacea				Eukaryota		V3165-03
 	transect	Psolus squamatus	386.54	3165	05:40:52:20	 	36.789543	-122.1158	2491492	0.83	16:04.0	Ventana	34.19	00:59:20:00	6.577	Holothuroidea	Psolidae	Psolus			Animalia	Dendrochirotida	Echinodermata	Psolus squamatus								Eukaryota		V3165-01
 	transect	Octopus rubescens	205.07	3165	07:18:57:10	 	36.799038	-122.108215	2492860	1.48	55:35.0	Ventana	34.109	02:37:40:21	7.795	Cephalopoda	Octopodidae	Octopus			Animalia	Octopoda	Mollusca	Octopus rubescens	Coleoidea	Octopodinae		Incirrata				Eukaryota	Octopodiformes	V3165-03
 	transect	Porifera	389.59	3165	05:16:36:20	http://search.mbari.org/ARCHIVE/frameGrabs/Ventana/images/3165/00_35_03_23.jpg	36.78895	-122.11794	2490401	0.84	51:47.0	Ventana	34.195	00:35:03:23	6.618						Animalia		Porifera									Eukaryota		V3165-01
 	transect	Phyllospadix	203.01	3165	06:21:28:20	 	36.799137	-122.107864	2492078	1.38	57:23.0	Ventana	34.135	01:40:01:25	7.643		Zosteraceae	Phyllospadix			Plantae	Najadales										Eukaryota		V3165-02
 	transect	Phyllospadix	195.87	3165	07:10:08:25	 	36.79953	-122.10872	2492800	1.73	46:46.0	Ventana	34.069	02:28:51:26	8.233		Zosteraceae	Phyllospadix			Plantae	Najadales										Eukaryota		V3165-03
 	transect	Porifera	386.55	3165	05:23:46:22	 	36.78931	-122.11755	2490604	0.84	58:57.0	Ventana	34.188	00:42:13:29	6.602						Animalia		Porifera									Eukaryota		V3165-01
 	cruise	mud	186.77	3165	06:42:39:26	 	36.799915	-122.107185	2492627	1.69	18:35.0	Ventana	34.068	02:01:13:08	8.243																			V3165-02
 	transect	Rathbunaster californicus	392.41	3165	04:58:54:07	 	36.788517	-122.117424	2489130	0.9	34:04.0	Ventana	34.177	00:17:22:20	6.723		Labidiasteridae	Rathbunaster			Animalia	Forcipulatida	Echinodermata	Rathbunaster californicus	Asteroidea							Eukaryota		V3165-01
 	endtransect	object	387.3	3165	05:31:52:06	 	36.78939	-122.116806	2490830	0.81	07:04.0	Ventana	34.193	00:50:20:08	6.542																			V3165-01
 	transect	Stomphia	391.45	3165	05:15:22:07	 	36.788902	-122.11807	2489529	0.89	50:33.0	Ventana	34.178	00:33:49:14	6.694	Anthozoa	Actinostolidae	Stomphia			Animalia	Actiniaria	Cnidaria		Hexacorallia			Nyantheae				Eukaryota		V3165-01
 	transect	Swiftia simplex	388.44	3165	05:17:10:19	 	36.788986	-122.11793	2490431	0.89	52:21.0	Ventana	34.196	00:35:39:17	6.724	Anthozoa	Plexauridae	Swiftia			Animalia	Gorgonacea	Cnidaria		Octocorallia			Holaxonia				Eukaryota		V3165-01
 	transect	Phyllospadix	199.44	3165	07:12:17:06	 	36.799294	-122.1086	2492830	1.68	48:55.0	Ventana	34.076	02:30:59:19	8.159		Zosteraceae	Phyllospadix			Plantae	Najadales										Eukaryota		V3165-03
 	transect	Phyllospadix	188.7	3165	06:55:57:06	 	36.79996	-122.10851	2492740	1.78	32:34.0	Ventana	34.053	02:14:39:17	8.381		Zosteraceae	Phyllospadix			Plantae	Najadales										Eukaryota		V3165-03
 	transect	Phyllospadix	188.98	3165	07:01:38:26	 	36.799946	-122.108925	2492770	1.84	38:15.0	Ventana	34.041	02:20:21:23	8.427		Zosteraceae	Phyllospadix			Plantae	Najadales										Eukaryota		V3165-03
 	transect	Mediaster aequalis	393.58	3165	05:14:30:09	 	36.788857	-122.118164	2489476	0.86	49:41.0	Ventana	34.187	00:32:58:05	6.64		Goniasteridae	Mediaster			Animalia	Valvatida	Echinodermata	Mediaster aequalis	Asteroidea			Granulosina				Eukaryota		V3165-01
 	transect	Mediaster aequalis	387.27	3165	05:19:57:13	 	36.789116	-122.117714	2490544	0.85	55:08.0	Ventana	34.189	00:38:24:25	6.629		Goniasteridae	Mediaster			Animalia	Valvatida	Echinodermata	Mediaster aequalis	Asteroidea			Granulosina				Eukaryota		V3165-01
 	transect	Mediaster aequalis	386.9	3165	05:40:22:21	 	36.789536	-122.11586	2491469	0.82	15:34.0	Ventana	34.189	00:58:49:22	6.571		Goniasteridae	Mediaster			Animalia	Valvatida	Echinodermata	Mediaster aequalis	Asteroidea			Granulosina				Eukaryota		V3165-01
 	transect	Phyllospadix	195.51	3165	06:31:01:03	 	36.79939	-122.10752	2492191	1.43	06:56.0	Ventana	34.112	01:49:33:00	7.803		Zosteraceae	Phyllospadix			Plantae	Najadales										Eukaryota		V3165-02
 	transect	Psolus squamatus	389.96	3165	05:16:24:20	 	36.78893	-122.11793	2490395	0.84	51:35.0	Ventana	34.188	00:34:52:11	6.602	Holothuroidea	Psolidae	Psolus			Animalia	Dendrochirotida	Echinodermata	Psolus squamatus								Eukaryota		V3165-01
 	transect	Luidia foliolata	207.22	3165	07:20:23:22	 	36.798878	-122.108116	2492866	1.44	57:01.0	Ventana	34.115	02:39:06:23	7.732		Luidiidae	Luidia			Animalia	Platyasterida	Echinodermata	Luidia foliolata	Asteroidea							Eukaryota		V3165-03
 	transect	Stomphia	386.73	3165	05:40:36:20	 	36.78954	-122.11584	2491484	0.83	15:48.0	Ventana	34.189	00:59:05:01	6.572	Anthozoa	Actinostolidae	Stomphia			Animalia	Actiniaria	Cnidaria		Hexacorallia			Nyantheae				Eukaryota		V3165-01
 	transect	Rathbunaster californicus	393.74	3165	05:05:05:26	 	36.788464	-122.11777	2489366	0.91	40:16.0	Ventana	34.177	00:23:33:15	6.743		Labidiasteridae	Rathbunaster			Animalia	Forcipulatida	Echinodermata	Rathbunaster californicus	Asteroidea							Eukaryota		V3165-01
 	transect	Phyllospadix	188.97	3165	07:02:06:25	 	36.79996	-122.10897	2492776	1.84	38:44.0	Ventana	34.038	02:20:48:27	8.451		Zosteraceae	Phyllospadix			Plantae	Najadales										Eukaryota		V3165-03
 	transect	Luidia foliolata	196.39	3165	07:10:35:10	 	36.799488	-122.1087	2492806	1.69	47:12.0	Ventana	34.076	02:29:17:08	8.177		Luidiidae	Luidia			Animalia	Platyasterida	Echinodermata	Luidia foliolata	Asteroidea							Eukaryota		V3165-03
 	transect	Stomphia	392.46	3165	04:59:22:21	http://search.mbari.org/ARCHIVE/frameGrabs/Ventana/images/3165/00_17_51_04.jpg	36.78851	-122.11747	2489186	0.9	34:32.0	Ventana	34.178	00:17:51:04	6.719	Anthozoa	Actinostolidae	Stomphia			Animalia	Actiniaria	Cnidaria		Hexacorallia			Nyantheae				Eukaryota		V3165-01
 	transect	Phyllospadix	190.86	3165	06:33:51:12	 	36.799675	-122.10728	2492310	1.52	09:47.0	Ventana	34.105	01:52:22:27	7.904		Zosteraceae	Phyllospadix			Plantae	Najadales										Eukaryota		V3165-02
 	transect	Phyllospadix	188.93	3165	06:46:02:25	 	36.799866	-122.1079	2492686	1.61	22:39.0	Ventana	34.088	02:04:45:11	8.055		Zosteraceae	Phyllospadix			Plantae	Najadales										Eukaryota		V3165-03
 	transect	Rathbunaster californicus	387.3	3165	05:19:31:15	 	36.789104	-122.117744	2490538	0.92	54:42.0	Ventana	34.177	00:37:59:23	6.759		Labidiasteridae	Rathbunaster			Animalia	Forcipulatida	Echinodermata	Rathbunaster californicus	Asteroidea							Eukaryota		V3165-01
 	transect	Phyllospadix	188.67	3165	06:56:25:05	 	36.79996	-122.10858	2492746	1.82	33:02.0	Ventana	34.043	02:15:08:19	8.444		Zosteraceae	Phyllospadix			Plantae	Najadales										Eukaryota		V3165-03
 	transect	Phyllospadix	188.85	3165	06:48:07:06	 	36.799908	-122.108185	2492716	1.64	24:43.0	Ventana	34.084	02:06:50:27	8.113		Zosteraceae	Phyllospadix			Plantae	Najadales										Eukaryota		V3165-03
 	transect	Rathbunaster californicus	386.79	3165	05:40:30:21	 	36.78954	-122.115845	2491477	0.83	15:42.0	Ventana	34.189	00:58:58:00	6.572		Labidiasteridae	Rathbunaster			Animalia	Forcipulatida	Echinodermata	Rathbunaster californicus	Asteroidea							Eukaryota		V3165-01
 	transect	Stylasterias forreri	391.87	3165	05:15:10:08	 	36.788906	-122.11809	2489486	0.88	50:21.0	Ventana	34.18	00:33:37:22	6.694		Asteriidae	Stylasterias			Animalia	Forcipulatida	Echinodermata	Stylasterias forreri	Asteroidea							Eukaryota		V3165-01
 	transect	Phyllospadix	196.23	3165	06:30:24:19	 	36.799362	-122.107544	2492183	1.46	06:20.0	Ventana	34.111	01:48:56:10	7.797		Zosteraceae	Phyllospadix			Plantae	Najadales										Eukaryota		V3165-02
 	transect	Octopus rubescens	204.95	3165	07:18:49:10	 	36.799046	-122.10822	2492859	1.48	55:27.0	Ventana	34.109	02:37:31:09	7.795	Cephalopoda	Octopodidae	Octopus			Animalia	Octopoda	Mollusca	Octopus rubescens	Coleoidea	Octopodinae		Incirrata				Eukaryota	Octopodiformes	V3165-03
 	transect	Phyllospadix	194.71	3165	06:31:33:02	 	36.799435	-122.10748	2492213	1.48	07:28.0	Ventana	34.111	01:50:05:28	7.833		Zosteraceae	Phyllospadix			Plantae	Najadales										Eukaryota		V3165-02
 	transect	Merluccius productus	395.42	3165	04:51:22:21	 	36.788563	-122.1171	2488990	0.89	26:32.0	Ventana	34.178	00:09:50:25	6.682	Osteichthyes	Merlucciidae	Merluccius	Neopterygii		Animalia	Gadiformes	Chordata	Merluccius productus	Actinopterygii				Vertebrata	Gnathostomata		Eukaryota	Paracanthopterygii	V3165-01
 	cruise	Mediaster aequalis	395.03	3165	05:07:24:22	 	36.78862	-122.1181	2489449	0.85	42:34.0	Ventana	34.189	00:25:52:19	6.607		Goniasteridae	Mediaster			Animalia	Valvatida	Echinodermata	Mediaster aequalis	Asteroidea			Granulosina				Eukaryota		V3165-01
 	transect	Porifera	388.24	3165	05:17:15:04	 	36.788986	-122.11793	2490432	0.91	52:25.0	Ventana	34.178	00:35:42:17	6.75						Animalia		Porifera									Eukaryota		V3165-01
 	transect	Mediaster aequalis	385.71	3165	05:25:30:19	 	36.789368	-122.11737	2490665	0.84	00:42.0	Ventana	34.191	00:43:58:19	6.606		Goniasteridae	Mediaster			Animalia	Valvatida	Echinodermata	Mediaster aequalis	Asteroidea			Granulosina				Eukaryota		V3165-01
 	transect	Phyllospadix	195.83	3165	07:10:06:25	 	36.799534	-122.10872	2492799	1.73	46:44.0	Ventana	34.069	02:28:48:13	8.233		Zosteraceae	Phyllospadix			Plantae	Najadales										Eukaryota		V3165-03
 	transect	Calliostoma platinum	387.58	3165	05:17:37:03	 	36.789005	-122.117905	2490462	0.91	52:47.0	Ventana	34.177	00:36:04:11	6.752	Gastropoda	Trochidae	Calliostoma			Animalia	Archaeogastropoda	Mollusca	Calliostoma platinum	Prosobranchia						Trochacea	Eukaryota		V3165-01
 	cruise	Parastichopus leukothele	186.72	3165	06:42:37:26	 	36.799915	-122.107185	2492626	1.69	18:33.0	Ventana	34.068	02:01:09:27	8.243	Holothuroidea	Stichopodidae	Parastichopus			Animalia	Aspidochirotida	Echinodermata	Parastichopus leukothele	Aspidochirotacea							Eukaryota		V3165-02
 	transect	Porifera	391.27	3165	05:15:28:07	 	36.788902	-122.118065	2489539	0.88	50:39.0	Ventana	34.183	00:33:56:16	6.652						Animalia		Porifera									Eukaryota		V3165-01
 	transect	Stomphia	392.55	3165	04:59:34:21	http://search.mbari.org/ARCHIVE/frameGrabs/Ventana/images/3165/00_18_02_15.jpg	36.788506	-122.11748	2489193	0.9	34:44.0	Ventana	34.178	00:18:02:15	6.723	Anthozoa	Actinostolidae	Stomphia			Animalia	Actiniaria	Cnidaria		Hexacorallia			Nyantheae				Eukaryota		V3165-01
 	transect	Phyllospadix	188.8	3165	06:47:55:06	 	36.79991	-122.108154	2492709	1.65	24:31.0	Ventana	34.082	02:06:37:24	8.113		Zosteraceae	Phyllospadix			Plantae	Najadales										Eukaryota		V3165-03
 	transect	Allocentrotus fragilis	386.57	3165	05:23:48:21	 	36.789314	-122.11755	2490605	0.84	58:59.0	Ventana	34.188	00:42:17:07	6.602	Echinoidea	Strongylocentrotidae	Allocentrotus			Animalia	Echinoida	Echinodermata	Allocentrotus fragilis	Euechinoidea			Echinacea				Eukaryota		V3165-01
 	transect	Phyllospadix	189.07	3165	07:01:32:26	 	36.799946	-122.10891	2492769	1.84	38:09.0	Ventana	34.041	02:20:14:17	8.427		Zosteraceae	Phyllospadix			Plantae	Najadales										Eukaryota		V3165-03
 	transect	Porifera	392.96	3165	05:14:44:08	 	36.78887	-122.11814	2489479	0.85	49:55.0	Ventana	34.19	00:33:12:25	6.691						Animalia		Porifera									Eukaryota		V3165-01
 	transect	Phyllospadix	188.7	3165	06:55:57:06	 	36.79996	-122.10851	2492739	1.78	32:34.0	Ventana	34.053	02:14:38:26	8.381		Zosteraceae	Phyllospadix			Plantae	Najadales										Eukaryota		V3165-03
 	transect	Phyllospadix	198.39	3165	06:28:42:07	 	36.799255	-122.107605	2492160	1.46	04:37.0	Ventana	34.111	01:47:14:02	7.796		Zosteraceae	Phyllospadix			Plantae	Najadales										Eukaryota		V3165-02
 	transect	Phyllospadix	188.99	3165	07:02:51:09	 	36.799976	-122.109055	2492790	1.84	39:28.0	Ventana	34.044	02:21:34:02	8.422		Zosteraceae	Phyllospadix			Plantae	Najadales										Eukaryota		V3165-03
 	transect	Phyllospadix	189.09	3165	07:00:52:12	 	36.79994	-122.108826	2492760	1.84	37:29.0	Ventana	34.04	02:19:35:25	8.437		Zosteraceae	Phyllospadix			Plantae	Najadales										Eukaryota		V3165-03
 	transect	Glyptocephalus zachirus	387.02	3165	05:39:38:07	 	36.789524	-122.115944	2491440	0.83	14:50.0	Ventana	34.189	00:58:05:18	6.574	Osteichthyes	Pleuronectidae	Glyptocephalus	Neopterygii		Animalia	Pleuronectiformes	Chordata		Actinopterygii				Vertebrata	Gnathostomata		Eukaryota	Acanthopterygii	V3165-01
 	transect	Sabellidae	202.14	3165	06:22:06:19	http://search.mbari.org/ARCHIVE/frameGrabs/Ventana/images/3165/01_40_39_17.jpg	36.799187	-122.10783	2492114	1.34	58:01.0	Ventana	34.128	01:40:39:17	7.683	Polychaeta	Sabellidae				Animalia	Sabellida	Annelida		Palpata							Eukaryota	Canalipalpata	V3165-02
 	transect	Phyllospadix	188.73	3165	06:49:39:18	 	36.79991	-122.108345	2492730	1.66	26:16.0	Ventana	34.08	02:08:21:05	8.152		Zosteraceae	Phyllospadix			Plantae	Najadales										Eukaryota		V3165-03
 	transect	Phyllospadix	197.83	3165	07:11:33:08	 	36.79938	-122.108635	2492820	1.69	48:11.0	Ventana	34.076	02:30:14:28	8.169		Zosteraceae	Phyllospadix			Plantae	Najadales										Eukaryota		V3165-03
 	transect	Allocentrotus fragilis	387.39	3165	05:37:43:26	 	36.78949	-122.11615	2490884	0.82	12:56.0	Ventana	34.191	00:56:12:14	6.548	Echinoidea	Strongylocentrotidae	Allocentrotus			Animalia	Echinoida	Echinodermata	Allocentrotus fragilis	Euechinoidea			Echinacea				Eukaryota		V3165-01
 	transect	Corallimorphus pilatus	393.8	3165	04:57:44:09	http://search.mbari.org/ARCHIVE/frameGrabs/Ventana/images/3165/00_16_11_10.jpg	36.788544	-122.11728	2489057	0.88	32:53.0	Ventana	34.18	00:16:11:10	6.679	Anthozoa	Corallimorphidae	Corallimorphus			Animalia	Corallimorpharia	Cnidaria	Corallimorphus pilatus	Hexacorallia							Eukaryota		V3165-01
 	transect	Rathbunaster californicus	386.5	3165	05:40:54:20	 	36.789543	-122.11579	2491498	0.83	16:06.0	Ventana	34.19	00:59:21:25	6.577		Labidiasteridae	Rathbunaster			Animalia	Forcipulatida	Echinodermata	Rathbunaster californicus	Asteroidea							Eukaryota		V3165-01
 	transect	Allocentrotus fragilis	387.24	3165	05:38:27:24	 	36.789497	-122.11605	2491380	0.82	13:40.0	Ventana	34.191	00:56:55:03	6.548	Echinoidea	Strongylocentrotidae	Allocentrotus			Animalia	Echinoida	Echinodermata	Allocentrotus fragilis	Euechinoidea			Echinacea				Eukaryota		V3165-01
 	cruise	physical object	394.79	3165	05:06:58:08	http://search.mbari.org/ARCHIVE/frameGrabs/Ventana/images/3165/00_25_26_24.jpg	36.78855	-122.118004	2489410	0.85	42:08.0	Ventana	34.189	00:25:26:24	6.581																			V3165-01
 	transect	Stomphia	393.97	3165	05:05:41:25	 	36.78847	-122.11782	2489380	0.9	40:52.0	Ventana	34.182	00:24:10:20	6.699	Anthozoa	Actinostolidae	Stomphia			Animalia	Actiniaria	Cnidaria		Hexacorallia			Nyantheae				Eukaryota		V3165-01
 	transect	Mediaster aequalis	394.09	3165	05:14:10:09	 	36.788834	-122.118195	2489470	0.85	49:20.0	Ventana	34.185	00:32:37:12	6.633		Goniasteridae	Mediaster			Animalia	Valvatida	Echinodermata	Mediaster aequalis	Asteroidea			Granulosina				Eukaryota		V3165-01
 	cruise	Parastichopus leukothele	187.47	3165	06:43:49:24	 	36.799908	-122.10747	2492640	1.67	19:46.0	Ventana	34.067	02:02:23:00	8.173	Holothuroidea	Stichopodidae	Parastichopus			Animalia	Aspidochirotida	Echinodermata	Parastichopus leukothele	Aspidochirotacea							Eukaryota		V3165-02
 	transect	Rathbunaster californicus	387.25	3165	05:20:25:13	 	36.789127	-122.11769	2490554	0.85	55:36.0	Ventana	34.189	00:38:52:26	6.61		Labidiasteridae	Rathbunaster			Animalia	Forcipulatida	Echinodermata	Rathbunaster californicus	Asteroidea							Eukaryota		V3165-01
 	transect	Phyllospadix	188.75	3165	06:47:15:08	 	36.79989	-122.10808	2492700	1.63	23:51.0	Ventana	34.084	02:05:58:15	8.111		Zosteraceae	Phyllospadix			Plantae	Najadales										Eukaryota		V3165-03
 	transect	Sebastolobus altivelis	389.19	3165	05:16:48:19	 	36.788963	-122.11794	2490411	0.87	51:59.0	Ventana	34.193	00:35:16:11	6.662	Osteichthyes	Scorpaenidae	Sebastolobus	Neopterygii		Animalia	Scorpaeniformes	Chordata	Sebastolobus altivelis	Actinopterygii			Scorpaenoidei	Vertebrata	Gnathostomata		Eukaryota	Acanthopterygii	V3165-01
 	transect	Phyllospadix	197	3165	07:11:03:09	 	36.799442	-122.108665	2492813	1.69	47:40.0	Ventana	34.074	02:29:45:27	8.185		Zosteraceae	Phyllospadix			Plantae	Najadales										Eukaryota		V3165-03
 	transect	Porifera	388.88	3165	05:16:54:19	 	36.78897	-122.11794	2490418	0.87	52:05.0	Ventana	34.193	00:35:21:19	6.662						Animalia		Porifera									Eukaryota		V3165-01
 	transect	Mediaster aequalis	386.09	3165	05:28:45:12	 	36.789417	-122.11679	2490741	0.81	03:57.0	Ventana	34.192	00:47:12:18	6.54		Goniasteridae	Mediaster			Animalia	Valvatida	Echinodermata	Mediaster aequalis	Asteroidea			Granulosina				Eukaryota		V3165-01
 	transect	Sebastes diploproa	396.99	3165	04:49:52:09	 	36.7886	-122.11694	2488974	0.9	25:01.0	Ventana	34.177	00:08:20:09	6.694	Osteichthyes	Scorpaenidae	Sebastes	Neopterygii		Animalia	Scorpaeniformes	Chordata	Sebastes diploproa	Actinopterygii			Scorpaenoidei	Vertebrata	Gnathostomata		Eukaryota	Acanthopterygii	V3165-01
 	transect	Phyllospadix	201.68	3165	07:13:58:04	 	36.799164	-122.10842	2492843	1.69	50:35.0	Ventana	34.074	02:32:39:27	8.178		Zosteraceae	Phyllospadix			Plantae	Najadales										Eukaryota		V3165-03
 	transect	Phyllospadix	188.83	3165	07:00:18:13	 	36.79994	-122.108765	2492753	1.83	36:55.0	Ventana	34.042	02:19:01:02	8.426		Zosteraceae	Phyllospadix			Plantae	Najadales										Eukaryota		V3165-03
 	transect	Sebastes diploproa	398.67	3165	04:47:41:13	http://search.mbari.org/ARCHIVE/frameGrabs/Ventana/images/3165/00_06_09_10.jpg	36.7887	-122.11671	2488884	0.92	22:50.0	Ventana	34.176	00:06:09:10	6.727	Osteichthyes	Scorpaenidae	Sebastes	Neopterygii		Animalia	Scorpaeniformes	Chordata	Sebastes diploproa	Actinopterygii			Scorpaenoidei	Vertebrata	Gnathostomata		Eukaryota	Acanthopterygii	V3165-01
 	transect	Sebastolobus altivelis	386.28	3165	05:28:19:13	 	36.789417	-122.116875	2490711	0.82	03:31.0	Ventana	34.193	00:46:48:03	6.544	Osteichthyes	Scorpaenidae	Sebastolobus	Neopterygii		Animalia	Scorpaeniformes	Chordata	Sebastolobus altivelis	Actinopterygii			Scorpaenoidei	Vertebrata	Gnathostomata		Eukaryota	Acanthopterygii	V3165-01
 	transect	Mediaster aequalis	387.14	3165	05:39:08:08	 	36.789513	-122.11599	2491433	0.82	14:20.0	Ventana	34.19	00:57:36:20	6.555		Goniasteridae	Mediaster			Animalia	Valvatida	Echinodermata	Mediaster aequalis	Asteroidea			Granulosina				Eukaryota		V3165-01
 	transect	Parastichopus leukothele	193.73	3165	06:32:11:01	 	36.79951	-122.10741	2492227	1.49	08:06.0	Ventana	34.108	01:50:43:14	7.883	Holothuroidea	Stichopodidae	Parastichopus			Animalia	Aspidochirotida	Echinodermata	Parastichopus leukothele	Aspidochirotacea							Eukaryota		V3165-02
 	transect	Mediaster aequalis	393.84	3165	05:05:21:25	 	36.788464	-122.11779	2489373	0.91	40:32.0	Ventana	34.179	00:23:50:06	6.73		Goniasteridae	Mediaster			Animalia	Valvatida	Echinodermata	Mediaster aequalis	Asteroidea			Granulosina				Eukaryota		V3165-01
 	transect	physical object	386.35	3165	05:41:06:20	http://search.mbari.org/ARCHIVE/frameGrabs/Ventana/images/3165/00_59_34_04.jpg	36.789547	-122.11577	2491505	0.83	16:19.0	Ventana	34.188	00:59:34:04	6.581																			V3165-01
 	transect	Ceriantharia	188.95	3165	07:02:33:09	 	36.799988	-122.10902	2492783	1.84	39:10.0	Ventana	34.041	02:21:15:14	8.439	Anthozoa					Animalia	Ceriantharia	Cnidaria		Ceriantipatharia							Eukaryota		V3165-03
 	transect	Mediaster aequalis	392.4	3165	04:58:38:08	 	36.788517	-122.11739	2489117	0.89	33:48.0	Ventana	34.178	00:17:05:05	6.712		Goniasteridae	Mediaster			Animalia	Valvatida	Echinodermata	Mediaster aequalis	Asteroidea			Granulosina				Eukaryota		V3165-01
 	cruise	water	204.2	3165	06:10:15:26	 	36.796185	-122.10942	2491911	1.87	46:10.0	Ventana	34.048	01:28:48:13	8.43																			V3165-02
 	cruise	Luidia foliolata	187.46	3165	06:43:27:25	 	36.799908	-122.10736	2492633	1.64	19:24.0	Ventana	34.077	02:02:00:29	8.105		Luidiidae	Luidia			Animalia	Platyasterida	Echinodermata	Luidia foliolata	Asteroidea							Eukaryota		V3165-02
 	cruise	Actiniaria sp. 3	394.93	3165	05:12:43:27	http://search.mbari.org/ARCHIVE/frameGrabs/Ventana/images/3165/00_31_11_23.jpg	36.788734	-122.11836	2489463	0.83	47:54.0	Ventana	34.191	00:31:11:23	6.608	Anthozoa					Animalia	Actiniaria	Cnidaria		Hexacorallia							Eukaryota		V3165-01
 	transect	Phyllospadix	197.3	3165	06:29:34:21	 	36.799316	-122.107574	2492174	1.45	05:29.0	Ventana	34.113	01:48:06:18	7.755		Zosteraceae	Phyllospadix			Plantae	Najadales										Eukaryota		V3165-02
 	transect	Phyllospadix	188.72	3165	06:48:39:20	 	36.799896	-122.108246	2492723	1.65	25:15.0	Ventana	34.081	02:07:21:12	8.129		Zosteraceae	Phyllospadix			Plantae	Najadales										Eukaryota		V3165-03
 	transect	Laminariales	188.82	3165	06:46:41:08	 	36.799873	-122.108	2492693	1.62	23:17.0	Ventana	34.085	02:05:23:19	8.078	Phaeophyceae					Chromista	Laminariales	Phaeophycophyta									Eukaryota		V3165-03
 	transect	Laminariales	199.7	3165	06:27:42:09	 	36.799213	-122.10762	2492144	1.42	03:37.0	Ventana	34.131	01:46:15:20	7.688	Phaeophyceae					Chromista	Laminariales	Phaeophycophyta									Eukaryota		V3165-02
 	transect	Phyllospadix	188.61	3165	06:56:19:05	 	36.799957	-122.10857	2492744	1.82	32:56.0	Ventana	34.043	02:15:02:00	8.444		Zosteraceae	Phyllospadix			Plantae	Najadales										Eukaryota		V3165-03
 	transect	Mediaster aequalis	392.8	3165	04:58:06:08	 	36.788532	-122.11732	2489105	0.88	33:16.0	Ventana	34.181	00:16:34:05	6.678		Goniasteridae	Mediaster			Animalia	Valvatida	Echinodermata	Mediaster aequalis	Asteroidea			Granulosina				Eukaryota		V3165-01
 	transect	physical object	387.85	3165	05:17:27:03	http://search.mbari.org/ARCHIVE/frameGrabs/Ventana/images/3165/00_35_54_00.jpg	36.788998	-122.11791	2490457	0.91	52:37.0	Ventana	34.178	00:35:54:00	6.75																			V3165-01
 	transect	Phyllospadix	189.01	3165	07:02:00:26	 	36.799957	-122.10896	2492774	1.84	38:38.0	Ventana	34.038	02:20:42:22	8.451		Zosteraceae	Phyllospadix			Plantae	Najadales										Eukaryota		V3165-03
 	transect	Phyllospadix	196.08	3165	07:10:20:25	 	36.79951	-122.10871	2492804	1.71	46:58.0	Ventana	34.073	02:29:03:19	8.195		Zosteraceae	Phyllospadix			Plantae	Najadales										Eukaryota		V3165-03
 	transect	Sebastolobus altivelis	391.87	3165	05:15:10:08	 	36.788906	-122.11809	2489488	0.88	50:21.0	Ventana	34.18	00:33:37:22	6.694	Osteichthyes	Scorpaenidae	Sebastolobus	Neopterygii		Animalia	Scorpaeniformes	Chordata	Sebastolobus altivelis	Actinopterygii			Scorpaenoidei	Vertebrata	Gnathostomata		Eukaryota	Acanthopterygii	V3165-01
 	transect	Porifera	386.96	3165	05:40:08:06	 	36.789536	-122.11589	2491456	0.82	15:20.0	Ventana	34.19	00:58:34:29	6.561						Animalia		Porifera									Eukaryota		V3165-01
 	transect	Phyllospadix	188.82	3165	06:48:03:06	 	36.79991	-122.10818	2492714	1.64	24:39.0	Ventana	34.084	02:06:46:02	8.113		Zosteraceae	Phyllospadix			Plantae	Najadales										Eukaryota		V3165-03
 	transect	Sebastes diploproa	387.15	3165	05:38:52:08	 	36.78951	-122.11601	2491426	0.82	14:04.0	Ventana	34.191	00:57:20:21	6.562	Osteichthyes	Scorpaenidae	Sebastes	Neopterygii		Animalia	Scorpaeniformes	Chordata	Sebastes diploproa	Actinopterygii			Scorpaenoidei	Vertebrata	Gnathostomata		Eukaryota	Acanthopterygii	V3165-01
 	transect	Porifera	386.35	3165	05:41:06:20	http://search.mbari.org/ARCHIVE/frameGrabs/Ventana/images/3165/00_59_34_04.jpg	36.789547	-122.11577	2491512	0.83	16:19.0	Ventana	34.188	00:59:34:04	6.581						Animalia		Porifera									Eukaryota		V3165-01
 	transect	Mediaster aequalis	389.81	3165	05:16:30:20	 	36.78894	-122.117935	2490397	0.84	51:41.0	Ventana	34.195	00:34:57:12	6.618		Goniasteridae	Mediaster			Animalia	Valvatida	Echinodermata	Mediaster aequalis	Asteroidea			Granulosina				Eukaryota		V3165-01
 	transect	Phyllospadix	204.35	3165	07:18:26:26	 	36.799065	-122.10824	2492857	1.54	55:05.0	Ventana	34.103	02:37:09:26	7.9		Zosteraceae	Phyllospadix			Plantae	Najadales										Eukaryota		V3165-03
 	transect	Phyllospadix	188.81	3165	06:45:54:25	 	36.79986	-122.107895	2492684	1.63	22:31.0	Ventana	34.086	02:04:37:23	8.076		Zosteraceae	Phyllospadix			Plantae	Najadales										Eukaryota		V3165-03
 	transect	Phyllospadix	198.81	3165	07:11:59:07	 	36.799328	-122.10862	2492827	1.69	48:37.0	Ventana	34.072	02:30:41:00	8.191		Zosteraceae	Phyllospadix			Plantae	Najadales										Eukaryota		V3165-03
 	transect	Sebastes diploproa	396.44	3165	04:50:20:08	 	36.78859	-122.11699	2488985	0.9	25:29.0	Ventana	34.178	00:08:48:21	6.686	Osteichthyes	Scorpaenidae	Sebastes	Neopterygii		Animalia	Scorpaeniformes	Chordata	Sebastes diploproa	Actinopterygii			Scorpaenoidei	Vertebrata	Gnathostomata		Eukaryota	Acanthopterygii	V3165-01
 	transect	Sabellidae	388.63	3165	05:17:04:19	 	36.78898	-122.117935	2490427	0.89	52:15.0	Ventana	34.196	00:35:33:10	6.724	Polychaeta	Sabellidae				Animalia	Sabellida	Annelida		Palpata							Eukaryota	Canalipalpata	V3165-01
 	transect	Ceriantharia	189.21	3165	07:01:16:12	 	36.799942	-122.10888	2492767	1.85	37:53.0	Ventana	34.041	02:20:00:07	8.441	Anthozoa					Animalia	Ceriantharia	Cnidaria		Ceriantipatharia							Eukaryota		V3165-03
 	cruise	Rathbunaster californicus	395.01	3165	05:07:30:22	 	36.788635	-122.118126	2489451	0.85	42:40.0	Ventana	34.19	00:25:58:12	6.581		Labidiasteridae	Rathbunaster			Animalia	Forcipulatida	Echinodermata	Rathbunaster californicus	Asteroidea							Eukaryota		V3165-01
 	transect	Sebastolobus altivelis	392.8	3165	05:14:46:08	 	36.788876	-122.11813	2489481	0.85	49:57.0	Ventana	34.19	00:33:14:22	6.691	Osteichthyes	Scorpaenidae	Sebastolobus	Neopterygii		Animalia	Scorpaeniformes	Chordata	Sebastolobus altivelis	Actinopterygii			Scorpaenoidei	Vertebrata	Gnathostomata		Eukaryota	Acanthopterygii	V3165-01
 	transect	Mediaster aequalis	394.08	3165	04:57:36:09	 	36.788544	-122.11727	2489052	0.88	32:45.0	Ventana	34.179	00:16:04:10	6.683		Goniasteridae	Mediaster			Animalia	Valvatida	Echinodermata	Mediaster aequalis	Asteroidea			Granulosina				Eukaryota		V3165-01
 	transect	Merluccius productus	394.7	3165	04:56:53:26	 	36.78855	-122.1172	2489022	0.88	32:03.0	Ventana	34.179	00:15:20:26	6.684	Osteichthyes	Merlucciidae	Merluccius	Neopterygii		Animalia	Gadiformes	Chordata	Merluccius productus	Actinopterygii				Vertebrata	Gnathostomata		Eukaryota	Paracanthopterygii	V3165-01
 	transect	Merluccius productus	392.5	3165	04:58:26:08	 	36.78852	-122.11736	2489112	0.89	33:36.0	Ventana	34.181	00:16:54:11	6.702	Osteichthyes	Merlucciidae	Merluccius	Neopterygii		Animalia	Gadiformes	Chordata	Merluccius productus	Actinopterygii				Vertebrata	Gnathostomata		Eukaryota	Paracanthopterygii	V3165-01
 	transect	Phyllospadix	195.5	3165	07:09:52:26	 	36.799553	-122.10872	2492797	1.74	46:30.0	Ventana	34.069	02:28:35:28	8.244		Zosteraceae	Phyllospadix			Plantae	Najadales										Eukaryota		V3165-03
 	transect	Allocentrotus fragilis	387.4	3165	05:17:45:03	 	36.78901	-122.1179	2490464	0.91	52:56.0	Ventana	34.178	00:36:12:12	6.758	Echinoidea	Strongylocentrotidae	Allocentrotus			Animalia	Echinoida	Echinodermata	Allocentrotus fragilis	Euechinoidea			Echinacea				Eukaryota		V3165-01
 	transect	Rathbunaster californicus	386.14	3165	05:28:33:13	 	36.78942	-122.11683	2490727	0.81	03:45.0	Ventana	34.195	00:47:01:12	6.517		Labidiasteridae	Rathbunaster			Animalia	Forcipulatida	Echinodermata	Rathbunaster californicus	Asteroidea							Eukaryota		V3165-01
 	transect	Porifera	390.69	3165	05:15:44:21	 	36.788902	-122.118034	2490374	0.86	50:55.0	Ventana	34.188	00:34:12:10	6.617						Animalia		Porifera									Eukaryota		V3165-01
 	transect	Mediaster aequalis	386.98	3165	05:39:48:07	 	36.789528	-122.11593	2491449	0.83	15:00.0	Ventana	34.189	00:58:16:21	6.571		Goniasteridae	Mediaster			Animalia	Valvatida	Echinodermata	Mediaster aequalis	Asteroidea			Granulosina				Eukaryota		V3165-01
 	transect	Allocentrotus fragilis	387.37	3165	05:38:05:25	 	36.78949	-122.116104	2490893	0.82	13:18.0	Ventana	34.19	00:56:33:04	6.55	Echinoidea	Strongylocentrotidae	Allocentrotus			Animalia	Echinoida	Echinodermata	Allocentrotus fragilis	Euechinoidea			Echinacea				Eukaryota		V3165-01
 	transect	Porifera	386.59	3165	05:40:50:20	 	36.789543	-122.11581	2491489	0.83	16:02.0	Ventana	34.19	00:59:18:02	6.577						Animalia		Porifera									Eukaryota		V3165-01
 	transect	Porifera	392.73	3165	05:03:19:14	 	36.788494	-122.11761	2489255	0.9	38:29.0	Ventana	34.18	00:21:47:25	6.725						Animalia		Porifera									Eukaryota		V3165-01
 	transect	Mediaster aequalis	385.64	3165	05:25:39:03	 	36.789375	-122.117355	2490667	0.84	00:50.0	Ventana	34.191	00:44:06:04	6.606		Goniasteridae	Mediaster			Animalia	Valvatida	Echinodermata	Mediaster aequalis	Asteroidea			Granulosina				Eukaryota		V3165-01
 	transect	Phyllospadix	188.11	3165	06:41:33:13	 	36.799866	-122.10717	2492617	1.63	17:29.0	Ventana	34.089	02:00:06:26	8.165		Zosteraceae	Phyllospadix			Plantae	Najadales										Eukaryota		V3165-02
 	cruise	Parastichopus leukothele	187.62	3165	06:44:30:08	 	36.79989	-122.10765	2492647	1.68	20:26.0	Ventana	34.072	02:03:03:06	8.173	Holothuroidea	Stichopodidae	Parastichopus			Animalia	Aspidochirotida	Echinodermata	Parastichopus leukothele	Aspidochirotacea							Eukaryota		V3165-02
 	transect	Lycodes diapterus	398.41	3165	04:48:01:27	http://search.mbari.org/ARCHIVE/frameGrabs/Ventana/images/3165/00_06_29_20.jpg	36.788776	-122.116745	2488962	0.92	23:10.0	Ventana	34.177	00:06:29:20	6.717	Osteichthyes	Zoarcidae	Lycodes	Neopterygii		Animalia	Perciformes	Chordata	Lycodes diapterus	Actinopterygii			Zoarcoidei	Vertebrata	Gnathostomata		Eukaryota	Acanthopterygii	V3165-01
 	transect	Glyptocephalus zachirus	386.45	3165	05:41:22:19	 	36.78955	-122.11574	2491519	0.84	16:35.0	Ventana	34.187	00:59:50:05	6.583	Osteichthyes	Pleuronectidae	Glyptocephalus	Neopterygii		Animalia	Pleuronectiformes	Chordata		Actinopterygii				Vertebrata	Gnathostomata		Eukaryota	Acanthopterygii	V3165-01
 	transect	Phyllospadix	198.56	3165	06:28:34:07	 	36.799248	-122.10761	2492158	1.46	04:29.0	Ventana	34.111	01:47:06:18	7.796		Zosteraceae	Phyllospadix			Plantae	Najadales										Eukaryota		V3165-02
 	transect	Phyllospadix	188.83	3165	06:47:43:07	 	36.79991	-122.10812	2492707	1.66	24:19.0	Ventana	34.079	02:06:24:22	8.13		Zosteraceae	Phyllospadix			Plantae	Najadales										Eukaryota		V3165-03
 	cruise	benthos	206.7	3165	06:18:13:26	 	36.798866	-122.107994	2491925	1.47	54:08.0	Ventana	34.105	01:36:46:12	7.821																			V3165-02
 	transect	Phyllospadix	202.68	3165	07:14:38:02	 	36.799114	-122.10837	2492850	1.68	51:16.0	Ventana	34.078	02:33:21:08	8.137		Zosteraceae	Phyllospadix			Plantae	Najadales										Eukaryota		V3165-03
 	transect	Phyllospadix	389.59	3165	05:16:36:20	http://search.mbari.org/ARCHIVE/frameGrabs/Ventana/images/3165/00_35_03_23.jpg	36.78895	-122.11794	2490404	0.84	51:47.0	Ventana	34.195	00:35:03:23	6.618		Zosteraceae	Phyllospadix			Plantae	Najadales										Eukaryota		V3165-01
 	transect	Stylasterias forreri	393.87	3165	05:05:15:26	 	36.788464	-122.11778	2489368	0.91	40:26.0	Ventana	34.179	00:23:43:03	6.73		Asteriidae	Stylasterias			Animalia	Forcipulatida	Echinodermata	Stylasterias forreri	Asteroidea							Eukaryota		V3165-01
 	transect	Phyllospadix	188.81	3165	06:47:07:08	 	36.799885	-122.108055	2492698	1.63	23:43.0	Ventana	34.084	02:05:50:07	8.111		Zosteraceae	Phyllospadix			Plantae	Najadales										Eukaryota		V3165-03
 	transect	Phyllospadix	190.81	3165	06:33:53:13	 	36.79968	-122.10728	2492315	1.52	09:49.0	Ventana	34.105	01:52:25:29	7.904		Zosteraceae	Phyllospadix			Plantae	Najadales										Eukaryota		V3165-02
 	transect	Sebastes saxicola	206.08	3165	06:19:20:09	 	36.798965	-122.10796	2491962	1.38	55:14.0	Ventana	34.131	01:37:52:06	7.545	Osteichthyes	Scorpaenidae	Sebastes	Neopterygii		Animalia	Scorpaeniformes	Chordata	Sebastes saxicola	Actinopterygii			Scorpaenoidei	Vertebrata	Gnathostomata		Eukaryota	Acanthopterygii	V3165-02
 	transect	Glyptocephalus zachirus	387	3165	05:18:45:01	 	36.789062	-122.1178	2490503	0.92	53:56.0	Ventana	34.178	00:37:13:10	6.76	Osteichthyes	Pleuronectidae	Glyptocephalus	Neopterygii		Animalia	Pleuronectiformes	Chordata		Actinopterygii				Vertebrata	Gnathostomata		Eukaryota	Acanthopterygii	V3165-01
 	transect	Rathbunaster californicus	386.85	3165	05:23:22:07	 	36.789284	-122.11756	2490593	0.85	58:33.0	Ventana	34.186	00:41:50:09	6.622		Labidiasteridae	Rathbunaster			Animalia	Forcipulatida	Echinodermata	Rathbunaster californicus	Asteroidea							Eukaryota		V3165-01
 	transect	Psolus squamatus	394.08	3165	05:05:54:10	 	36.78848	-122.117836	2489382	0.86	41:04.0	Ventana	34.188	00:24:22:07	6.619	Holothuroidea	Psolidae	Psolus			Animalia	Dendrochirotida	Echinodermata	Psolus squamatus								Eukaryota		V3165-01
 	transect	Phyllospadix	188.98	3165	07:00:40:12	 	36.79994	-122.1088	2492758	1.83	37:17.0	Ventana	34.04	02:19:22:16	8.432		Zosteraceae	Phyllospadix			Plantae	Najadales										Eukaryota		V3165-03
 	transect	Rathbunaster californicus	393.04	3165	04:57:56:09	 	36.788536	-122.117294	2489089	0.88	33:06.0	Ventana	34.18	00:16:24:10	6.679		Labidiasteridae	Rathbunaster			Animalia	Forcipulatida	Echinodermata	Rathbunaster californicus	Asteroidea							Eukaryota		V3165-01
 	transect	Rathbunaster californicus	386.11	3165	05:28:39:13	 	36.78942	-122.11681	2490736	0.81	03:51.0	Ventana	34.195	00:47:08:03	6.517		Labidiasteridae	Rathbunaster			Animalia	Forcipulatida	Echinodermata	Rathbunaster californicus	Asteroidea							Eukaryota		V3165-01
 	transect	Laminariales	188.76	3165	06:49:25:18	 	36.799908	-122.10833	2492728	1.69	26:02.0	Ventana	34.076	02:08:08:19	8.19	Phaeophyceae					Chromista	Laminariales	Phaeophycophyta									Eukaryota		V3165-03
 	transect	Porifera	386.54	3165	05:40:52:20	 	36.789543	-122.1158	2491496	0.83	16:04.0	Ventana	34.19	00:59:20:00	6.577						Animalia		Porifera									Eukaryota		V3165-01
 	transect	Mediaster aequalis	385.57	3165	05:25:55:03	 	36.78938	-122.11732	2490676	0.84	01:06.0	Ventana	34.187	00:44:22:28	6.627		Goniasteridae	Mediaster			Animalia	Valvatida	Echinodermata	Mediaster aequalis	Asteroidea			Granulosina				Eukaryota		V3165-01
 	transect	Phyllospadix	198.05	3165	06:29:00:06	 	36.79928	-122.1076	2492165	1.47	04:55.0	Ventana	34.112	01:47:32:03	7.808		Zosteraceae	Phyllospadix			Plantae	Najadales										Eukaryota		V3165-02
 	transect	Rathbunaster californicus	393.9	3165	05:14:18:09	 	36.78884	-122.11819	2489472	0.85	49:28.0	Ventana	34.192	00:32:46:05	6.64		Labidiasteridae	Rathbunaster			Animalia	Forcipulatida	Echinodermata	Rathbunaster californicus	Asteroidea							Eukaryota		V3165-01
 	transect	Glyptocephalus zachirus	398.1	3165	04:48:33:26	 	36.78866	-122.11682	2488969	0.91	23:43.0	Ventana	34.177	00:07:01:27	6.712	Osteichthyes	Pleuronectidae	Glyptocephalus	Neopterygii		Animalia	Pleuronectiformes	Chordata		Actinopterygii				Vertebrata	Gnathostomata		Eukaryota	Acanthopterygii	V3165-01
 	transect	Parastichopus leukothele	197.07	3165	07:11:05:09	 	36.79944	-122.108665	2492811	1.69	47:42.0	Ventana	34.074	02:29:47:23	8.185	Holothuroidea	Stichopodidae	Parastichopus			Animalia	Aspidochirotida	Echinodermata	Parastichopus leukothele	Aspidochirotacea							Eukaryota		V3165-03
 	cruise	water	318.82	3165	05:54:11:23	 	36.792442	-122.1134	2491902	1.03	30:05.0	Ventana	34.163	01:12:43:22	7.026																			V3165-02
 	transect	Rathbunaster californicus	387.22	3165	05:18:03:02	 	36.789017	-122.117874	2490473	0.92	53:14.0	Ventana	34.177	00:36:30:13	6.762		Labidiasteridae	Rathbunaster			Animalia	Forcipulatida	Echinodermata	Rathbunaster californicus	Asteroidea							Eukaryota		V3165-01
 	transect	Mediaster aequalis	386.13	3165	05:24:20:21	 	36.789333	-122.11752	2490616	0.85	59:32.0	Ventana	34.188	00:42:48:25	6.663		Goniasteridae	Mediaster			Animalia	Valvatida	Echinodermata	Mediaster aequalis	Asteroidea			Granulosina				Eukaryota		V3165-01
 	transect	Phyllospadix	201.6	3165	07:13:53:19	 	36.799168	-122.10843	2492841	1.69	50:31.0	Ventana	34.074	02:32:35:19	8.178		Zosteraceae	Phyllospadix			Plantae	Najadales										Eukaryota		V3165-03
 	cruise	mud	187.42	3165	06:43:41:24	 	36.799908	-122.10742	2492638	1.67	19:38.0	Ventana	34.067	02:02:14:26	8.173																			V3165-02
 	transect	Mediaster aequalis	386.37	3165	05:30:09:24	 	36.789406	-122.11668	2490803	0.8	05:21.0	Ventana	34.196	00:48:37:17	6.499		Goniasteridae	Mediaster			Animalia	Valvatida	Echinodermata	Mediaster aequalis	Asteroidea			Granulosina				Eukaryota		V3165-01
 	transect	Phyllospadix	189.72	3165	06:34:29:26	 	36.79974	-122.10723	2492368	1.54	10:25.0	Ventana	34.097	01:53:03:08	7.943		Zosteraceae	Phyllospadix			Plantae	Najadales										Eukaryota		V3165-02
 	transect	Octopus rubescens	188.67	3165	06:48:33:20	http://search.mbari.org/ARCHIVE/frameGrabs/Ventana/images/3165/02_07_15_18.jpg	36.7999	-122.10823	2492721	1.65	25:09.0	Ventana	34.081	02:07:15:18	8.129	Cephalopoda	Octopodidae	Octopus			Animalia	Octopoda	Mollusca	Octopus rubescens	Coleoidea	Octopodinae		Incirrata				Eukaryota	Octopodiformes	V3165-03
 	transect	Rathbunaster californicus	393.91	3165	05:05:25:25	 	36.788467	-122.1178	2489375	0.91	40:36.0	Ventana	34.179	00:23:52:23	6.73		Labidiasteridae	Rathbunaster			Animalia	Forcipulatida	Echinodermata	Rathbunaster californicus	Asteroidea							Eukaryota		V3165-01
 	transect	Phyllospadix	188.85	3165	06:46:34:24	 	36.79987	-122.10799	2492691	1.62	23:11.0	Ventana	34.085	02:05:18:14	8.078		Zosteraceae	Phyllospadix			Plantae	Najadales										Eukaryota		V3165-03
 	transect	Mediaster aequalis	386.98	3165	05:18:19:02	 	36.789032	-122.11784	2490480	0.92	53:30.0	Ventana	34.177	00:36:46:26	6.76		Goniasteridae	Mediaster			Animalia	Valvatida	Echinodermata	Mediaster aequalis	Asteroidea			Granulosina				Eukaryota		V3165-01
 	transect	Phyllospadix	188.95	3165	07:02:26:25	 	36.799988	-122.10901	2492781	1.84	39:04.0	Ventana	34.039	02:21:09:06	8.436		Zosteraceae	Phyllospadix			Plantae	Najadales										Eukaryota		V3165-03
 	transect	Phyllospadix	188.85	3165	07:00:10:14	 	36.79994	-122.10875	2492751	1.84	36:47.0	Ventana	34.042	02:18:53:17	8.435		Zosteraceae	Phyllospadix			Plantae	Najadales										Eukaryota		V3165-03
 	cruise	Sebastes diploproa	394.95	3165	05:07:08:07	 	36.788578	-122.11804	2489435	0.85	42:18.0	Ventana	34.189	00:25:36:20	6.581	Osteichthyes	Scorpaenidae	Sebastes	Neopterygii		Animalia	Scorpaeniformes	Chordata	Sebastes diploproa	Actinopterygii			Scorpaenoidei	Vertebrata	Gnathostomata		Eukaryota	Acanthopterygii	V3165-01
 	transect	Mediaster aequalis	385.64	3165	05:25:18:19	 	36.78936	-122.11739	2490653	0.86	00:30.0	Ventana	34.187	00:43:45:28	6.617		Goniasteridae	Mediaster			Animalia	Valvatida	Echinodermata	Mediaster aequalis	Asteroidea			Granulosina				Eukaryota		V3165-01
 	transect	Phyllospadix	206.6	3165	07:19:59:08	 	36.79892	-122.10815	2492864	1.4	56:37.0	Ventana	34.118	02:38:41:28	7.66		Zosteraceae	Phyllospadix			Plantae	Najadales										Eukaryota		V3165-03
 	starttransect	object	199.68	3165	06:27:38:09	 	36.799213	-122.10761	2492142	1.42	03:33.0	Ventana	34.131	01:46:11:06	7.688																			V3165-02
 	transect	Mediaster aequalis	386.42	3165	05:41:00:20	 	36.789543	-122.11578	2491503	0.83	16:13.0	Ventana	34.188	00:59:27:20	6.581		Goniasteridae	Mediaster			Animalia	Valvatida	Echinodermata	Mediaster aequalis	Asteroidea			Granulosina				Eukaryota		V3165-01
 	transect	Sebastolobus altivelis	392.44	3165	04:58:34:07	 	36.788517	-122.117386	2489119	0.89	33:44.0	Ventana	34.178	00:17:01:06	6.712	Osteichthyes	Scorpaenidae	Sebastolobus	Neopterygii		Animalia	Scorpaeniformes	Chordata	Sebastolobus altivelis	Actinopterygii			Scorpaenoidei	Vertebrata	Gnathostomata		Eukaryota	Acanthopterygii	V3165-01
 	transect	Phyllospadix	200.2	3165	07:12:49:20	 	36.799248	-122.108536	2492834	1.66	49:27.0	Ventana	34.079	02:31:32:16	8.129		Zosteraceae	Phyllospadix			Plantae	Najadales										Eukaryota		V3165-03
 	cruise	water	204.6	3165	06:06:31:03	 	36.795048	-122.110535	2491909	1.63	42:24.0	Ventana	34.089	01:25:04:13	8.053																			V3165-02
 	cruise	Phyllospadix	187.59	3165	06:43:13:25	 	36.799908	-122.1073	2492631	1.66	19:10.0	Ventana	34.083	02:01:45:28	8.088		Zosteraceae	Phyllospadix			Plantae	Najadales										Eukaryota		V3165-02
 	transect	Glyptocephalus zachirus	396.99	3165	04:49:52:09	 	36.7886	-122.11694	2488976	0.9	25:01.0	Ventana	34.177	00:08:20:09	6.694	Osteichthyes	Pleuronectidae	Glyptocephalus	Neopterygii		Animalia	Pleuronectiformes	Chordata		Actinopterygii				Vertebrata	Gnathostomata		Eukaryota	Acanthopterygii	V3165-01
 	transect	Glyptocephalus zachirus	387.19	3165	05:31:32:07	 	36.789394	-122.11679	2490826	0.81	06:44.0	Ventana	34.192	00:49:59:13	6.547	Osteichthyes	Pleuronectidae	Glyptocephalus	Neopterygii		Animalia	Pleuronectiformes	Chordata		Actinopterygii				Vertebrata	Gnathostomata		Eukaryota	Acanthopterygii	V3165-01
 	transect	Phyllospadix	202.32	3165	06:22:02:19	 	36.799183	-122.10783	2492112	1.34	57:57.0	Ventana	34.128	01:40:35:19	7.683		Zosteraceae	Phyllospadix			Plantae	Najadales										Eukaryota		V3165-02
 	transect	Psolus squamatus	392.37	3165	04:59:14:06	 	36.788513	-122.117455	2489152	0.9	34:24.0	Ventana	34.178	00:17:41:22	6.719	Holothuroidea	Psolidae	Psolus			Animalia	Dendrochirotida	Echinodermata	Psolus squamatus								Eukaryota		V3165-01
 	cruise	Pleurobranchaea californica	187.46	3165	06:43:27:25	http://search.mbari.org/ARCHIVE/frameGrabs/Ventana/images/3165/02_02_00_26.jpg	36.799908	-122.10736	2492637	1.64	19:24.0	Ventana	34.077	02:02:00:26	8.105	Gastropoda	Pleurobranchidae	Pleurobranchaea			Animalia	Notaspidea	Mollusca	Pleurobranchaea californica	Opisthobranchia						Pleurobranchiacea	Eukaryota		V3165-02
 	transect	Rathbunaster californicus	387.35	3165	05:37:49:26	 	36.78949	-122.116135	2490887	0.82	13:02.0	Ventana	34.191	00:56:18:04	6.548		Labidiasteridae	Rathbunaster			Animalia	Forcipulatida	Echinodermata	Rathbunaster californicus	Asteroidea							Eukaryota		V3165-01
 	transect	Luidia foliolata	205.48	3165	06:19:42:08	 	36.798996	-122.10795	2492021	1.33	55:36.0	Ventana	34.13	01:38:13:28	7.59		Luidiidae	Luidia			Animalia	Platyasterida	Echinodermata	Luidia foliolata	Asteroidea							Eukaryota		V3165-02
 	transect	Mediaster aequalis	393.75	3165	05:14:22:09	 	36.78885	-122.11818	2489475	0.85	49:33.0	Ventana	34.192	00:32:49:01	6.64		Goniasteridae	Mediaster			Animalia	Valvatida	Echinodermata	Mediaster aequalis	Asteroidea			Granulosina				Eukaryota		V3165-01
 	transect	Phyllospadix	188.78	3165	06:49:21:18	 	36.799908	-122.10833	2492727	1.69	25:58.0	Ventana	34.076	02:08:04:24	8.19		Zosteraceae	Phyllospadix			Plantae	Najadales										Eukaryota		V3165-03
 	transect	Phyllospadix	188.79	3165	06:47:01:08	 	36.799877	-122.10805	2492697	1.63	23:37.0	Ventana	34.084	02:05:42:27	8.084		Zosteraceae	Phyllospadix			Plantae	Najadales										Eukaryota		V3165-03
 	transect	Phyllospadix	201.43	3165	07:13:49:19	 	36.79917	-122.10844	2492840	1.69	50:27.0	Ventana	34.074	02:32:33:14	8.178		Zosteraceae	Phyllospadix			Plantae	Najadales										Eukaryota		V3165-03
 	transect	Rathbunaster californicus	394.56	3165	04:57:03:26	 	36.78855	-122.11721	2489032	0.89	32:13.0	Ventana	34.182	00:15:31:16	6.679		Labidiasteridae	Rathbunaster			Animalia	Forcipulatida	Echinodermata	Rathbunaster californicus	Asteroidea							Eukaryota		V3165-01
 	transect	Phyllospadix	198.22	3165	06:28:52:07	 	36.799267	-122.107605	2492164	1.46	04:47.0	Ventana	34.111	01:47:24:08	7.805		Zosteraceae	Phyllospadix			Plantae	Najadales										Eukaryota		V3165-02
 	transect	Mediaster aequalis	386.13	3165	05:29:35:25	 	36.789402	-122.1167	2490774	0.81	04:47.0	Ventana	34.192	00:48:02:19	6.523		Goniasteridae	Mediaster			Animalia	Valvatida	Echinodermata	Mediaster aequalis	Asteroidea			Granulosina				Eukaryota		V3165-01
 	transect	Porifera	386.54	3165	05:40:52:20	 	36.789543	-122.1158	2491495	0.83	16:04.0	Ventana	34.19	00:59:20:00	6.577						Animalia		Porifera									Eukaryota		V3165-01
 	transect	Octopus rubescens	200.29	3165	06:23:21:02	 	36.79928	-122.10775	2492134	1.43	59:16.0	Ventana	34.119	01:41:53:27	7.752	Cephalopoda	Octopodidae	Octopus			Animalia	Octopoda	Mollusca	Octopus rubescens	Coleoidea	Octopodinae		Incirrata				Eukaryota	Octopodiformes	V3165-02
 	transect	Rathbunaster californicus	398.63	3165	04:47:47:28	 	36.78872	-122.116714	2488889	0.92	22:56.0	Ventana	34.176	00:06:15:21	6.723		Labidiasteridae	Rathbunaster			Animalia	Forcipulatida	Echinodermata	Rathbunaster californicus	Asteroidea							Eukaryota		V3165-01
 	transect	Phyllospadix	188.97	3165	07:02:22:25	 	36.79998	-122.109	2492780	1.84	39:00.0	Ventana	34.039	02:21:04:22	8.436		Zosteraceae	Phyllospadix			Plantae	Najadales										Eukaryota		V3165-03
 	transect	Psolus squamatus	392.99	3165	05:03:37:13	http://search.mbari.org/ARCHIVE/frameGrabs/Ventana/images/3165/00_22_04_08.jpg	36.78849	-122.11762	2489265	0.9	38:47.0	Ventana	34.178	00:22:04:08	6.727	Holothuroidea	Psolidae	Psolus			Animalia	Dendrochirotida	Echinodermata	Psolus squamatus								Eukaryota		V3165-01
 	transect	Pleurobranchaea californica	196.86	3165	07:10:59:09	 	36.799446	-122.10867	2492810	1.69	47:36.0	Ventana	34.073	02:29:41:26	8.183	Gastropoda	Pleurobranchidae	Pleurobranchaea			Animalia	Notaspidea	Mollusca	Pleurobranchaea californica	Opisthobranchia						Pleurobranchiacea	Eukaryota		V3165-03
 	cruise	water	334.86	3165	05:52:43:11	 	36.79213	-122.11365	2491901	0.98	28:36.0	Ventana	34.171	01:11:15:11	6.873																			V3165-02
 	transect	Sabellidae	394.1	3165	05:06:00:09	http://search.mbari.org/ARCHIVE/frameGrabs/Ventana/images/3165/00_24_27_17.jpg	36.788483	-122.11784	2489392	0.85	41:10.0	Ventana	34.189	00:24:27:17	6.592	Polychaeta	Sabellidae				Animalia	Sabellida	Annelida		Palpata							Eukaryota	Canalipalpata	V3165-01
 	transect	Phyllospadix	188.91	3165	06:46:26:24	 	36.79987	-122.10797	2492690	1.61	23:03.0	Ventana	34.089	02:05:08:24	8.049		Zosteraceae	Phyllospadix			Plantae	Najadales										Eukaryota		V3165-03
 	transect	Allocentrotus fragilis	392.42	3165	04:59:18:21	 	36.78851	-122.11746	2489159	0.9	34:28.0	Ventana	34.178	00:17:47:07	6.719	Echinoidea	Strongylocentrotidae	Allocentrotus			Animalia	Echinoida	Echinodermata	Allocentrotus fragilis	Euechinoidea			Echinacea				Eukaryota		V3165-01
 	transect	Rathbunaster californicus	387.14	3165	05:18:57:00	 	36.78908	-122.11777	2490511	0.92	54:08.0	Ventana	34.177	00:37:24:10	6.762		Labidiasteridae	Rathbunaster			Animalia	Forcipulatida	Echinodermata	Rathbunaster californicus	Asteroidea							Eukaryota		V3165-01
 	starttransect	object	188.75	3165	06:59:58:14	 	36.79994	-122.10873	2492750	1.84	36:35.0	Ventana	34.038	02:18:41:06	8.445																			V3165-03
 	transect	Phyllospadix	188.76	3165	06:48:25:20	 	36.799904	-122.108215	2492720	1.65	25:01.0	Ventana	34.08	02:07:09:00	8.133		Zosteraceae	Phyllospadix			Plantae	Najadales										Eukaryota		V3165-03
 	transect	Phyllospadix	197.56	3165	06:29:22:21	 	36.7993	-122.10758	2492171	1.47	05:17.0	Ventana	34.109	01:47:56:01	7.806		Zosteraceae	Phyllospadix			Plantae	Najadales										Eukaryota		V3165-02
 	transect	Porifera	386.13	3165	05:28:51:27	 	36.789413	-122.116776	2490744	0.81	04:03.0	Ventana	34.192	00:47:18:24	6.54						Animalia		Porifera									Eukaryota		V3165-01
 	transect	Octopus rubescens	206.39	3165	07:19:49:08	 	36.79894	-122.108154	2492863	1.4	56:27.0	Ventana	34.118	02:38:32:00	7.66	Cephalopoda	Octopodidae	Octopus			Animalia	Octopoda	Mollusca	Octopus rubescens	Coleoidea	Octopodinae		Incirrata				Eukaryota	Octopodiformes	V3165-03
 	starttransect	object	394.86	3165	04:56:47:26	 	36.788555	-122.11719	2489009	0.88	31:57.0	Ventana	34.179	00:15:15:07	6.684																			V3165-01
 	transect	Calliostoma platinum	394.08	3165	05:05:54:10	 	36.78848	-122.117836	2489385	0.86	41:04.0	Ventana	34.188	00:24:22:07	6.619	Gastropoda	Trochidae	Calliostoma			Animalia	Archaeogastropoda	Mollusca	Calliostoma platinum	Prosobranchia						Trochacea	Eukaryota		V3165-01
 	transect	Merluccius productus	396.71	3165	04:50:06:08	 	36.788593	-122.11697	2488979	0.9	25:15.0	Ventana	34.178	00:08:33:23	6.691	Osteichthyes	Merlucciidae	Merluccius	Neopterygii		Animalia	Gadiformes	Chordata	Merluccius productus	Actinopterygii				Vertebrata	Gnathostomata		Eukaryota	Paracanthopterygii	V3165-01
 	transect	Porifera	388.79	3165	05:16:56:19	 	36.788975	-122.117935	2490421	0.87	52:07.0	Ventana	34.193	00:35:24:21	6.662						Animalia		Porifera									Eukaryota		V3165-01
 	transect	Mediaster aequalis	387.08	3165	05:39:16:08	 	36.789516	-122.115974	2491436	0.83	14:28.0	Ventana	34.19	00:57:44:10	6.569		Goniasteridae	Mediaster			Animalia	Valvatida	Echinodermata	Mediaster aequalis	Asteroidea			Granulosina				Eukaryota		V3165-01
 	transect	Phyllospadix	193.94	3165	06:32:01:01	 	36.79949	-122.10743	2492224	1.49	07:56.0	Ventana	34.108	01:50:33:13	7.883		Zosteraceae	Phyllospadix			Plantae	Najadales										Eukaryota		V3165-02
 	transect	Ceriantharia	203.89	3165	06:20:48:06	 	36.799088	-122.107895	2492051	1.3	56:43.0	Ventana	34.145	01:39:20:16	7.58	Anthozoa					Animalia	Ceriantharia	Cnidaria		Ceriantipatharia							Eukaryota		V3165-02
 	transect	Sebastes diploproa	387.27	3165	05:31:42:07	 	36.789394	-122.1168	2490827	0.81	06:54.0	Ventana	34.193	00:50:10:00	6.542	Osteichthyes	Scorpaenidae	Sebastes	Neopterygii		Animalia	Scorpaeniformes	Chordata	Sebastes diploproa	Actinopterygii			Scorpaenoidei	Vertebrata	Gnathostomata		Eukaryota	Acanthopterygii	V3165-01
 	transect	Rathbunaster californicus	386.98	3165	05:18:21:01	 	36.789036	-122.11784	2490481	0.92	53:32.0	Ventana	34.177	00:36:49:03	6.76		Labidiasteridae	Rathbunaster			Animalia	Forcipulatida	Echinodermata	Rathbunaster californicus	Asteroidea							Eukaryota		V3165-01
 	transect	Allocentrotus fragilis	387.26	3165	05:38:23:25	 	36.789497	-122.116066	2491376	0.82	13:36.0	Ventana	34.19	00:56:51:27	6.547	Echinoidea	Strongylocentrotidae	Allocentrotus			Animalia	Echinoida	Echinodermata	Allocentrotus fragilis	Euechinoidea			Echinacea				Eukaryota		V3165-01
 	transect	Phyllospadix	196.02	3165	07:10:16:25	 	36.799515	-122.10871	2492803	1.71	46:54.0	Ventana	34.073	02:28:59:15	8.195		Zosteraceae	Phyllospadix			Plantae	Najadales										Eukaryota		V3165-03
 	transect	Phyllospadix	199.99	3165	07:12:37:21	 	36.79926	-122.10855	2492833	1.67	49:15.0	Ventana	34.078	02:31:20:02	8.138		Zosteraceae	Phyllospadix			Plantae	Najadales										Eukaryota		V3165-03
 	transect	Phyllospadix	192.29	3165	06:33:03:14	 	36.7996	-122.10732	2492254	1.47	08:59.0	Ventana	34.111	01:51:36:00	7.864		Zosteraceae	Phyllospadix			Plantae	Najadales										Eukaryota		V3165-02
 	cruise	mud	187.49	3165	06:43:07:25	 	36.799908	-122.10727	2492630	1.73	19:04.0	Ventana	34.071	02:01:40:29	8.226																			V3165-02
 	transect	Merluccius productus	394.38	3165	04:57:15:25	 	36.788548	-122.11723	2489039	0.89	32:25.0	Ventana	34.18	00:15:44:02	6.686	Osteichthyes	Merlucciidae	Merluccius	Neopterygii		Animalia	Gadiformes	Chordata	Merluccius productus	Actinopterygii				Vertebrata	Gnathostomata		Eukaryota	Paracanthopterygii	V3165-01
 	transect	Ceriantharia	187.41	3165	06:41:57:13	http://search.mbari.org/ARCHIVE/frameGrabs/Ventana/images/3165/02_00_30_08.jpg	36.7999	-122.10717	2492621	1.71	17:53.0	Ventana	34.063	02:00:30:08	8.247	Anthozoa					Animalia	Ceriantharia	Cnidaria		Ceriantipatharia							Eukaryota		V3165-02
 	transect	Phyllospadix	188.78	3165	06:47:57:06	 	36.79991	-122.10816	2492711	1.65	24:33.0	Ventana	34.082	02:06:39:10	8.113		Zosteraceae	Phyllospadix			Plantae	Najadales										Eukaryota		V3165-03
 	transect	Phyllospadix	196.77	3165	06:29:54:20	 	36.799335	-122.10756	2492178	1.43	05:50.0	Ventana	34.128	01:48:27:24	7.742		Zosteraceae	Phyllospadix			Plantae	Najadales										Eukaryota		V3165-02
 	starttransect	object	203.63	3165	07:17:46:27	 	36.79909	-122.10826	2492854	1.56	54:24.0	Ventana	34.096	02:36:28:26	7.951																			V3165-03
 	transect	Porifera	389.48	3165	05:16:40:19	 	36.788956	-122.11794	2490407	0.84	51:51.0	Ventana	34.195	00:35:08:06	6.618						Animalia		Porifera									Eukaryota		V3165-01
 	transect	Mediaster aequalis	393.39	3165	05:04:23:27	 	36.78847	-122.11768	2489286	0.9	39:33.0	Ventana	34.179	00:22:52:08	6.729		Goniasteridae	Mediaster			Animalia	Valvatida	Echinodermata	Mediaster aequalis	Asteroidea			Granulosina				Eukaryota		V3165-01
 	transect	Mediaster aequalis	386.12	3165	05:29:17:27	 	36.78941	-122.11672	2490760	0.82	04:29.0	Ventana	34.192	00:47:45:13	6.534		Goniasteridae	Mediaster			Animalia	Valvatida	Echinodermata	Mediaster aequalis	Asteroidea			Granulosina				Eukaryota		V3165-01
 	transect	Phyllospadix	195.36	3165	07:09:44:26	 	36.79957	-122.10873	2492794	1.75	46:22.0	Ventana	34.059	02:28:28:02	8.296		Zosteraceae	Phyllospadix			Plantae	Najadales										Eukaryota		V3165-03
 	transect	Psolus squamatus	388.63	3165	05:17:04:19	 	36.78898	-122.117935	2490430	0.89	52:15.0	Ventana	34.196	00:35:33:10	6.724	Holothuroidea	Psolidae	Psolus			Animalia	Dendrochirotida	Echinodermata	Psolus squamatus								Eukaryota		V3165-01
 	transect	Rathbunaster californicus	386.87	3165	05:31:04:08	 	36.7894	-122.11675	2490820	0.82	06:16.0	Ventana	34.191	00:49:32:21	6.541		Labidiasteridae	Rathbunaster			Animalia	Forcipulatida	Echinodermata	Rathbunaster californicus	Asteroidea							Eukaryota		V3165-01
 	transect	Microstomus pacificus	390.59	3165	05:15:48:21	http://search.mbari.org/ARCHIVE/frameGrabs/Ventana/images/3165/00_34_15_13.jpg	36.788902	-122.11802	2490377	0.86	50:59.0	Ventana	34.188	00:34:15:13	6.617	Osteichthyes	Pleuronectidae	Microstomus	Neopterygii		Animalia	Pleuronectiformes	Chordata	Microstomus pacificus	Actinopterygii				Vertebrata	Gnathostomata		Eukaryota	Acanthopterygii	V3165-01
 	transect	Phyllospadix	188.83	3165	06:55:31:07	 	36.79996	-122.10846	2492734	1.75	32:08.0	Ventana	34.06	02:14:13:26	8.346		Zosteraceae	Phyllospadix			Plantae	Najadales										Eukaryota		V3165-03
 	transect	Agonidae	202.01	3165	06:22:12:19	 	36.799194	-122.10782	2492118	1.34	58:07.0	Ventana	34.128	01:40:45:17	7.683	Osteichthyes	Agonidae		Neopterygii		Animalia	Scorpaeniformes	Chordata		Actinopterygii				Vertebrata	Gnathostomata		Eukaryota	Acanthopterygii	V3165-02
 	transect	Phyllospadix	198.4	3165	07:11:47:07	 	36.799355	-122.10863	2492824	1.69	48:25.0	Ventana	34.072	02:30:29:19	8.191		Zosteraceae	Phyllospadix			Plantae	Najadales										Eukaryota		V3165-03
 	transect	Merluccius productus	396.42	3165	04:50:28:08	 	36.788586	-122.11701	2488986	0.9	25:37.0	Ventana	34.178	00:08:56:07	6.686	Osteichthyes	Merlucciidae	Merluccius	Neopterygii		Animalia	Gadiformes	Chordata	Merluccius productus	Actinopterygii				Vertebrata	Gnathostomata		Eukaryota	Paracanthopterygii	V3165-01
 	transect	Rathbunaster californicus	394.17	3165	04:57:28:10	 	36.788544	-122.117256	2489046	0.89	32:37.0	Ventana	34.18	00:15:55:02	6.686		Labidiasteridae	Rathbunaster			Animalia	Forcipulatida	Echinodermata	Rathbunaster californicus	Asteroidea							Eukaryota		V3165-01
 	transect	Luidia foliolata	189.15	3165	07:01:00:12	http://search.mbari.org/ARCHIVE/frameGrabs/Ventana/images/3165/02_19_43_14.jpg	36.79994	-122.10885	2492764	1.84	37:37.0	Ventana	34.04	02:19:43:14	8.437		Luidiidae	Luidia			Animalia	Platyasterida	Echinodermata	Luidia foliolata	Asteroidea							Eukaryota		V3165-03
 	transect	Megalodicopia hians	394.82	3165	04:56:49:26	 	36.788555	-122.117195	2489016	0.88	31:59.0	Ventana	34.179	00:15:17:09	6.684	Ascidiacea		Megalodicopia			Animalia	Enterogona 	Chordata						Urochordata			Eukaryota		V3165-01
 	descend	benthos	398.64	3165	04:44:39:04	 	36.788635	-122.11636	2488760	0.93	19:47.0	Ventana	34.177	00:03:07:10	6.733																			V3165-01
 	cruise	Phyllospadix	187.37	3165	06:44:14:08	 	36.799896	-122.10758	2492644	1.7	20:10.0	Ventana	34.071	02:02:45:27	8.169		Zosteraceae	Phyllospadix			Plantae	Najadales										Eukaryota		V3165-02
 	transect	Glyptocephalus zachirus	387.01	3165	05:23:16:08	 	36.789272	-122.11756	2490587	0.85	58:27.0	Ventana	34.186	00:41:44:11	6.622	Osteichthyes	Pleuronectidae	Glyptocephalus	Neopterygii		Animalia	Pleuronectiformes	Chordata		Actinopterygii				Vertebrata	Gnathostomata		Eukaryota	Acanthopterygii	V3165-01
 	transect	Rathbunaster californicus	393.83	3165	04:57:42:09	 	36.788544	-122.11728	2489053	0.88	32:51.0	Ventana	34.179	00:16:09:07	6.683		Labidiasteridae	Rathbunaster			Animalia	Forcipulatida	Echinodermata	Rathbunaster californicus	Asteroidea							Eukaryota		V3165-01
 	transect	Sebastes saxicola	198.63	3165	06:28:32:07	 	36.799248	-122.10761	2492155	1.46	04:27.0	Ventana	34.111	01:47:05:08	7.796	Osteichthyes	Scorpaenidae	Sebastes	Neopterygii		Animalia	Scorpaeniformes	Chordata	Sebastes saxicola	Actinopterygii			Scorpaenoidei	Vertebrata	Gnathostomata		Eukaryota	Acanthopterygii	V3165-02
 	transect	Phyllospadix	188.83	3165	06:47:31:07	 	36.7999	-122.1081	2492704	1.66	24:07.0	Ventana	34.079	02:06:13:14	8.14		Zosteraceae	Phyllospadix			Plantae	Najadales										Eukaryota		V3165-03
 	transect	Phyllospadix	201.06	3165	06:22:53:03	 	36.799244	-122.10778	2492125	1.41	58:47.0	Ventana	34.116	01:41:25:02	7.731		Zosteraceae	Phyllospadix			Plantae	Najadales										Eukaryota		V3165-02
 	transect	Rathbunaster californicus	392.8	3165	05:14:46:08	 	36.788876	-122.11813	2489482	0.85	49:57.0	Ventana	34.19	00:33:14:22	6.691		Labidiasteridae	Rathbunaster			Animalia	Forcipulatida	Echinodermata	Rathbunaster californicus	Asteroidea							Eukaryota		V3165-01
 	transect	Glyptocephalus zachirus	390.41	3165	05:16:02:21	 	36.788906	-122.117966	2490384	0.85	51:13.0	Ventana	34.182	00:34:31:06	6.608	Osteichthyes	Pleuronectidae	Glyptocephalus	Neopterygii		Animalia	Pleuronectiformes	Chordata		Actinopterygii				Vertebrata	Gnathostomata		Eukaryota	Acanthopterygii	V3165-01
 	transect	Phyllospadix	206.56	3165	06:19:01:25	http://search.mbari.org/ARCHIVE/frameGrabs/Ventana/images/3165/01_37_34_24.jpg	36.798943	-122.10797	2491952	1.42	54:56.0	Ventana	34.118	01:37:34:24	7.627		Zosteraceae	Phyllospadix			Plantae	Najadales										Eukaryota		V3165-02
 	transect	Allocentrotus fragilis	209.9	3165	07:22:07:19	 	36.79871	-122.10797	2492877	1.38	58:46.0	Ventana	34.124	02:40:51:16	7.616	Echinoidea	Strongylocentrotidae	Allocentrotus			Animalia	Echinoida	Echinodermata	Allocentrotus fragilis	Euechinoidea			Echinacea				Eukaryota		V3165-03
 	transect	Rathbunaster californicus	398.41	3165	04:48:01:27	http://search.mbari.org/ARCHIVE/frameGrabs/Ventana/images/3165/00_06_29_20.jpg	36.788776	-122.116745	2488963	0.92	23:10.0	Ventana	34.177	00:06:29:20	6.717		Labidiasteridae	Rathbunaster			Animalia	Forcipulatida	Echinodermata	Rathbunaster californicus	Asteroidea							Eukaryota		V3165-01
 	transect	Phyllospadix	197.18	3165	07:11:11:09	 	36.799427	-122.10866	2492817	1.69	47:48.0	Ventana	34.074	02:29:53:11	8.185		Zosteraceae	Phyllospadix			Plantae	Najadales										Eukaryota		V3165-03
 	transect	Porifera	387.36	3165	05:17:47:02	 	36.78901	-122.11789	2490467	0.91	52:58.0	Ventana	34.178	00:36:15:05	6.758						Animalia		Porifera									Eukaryota		V3165-01
 	transect	Merluccius productus	398.9	3165	04:47:31:13	 	36.788677	-122.116684	2488880	0.92	22:40.0	Ventana	34.176	00:05:58:06	6.727	Osteichthyes	Merlucciidae	Merluccius	Neopterygii		Animalia	Gadiformes	Chordata	Merluccius productus	Actinopterygii				Vertebrata	Gnathostomata		Eukaryota	Paracanthopterygii	V3165-01
 	transect	object	395.42	3165	04:51:22:21	 	36.788563	-122.1171	2488993	0.89	26:32.0	Ventana	34.178	00:09:50:25	6.682																			V3165-01
 	transect	Phyllospadix	202.11	3165	07:14:14:04	 	36.79914	-122.108406	2492847	1.69	50:51.0	Ventana	34.075	02:32:55:21	8.166		Zosteraceae	Phyllospadix			Plantae	Najadales										Eukaryota		V3165-03
 	transect	Stomphia	392.82	3165	05:03:25:14	 	36.78849	-122.117615	2489256	0.9	38:35.0	Ventana	34.18	00:21:52:17	6.725	Anthozoa	Actinostolidae	Stomphia			Animalia	Actiniaria	Cnidaria		Hexacorallia			Nyantheae				Eukaryota		V3165-01
 	transect	Calliostoma platinum	393.61	3165	05:04:53:26	 	36.788464	-122.117744	2489339	0.91	40:04.0	Ventana	34.177	00:23:21:04	6.743	Gastropoda	Trochidae	Calliostoma			Animalia	Archaeogastropoda	Mollusca	Calliostoma platinum	Prosobranchia						Trochacea	Eukaryota		V3165-01
 	transect	Glyptocephalus zachirus	387.02	3165	05:39:54:07	 	36.78953	-122.11591	2491452	0.83	15:06.0	Ventana	34.189	00:58:22:19	6.571	Osteichthyes	Pleuronectidae	Glyptocephalus	Neopterygii		Animalia	Pleuronectiformes	Chordata		Actinopterygii				Vertebrata	Gnathostomata		Eukaryota	Acanthopterygii	V3165-01
 	transect	Phyllospadix	188.89	3165	07:00:30:13	 	36.799942	-122.10879	2492757	1.83	37:07.0	Ventana	34.04	02:19:12:26	8.432		Zosteraceae	Phyllospadix			Plantae	Najadales										Eukaryota		V3165-03
 	transect	Calliostoma platinum	393.82	3165	05:05:17:26	 	36.788464	-122.11778	2489369	0.91	40:28.0	Ventana	34.179	00:23:45:18	6.73	Gastropoda	Trochidae	Calliostoma			Animalia	Archaeogastropoda	Mollusca	Calliostoma platinum	Prosobranchia						Trochacea	Eukaryota		V3165-01
 	transect	Phyllospadix	189.02	3165	07:02:47:09	 	36.799976	-122.10905	2492787	1.84	39:24.0	Ventana	34.044	02:21:29:07	8.422		Zosteraceae	Phyllospadix			Plantae	Najadales										Eukaryota		V3165-03
 	transect	Sebastes saxicola	203.69	3165	06:20:58:07	 	36.7991	-122.10789	2492065	1.33	56:53.0	Ventana	34.121	01:39:30:13	7.665	Osteichthyes	Scorpaenidae	Sebastes	Neopterygii		Animalia	Scorpaeniformes	Chordata	Sebastes saxicola	Actinopterygii			Scorpaenoidei	Vertebrata	Gnathostomata		Eukaryota	Acanthopterygii	V3165-02
 	transect	Laminariales	188.57	3165	06:41:19:13	 	36.79985	-122.10718	2492614	1.58	17:15.0	Ventana	34.093	01:59:51:13	8.083	Phaeophyceae					Chromista	Laminariales	Phaeophycophyta									Eukaryota		V3165-02
 	transect	Porifera	386.9	3165	05:18:41:01	 	36.78906	-122.117805	2490497	0.92	53:52.0	Ventana	34.177	00:37:08:01	6.76						Animalia		Porifera									Eukaryota		V3165-01
 	transect	Mediaster aequalis	385.67	3165	05:25:41:03	 	36.789375	-122.11735	2490670	0.84	00:52.0	Ventana	34.191	00:44:08:24	6.606		Goniasteridae	Mediaster			Animalia	Valvatida	Echinodermata	Mediaster aequalis	Asteroidea			Granulosina				Eukaryota		V3165-01
 	transect	Phyllospadix	192.96	3165	06:32:39:15	 	36.79956	-122.10736	2492238	1.52	08:34.0	Ventana	34.102	01:51:12:01	7.927		Zosteraceae	Phyllospadix			Plantae	Najadales										Eukaryota		V3165-02
 	transect	Phyllospadix	193.99	3165	06:31:59:01	 	36.799488	-122.10743	2492222	1.49	07:54.0	Ventana	34.108	01:50:31:25	7.883		Zosteraceae	Phyllospadix			Plantae	Najadales										Eukaryota		V3165-02
 	transect	Rathbunaster californicus	386.32	3165	05:41:12:20	 	36.789547	-122.11576	2491516	0.84	16:25.0	Ventana	34.187	00:59:39:17	6.583		Labidiasteridae	Rathbunaster			Animalia	Forcipulatida	Echinodermata	Rathbunaster californicus	Asteroidea							Eukaryota		V3165-01
 	transect	Parastichopus leukothele	201.3	3165	07:13:45:19	 	36.79918	-122.108444	2492838	1.69	50:23.0	Ventana	34.074	02:32:29:06	8.178	Holothuroidea	Stichopodidae	Parastichopus			Animalia	Aspidochirotida	Echinodermata	Parastichopus leukothele	Aspidochirotacea							Eukaryota		V3165-03
 	transect	Rathbunaster californicus	390.24	3165	05:16:16:21	 	36.788914	-122.11792	2490393	0.84	51:27.0	Ventana	34.188	00:34:44:05	6.602		Labidiasteridae	Rathbunaster			Animalia	Forcipulatida	Echinodermata	Rathbunaster californicus	Asteroidea							Eukaryota		V3165-01
 	transect	Sebastes diploproa	206.28	3165	06:19:09:24	 	36.798954	-122.10796	2491959	1.42	55:04.0	Ventana	34.118	01:37:42:08	7.627	Osteichthyes	Scorpaenidae	Sebastes	Neopterygii		Animalia	Scorpaeniformes	Chordata	Sebastes diploproa	Actinopterygii			Scorpaenoidei	Vertebrata	Gnathostomata		Eukaryota	Acanthopterygii	V3165-02
 	transect	Parastichopus leukothele	198.32	3165	06:28:48:07	 	36.799263	-122.107605	2492162	1.46	04:43.0	Ventana	34.111	01:47:21:03	7.805	Holothuroidea	Stichopodidae	Parastichopus			Animalia	Aspidochirotida	Echinodermata	Parastichopus leukothele	Aspidochirotacea							Eukaryota		V3165-02
 	transect	Eptatretus stoutii	387.35	3165	05:38:13:25	 	36.789494	-122.11608	2491302	0.82	13:26.0	Ventana	34.19	00:56:41:13	6.547	Agnatha		Eptatretus			Animalia		Chordata						Vertebrata			Eukaryota		V3165-01
 	transect	Mediaster aequalis	396.54	3165	04:50:16:08	 	36.78859	-122.11698	2488981	0.9	25:25.0	Ventana	34.178	00:08:43:22	6.686		Goniasteridae	Mediaster			Animalia	Valvatida	Echinodermata	Mediaster aequalis	Asteroidea			Granulosina				Eukaryota		V3165-01
 	transect	Porifera	393.74	3165	05:05:05:26	 	36.788464	-122.11777	2489364	0.91	40:16.0	Ventana	34.177	00:23:33:15	6.743						Animalia		Porifera									Eukaryota		V3165-01
 	transect	Phyllospadix	188.6	3165	06:56:45:20	 	36.79996	-122.10861	2492748	1.83	33:22.0	Ventana	34.042	02:15:28:19	8.444		Zosteraceae	Phyllospadix			Plantae	Najadales										Eukaryota		V3165-03
 	transect	Phyllospadix	188.88	3165	07:02:14:25	 	36.799973	-122.108986	2492778	1.84	38:52.0	Ventana	34.038	02:20:57:09	8.451		Zosteraceae	Phyllospadix			Plantae	Najadales										Eukaryota		V3165-03
 	transect	Rathbunaster californicus	387.09	3165	05:18:49:01	 	36.78907	-122.11779	2490506	0.92	54:00.0	Ventana	34.178	00:37:17:01	6.76		Labidiasteridae	Rathbunaster			Animalia	Forcipulatida	Echinodermata	Rathbunaster californicus	Asteroidea							Eukaryota		V3165-01
 	transect	Microstomus pacificus	196.7	3165	07:10:47:09	 	36.79947	-122.10869	2492808	1.69	47:24.0	Ventana	34.073	02:29:29:11	8.183	Osteichthyes	Pleuronectidae	Microstomus	Neopterygii		Animalia	Pleuronectiformes	Chordata	Microstomus pacificus	Actinopterygii				Vertebrata	Gnathostomata		Eukaryota	Acanthopterygii	V3165-03
 	transect	Porifera	392.37	3165	04:59:14:06	 	36.788513	-122.117455	2489154	0.9	34:24.0	Ventana	34.178	00:17:41:22	6.719						Animalia		Porifera									Eukaryota		V3165-01
 	transect	Sebastes diploproa	392.29	3165	05:14:58:08	 	36.788895	-122.11811	2489484	0.88	50:09.0	Ventana	34.18	00:33:25:04	6.694	Osteichthyes	Scorpaenidae	Sebastes	Neopterygii		Animalia	Scorpaeniformes	Chordata	Sebastes diploproa	Actinopterygii			Scorpaenoidei	Vertebrata	Gnathostomata		Eukaryota	Acanthopterygii	V3165-01
 	transect	Stomphia	386.79	3165	05:40:30:21	 	36.78954	-122.115845	2491475	0.83	15:42.0	Ventana	34.189	00:58:58:00	6.572	Anthozoa	Actinostolidae	Stomphia			Animalia	Actiniaria	Cnidaria		Hexacorallia			Nyantheae				Eukaryota		V3165-01
 	transect	Porifera	387.16	3165	05:18:07:02	 	36.78902	-122.11787	2490476	0.92	53:18.0	Ventana	34.177	00:36:34:13	6.762						Animalia		Porifera									Eukaryota		V3165-01
 	transect	Allocentrotus fragilis	387.32	3165	05:38:07:25	 	36.789494	-122.1161	2490896	0.82	13:20.0	Ventana	34.19	00:56:35:09	6.55	Echinoidea	Strongylocentrotidae	Allocentrotus			Animalia	Echinoida	Echinodermata	Allocentrotus fragilis	Euechinoidea			Echinacea				Eukaryota		V3165-01
 	transect	physical object	387.46	3165	05:37:23:26	http://search.mbari.org/ARCHIVE/frameGrabs/Ventana/images/3165/00_55_52_04.jpg	36.789486	-122.11617	2490866	0.82	12:35.0	Ventana	34.19	00:55:52:04	6.56																			V3165-01
 	transect	Psolus squamatus	386.54	3165	05:40:52:20	 	36.789543	-122.1158	2491493	0.83	16:04.0	Ventana	34.19	00:59:20:00	6.577	Holothuroidea	Psolidae	Psolus			Animalia	Dendrochirotida	Echinodermata	Psolus squamatus								Eukaryota		V3165-01
 	transect	Phyllospadix	195.03	3165	06:31:21:02	 	36.79941	-122.107506	2492199	1.47	07:16.0	Ventana	34.11	01:49:54:14	7.83		Zosteraceae	Phyllospadix			Plantae	Najadales										Eukaryota		V3165-02
 	transect	Rathbunaster californicus	392.61	3165	05:03:05:15	 	36.7885	-122.11759	2489251	0.9	38:15.0	Ventana	34.178	00:21:32:15	6.727		Labidiasteridae	Rathbunaster			Animalia	Forcipulatida	Echinodermata	Rathbunaster californicus	Asteroidea							Eukaryota		V3165-01
 	transect	Microstomus pacificus	385.98	3165	05:24:36:20	 	36.789333	-122.11748	2490633	0.87	59:48.0	Ventana	34.183	00:43:03:14	6.674	Osteichthyes	Pleuronectidae	Microstomus	Neopterygii		Animalia	Pleuronectiformes	Chordata	Microstomus pacificus	Actinopterygii				Vertebrata	Gnathostomata		Eukaryota	Acanthopterygii	V3165-01
 	transect	Phyllospadix	197.69	3165	06:29:12:21	 	36.799294	-122.10759	2492169	1.47	05:07.0	Ventana	34.112	01:47:46:03	7.808		Zosteraceae	Phyllospadix			Plantae	Najadales										Eukaryota		V3165-02
 	cruise	Solmissus	248.88	3165	05:59:02:29	 	36.793404	-122.112526	2491906	1.37	34:56.0	Ventana	34.124	01:17:35:25	7.675		Cuninidae	Solmissus			Animalia	Narcomedusae	Cnidaria		Hydromedusae					Hydrozoa		Eukaryota		V3165-02
 	transect	Rathbunaster californicus	392.41	3165	04:59:20:21	 	36.78851	-122.11746	2489161	0.9	34:30.0	Ventana	34.178	00:17:49:07	6.719		Labidiasteridae	Rathbunaster			Animalia	Forcipulatida	Echinodermata	Rathbunaster californicus	Asteroidea							Eukaryota		V3165-01
 	transect	Glyptocephalus zachirus	205.58	3165	07:19:15:09	 	36.799004	-122.1082	2492861	1.47	55:53.0	Ventana	34.113	02:37:57:01	7.748	Osteichthyes	Pleuronectidae	Glyptocephalus	Neopterygii		Animalia	Pleuronectiformes	Chordata		Actinopterygii				Vertebrata	Gnathostomata		Eukaryota	Acanthopterygii	V3165-03
 	transect	Merluccius productus	398.58	3165	04:47:55:28	 	36.788754	-122.11673	2488958	0.92	23:04.0	Ventana	34.176	00:06:23:09	6.723	Osteichthyes	Merlucciidae	Merluccius	Neopterygii		Animalia	Gadiformes	Chordata	Merluccius productus	Actinopterygii				Vertebrata	Gnathostomata		Eukaryota	Paracanthopterygii	V3165-01
 	transect	Agonidae	391.41	3165	05:15:24:07	http://search.mbari.org/ARCHIVE/frameGrabs/Ventana/images/3165/00_33_52_09.jpg	36.788902	-122.11807	2489530	0.89	50:35.0	Ventana	34.178	00:33:52:09	6.694	Osteichthyes	Agonidae		Neopterygii		Animalia	Scorpaeniformes	Chordata		Actinopterygii				Vertebrata	Gnathostomata		Eukaryota	Acanthopterygii	V3165-01
 	endtransect	object	199.76	3165	06:23:37:01	 	36.799286	-122.10772	2492139	1.43	59:32.0	Ventana	34.112	01:42:09:00	7.783																			V3165-02
 	transect	Parastichopus leukothele	188.86	3165	06:46:10:24	 	36.799866	-122.107925	2492688	1.61	22:47.0	Ventana	34.088	02:04:53:04	8.055	Holothuroidea	Stichopodidae	Parastichopus			Animalia	Aspidochirotida	Echinodermata	Parastichopus leukothele	Aspidochirotacea							Eukaryota		V3165-03
 	transect	Stylasterias forreri	392.55	3165	04:59:34:21	http://search.mbari.org/ARCHIVE/frameGrabs/Ventana/images/3165/00_18_02_15.jpg	36.788506	-122.11748	2489191	0.9	34:44.0	Ventana	34.178	00:18:02:15	6.723		Asteriidae	Stylasterias			Animalia	Forcipulatida	Echinodermata	Stylasterias forreri	Asteroidea							Eukaryota		V3165-01
 	transect	Porifera	396.42	3165	04:50:32:08	 	36.788586	-122.11702	2488988	0.9	25:41.0	Ventana	34.179	00:08:59:22	6.683						Animalia		Porifera									Eukaryota		V3165-01
 	transect	Phyllospadix	195.92	3165	07:10:10:26	 	36.799526	-122.10872	2492801	1.73	46:48.0	Ventana	34.069	02:28:53:04	8.233		Zosteraceae	Phyllospadix			Plantae	Najadales										Eukaryota		V3165-03
 	transect	Mediaster aequalis	393.5	3165	05:14:32:08	 	36.78886	-122.11816	2489477	0.86	49:43.0	Ventana	34.187	00:33:00:17	6.64		Goniasteridae	Mediaster			Animalia	Valvatida	Echinodermata	Mediaster aequalis	Asteroidea			Granulosina				Eukaryota		V3165-01
 	transect	Phyllospadix	188.68	3165	06:56:01:06	 	36.79996	-122.10853	2492741	1.8	32:38.0	Ventana	34.047	02:14:43:22	8.408		Zosteraceae	Phyllospadix			Plantae	Najadales										Eukaryota		V3165-03
 	transect	Merluccius productus	394.36	3165	04:57:17:25	 	36.788544	-122.11724	2489041	0.89	32:27.0	Ventana	34.18	00:15:44:29	6.686	Osteichthyes	Merlucciidae	Merluccius	Neopterygii		Animalia	Gadiformes	Chordata	Merluccius productus	Actinopterygii				Vertebrata	Gnathostomata		Eukaryota	Paracanthopterygii	V3165-01
 	transect	Mediaster aequalis	387.27	3165	05:19:57:13	 	36.789116	-122.117714	2490543	0.85	55:08.0	Ventana	34.189	00:38:24:07	6.629		Goniasteridae	Mediaster			Animalia	Valvatida	Echinodermata	Mediaster aequalis	Asteroidea			Granulosina				Eukaryota		V3165-01
 	transect	Allocentrotus fragilis	387.41	3165	05:38:01:25	 	36.78949	-122.11611	2490889	0.82	13:14.0	Ventana	34.19	00:56:28:23	6.55	Echinoidea	Strongylocentrotidae	Allocentrotus			Animalia	Echinoida	Echinodermata	Allocentrotus fragilis	Euechinoidea			Echinacea				Eukaryota		V3165-01
 	transect	Mediaster aequalis	393.12	3165	05:03:51:13	 	36.788486	-122.11764	2489274	0.9	39:01.0	Ventana	34.178	00:22:19:29	6.725		Goniasteridae	Mediaster			Animalia	Valvatida	Echinodermata	Mediaster aequalis	Asteroidea			Granulosina				Eukaryota		V3165-01
 	transect	Phyllospadix	188.99	3165	07:01:40:26	 	36.799946	-122.108925	2492771	1.84	38:17.0	Ventana	34.041	02:20:22:24	8.427		Zosteraceae	Phyllospadix			Plantae	Najadales										Eukaryota		V3165-03
 	transect	Allocentrotus fragilis	211.12	3165	07:22:48:03	 	36.79862	-122.10797	2492882	1.37	59:26.0	Ventana	34.121	02:41:29:23	7.621	Echinoidea	Strongylocentrotidae	Allocentrotus			Animalia	Echinoida	Echinodermata	Allocentrotus fragilis	Euechinoidea			Echinacea				Eukaryota		V3165-03
 	transect	Rathbunaster californicus	399	3165	04:47:25:13	 	36.788666	-122.11668	2488875	0.92	22:34.0	Ventana	34.179	00:05:52:08	6.72		Labidiasteridae	Rathbunaster			Animalia	Forcipulatida	Echinodermata	Rathbunaster californicus	Asteroidea							Eukaryota		V3165-01
 	transect	Allocentrotus fragilis	386.5	3165	05:40:54:20	 	36.789543	-122.11579	2491500	0.83	16:06.0	Ventana	34.19	00:59:21:25	6.577	Echinoidea	Strongylocentrotidae	Allocentrotus			Animalia	Echinoida	Echinodermata	Allocentrotus fragilis	Euechinoidea			Echinacea				Eukaryota		V3165-01
 	transect	Rathbunaster californicus	203.06	3165	07:14:48:03	http://search.mbari.org/ARCHIVE/frameGrabs/Ventana/images/3165/02_33_29_19.jpg	36.799107	-122.10835	2492852	1.65	51:26.0	Ventana	34.08	02:33:29:19	8.113		Labidiasteridae	Rathbunaster			Animalia	Forcipulatida	Echinodermata	Rathbunaster californicus	Asteroidea							Eukaryota		V3165-03
 	transect	Phyllospadix	199.49	3165	06:27:48:09	 	36.799217	-122.10762	2492146	1.39	03:43.0	Ventana	34.115	01:46:19:29	7.701		Zosteraceae	Phyllospadix			Plantae	Najadales										Eukaryota		V3165-02
 	transect	Porifera	392.6	3165	04:59:42:21	 	36.788506	-122.117485	2489198	0.9	34:52.0	Ventana	34.178	00:18:10:29	6.723						Animalia		Porifera									Eukaryota		V3165-01
 	transect	Porifera	389.48	3165	05:16:40:19	 	36.788956	-122.11794	2490409	0.84	51:51.0	Ventana	34.195	00:35:09:01	6.618						Animalia		Porifera									Eukaryota		V3165-01
 	transect	Rathbunaster californicus	392.36	3165	04:59:06:07	 	36.788513	-122.11745	2489138	0.9	34:16.0	Ventana	34.179	00:17:34:23	6.72		Labidiasteridae	Rathbunaster			Animalia	Forcipulatida	Echinodermata	Rathbunaster californicus	Asteroidea							Eukaryota		V3165-01
 	cruise	water	204.25	3165	06:11:52:07	 	36.79676	-122.109085	2491913	1.88	47:46.0	Ventana	34.043	01:30:25:21	8.486																			V3165-02
 	cruise	mud	191.59	3165	07:04:25:21	 	36.799816	-122.108955	2492792	1.87	41:02.0	Ventana	34.04	02:23:07:15	8.441																			V3165-03
 	transect	Rathbunaster californicus	386.14	3165	05:29:41:25	 	36.7894	-122.11669	2490792	0.8	04:53.0	Ventana	34.193	00:48:10:12	6.516		Labidiasteridae	Rathbunaster			Animalia	Forcipulatida	Echinodermata	Rathbunaster californicus	Asteroidea							Eukaryota		V3165-01
 	transect	Sebastes diploproa	398.23	3165	04:48:19:26	 	36.788704	-122.11679	2488965	0.91	23:29.0	Ventana	34.175	00:06:47:20	6.712	Osteichthyes	Scorpaenidae	Sebastes	Neopterygii		Animalia	Scorpaeniformes	Chordata	Sebastes diploproa	Actinopterygii			Scorpaenoidei	Vertebrata	Gnathostomata		Eukaryota	Acanthopterygii	V3165-01
 	transect	Phyllospadix	187.49	3165	06:41:51:13	 	36.799892	-122.10717	2492619	1.71	17:47.0	Ventana	34.068	02:00:23:05	8.254		Zosteraceae	Phyllospadix			Plantae	Najadales										Eukaryota		V3165-02
 	transect	Mediaster aequalis	392.46	3165	04:59:22:21	 	36.78851	-122.11747	2489168	0.9	34:32.0	Ventana	34.178	00:17:49:15	6.719		Goniasteridae	Mediaster			Animalia	Valvatida	Echinodermata	Mediaster aequalis	Asteroidea			Granulosina				Eukaryota		V3165-01
 	transect	Phyllospadix	198.07	3165	07:11:39:08	 	36.79937	-122.10863	2492822	1.69	48:17.0	Ventana	34.076	02:30:21:14	8.169		Zosteraceae	Phyllospadix			Plantae	Najadales										Eukaryota		V3165-03
 	transect	Phyllospadix	188.83	3165	06:47:21:07	 	36.799892	-122.108086	2492702	1.66	23:57.0	Ventana	34.079	02:06:02:27	8.14		Zosteraceae	Phyllospadix			Plantae	Najadales										Eukaryota		V3165-03
 	transect	Sebastes saxicola	203.83	3165	06:20:52:07	http://search.mbari.org/ARCHIVE/frameGrabs/Ventana/images/3165/01_39_24_21.jpg	36.79909	-122.107895	2492056	1.3	56:47.0	Ventana	34.145	01:39:24:21	7.58	Osteichthyes	Scorpaenidae	Sebastes	Neopterygii		Animalia	Scorpaeniformes	Chordata	Sebastes saxicola	Actinopterygii			Scorpaenoidei	Vertebrata	Gnathostomata		Eukaryota	Acanthopterygii	V3165-02
 	transect	Phyllospadix	189.14	3165	07:00:58:12	 	36.79994	-122.10884	2492762	1.84	37:35.0	Ventana	34.04	02:19:39:27	8.437		Zosteraceae	Phyllospadix			Plantae	Najadales										Eukaryota		V3165-03
 	transect	Mediaster aequalis	393.98	3165	05:05:37:25	 	36.78847	-122.11781	2489378	0.9	40:48.0	Ventana	34.182	00:24:06:12	6.699		Goniasteridae	Mediaster			Animalia	Valvatida	Echinodermata	Mediaster aequalis	Asteroidea			Granulosina				Eukaryota		V3165-01
 	transect	Phyllospadix	386.93	3165	05:40:18:21	 	36.789536	-122.11587	2491461	0.82	15:30.0	Ventana	34.189	00:58:46:00	6.571		Zosteraceae	Phyllospadix			Plantae	Najadales										Eukaryota		V3165-01
 	transect	Stomphia	390.57	3165	05:15:52:21	 	36.788902	-122.118004	2490379	0.86	51:03.0	Ventana	34.188	00:34:20:13	6.617	Anthozoa	Actinostolidae	Stomphia			Animalia	Actiniaria	Cnidaria		Hexacorallia			Nyantheae				Eukaryota		V3165-01
 	starttransect	object	188.92	3165	06:54:47:08	 	36.799923	-122.10842	2492732	1.69	31:23.0	Ventana	34.071	02:13:28:29	8.217																			V3165-03
 	transect	Mediaster aequalis	387.24	3165	05:20:23:13	 	36.789127	-122.11769	2490552	0.85	55:34.0	Ventana	34.189	00:38:50:20	6.61		Goniasteridae	Mediaster			Animalia	Valvatida	Echinodermata	Mediaster aequalis	Asteroidea			Granulosina				Eukaryota		V3165-01
 	transect	Mediaster aequalis	385.47	3165	05:26:07:02	 	36.78938	-122.1173	2490679	0.85	01:18.0	Ventana	34.189	00:44:34:02	6.642		Goniasteridae	Mediaster			Animalia	Valvatida	Echinodermata	Mediaster aequalis	Asteroidea			Granulosina				Eukaryota		V3165-01
 	transect	Phyllospadix	198.81	3165	06:28:26:07	 	36.79924	-122.10761	2492153	1.45	04:21.0	Ventana	34.114	01:46:59:14	7.786		Zosteraceae	Phyllospadix			Plantae	Najadales										Eukaryota		V3165-02
 	transect	Psolus squamatus	387.14	3165	05:39:06:08	 	36.789513	-122.116	2491431	0.82	14:18.0	Ventana	34.19	00:57:33:18	6.555	Holothuroidea	Psolidae	Psolus			Animalia	Dendrochirotida	Echinodermata	Psolus squamatus								Eukaryota		V3165-01
 	transect	Glyptocephalus zachirus	386.12	3165	05:29:09:27	 	36.78941	-122.11674	2490755	0.81	04:21.0	Ventana	34.191	00:47:37:08	6.558	Osteichthyes	Pleuronectidae	Glyptocephalus	Neopterygii		Animalia	Pleuronectiformes	Chordata		Actinopterygii				Vertebrata	Gnathostomata		Eukaryota	Acanthopterygii	V3165-01
 	transect	Porifera	393.32	3165	05:04:09:28	 	36.78848	-122.11766	2489281	0.9	39:19.0	Ventana	34.178	00:22:38:16	6.726						Animalia		Porifera									Eukaryota		V3165-01
 	transect	Porifera	390.38	3165	05:16:04:21	 	36.788906	-122.11796	2490386	0.85	51:15.0	Ventana	34.182	00:34:33:01	6.608						Animalia		Porifera									Eukaryota		V3165-01
 	starttransect	object	189.31	3165	06:40:47:00	 	36.79982	-122.1072	2492612	1.53	16:43.0	Ventana	34.1	01:59:20:05	7.941																			V3165-02
 	transect	Glyptocephalus zachirus	209.72	3165	07:22:03:19	 	36.798717	-122.10798	2492875	1.38	58:42.0	Ventana	34.124	02:40:47:08	7.616	Osteichthyes	Pleuronectidae	Glyptocephalus	Neopterygii		Animalia	Pleuronectiformes	Chordata		Actinopterygii				Vertebrata	Gnathostomata		Eukaryota	Acanthopterygii	V3165-03
 	transect	Phyllospadix	387.17	3165	05:38:45:24	 	36.789505	-122.11603	2491401	0.82	13:58.0	Ventana	34.191	00:57:13:00	6.562		Zosteraceae	Phyllospadix			Plantae	Najadales										Eukaryota		V3165-01
 	cruise	Allocentrotus fragilis	367.75	3165	05:47:32:05	 	36.79078	-122.11475	2491890	0.87	23:25.0	Ventana	34.185	01:06:03:21	6.648	Echinoidea	Strongylocentrotidae	Allocentrotus			Animalia	Echinoida	Echinodermata	Allocentrotus fragilis	Euechinoidea			Echinacea				Eukaryota		V3165-02
 	transect	Parastichopus leukothele	197.17	3165	07:11:09:09	 	36.79943	-122.10866	2492815	1.69	47:46.0	Ventana	34.074	02:29:50:28	8.185	Holothuroidea	Stichopodidae	Parastichopus			Animalia	Aspidochirotida	Echinodermata	Parastichopus leukothele	Aspidochirotacea							Eukaryota		V3165-03
 	transect	Parastichopus leukothele	203.69	3165	06:20:58:07	 	36.7991	-122.10789	2492063	1.33	56:53.0	Ventana	34.121	01:39:30:13	7.665	Holothuroidea	Stichopodidae	Parastichopus			Animalia	Aspidochirotida	Echinodermata	Parastichopus leukothele	Aspidochirotacea							Eukaryota		V3165-02
 	transect	Mediaster aequalis	397.45	3165	04:49:17:25	 	36.78861	-122.116905	2488972	0.9	24:27.0	Ventana	34.177	00:07:45:03	6.698		Goniasteridae	Mediaster			Animalia	Valvatida	Echinodermata	Mediaster aequalis	Asteroidea			Granulosina				Eukaryota		V3165-01
 	transect	Phyllospadix	201.71	3165	07:14:02:04	 	36.799156	-122.10842	2492845	1.69	50:39.0	Ventana	34.075	02:32:45:00	8.166		Zosteraceae	Phyllospadix			Plantae	Najadales										Eukaryota		V3165-03
 	transect	Mediaster aequalis	393.82	3165	05:05:17:26	 	36.788464	-122.11778	2489371	0.91	40:28.0	Ventana	34.179	00:23:45:18	6.73		Goniasteridae	Mediaster			Animalia	Valvatida	Echinodermata	Mediaster aequalis	Asteroidea			Granulosina				Eukaryota		V3165-01
 	transect	Rathbunaster californicus	188.78	3165	06:46:51:08	 	36.799873	-122.108025	2492695	1.63	23:27.0	Ventana	34.084	02:05:34:19	8.084		Labidiasteridae	Rathbunaster			Animalia	Forcipulatida	Echinodermata	Rathbunaster californicus	Asteroidea							Eukaryota		V3165-03
 	transect	Glyptocephalus zachirus	189.05	3165	07:02:37:10	 	36.799984	-122.109024	2492785	1.84	39:14.0	Ventana	34.041	02:21:20:05	8.439	Osteichthyes	Pleuronectidae	Glyptocephalus	Neopterygii		Animalia	Pleuronectiformes	Chordata		Actinopterygii				Vertebrata	Gnathostomata		Eukaryota	Acanthopterygii	V3165-03
 	transect	Mediaster aequalis	386.1	3165	05:28:37:12	 	36.78942	-122.11681	2490732	0.81	03:49.0	Ventana	34.195	00:47:05:20	6.517		Goniasteridae	Mediaster			Animalia	Valvatida	Echinodermata	Mediaster aequalis	Asteroidea			Granulosina				Eukaryota		V3165-01
 	transect	Phyllospadix	188.89	3165	07:00:28:13	 	36.799942	-122.10878	2492755	1.83	37:05.0	Ventana	34.042	02:19:10:02	8.426		Zosteraceae	Phyllospadix			Plantae	Najadales										Eukaryota		V3165-03
comment | self | 23 cm apart	transect	lasers	90.08	3166	00:04:45:06	 	36.877495	-122.12043	2494001	4.96	18:38.0	Ventana	33.501	00:04:48:05	11.267																			V3166-01
"identity-reference | self | long, white"	transect	Pennatulacea	90.05	3166	00:05:07:05	http://search.mbari.org/ARCHIVE/frameGrabs/Ventana/images/3166/00_05_10_23.jpg	36.877483	-122.120445	2494004	4.96	19:00.0	Ventana	33.499	00:05:10:23	11.27	Anthozoa					Animalia	Pennatulacea	Cnidaria		Octocorallia							Eukaryota		V3166-01
"identity-reference | self | long, white"	transect	Pennatulacea	89.98	3166	00:05:33:05	 	36.877396	-122.12051	2494008	4.97	19:26.0	Ventana	33.5	00:05:36:24	11.268	Anthozoa					Animalia	Pennatulacea	Cnidaria		Octocorallia							Eukaryota		V3166-01
"identity-reference | self | long, white"	transect	Pennatulacea	90.12	3166	00:06:19:18	 	36.877357	-122.12057	2494013	4.96	20:13.0	Ventana	33.501	00:06:23:03	11.268	Anthozoa					Animalia	Pennatulacea	Cnidaria		Octocorallia							Eukaryota		V3166-01
"identity-reference | self | long, white"	transect	Pennatulacea	90.17	3166	00:06:21:18	 	36.87735	-122.12057	2494014	4.96	20:15.0	Ventana	33.501	00:06:25:04	11.268	Anthozoa					Animalia	Pennatulacea	Cnidaria		Octocorallia							Eukaryota		V3166-01
"identity-reference | self | long, white"	transect	Pennatulacea	90.17	3166	00:06:21:18	 	36.87735	-122.12057	2494015	4.96	20:15.0	Ventana	33.501	00:06:25:19	11.268	Anthozoa					Animalia	Pennatulacea	Cnidaria		Octocorallia							Eukaryota		V3166-01
"identity-reference | self | long, white"	transect	Pennatulacea	90.11	3166	00:06:33:18	 	36.877323	-122.1206	2494020	4.96	20:27.0	Ventana	33.502	00:06:36:24	11.267	Anthozoa					Animalia	Pennatulacea	Cnidaria		Octocorallia							Eukaryota		V3166-01
"identity-reference | self | long, white"	transect	Pennatulacea	90.07	3166	00:06:37:17	 	36.877316	-122.120605	2494023	4.96	20:31.0	Ventana	33.502	00:06:41:25	11.267	Anthozoa					Animalia	Pennatulacea	Cnidaria		Octocorallia							Eukaryota		V3166-01
"identity-reference | self | long, white"	transect	Pennatulacea	90.17	3166	00:06:47:18	 	36.877296	-122.12063	2494025	4.96	20:41.0	Ventana	33.502	00:06:51:16	11.266	Anthozoa					Animalia	Pennatulacea	Cnidaria		Octocorallia							Eukaryota		V3166-01
"identity-reference | self | long, white"	transect	Pennatulacea	90.05	3166	00:06:49:17	 	36.877293	-122.120636	2494026	4.96	20:43.0	Ventana	33.502	00:06:54:04	11.266	Anthozoa					Animalia	Pennatulacea	Cnidaria		Octocorallia							Eukaryota		V3166-01
"identity-reference | self | long, white"	transect	Pennatulacea	90.05	3166	00:06:53:17	 	36.87729	-122.12064	2494027	4.96	20:47.0	Ventana	33.502	00:06:58:01	11.266	Anthozoa					Animalia	Pennatulacea	Cnidaria		Octocorallia							Eukaryota		V3166-01
"identity-reference | self | long, white"	transect	Pennatulacea	90.05	3166	00:06:53:17	 	36.87729	-122.12064	2494028	4.96	20:47.0	Ventana	33.502	00:06:58:09	11.266	Anthozoa					Animalia	Pennatulacea	Cnidaria		Octocorallia							Eukaryota		V3166-01
"identity-reference | self | long, white"	transect	Pennatulacea	90.22	3166	00:06:55:17	 	36.87728	-122.12064	2494029	4.96	20:49.0	Ventana	33.502	00:06:59:11	11.266	Anthozoa					Animalia	Pennatulacea	Cnidaria		Octocorallia							Eukaryota		V3166-01
"identity-reference | self | long, white"	transect	Pennatulacea	90.24	3166	00:07:13:16	 	36.87725	-122.12069	2494034	4.96	21:07.0	Ventana	33.502	00:07:18:01	11.267	Anthozoa					Animalia	Pennatulacea	Cnidaria		Octocorallia							Eukaryota		V3166-01
"identity-reference | self | long, white"	transect	Pennatulacea	90.24	3166	00:07:13:16	 	36.87725	-122.12069	2494035	4.96	21:07.0	Ventana	33.502	00:07:18:15	11.267	Anthozoa					Animalia	Pennatulacea	Cnidaria		Octocorallia							Eukaryota		V3166-01
"identity-reference | self | long, white"	transect	Pennatulacea	90.18	3166	00:07:15:17	 	36.877247	-122.1207	2494036	4.96	21:09.0	Ventana	33.503	00:07:19:03	11.265	Anthozoa					Animalia	Pennatulacea	Cnidaria		Octocorallia							Eukaryota		V3166-01
"identity-reference | self | long, white"	transect	Pennatulacea	90.18	3166	00:07:15:17	 	36.877247	-122.1207	2494037	4.96	21:09.0	Ventana	33.503	00:07:19:16	11.265	Anthozoa					Animalia	Pennatulacea	Cnidaria		Octocorallia							Eukaryota		V3166-01
"identity-reference | self | long, white"	transect	Pennatulacea	90.23	3166	00:07:17:16	 	36.87724	-122.120705	2494038	4.96	21:11.0	Ventana	33.503	00:07:21:09	11.265	Anthozoa					Animalia	Pennatulacea	Cnidaria		Octocorallia							Eukaryota		V3166-01
"identity-reference | self | long, white"	transect	Pennatulacea	90.23	3166	00:07:17:16	 	36.87724	-122.120705	2494039	4.96	21:11.0	Ventana	33.503	00:07:21:09	11.265	Anthozoa					Animalia	Pennatulacea	Cnidaria		Octocorallia							Eukaryota		V3166-01
"identity-reference | self | long, white"	transect	Pennatulacea	90.23	3166	00:07:17:16	 	36.87724	-122.120705	2494041	4.96	21:11.0	Ventana	33.503	00:07:21:05	11.265	Anthozoa					Animalia	Pennatulacea	Cnidaria		Octocorallia							Eukaryota		V3166-01
"identity-reference | self | long, white"	transect	Pennatulacea	90.26	3166	00:07:26:01	 	36.877224	-122.120735	2494043	4.96	21:19.0	Ventana	33.503	00:07:29:28	11.265	Anthozoa					Animalia	Pennatulacea	Cnidaria		Octocorallia							Eukaryota		V3166-01
"identity-reference | self | long, white"	transect	Pennatulacea	90.19	3166	00:07:32:01	 	36.87721	-122.12075	2494046	4.95	21:25.0	Ventana	33.502	00:07:35:06	11.266	Anthozoa					Animalia	Pennatulacea	Cnidaria		Octocorallia							Eukaryota		V3166-01
"identity-reference | self | long, white"	transect	Pennatulacea	90.19	3166	00:07:32:01	 	36.87721	-122.12075	2494047	4.95	21:25.0	Ventana	33.502	00:07:35:23	11.266	Anthozoa					Animalia	Pennatulacea	Cnidaria		Octocorallia							Eukaryota		V3166-01
"identity-reference | self | long, white"	transect	Pennatulacea	90.19	3166	00:07:34:01	 	36.877205	-122.12076	2494048	4.95	21:27.0	Ventana	33.502	00:07:36:24	11.266	Anthozoa					Animalia	Pennatulacea	Cnidaria		Octocorallia							Eukaryota		V3166-01
"identity-reference | self | long, white"	transect	Pennatulacea	90.19	3166	00:07:34:01	 	36.877205	-122.12076	2494051	4.95	21:27.0	Ventana	33.502	00:07:38:18	11.266	Anthozoa					Animalia	Pennatulacea	Cnidaria		Octocorallia							Eukaryota		V3166-01
"identity-reference | self | long, white"	transect	Pennatulacea	90.21	3166	00:07:48:00	 	36.877167	-122.120804	2494054	4.96	21:41.0	Ventana	33.502	00:07:50:29	11.266	Anthozoa					Animalia	Pennatulacea	Cnidaria		Octocorallia							Eukaryota		V3166-01
"identity-reference | self | long, white"	transect	Pennatulacea	90.28	3166	00:08:06:00	 	36.877117	-122.12087	2494058	4.96	21:59.0	Ventana	33.502	00:08:09:24	11.266	Anthozoa					Animalia	Pennatulacea	Cnidaria		Octocorallia							Eukaryota		V3166-01
"identity-reference | self | long, white"	transect	Pennatulacea	90.28	3166	00:08:08:00	 	36.877113	-122.12088	2494059	4.96	22:01.0	Ventana	33.502	00:08:10:25	11.266	Anthozoa					Animalia	Pennatulacea	Cnidaria		Octocorallia							Eukaryota		V3166-01
"identity-reference | self | long, white"	transect	Pennatulacea	90.35	3166	00:08:11:29	 	36.877106	-122.120895	2494061	4.96	22:05.0	Ventana	33.502	00:08:15:26	11.266	Anthozoa					Animalia	Pennatulacea	Cnidaria		Octocorallia							Eukaryota		V3166-01
"identity-reference | self | long, white"	transect	Pennatulacea	90.37	3166	00:08:19:29	 	36.877087	-122.12092	2494062	4.95	22:13.0	Ventana	33.502	00:08:22:19	11.265	Anthozoa					Animalia	Pennatulacea	Cnidaria		Octocorallia							Eukaryota		V3166-01
"identity-reference | self | long, white"	transect	Pennatulacea	90.3	3166	00:08:31:29	 	36.877064	-122.120964	2494064	4.95	22:25.0	Ventana	33.501	00:08:35:03	11.265	Anthozoa					Animalia	Pennatulacea	Cnidaria		Octocorallia							Eukaryota		V3166-01
"identity-reference | self | long, white"	transect	Pennatulacea	90.44	3166	00:08:35:29	 	36.877056	-122.12098	2494066	4.95	22:29.0	Ventana	33.501	00:08:40:01	11.265	Anthozoa					Animalia	Pennatulacea	Cnidaria		Octocorallia							Eukaryota		V3166-01
"identity-reference | self | long, white"	transect	Pennatulacea	90.44	3166	00:08:35:29	 	36.877056	-122.12098	2494067	4.95	22:29.0	Ventana	33.501	00:08:40:24	11.265	Anthozoa					Animalia	Pennatulacea	Cnidaria		Octocorallia							Eukaryota		V3166-01
"identity-reference | self | long, white"	transect	Pennatulacea	90.45	3166	00:08:37:29	 	36.877052	-122.12099	2494068	4.95	22:31.0	Ventana	33.501	00:08:41:08	11.265	Anthozoa					Animalia	Pennatulacea	Cnidaria		Octocorallia							Eukaryota		V3166-01
"identity-reference | self | long, white"	transect	Pennatulacea	90.41	3166	00:08:39:29	 	36.87705	-122.120995	2494069	4.95	22:33.0	Ventana	33.501	00:08:44:19	11.265	Anthozoa					Animalia	Pennatulacea	Cnidaria		Octocorallia							Eukaryota		V3166-01
"identity-reference | self | long, white"	transect	Pennatulacea	90.39	3166	00:08:41:29	 	36.877045	-122.120995	2494070	4.95	22:35.0	Ventana	33.501	00:08:46:27	11.265	Anthozoa					Animalia	Pennatulacea	Cnidaria		Octocorallia							Eukaryota		V3166-01
"identity-reference | self | long, white"	transect	Pennatulacea	90.41	3166	00:08:45:28	 	36.877037	-122.12101	2494071	4.95	22:39.0	Ventana	33.501	00:08:50:04	11.266	Anthozoa					Animalia	Pennatulacea	Cnidaria		Octocorallia							Eukaryota		V3166-01
"identity-reference | self | long, white"	transect	Pennatulacea	90.3	3166	00:08:53:28	 	36.87702	-122.12104	2494073	4.95	22:47.0	Ventana	33.501	00:08:57:17	11.266	Anthozoa					Animalia	Pennatulacea	Cnidaria		Octocorallia							Eukaryota		V3166-01
"identity-reference | self | long, white"	transect	Pennatulacea	90.32	3166	00:08:55:29	 	36.877018	-122.12105	2494074	4.95	22:49.0	Ventana	33.501	00:08:59:05	11.266	Anthozoa					Animalia	Pennatulacea	Cnidaria		Octocorallia							Eukaryota		V3166-01
"identity-reference | self | long, white"	transect	Pennatulacea	90.56	3166	00:09:01:28	 	36.87701	-122.12107	2494076	4.95	22:55.0	Ventana	33.502	00:09:06:07	11.266	Anthozoa					Animalia	Pennatulacea	Cnidaria		Octocorallia							Eukaryota		V3166-01
"identity-reference | self | long, white"	transect	Pennatulacea	90.44	3166	00:09:03:28	 	36.877007	-122.12108	2494077	4.95	22:57.0	Ventana	33.502	00:09:07:08	11.266	Anthozoa					Animalia	Pennatulacea	Cnidaria		Octocorallia							Eukaryota		V3166-01
"identity-reference | self | long, white"	transect	Pennatulacea	90.44	3166	00:09:03:28	 	36.877007	-122.12108	2494078	4.95	22:57.0	Ventana	33.502	00:09:08:24	11.266	Anthozoa					Animalia	Pennatulacea	Cnidaria		Octocorallia							Eukaryota		V3166-01
"identity-reference | self | long, white"	transect	Pennatulacea	90.4	3166	00:09:12:13	 	36.87699	-122.12111	2494080	4.95	23:06.0	Ventana	33.502	00:09:16:01	11.266	Anthozoa					Animalia	Pennatulacea	Cnidaria		Octocorallia							Eukaryota		V3166-01
"identity-reference | self | long, white"	transect	Pennatulacea	90.36	3166	00:09:26:12	 	36.876972	-122.12117	2494082	4.95	23:20.0	Ventana	33.502	00:09:30:14	11.265	Anthozoa					Animalia	Pennatulacea	Cnidaria		Octocorallia							Eukaryota		V3166-01
"identity-reference | self | long, white"	transect	Pennatulacea	90.46	3166	00:09:42:12	 	36.87695	-122.12124	2494083	4.95	23:36.0	Ventana	33.501	00:09:46:07	11.266	Anthozoa					Animalia	Pennatulacea	Cnidaria		Octocorallia							Eukaryota		V3166-01
"identity-reference | self | long, white"	transect	Pennatulacea	90.48	3166	00:09:46:12	 	36.876945	-122.121254	2494084	4.95	23:40.0	Ventana	33.502	00:09:49:03	11.265	Anthozoa					Animalia	Pennatulacea	Cnidaria		Octocorallia							Eukaryota		V3166-01
"identity-reference | self | long, white"	transect	Pennatulacea	90.51	3166	00:09:50:12	 	36.87694	-122.12127	2494085	4.95	23:44.0	Ventana	33.502	00:09:54:27	11.265	Anthozoa					Animalia	Pennatulacea	Cnidaria		Octocorallia							Eukaryota		V3166-01
"identity-reference | self | long, white"	transect	Pennatulacea	90.65	3166	00:10:00:11	 	36.87693	-122.12131	2494086	4.95	23:54.0	Ventana	33.501	00:10:03:16	11.264	Anthozoa					Animalia	Pennatulacea	Cnidaria		Octocorallia							Eukaryota		V3166-01
"identity-reference | self | long, white"	transect	Pennatulacea	90.65	3166	00:10:00:11	 	36.87693	-122.12131	2494087	4.95	23:54.0	Ventana	33.501	00:10:04:20	11.264	Anthozoa					Animalia	Pennatulacea	Cnidaria		Octocorallia							Eukaryota		V3166-01
"identity-reference | self | long, white"	transect	Pennatulacea	90.49	3166	00:10:04:11	 	36.876926	-122.12132	2494088	4.95	23:58.0	Ventana	33.501	00:10:07:02	11.264	Anthozoa					Animalia	Pennatulacea	Cnidaria		Octocorallia							Eukaryota		V3166-01
"identity-reference | self | long, white"	transect	Pennatulacea	90.47	3166	00:10:20:10	 	36.87691	-122.12136	2494091	4.96	24:14.0	Ventana	33.5	00:10:24:17	11.267	Anthozoa					Animalia	Pennatulacea	Cnidaria		Octocorallia							Eukaryota		V3166-01
"identity-reference | self | long, white"	transect	Pennatulacea	90.54	3166	00:14:31:18	 	36.87725	-122.12151	2494092	4.95	28:25.0	Ventana	33.502	00:14:35:01	11.266	Anthozoa					Animalia	Pennatulacea	Cnidaria		Octocorallia							Eukaryota		V3166-01
surface-color | self | white	transect	Echiura	90.46	3166	00:14:45:18	http://search.mbari.org/ARCHIVE/frameGrabs/Ventana/images/3166/00_14_49_05.jpg	36.877285	-122.12151	2494097	4.95	28:39.0	Ventana	33.501	00:14:49:05	11.265						Animalia		Echiura									Eukaryota		V3166-01
"identity-reference | self | long, white"	transect	Pennatulacea	90.57	3166	00:14:49:17	 	36.877293	-122.12151	2494098	4.95	28:43.0	Ventana	33.501	00:14:53:11	11.265	Anthozoa					Animalia	Pennatulacea	Cnidaria		Octocorallia							Eukaryota		V3166-01
"identity-reference | self | long, white"	transect	Pennatulacea	90.43	3166	00:15:08:02	 	36.877335	-122.12152	2494100	4.95	29:02.0	Ventana	33.502	00:15:12:06	11.265	Anthozoa					Animalia	Pennatulacea	Cnidaria		Octocorallia							Eukaryota		V3166-01
"identity-reference | self | long, white"	transect	Pennatulacea	90.47	3166	00:15:20:01	 	36.877365	-122.12153	2494102	4.95	29:14.0	Ventana	33.501	00:15:23:20	11.266	Anthozoa					Animalia	Pennatulacea	Cnidaria		Octocorallia							Eukaryota		V3166-01
"identity-reference | self | long, white"	transect	Pennatulacea	90.43	3166	00:15:58:00	 	36.87744	-122.12153	2494108	4.96	29:52.0	Ventana	33.501	00:16:01:08	11.266	Anthozoa					Animalia	Pennatulacea	Cnidaria		Octocorallia							Eukaryota		V3166-01
"identity-reference | self | long, white"	transect	Pennatulacea	90.46	3166	00:16:10:00	 	36.877472	-122.12153	2494112	4.95	30:04.0	Ventana	33.501	00:16:13:27	11.265	Anthozoa					Animalia	Pennatulacea	Cnidaria		Octocorallia							Eukaryota		V3166-01
"identity-reference | self | long, white"	transect	Pennatulacea	90.66	3166	00:20:49:07	 	36.877666	-122.1215	2494122	4.96	34:43.0	Ventana	33.5	00:20:51:25	11.269	Anthozoa					Animalia	Pennatulacea	Cnidaria		Octocorallia							Eukaryota		V3166-01
"identity-reference | self | long, white"	transect	Pennatulacea	90.75	3166	00:21:05:06	 	36.877693	-122.1215	2494124	4.96	34:59.0	Ventana	33.501	00:21:08:17	11.267	Anthozoa					Animalia	Pennatulacea	Cnidaria		Octocorallia							Eukaryota		V3166-01
"identity-reference | self | long, white"	transect	Pennatulacea	90.75	3166	00:21:05:06	 	36.877693	-122.1215	2494125	4.96	34:59.0	Ventana	33.501	00:21:09:09	11.267	Anthozoa					Animalia	Pennatulacea	Cnidaria		Octocorallia							Eukaryota		V3166-01
"identity-reference | self | long, white"	transect	Pennatulacea	90.54	3166	00:21:17:06	 	36.877716	-122.1215	2494127	4.95	35:11.0	Ventana	33.501	00:21:20:28	11.266	Anthozoa					Animalia	Pennatulacea	Cnidaria		Octocorallia							Eukaryota		V3166-01
"identity-reference | self | long, white"	transect	Pennatulacea	90.58	3166	00:21:35:05	 	36.877747	-122.121506	2494132	4.95	35:29.0	Ventana	33.502	00:21:38:27	11.265	Anthozoa					Animalia	Pennatulacea	Cnidaria		Octocorallia							Eukaryota		V3166-01
"identity-reference | self | long, white"	transect	Pennatulacea	90.65	3166	00:21:43:05	 	36.877758	-122.121506	2494133	4.95	35:37.0	Ventana	33.502	00:21:47:28	11.265	Anthozoa					Animalia	Pennatulacea	Cnidaria		Octocorallia							Eukaryota		V3166-01
"identity-reference | self | long, white"	transect	Pennatulacea	90.71	3166	00:21:49:20	 	36.87777	-122.121506	2494135	4.95	35:44.0	Ventana	33.503	00:21:54:00	11.264	Anthozoa					Animalia	Pennatulacea	Cnidaria		Octocorallia							Eukaryota		V3166-01
"identity-reference | self | long, white"	transect	Pennatulacea	90.49	3166	00:21:57:20	 	36.87778	-122.121506	2494137	4.95	35:52.0	Ventana	33.503	00:22:01:10	11.264	Anthozoa					Animalia	Pennatulacea	Cnidaria		Octocorallia							Eukaryota		V3166-01
"identity-reference | self | long, white"	transect	Pennatulacea	90.73	3166	00:22:13:19	 	36.877796	-122.12151	2494140	4.96	36:08.0	Ventana	33.5	00:22:17:07	11.268	Anthozoa					Animalia	Pennatulacea	Cnidaria		Octocorallia							Eukaryota		V3166-01
"identity-reference | self | long, white"	transect	Pennatulacea	90.73	3166	00:22:13:19	 	36.877796	-122.12151	2494141	4.96	36:08.0	Ventana	33.5	00:22:17:21	11.268	Anthozoa					Animalia	Pennatulacea	Cnidaria		Octocorallia							Eukaryota		V3166-01
"identity-reference | self | long, white"	transect	Pennatulacea	90.71	3166	00:22:23:19	 	36.877823	-122.12148	2494143	4.96	36:18.0	Ventana	33.5	00:22:27:11	11.268	Anthozoa					Animalia	Pennatulacea	Cnidaria		Octocorallia							Eukaryota		V3166-01
"identity-reference | self | long, white"	transect	Pennatulacea	90.82	3166	00:22:25:19	 	36.877823	-122.12148	2494144	4.96	36:20.0	Ventana	33.5	00:22:28:26	11.268	Anthozoa					Animalia	Pennatulacea	Cnidaria		Octocorallia							Eukaryota		V3166-01
burrowing | nil | nil	transect	Ophidion scrippsae	90.55	3166	00:22:29:19	http://search.mbari.org/ARCHIVE/frameGrabs/Ventana/images/3166/00_22_34_04.jpg	36.877823	-122.12148	2494146	4.95	36:24.0	Ventana	33.501	00:22:34:04	11.266	Osteichthyes	Ophidiidae	Ophidion	Neopterygii		Animalia	Ophidiiformes	Chordata	Ophidion scrippsae	Actinopterygii				Vertebrata	Gnathostomata		Eukaryota	Paracanthopterygii	V3166-01
"identity-reference | self | long, white"	transect	Pennatulacea	90.42	3166	00:22:31:19	 	36.877823	-122.12148	2494147	4.95	36:26.0	Ventana	33.501	00:22:34:21	11.266	Anthozoa					Animalia	Pennatulacea	Cnidaria		Octocorallia							Eukaryota		V3166-01
"identity-reference | self | long, white"	transect	Pennatulacea	90.63	3166	00:22:35:18	 	36.877823	-122.12148	2494148	4.95	36:30.0	Ventana	33.501	00:22:38:29	11.266	Anthozoa					Animalia	Pennatulacea	Cnidaria		Octocorallia							Eukaryota		V3166-01
"identity-reference | self | long, white"	transect	Pennatulacea	90.63	3166	00:22:35:18	 	36.877823	-122.12148	2494149	4.95	36:30.0	Ventana	33.501	00:22:39:17	11.266	Anthozoa					Animalia	Pennatulacea	Cnidaria		Octocorallia							Eukaryota		V3166-01
"identity-reference | self | long, white"	transect	Pennatulacea	90.7	3166	00:22:47:18	 	36.877827	-122.12149	2494151	4.97	36:42.0	Ventana	33.499	00:22:50:29	11.27	Anthozoa					Animalia	Pennatulacea	Cnidaria		Octocorallia							Eukaryota		V3166-01
"identity-reference | self | long, white"	transect	Pennatulacea	90.7	3166	00:22:47:18	 	36.877827	-122.12149	2494152	4.97	36:42.0	Ventana	33.499	00:22:51:13	11.27	Anthozoa					Animalia	Pennatulacea	Cnidaria		Octocorallia							Eukaryota		V3166-01
"identity-reference | self | long, white"	transect	Pennatulacea	90.69	3166	00:22:51:18	 	36.877827	-122.12149	2494153	4.97	36:46.0	Ventana	33.499	00:22:55:00	11.27	Anthozoa					Animalia	Pennatulacea	Cnidaria		Octocorallia							Eukaryota		V3166-01
"identity-reference | self | long, white"	transect	Pennatulacea	90.52	3166	00:23:09:17	 	36.87783	-122.12149	2494156	4.96	37:04.0	Ventana	33.501	00:23:14:13	11.268	Anthozoa					Animalia	Pennatulacea	Cnidaria		Octocorallia							Eukaryota		V3166-01
"population-quantity | self | 999, identity-reference | self | long, white"	cruise	Pennatulacea	90.27	3166	00:27:40:24	 	36.877792	-122.12108	2494166	4.97	41:35.0	Ventana	33.5	00:27:44:06	11.269	Anthozoa					Animalia	Pennatulacea	Cnidaria		Octocorallia							Eukaryota		V3166-01
"identity-reference | self | long, white"	transect	Pennatulacea	90.74	3166	00:32:14:00	 	36.877655	-122.120995	2494168	4.97	46:09.0	Ventana	33.499	00:32:17:11	11.271	Anthozoa					Animalia	Pennatulacea	Cnidaria		Octocorallia							Eukaryota		V3166-01
"identity-reference | self | long, white"	transect	Pennatulacea	90.84	3166	00:32:22:00	 	36.87765	-122.12098	2494169	4.97	46:17.0	Ventana	33.499	00:32:25:26	11.271	Anthozoa					Animalia	Pennatulacea	Cnidaria		Octocorallia							Eukaryota		V3166-01
"identity-reference | self | long, white"	transect	Pennatulacea	90.73	3166	00:32:24:01	 	36.877647	-122.12097	2494170	4.97	46:19.0	Ventana	33.499	00:32:28:06	11.271	Anthozoa					Animalia	Pennatulacea	Cnidaria		Octocorallia							Eukaryota		V3166-01
"identity-reference | self | long, white"	transect	Pennatulacea	90.71	3166	00:33:24:14	 	36.87762	-122.12089	2494175	4.96	47:19.0	Ventana	33.5	00:33:28:15	11.268	Anthozoa					Animalia	Pennatulacea	Cnidaria		Octocorallia							Eukaryota		V3166-01
"identity-reference | self | long, white"	transect	Pennatulacea	90.71	3166	00:37:45:06	 	36.877575	-122.120804	2494179	4.96	51:40.0	Ventana	33.5	00:37:48:15	11.27	Anthozoa					Animalia	Pennatulacea	Cnidaria		Octocorallia							Eukaryota		V3166-01
"identity-reference | self | long, white"	transect	Pennatulacea	90.7	3166	00:37:47:06	 	36.877575	-122.120804	2494180	4.96	51:42.0	Ventana	33.5	00:37:51:04	11.27	Anthozoa					Animalia	Pennatulacea	Cnidaria		Octocorallia							Eukaryota		V3166-01
"identity-reference | self | long, white"	transect	Pennatulacea	90.7	3166	00:37:47:06	 	36.877575	-122.120804	2494181	4.96	51:42.0	Ventana	33.5	00:37:51:16	11.27	Anthozoa					Animalia	Pennatulacea	Cnidaria		Octocorallia							Eukaryota		V3166-01
"identity-reference | self | long, white"	transect	Pennatulacea	90.63	3166	00:37:57:06	 	36.87757	-122.1208	2494183	4.96	51:52.0	Ventana	33.5	00:38:00:29	11.27	Anthozoa					Animalia	Pennatulacea	Cnidaria		Octocorallia							Eukaryota		V3166-01
"identity-reference | self | long, white"	transect	Pennatulacea	90.63	3166	00:38:07:05	 	36.87757	-122.12079	2494185	4.96	52:02.0	Ventana	33.499	00:38:11:19	11.27	Anthozoa					Animalia	Pennatulacea	Cnidaria		Octocorallia							Eukaryota		V3166-01
"identity-reference | self | long, white"	transect	Pennatulacea	90.75	3166	00:38:25:20	 	36.877567	-122.120766	2494188	4.96	52:21.0	Ventana	33.5	00:38:29:01	11.268	Anthozoa					Animalia	Pennatulacea	Cnidaria		Octocorallia							Eukaryota		V3166-01
"identity-reference | self | long, white"	transect	Pennatulacea	90.64	3166	00:38:37:19	 	36.87756	-122.120735	2494190	4.96	52:33.0	Ventana	33.5	00:38:41:12	11.269	Anthozoa					Animalia	Pennatulacea	Cnidaria		Octocorallia							Eukaryota		V3166-01
"identity-reference | self | long, white"	transect	Pennatulacea	90.66	3166	00:38:39:19	 	36.87756	-122.120735	2494191	4.96	52:35.0	Ventana	33.5	00:38:42:23	11.269	Anthozoa					Animalia	Pennatulacea	Cnidaria		Octocorallia							Eukaryota		V3166-01
"identity-reference | self | long, white"	transect	Pennatulacea	90.62	3166	00:38:53:19	 	36.87755	-122.1207	2494192	4.96	52:49.0	Ventana	33.5	00:38:57:05	11.269	Anthozoa					Animalia	Pennatulacea	Cnidaria		Octocorallia							Eukaryota		V3166-01
surface-color | self | white	transect	Echiura	90.67	3166	00:38:59:19	 	36.877544	-122.120674	2494193	4.96	52:55.0	Ventana	33.5	00:39:03:15	11.269						Animalia		Echiura									Eukaryota		V3166-01
"identity-reference | self | long, white"	transect	Pennatulacea	90.54	3166	00:39:19:18	 	36.87753	-122.12061	2494196	4.96	53:15.0	Ventana	33.5	00:39:23:26	11.27	Anthozoa					Animalia	Pennatulacea	Cnidaria		Octocorallia							Eukaryota		V3166-01
"identity-reference | self | long, white"	transect	Pennatulacea	90.61	3166	00:39:21:18	 	36.87753	-122.120605	2494197	4.96	53:17.0	Ventana	33.5	00:39:26:14	11.27	Anthozoa					Animalia	Pennatulacea	Cnidaria		Octocorallia							Eukaryota		V3166-01
"identity-reference | self | long, white"	transect	Pennatulacea	90.64	3166	00:39:29:18	 	36.87752	-122.12058	2494199	4.96	53:25.0	Ventana	33.5	00:39:34:13	11.269	Anthozoa					Animalia	Pennatulacea	Cnidaria		Octocorallia							Eukaryota		V3166-01
"identity-reference | self | long, white"	transect	Pennatulacea	90.55	3166	00:39:31:18	 	36.87752	-122.12058	2494200	4.96	53:27.0	Ventana	33.5	00:39:34:28	11.269	Anthozoa					Animalia	Pennatulacea	Cnidaria		Octocorallia							Eukaryota		V3166-01
"identity-reference | self | long, white"	transect	Pennatulacea	90.48	3166	00:39:35:17	 	36.877518	-122.12057	2494201	4.96	53:31.0	Ventana	33.5	00:39:38:22	11.269	Anthozoa					Animalia	Pennatulacea	Cnidaria		Octocorallia							Eukaryota		V3166-01
"identity-reference | self | long, white"	transect	Pennatulacea	90.57	3166	00:39:58:02	 	36.877506	-122.12053	2494205	4.96	53:53.0	Ventana	33.5	00:40:00:27	11.269	Anthozoa					Animalia	Pennatulacea	Cnidaria		Octocorallia							Eukaryota		V3166-01
population-dispersal | self | school	transect	Osteichthyes	90.45	3166	00:40:08:01	 	36.8775	-122.12051	2494207	4.96	54:03.0	Ventana	33.5	00:40:12:10	11.269	Osteichthyes					Animalia		Chordata						Vertebrata	Gnathostomata		Eukaryota		V3166-01
"identity-reference | self | long, white"	transect	Pennatulacea	90.67	3166	00:40:16:01	 	36.877487	-122.1205	2494208	4.97	54:11.0	Ventana	33.499	00:40:19:20	11.271	Anthozoa					Animalia	Pennatulacea	Cnidaria		Octocorallia							Eukaryota		V3166-01
"identity-reference | self | long, white"	transect	Pennatulacea	90.58	3166	00:40:24:01	 	36.87748	-122.120476	2494209	4.97	54:19.0	Ventana	33.499	00:40:28:11	11.271	Anthozoa					Animalia	Pennatulacea	Cnidaria		Octocorallia							Eukaryota		V3166-01
population-dispersal | self | school	transect	Osteichthyes	90.58	3166	00:40:30:01	 	36.87747	-122.12046	2494210	4.96	54:25.0	Ventana	33.499	00:40:34:14	11.27	Osteichthyes					Animalia		Chordata						Vertebrata	Gnathostomata		Eukaryota		V3166-01
"identity-reference | self | long, white"	transect	Pennatulacea	90.59	3166	00:40:34:01	 	36.877464	-122.12045	2494211	4.96	54:29.0	Ventana	33.499	00:40:38:13	11.27	Anthozoa					Animalia	Pennatulacea	Cnidaria		Octocorallia							Eukaryota		V3166-01
"identity-reference | self | long, white"	transect	Pennatulacea	90.57	3166	00:40:36:00	 	36.87746	-122.120445	2494212	4.96	54:31.0	Ventana	33.499	00:40:40:04	11.27	Anthozoa					Animalia	Pennatulacea	Cnidaria		Octocorallia							Eukaryota		V3166-01
"identity-reference | self | long, white"	transect	Pennatulacea	90.63	3166	00:40:50:00	 	36.877422	-122.12039	2494214	4.96	54:45.0	Ventana	33.5	00:40:53:00	11.27	Anthozoa					Animalia	Pennatulacea	Cnidaria		Octocorallia							Eukaryota		V3166-01
"identity-reference | self | long, white"	transect	Pennatulacea	90.58	3166	00:41:23:29	 	36.877327	-122.120255	2494215	4.96	55:19.0	Ventana	33.5	00:41:28:14	11.27	Anthozoa					Animalia	Pennatulacea	Cnidaria		Octocorallia							Eukaryota		V3166-01
population-dispersal | self | school	transect	Doryteuthis opalescens	90.51	3166	00:41:52:14	 	36.877254	-122.120155	2494218	4.98	55:48.0	Ventana	33.498	00:41:55:20	11.274	Cephalopoda	Loliginidae	Doryteuthis			Animalia	Teuthoidea	Mollusca	Doryteuthis opalescens	Coleoidea			Myopsida				Eukaryota	Decapodiformes	V3166-01
"identity-reference | self | long, white"	transect	Pennatulacea	90.57	3166	00:41:54:13	 	36.87725	-122.12015	2494219	4.98	55:50.0	Ventana	33.498	00:41:58:29	11.274	Anthozoa					Animalia	Pennatulacea	Cnidaria		Octocorallia							Eukaryota		V3166-01
"identity-reference | self | long, white"	transect	Pennatulacea	90.48	3166	00:41:58:13	 	36.877243	-122.12014	2494220	4.97	55:54.0	Ventana	33.499	00:42:02:07	11.272	Anthozoa					Animalia	Pennatulacea	Cnidaria		Octocorallia							Eukaryota		V3166-01
"identity-reference | self | long, white"	transect	Pennatulacea	90.35	3166	00:42:02:13	 	36.877235	-122.12014	2494221	4.97	55:58.0	Ventana	33.499	00:42:06:08	11.272	Anthozoa					Animalia	Pennatulacea	Cnidaria		Octocorallia							Eukaryota		V3166-01
"identity-reference | self | long, white"	transect	Pennatulacea	90.6	3166	00:42:14:13	 	36.877224	-122.120125	2494223	4.97	56:10.0	Ventana	33.498	00:42:18:22	11.273	Anthozoa					Animalia	Pennatulacea	Cnidaria		Octocorallia							Eukaryota		V3166-01
"identity-reference | self | long, white"	transect	Pennatulacea	90.57	3166	00:42:16:12	 	36.877224	-122.120125	2494224	4.97	56:12.0	Ventana	33.498	00:42:19:21	11.273	Anthozoa					Animalia	Pennatulacea	Cnidaria		Octocorallia							Eukaryota		V3166-01
"identity-reference | self | long, white"	transect	Pennatulacea	90.2	3166	00:43:00:11	 	36.877167	-122.12005	2494225	4.97	56:56.0	Ventana	33.498	00:43:04:09	11.272	Anthozoa					Animalia	Pennatulacea	Cnidaria		Octocorallia							Eukaryota		V3166-01
"sample-reference | self | V3166-PC12, sampled-by | Push Corer | nil, comment | self | macro"	stationary	mud	90.61	3166	00:02:22:10	http://search.mbari.org/ARCHIVE/frameGrabs/Ventana/images/3166/00_02_26_29.jpg	36.877533	-122.1204	20023907	4.97	16:15.0	Ventana	33.5	00:02:26:29	11.269																			V3166-01
"sampled-by | Push Corer | nil, sample-reference | self | V3166-PC4, comment | self | tracer"	stationary	mud	90.7	3166	00:03:10:24	http://search.mbari.org/ARCHIVE/frameGrabs/Ventana/images/3166/00_03_14_28.jpg	36.877525	-122.1204	20023908	4.97	17:04.0	Ventana	33.5	00:03:14:28	11.267																			V3166-01
comment | self | Start Station SC-3 transect A	starttransect	object	90.05	3166	00:04:43:06	 	36.877495	-122.12043	20023909	4.96	18:36.0	Ventana	33.501	00:04:46:09	11.267																			V3166-01
comment | self | end Station SC-3 transect A	endtransect	object	90.33	3166	00:10:24:11	 	36.87691	-122.12137	20023910	4.96	24:18.0	Ventana	33.5	00:10:28:29	11.267																			V3166-01
"sample-reference | self | V3166-PC11, sampled-by | Push Corer | nil, comment | self | macro"	stationary	mud	91.43	3166	00:11:44:23	http://search.mbari.org/ARCHIVE/frameGrabs/Ventana/images/3166/00_11_47_27.jpg	36.87693	-122.12144	20023911	4.95	25:38.0	Ventana	33.503	00:11:47:27	11.264																			V3166-01
comment | self | Start Station SC-3 transect B	starttransect	object	90.68	3166	00:14:23:18	 	36.87723	-122.12151	20023912	4.96	28:17.0	Ventana	33.502	00:14:27:06	11.265																			V3166-01
"sampled-by | Push Corer | nil, sample-reference | self | V3166-PC5, comment | self | macro"	stationary	mud	91.38	3166	00:17:32:13	http://search.mbari.org/ARCHIVE/frameGrabs/Ventana/images/3166/00_17_36_01.jpg	36.877598	-122.1215	20023913	4.95	31:26.0	Ventana	33.501	00:17:36:01	11.264																			V3166-01
"sampled-by | Push Corer | nil, nil | nil | tracer, sample-reference | self | V3166-PC6"	stationary	mud	91.19	3166	00:18:52:25	http://search.mbari.org/ARCHIVE/frameGrabs/Ventana/images/3166/00_18_56_28.jpg	36.877594	-122.121506	20023914	4.96	32:47.0	Ventana	33.5	00:18:56:28	11.268																			V3166-01
comment | self | end Station SC-3 transect B	endtransect	object	90.59	3166	00:24:02:01	 	36.87783	-122.12143	20023916	4.96	37:56.0	Ventana	33.501	00:24:05:19	11.267																			V3166-01
"sample-reference | self | V3166-PC14, sampled-by | Push Corer | nil, comment | self | macro"	stationary	mud	91.29	3166	00:25:14:14	http://search.mbari.org/ARCHIVE/frameGrabs/Ventana/images/3166/00_25_17_16.jpg	36.877815	-122.121284	20023917	4.95	39:09.0	Ventana	33.502	00:25:17:16	11.265																			V3166-01
"sampled-by | Push Corer | nil, sample-reference | self | V3166-PC18, comment | self | macro"	stationary	mud	91.14	3166	00:29:09:07	http://search.mbari.org/ARCHIVE/frameGrabs/Ventana/images/3166/00_29_12_09.jpg	36.877728	-122.1211	20023918	4.96	43:04.0	Ventana	33.5	00:29:12:09	11.269																			V3166-01
"sampled-by | Push Corer | nil, sample-reference | self | V3166-PC7, comment | self | tracer"	stationary	mud	91.29	3166	00:30:31:19	http://search.mbari.org/ARCHIVE/frameGrabs/Ventana/images/3166/00_30_34_07.jpg	36.87772	-122.1211	20023919	4.96	44:26.0	Ventana	33.501	00:30:34:07	11.269																			V3166-01
comment | self | Start Station SC-3 transect C	starttransect	object	90.81	3166	00:32:08:01	 	36.87766	-122.121	20023920	4.98	46:03.0	Ventana	33.499	00:32:11:04	11.272																			V3166-01
"sample-reference | self | V3166-PC38, sampled-by | Push Corer | nil, comment | self | macro"	stationary	physical object	91.3	3166	00:36:12:24	http://search.mbari.org/ARCHIVE/frameGrabs/Ventana/images/3166/00_36_16_26.jpg	36.877575	-122.12079	20023922	4.96	50:08.0	Ventana	33.501	00:36:16:26	11.277																			V3166-01
comment | self | end Station SC-3 transect C	endtransect	object	90.33	3166	00:43:04:26	 	36.877163	-122.12005	20023924	4.97	57:00.0	Ventana	33.498	00:43:07:28	11.272																			V3166-01
 	transect	Pleuronectiformes	90.7	3166	00:39:46:02	 	36.877514	-122.120544	2494203	4.96	53:41.0	Ventana	33.5	00:39:48:23	11.268	Osteichthyes			Neopterygii		Animalia	Pleuronectiformes	Chordata		Actinopterygii				Vertebrata	Gnathostomata		Eukaryota	Acanthopterygii	V3166-01
 	transect	Pennatulacea	90.63	3166	00:32:49:29	 	36.877636	-122.12093	2494173	4.97	46:45.0	Ventana	33.499	00:32:54:24	11.27	Anthozoa					Animalia	Pennatulacea	Cnidaria		Octocorallia							Eukaryota		V3166-01
 	cruise	Pleuronectiformes	90.58	3166	00:04:21:06	 	36.877506	-122.12042	2494000	4.96	18:14.0	Ventana	33.5	00:04:24:28	11.268	Osteichthyes			Neopterygii		Animalia	Pleuronectiformes	Chordata		Actinopterygii				Vertebrata	Gnathostomata		Eukaryota	Acanthopterygii	V3166-01
 	transect	Ceriantharia	90.47	3166	00:16:12:00	 	36.87748	-122.12153	2494113	4.95	30:06.0	Ventana	33.501	00:16:15:22	11.265	Anthozoa					Animalia	Ceriantharia	Cnidaria		Ceriantipatharia							Eukaryota		V3166-01
 	transect	Echiura	90.39	3166	00:06:57:17	 	36.877277	-122.12065	2494226	4.96	20:51.0	Ventana	33.502	00:07:01:18	11.266						Animalia		Echiura									Eukaryota		V3166-01
 	transect	Pennatulacea	90.46	3166	00:07:42:00	http://search.mbari.org/ARCHIVE/frameGrabs/Ventana/images/3166/00_07_45_16.jpg	36.877182	-122.12079	2494053	4.95	21:35.0	Ventana	33.502	00:07:45:16	11.266	Anthozoa					Animalia	Pennatulacea	Cnidaria		Octocorallia							Eukaryota		V3166-01
 	transect	Pleuronectiformes	90.54	3166	00:15:40:01	 	36.877407	-122.12153	2494106	4.95	29:34.0	Ventana	33.501	00:15:44:15	11.266	Osteichthyes			Neopterygii		Animalia	Pleuronectiformes	Chordata		Actinopterygii				Vertebrata	Gnathostomata		Eukaryota	Acanthopterygii	V3166-01
 	transect	Laminariales	90.51	3166	00:21:55:20	 	36.877777	-122.121506	2494136	4.95	35:50.0	Ventana	33.503	00:21:58:26	11.264	Phaeophyceae					Chromista	Laminariales	Phaeophycophyta									Eukaryota		V3166-01
 	transect	Ceriantharia	90.57	3166	00:14:49:17	 	36.877293	-122.12151	2494099	4.95	28:43.0	Ventana	33.501	00:14:54:14	11.265	Anthozoa					Animalia	Ceriantharia	Cnidaria		Ceriantipatharia							Eukaryota		V3166-01
 	transect	Ceriantharia	90.61	3166	00:21:21:06	 	36.877724	-122.1215	2494129	4.95	35:15.0	Ventana	33.501	00:21:24:28	11.266	Anthozoa					Animalia	Ceriantharia	Cnidaria		Ceriantipatharia							Eukaryota		V3166-01
 	transect	Pleuronectiformes	90.71	3166	00:38:27:20	 	36.877563	-122.12076	2494189	4.96	52:23.0	Ventana	33.5	00:38:32:00	11.269	Osteichthyes			Neopterygii		Animalia	Pleuronectiformes	Chordata		Actinopterygii				Vertebrata	Gnathostomata		Eukaryota	Acanthopterygii	V3166-01
 	transect	Laminariales	90.59	3166	00:23:24:02	 	36.877834	-122.12149	2494159	4.96	37:18.0	Ventana	33.501	00:23:27:28	11.268	Phaeophyceae					Chromista	Laminariales	Phaeophycophyta									Eukaryota		V3166-01
 	transect	Pleuronectiformes	90.03	3166	00:05:35:05	 	36.87739	-122.120514	2494009	4.97	19:28.0	Ventana	33.5	00:05:39:28	11.268	Osteichthyes			Neopterygii		Animalia	Pleuronectiformes	Chordata		Actinopterygii				Vertebrata	Gnathostomata		Eukaryota	Acanthopterygii	V3166-01
 	transect	Pleuronectiformes	90.67	3166	00:37:49:06	 	36.877575	-122.120804	2494182	4.96	51:44.0	Ventana	33.5	00:37:53:27	11.27	Osteichthyes			Neopterygii		Animalia	Pleuronectiformes	Chordata		Actinopterygii				Vertebrata	Gnathostomata		Eukaryota	Acanthopterygii	V3166-01
 	transect	Pennatulacea	90.59	3166	00:16:04:00	 	36.877457	-122.12153	2494111	4.95	29:58.0	Ventana	33.501	00:16:06:21	11.265	Anthozoa					Animalia	Pennatulacea	Cnidaria		Octocorallia							Eukaryota		V3166-01
 	transect	Pleuronectiformes	90.11	3166	00:06:33:18	 	36.877323	-122.1206	2494021	4.96	20:27.0	Ventana	33.502	00:06:37:26	11.267	Osteichthyes			Neopterygii		Animalia	Pleuronectiformes	Chordata		Actinopterygii				Vertebrata	Gnathostomata		Eukaryota	Acanthopterygii	V3166-01
 	transect	Pleuronectiformes	90.72	3166	00:32:36:00	 	36.877644	-122.12096	2494171	4.99	46:31.0	Ventana	33.496	00:32:39:26	11.277	Osteichthyes			Neopterygii		Animalia	Pleuronectiformes	Chordata		Actinopterygii				Vertebrata	Gnathostomata		Eukaryota	Acanthopterygii	V3166-01
 	transect	Pleuronectiformes	90.59	3166	00:09:18:12	 	36.876984	-122.12114	2494081	4.95	23:12.0	Ventana	33.502	00:09:21:25	11.265	Osteichthyes			Neopterygii		Animalia	Pleuronectiformes	Chordata		Actinopterygii				Vertebrata	Gnathostomata		Eukaryota	Acanthopterygii	V3166-01
 	transect	Phyllospadix	90.68	3166	00:21:47:05	 	36.877766	-122.121506	2494134	4.95	35:42.0	Ventana	33.503	00:21:51:12	11.264		Zosteraceae	Phyllospadix			Plantae	Najadales										Eukaryota		V3166-01
 	transect	Phyllospadix	90.53	3166	00:39:03:19	 	36.87754	-122.12066	2494194	4.96	52:59.0	Ventana	33.5	00:39:06:18	11.269		Zosteraceae	Phyllospadix			Plantae	Najadales										Eukaryota		V3166-01
 	transect	Pleuronectiformes	90.26	3166	00:07:26:01	 	36.877224	-122.120735	2494044	4.96	21:19.0	Ventana	33.503	00:07:29:28	11.265	Osteichthyes			Neopterygii		Animalia	Pleuronectiformes	Chordata		Actinopterygii				Vertebrata	Gnathostomata		Eukaryota	Acanthopterygii	V3166-01
 	transect	Ceriantharia	90.52	3166	00:15:38:01	 	36.877403	-122.12153	2494104	4.95	29:32.0	Ventana	33.501	00:15:41:10	11.266	Anthozoa					Animalia	Ceriantharia	Cnidaria		Ceriantipatharia							Eukaryota		V3166-01
 	transect	Ceriantharia	90.74	3166	00:38:21:20	 	36.877567	-122.120766	2494187	4.96	52:17.0	Ventana	33.5	00:38:24:24	11.268	Anthozoa					Animalia	Ceriantharia	Cnidaria		Ceriantipatharia							Eukaryota		V3166-01
 	transect	Pennatulacea	90.58	3166	00:23:16:03	 	36.877834	-122.12149	2494157	4.96	37:10.0	Ventana	33.501	00:23:20:18	11.268	Anthozoa					Animalia	Pennatulacea	Cnidaria		Octocorallia							Eukaryota		V3166-01
 	transect	Pennatulacea	90.58	3166	00:41:36:14	 	36.877293	-122.1202	2494217	4.97	55:32.0	Ventana	33.499	00:41:39:05	11.271	Anthozoa					Animalia	Pennatulacea	Cnidaria		Octocorallia							Eukaryota		V3166-01
 	transect	Phyllospadix	90.27	3166	00:08:10:00	 	36.87711	-122.12089	2494060	4.96	22:03.0	Ventana	33.502	00:08:12:18	11.266		Zosteraceae	Phyllospadix			Plantae	Najadales										Eukaryota		V3166-01
 	transect	Pleuronectiformes	89.98	3166	00:05:33:05	 	36.877396	-122.12051	2494007	4.97	19:26.0	Ventana	33.5	00:05:36:24	11.268	Osteichthyes			Neopterygii		Animalia	Pleuronectiformes	Chordata		Actinopterygii				Vertebrata	Gnathostomata		Eukaryota	Acanthopterygii	V3166-01
 	transect	Pennatulacea	90.49	3166	00:10:04:11	 	36.876926	-122.12132	2494090	4.95	23:58.0	Ventana	33.501	00:10:08:11	11.264	Anthozoa					Animalia	Pennatulacea	Cnidaria		Octocorallia							Eukaryota		V3166-01
 	starttransect	object	90.71	3166	00:20:29:08	 	36.877632	-122.1215	2494120	4.96	34:23.0	Ventana	33.5	00:20:33:09	11.268																			V3166-01
 	transect	Pleuronectiformes	90.73	3166	00:22:37:19	 	36.877823	-122.12148	2494150	4.95	36:32.0	Ventana	33.501	00:22:41:03	11.266	Osteichthyes			Neopterygii		Animalia	Pleuronectiformes	Chordata		Actinopterygii				Vertebrata	Gnathostomata		Eukaryota	Acanthopterygii	V3166-01
 	transect	Pleuronectiformes	90.57	3166	00:14:39:18	 	36.87727	-122.12151	2494094	4.95	28:33.0	Ventana	33.502	00:14:42:23	11.266	Osteichthyes			Neopterygii		Animalia	Pleuronectiformes	Chordata		Actinopterygii				Vertebrata	Gnathostomata		Eukaryota	Acanthopterygii	V3166-01
 	transect	Pennatulacea	90.69	3166	00:22:59:18	 	36.87783	-122.12149	2494154	4.96	36:54.0	Ventana	33.501	00:23:03:27	11.268	Anthozoa					Animalia	Pennatulacea	Cnidaria		Octocorallia							Eukaryota		V3166-01
 	starttransect	object	90.75	3166	00:37:39:06	 	36.877575	-122.12081	2494177	4.97	51:34.0	Ventana	33.5	00:37:43:29	11.27																			V3166-01
 	descend	water	88.22	3166	00:00:08:00	 	36.877552	-122.12043	2493997	5.17	14:01.0	Ventana	33.474	00:00:10:23	11.317																			V3166-01
 	transect	Pennatulacea	90.33	3166	00:08:02:00	http://search.mbari.org/ARCHIVE/frameGrabs/Ventana/images/3166/00_08_05_26.jpg	36.87713	-122.12086	2494057	4.96	21:55.0	Ventana	33.502	00:08:05:26	11.266	Anthozoa					Animalia	Pennatulacea	Cnidaria		Octocorallia							Eukaryota		V3166-01
 	transect	Rathbunaster californicus	90.43	3166	00:15:58:00	http://search.mbari.org/ARCHIVE/frameGrabs/Ventana/images/3166/00_16_01_23.jpg	36.87744	-122.12153	2494110	4.96	29:52.0	Ventana	33.501	00:16:01:23	11.266		Labidiasteridae	Rathbunaster			Animalia	Forcipulatida	Echinodermata	Rathbunaster californicus	Asteroidea							Eukaryota		V3166-01
 	transect	Pleuronectiformes	90.19	3166	00:07:34:01	 	36.877205	-122.12076	2494050	4.95	21:27.0	Ventana	33.502	00:07:38:18	11.266	Osteichthyes			Neopterygii		Animalia	Pleuronectiformes	Chordata		Actinopterygii				Vertebrata	Gnathostomata		Eukaryota	Acanthopterygii	V3166-01
 	transect	Pleuronectiformes	90.6	3166	00:15:32:01	 	36.87739	-122.12153	2494103	4.95	29:26.0	Ventana	33.501	00:15:36:03	11.266	Osteichthyes			Neopterygii		Animalia	Pleuronectiformes	Chordata		Actinopterygii				Vertebrata	Gnathostomata		Eukaryota	Acanthopterygii	V3166-01
 	transect	Metridium farcimen	90.72	3166	00:27:46:24	 	36.877792	-122.12107	2494163	4.97	41:41.0	Ventana	33.499	00:27:50:05	11.274	Anthozoa	Metridiidae	Metridium			Animalia	Actiniaria	Cnidaria	Metridium farcimen	Hexacorallia			Nyantheae				Eukaryota		V3166-01
 	transect	Pleuronectiformes	90.73	3166	00:22:27:19	 	36.877823	-122.12148	2494145	4.96	36:22.0	Ventana	33.5	00:22:32:02	11.268	Osteichthyes			Neopterygii		Animalia	Pleuronectiformes	Chordata		Actinopterygii				Vertebrata	Gnathostomata		Eukaryota	Acanthopterygii	V3166-01
 	transect	Phyllospadix	90.46	3166	00:07:58:00	 	36.87714	-122.12084	2494055	4.96	21:51.0	Ventana	33.502	00:08:02:15	11.266		Zosteraceae	Phyllospadix			Plantae	Najadales										Eukaryota		V3166-01
 	transect	Ceriantharia	90.71	3166	00:39:25:18	 	36.877525	-122.1206	2494198	4.96	53:21.0	Ventana	33.5	00:39:28:25	11.27	Anthozoa					Animalia	Ceriantharia	Cnidaria		Ceriantipatharia							Eukaryota		V3166-01
 	transect	Phyllospadix	90.11	3166	00:06:33:18	 	36.877323	-122.1206	2494018	4.96	20:27.0	Ventana	33.502	00:06:36:17	11.267		Zosteraceae	Phyllospadix			Plantae	Najadales										Eukaryota		V3166-01
 	transect	Phyllospadix	90.8	3166	00:23:40:01	 	36.87784	-122.12148	2494161	4.96	37:34.0	Ventana	33.501	00:23:42:27	11.267		Zosteraceae	Phyllospadix			Plantae	Najadales										Eukaryota		V3166-01
 	transect	Phyllospadix	90.1	3166	00:05:51:04	 	36.877384	-122.12053	2494011	4.96	19:44.0	Ventana	33.5	00:05:55:09	11.269		Zosteraceae	Phyllospadix			Plantae	Najadales										Eukaryota		V3166-01
 	transect	Pennatulacea	90.57	3166	00:15:12:02	 	36.877346	-122.12152	2494101	4.95	29:06.0	Ventana	33.502	00:15:14:26	11.265	Anthozoa					Animalia	Pennatulacea	Cnidaria		Octocorallia							Eukaryota		V3166-01
 	transect	Phyllospadix	90.6	3166	00:21:33:06	 	36.877743	-122.121506	2494131	4.95	35:27.0	Ventana	33.502	00:21:36:26	11.265		Zosteraceae	Phyllospadix			Plantae	Najadales										Eukaryota		V3166-01
 	transect	Pleuronectiformes	90.68	3166	00:37:59:06	 	36.87757	-122.1208	2494184	4.96	51:54.0	Ventana	33.499	00:38:03:09	11.27	Osteichthyes			Neopterygii		Animalia	Pleuronectiformes	Chordata		Actinopterygii				Vertebrata	Gnathostomata		Eukaryota	Acanthopterygii	V3166-01
 	transect	Ceriantharia	90.56	3166	00:21:19:06	 	36.87772	-122.1215	2494128	4.95	35:13.0	Ventana	33.501	00:21:23:23	11.266	Anthozoa					Animalia	Ceriantharia	Cnidaria		Ceriantipatharia							Eukaryota		V3166-01
 	transect	Ceriantharia	90.58	3166	00:23:16:03	 	36.877834	-122.12149	2494158	4.96	37:10.0	Ventana	33.501	00:23:20:18	11.268	Anthozoa					Animalia	Ceriantharia	Cnidaria		Ceriantipatharia							Eukaryota		V3166-01
 	transect	Pennatulacea	90.69	3166	00:20:31:07	 	36.877636	-122.1215	2494121	4.96	34:25.0	Ventana	33.5	00:20:35:06	11.268	Anthozoa					Animalia	Pennatulacea	Cnidaria		Octocorallia							Eukaryota		V3166-01
 	transect	Pennatulacea	90.67	3166	00:39:48:02	 	36.87751	-122.120544	2494204	4.96	53:43.0	Ventana	33.5	00:39:50:22	11.268	Anthozoa					Animalia	Pennatulacea	Cnidaria		Octocorallia							Eukaryota		V3166-01
 	endtransect	object	90.59	3166	00:16:18:00	 	36.877502	-122.12152	2494114	4.95	30:12.0	Ventana	33.501	00:16:22:12	11.265																			V3166-01
 	transect	Pleuronectiformes	90.68	3166	00:32:57:29	 	36.877632	-122.120926	2494174	4.96	46:53.0	Ventana	33.5	00:33:01:26	11.267	Osteichthyes			Neopterygii		Animalia	Pleuronectiformes	Chordata		Actinopterygii				Vertebrata	Gnathostomata		Eukaryota	Acanthopterygii	V3166-01
 	transect	Phyllospadix	90.56	3166	00:15:44:01	 	36.877415	-122.12153	2494107	4.96	29:38.0	Ventana	33.501	00:15:47:25	11.266		Zosteraceae	Phyllospadix			Plantae	Najadales										Eukaryota		V3166-01
 	transect	Ophiuroidea	90.26	3166	00:06:41:18	 	36.877308	-122.12061	2494024	4.96	20:35.0	Ventana	33.502	00:06:45:12	11.267	Ophiuroidea					Animalia		Echinodermata									Eukaryota		V3166-01
 	cruise	Metridium farcimen	91.35	3166	00:28:02:24	 	36.877792	-122.12106	2494167	4.97	41:57.0	Ventana	33.499	00:28:06:21	11.27	Anthozoa	Metridiidae	Metridium			Animalia	Actiniaria	Cnidaria	Metridium farcimen	Hexacorallia			Nyantheae				Eukaryota		V3166-01
 	transect	Pennatulacea	90.79	3166	00:21:07:06	 	36.877697	-122.1215	2494126	4.96	35:01.0	Ventana	33.501	00:21:10:18	11.267	Anthozoa					Animalia	Pennatulacea	Cnidaria		Octocorallia							Eukaryota		V3166-01
 	transect	Ophidion scrippsae	90.58	3166	00:41:36:14	 	36.877293	-122.1202	2494216	4.97	55:32.0	Ventana	33.499	00:41:39:05	11.271	Osteichthyes	Ophidiidae	Ophidion	Neopterygii		Animalia	Ophidiiformes	Chordata	Ophidion scrippsae	Actinopterygii				Vertebrata	Gnathostomata		Eukaryota	Paracanthopterygii	V3166-01
 	transect	Ceriantharia	90.71	3166	00:38:19:20	 	36.877567	-122.12077	2494186	4.96	52:15.0	Ventana	33.5	00:38:23:20	11.268	Anthozoa					Animalia	Ceriantharia	Cnidaria		Ceriantipatharia							Eukaryota		V3166-01
 	transect	Ophiuroidea	90.19	3166	00:05:25:05	 	36.877415	-122.1205	2494006	4.97	19:18.0	Ventana	33.499	00:05:28:27	11.271	Ophiuroidea					Animalia		Echinodermata									Eukaryota		V3166-01
 	transect	Pleuronectiformes	90.46	3166	00:14:45:18	 	36.877285	-122.12151	2494096	4.95	28:39.0	Ventana	33.501	00:14:49:15	11.265	Osteichthyes			Neopterygii		Animalia	Pleuronectiformes	Chordata		Actinopterygii				Vertebrata	Gnathostomata		Eukaryota	Acanthopterygii	V3166-01
 	transect	Pennatulacea	90.49	3166	00:10:04:11	 	36.876926	-122.12132	2494089	4.95	23:58.0	Ventana	33.501	00:10:08:11	11.264	Anthozoa					Animalia	Pennatulacea	Cnidaria		Octocorallia							Eukaryota		V3166-01
 	transect	Pleuronectiformes	90.72	3166	00:32:36:00	 	36.877644	-122.12096	2494172	4.99	46:31.0	Ventana	33.496	00:32:39:26	11.277	Osteichthyes			Neopterygii		Animalia	Pleuronectiformes	Chordata		Actinopterygii				Vertebrata	Gnathostomata		Eukaryota	Acanthopterygii	V3166-01
 	transect	Pennatulacea	90.62	3166	00:22:21:19	 	36.877823	-122.12148	2494142	4.96	36:16.0	Ventana	33.5	00:22:24:27	11.268	Anthozoa					Animalia	Pennatulacea	Cnidaria		Octocorallia							Eukaryota		V3166-01
 	transect	Phyllospadix	90.51	3166	00:39:37:17	 	36.877518	-122.12057	2494202	4.96	53:33.0	Ventana	33.5	00:39:40:28	11.269		Zosteraceae	Phyllospadix			Plantae	Najadales										Eukaryota		V3166-01
 	descend	mud	90.48	3166	00:00:35:29	http://search.mbari.org/ARCHIVE/frameGrabs/Ventana/images/3166/00_00_38_22.jpg	36.87754	-122.120415	2493999	5.12	14:29.0	Ventana	33.485	00:00:38:22	11.299																			V3166-01
 	transect	Ceriantharia	90.58	3166	00:39:15:18	 	36.877533	-122.12063	2494195	4.96	53:11.0	Ventana	33.5	00:39:19:29	11.27	Anthozoa					Animalia	Ceriantharia	Cnidaria		Ceriantipatharia							Eukaryota		V3166-01
 	cruise	mud	90.53	3166	00:27:10:25	 	36.877796	-122.12112	2494165	4.97	41:05.0	Ventana	33.5	00:27:13:16	11.268																			V3166-01
 	transect	Ceriantharia	90.07	3166	00:06:35:18	 	36.87732	-122.1206	2494022	4.96	20:29.0	Ventana	33.502	00:06:38:26	11.267	Anthozoa					Animalia	Ceriantharia	Cnidaria		Ceriantipatharia							Eukaryota		V3166-01
 	transect	Phyllospadix	90.26	3166	00:07:26:01	 	36.877224	-122.120735	2494045	4.96	21:19.0	Ventana	33.503	00:07:29:28	11.265		Zosteraceae	Phyllospadix			Plantae	Najadales										Eukaryota		V3166-01
 	transect	Ceriantharia	90.43	3166	00:08:57:28	 	36.877014	-122.121056	2494075	4.95	22:51.0	Ventana	33.501	00:09:01:06	11.266	Anthozoa					Animalia	Ceriantharia	Cnidaria		Ceriantipatharia							Eukaryota		V3166-01
 	transect	Luidia foliolata	90.52	3166	00:15:38:01	 	36.877403	-122.12153	2494105	4.95	29:32.0	Ventana	33.501	00:15:41:10	11.266		Luidiidae	Luidia			Animalia	Platyasterida	Echinodermata	Luidia foliolata	Asteroidea							Eukaryota		V3166-01
 	transect	Phyllospadix	90.11	3166	00:06:33:18	 	36.877323	-122.1206	2494019	4.96	20:27.0	Ventana	33.502	00:06:36:13	11.267		Zosteraceae	Phyllospadix			Plantae	Najadales										Eukaryota		V3166-01
 	transect	Pennatulacea	90.41	3166	00:09:05:28	 	36.877003	-122.121086	2494079	4.95	22:59.0	Ventana	33.502	00:09:10:04	11.266	Anthozoa					Animalia	Pennatulacea	Cnidaria		Octocorallia							Eukaryota		V3166-01
 	transect	Ceriantharia	90.59	3166	00:22:09:20	 	36.877796	-122.12151	2494139	4.96	36:04.0	Ventana	33.5	00:22:13:29	11.268	Anthozoa					Animalia	Ceriantharia	Cnidaria		Ceriantipatharia							Eukaryota		V3166-01
 	transect	Pennatulacea	90.55	3166	00:42:12:13	 	36.877228	-122.120125	2494222	4.97	56:08.0	Ventana	33.498	00:42:15:09	11.273	Anthozoa					Animalia	Pennatulacea	Cnidaria		Octocorallia							Eukaryota		V3166-01
 	transect	Pleuronectiformes	90.19	3166	00:07:34:01	 	36.877205	-122.12076	2494049	4.95	21:27.0	Ventana	33.502	00:07:38:18	11.266	Osteichthyes			Neopterygii		Animalia	Pleuronectiformes	Chordata		Actinopterygii				Vertebrata	Gnathostomata		Eukaryota	Acanthopterygii	V3166-01
 	transect	Pleuronectiformes	90.42	3166	00:08:47:29	 	36.877033	-122.12102	2494072	4.95	22:41.0	Ventana	33.501	00:08:51:16	11.266	Osteichthyes			Neopterygii		Animalia	Pleuronectiformes	Chordata		Actinopterygii				Vertebrata	Gnathostomata		Eukaryota	Acanthopterygii	V3166-01
 	transect	Phyllospadix	90.23	3166	00:07:17:16	 	36.87724	-122.120705	2494042	4.96	21:11.0	Ventana	33.503	00:07:22:14	11.265		Zosteraceae	Phyllospadix			Plantae	Najadales										Eukaryota		V3166-01
 	transect	Phyllospadix	90.1	3166	00:05:51:04	 	36.877384	-122.12053	2494012	4.96	19:44.0	Ventana	33.5	00:05:56:05	11.269		Zosteraceae	Phyllospadix			Plantae	Najadales										Eukaryota		V3166-01
 	transect	Pennatulacea	90.55	3166	00:23:42:01	 	36.877834	-122.121475	2494162	4.96	37:36.0	Ventana	33.501	00:23:44:20	11.267	Anthozoa					Animalia	Pennatulacea	Cnidaria		Octocorallia							Eukaryota		V3166-01
 	transect	Laminariales	90.46	3166	00:14:45:18	 	36.877285	-122.12151	2494095	4.95	28:39.0	Ventana	33.501	00:14:49:15	11.265	Phaeophyceae					Chromista	Laminariales	Phaeophycophyta									Eukaryota		V3166-01
 	transect	Phyllospadix	89.91	3166	00:05:19:05	 	36.87743	-122.12049	2494005	4.97	19:12.0	Ventana	33.499	00:05:22:19	11.271		Zosteraceae	Phyllospadix			Plantae	Najadales										Eukaryota		V3166-01
 	transect	Pleuronectiformes	90.85	3166	00:23:03:17	 	36.87783	-122.12149	2494155	4.96	36:58.0	Ventana	33.501	00:23:08:19	11.268	Osteichthyes			Neopterygii		Animalia	Pleuronectiformes	Chordata		Actinopterygii				Vertebrata	Gnathostomata		Eukaryota	Acanthopterygii	V3166-01
 	transect	Ceriantharia	90.38	3166	00:08:33:29	 	36.87706	-122.12097	2494065	4.95	22:27.0	Ventana	33.501	00:08:37:15	11.265	Anthozoa					Animalia	Ceriantharia	Cnidaria		Ceriantipatharia							Eukaryota		V3166-01
 	descend	benthos	89.62	3166	00:00:17:29	 	36.87755	-122.12042	2493998	5.12	14:11.0	Ventana	33.483	00:00:21:24	11.304																			V3166-01
 	transect	Pleuronectiformes	90.78	3166	00:37:41:06	 	36.877575	-122.12081	2494178	4.97	51:36.0	Ventana	33.5	00:37:45:03	11.27	Osteichthyes			Neopterygii		Animalia	Pleuronectiformes	Chordata		Actinopterygii				Vertebrata	Gnathostomata		Eukaryota	Acanthopterygii	V3166-01
 	transect	Pleuronectiformes	90.7	3166	00:21:23:06	 	36.877728	-122.1215	2494130	4.95	35:17.0	Ventana	33.501	00:21:27:28	11.266	Osteichthyes			Neopterygii		Animalia	Pleuronectiformes	Chordata		Actinopterygii				Vertebrata	Gnathostomata		Eukaryota	Acanthopterygii	V3166-01
 	transect	Phyllospadix	90.87	3166	00:23:38:02	 	36.87784	-122.12148	2494160	4.96	37:32.0	Ventana	33.501	00:23:42:16	11.267		Zosteraceae	Phyllospadix			Plantae	Najadales										Eukaryota		V3166-01
 	transect	Rathbunaster californicus	90.2	3166	00:06:29:18	http://search.mbari.org/ARCHIVE/frameGrabs/Ventana/images/3166/00_06_32_15.jpg	36.877335	-122.12058	2494017	4.96	20:23.0	Ventana	33.502	00:06:32:15	11.267		Labidiasteridae	Rathbunaster			Animalia	Forcipulatida	Echinodermata	Rathbunaster californicus	Asteroidea							Eukaryota		V3166-01
 	transect	Phyllospadix	90.23	3166	00:07:17:16	 	36.87724	-122.120705	2494040	4.96	21:11.0	Ventana	33.503	00:07:21:09	11.265		Zosteraceae	Phyllospadix			Plantae	Najadales										Eukaryota		V3166-01
 	transect	Phyllospadix	90.71	3166	00:40:46:01	 	36.877434	-122.12041	2494213	4.96	54:41.0	Ventana	33.5	00:40:49:11	11.27		Zosteraceae	Phyllospadix			Plantae	Najadales										Eukaryota		V3166-01
 	transect	Ceriantharia	90.13	3166	00:05:37:04	 	36.87739	-122.120514	2494010	4.97	19:30.0	Ventana	33.5	00:05:42:07	11.268	Anthozoa					Animalia	Ceriantharia	Cnidaria		Ceriantipatharia							Eukaryota		V3166-01
 	transect	Pleuronectiformes	90.25	3166	00:04:55:06	http://search.mbari.org/ARCHIVE/frameGrabs/Ventana/images/3166/00_04_58_27.jpg	36.877487	-122.12044	2494003	4.96	18:48.0	Ventana	33.501	00:04:58:27	11.267	Osteichthyes			Neopterygii		Animalia	Pleuronectiformes	Chordata		Actinopterygii				Vertebrata	Gnathostomata		Eukaryota	Acanthopterygii	V3166-01
 	transect	Ceriantharia	90.41	3166	00:08:23:29	 	36.87708	-122.12093	2494063	4.95	22:17.0	Ventana	33.502	00:08:27:27	11.265	Anthozoa					Animalia	Ceriantharia	Cnidaria		Ceriantipatharia							Eukaryota		V3166-01
 	transect	Ceriantharia	90.52	3166	00:14:35:18	 	36.87726	-122.12151	2494093	4.95	28:29.0	Ventana	33.502	00:14:38:26	11.266	Anthozoa					Animalia	Ceriantharia	Cnidaria		Ceriantipatharia							Eukaryota		V3166-01
 	transect	Pennatulacea	90.77	3166	00:20:53:07	 	36.877674	-122.1215	2494123	4.96	34:47.0	Ventana	33.5	00:20:56:02	11.269	Anthozoa					Animalia	Pennatulacea	Cnidaria		Octocorallia							Eukaryota		V3166-01
 	endtransect	object	91.27	3166	00:33:38:13	 	36.877617	-122.120865	2494176	4.97	47:33.0	Ventana	33.5	00:33:42:12	11.272																			V3166-01
 	transect	Pleuronectiformes	90.82	3166	00:40:04:02	 	36.8775	-122.120514	2494206	4.96	53:59.0	Ventana	33.5	00:40:08:00	11.269	Osteichthyes			Neopterygii		Animalia	Pleuronectiformes	Chordata		Actinopterygii				Vertebrata	Gnathostomata		Eukaryota	Acanthopterygii	V3166-01
 	transect	Pleuronectiformes	90.33	3166	00:08:02:00	http://search.mbari.org/ARCHIVE/frameGrabs/Ventana/images/3166/00_08_05_26.jpg	36.87713	-122.12086	2494056	4.96	21:55.0	Ventana	33.502	00:08:05:26	11.266	Osteichthyes			Neopterygii		Animalia	Pleuronectiformes	Chordata		Actinopterygii				Vertebrata	Gnathostomata		Eukaryota	Acanthopterygii	V3166-01
"image-quality | self | good, comment | self | still image"	transect	Parmaturus xaniurus	318.92	3167	00:24:23:18	http://search.mbari.org/ARCHIVE/frameGrabs/Ventana/images/3167/00_26_20_13.jpg	36.82441	-122.16961	20023949	1.13	56:43.0	Ventana	34.159	00:26:20:13	7.02	Chondrichthyes	Scyliorhinidae	Parmaturus			Animalia	Carcharhiniformes	Chordata	Parmaturus xaniurus	Elasmobranchii				Vertebrata			Eukaryota	Galeomorphi	V3167-01
population-quantity | self | 999	cruise	cable	304.63	3167	01:28:32:20	http://search.mbari.org/ARCHIVE/frameGrabs/Ventana/images/3167/01_30_23_28.jpg	36.827652	-122.16843	20023996	1.1	01:17.0	Ventana	34.162	01:30:23:28	6.963																			V3167-02
population-quantity | self | 999	cruise	Raja rhina	304.33	3167	01:28:42:20	http://search.mbari.org/ARCHIVE/frameGrabs/Ventana/images/3167/01_30_34_28.jpg	36.82769	-122.1684	20023997	1.09	01:27.0	Ventana	34.165	01:30:34:28	6.947	Chondrichthyes	Rajidae	Raja			Animalia	Rajiformes	Chordata	Raja rhina	Elasmobranchii				Vertebrata			Eukaryota	Batoidea	V3167-02
population-quantity | self | 999	cruise	Raja rhina	303.68	3167	01:29:02:20	http://search.mbari.org/ARCHIVE/frameGrabs/Ventana/images/3167/01_30_53_28.jpg	36.827766	-122.16836	20023998	1.09	01:47.0	Ventana	34.163	01:30:53:28	6.964	Chondrichthyes	Rajidae	Raja			Animalia	Rajiformes	Chordata	Raja rhina	Elasmobranchii				Vertebrata			Eukaryota	Batoidea	V3167-02
"nil | nil | start ""Skate-1A"" transect 50m East of cable, comment | self | field of view = 2.2 m"	starttransect	physical object	309.5	3167	01:15:19:15	http://search.mbari.org/ARCHIVE/frameGrabs/Ventana/images/3167/01_17_07_08.jpg	36.826714	-122.16833	20023981	1.08	48:03.0	Ventana	34.165	01:17:11:10	6.932																			V3167-02
identity-certainty | self | maybe	transect	Parastichopus leukothele	314.96	3167	01:19:14:07	 	36.82562	-122.16878	2371263	1.09	51:58.0	Ventana	34.161	01:21:05:14	6.971	Holothuroidea	Stichopodidae	Parastichopus			Animalia	Aspidochirotida	Echinodermata	Parastichopus leukothele	Aspidochirotacea							Eukaryota		V3167-02
population-quantity | self | 999	cruise	Rathbunaster californicus	317.61	3167	01:20:18:20	 	36.825386	-122.16913	2371412	1.07	53:02.0	Ventana	34.166	01:22:09:12	6.916		Labidiasteridae	Rathbunaster			Animalia	Forcipulatida	Echinodermata	Rathbunaster californicus	Asteroidea							Eukaryota		V3167-02
population-quantity | self | 999	cruise	Allocentrotus fragilis	317.38	3167	01:20:22:21	 	36.825382	-122.16915	2371413	1.07	53:06.0	Ventana	34.166	01:22:13:18	6.916	Echinoidea	Strongylocentrotidae	Allocentrotus			Animalia	Echinoida	Echinodermata	Allocentrotus fragilis	Euechinoidea			Echinacea				Eukaryota		V3167-02
population-quantity | self | 999	cruise	Rathbunaster californicus	317.27	3167	01:20:28:20	 	36.825382	-122.16919	2371415	1.07	53:12.0	Ventana	34.166	01:22:19:13	6.924		Labidiasteridae	Rathbunaster			Animalia	Forcipulatida	Echinodermata	Rathbunaster californicus	Asteroidea							Eukaryota		V3167-02
population-quantity | self | 999	cruise	Rathbunaster californicus	316.93	3167	01:20:34:20	 	36.82539	-122.169235	2371418	1.07	53:19.0	Ventana	34.166	01:22:25:23	6.924		Labidiasteridae	Rathbunaster			Animalia	Forcipulatida	Echinodermata	Rathbunaster californicus	Asteroidea							Eukaryota		V3167-02
population-quantity | self | 999	cruise	Rathbunaster californicus	317.07	3167	01:20:46:20	 	36.8254	-122.16931	2371432	1.08	53:31.0	Ventana	34.163	01:22:38:01	6.937		Labidiasteridae	Rathbunaster			Animalia	Forcipulatida	Echinodermata	Rathbunaster californicus	Asteroidea							Eukaryota		V3167-02
population-quantity | self | 999	cruise	Parastichopus leukothele	317.13	3167	01:20:54:19	 	36.825413	-122.16936	2371436	1.09	53:39.0	Ventana	34.162	01:22:46:25	6.958	Holothuroidea	Stichopodidae	Parastichopus			Animalia	Aspidochirotida	Echinodermata	Parastichopus leukothele	Aspidochirotacea							Eukaryota		V3167-02
population-quantity | self | 999	cruise	Rathbunaster californicus	317.12	3167	01:21:04:19	 	36.82543	-122.16941	2371440	1.09	53:49.0	Ventana	34.162	01:22:56:12	6.958		Labidiasteridae	Rathbunaster			Animalia	Forcipulatida	Echinodermata	Rathbunaster californicus	Asteroidea							Eukaryota		V3167-02
comment | self | return to cable	cruise	cable	317.28	3167	01:21:18:19	 	36.82546	-122.16947	2371447	1.09	54:03.0	Ventana	34.162	01:23:10:10	6.975																			V3167-02
comment | self | start Skate-1B transect (on cable)	starttransect	physical object	316.7	3167	01:21:57:03	 	36.825592	-122.1695	2371542	1.09	54:41.0	Ventana	34.164	01:23:47:23	6.958																			V3167-02
identity-certainty | self | maybe	transect	Stylasterias forreri	316.51	3167	01:22:03:02	 	36.82562	-122.169495	2371594	1.09	54:47.0	Ventana	34.164	01:23:54:08	6.958		Asteriidae	Stylasterias			Animalia	Forcipulatida	Echinodermata	Stylasterias forreri	Asteroidea							Eukaryota		V3167-02
identity-certainty | self | maybe	transect	Stomphia	316.47	3167	01:22:05:02	 	36.82563	-122.169495	2371601	1.09	54:49.0	Ventana	34.164	01:23:57:01	6.958	Anthozoa	Actinostolidae	Stomphia			Animalia	Actiniaria	Cnidaria		Hexacorallia			Nyantheae				Eukaryota		V3167-02
"upon | cable | nil, life-stage | self | juvenile"	transect	Liponema brevicornis	316.09	3167	01:22:19:02	 	36.825703	-122.169464	2371645	1.09	55:03.0	Ventana	34.163	01:24:11:00	6.958	Anthozoa	Liponematidae	Liponema			Animalia	Actiniaria	Cnidaria	Liponema brevicornis	Hexacorallia			Nyantheae				Eukaryota		V3167-02
"upon | cable | nil, life-stage | self | juvenile"	transect	Liponema brevicornis	316.06	3167	01:22:25:02	 	36.825733	-122.16945	2371659	1.08	55:09.0	Ventana	34.164	01:24:16:12	6.938	Anthozoa	Liponematidae	Liponema			Animalia	Actiniaria	Cnidaria	Liponema brevicornis	Hexacorallia			Nyantheae				Eukaryota		V3167-02
"upon | cable | nil, life-stage | self | juvenile"	transect	Liponema brevicornis	316.06	3167	01:22:25:02	 	36.825733	-122.16945	2371660	1.08	55:09.0	Ventana	34.164	01:24:16:12	6.938	Anthozoa	Liponematidae	Liponema			Animalia	Actiniaria	Cnidaria	Liponema brevicornis	Hexacorallia			Nyantheae				Eukaryota		V3167-02
"upon | cable | nil, life-stage | self | juvenile"	transect	Liponema brevicornis	314.73	3167	01:23:01:01	 	36.82594	-122.16936	2371779	1.07	55:45.0	Ventana	34.165	01:24:53:06	6.926	Anthozoa	Liponematidae	Liponema			Animalia	Actiniaria	Cnidaria	Liponema brevicornis	Hexacorallia			Nyantheae				Eukaryota		V3167-02
"upon | cable | nil, life-stage | self | juvenile"	transect	Liponema brevicornis	314.73	3167	01:23:01:01	 	36.82594	-122.16936	2371780	1.07	55:45.0	Ventana	34.165	01:24:53:06	6.926	Anthozoa	Liponematidae	Liponema			Animalia	Actiniaria	Cnidaria	Liponema brevicornis	Hexacorallia			Nyantheae				Eukaryota		V3167-02
"upon | cable | nil, life-stage | self | juvenile"	transect	Liponema brevicornis	314.73	3167	01:23:01:01	 	36.82594	-122.16936	2371781	1.07	55:45.0	Ventana	34.165	01:24:53:06	6.926	Anthozoa	Liponematidae	Liponema			Animalia	Actiniaria	Cnidaria	Liponema brevicornis	Hexacorallia			Nyantheae				Eukaryota		V3167-02
"upon | cable | nil, life-stage | self | juvenile"	transect	Liponema brevicornis	314.81	3167	01:23:21:15	 	36.82606	-122.169304	2371853	1.07	56:05.0	Ventana	34.165	01:25:12:08	6.923	Anthozoa	Liponematidae	Liponema			Animalia	Actiniaria	Cnidaria	Liponema brevicornis	Hexacorallia			Nyantheae				Eukaryota		V3167-02
"upon | cable | nil, life-stage | self | juvenile"	transect	Liponema brevicornis	311.33	3167	01:24:15:13	 	36.82638	-122.16916	2372078	1.08	57:00.0	Ventana	34.164	01:26:07:08	6.927	Anthozoa	Liponematidae	Liponema			Animalia	Actiniaria	Cnidaria	Liponema brevicornis	Hexacorallia			Nyantheae				Eukaryota		V3167-02
"upon | cable | nil, life-stage | self | juvenile"	transect	Liponema brevicornis	310.49	3167	01:24:41:27	 	36.826527	-122.169075	2372691	1.08	57:26.0	Ventana	34.165	01:26:33:24	6.934	Anthozoa	Liponematidae	Liponema			Animalia	Actiniaria	Cnidaria	Liponema brevicornis	Hexacorallia			Nyantheae				Eukaryota		V3167-02
"upon | cable | nil, life-stage | self | juvenile"	transect	Liponema brevicornis	310.49	3167	01:24:41:27	 	36.826527	-122.169075	2372692	1.08	57:26.0	Ventana	34.165	01:26:33:24	6.934	Anthozoa	Liponematidae	Liponema			Animalia	Actiniaria	Cnidaria	Liponema brevicornis	Hexacorallia			Nyantheae				Eukaryota		V3167-02
"surface-color | self | white, relative-size | self | small"	transect	Asteroidea	309.46	3167	01:25:09:26	 	36.82668	-122.16898	2372745	1.11	57:54.0	Ventana	34.161	01:27:00:05	7.022						Animalia		Echinodermata		Asteroidea							Eukaryota		V3167-02
"upon | cable | nil, life-stage | self | juvenile"	transect	Liponema brevicornis	309.18	3167	01:25:27:26	 	36.826767	-122.16893	2372772	1.11	58:12.0	Ventana	34.161	01:27:19:22	6.98	Anthozoa	Liponematidae	Liponema			Animalia	Actiniaria	Cnidaria	Liponema brevicornis	Hexacorallia			Nyantheae				Eukaryota		V3167-02
"upon | cable | nil, life-stage | self | juvenile"	transect	Liponema brevicornis	308.25	3167	01:25:47:26	 	36.82686	-122.16888	2372816	1.09	58:32.0	Ventana	34.163	01:27:38:29	6.991	Anthozoa	Liponematidae	Liponema			Animalia	Actiniaria	Cnidaria	Liponema brevicornis	Hexacorallia			Nyantheae				Eukaryota		V3167-02
"upon | cable | nil, life-stage | self | juvenile"	transect	Liponema brevicornis	306.58	3167	01:26:42:09	 	36.827103	-122.16873	2373003	1.12	59:26.0	Ventana	34.164	01:28:32:20	6.991	Anthozoa	Liponematidae	Liponema			Animalia	Actiniaria	Cnidaria	Liponema brevicornis	Hexacorallia			Nyantheae				Eukaryota		V3167-02
life-stage | self | gravid	transect	Sebastes	306.89	3167	01:26:30:09	 	36.827053	-122.16876	2372976	1.17	59:14.0	Ventana	34.157	01:28:22:11	7.079	Osteichthyes	Scorpaenidae	Sebastes	Neopterygii		Animalia	Scorpaeniformes	Chordata		Actinopterygii			Scorpaenoidei	Vertebrata	Gnathostomata		Eukaryota	Acanthopterygii	V3167-02
upon | cable | nil	transect	Stomphia	305.82	3167	01:27:06:08	 	36.827225	-122.16867	2388353	1.1	59:51.0	Ventana	34.164	01:28:58:15	6.964	Anthozoa	Actinostolidae	Stomphia			Animalia	Actiniaria	Cnidaria		Hexacorallia			Nyantheae				Eukaryota		V3167-02
upon | cable | nil	transect	Stomphia	305.77	3167	01:27:10:08	 	36.827248	-122.168655	2388376	1.1	59:55.0	Ventana	34.163	01:29:00:29	6.962	Anthozoa	Actinostolidae	Stomphia			Animalia	Actiniaria	Cnidaria		Hexacorallia			Nyantheae				Eukaryota		V3167-02
life-stage | self | gravid	transect	Sebastes	305.16	3167	01:27:24:07	 	36.82732	-122.16862	2388500	1.11	00:09.0	Ventana	34.162	01:29:16:10	6.992	Osteichthyes	Scorpaenidae	Sebastes	Neopterygii		Animalia	Scorpaeniformes	Chordata		Actinopterygii			Scorpaenoidei	Vertebrata	Gnathostomata		Eukaryota	Acanthopterygii	V3167-02
under | cable | nil	transect	Raja rhina	305.18	3167	01:27:42:07	http://search.mbari.org/ARCHIVE/frameGrabs/Ventana/images/3167/01_29_34_26.jpg	36.827415	-122.168564	2388591	1.12	00:27.0	Ventana	34.159	01:29:34:26	7.026	Chondrichthyes	Rajidae	Raja			Animalia	Rajiformes	Chordata	Raja rhina	Elasmobranchii				Vertebrata			Eukaryota	Batoidea	V3167-02
upon | cable | nil	transect	Stomphia	305.08	3167	01:27:52:22	 	36.827465	-122.16854	2388608	1.12	00:37.0	Ventana	34.159	01:29:44:02	7.026	Anthozoa	Actinostolidae	Stomphia			Animalia	Actiniaria	Cnidaria		Hexacorallia			Nyantheae				Eukaryota		V3167-02
upon | cable | nil	transect	Stomphia	305.08	3167	01:27:54:21	 	36.827473	-122.16853	2388622	1.16	00:39.0	Ventana	34.154	01:29:46:22	7.099	Anthozoa	Actinostolidae	Stomphia			Animalia	Actiniaria	Cnidaria		Hexacorallia			Nyantheae				Eukaryota		V3167-02
under | cable | nil	transect	Raja rhina	305.04	3167	01:28:08:21	 	36.827553	-122.16849	2388656	1.13	00:53.0	Ventana	34.162	01:29:59:06	7	Chondrichthyes	Rajidae	Raja			Animalia	Rajiformes	Chordata	Raja rhina	Elasmobranchii				Vertebrata			Eukaryota	Batoidea	V3167-02
population-quantity | self | 10	transect	Raja rhina	304.79	3167	01:28:24:20	 	36.827618	-122.16845	2388736	1.1	01:09.0	Ventana	34.162	01:30:15:04	6.963	Chondrichthyes	Rajidae	Raja			Animalia	Rajiformes	Chordata	Raja rhina	Elasmobranchii				Vertebrata			Eukaryota	Batoidea	V3167-02
upon | cable | nil	transect	Liponema brevicornis	303.8	3167	01:28:56:20	 	36.827744	-122.16837	2388874	1.09	01:41.0	Ventana	34.163	01:30:47:29	6.964	Anthozoa	Liponematidae	Liponema			Animalia	Actiniaria	Cnidaria	Liponema brevicornis	Hexacorallia			Nyantheae				Eukaryota		V3167-02
upon | cable | nil	transect	Stomphia	303.8	3167	01:28:56:20	 	36.827744	-122.16837	2388878	1.09	01:41.0	Ventana	34.163	01:30:47:29	6.964	Anthozoa	Actinostolidae	Stomphia			Animalia	Actiniaria	Cnidaria		Hexacorallia			Nyantheae				Eukaryota		V3167-02
upon | cable | nil	transect	Liponema brevicornis	303.68	3167	01:29:02:20	 	36.827766	-122.16836	2388908	1.09	01:47.0	Ventana	34.163	01:30:54:02	6.964	Anthozoa	Liponematidae	Liponema			Animalia	Actiniaria	Cnidaria	Liponema brevicornis	Hexacorallia			Nyantheae				Eukaryota		V3167-02
upon | cable | nil	transect	Liponema brevicornis	303.68	3167	01:29:02:20	 	36.827766	-122.16836	2388909	1.09	01:47.0	Ventana	34.163	01:30:54:02	6.964	Anthozoa	Liponematidae	Liponema			Animalia	Actiniaria	Cnidaria	Liponema brevicornis	Hexacorallia			Nyantheae				Eukaryota		V3167-02
upon | cable | nil	transect	Liponema brevicornis	303.28	3167	01:29:14:19	 	36.827816	-122.168335	2388944	1.12	01:59.0	Ventana	34.159	01:31:06:10	7.03	Anthozoa	Liponematidae	Liponema			Animalia	Actiniaria	Cnidaria	Liponema brevicornis	Hexacorallia			Nyantheae				Eukaryota		V3167-02
comment | self | start Skate-1B transect (on cable)	endtransect	object	302.72	3167	01:30:03:03	 	36.827972	-122.16821	2389059	1.1	02:47.0	Ventana	34.164	01:31:53:20	6.965																			V3167-02
population-quantity | self | 999	cruise	Allocentrotus fragilis	302.67	3167	01:30:09:03	 	36.82798	-122.1682	2389448	1.1	02:54.0	Ventana	34.164	01:32:00:22	6.961	Echinoidea	Strongylocentrotidae	Allocentrotus			Animalia	Echinoida	Echinodermata	Allocentrotus fragilis	Euechinoidea			Echinacea				Eukaryota		V3167-02
population-quantity | self | 999	cruise	Parastichopus leukothele	302.57	3167	01:30:43:01	 	36.827995	-122.1681	2389465	1.09	03:28.0	Ventana	34.163	01:32:33:24	6.958	Holothuroidea	Stichopodidae	Parastichopus			Animalia	Aspidochirotida	Echinodermata	Parastichopus leukothele	Aspidochirotacea							Eukaryota		V3167-02
population-quantity | self | 999	cruise	Allocentrotus fragilis	303.79	3167	01:31:35:15	 	36.82791	-122.16786	2389489	1.08	04:20.0	Ventana	34.165	01:33:27:07	6.94	Echinoidea	Strongylocentrotidae	Allocentrotus			Animalia	Echinoida	Echinodermata	Allocentrotus fragilis	Euechinoidea			Echinacea				Eukaryota		V3167-02
population-quantity | self | 999	cruise	Rathbunaster californicus	305.14	3167	01:31:47:14	 	36.827885	-122.16781	2389497	1.08	04:32.0	Ventana	34.165	01:33:39:09	6.936		Labidiasteridae	Rathbunaster			Animalia	Forcipulatida	Echinodermata	Rathbunaster californicus	Asteroidea							Eukaryota		V3167-02
"population-density | self | dense, population-quantity | self | 999"	cruise	Allocentrotus fragilis	306.7	3167	01:31:57:14	 	36.82786	-122.16776	2389504	1.08	04:42.0	Ventana	34.165	01:33:49:19	6.934	Echinoidea	Strongylocentrotidae	Allocentrotus			Animalia	Echinoida	Echinodermata	Allocentrotus fragilis	Euechinoidea			Echinacea				Eukaryota		V3167-02
population-quantity | self | 999	cruise	Sebastes	307.79	3167	01:32:09:14	 	36.82784	-122.16772	2389512	1.08	04:54.0	Ventana	34.166	01:34:01:12	6.93	Osteichthyes	Scorpaenidae	Sebastes	Neopterygii		Animalia	Scorpaeniformes	Chordata		Actinopterygii			Scorpaenoidei	Vertebrata	Gnathostomata		Eukaryota	Acanthopterygii	V3167-02
population-quantity | self | 999	cruise	Rathbunaster californicus	308.05	3167	01:32:11:14	 	36.82783	-122.16771	2389514	1.08	04:56.0	Ventana	34.166	01:34:02:23	6.93		Labidiasteridae	Rathbunaster			Animalia	Forcipulatida	Echinodermata	Rathbunaster californicus	Asteroidea							Eukaryota		V3167-02
population-quantity | self | 999	cruise	Sebastes	309.04	3167	01:32:21:13	 	36.82781	-122.16768	2389520	1.08	05:06.0	Ventana	34.166	01:34:12:23	6.93	Osteichthyes	Scorpaenidae	Sebastes	Neopterygii		Animalia	Scorpaeniformes	Chordata		Actinopterygii			Scorpaenoidei	Vertebrata	Gnathostomata		Eukaryota	Acanthopterygii	V3167-02
population-quantity | self | 999	cruise	Rathbunaster californicus	308.81	3167	01:32:25:13	 	36.8278	-122.16767	2389522	1.08	05:10.0	Ventana	34.165	01:34:16:05	6.929		Labidiasteridae	Rathbunaster			Animalia	Forcipulatida	Echinodermata	Rathbunaster californicus	Asteroidea							Eukaryota		V3167-02
population-quantity | self | 2	cruise	Hydrolagus colliei	308.78	3167	01:32:51:12	 	36.827736	-122.16764	2389535	1.08	05:36.0	Ventana	34.165	01:34:43:04	6.93	Chondrichthyes	Chimaeridae	Hydrolagus			Animalia	Chimaeriformes	Chordata	Hydrolagus colliei	Holocephali			Chimaeroidei	Vertebrata			Eukaryota	Holocephalimorpha	V3167-02
population-quantity | self | 999	cruise	Raja rhina	304.31	3167	01:40:03:15	http://search.mbari.org/ARCHIVE/frameGrabs/Ventana/images/3167/01_41_55_22.jpg	36.827503	-122.16851	20024010	1.08	12:49.0	Ventana	34.164	01:41:55:22	6.941	Chondrichthyes	Rajidae	Raja			Animalia	Rajiformes	Chordata	Raja rhina	Elasmobranchii				Vertebrata			Eukaryota	Batoidea	V3167-02
population-quantity | self | 999	cruise	Raja rhina	304.84	3167	01:40:11:14	http://search.mbari.org/ARCHIVE/frameGrabs/Ventana/images/3167/01_42_01_22.jpg	36.82753	-122.1685	20024011	1.08	12:57.0	Ventana	34.163	01:42:01:22	6.945	Chondrichthyes	Rajidae	Raja			Animalia	Rajiformes	Chordata	Raja rhina	Elasmobranchii				Vertebrata			Eukaryota	Batoidea	V3167-02
population-quantity | self | 999	cruise	Raja rhina	303.77	3167	01:40:21:14	http://search.mbari.org/ARCHIVE/frameGrabs/Ventana/images/3167/01_42_12_22.jpg	36.827564	-122.168495	20024012	1.08	13:07.0	Ventana	34.163	01:42:12:22	6.945	Chondrichthyes	Rajidae	Raja			Animalia	Rajiformes	Chordata	Raja rhina	Elasmobranchii				Vertebrata			Eukaryota	Batoidea	V3167-02
population-quantity | self | 999	cruise	Raja rhina	303.55	3167	01:40:27:14	http://search.mbari.org/ARCHIVE/frameGrabs/Ventana/images/3167/01_42_19_21.jpg	36.82758	-122.168495	20024013	1.09	13:13.0	Ventana	34.164	01:42:19:21	7.008	Chondrichthyes	Rajidae	Raja			Animalia	Rajiformes	Chordata	Raja rhina	Elasmobranchii				Vertebrata			Eukaryota	Batoidea	V3167-02
population-quantity | self | 999	cruise	Raja rhina	303.85	3167	01:40:39:28	http://search.mbari.org/ARCHIVE/frameGrabs/Ventana/images/3167/01_42_30_06.jpg	36.8276	-122.168495	20024014	1.15	13:25.0	Ventana	34.156	01:42:30:06	7.079	Chondrichthyes	Rajidae	Raja			Animalia	Rajiformes	Chordata	Raja rhina	Elasmobranchii				Vertebrata			Eukaryota	Batoidea	V3167-02
population-quantity | self | 999	cruise	Raja rhina	303.64	3167	01:41:17:28	http://search.mbari.org/ARCHIVE/frameGrabs/Ventana/images/3167/01_43_08_20.jpg	36.827633	-122.16845	20024016	1.16	14:03.0	Ventana	34.158	01:43:08:20	7.088	Chondrichthyes	Rajidae	Raja			Animalia	Rajiformes	Chordata	Raja rhina	Elasmobranchii				Vertebrata			Eukaryota	Batoidea	V3167-02
population-quantity | self | 999	cruise	Raja rhina	302.91	3167	01:41:25:28	http://search.mbari.org/ARCHIVE/frameGrabs/Ventana/images/3167/01_43_16_20.jpg	36.827637	-122.16843	20024017	1.17	14:11.0	Ventana	34.156	01:43:16:20	7.105	Chondrichthyes	Rajidae	Raja			Animalia	Rajiformes	Chordata	Raja rhina	Elasmobranchii				Vertebrata			Eukaryota	Batoidea	V3167-02
population-quantity | self | 999	cruise	Raja rhina	302.15	3167	01:41:33:27	http://search.mbari.org/ARCHIVE/frameGrabs/Ventana/images/3167/01_43_25_20.jpg	36.827637	-122.16841	20024018	1.17	14:19.0	Ventana	34.156	01:43:25:20	7.105	Chondrichthyes	Rajidae	Raja			Animalia	Rajiformes	Chordata	Raja rhina	Elasmobranchii				Vertebrata			Eukaryota	Batoidea	V3167-02
population-quantity | self | 999	cruise	Raja rhina	304.19	3167	01:43:18:09	http://search.mbari.org/ARCHIVE/frameGrabs/Ventana/images/3167/01_45_09_01.jpg	36.827667	-122.168434	20024019	1.13	16:04.0	Ventana	34.16	01:45:09:01	7.064	Chondrichthyes	Rajidae	Raja			Animalia	Rajiformes	Chordata	Raja rhina	Elasmobranchii				Vertebrata			Eukaryota	Batoidea	V3167-02
identity-reference | self | 1	cruise	Hydrolagus colliei	304.49	3167	01:47:09:02	http://search.mbari.org/ARCHIVE/frameGrabs/Ventana/images/3167/01_49_00_24.jpg	36.828827	-122.16778	20024021	1.1	19:55.0	Ventana	34.163	01:49:00:24	6.993	Chondrichthyes	Chimaeridae	Hydrolagus			Animalia	Chimaeriformes	Chordata	Hydrolagus colliei	Holocephali			Chimaeroidei	Vertebrata			Eukaryota	Holocephalimorpha	V3167-02
"perspective | self | close-up, identity-reference | self | 1"	cruise	Hydrolagus colliei	304.26	3167	01:47:15:17	http://search.mbari.org/ARCHIVE/frameGrabs/Ventana/images/3167/01_49_05_24.jpg	36.828842	-122.16777	20024022	1.1	20:01.0	Ventana	34.163	01:49:05:24	6.993	Chondrichthyes	Chimaeridae	Hydrolagus			Animalia	Chimaeriformes	Chordata	Hydrolagus colliei	Holocephali			Chimaeroidei	Vertebrata			Eukaryota	Holocephalimorpha	V3167-02
population-quantity | self | 999	cruise	Rathbunaster californicus	309.5	3167	01:35:36:07	 	36.826843	-122.16803	2390733	1.09	08:21.0	Ventana	34.164	01:37:27:15	6.953		Labidiasteridae	Rathbunaster			Animalia	Forcipulatida	Echinodermata	Rathbunaster californicus	Asteroidea							Eukaryota		V3167-02
population-quantity | self | 999	cruise	Allocentrotus fragilis	309	3167	01:36:14:21	 	36.82678	-122.16827	2390753	1.08	08:59.0	Ventana	34.166	01:38:05:18	6.926	Echinoidea	Strongylocentrotidae	Allocentrotus			Animalia	Echinoida	Echinodermata	Allocentrotus fragilis	Euechinoidea			Echinacea				Eukaryota		V3167-02
population-quantity | self | 999	cruise	Rathbunaster californicus	308.37	3167	01:36:26:21	 	36.826775	-122.16836	2390757	1.08	09:11.0	Ventana	34.166	01:38:18:00	6.928		Labidiasteridae	Rathbunaster			Animalia	Forcipulatida	Echinodermata	Rathbunaster californicus	Asteroidea							Eukaryota		V3167-02
population-quantity | self | 999	cruise	Parastichopus leukothele	307.17	3167	01:38:05:03	 	36.82692	-122.16879	2390776	1.08	10:50.0	Ventana	34.165	01:39:55:13	6.93	Holothuroidea	Stichopodidae	Parastichopus			Animalia	Aspidochirotida	Echinodermata	Parastichopus leukothele	Aspidochirotacea							Eukaryota		V3167-02
population-quantity | self | 999	cruise	Allocentrotus fragilis	307.02	3167	01:38:07:03	 	36.826927	-122.16879	2390777	1.08	10:52.0	Ventana	34.165	01:39:57:17	6.93	Echinoidea	Strongylocentrotidae	Allocentrotus			Animalia	Echinoida	Echinodermata	Allocentrotus fragilis	Euechinoidea			Echinacea				Eukaryota		V3167-02
population-quantity | self | 999	cruise	Allocentrotus fragilis	306.69	3167	01:38:21:02	 	36.826992	-122.16878	2390782	1.1	11:06.0	Ventana	34.153	01:40:12:20	7.045	Echinoidea	Strongylocentrotidae	Allocentrotus			Animalia	Echinoida	Echinodermata	Allocentrotus fragilis	Euechinoidea			Echinacea				Eukaryota		V3167-02
population-quantity | self | 999	cruise	Allocentrotus fragilis	306.42	3167	01:38:31:02	 	36.827038	-122.168755	2390784	1.13	11:16.0	Ventana	34.165	01:40:21:19	6.964	Echinoidea	Strongylocentrotidae	Allocentrotus			Animalia	Echinoida	Echinodermata	Allocentrotus fragilis	Euechinoidea			Echinacea				Eukaryota		V3167-02
population-quantity | self | 999	cruise	Sebastes	305.3	3167	01:39:07:01	 	36.827225	-122.16865	2390799	1.09	11:52.0	Ventana	34.164	01:40:59:07	6.952	Osteichthyes	Scorpaenidae	Sebastes	Neopterygii		Animalia	Scorpaeniformes	Chordata		Actinopterygii			Scorpaenoidei	Vertebrata	Gnathostomata		Eukaryota	Acanthopterygii	V3167-02
population-quantity | self | 999	cruise	Sebastes	305.11	3167	01:39:13:01	 	36.827255	-122.16863	2390804	1.09	11:58.0	Ventana	34.164	01:41:04:13	6.953	Osteichthyes	Scorpaenidae	Sebastes	Neopterygii		Animalia	Scorpaeniformes	Chordata		Actinopterygii			Scorpaenoidei	Vertebrata	Gnathostomata		Eukaryota	Acanthopterygii	V3167-02
population-quantity | self | 999	cruise	Allocentrotus fragilis	305.23	3167	01:39:19:01	 	36.8273	-122.16861	2390806	1.09	12:04.0	Ventana	34.164	01:41:10:17	6.953	Echinoidea	Strongylocentrotidae	Allocentrotus			Animalia	Echinoida	Echinodermata	Allocentrotus fragilis	Euechinoidea			Echinacea				Eukaryota		V3167-02
population-quantity | self | 999	cruise	Sebastes	305.18	3167	01:39:33:15	 	36.827366	-122.16857	2390814	1.08	12:18.0	Ventana	34.165	01:41:24:23	6.94	Osteichthyes	Scorpaenidae	Sebastes	Neopterygii		Animalia	Scorpaeniformes	Chordata		Actinopterygii			Scorpaenoidei	Vertebrata	Gnathostomata		Eukaryota	Acanthopterygii	V3167-02
population-quantity | self | 999	cruise	Raja rhina	305.13	3167	01:39:51:15	 	36.827457	-122.168526	2390824	1.08	12:37.0	Ventana	34.165	01:41:43:10	6.941	Chondrichthyes	Rajidae	Raja			Animalia	Rajiformes	Chordata	Raja rhina	Elasmobranchii				Vertebrata			Eukaryota	Batoidea	V3167-02
upon | cable | nil	cruise	Florometra serratissima	304.31	3167	01:40:03:15	 	36.827503	-122.16851	2390829	1.08	12:49.0	Ventana	34.164	01:41:54:24	6.941	Crinoidea	Antedonidae	Florometra			Animalia	Comatulidina	Echinodermata	Florometra serratissima							Antedonacea	Eukaryota		V3167-02
population-quantity | self | 999	cruise	Raja rhina	301.24	3167	01:41:41:27	 	36.82764	-122.1684	2390859	1.17	14:27.0	Ventana	34.156	01:43:34:02	7.072	Chondrichthyes	Rajidae	Raja			Animalia	Rajiformes	Chordata	Raja rhina	Elasmobranchii				Vertebrata			Eukaryota	Batoidea	V3167-02
population-quantity | self | 999	cruise	Allocentrotus fragilis	302.23	3167	01:41:47:27	 	36.827644	-122.168396	2390861	1.17	14:33.0	Ventana	34.156	01:43:38:14	7.072	Echinoidea	Strongylocentrotidae	Allocentrotus			Animalia	Echinoida	Echinodermata	Allocentrotus fragilis	Euechinoidea			Echinacea				Eukaryota		V3167-02
population-quantity | self | 999	cruise	Sebastes	304.28	3167	01:43:10:09	 	36.82766	-122.16844	2390870	1.13	15:56.0	Ventana	34.16	01:45:01:05	7.064	Osteichthyes	Scorpaenidae	Sebastes	Neopterygii		Animalia	Scorpaeniformes	Chordata		Actinopterygii			Scorpaenoidei	Vertebrata	Gnathostomata		Eukaryota	Acanthopterygii	V3167-02
population-quantity | self | 999	cruise	Raja rhina	302.26	3167	01:43:40:08	 	36.8277	-122.168396	2390871	1.14	16:26.0	Ventana	34.159	01:45:31:20	7.04	Chondrichthyes	Rajidae	Raja			Animalia	Rajiformes	Chordata	Raja rhina	Elasmobranchii				Vertebrata			Eukaryota	Batoidea	V3167-02
population-quantity | self | 999	cruise	Raja rhina	302.5	3167	01:44:06:23	 	36.827805	-122.168335	2390873	1.14	16:52.0	Ventana	34.162	01:45:57:26	7.029	Chondrichthyes	Rajidae	Raja			Animalia	Rajiformes	Chordata	Raja rhina	Elasmobranchii				Vertebrata			Eukaryota	Batoidea	V3167-02
population-quantity | self | 999	cruise	Allocentrotus fragilis	302.45	3167	01:44:20:22	 	36.82789	-122.16829	2390875	1.11	17:06.0	Ventana	34.161	01:46:12:18	6.984	Echinoidea	Strongylocentrotidae	Allocentrotus			Animalia	Echinoida	Echinodermata	Allocentrotus fragilis	Euechinoidea			Echinacea				Eukaryota		V3167-02
population-quantity | self | 999	cruise	Allocentrotus fragilis	302.34	3167	01:44:32:21	 	36.827953	-122.16825	2390878	1.12	17:18.0	Ventana	34.16	01:46:24:25	7.035	Echinoidea	Strongylocentrotidae	Allocentrotus			Animalia	Echinoida	Echinodermata	Allocentrotus fragilis	Euechinoidea			Echinacea				Eukaryota		V3167-02
population-quantity | self | 999	cruise	Sebastes	302.64	3167	01:45:14:20	 	36.828205	-122.16811	2390882	1.12	18:00.0	Ventana	34.16	01:47:07:00	7.019	Osteichthyes	Scorpaenidae	Sebastes	Neopterygii		Animalia	Scorpaeniformes	Chordata		Actinopterygii			Scorpaenoidei	Vertebrata	Gnathostomata		Eukaryota	Acanthopterygii	V3167-02
population-quantity | self | 999	cruise	Parastichopus leukothele	302.73	3167	01:45:26:20	 	36.82828	-122.168076	2390885	1.13	18:12.0	Ventana	34.16	01:47:18:28	7.035	Holothuroidea	Stichopodidae	Parastichopus			Animalia	Aspidochirotida	Echinodermata	Parastichopus leukothele	Aspidochirotacea							Eukaryota		V3167-02
population-quantity | self | 999	cruise	Allocentrotus fragilis	302.61	3167	01:45:39:04	 	36.828365	-122.16803	2390886	1.12	18:24.0	Ventana	34.162	01:47:30:19	6.993	Echinoidea	Strongylocentrotidae	Allocentrotus			Animalia	Echinoida	Echinodermata	Allocentrotus fragilis	Euechinoidea			Echinacea				Eukaryota		V3167-02
population-quantity | self | 999	cruise	Sebastes	302.76	3167	01:46:01:04	 	36.828503	-122.16795	2390891	1.1	18:46.0	Ventana	34.163	01:47:52:15	6.962	Osteichthyes	Scorpaenidae	Sebastes	Neopterygii		Animalia	Scorpaeniformes	Chordata		Actinopterygii			Scorpaenoidei	Vertebrata	Gnathostomata		Eukaryota	Acanthopterygii	V3167-02
population-quantity | self | 999	cruise	Allocentrotus fragilis	302.75	3167	01:46:03:04	 	36.828514	-122.167946	2390892	1.1	18:48.0	Ventana	34.163	01:47:54:14	6.962	Echinoidea	Strongylocentrotidae	Allocentrotus			Animalia	Echinoida	Echinodermata	Allocentrotus fragilis	Euechinoidea			Echinacea				Eukaryota		V3167-02
population-quantity | self | 999	cruise	Parastichopus leukothele	303.96	3167	01:46:47:02	 	36.828743	-122.167816	2390902	1.1	19:33.0	Ventana	34.162	01:48:38:06	6.984	Holothuroidea	Stichopodidae	Parastichopus			Animalia	Aspidochirotida	Echinodermata	Parastichopus leukothele	Aspidochirotacea							Eukaryota		V3167-02
population-quantity | self | 999	cruise	Sebastes	304.75	3167	01:46:59:02	 	36.828793	-122.16779	2390904	1.1	19:45.0	Ventana	34.164	01:48:50:03	6.967	Osteichthyes	Scorpaenidae	Sebastes	Neopterygii		Animalia	Scorpaeniformes	Chordata		Actinopterygii			Scorpaenoidei	Vertebrata	Gnathostomata		Eukaryota	Acanthopterygii	V3167-02
identity-reference | self | 1	cruise	Hydrolagus colliei	304.49	3167	01:46:55:02	 	36.828777	-122.1678	2390903	1.1	19:41.0	Ventana	34.164	01:48:47:24	6.967	Chondrichthyes	Chimaeridae	Hydrolagus			Animalia	Chimaeriformes	Chordata	Hydrolagus colliei	Holocephali			Chimaeroidei	Vertebrata			Eukaryota	Holocephalimorpha	V3167-02
population-quantity | self | 999	cruise	Sebastes	304.99	3167	01:47:45:16	 	36.828922	-122.167725	2390905	1.12	20:31.0	Ventana	34.163	01:49:36:25	6.968	Osteichthyes	Scorpaenidae	Sebastes	Neopterygii		Animalia	Scorpaeniformes	Chordata		Actinopterygii			Scorpaenoidei	Vertebrata	Gnathostomata		Eukaryota	Acanthopterygii	V3167-02
upon | cable | nil	cruise	Liponema brevicornis	305	3167	01:47:51:16	 	36.82894	-122.16771	2390906	1.12	20:37.0	Ventana	34.163	01:49:42:14	6.968	Anthozoa	Liponematidae	Liponema			Animalia	Actiniaria	Cnidaria	Liponema brevicornis	Hexacorallia			Nyantheae				Eukaryota		V3167-02
population-quantity | self | 999	cruise	Sebastes	305.17	3167	01:48:03:15	 	36.82898	-122.16769	2390907	1.1	20:49.0	Ventana	34.165	01:49:54:07	6.959	Osteichthyes	Scorpaenidae	Sebastes	Neopterygii		Animalia	Scorpaeniformes	Chordata		Actinopterygii			Scorpaenoidei	Vertebrata	Gnathostomata		Eukaryota	Acanthopterygii	V3167-02
population-quantity | self | 999	cruise	Sebastes	305.35	3167	01:48:17:15	 	36.829033	-122.167656	2390909	1.1	21:03.0	Ventana	34.162	01:50:10:04	6.98	Osteichthyes	Scorpaenidae	Sebastes	Neopterygii		Animalia	Scorpaeniformes	Chordata		Actinopterygii			Scorpaenoidei	Vertebrata	Gnathostomata		Eukaryota	Acanthopterygii	V3167-02
population-quantity | self | 999	cruise	Rathbunaster californicus	305.5	3167	01:48:21:14	 	36.82905	-122.16765	2390910	1.1	21:07.0	Ventana	34.162	01:50:13:21	6.98		Labidiasteridae	Rathbunaster			Animalia	Forcipulatida	Echinodermata	Rathbunaster californicus	Asteroidea							Eukaryota		V3167-02
population-density | self | dense	cruise	Merluccius productus	343.37	3167	00:01:02:01	http://search.mbari.org/ARCHIVE/frameGrabs/Ventana/images/3167/00_02_58_12.jpg	36.82002	-122.17139	20023931	1.11	33:20.0	Ventana	34.16	00:02:58:12	6.924	Osteichthyes	Merlucciidae	Merluccius	Neopterygii		Animalia	Gadiformes	Chordata	Merluccius productus	Actinopterygii				Vertebrata	Gnathostomata		Eukaryota	Paracanthopterygii	V3167-01
"comment | self | cable minor suspension, habitat | self | flat mud, life-stage | self | juvenile"	cruise	Raja rhina	341.03	3167	00:04:20:26	http://search.mbari.org/ARCHIVE/frameGrabs/Ventana/images/3167/00_06_16_06.jpg	36.820576	-122.17126	20023934	1.1	36:39.0	Ventana	34.161	00:06:16:06	6.926	Chondrichthyes	Rajidae	Raja			Animalia	Rajiformes	Chordata	Raja rhina	Elasmobranchii				Vertebrata			Eukaryota	Batoidea	V3167-01
"comment | self | cable upon seafloor, identity-gender | self | male, habitat | self | flat mud"	cruise	Raja rhina	325.03	3167	00:14:09:07	http://search.mbari.org/ARCHIVE/frameGrabs/Ventana/images/3167/00_16_04_17.jpg	36.82364	-122.1704	20023939	1.12	46:28.0	Ventana	34.16	00:16:04:17	6.976	Chondrichthyes	Rajidae	Raja			Animalia	Rajiformes	Chordata	Raja rhina	Elasmobranchii				Vertebrata			Eukaryota	Batoidea	V3167-01
"identity-gender | self | female, comment | self | cable taut upon seafloor, habitat | self | flat mud"	cruise	Raja rhina	323.14	3167	00:15:31:19	http://search.mbari.org/ARCHIVE/frameGrabs/Ventana/images/3167/00_17_27_15.jpg	36.82404	-122.170235	20023942	1.11	47:51.0	Ventana	34.16	00:17:27:15	6.979	Chondrichthyes	Rajidae	Raja			Animalia	Rajiformes	Chordata	Raja rhina	Elasmobranchii				Vertebrata			Eukaryota	Batoidea	V3167-01
"population-density | self | dense, upon | Laminariales | nil"	cruise	Allocentrotus fragilis	322.89	3167	00:15:37:19	http://search.mbari.org/ARCHIVE/frameGrabs/Ventana/images/3167/00_17_34_00.jpg	36.824066	-122.17023	20023943	1.12	47:57.0	Ventana	34.16	00:17:34:00	6.984	Echinoidea	Strongylocentrotidae	Allocentrotus			Animalia	Echinoida	Echinodermata	Allocentrotus fragilis	Euechinoidea			Echinacea				Eukaryota		V3167-01
calibrated | self | 0	launch	lasers	 	3167	 	http://search.mbari.org/ARCHIVE/frameGrabs/Ventana/images/3167/00_00_30_11.jpg	 	 	2459523	 	 	Ventana	 	00:00:30:11	 																			V3167-01
calibrated | self | 0	launch	lasers	 	3167	 	http://search.mbari.org/ARCHIVE/frameGrabs/Ventana/images/3167/00_01_00_07.jpg	 	 	2459535	 	 	Ventana	 	00:01:00:07	 																			V3167-01
population-density | self | dense	cruise	Merluccius productus	342.72	3167	00:00:28:02	 	36.820076	-122.171326	2459543	1.12	32:46.0	Ventana	34.161	00:02:24:19	6.932	Osteichthyes	Merlucciidae	Merluccius	Neopterygii		Animalia	Gadiformes	Chordata	Merluccius productus	Actinopterygii				Vertebrata	Gnathostomata		Eukaryota	Paracanthopterygii	V3167-01
population-density | self | dense	cruise	cable	343.62	3167	00:00:34:02	http://search.mbari.org/ARCHIVE/frameGrabs/Ventana/images/3167/00_02_30_13.jpg	36.820076	-122.17134	20023930	1.12	32:52.0	Ventana	34.161	00:02:30:13	6.932																			V3167-01
population-density | self | dense	cruise	cable	345.51	3167	00:01:38:15	 	36.819916	-122.17141	2459551	1.11	33:57.0	Ventana	34.162	00:03:35:00	6.928																			V3167-01
population-quantity | self | 999	cruise	Merluccius productus	346.1	3167	00:02:08:14	 	36.819935	-122.17145	2459553	1.1	34:27.0	Ventana	34.162	00:04:04:28	6.923	Osteichthyes	Merlucciidae	Merluccius	Neopterygii		Animalia	Gadiformes	Chordata	Merluccius productus	Actinopterygii				Vertebrata	Gnathostomata		Eukaryota	Paracanthopterygii	V3167-01
population-quantity | self | 999	cruise	Rathbunaster californicus	345.86	3167	00:02:16:14	http://search.mbari.org/ARCHIVE/frameGrabs/Ventana/images/3167/00_04_12_14.jpg	36.81995	-122.171455	2459556	1.1	34:35.0	Ventana	34.162	00:04:12:14	6.923		Labidiasteridae	Rathbunaster			Animalia	Forcipulatida	Echinodermata	Rathbunaster californicus	Asteroidea							Eukaryota		V3167-01
population-quantity | self | 999	cruise	Sebastes diploproa	345.49	3167	00:02:24:14	 	36.819973	-122.171455	2459557	1.1	34:43.0	Ventana	34.16	00:04:21:04	6.925	Osteichthyes	Scorpaenidae	Sebastes	Neopterygii		Animalia	Scorpaeniformes	Chordata	Sebastes diploproa	Actinopterygii			Scorpaenoidei	Vertebrata	Gnathostomata		Eukaryota	Acanthopterygii	V3167-01
population-density | self | dense	cruise	Merluccius productus	344.73	3167	00:02:36:13	 	36.82002	-122.17145	2459558	1.1	34:55.0	Ventana	34.16	00:04:32:08	6.927	Osteichthyes	Merlucciidae	Merluccius	Neopterygii		Animalia	Gadiformes	Chordata	Merluccius productus	Actinopterygii				Vertebrata	Gnathostomata		Eukaryota	Paracanthopterygii	V3167-01
population-quantity | self | 999	cruise	Rathbunaster californicus	343.89	3167	00:02:44:13	 	36.820053	-122.17144	2459559	1.1	35:03.0	Ventana	34.16	00:04:41:06	6.927		Labidiasteridae	Rathbunaster			Animalia	Forcipulatida	Echinodermata	Rathbunaster californicus	Asteroidea							Eukaryota		V3167-01
population-quantity | self | 999	cruise	Merluccius productus	342.57	3167	00:03:18:27	 	36.82023	-122.17139	2459561	1.1	35:37.0	Ventana	34.163	00:05:14:26	6.916	Osteichthyes	Merlucciidae	Merluccius	Neopterygii		Animalia	Gadiformes	Chordata	Merluccius productus	Actinopterygii				Vertebrata	Gnathostomata		Eukaryota	Paracanthopterygii	V3167-01
population-quantity | self | 999	cruise	Rathbunaster californicus	342.43	3167	00:03:26:27	 	36.820274	-122.17137	2459562	1.1	35:45.0	Ventana	34.161	00:05:22:25	6.919		Labidiasteridae	Rathbunaster			Animalia	Forcipulatida	Echinodermata	Rathbunaster californicus	Asteroidea							Eukaryota		V3167-01
identity-certainty | self | maybe	cruise	Bothrocara brunneum	342.28	3167	00:03:48:26	http://search.mbari.org/ARCHIVE/frameGrabs/Ventana/images/3167/00_05_44_15.jpg	36.8204	-122.17132	2459565	1.1	36:07.0	Ventana	34.162	00:05:44:15	6.917	Osteichthyes	Zoarcidae	Bothrocara	Neopterygii		Animalia	Perciformes	Chordata	Bothrocara brunneum	Actinopterygii			Zoarcoidei	Vertebrata	Gnathostomata		Eukaryota	Acanthopterygii	V3167-01
population-quantity | self | 999	cruise	Rathbunaster californicus	341.87	3167	00:03:54:26	 	36.820435	-122.17131	2459567	1.1	36:13.0	Ventana	34.16	00:05:50:05	6.938		Labidiasteridae	Rathbunaster			Animalia	Forcipulatida	Echinodermata	Rathbunaster californicus	Asteroidea							Eukaryota		V3167-01
identity-reference | self | start: minor cable span	cruise	cable	341	3167	00:04:22:25	 	36.820587	-122.17126	2459574	1.1	36:41.0	Ventana	34.161	00:06:19:12	6.926																			V3167-01
"upon | cable | nil, population-quantity | self | 999"	cruise	Florometra serratissima	340.73	3167	00:04:28:25	 	36.820618	-122.17125	2459582	1.1	36:47.0	Ventana	34.161	00:06:25:24	6.926	Crinoidea	Antedonidae	Florometra			Animalia	Comatulidina	Echinodermata	Florometra serratissima							Antedonacea	Eukaryota		V3167-01
population-quantity | self | 999	cruise	Allocentrotus fragilis	340.01	3167	00:04:46:25	 	36.820713	-122.17123	2459590	1.1	37:05.0	Ventana	34.161	00:06:42:22	6.936	Echinoidea	Strongylocentrotidae	Allocentrotus			Animalia	Echinoida	Echinodermata	Allocentrotus fragilis	Euechinoidea			Echinacea				Eukaryota		V3167-01
population-quantity | self | 999	cruise	Rathbunaster californicus	340.01	3167	00:04:46:25	 	36.820713	-122.17123	2459592	1.1	37:05.0	Ventana	34.161	00:06:42:22	6.936		Labidiasteridae	Rathbunaster			Animalia	Forcipulatida	Echinodermata	Rathbunaster californicus	Asteroidea							Eukaryota		V3167-01
"comment | self | cable minor suspension, habitat | self | flat mud, life-stage | self | juvenile"	cruise	Raja rhina	340.65	3167	00:04:38:25	http://search.mbari.org/ARCHIVE/frameGrabs/Ventana/images/3167/00_06_36_00.jpg	36.82067	-122.171234	2459611	1.1	36:57.0	Ventana	34.161	00:06:36:00	6.936	Chondrichthyes	Rajidae	Raja			Animalia	Rajiformes	Chordata	Raja rhina	Elasmobranchii				Vertebrata			Eukaryota	Batoidea	V3167-01
population-quantity | self | 999	cruise	Allocentrotus fragilis	340.34	3167	00:04:44:24	 	36.8207	-122.17123	2459614	1.1	37:03.0	Ventana	34.161	00:06:40:24	6.936	Echinoidea	Strongylocentrotidae	Allocentrotus			Animalia	Echinoida	Echinodermata	Allocentrotus fragilis	Euechinoidea			Echinacea				Eukaryota		V3167-01
population-quantity | self | 999	cruise	Rathbunaster californicus	339.83	3167	00:04:53:10	 	36.820747	-122.17122	2459616	1.11	37:11.0	Ventana	34.16	00:06:48:05	6.938		Labidiasteridae	Rathbunaster			Animalia	Forcipulatida	Echinodermata	Rathbunaster californicus	Asteroidea							Eukaryota		V3167-01
population-quantity | self | 999	cruise	Rathbunaster californicus	339.36	3167	00:05:05:09	 	36.820816	-122.17121	2462010	1.11	37:24.0	Ventana	34.16	00:07:01:10	6.939		Labidiasteridae	Rathbunaster			Animalia	Forcipulatida	Echinodermata	Rathbunaster californicus	Asteroidea							Eukaryota		V3167-01
identity-reference | self | start: minor cable span	cruise	cable	339.48	3167	00:05:03:09	 	36.820805	-122.17121	2462011	1.11	37:22.0	Ventana	34.16	00:06:59:26	6.938																			V3167-01
population-quantity | self | 999	cruise	Allocentrotus fragilis	339.22	3167	00:05:09:09	 	36.82084	-122.17121	2462012	1.11	37:28.0	Ventana	34.16	00:07:04:21	6.939	Echinoidea	Strongylocentrotidae	Allocentrotus			Animalia	Echinoida	Echinodermata	Allocentrotus fragilis	Euechinoidea			Echinacea				Eukaryota		V3167-01
identity-reference | self | end: minor cable span	cruise	cable	337.74	3167	00:05:43:08	 	36.82101	-122.17118	2462016	1.11	38:02.0	Ventana	34.162	00:07:39:09	6.943																			V3167-01
identity-reference | self | end: minor cable span	cruise	cable	340.67	3167	00:04:40:25	 	36.820683	-122.171234	2462018	1.1	36:59.0	Ventana	34.161	00:06:36:13	6.936																			V3167-01
population-quantity | self | 999	cruise	Rathbunaster californicus	337.26	3167	00:06:01:07	 	36.821114	-122.17116	2462022	1.11	38:20.0	Ventana	34.16	00:07:56:06	6.946		Labidiasteridae	Rathbunaster			Animalia	Forcipulatida	Echinodermata	Rathbunaster californicus	Asteroidea							Eukaryota		V3167-01
population-quantity | self | 999	cruise	Allocentrotus fragilis	337.18	3167	00:06:03:07	 	36.821125	-122.17116	2462023	1.11	38:22.0	Ventana	34.16	00:07:59:02	6.946	Echinoidea	Strongylocentrotidae	Allocentrotus			Animalia	Echinoida	Echinodermata	Allocentrotus fragilis	Euechinoidea			Echinacea				Eukaryota		V3167-01
population-quantity | self | 999	cruise	Rathbunaster californicus	336.31	3167	00:06:23:21	 	36.821236	-122.171135	2462027	1.11	38:42.0	Ventana	34.161	00:08:20:03	6.949		Labidiasteridae	Rathbunaster			Animalia	Forcipulatida	Echinodermata	Rathbunaster californicus	Asteroidea							Eukaryota		V3167-01
population-quantity | self | 999	cruise	Allocentrotus fragilis	335.93	3167	00:06:33:22	 	36.821293	-122.17112	2462030	1.11	38:52.0	Ventana	34.161	00:08:30:08	6.949	Echinoidea	Strongylocentrotidae	Allocentrotus			Animalia	Echinoida	Echinodermata	Allocentrotus fragilis	Euechinoidea			Echinacea				Eukaryota		V3167-01
"comment | self | cable upon seafloor, identity-gender | self | male, habitat | self | flat mud"	cruise	Raja rhina	335.7	3167	00:07:09:20	http://search.mbari.org/ARCHIVE/frameGrabs/Ventana/images/3167/00_09_06_15.jpg	36.821495	-122.17106	2462037	1.11	39:28.0	Ventana	34.161	00:09:06:15	6.954	Chondrichthyes	Rajidae	Raja			Animalia	Rajiformes	Chordata	Raja rhina	Elasmobranchii				Vertebrata			Eukaryota	Batoidea	V3167-01
population-quantity | self | 999	cruise	Rathbunaster californicus	335.53	3167	00:07:25:19	 	36.821587	-122.17102	2462098	1.11	39:44.0	Ventana	34.16	00:09:21:20	6.955		Labidiasteridae	Rathbunaster			Animalia	Forcipulatida	Echinodermata	Rathbunaster californicus	Asteroidea							Eukaryota		V3167-01
population-quantity | self | 999	cruise	Rathbunaster californicus	335.34	3167	00:07:39:19	 	36.821674	-122.17099	2462100	1.12	39:58.0	Ventana	34.159	00:09:36:26	6.967		Labidiasteridae	Rathbunaster			Animalia	Forcipulatida	Echinodermata	Rathbunaster californicus	Asteroidea							Eukaryota		V3167-01
population-quantity | self | 999	cruise	Rathbunaster californicus	335.18	3167	00:07:49:19	 	36.821728	-122.170975	2462102	1.11	40:08.0	Ventana	34.16	00:09:46:26	6.958		Labidiasteridae	Rathbunaster			Animalia	Forcipulatida	Echinodermata	Rathbunaster californicus	Asteroidea							Eukaryota		V3167-01
upon | cable | nil	cruise	Stomphia	334.23	3167	00:08:10:03	 	36.82184	-122.17094	2462105	1.12	40:28.0	Ventana	34.159	00:10:05:13	6.969	Anthozoa	Actinostolidae	Stomphia			Animalia	Actiniaria	Cnidaria		Hexacorallia			Nyantheae				Eukaryota		V3167-01
population-quantity | self | 999	cruise	Sebastes diploproa	334.09	3167	00:08:20:03	 	36.8219	-122.17091	2462107	1.12	40:39.0	Ventana	34.16	00:10:15:09	6.965	Osteichthyes	Scorpaenidae	Sebastes	Neopterygii		Animalia	Scorpaeniformes	Chordata	Sebastes diploproa	Actinopterygii			Scorpaenoidei	Vertebrata	Gnathostomata		Eukaryota	Acanthopterygii	V3167-01
population-quantity | self | 999	cruise	Allocentrotus fragilis	334.09	3167	00:08:20:03	 	36.8219	-122.17091	2462108	1.12	40:39.0	Ventana	34.16	00:10:15:09	6.965	Echinoidea	Strongylocentrotidae	Allocentrotus			Animalia	Echinoida	Echinodermata	Allocentrotus fragilis	Euechinoidea			Echinacea				Eukaryota		V3167-01
population-quantity | self | 999	cruise	Rathbunaster californicus	333.85	3167	00:08:30:03	 	36.821953	-122.1709	2462110	1.12	40:49.0	Ventana	34.16	00:10:25:26	6.965		Labidiasteridae	Rathbunaster			Animalia	Forcipulatida	Echinodermata	Rathbunaster californicus	Asteroidea							Eukaryota		V3167-01
population-quantity | self | 999	cruise	Liponema brevicornis	333.86	3167	00:08:34:03	 	36.82197	-122.17089	2462111	1.11	40:53.0	Ventana	34.161	00:10:29:29	6.959	Anthozoa	Liponematidae	Liponema			Animalia	Actiniaria	Cnidaria	Liponema brevicornis	Hexacorallia			Nyantheae				Eukaryota		V3167-01
population-quantity | self | 999	cruise	Rathbunaster californicus	333.55	3167	00:08:46:02	 	36.822037	-122.17086	2462114	1.11	41:05.0	Ventana	34.161	00:10:42:26	6.959		Labidiasteridae	Rathbunaster			Animalia	Forcipulatida	Echinodermata	Rathbunaster californicus	Asteroidea							Eukaryota		V3167-01
population-quantity | self | 999	cruise	Liponema brevicornis	333.16	3167	00:09:00:02	 	36.8221	-122.17083	2462117	1.12	41:19.0	Ventana	34.161	00:10:55:18	6.967	Anthozoa	Liponematidae	Liponema			Animalia	Actiniaria	Cnidaria	Liponema brevicornis	Hexacorallia			Nyantheae				Eukaryota		V3167-01
population-quantity | self | 999	cruise	Allocentrotus fragilis	332.23	3167	00:09:22:01	 	36.82221	-122.17078	2462126	1.11	41:41.0	Ventana	34.161	00:11:17:14	6.965	Echinoidea	Strongylocentrotidae	Allocentrotus			Animalia	Echinoida	Echinodermata	Allocentrotus fragilis	Euechinoidea			Echinacea				Eukaryota		V3167-01
population-quantity | self | 999	cruise	Allocentrotus fragilis	331.95	3167	00:09:30:01	 	36.822243	-122.17076	2462129	1.11	41:49.0	Ventana	34.161	00:11:25:18	6.965	Echinoidea	Strongylocentrotidae	Allocentrotus			Animalia	Echinoida	Echinodermata	Allocentrotus fragilis	Euechinoidea			Echinacea				Eukaryota		V3167-01
population-quantity | self | 999	cruise	Rathbunaster californicus	331.89	3167	00:09:32:01	 	36.82225	-122.17076	2462130	1.11	41:51.0	Ventana	34.161	00:11:28:24	6.965		Labidiasteridae	Rathbunaster			Animalia	Forcipulatida	Echinodermata	Rathbunaster californicus	Asteroidea							Eukaryota		V3167-01
population-quantity | self | 999	cruise	Sebastes diploproa	331.7	3167	00:09:40:15	 	36.82228	-122.170746	2462132	1.11	41:59.0	Ventana	34.162	00:11:36:15	6.948	Osteichthyes	Scorpaenidae	Sebastes	Neopterygii		Animalia	Scorpaeniformes	Chordata	Sebastes diploproa	Actinopterygii			Scorpaenoidei	Vertebrata	Gnathostomata		Eukaryota	Acanthopterygii	V3167-01
population-quantity | self | 999	cruise	Rathbunaster californicus	331.51	3167	00:09:48:16	 	36.82231	-122.17073	2462134	1.11	42:07.0	Ventana	34.162	00:11:43:25	6.948		Labidiasteridae	Rathbunaster			Animalia	Forcipulatida	Echinodermata	Rathbunaster californicus	Asteroidea							Eukaryota		V3167-01
population-quantity | self | 999	cruise	Stylasterias forreri	331.41	3167	00:09:52:15	 	36.822327	-122.17072	2462135	1.11	42:11.0	Ventana	34.162	00:11:48:28	6.96		Asteriidae	Stylasterias			Animalia	Forcipulatida	Echinodermata	Stylasterias forreri	Asteroidea							Eukaryota		V3167-01
population-quantity | self | 999	cruise	Rathbunaster californicus	331.11	3167	00:10:04:15	 	36.822372	-122.17071	2462139	1.11	42:23.0	Ventana	34.165	00:11:59:15	6.96		Labidiasteridae	Rathbunaster			Animalia	Forcipulatida	Echinodermata	Rathbunaster californicus	Asteroidea							Eukaryota		V3167-01
identity-reference | self | start: minor cable span	cruise	cable	330.61	3167	00:10:20:14	 	36.822433	-122.170685	2462145	1.11	42:39.0	Ventana	34.162	00:12:15:28	6.953																			V3167-01
population-quantity | self | 999	cruise	Rathbunaster californicus	330.41	3167	00:10:32:14	 	36.822483	-122.17067	2462149	1.11	42:51.0	Ventana	34.162	00:12:28:10	6.953		Labidiasteridae	Rathbunaster			Animalia	Forcipulatida	Echinodermata	Rathbunaster californicus	Asteroidea							Eukaryota		V3167-01
population-quantity | self | 999	cruise	Allocentrotus fragilis	330.29	3167	00:10:38:14	 	36.82251	-122.17066	2462151	1.09	42:57.0	Ventana	34.164	00:12:35:04	6.913	Echinoidea	Strongylocentrotidae	Allocentrotus			Animalia	Echinoida	Echinodermata	Allocentrotus fragilis	Euechinoidea			Echinacea				Eukaryota		V3167-01
identity-reference | self | end: minor cable span	cruise	cable	329.63	3167	00:10:56:13	 	36.8226	-122.17064	2462154	1.08	43:15.0	Ventana	34.163	00:12:53:17	6.914																			V3167-01
population-quantity | self | 999	cruise	Rathbunaster californicus	329.44	3167	00:11:02:13	 	36.82263	-122.17063	2462155	1.08	43:21.0	Ventana	34.163	00:12:58:24	6.914		Labidiasteridae	Rathbunaster			Animalia	Forcipulatida	Echinodermata	Rathbunaster californicus	Asteroidea							Eukaryota		V3167-01
"comment | self | cable taut upon seafloor, identity-gender | self | male, habitat | self | flat mud"	cruise	Bathyraja kincaidii	329.34	3167	00:11:06:13	http://search.mbari.org/ARCHIVE/frameGrabs/Ventana/images/3167/00_13_03_11.jpg	36.822655	-122.17062	2462157	1.1	43:25.0	Ventana	34.165	00:13:03:11	6.943	Chondrichthyes	Arhynchobatidae	Bathyraja			Animalia	Rajiformes	Chordata	Bathyraja kincaidii	Elasmobranchii				Vertebrata			Eukaryota	Batoidea	V3167-01
population-quantity | self | 999	cruise	Rathbunaster californicus	329.34	3167	00:11:06:13	http://search.mbari.org/ARCHIVE/frameGrabs/Ventana/images/3167/00_13_03_11.jpg	36.822655	-122.17062	2462160	1.1	43:25.0	Ventana	34.165	00:13:03:11	6.943		Labidiasteridae	Rathbunaster			Animalia	Forcipulatida	Echinodermata	Rathbunaster californicus	Asteroidea							Eukaryota		V3167-01
population-quantity | self | 999	cruise	Rathbunaster californicus	328.82	3167	00:11:20:13	 	36.82273	-122.17061	2462163	1.12	43:39.0	Ventana	34.16	00:13:17:07	6.993		Labidiasteridae	Rathbunaster			Animalia	Forcipulatida	Echinodermata	Rathbunaster californicus	Asteroidea							Eukaryota		V3167-01
population-quantity | self | 999	cruise	Allocentrotus fragilis	328.32	3167	00:11:34:27	 	36.82281	-122.170586	2462165	1.14	43:54.0	Ventana	34.157	00:13:30:18	7.009	Echinoidea	Strongylocentrotidae	Allocentrotus			Animalia	Echinoida	Echinodermata	Allocentrotus fragilis	Euechinoidea			Echinacea				Eukaryota		V3167-01
population-quantity | self | 999	cruise	Parastichopus leukothele	328.26	3167	00:11:38:27	 	36.822834	-122.17058	2462166	1.14	43:58.0	Ventana	34.157	00:13:33:22	7.009	Holothuroidea	Stichopodidae	Parastichopus			Animalia	Aspidochirotida	Echinodermata	Parastichopus leukothele	Aspidochirotacea							Eukaryota		V3167-01
population-quantity | self | 999	cruise	Rathbunaster californicus	328.12	3167	00:11:44:27	 	36.822865	-122.17057	2462167	1.14	44:04.0	Ventana	34.157	00:13:40:03	7.009		Labidiasteridae	Rathbunaster			Animalia	Forcipulatida	Echinodermata	Rathbunaster californicus	Asteroidea							Eukaryota		V3167-01
population-quantity | self | 999	cruise	Rathbunaster californicus	327.64	3167	00:12:30:25	 	36.823105	-122.17053	2462174	1.13	44:50.0	Ventana	34.156	00:14:26:10	7.021		Labidiasteridae	Rathbunaster			Animalia	Forcipulatida	Echinodermata	Rathbunaster californicus	Asteroidea							Eukaryota		V3167-01
identity-reference | self | start: minor cable span	cruise	cable	327.68	3167	00:12:24:26	 	36.823074	-122.17054	2462176	1.13	44:44.0	Ventana	34.156	00:14:21:08	7.021																			V3167-01
identity-reference | self | end: minor cable span	cruise	cable	327.14	3167	00:12:59:09	 	36.823254	-122.1705	2462182	1.13	45:18.0	Ventana	34.159	00:14:55:22	6.999																			V3167-01
population-quantity | self | 999	cruise	Rathbunaster californicus	326.33	3167	00:13:09:09	 	36.823307	-122.17049	2462185	1.12	45:28.0	Ventana	34.16	00:15:05:08	6.99		Labidiasteridae	Rathbunaster			Animalia	Forcipulatida	Echinodermata	Rathbunaster californicus	Asteroidea							Eukaryota		V3167-01
population-quantity | self | 999	cruise	Allocentrotus fragilis	326.07	3167	00:13:23:09	 	36.823383	-122.17047	2462186	1.12	45:42.0	Ventana	34.159	00:15:18:23	6.99	Echinoidea	Strongylocentrotidae	Allocentrotus			Animalia	Echinoida	Echinodermata	Allocentrotus fragilis	Euechinoidea			Echinacea				Eukaryota		V3167-01
population-quantity | self | 999	cruise	Sebastes diploproa	325.86	3167	00:13:39:08	 	36.82347	-122.17045	2462187	1.12	45:58.0	Ventana	34.16	00:15:34:09	6.982	Osteichthyes	Scorpaenidae	Sebastes	Neopterygii		Animalia	Scorpaeniformes	Chordata	Sebastes diploproa	Actinopterygii			Scorpaenoidei	Vertebrata	Gnathostomata		Eukaryota	Acanthopterygii	V3167-01
population-quantity | self | 999	cruise	Rathbunaster californicus	325	3167	00:14:19:07	 	36.823692	-122.17038	2462204	1.11	46:38.0	Ventana	34.162	00:16:15:22	6.967		Labidiasteridae	Rathbunaster			Animalia	Forcipulatida	Echinodermata	Rathbunaster californicus	Asteroidea							Eukaryota		V3167-01
population-quantity | self | 999	cruise	Sebastes	324.84	3167	00:14:25:06	 	36.823723	-122.17037	2462205	1.11	46:44.0	Ventana	34.162	00:16:21:18	6.967	Osteichthyes	Scorpaenidae	Sebastes	Neopterygii		Animalia	Scorpaeniformes	Chordata		Actinopterygii			Scorpaenoidei	Vertebrata	Gnathostomata		Eukaryota	Acanthopterygii	V3167-01
upon | cable | nil	cruise	Liponema brevicornis	324.74	3167	00:14:33:06	 	36.823765	-122.17036	2462206	1.11	46:52.0	Ventana	34.162	00:16:29:15	6.967	Anthozoa	Liponematidae	Liponema			Animalia	Actiniaria	Cnidaria	Liponema brevicornis	Hexacorallia			Nyantheae				Eukaryota		V3167-01
population-quantity | self | 999	cruise	Rathbunaster californicus	324.27	3167	00:14:51:21	 	36.823856	-122.17032	2462207	1.11	47:11.0	Ventana	34.161	00:16:46:17	6.974		Labidiasteridae	Rathbunaster			Animalia	Forcipulatida	Echinodermata	Rathbunaster californicus	Asteroidea							Eukaryota		V3167-01
population-quantity | self | 999	cruise	Stylasterias forreri	323.76	3167	00:15:09:20	 	36.823944	-122.17028	2462210	1.11	47:29.0	Ventana	34.162	00:17:05:22	6.978		Asteriidae	Stylasterias			Animalia	Forcipulatida	Echinodermata	Stylasterias forreri	Asteroidea							Eukaryota		V3167-01
population-quantity | self | 999	cruise	Rathbunaster californicus	323.28	3167	00:15:27:20	 	36.824024	-122.17024	2462213	1.11	47:47.0	Ventana	34.16	00:17:22:20	6.979		Labidiasteridae	Rathbunaster			Animalia	Forcipulatida	Echinodermata	Rathbunaster californicus	Asteroidea							Eukaryota		V3167-01
"comment | self | cable taut upon seafloor, habitat | self | flat mud, life-stage | self | juvenile"	cruise	Raja rhina	322.52	3167	00:15:47:19	 	36.824116	-122.170204	2462216	1.12	48:07.0	Ventana	34.16	00:17:42:21	6.984	Chondrichthyes	Rajidae	Raja			Animalia	Rajiformes	Chordata	Raja rhina	Elasmobranchii				Vertebrata			Eukaryota	Batoidea	V3167-01
population-quantity | self | 999	cruise	Rathbunaster californicus	322.02	3167	00:15:57:19	 	36.824154	-122.17019	2462219	1.12	48:17.0	Ventana	34.16	00:17:54:20	7.002		Labidiasteridae	Rathbunaster			Animalia	Forcipulatida	Echinodermata	Rathbunaster californicus	Asteroidea							Eukaryota		V3167-01
population-quantity | self | 999	cruise	Rathbunaster californicus	321.45	3167	00:16:18:03	 	36.824226	-122.17016	2462222	1.13	48:37.0	Ventana	34.159	00:18:13:08	7.001		Labidiasteridae	Rathbunaster			Animalia	Forcipulatida	Echinodermata	Rathbunaster californicus	Asteroidea							Eukaryota		V3167-01
"comment | self | cable upon seafloor, identity-gender | self | male, habitat | self | flat mud"	cruise	Raja rhina	321.3	3167	00:16:22:03	http://search.mbari.org/ARCHIVE/frameGrabs/Ventana/images/3167/00_18_18_25.jpg	36.824238	-122.17015	2462224	1.12	48:41.0	Ventana	34.16	00:18:18:25	6.993	Chondrichthyes	Rajidae	Raja			Animalia	Rajiformes	Chordata	Raja rhina	Elasmobranchii				Vertebrata			Eukaryota	Batoidea	V3167-01
population-quantity | self | 999	cruise	Rathbunaster californicus	321.08	3167	00:17:12:01	 	36.82431	-122.1701	2462227	1.12	49:31.0	Ventana	34.162	00:19:08:23	6.99		Labidiasteridae	Rathbunaster			Animalia	Forcipulatida	Echinodermata	Rathbunaster californicus	Asteroidea							Eukaryota		V3167-01
population-quantity | self | 999	cruise	Parastichopus leukothele	321.13	3167	00:17:22:02	 	36.824314	-122.17008	2462228	1.12	49:41.0	Ventana	34.159	00:19:17:15	7.004	Holothuroidea	Stichopodidae	Parastichopus			Animalia	Aspidochirotida	Echinodermata	Parastichopus leukothele	Aspidochirotacea							Eukaryota		V3167-01
nil | nil | NI-1 transect A	starttransect	physical object	320.99	3167	00:17:46:00	http://search.mbari.org/ARCHIVE/frameGrabs/Ventana/images/3167/00_19_42_09.jpg	36.82432	-122.17004	2462229	1.12	50:05.0	Ventana	34.16	00:19:42:09	6.99																			V3167-01
relative-size | self | small	transect	Asteroidea	320.56	3167	00:18:04:15	 	36.82432	-122.16998	2462244	1.11	50:23.0	Ventana	34.161	00:20:00:18	6.984						Animalia		Echinodermata		Asteroidea							Eukaryota		V3167-01
"habitat | self | flat mud, life-stage | self | juvenile"	transect	Raja rhina	320.22	3167	00:18:26:14	http://search.mbari.org/ARCHIVE/frameGrabs/Ventana/images/3167/00_20_22_16.jpg	36.824326	-122.16991	2462306	1.12	50:46.0	Ventana	34.161	00:20:22:16	6.992	Chondrichthyes	Rajidae	Raja			Animalia	Rajiformes	Chordata	Raja rhina	Elasmobranchii				Vertebrata			Eukaryota	Batoidea	V3167-01
"image-quality | self | good, identity-gender | self | male, habitat | self | flat mud"	transect	Raja rhina	319.95	3167	00:18:42:14	http://search.mbari.org/ARCHIVE/frameGrabs/Ventana/images/3167/00_20_37_17.jpg	36.82434	-122.16985	2462337	1.12	51:02.0	Ventana	34.162	00:20:37:17	6.992	Chondrichthyes	Rajidae	Raja			Animalia	Rajiformes	Chordata	Raja rhina	Elasmobranchii				Vertebrata			Eukaryota	Batoidea	V3167-01
fail | nil | nil	transect	Push Corer	319.77	3167	00:23:39:20	 	36.824398	-122.169624	2462419	1.13	55:59.0	Ventana	34.158	00:25:35:12	7.019																			V3167-01
"sample-reference | self | V3167-C16, nil | nil | macro"	stationary	sediment	319.46	3167	00:33:40:02	http://search.mbari.org/ARCHIVE/frameGrabs/Ventana/images/3167/00_35_35_11.jpg	36.824886	-122.169525	20023955	1.14	06:00.0	Ventana	34.161	00:35:35:11	7.02																			V3167-01
nil | nil | NI-1 transect B	starttransect	physical object	318.4	3167	00:35:20:13	 	36.824875	-122.16958	2462945	1.14	07:41.0	Ventana	34.159	00:37:16:16	7.033																			V3167-01
population-quantity | self | 7	transect	Allocentrotus fragilis	319.47	3167	00:38:03:09	http://search.mbari.org/ARCHIVE/frameGrabs/Ventana/images/3167/00_39_59_13.jpg	36.824917	-122.17014	2463025	1.15	10:24.0	Ventana	34.155	00:39:59:13	7.058	Echinoidea	Strongylocentrotidae	Allocentrotus			Animalia	Echinoida	Echinodermata	Allocentrotus fragilis	Euechinoidea			Echinacea				Eukaryota		V3167-01
relative-size | self | small	transect	Asteroidea	321.74	3167	00:45:55:09	 	36.824852	-122.170555	2463208	1.14	18:16.0	Ventana	34.158	00:47:51:02	7.038						Animalia		Echinodermata		Asteroidea							Eukaryota		V3167-01
"identity-gender | self | male, habitat | self | flat mud"	transect	Raja rhina	321.76	3167	00:45:57:09	 	36.824856	-122.17056	2463210	1.14	18:18.0	Ventana	34.158	00:47:53:09	7.038	Chondrichthyes	Rajidae	Raja			Animalia	Rajiformes	Chordata	Raja rhina	Elasmobranchii				Vertebrata			Eukaryota	Batoidea	V3167-01
"swimming | nil | nil, identity-gender | self | male, habitat | self | flat mud"	transect	Raja rhina	321.74	3167	00:45:55:09	http://search.mbari.org/ARCHIVE/frameGrabs/Ventana/images/3167/00_47_52_00.jpg	36.824852	-122.170555	2463212	1.14	18:16.0	Ventana	34.158	00:47:52:00	7.038	Chondrichthyes	Rajidae	Raja			Animalia	Rajiformes	Chordata	Raja rhina	Elasmobranchii				Vertebrata			Eukaryota	Batoidea	V3167-01
population-quantity | self | 999	cruise	Rathbunaster californicus	322.1	3167	00:47:07:06	 	36.824818	-122.170784	2463228	1.18	19:28.0	Ventana	34.152	00:49:04:11	7.119		Labidiasteridae	Rathbunaster			Animalia	Forcipulatida	Echinodermata	Rathbunaster californicus	Asteroidea							Eukaryota		V3167-01
population-quantity | self | 999	cruise	Parastichopus leukothele	322.35	3167	00:47:15:06	 	36.824795	-122.1708	2463229	1.18	19:36.0	Ventana	34.152	00:49:11:10	7.119	Holothuroidea	Stichopodidae	Parastichopus			Animalia	Aspidochirotida	Echinodermata	Parastichopus leukothele	Aspidochirotacea							Eukaryota		V3167-01
relative-size | self | small	transect	Asteroidea	322.9	3167	00:48:39:19	 	36.82464	-122.17082	2463244	1.19	21:01.0	Ventana	34.153	00:50:35:03	7.118						Animalia		Echinodermata		Asteroidea							Eukaryota		V3167-01
relative-size | self | small	transect	Asteroidea	323.03	3167	00:48:47:18	 	36.82463	-122.170815	2463246	1.18	21:09.0	Ventana	34.153	00:50:44:11	7.112						Animalia		Echinodermata		Asteroidea							Eukaryota		V3167-01
"habitat | self | flat mud, life-stage | self | juvenile"	transect	Raja rhina	322.88	3167	00:49:20:02	http://search.mbari.org/ARCHIVE/frameGrabs/Ventana/images/3167/00_51_16_06.jpg	36.82451	-122.17074	2463259	1.18	21:41.0	Ventana	34.154	00:51:16:06	7.111	Chondrichthyes	Rajidae	Raja			Animalia	Rajiformes	Chordata	Raja rhina	Elasmobranchii				Vertebrata			Eukaryota	Batoidea	V3167-01
population-quantity | self | 999	cruise	Rathbunaster californicus	323.71	3167	00:54:21:08	 	36.824287	-122.170525	2463492	1.17	26:42.0	Ventana	34.157	00:56:17:07	7.082		Labidiasteridae	Rathbunaster			Animalia	Forcipulatida	Echinodermata	Rathbunaster californicus	Asteroidea							Eukaryota		V3167-01
nil | nil | continuation of transect NI-1C	starttransect	physical object	323.39	3167	00:57:05:03	 	36.824196	-122.17047	2464153	1.14	29:47.0	Ventana	34.158	00:58:56:12	7.048																			V3167-02
"image-quality | self | good, identity-gender | self | male, habitat | self | flat mud"	transect	Raja rhina	322.91	3167	00:57:25:03	http://search.mbari.org/ARCHIVE/frameGrabs/Ventana/images/3167/00_59_15_26.jpg	36.824158	-122.17044	2464178	1.14	30:08.0	Ventana	34.157	00:59:15:26	7.052	Chondrichthyes	Rajidae	Raja			Animalia	Rajiformes	Chordata	Raja rhina	Elasmobranchii				Vertebrata			Eukaryota	Batoidea	V3167-02
"comment | self | cable upon seafloor, habitat | self | flat mud, life-stage | self | juvenile"	cruise	Raja rhina	322.28	3167	01:04:02:20	http://search.mbari.org/ARCHIVE/frameGrabs/Ventana/images/3167/01_05_53_01.jpg	36.82416	-122.17029	2464361	1.14	36:46.0	Ventana	34.16	01:05:53:01	7.043	Chondrichthyes	Rajidae	Raja			Animalia	Rajiformes	Chordata	Raja rhina	Elasmobranchii				Vertebrata			Eukaryota	Batoidea	V3167-02
population-quantity | self | 999	cruise	Rathbunaster californicus	321.46	3167	01:04:18:20	 	36.82424	-122.170265	2464387	1.14	37:02.0	Ventana	34.159	01:06:09:25	7.045		Labidiasteridae	Rathbunaster			Animalia	Forcipulatida	Echinodermata	Rathbunaster californicus	Asteroidea							Eukaryota		V3167-02
population-quantity | self | 999	cruise	Rathbunaster californicus	320.97	3167	01:04:30:20	 	36.824303	-122.17025	2464392	1.14	37:14.0	Ventana	34.159	01:06:21:20	7.032		Labidiasteridae	Rathbunaster			Animalia	Forcipulatida	Echinodermata	Rathbunaster californicus	Asteroidea							Eukaryota		V3167-02
"comment | self | cable upon seafloor, identity-gender | self | male, habitat | self | flat mud"	cruise	Raja rhina	320.7	3167	01:04:38:19	 	36.824345	-122.170235	2464397	1.14	37:22.0	Ventana	34.159	01:06:29:12	7.032	Chondrichthyes	Rajidae	Raja			Animalia	Rajiformes	Chordata	Raja rhina	Elasmobranchii				Vertebrata			Eukaryota	Batoidea	V3167-02
population-quantity | self | 999	cruise	Rathbunaster californicus	320.5	3167	01:04:44:19	 	36.82438	-122.17023	2464403	1.13	37:28.0	Ventana	34.159	01:06:35:12	7.029		Labidiasteridae	Rathbunaster			Animalia	Forcipulatida	Echinodermata	Rathbunaster californicus	Asteroidea							Eukaryota		V3167-02
population-quantity | self | 999	cruise	Parastichopus leukothele	320.39	3167	01:04:46:19	 	36.82439	-122.17023	2464405	1.13	37:30.0	Ventana	34.159	01:06:38:19	7.029	Holothuroidea	Stichopodidae	Parastichopus			Animalia	Aspidochirotida	Echinodermata	Parastichopus leukothele	Aspidochirotacea							Eukaryota		V3167-02
"comment | self | cable upon seafloor, identity-gender | self | male, habitat | self | flat mud"	cruise	Raja rhina	319.88	3167	01:05:07:04	http://search.mbari.org/ARCHIVE/frameGrabs/Ventana/images/3167/01_06_58_27.jpg	36.824516	-122.17017	2464414	1.13	37:50.0	Ventana	34.159	01:06:58:27	7.035	Chondrichthyes	Rajidae	Raja			Animalia	Rajiformes	Chordata	Raja rhina	Elasmobranchii				Vertebrata			Eukaryota	Batoidea	V3167-02
population-quantity | self | 999	cruise	Rathbunaster californicus	319.47	3167	01:05:25:03	 	36.82462	-122.17013	2464428	1.13	38:08.0	Ventana	34.16	01:07:16:19	7.026		Labidiasteridae	Rathbunaster			Animalia	Forcipulatida	Echinodermata	Rathbunaster californicus	Asteroidea							Eukaryota		V3167-02
"identity-gender | self | female, comment | self | cable upon seafloor, habitat | self | flat mud"	cruise	Raja rhina	318.9	3167	01:05:47:03	 	36.824753	-122.17007	2464435	1.13	38:30.0	Ventana	34.16	01:07:38:27	7.025	Chondrichthyes	Rajidae	Raja			Animalia	Rajiformes	Chordata	Raja rhina	Elasmobranchii				Vertebrata			Eukaryota	Batoidea	V3167-02
"upon | cable | nil, population-quantity | self | 999"	cruise	Liponema brevicornis	319.01	3167	01:05:51:02	 	36.824776	-122.17006	2464439	1.13	38:34.0	Ventana	34.16	01:07:42:00	7.025	Anthozoa	Liponematidae	Liponema			Animalia	Actiniaria	Cnidaria	Liponema brevicornis	Hexacorallia			Nyantheae				Eukaryota		V3167-02
population-quantity | self | 999	cruise	Rathbunaster californicus	318.64	3167	01:06:07:02	 	36.824867	-122.17001	2464446	1.13	38:50.0	Ventana	34.16	01:07:57:13	7.018		Labidiasteridae	Rathbunaster			Animalia	Forcipulatida	Echinodermata	Rathbunaster californicus	Asteroidea							Eukaryota		V3167-02
population-quantity | self | 999	cruise	Rathbunaster californicus	318.45	3167	01:06:23:01	 	36.82496	-122.16996	2464451	1.12	39:06.0	Ventana	34.16	01:08:15:07	7.014		Labidiasteridae	Rathbunaster			Animalia	Forcipulatida	Echinodermata	Rathbunaster californicus	Asteroidea							Eukaryota		V3167-02
"identity-gender | self | female, comment | self | cable upon seafloor, habitat | self | flat mud"	cruise	Raja rhina	318.4	3167	01:06:25:01	 	36.82497	-122.16995	2464453	1.12	39:08.0	Ventana	34.16	01:08:16:08	7.017	Chondrichthyes	Rajidae	Raja			Animalia	Rajiformes	Chordata	Raja rhina	Elasmobranchii				Vertebrata			Eukaryota	Batoidea	V3167-02
population-quantity | self | 999	cruise	Rathbunaster californicus	318.39	3167	01:06:41:01	 	36.825077	-122.16991	2464458	1.13	39:24.0	Ventana	34.16	01:08:33:20	7.017		Labidiasteridae	Rathbunaster			Animalia	Forcipulatida	Echinodermata	Rathbunaster californicus	Asteroidea							Eukaryota		V3167-02
"comment | self | cable upon seafloor, habitat | self | flat mud, life-stage | self | juvenile"	cruise	Raja rhina	318.27	3167	01:06:45:01	 	36.8251	-122.16989	2464459	1.13	39:28.0	Ventana	34.16	01:08:36:24	7.017	Chondrichthyes	Rajidae	Raja			Animalia	Rajiformes	Chordata	Raja rhina	Elasmobranchii				Vertebrata			Eukaryota	Batoidea	V3167-02
"identity-gender | self | female, comment | self | cable upon seafloor, habitat | self | flat mud"	cruise	Raja rhina	318.27	3167	01:06:45:01	 	36.8251	-122.16989	2464474	1.13	39:28.0	Ventana	34.16	01:08:36:24	7.017	Chondrichthyes	Rajidae	Raja			Animalia	Rajiformes	Chordata	Raja rhina	Elasmobranchii				Vertebrata			Eukaryota	Batoidea	V3167-02
"comment | self | cable upon seafloor, identity-gender | self | male, habitat | self | flat mud"	cruise	Raja rhina	318.24	3167	01:06:51:15	 	36.825134	-122.169876	2464484	1.13	39:34.0	Ventana	34.16	01:08:42:27	7.017	Chondrichthyes	Rajidae	Raja			Animalia	Rajiformes	Chordata	Raja rhina	Elasmobranchii				Vertebrata			Eukaryota	Batoidea	V3167-02
population-quantity | self | 999	cruise	Rathbunaster californicus	318.24	3167	01:06:51:15	 	36.825134	-122.169876	2464485	1.13	39:34.0	Ventana	34.16	01:08:42:27	7.017		Labidiasteridae	Rathbunaster			Animalia	Forcipulatida	Echinodermata	Rathbunaster californicus	Asteroidea							Eukaryota		V3167-02
population-quantity | self | 999	cruise	Rathbunaster californicus	318.18	3167	01:07:01:15	 	36.82519	-122.169846	2464502	1.13	39:44.0	Ventana	34.16	01:08:52:02	7.018		Labidiasteridae	Rathbunaster			Animalia	Forcipulatida	Echinodermata	Rathbunaster californicus	Asteroidea							Eukaryota		V3167-02
"identity-gender | self | female, comment | self | cable upon seafloor, habitat | self | flat mud"	cruise	Raja rhina	318.15	3167	01:07:07:15	 	36.825226	-122.16982	2464505	1.13	39:50.0	Ventana	34.16	01:08:58:28	7.018	Chondrichthyes	Rajidae	Raja			Animalia	Rajiformes	Chordata	Raja rhina	Elasmobranchii				Vertebrata			Eukaryota	Batoidea	V3167-02
"identity-gender | self | female, comment | self | cable upon seafloor, habitat | self | flat mud"	cruise	Raja rhina	317.77	3167	01:07:17:15	 	36.825287	-122.169785	2464506	1.13	40:01.0	Ventana	34.159	01:09:09:03	7.018	Chondrichthyes	Rajidae	Raja			Animalia	Rajiformes	Chordata	Raja rhina	Elasmobranchii				Vertebrata			Eukaryota	Batoidea	V3167-02
"identity-gender | self | female, comment | self | cable upon seafloor, habitat | self | flat mud"	cruise	Raja rhina	317.77	3167	01:07:17:15	 	36.825287	-122.169785	2464507	1.13	40:01.0	Ventana	34.159	01:09:09:03	7.018	Chondrichthyes	Rajidae	Raja			Animalia	Rajiformes	Chordata	Raja rhina	Elasmobranchii				Vertebrata			Eukaryota	Batoidea	V3167-02
"comment | self | cable upon seafloor, identity-gender | self | male, habitat | self | flat mud"	cruise	Raja rhina	317.67	3167	01:07:25:14	 	36.82533	-122.16976	2464510	1.13	40:09.0	Ventana	34.159	01:09:16:20	7.022	Chondrichthyes	Rajidae	Raja			Animalia	Rajiformes	Chordata	Raja rhina	Elasmobranchii				Vertebrata			Eukaryota	Batoidea	V3167-02
population-quantity | self | 999	cruise	Rathbunaster californicus	317.67	3167	01:07:29:14	 	36.82535	-122.16975	2464511	1.13	40:13.0	Ventana	34.159	01:09:20:02	7.022		Labidiasteridae	Rathbunaster			Animalia	Forcipulatida	Echinodermata	Rathbunaster californicus	Asteroidea							Eukaryota		V3167-02
"comment | self | cable upon seafloor, identity-gender | self | male, habitat | self | flat mud"	cruise	Raja rhina	317.66	3167	01:07:33:14	 	36.82537	-122.16973	2464512	1.13	40:17.0	Ventana	34.159	01:09:23:29	7.022	Chondrichthyes	Rajidae	Raja			Animalia	Rajiformes	Chordata	Raja rhina	Elasmobranchii				Vertebrata			Eukaryota	Batoidea	V3167-02
population-quantity | self | 999	cruise	Rathbunaster californicus	317.51	3167	01:07:35:14	 	36.825382	-122.16972	2464513	1.13	40:19.0	Ventana	34.159	01:09:26:06	7.022		Labidiasteridae	Rathbunaster			Animalia	Forcipulatida	Echinodermata	Rathbunaster californicus	Asteroidea							Eukaryota		V3167-02
population-quantity | self | 999	cruise	Rathbunaster californicus	317.29	3167	01:07:45:14	 	36.825436	-122.169685	2464514	1.13	40:29.0	Ventana	34.161	01:09:36:29	7.019		Labidiasteridae	Rathbunaster			Animalia	Forcipulatida	Echinodermata	Rathbunaster californicus	Asteroidea							Eukaryota		V3167-02
population-quantity | self | 999	cruise	Allocentrotus fragilis	317.25	3167	01:07:47:14	 	36.825447	-122.169685	2464515	1.13	40:31.0	Ventana	34.161	01:09:39:16	7.019	Echinoidea	Strongylocentrotidae	Allocentrotus			Animalia	Echinoida	Echinodermata	Allocentrotus fragilis	Euechinoidea			Echinacea				Eukaryota		V3167-02
population-quantity | self | 999	cruise	Rathbunaster californicus	317.11	3167	01:07:51:14	 	36.825466	-122.16967	2464517	1.13	40:35.0	Ventana	34.161	01:09:41:22	7.019		Labidiasteridae	Rathbunaster			Animalia	Forcipulatida	Echinodermata	Rathbunaster californicus	Asteroidea							Eukaryota		V3167-02
"identity-gender | self | female, comment | self | cable upon seafloor, habitat | self | flat mud"	cruise	Raja rhina	316.81	3167	01:07:59:13	 	36.82551	-122.16964	2464522	1.13	40:43.0	Ventana	34.16	01:09:51:13	7.017	Chondrichthyes	Rajidae	Raja			Animalia	Rajiformes	Chordata	Raja rhina	Elasmobranchii				Vertebrata			Eukaryota	Batoidea	V3167-02
population-quantity | self | 999	cruise	Rathbunaster californicus	316.59	3167	01:08:13:13	 	36.82558	-122.1696	2464529	1.13	40:57.0	Ventana	34.16	01:10:05:03	7.021		Labidiasteridae	Rathbunaster			Animalia	Forcipulatida	Echinodermata	Rathbunaster californicus	Asteroidea							Eukaryota		V3167-02
identity-reference | self | start: minor cable span	cruise	cable	316.12	3167	01:08:27:28	 	36.82566	-122.16955	2464537	1.12	41:11.0	Ventana	34.163	01:10:19:19	7.007																			V3167-02
"identity-gender | self | female, comment | self | cable taut upon seafloor, habitat | self | flat mud"	cruise	Raja rhina	315.4	3167	01:08:51:27	 	36.82578	-122.16949	2464550	1.11	41:35.0	Ventana	34.16	01:10:43:04	6.996	Chondrichthyes	Rajidae	Raja			Animalia	Rajiformes	Chordata	Raja rhina	Elasmobranchii				Vertebrata			Eukaryota	Batoidea	V3167-02
population-quantity | self | 999	cruise	Rathbunaster californicus	315.44	3167	01:08:53:27	 	36.825787	-122.16948	2464552	1.11	41:37.0	Ventana	34.16	01:10:44:19	6.996		Labidiasteridae	Rathbunaster			Animalia	Forcipulatida	Echinodermata	Rathbunaster californicus	Asteroidea							Eukaryota		V3167-02
identity-reference | self | end: minor cable span	cruise	cable	315.34	3167	01:08:57:26	 	36.825806	-122.16947	2464553	1.11	41:41.0	Ventana	34.161	01:10:49:13	6.988																			V3167-02
"identity-gender | self | female, comment | self | cable upon seafloor, habitat | self | flat mud"	cruise	Raja rhina	315.15	3167	01:09:01:27	 	36.825825	-122.169464	2464554	1.11	41:45.0	Ventana	34.161	01:10:52:23	6.988	Chondrichthyes	Rajidae	Raja			Animalia	Rajiformes	Chordata	Raja rhina	Elasmobranchii				Vertebrata			Eukaryota	Batoidea	V3167-02
population-quantity | self | 999	cruise	Rathbunaster californicus	315.15	3167	01:09:01:27	 	36.825825	-122.169464	2464555	1.11	41:45.0	Ventana	34.161	01:10:53:27	6.988		Labidiasteridae	Rathbunaster			Animalia	Forcipulatida	Echinodermata	Rathbunaster californicus	Asteroidea							Eukaryota		V3167-02
identity-reference | self | start: minor cable suspension	cruise	cable	314.83	3167	01:09:15:26	http://search.mbari.org/ARCHIVE/frameGrabs/Ventana/images/3167/01_11_07_04.jpg	36.825886	-122.16944	20023976	1.11	41:59.0	Ventana	34.162	01:11:07:04	6.977																			V3167-02
population-quantity | self | 999	cruise	Rathbunaster californicus	314.81	3167	01:09:17:26	 	36.825893	-122.16943	2464559	1.11	42:01.0	Ventana	34.162	01:11:09:24	6.977		Labidiasteridae	Rathbunaster			Animalia	Forcipulatida	Echinodermata	Rathbunaster californicus	Asteroidea							Eukaryota		V3167-02
"identity-gender | self | female, habitat | self | flat mud, in depression near small dropoff , comment | self | cable minor suspension"	cruise	Raja rhina	314.74	3167	01:09:25:26	 	36.825928	-122.16942	2464560	1.1	42:09.0	Ventana	34.163	01:11:16:10	6.98	Chondrichthyes	Rajidae	Raja			Animalia	Rajiformes	Chordata	Raja rhina	Elasmobranchii				Vertebrata			Eukaryota	Batoidea	V3167-02
"identity-gender | self | female, comment | self | flat mud, in depression near small dropoff , habitat | self | flat mud"	cruise	Raja rhina	314.73	3167	01:09:27:25	 	36.82593	-122.16942	2464561	1.1	42:11.0	Ventana	34.163	01:11:18:28	6.98	Chondrichthyes	Rajidae	Raja			Animalia	Rajiformes	Chordata	Raja rhina	Elasmobranchii				Vertebrata			Eukaryota	Batoidea	V3167-02
"identity-gender | self | female, comment | self | flat mud, in depression near small dropoff , habitat | self | flat mud"	cruise	Raja rhina	314.78	3167	01:09:31:26	 	36.825947	-122.16941	2464562	1.1	42:15.0	Ventana	34.163	01:11:23:17	6.98	Chondrichthyes	Rajidae	Raja			Animalia	Rajiformes	Chordata	Raja rhina	Elasmobranchii				Vertebrata			Eukaryota	Batoidea	V3167-02
"identity-gender | self | female, comment | self | flat mud, in depression near small dropoff , habitat | self | flat mud"	cruise	Raja rhina	314.75	3167	01:09:33:25	 	36.825954	-122.16941	2464563	1.1	42:17.0	Ventana	34.163	01:11:24:10	6.98	Chondrichthyes	Rajidae	Raja			Animalia	Rajiformes	Chordata	Raja rhina	Elasmobranchii				Vertebrata			Eukaryota	Batoidea	V3167-02
"comment | self | flat mud, in depression near small dropoff , identity-gender | self | male, habitat | self | flat mud"	cruise	Raja rhina	314.88	3167	01:09:41:25	 	36.825985	-122.169395	2464565	1.11	42:25.0	Ventana	34.162	01:11:34:06	6.985	Chondrichthyes	Rajidae	Raja			Animalia	Rajiformes	Chordata	Raja rhina	Elasmobranchii				Vertebrata			Eukaryota	Batoidea	V3167-02
"identity-gender | self | female, habitat | self | flat mud, in depression near small dropoff , comment | self | cable minor suspension"	cruise	Raja rhina	314.63	3167	01:09:53:25	 	36.826027	-122.16938	2464567	1.11	42:37.0	Ventana	34.162	01:11:45:04	6.985	Chondrichthyes	Rajidae	Raja			Animalia	Rajiformes	Chordata	Raja rhina	Elasmobranchii				Vertebrata			Eukaryota	Batoidea	V3167-02
"identity-gender | self | female, habitat | self | flat mud, in depression near small dropoff , comment | self | cable minor suspension"	cruise	Raja rhina	314.63	3167	01:09:53:25	 	36.826027	-122.16938	2464568	1.11	42:37.0	Ventana	34.162	01:11:45:04	6.985	Chondrichthyes	Rajidae	Raja			Animalia	Rajiformes	Chordata	Raja rhina	Elasmobranchii				Vertebrata			Eukaryota	Batoidea	V3167-02
"identity-gender | self | female, habitat | self | flat mud, in depression near small dropoff , comment | self | cable minor suspension"	cruise	Raja rhina	314.63	3167	01:09:53:25	 	36.826027	-122.16938	2464569	1.11	42:37.0	Ventana	34.162	01:11:45:04	6.985	Chondrichthyes	Rajidae	Raja			Animalia	Rajiformes	Chordata	Raja rhina	Elasmobranchii				Vertebrata			Eukaryota	Batoidea	V3167-02
"identity-gender | self | female, habitat | self | flat mud, in depression near small dropoff , comment | self | cable minor suspension"	cruise	Raja rhina	314.63	3167	01:09:53:25	 	36.826027	-122.16938	2464570	1.11	42:37.0	Ventana	34.162	01:11:45:04	6.985	Chondrichthyes	Rajidae	Raja			Animalia	Rajiformes	Chordata	Raja rhina	Elasmobranchii				Vertebrata			Eukaryota	Batoidea	V3167-02
population-quantity | self | 999	cruise	Rathbunaster californicus	314.19	3167	01:10:09:24	 	36.826096	-122.16935	2464572	1.1	42:53.0	Ventana	34.164	01:12:01:20	6.977		Labidiasteridae	Rathbunaster			Animalia	Forcipulatida	Echinodermata	Rathbunaster californicus	Asteroidea							Eukaryota		V3167-02
"identity-gender | self | female, habitat | self | flat mud, in depression near small dropoff , comment | self | cable minor suspension"	cruise	Raja rhina	314.19	3167	01:10:09:24	 	36.826096	-122.16935	2464573	1.1	42:53.0	Ventana	34.164	01:12:01:20	6.977	Chondrichthyes	Rajidae	Raja			Animalia	Rajiformes	Chordata	Raja rhina	Elasmobranchii				Vertebrata			Eukaryota	Batoidea	V3167-02
"identity-gender | self | female, habitat | self | flat mud, in depression near small dropoff , comment | self | cable minor suspension"	cruise	Raja rhina	313.9	3167	01:10:16:09	 	36.82612	-122.16934	2464575	1.1	42:59.0	Ventana	34.164	01:12:08:01	6.977	Chondrichthyes	Rajidae	Raja			Animalia	Rajiformes	Chordata	Raja rhina	Elasmobranchii				Vertebrata			Eukaryota	Batoidea	V3167-02
identity-reference | self | end: minor cable suspension	cruise	cable	313.57	3167	01:10:22:09	 	36.82614	-122.169334	2464576	1.1	43:05.0	Ventana	34.164	01:12:12:26	6.977																			V3167-02
population-quantity | self | 999	cruise	Allocentrotus fragilis	313.43	3167	01:10:24:09	 	36.826153	-122.16933	2464580	1.1	43:07.0	Ventana	34.164	01:12:16:10	6.977	Echinoidea	Strongylocentrotidae	Allocentrotus			Animalia	Echinoida	Echinodermata	Allocentrotus fragilis	Euechinoidea			Echinacea				Eukaryota		V3167-02
"comment | self | cable upon seafloor, identity-gender | self | male, habitat | self | flat mud"	cruise	Raja rhina	312.78	3167	01:10:34:08	 	36.8262	-122.16931	2464593	1.1	43:18.0	Ventana	34.162	01:12:25:12	6.978	Chondrichthyes	Rajidae	Raja			Animalia	Rajiformes	Chordata	Raja rhina	Elasmobranchii				Vertebrata			Eukaryota	Batoidea	V3167-02
"identity-gender | self | female, comment | self | cable upon seafloor, habitat | self | flat mud"	cruise	Raja rhina	312.78	3167	01:10:34:08	 	36.8262	-122.16931	2464594	1.1	43:18.0	Ventana	34.162	01:12:25:12	6.978	Chondrichthyes	Rajidae	Raja			Animalia	Rajiformes	Chordata	Raja rhina	Elasmobranchii				Vertebrata			Eukaryota	Batoidea	V3167-02
population-quantity | self | 999	cruise	Rathbunaster californicus	312.13	3167	01:10:46:08	 	36.82625	-122.16929	2464602	1.1	43:30.0	Ventana	34.162	01:12:36:27	6.978		Labidiasteridae	Rathbunaster			Animalia	Forcipulatida	Echinodermata	Rathbunaster californicus	Asteroidea							Eukaryota		V3167-02
population-quantity | self | 999	cruise	Rathbunaster californicus	311.42	3167	01:11:12:08	 	36.826363	-122.169235	2464620	1.09	43:56.0	Ventana	34.165	01:13:03:04	6.948		Labidiasteridae	Rathbunaster			Animalia	Forcipulatida	Echinodermata	Rathbunaster californicus	Asteroidea							Eukaryota		V3167-02
upon | cable | nil	cruise	Liponema brevicornis	311.29	3167	01:11:20:07	 	36.8264	-122.16921	2464622	1.09	44:04.0	Ventana	34.165	01:13:12:00	6.948	Anthozoa	Liponematidae	Liponema			Animalia	Actiniaria	Cnidaria	Liponema brevicornis	Hexacorallia			Nyantheae				Eukaryota		V3167-02
"comment | self | cable taut upon seafloor, identity-gender | self | male, habitat | self | flat mud"	cruise	Raja rhina	310.99	3167	01:11:30:07	 	36.826466	-122.16918	2464623	1.09	44:14.0	Ventana	34.164	01:13:22:24	6.954	Chondrichthyes	Rajidae	Raja			Animalia	Rajiformes	Chordata	Raja rhina	Elasmobranchii				Vertebrata			Eukaryota	Batoidea	V3167-02
"comment | self | cable taut upon seafloor, identity-gender | self | male, habitat | self | flat mud"	cruise	Raja rhina	310.91	3167	01:11:38:07	 	36.826496	-122.16917	2464625	1.09	44:22.0	Ventana	34.164	01:13:29:22	6.954	Chondrichthyes	Rajidae	Raja			Animalia	Rajiformes	Chordata	Raja rhina	Elasmobranchii				Vertebrata			Eukaryota	Batoidea	V3167-02
population-quantity | self | 999	cruise	Rathbunaster californicus	310.81	3167	01:11:40:07	 	36.826508	-122.16916	2464626	1.09	44:24.0	Ventana	34.164	01:13:31:20	6.967		Labidiasteridae	Rathbunaster			Animalia	Forcipulatida	Echinodermata	Rathbunaster californicus	Asteroidea							Eukaryota		V3167-02
upon | cable | nil	cruise	Liponema brevicornis	310.52	3167	01:11:50:21	 	36.826553	-122.169136	2464627	1.09	44:34.0	Ventana	34.164	01:13:41:23	6.967	Anthozoa	Liponematidae	Liponema			Animalia	Actiniaria	Cnidaria	Liponema brevicornis	Hexacorallia			Nyantheae				Eukaryota		V3167-02
identity-reference | self | start: minor cable span	cruise	cable	310.81	3167	01:11:40:07	 	36.826508	-122.16916	2464629	1.09	44:24.0	Ventana	34.164	01:13:32:12	6.967																			V3167-02
"identity-gender | self | female, habitat | self | flat mud, in depression near small dropoff , comment | self | cable minor suspension"	cruise	Raja rhina	310.43	3167	01:11:58:21	 	36.826588	-122.16911	2464639	1.11	44:42.0	Ventana	34.161	01:13:49:26	7	Chondrichthyes	Rajidae	Raja			Animalia	Rajiformes	Chordata	Raja rhina	Elasmobranchii				Vertebrata			Eukaryota	Batoidea	V3167-02
"comment | self | flat mud, in depression near small dropoff , identity-gender | self | male, habitat | self | flat mud"	cruise	Raja rhina	310.43	3167	01:11:58:21	 	36.826588	-122.16911	2464644	1.11	44:42.0	Ventana	34.161	01:13:49:26	7	Chondrichthyes	Rajidae	Raja			Animalia	Rajiformes	Chordata	Raja rhina	Elasmobranchii				Vertebrata			Eukaryota	Batoidea	V3167-02
"comment | self | flat mud, in depression near small dropoff , habitat | self | flat mud, life-stage | self | juvenile"	cruise	Raja rhina	310.43	3167	01:11:58:21	 	36.826588	-122.16911	2464646	1.11	44:42.0	Ventana	34.161	01:13:49:26	7	Chondrichthyes	Rajidae	Raja			Animalia	Rajiformes	Chordata	Raja rhina	Elasmobranchii				Vertebrata			Eukaryota	Batoidea	V3167-02
identity-reference | self | end: minor cable span	cruise	cable	309.91	3167	01:12:10:21	 	36.826637	-122.16908	2464670	1.1	44:54.0	Ventana	34.164	01:14:01:28	6.964																			V3167-02
population-quantity | self | 999	cruise	Sebastes	309.33	3167	01:12:30:20	 	36.82671	-122.16903	2464678	1.1	45:14.0	Ventana	34.164	01:14:22:05	6.979	Osteichthyes	Scorpaenidae	Sebastes	Neopterygii		Animalia	Scorpaeniformes	Chordata		Actinopterygii			Scorpaenoidei	Vertebrata	Gnathostomata		Eukaryota	Acanthopterygii	V3167-02
"comment | self | cable taut upon seafloor, habitat | self | flat mud, life-stage | self | juvenile"	cruise	Raja rhina	309.27	3167	01:12:32:20	 	36.826717	-122.16902	2464706	1.1	45:16.0	Ventana	34.164	01:14:23:08	6.979	Chondrichthyes	Rajidae	Raja			Animalia	Rajiformes	Chordata	Raja rhina	Elasmobranchii				Vertebrata			Eukaryota	Batoidea	V3167-02
"comment | self | cable taut upon seafloor, habitat | self | flat mud, life-stage | self | juvenile"	cruise	Raja rhina	309.27	3167	01:12:32:20	 	36.826717	-122.16902	2464709	1.1	45:16.0	Ventana	34.164	01:14:23:08	6.979	Chondrichthyes	Rajidae	Raja			Animalia	Rajiformes	Chordata	Raja rhina	Elasmobranchii				Vertebrata			Eukaryota	Batoidea	V3167-02
population-quantity | self | 999	cruise	Sebastes diploproa	308.74	3167	01:13:00:19	 	36.826775	-122.168945	2464710	1.11	45:44.0	Ventana	34.162	01:14:52:08	6.987	Osteichthyes	Scorpaenidae	Sebastes	Neopterygii		Animalia	Scorpaeniformes	Chordata	Sebastes diploproa	Actinopterygii			Scorpaenoidei	Vertebrata	Gnathostomata		Eukaryota	Acanthopterygii	V3167-02
population-quantity | self | 999	cruise	Sebastes	308.31	3167	01:13:27:03	 	36.826786	-122.16885	2464712	1.14	46:10.0	Ventana	34.156	01:15:18:26	7.075	Osteichthyes	Scorpaenidae	Sebastes	Neopterygii		Animalia	Scorpaeniformes	Chordata		Actinopterygii			Scorpaenoidei	Vertebrata	Gnathostomata		Eukaryota	Acanthopterygii	V3167-02
"population-quantity | self | 999, comment | self | lots of small ledges and heterogeneous topography"	cruise	ledge	308.5	3167	01:14:33:01	 	36.82676	-122.16852	2464716	1.09	47:17.0	Ventana	34.164	01:16:24:08	6.946																			V3167-02
population-quantity | self | 999	cruise	Sebastes	309.12	3167	01:14:59:15	 	36.826744	-122.168396	2464719	1.08	47:43.0	Ventana	34.164	01:16:50:20	6.937	Osteichthyes	Scorpaenidae	Sebastes	Neopterygii		Animalia	Scorpaeniformes	Chordata		Actinopterygii			Scorpaenoidei	Vertebrata	Gnathostomata		Eukaryota	Acanthopterygii	V3167-02
"identity-gender | self | female, habitat | self | flat mud"	cruise	Raja rhina	317.16	3167	01:21:14:19	http://search.mbari.org/ARCHIVE/frameGrabs/Ventana/images/3167/01_23_06_19.jpg	36.82545	-122.16946	2371444	1.09	53:59.0	Ventana	34.162	01:23:06:19	6.975	Chondrichthyes	Rajidae	Raja			Animalia	Rajiformes	Chordata	Raja rhina	Elasmobranchii				Vertebrata			Eukaryota	Batoidea	V3167-02
"comment | self | cable upon seafloor, identity-gender | self | male, habitat | self | flat mud"	transect	Raja rhina	315.79	3167	01:22:35:01	 	36.82579	-122.169426	2371692	1.08	55:19.0	Ventana	34.164	01:24:26:14	6.938	Chondrichthyes	Rajidae	Raja			Animalia	Rajiformes	Chordata	Raja rhina	Elasmobranchii				Vertebrata			Eukaryota	Batoidea	V3167-02
"identity-gender | self | female, comment | self | cable taut upon seafloor, habitat | self | flat mud"	cruise	Raja rhina	315.54	3167	01:22:43:01	 	36.825836	-122.1694	2464803	1.08	55:27.0	Ventana	34.166	01:24:33:29	6.927	Chondrichthyes	Rajidae	Raja			Animalia	Rajiformes	Chordata	Raja rhina	Elasmobranchii				Vertebrata			Eukaryota	Batoidea	V3167-02
"identity-gender | self | female, comment | self | cable minor suspension, habitat | self | flat mud"	transect	Raja rhina	314.8	3167	01:23:05:15	 	36.825962	-122.16935	2464826	1.07	55:49.0	Ventana	34.165	01:24:56:09	6.926	Chondrichthyes	Rajidae	Raja			Animalia	Rajiformes	Chordata	Raja rhina	Elasmobranchii				Vertebrata			Eukaryota	Batoidea	V3167-02
"comment | self | cable minor suspension, identity-gender | self | male, habitat | self | flat mud"	transect	Raja rhina	314.62	3167	01:23:03:00	 	36.82595	-122.16936	2464842	1.07	55:47.0	Ventana	34.165	01:24:55:05	6.926	Chondrichthyes	Rajidae	Raja			Animalia	Rajiformes	Chordata	Raja rhina	Elasmobranchii				Vertebrata			Eukaryota	Batoidea	V3167-02
"identity-gender | self | female, comment | self | cable minor suspension, habitat | self | flat mud"	transect	Raja rhina	314.62	3167	01:23:03:00	 	36.82595	-122.16936	2464843	1.07	55:47.0	Ventana	34.165	01:24:55:05	6.926	Chondrichthyes	Rajidae	Raja			Animalia	Rajiformes	Chordata	Raja rhina	Elasmobranchii				Vertebrata			Eukaryota	Batoidea	V3167-02
"identity-gender | self | female, comment | self | cable minor suspension, habitat | self | flat mud"	transect	Raja rhina	314.88	3167	01:23:09:15	 	36.826	-122.169334	2464865	1.07	55:53.0	Ventana	34.165	01:25:01:19	6.923	Chondrichthyes	Rajidae	Raja			Animalia	Rajiformes	Chordata	Raja rhina	Elasmobranchii				Vertebrata			Eukaryota	Batoidea	V3167-02
"identity-gender | self | female, comment | self | cable minor suspension, habitat | self | flat mud"	transect	Raja rhina	314.72	3167	01:23:17:15	 	36.82604	-122.16931	2464888	1.07	56:01.0	Ventana	34.165	01:25:07:24	6.923	Chondrichthyes	Rajidae	Raja			Animalia	Rajiformes	Chordata	Raja rhina	Elasmobranchii				Vertebrata			Eukaryota	Batoidea	V3167-02
"comment | self | cable minor suspension, habitat | self | flat mud, life-stage | self | juvenile"	transect	Raja rhina	314.72	3167	01:23:17:15	 	36.82604	-122.16931	2464889	1.07	56:01.0	Ventana	34.165	01:25:07:24	6.923	Chondrichthyes	Rajidae	Raja			Animalia	Rajiformes	Chordata	Raja rhina	Elasmobranchii				Vertebrata			Eukaryota	Batoidea	V3167-02
"identity-gender | self | female, comment | self | cable minor suspension, habitat | self | flat mud"	transect	Raja rhina	314.62	3167	01:23:23:15	 	36.826073	-122.1693	2464902	1.07	56:07.0	Ventana	34.165	01:25:14:15	6.923	Chondrichthyes	Rajidae	Raja			Animalia	Rajiformes	Chordata	Raja rhina	Elasmobranchii				Vertebrata			Eukaryota	Batoidea	V3167-02
"identity-gender | self | female, comment | self | cable minor suspension, habitat | self | flat mud"	transect	Raja rhina	314.15	3167	01:23:27:15	 	36.826096	-122.16929	2464909	1.07	56:11.0	Ventana	34.166	01:25:18:07	6.924	Chondrichthyes	Rajidae	Raja			Animalia	Rajiformes	Chordata	Raja rhina	Elasmobranchii				Vertebrata			Eukaryota	Batoidea	V3167-02
"comment | self | cable minor suspension, identity-gender | self | male, habitat | self | flat mud"	transect	Raja rhina	314.15	3167	01:23:27:15	 	36.826096	-122.16929	2464910	1.07	56:11.0	Ventana	34.166	01:25:18:07	6.924	Chondrichthyes	Rajidae	Raja			Animalia	Rajiformes	Chordata	Raja rhina	Elasmobranchii				Vertebrata			Eukaryota	Batoidea	V3167-02
"identity-gender | self | female, comment | self | cable taut upon seafloor, habitat | self | flat mud"	transect	Raja rhina	313.09	3167	01:23:39:14	 	36.82617	-122.16926	2464923	1.08	56:24.0	Ventana	34.165	01:25:31:18	6.929	Chondrichthyes	Rajidae	Raja			Animalia	Rajiformes	Chordata	Raja rhina	Elasmobranchii				Vertebrata			Eukaryota	Batoidea	V3167-02
"habitat | self | flat mud in depression, comment | self | cable minor suspension, life-stage | self | juvenile"	transect	Raja rhina	311.83	3167	01:24:01:14	 	36.8263	-122.1692	2464927	1.07	56:46.0	Ventana	34.165	01:25:51:25	6.925	Chondrichthyes	Rajidae	Raja			Animalia	Rajiformes	Chordata	Raja rhina	Elasmobranchii				Vertebrata			Eukaryota	Batoidea	V3167-02
"habitat | self | flat mud in depression, comment | self | cable minor suspension, identity-gender | self | male"	transect	Raja rhina	310.4	3167	01:24:47:27	http://search.mbari.org/ARCHIVE/frameGrabs/Ventana/images/3167/01_26_39_25.jpg	36.826557	-122.16906	2372717	1.08	57:32.0	Ventana	34.165	01:26:39:25	6.934	Chondrichthyes	Rajidae	Raja			Animalia	Rajiformes	Chordata	Raja rhina	Elasmobranchii				Vertebrata			Eukaryota	Batoidea	V3167-02
"habitat | self | flat mud in depression, comment | self | cable minor suspension, identity-gender | self | male"	transect	Raja rhina	310.41	3167	01:24:51:27	 	36.826588	-122.16904	2464928	1.08	57:36.0	Ventana	34.165	01:26:43:26	6.934	Chondrichthyes	Rajidae	Raja			Animalia	Rajiformes	Chordata	Raja rhina	Elasmobranchii				Vertebrata			Eukaryota	Batoidea	V3167-02
"habitat | self | flat mud in depression, comment | self | cable minor suspension, identity-gender | self | male"	transect	Raja rhina	310.41	3167	01:24:51:27	 	36.826588	-122.16904	2464929	1.08	57:36.0	Ventana	34.165	01:26:43:26	6.934	Chondrichthyes	Rajidae	Raja			Animalia	Rajiformes	Chordata	Raja rhina	Elasmobranchii				Vertebrata			Eukaryota	Batoidea	V3167-02
"habitat | self | flat mud in depression, comment | self | cable minor suspension, life-stage | self | juvenile"	transect	Raja rhina	310.04	3167	01:24:57:27	 	36.82662	-122.16902	2464930	1.09	57:42.0	Ventana	34.165	01:26:49:20	6.968	Chondrichthyes	Rajidae	Raja			Animalia	Rajiformes	Chordata	Raja rhina	Elasmobranchii				Vertebrata			Eukaryota	Batoidea	V3167-02
"comment | self | cable upon seafloor, habitat | self | flat mud, life-stage | self | juvenile"	transect	Raja rhina	309.42	3167	01:25:23:26	 	36.826748	-122.16894	2464931	1.11	58:08.0	Ventana	34.161	01:27:14:17	6.98	Chondrichthyes	Rajidae	Raja			Animalia	Rajiformes	Chordata	Raja rhina	Elasmobranchii				Vertebrata			Eukaryota	Batoidea	V3167-02
"comment | self | cable upon seafloor, habitat | self | flat mud, life-stage | self | juvenile"	transect	Raja rhina	309.48	3167	01:25:19:26	 	36.82673	-122.16895	2464932	1.11	58:04.0	Ventana	34.161	01:27:10:26	7.022	Chondrichthyes	Rajidae	Raja			Animalia	Rajiformes	Chordata	Raja rhina	Elasmobranchii				Vertebrata			Eukaryota	Batoidea	V3167-02
"identity-gender | self | female, comment | self | cable taut upon seafloor, habitat | self | flat mud"	transect	Raja rhina	307.76	3167	01:26:07:25	http://search.mbari.org/ARCHIVE/frameGrabs/Ventana/images/3167/01_28_00_14.jpg	36.826942	-122.16882	2464934	1.19	58:52.0	Ventana	34.152	01:28:00:14	7.21	Chondrichthyes	Rajidae	Raja			Animalia	Rajiformes	Chordata	Raja rhina	Elasmobranchii				Vertebrata			Eukaryota	Batoidea	V3167-02
"identity-gender | self | female, comment | self | cable taut upon seafloor, habitat | self | flat mud"	transect	Raja rhina	307.76	3167	01:26:07:25	http://search.mbari.org/ARCHIVE/frameGrabs/Ventana/images/3167/01_28_00_14.jpg	36.826942	-122.16882	2464935	1.19	58:52.0	Ventana	34.152	01:28:00:14	7.21	Chondrichthyes	Rajidae	Raja			Animalia	Rajiformes	Chordata	Raja rhina	Elasmobranchii				Vertebrata			Eukaryota	Batoidea	V3167-02
"comment | self | cable taut upon seafloor, identity-gender | self | male, habitat | self | flat mud"	transect	Raja rhina	307.76	3167	01:26:07:25	http://search.mbari.org/ARCHIVE/frameGrabs/Ventana/images/3167/01_28_00_14.jpg	36.826942	-122.16882	2464936	1.19	58:52.0	Ventana	34.152	01:28:00:14	7.21	Chondrichthyes	Rajidae	Raja			Animalia	Rajiformes	Chordata	Raja rhina	Elasmobranchii				Vertebrata			Eukaryota	Batoidea	V3167-02
"comment | self | cable taut upon seafloor, identity-gender | self | male, habitat | self | flat mud"	transect	Raja rhina	307.76	3167	01:26:07:25	http://search.mbari.org/ARCHIVE/frameGrabs/Ventana/images/3167/01_28_00_14.jpg	36.826942	-122.16882	2464937	1.19	58:52.0	Ventana	34.152	01:28:00:14	7.21	Chondrichthyes	Rajidae	Raja			Animalia	Rajiformes	Chordata	Raja rhina	Elasmobranchii				Vertebrata			Eukaryota	Batoidea	V3167-02
"comment | self | cable taut upon seafloor, identity-gender | self | male, habitat | self | flat mud"	transect	Raja rhina	307.15	3167	01:26:13:25	 	36.82697	-122.16881	2464938	1.22	58:58.0	Ventana	34.147	01:28:04:24	7.163	Chondrichthyes	Rajidae	Raja			Animalia	Rajiformes	Chordata	Raja rhina	Elasmobranchii				Vertebrata			Eukaryota	Batoidea	V3167-02
"comment | self | cable taut upon seafloor, habitat | self | flat mud, life-stage | self | juvenile"	transect	Raja rhina	305.16	3167	01:27:44:07	 	36.827423	-122.168564	2464939	1.12	00:29.0	Ventana	34.159	01:29:35:25	7.026	Chondrichthyes	Rajidae	Raja			Animalia	Rajiformes	Chordata	Raja rhina	Elasmobranchii				Vertebrata			Eukaryota	Batoidea	V3167-02
"comment | self | cable taut upon seafloor, under | cable | nil, habitat | self | flat mud, life-stage | self | juvenile"	transect	Raja rhina	305.12	3167	01:27:50:07	 	36.827454	-122.16855	2464940	1.12	00:35.0	Ventana	34.159	01:29:41:00	7.026	Chondrichthyes	Rajidae	Raja			Animalia	Rajiformes	Chordata	Raja rhina	Elasmobranchii				Vertebrata			Eukaryota	Batoidea	V3167-02
"identity-gender | self | female, comment | self | cable taut upon seafloor, habitat | self | flat mud"	transect	Raja rhina	305.12	3167	01:27:50:07	 	36.827454	-122.16855	2464941	1.12	00:35.0	Ventana	34.159	01:29:41:00	7.026	Chondrichthyes	Rajidae	Raja			Animalia	Rajiformes	Chordata	Raja rhina	Elasmobranchii				Vertebrata			Eukaryota	Batoidea	V3167-02
"identity-gender | self | female, comment | self | cable taut upon seafloor, habitat | self | flat mud"	transect	Raja rhina	305.03	3167	01:28:02:21	 	36.827515	-122.16851	2464943	1.16	00:47.0	Ventana	34.154	01:29:53:06	7.099	Chondrichthyes	Rajidae	Raja			Animalia	Rajiformes	Chordata	Raja rhina	Elasmobranchii				Vertebrata			Eukaryota	Batoidea	V3167-02
"identity-gender | self | female, comment | self | cable taut upon seafloor, habitat | self | flat mud"	transect	Raja rhina	305.03	3167	01:28:02:21	 	36.827515	-122.16851	2464944	1.16	00:47.0	Ventana	34.154	01:29:53:06	7.099	Chondrichthyes	Rajidae	Raja			Animalia	Rajiformes	Chordata	Raja rhina	Elasmobranchii				Vertebrata			Eukaryota	Batoidea	V3167-02
"habitat | self | flat mud in depression near small scarp, comment | self | cable minor span, under | cable | nil, life-stage | self | juvenile"	transect	Raja rhina	305.04	3167	01:28:08:21	 	36.827553	-122.16849	2464946	1.13	00:53.0	Ventana	34.162	01:29:59:19	7	Chondrichthyes	Rajidae	Raja			Animalia	Rajiformes	Chordata	Raja rhina	Elasmobranchii				Vertebrata			Eukaryota	Batoidea	V3167-02
identity-reference | self | start: minor cable span	cruise	cable	305.03	3167	01:28:02:21	http://search.mbari.org/ARCHIVE/frameGrabs/Ventana/images/3167/01_29_54_15.jpg	36.827515	-122.16851	20023992	1.16	00:47.0	Ventana	34.154	01:29:54:15	7.099																			V3167-02
"habitat | self | flat mud in depression near small scarp, comment | self | cable minor span, life-stage | self | juvenile"	transect	Raja rhina	305.04	3167	01:28:08:21	 	36.827553	-122.16849	2464948	1.13	00:53.0	Ventana	34.162	01:29:59:19	7	Chondrichthyes	Rajidae	Raja			Animalia	Rajiformes	Chordata	Raja rhina	Elasmobranchii				Vertebrata			Eukaryota	Batoidea	V3167-02
"identity-gender | self | female, habitat | self | flat mud in depression near small scarp, comment | self | cable minor span"	transect	Raja rhina	305.04	3167	01:28:08:21	 	36.827553	-122.16849	2464949	1.13	00:53.0	Ventana	34.162	01:29:59:19	7	Chondrichthyes	Rajidae	Raja			Animalia	Rajiformes	Chordata	Raja rhina	Elasmobranchii				Vertebrata			Eukaryota	Batoidea	V3167-02
"identity-gender | self | female, habitat | self | flat mud in depression near small scarp, comment | self | cable minor span"	transect	Raja rhina	305.05	3167	01:28:12:21	http://search.mbari.org/ARCHIVE/frameGrabs/Ventana/images/3167/01_30_03_14.jpg	36.827568	-122.16848	2464950	1.13	00:57.0	Ventana	34.162	01:30:03:14	7	Chondrichthyes	Rajidae	Raja			Animalia	Rajiformes	Chordata	Raja rhina	Elasmobranchii				Vertebrata			Eukaryota	Batoidea	V3167-02
"habitat | self | flat mud in depression near small scarp, comment | self | cable minor span, life-stage | self | juvenile"	transect	Raja rhina	305.05	3167	01:28:12:21	http://search.mbari.org/ARCHIVE/frameGrabs/Ventana/images/3167/01_30_03_14.jpg	36.827568	-122.16848	2464952	1.13	00:57.0	Ventana	34.162	01:30:03:14	7	Chondrichthyes	Rajidae	Raja			Animalia	Rajiformes	Chordata	Raja rhina	Elasmobranchii				Vertebrata			Eukaryota	Batoidea	V3167-02
"habitat | self | flat mud in depression near small scarp, comment | self | cable minor span, life-stage | self | juvenile"	transect	Raja rhina	305.05	3167	01:28:12:21	http://search.mbari.org/ARCHIVE/frameGrabs/Ventana/images/3167/01_30_03_14.jpg	36.827568	-122.16848	2464953	1.13	00:57.0	Ventana	34.162	01:30:03:14	7	Chondrichthyes	Rajidae	Raja			Animalia	Rajiformes	Chordata	Raja rhina	Elasmobranchii				Vertebrata			Eukaryota	Batoidea	V3167-02
"habitat | self | flat mud in depression near small scarp, comment | self | cable minor span, life-stage | self | juvenile"	transect	Raja rhina	305.05	3167	01:28:12:21	http://search.mbari.org/ARCHIVE/frameGrabs/Ventana/images/3167/01_30_03_14.jpg	36.827568	-122.16848	2464954	1.13	00:57.0	Ventana	34.162	01:30:03:14	7	Chondrichthyes	Rajidae	Raja			Animalia	Rajiformes	Chordata	Raja rhina	Elasmobranchii				Vertebrata			Eukaryota	Batoidea	V3167-02
"identity-gender | self | female, habitat | self | flat mud in depression near small scarp, comment | self | cable minor span"	transect	Raja rhina	304.98	3167	01:28:16:21	 	36.827583	-122.168465	2464955	1.13	01:01.0	Ventana	34.162	01:30:07:09	7	Chondrichthyes	Rajidae	Raja			Animalia	Rajiformes	Chordata	Raja rhina	Elasmobranchii				Vertebrata			Eukaryota	Batoidea	V3167-02
"identity-gender | self | female, habitat | self | flat mud in depression near small scarp, comment | self | cable minor span"	transect	Raja rhina	304.98	3167	01:28:16:21	 	36.827583	-122.168465	2464956	1.13	01:01.0	Ventana	34.162	01:30:07:09	7	Chondrichthyes	Rajidae	Raja			Animalia	Rajiformes	Chordata	Raja rhina	Elasmobranchii				Vertebrata			Eukaryota	Batoidea	V3167-02
"identity-gender | self | female, habitat | self | flat mud in depression near small scarp, comment | self | cable minor span"	transect	Raja rhina	304.98	3167	01:28:16:21	 	36.827583	-122.168465	2464957	1.13	01:01.0	Ventana	34.162	01:30:07:09	7	Chondrichthyes	Rajidae	Raja			Animalia	Rajiformes	Chordata	Raja rhina	Elasmobranchii				Vertebrata			Eukaryota	Batoidea	V3167-02
"identity-gender | self | female, habitat | self | flat mud in depression near small scarp, comment | self | cable minor span"	transect	Raja rhina	304.98	3167	01:28:16:21	 	36.827583	-122.168465	2464958	1.13	01:01.0	Ventana	34.162	01:30:07:09	7	Chondrichthyes	Rajidae	Raja			Animalia	Rajiformes	Chordata	Raja rhina	Elasmobranchii				Vertebrata			Eukaryota	Batoidea	V3167-02
"identity-gender | self | female, habitat | self | flat mud in depression near small scarp, comment | self | cable minor span"	transect	Raja rhina	304.98	3167	01:28:16:21	 	36.827583	-122.168465	2464959	1.13	01:01.0	Ventana	34.162	01:30:07:09	7	Chondrichthyes	Rajidae	Raja			Animalia	Rajiformes	Chordata	Raja rhina	Elasmobranchii				Vertebrata			Eukaryota	Batoidea	V3167-02
"identity-gender | self | female, habitat | self | flat mud in depression near small scarp, comment | self | cable minor span"	transect	Raja rhina	304.98	3167	01:28:16:21	 	36.827583	-122.168465	2464960	1.13	01:01.0	Ventana	34.162	01:30:07:09	7	Chondrichthyes	Rajidae	Raja			Animalia	Rajiformes	Chordata	Raja rhina	Elasmobranchii				Vertebrata			Eukaryota	Batoidea	V3167-02
"habitat | self | flat mud in depression near small scarp, comment | self | cable minor span, life-stage | self | juvenile"	transect	Raja rhina	304.98	3167	01:28:16:21	 	36.827583	-122.168465	2464962	1.13	01:01.0	Ventana	34.162	01:30:07:09	7	Chondrichthyes	Rajidae	Raja			Animalia	Rajiformes	Chordata	Raja rhina	Elasmobranchii				Vertebrata			Eukaryota	Batoidea	V3167-02
under | cable | nil	transect	Ophiodon elongatus	304.82	3167	01:28:22:21	http://search.mbari.org/ARCHIVE/frameGrabs/Ventana/images/3167/01_30_13_25.jpg	36.82761	-122.16845	2464963	1.13	01:07.0	Ventana	34.162	01:30:13:25	7	Osteichthyes	Hexagrammidae	Ophiodon	Neopterygii		Animalia	Scorpaeniformes	Chordata	Ophiodon elongatus	Actinopterygii			Hexagrammoidei	Vertebrata	Gnathostomata		Eukaryota	Acanthopterygii	V3167-02
"habitat | self | flat mud in depression near small scarp, comment | self | cable minor span, identity-gender | self | male"	transect	Raja rhina	304.82	3167	01:28:22:21	http://search.mbari.org/ARCHIVE/frameGrabs/Ventana/images/3167/01_30_13_25.jpg	36.82761	-122.16845	2464964	1.13	01:07.0	Ventana	34.162	01:30:13:25	7	Chondrichthyes	Rajidae	Raja			Animalia	Rajiformes	Chordata	Raja rhina	Elasmobranchii				Vertebrata			Eukaryota	Batoidea	V3167-02
"identity-gender | self | female, habitat | self | flat mud in depression near small scarp, comment | self | cable minor span"	transect	Raja rhina	304.79	3167	01:28:24:20	 	36.827618	-122.16845	2464965	1.1	01:09.0	Ventana	34.162	01:30:15:17	6.963	Chondrichthyes	Rajidae	Raja			Animalia	Rajiformes	Chordata	Raja rhina	Elasmobranchii				Vertebrata			Eukaryota	Batoidea	V3167-02
"identity-gender | self | female, habitat | self | flat mud in depression near small scarp, comment | self | cable minor span"	transect	Raja rhina	304.79	3167	01:28:24:20	 	36.827618	-122.16845	2464966	1.1	01:09.0	Ventana	34.162	01:30:15:17	6.963	Chondrichthyes	Rajidae	Raja			Animalia	Rajiformes	Chordata	Raja rhina	Elasmobranchii				Vertebrata			Eukaryota	Batoidea	V3167-02
"identity-gender | self | female, habitat | self | flat mud in depression near small scarp, comment | self | cable minor span"	transect	Raja rhina	304.79	3167	01:28:24:20	 	36.827618	-122.16845	2464967	1.1	01:09.0	Ventana	34.162	01:30:15:17	6.963	Chondrichthyes	Rajidae	Raja			Animalia	Rajiformes	Chordata	Raja rhina	Elasmobranchii				Vertebrata			Eukaryota	Batoidea	V3167-02
"habitat | self | flat mud in depression near small scarp, comment | self | cable minor span, life-stage | self | juvenile"	transect	Raja rhina	304.79	3167	01:28:24:20	 	36.827618	-122.16845	2464968	1.1	01:09.0	Ventana	34.162	01:30:15:17	6.963	Chondrichthyes	Rajidae	Raja			Animalia	Rajiformes	Chordata	Raja rhina	Elasmobranchii				Vertebrata			Eukaryota	Batoidea	V3167-02
"habitat | self | flat mud in depression near small scarp, comment | self | cable minor span, life-stage | self | juvenile"	transect	Raja rhina	304.79	3167	01:28:24:20	 	36.827618	-122.16845	2464969	1.1	01:09.0	Ventana	34.162	01:30:15:17	6.963	Chondrichthyes	Rajidae	Raja			Animalia	Rajiformes	Chordata	Raja rhina	Elasmobranchii				Vertebrata			Eukaryota	Batoidea	V3167-02
"identity-gender | self | female, habitat | self | flat mud in depression near small scarp, comment | self | cable minor span"	transect	Raja rhina	304.79	3167	01:28:24:20	 	36.827618	-122.16845	2464970	1.1	01:09.0	Ventana	34.162	01:30:15:17	6.963	Chondrichthyes	Rajidae	Raja			Animalia	Rajiformes	Chordata	Raja rhina	Elasmobranchii				Vertebrata			Eukaryota	Batoidea	V3167-02
"habitat | self | flat mud in depression near small scarp, comment | self | cable minor span, identity-gender | self | male"	transect	Raja rhina	304.79	3167	01:28:24:20	 	36.827618	-122.16845	2464971	1.1	01:09.0	Ventana	34.162	01:30:15:17	6.963	Chondrichthyes	Rajidae	Raja			Animalia	Rajiformes	Chordata	Raja rhina	Elasmobranchii				Vertebrata			Eukaryota	Batoidea	V3167-02
"identity-gender | self | female, habitat | self | flat mud in depression near small scarp, comment | self | cable minor span"	transect	Raja rhina	304.7	3167	01:28:30:20	 	36.827644	-122.168434	2464973	1.1	01:15.0	Ventana	34.162	01:30:22:24	6.963	Chondrichthyes	Rajidae	Raja			Animalia	Rajiformes	Chordata	Raja rhina	Elasmobranchii				Vertebrata			Eukaryota	Batoidea	V3167-02
"habitat | self | flat mud in depression near small scarp, comment | self | cable minor span, identity-gender | self | male"	transect	Raja rhina	304.63	3167	01:28:32:20	 	36.827652	-122.16843	2465011	1.1	01:17.0	Ventana	34.162	01:30:24:00	6.963	Chondrichthyes	Rajidae	Raja			Animalia	Rajiformes	Chordata	Raja rhina	Elasmobranchii				Vertebrata			Eukaryota	Batoidea	V3167-02
"identity-gender | self | female, habitat | self | flat mud in depression near small scarp, comment | self | cable minor span"	transect	Raja rhina	304.63	3167	01:28:32:20	 	36.827652	-122.16843	2465014	1.1	01:17.0	Ventana	34.162	01:30:24:00	6.963	Chondrichthyes	Rajidae	Raja			Animalia	Rajiformes	Chordata	Raja rhina	Elasmobranchii				Vertebrata			Eukaryota	Batoidea	V3167-02
"identity-gender | self | female, habitat | self | flat mud in depression near small scarp, comment | self | cable minor span"	transect	Raja rhina	304.63	3167	01:28:32:20	 	36.827652	-122.16843	2465015	1.1	01:17.0	Ventana	34.162	01:30:24:00	6.963	Chondrichthyes	Rajidae	Raja			Animalia	Rajiformes	Chordata	Raja rhina	Elasmobranchii				Vertebrata			Eukaryota	Batoidea	V3167-02
"identity-gender | self | female, habitat | self | flat mud in depression near small scarp, comment | self | cable minor span"	transect	Raja rhina	304.49	3167	01:28:36:20	 	36.827667	-122.16842	2465018	1.1	01:21.0	Ventana	34.162	01:30:27:06	6.963	Chondrichthyes	Rajidae	Raja			Animalia	Rajiformes	Chordata	Raja rhina	Elasmobranchii				Vertebrata			Eukaryota	Batoidea	V3167-02
"identity-gender | self | female, habitat | self | flat mud in depression near small scarp, comment | self | cable minor span"	transect	Raja rhina	304.49	3167	01:28:36:20	 	36.827667	-122.16842	2465019	1.1	01:21.0	Ventana	34.162	01:30:27:06	6.963	Chondrichthyes	Rajidae	Raja			Animalia	Rajiformes	Chordata	Raja rhina	Elasmobranchii				Vertebrata			Eukaryota	Batoidea	V3167-02
"identity-gender | self | female, habitat | self | flat mud in depression near small scarp, comment | self | cable minor span"	transect	Raja rhina	304.49	3167	01:28:36:20	 	36.827667	-122.16842	2465021	1.1	01:21.0	Ventana	34.162	01:30:27:06	6.963	Chondrichthyes	Rajidae	Raja			Animalia	Rajiformes	Chordata	Raja rhina	Elasmobranchii				Vertebrata			Eukaryota	Batoidea	V3167-02
"habitat | self | flat mud in depression near small scarp, comment | self | cable minor span, identity-gender | self | male"	transect	Raja rhina	304.49	3167	01:28:36:20	 	36.827667	-122.16842	2465024	1.1	01:21.0	Ventana	34.162	01:30:27:06	6.963	Chondrichthyes	Rajidae	Raja			Animalia	Rajiformes	Chordata	Raja rhina	Elasmobranchii				Vertebrata			Eukaryota	Batoidea	V3167-02
"identity-gender | self | female, habitat | self | flat mud in depression near small scarp, comment | self | cable minor span"	transect	Raja rhina	304.33	3167	01:28:40:20	 	36.827682	-122.16841	2465033	1.09	01:25.0	Ventana	34.165	01:30:31:22	6.947	Chondrichthyes	Rajidae	Raja			Animalia	Rajiformes	Chordata	Raja rhina	Elasmobranchii				Vertebrata			Eukaryota	Batoidea	V3167-02
"identity-gender | self | female, habitat | self | flat mud in depression near small scarp, comment | self | cable minor span"	transect	Raja rhina	304.33	3167	01:28:40:20	 	36.827682	-122.16841	2465034	1.09	01:25.0	Ventana	34.165	01:30:31:22	6.947	Chondrichthyes	Rajidae	Raja			Animalia	Rajiformes	Chordata	Raja rhina	Elasmobranchii				Vertebrata			Eukaryota	Batoidea	V3167-02
"identity-gender | self | female, habitat | self | flat mud in depression near small scarp, comment | self | cable minor span"	transect	Raja rhina	304.33	3167	01:28:40:20	 	36.827682	-122.16841	2465035	1.09	01:25.0	Ventana	34.165	01:30:31:22	6.947	Chondrichthyes	Rajidae	Raja			Animalia	Rajiformes	Chordata	Raja rhina	Elasmobranchii				Vertebrata			Eukaryota	Batoidea	V3167-02
"habitat | self | flat mud in depression near small scarp, comment | self | cable minor span, identity-gender | self | male"	transect	Raja rhina	304.33	3167	01:28:40:20	 	36.827682	-122.16841	2465039	1.09	01:25.0	Ventana	34.165	01:30:31:22	6.947	Chondrichthyes	Rajidae	Raja			Animalia	Rajiformes	Chordata	Raja rhina	Elasmobranchii				Vertebrata			Eukaryota	Batoidea	V3167-02
"habitat | self | flat mud in depression near small scarp, comment | self | cable minor span, identity-gender | self | male"	transect	Raja rhina	304.33	3167	01:28:40:20	 	36.827682	-122.16841	2465040	1.09	01:25.0	Ventana	34.165	01:30:31:22	6.947	Chondrichthyes	Rajidae	Raja			Animalia	Rajiformes	Chordata	Raja rhina	Elasmobranchii				Vertebrata			Eukaryota	Batoidea	V3167-02
"habitat | self | flat mud in depression near small scarp, comment | self | cable minor span, under | cable | nil, life-stage | self | juvenile"	transect	Raja rhina	304.33	3167	01:28:40:20	 	36.827682	-122.16841	2465043	1.09	01:25.0	Ventana	34.165	01:30:31:22	6.947	Chondrichthyes	Rajidae	Raja			Animalia	Rajiformes	Chordata	Raja rhina	Elasmobranchii				Vertebrata			Eukaryota	Batoidea	V3167-02
"habitat | self | flat mud in depression near small scarp, comment | self | cable minor span, identity-gender | self | male"	transect	Raja rhina	304.33	3167	01:28:42:20	 	36.82769	-122.1684	2465047	1.09	01:27.0	Ventana	34.165	01:30:34:11	6.947	Chondrichthyes	Rajidae	Raja			Animalia	Rajiformes	Chordata	Raja rhina	Elasmobranchii				Vertebrata			Eukaryota	Batoidea	V3167-02
"identity-gender | self | female, habitat | self | flat mud in depression near small scarp, comment | self | cable minor span"	transect	Raja rhina	304.33	3167	01:28:42:20	 	36.82769	-122.1684	2465048	1.09	01:27.0	Ventana	34.165	01:30:34:11	6.947	Chondrichthyes	Rajidae	Raja			Animalia	Rajiformes	Chordata	Raja rhina	Elasmobranchii				Vertebrata			Eukaryota	Batoidea	V3167-02
"identity-gender | self | female, habitat | self | flat mud in depression near small scarp, comment | self | cable minor span"	transect	Raja rhina	304.33	3167	01:28:42:20	 	36.82769	-122.1684	2465049	1.09	01:27.0	Ventana	34.165	01:30:34:11	6.947	Chondrichthyes	Rajidae	Raja			Animalia	Rajiformes	Chordata	Raja rhina	Elasmobranchii				Vertebrata			Eukaryota	Batoidea	V3167-02
"habitat | self | flat mud in depression near small scarp, comment | self | cable minor span, identity-gender | self | male"	transect	Raja rhina	304.26	3167	01:28:46:20	 	36.827705	-122.168396	2465053	1.09	01:31.0	Ventana	34.165	01:30:38:12	6.947	Chondrichthyes	Rajidae	Raja			Animalia	Rajiformes	Chordata	Raja rhina	Elasmobranchii				Vertebrata			Eukaryota	Batoidea	V3167-02
"habitat | self | flat mud in depression near small scarp, comment | self | cable minor span, identity-gender | self | male"	transect	Raja rhina	304.26	3167	01:28:46:20	 	36.827705	-122.168396	2465055	1.09	01:31.0	Ventana	34.165	01:30:38:12	6.947	Chondrichthyes	Rajidae	Raja			Animalia	Rajiformes	Chordata	Raja rhina	Elasmobranchii				Vertebrata			Eukaryota	Batoidea	V3167-02
"identity-gender | self | female, habitat | self | flat mud in depression near small scarp, comment | self | cable minor span"	transect	Raja rhina	304.26	3167	01:28:46:20	 	36.827705	-122.168396	2465058	1.09	01:31.0	Ventana	34.165	01:30:38:12	6.947	Chondrichthyes	Rajidae	Raja			Animalia	Rajiformes	Chordata	Raja rhina	Elasmobranchii				Vertebrata			Eukaryota	Batoidea	V3167-02
"identity-gender | self | female, habitat | self | flat mud in depression near small scarp, comment | self | cable minor span"	transect	Raja rhina	304.26	3167	01:28:46:20	 	36.827705	-122.168396	2465059	1.09	01:31.0	Ventana	34.165	01:30:38:12	6.947	Chondrichthyes	Rajidae	Raja			Animalia	Rajiformes	Chordata	Raja rhina	Elasmobranchii				Vertebrata			Eukaryota	Batoidea	V3167-02
"habitat | self | flat mud in depression near small scarp, comment | self | cable taut upon seafloor, identity-gender | self | male"	transect	Raja rhina	303.87	3167	01:28:52:19	 	36.82773	-122.16838	2465063	1.09	01:37.0	Ventana	34.165	01:30:44:08	6.947	Chondrichthyes	Rajidae	Raja			Animalia	Rajiformes	Chordata	Raja rhina	Elasmobranchii				Vertebrata			Eukaryota	Batoidea	V3167-02
"habitat | self | flat mud in depression near small scarp, comment | self | cable taut upon seafloor, identity-gender | self | male"	transect	Raja rhina	303.8	3167	01:28:56:20	 	36.827744	-122.16837	2465078	1.09	01:41.0	Ventana	34.163	01:30:47:04	6.964	Chondrichthyes	Rajidae	Raja			Animalia	Rajiformes	Chordata	Raja rhina	Elasmobranchii				Vertebrata			Eukaryota	Batoidea	V3167-02
"identity-gender | self | female, habitat | self | flat mud in depression near small scarp, comment | self | cable taut upon seafloor"	transect	Raja rhina	303.8	3167	01:28:56:20	 	36.827744	-122.16837	2465079	1.09	01:41.0	Ventana	34.163	01:30:47:04	6.964	Chondrichthyes	Rajidae	Raja			Animalia	Rajiformes	Chordata	Raja rhina	Elasmobranchii				Vertebrata			Eukaryota	Batoidea	V3167-02
"swimming | nil | nil, comment | self | cable taut upon seafloor, identity-gender | self | male, habitat | self | flat mud"	transect	Raja rhina	303.68	3167	01:29:02:20	 	36.827766	-122.16836	2465091	1.09	01:47.0	Ventana	34.163	01:30:54:09	6.964	Chondrichthyes	Rajidae	Raja			Animalia	Rajiformes	Chordata	Raja rhina	Elasmobranchii				Vertebrata			Eukaryota	Batoidea	V3167-02
"identity-gender | self | female, comment | self | cable taut upon seafloor, habitat | self | flat mud"	transect	Raja rhina	303.68	3167	01:29:02:20	 	36.827766	-122.16836	2465097	1.09	01:47.0	Ventana	34.163	01:30:54:09	6.964	Chondrichthyes	Rajidae	Raja			Animalia	Rajiformes	Chordata	Raja rhina	Elasmobranchii				Vertebrata			Eukaryota	Batoidea	V3167-02
"identity-gender | self | female, comment | self | cable taut upon seafloor, habitat | self | flat mud"	transect	Raja rhina	303.68	3167	01:29:02:20	 	36.827766	-122.16836	2465098	1.09	01:47.0	Ventana	34.163	01:30:54:09	6.964	Chondrichthyes	Rajidae	Raja			Animalia	Rajiformes	Chordata	Raja rhina	Elasmobranchii				Vertebrata			Eukaryota	Batoidea	V3167-02
"identity-gender | self | female, comment | self | cable taut upon seafloor, habitat | self | flat mud"	transect	Raja rhina	303.73	3167	01:29:00:19	 	36.82776	-122.168365	2465129	1.09	01:45.0	Ventana	34.163	01:30:51:20	6.964	Chondrichthyes	Rajidae	Raja			Animalia	Rajiformes	Chordata	Raja rhina	Elasmobranchii				Vertebrata			Eukaryota	Batoidea	V3167-02
"identity-gender | self | female, comment | self | cable taut upon seafloor, habitat | self | flat mud"	transect	Raja rhina	303.73	3167	01:29:00:19	 	36.82776	-122.168365	2465130	1.09	01:45.0	Ventana	34.163	01:30:51:20	6.964	Chondrichthyes	Rajidae	Raja			Animalia	Rajiformes	Chordata	Raja rhina	Elasmobranchii				Vertebrata			Eukaryota	Batoidea	V3167-02
"swimming | nil | nil, comment | self | cable taut upon seafloor, identity-gender | self | male, habitat | self | flat mud"	transect	Raja rhina	303.66	3167	01:29:04:19	 	36.827778	-122.16836	2465138	1.09	01:49.0	Ventana	34.163	01:30:57:06	6.964	Chondrichthyes	Rajidae	Raja			Animalia	Rajiformes	Chordata	Raja rhina	Elasmobranchii				Vertebrata			Eukaryota	Batoidea	V3167-02
"identity-gender | self | female, comment | self | cable taut upon seafloor, habitat | self | flat mud"	transect	Raja rhina	303.48	3167	01:29:08:19	 	36.827793	-122.16835	2465143	1.12	01:53.0	Ventana	34.159	01:31:00:09	7.03	Chondrichthyes	Rajidae	Raja			Animalia	Rajiformes	Chordata	Raja rhina	Elasmobranchii				Vertebrata			Eukaryota	Batoidea	V3167-02
"identity-gender | self | female, comment | self | cable taut upon seafloor, habitat | self | flat mud"	transect	Raja rhina	303.39	3167	01:29:10:19	 	36.8278	-122.16834	2465145	1.12	01:55.0	Ventana	34.159	01:31:03:00	7.03	Chondrichthyes	Rajidae	Raja			Animalia	Rajiformes	Chordata	Raja rhina	Elasmobranchii				Vertebrata			Eukaryota	Batoidea	V3167-02
"identity-gender | self | female, comment | self | cable taut upon seafloor, habitat | self | flat mud"	transect	Raja rhina	303.39	3167	01:29:10:19	 	36.8278	-122.16834	2465146	1.12	01:55.0	Ventana	34.159	01:31:03:00	7.03	Chondrichthyes	Rajidae	Raja			Animalia	Rajiformes	Chordata	Raja rhina	Elasmobranchii				Vertebrata			Eukaryota	Batoidea	V3167-02
"identity-gender | self | female, comment | self | cable taut upon seafloor, habitat | self | flat mud"	transect	Raja rhina	303.39	3167	01:29:10:19	 	36.8278	-122.16834	2465147	1.12	01:55.0	Ventana	34.159	01:31:02:26	7.03	Chondrichthyes	Rajidae	Raja			Animalia	Rajiformes	Chordata	Raja rhina	Elasmobranchii				Vertebrata			Eukaryota	Batoidea	V3167-02
"comment | self | cable taut upon seafloor, habitat | self | flat mud, life-stage | self | juvenile"	transect	Raja rhina	303.28	3167	01:29:14:19	http://search.mbari.org/ARCHIVE/frameGrabs/Ventana/images/3167/01_31_06_22.jpg	36.827816	-122.168335	2465171	1.12	01:59.0	Ventana	34.159	01:31:06:22	7.03	Chondrichthyes	Rajidae	Raja			Animalia	Rajiformes	Chordata	Raja rhina	Elasmobranchii				Vertebrata			Eukaryota	Batoidea	V3167-02
"comment | self | cable taut upon seafloor, habitat | self | flat mud, life-stage | self | juvenile"	transect	Raja rhina	303.28	3167	01:29:14:19	http://search.mbari.org/ARCHIVE/frameGrabs/Ventana/images/3167/01_31_06_22.jpg	36.827816	-122.168335	2465179	1.12	01:59.0	Ventana	34.159	01:31:06:22	7.03	Chondrichthyes	Rajidae	Raja			Animalia	Rajiformes	Chordata	Raja rhina	Elasmobranchii				Vertebrata			Eukaryota	Batoidea	V3167-02
"identity-gender | self | female, comment | self | cable taut upon seafloor, habitat | self | flat mud"	transect	Raja rhina	303.17	3167	01:29:18:19	 	36.82783	-122.16832	2465192	1.12	02:03.0	Ventana	34.159	01:31:11:04	7.03	Chondrichthyes	Rajidae	Raja			Animalia	Rajiformes	Chordata	Raja rhina	Elasmobranchii				Vertebrata			Eukaryota	Batoidea	V3167-02
"comment | self | cable taut upon seafloor, identity-gender | self | male, habitat | self | flat mud"	transect	Raja rhina	303.17	3167	01:29:18:19	 	36.82783	-122.16832	2465194	1.12	02:03.0	Ventana	34.159	01:31:11:04	7.03	Chondrichthyes	Rajidae	Raja			Animalia	Rajiformes	Chordata	Raja rhina	Elasmobranchii				Vertebrata			Eukaryota	Batoidea	V3167-02
"comment | self | cable taut upon seafloor, habitat | self | flat mud, life-stage | self | juvenile"	transect	Raja rhina	303.07	3167	01:29:24:19	 	36.827854	-122.168304	2465203	1.14	02:09.0	Ventana	34.159	01:31:16:24	7.042	Chondrichthyes	Rajidae	Raja			Animalia	Rajiformes	Chordata	Raja rhina	Elasmobranchii				Vertebrata			Eukaryota	Batoidea	V3167-02
"identity-gender | self | female, habitat | self | flat mud in depression near small scarp, comment | self | cable taut upon seafloor"	transect	Raja rhina	303.07	3167	01:29:24:19	 	36.827854	-122.168304	2465214	1.14	02:09.0	Ventana	34.159	01:31:16:24	7.042	Chondrichthyes	Rajidae	Raja			Animalia	Rajiformes	Chordata	Raja rhina	Elasmobranchii				Vertebrata			Eukaryota	Batoidea	V3167-02
"habitat | self | flat mud in depression near small scarp, comment | self | cable taut upon seafloor, identity-gender | self | male"	transect	Raja rhina	303.07	3167	01:29:24:19	 	36.827854	-122.168304	2465222	1.14	02:09.0	Ventana	34.159	01:31:16:24	7.042	Chondrichthyes	Rajidae	Raja			Animalia	Rajiformes	Chordata	Raja rhina	Elasmobranchii				Vertebrata			Eukaryota	Batoidea	V3167-02
"identity-gender | self | female, habitat | self | flat mud in depression near small scarp, comment | self | cable taut upon seafloor"	transect	Raja rhina	303.1	3167	01:29:30:19	 	36.827877	-122.16829	2465228	1.14	02:15.0	Ventana	34.159	01:31:22:07	7.042	Chondrichthyes	Rajidae	Raja			Animalia	Rajiformes	Chordata	Raja rhina	Elasmobranchii				Vertebrata			Eukaryota	Batoidea	V3167-02
"identity-gender | self | female, habitat | self | flat mud in depression near small scarp, comment | self | cable taut upon seafloor"	transect	Raja rhina	303.1	3167	01:29:30:19	 	36.827877	-122.16829	2465229	1.14	02:15.0	Ventana	34.159	01:31:22:07	7.042	Chondrichthyes	Rajidae	Raja			Animalia	Rajiformes	Chordata	Raja rhina	Elasmobranchii				Vertebrata			Eukaryota	Batoidea	V3167-02
"identity-gender | self | female, habitat | self | flat mud in depression near small scarp, comment | self | cable taut upon seafloor"	transect	Raja rhina	303.11	3167	01:29:26:18	 	36.82786	-122.168304	2465251	1.14	02:11.0	Ventana	34.159	01:31:18:19	7.042	Chondrichthyes	Rajidae	Raja			Animalia	Rajiformes	Chordata	Raja rhina	Elasmobranchii				Vertebrata			Eukaryota	Batoidea	V3167-02
comment | self | moving away from the cable 	cruise	physical object	302.66	3167	01:30:27:01	 	36.827995	-122.16815	2465268	1.09	03:12.0	Ventana	34.163	01:32:19:06	6.956																			V3167-02
life-stage | self | juvenile	cruise	Raja rhina	302.57	3167	01:30:43:01	 	36.827995	-122.1681	2389464	1.09	03:28.0	Ventana	34.163	01:32:33:24	6.958	Chondrichthyes	Rajidae	Raja			Animalia	Rajiformes	Chordata	Raja rhina	Elasmobranchii				Vertebrata			Eukaryota	Batoidea	V3167-02
population-density | self | dense	cruise	Sebastes	304.42	3167	01:31:39:14	http://search.mbari.org/ARCHIVE/frameGrabs/Ventana/images/3167/01_33_31_12.jpg	36.827904	-122.16785	2389493	1.08	04:24.0	Ventana	34.165	01:33:31:12	6.936	Osteichthyes	Scorpaenidae	Sebastes	Neopterygii		Animalia	Scorpaeniformes	Chordata		Actinopterygii			Scorpaenoidei	Vertebrata	Gnathostomata		Eukaryota	Acanthopterygii	V3167-02
population-density | self | dense	cruise	Sebastes	306.34	3167	01:31:55:14	 	36.827866	-122.16777	2389502	1.08	04:40.0	Ventana	34.165	01:33:46:04	6.934	Osteichthyes	Scorpaenidae	Sebastes	Neopterygii		Animalia	Scorpaeniformes	Chordata		Actinopterygii			Scorpaenoidei	Vertebrata	Gnathostomata		Eukaryota	Acanthopterygii	V3167-02
population-density | self | dense	cruise	Sebastes	304.42	3167	01:31:39:14	http://search.mbari.org/ARCHIVE/frameGrabs/Ventana/images/3167/01_33_30_23.jpg	36.827904	-122.16785	2465351	1.08	04:24.0	Ventana	34.165	01:33:30:23	6.936	Osteichthyes	Scorpaenidae	Sebastes	Neopterygii		Animalia	Scorpaeniformes	Chordata		Actinopterygii			Scorpaenoidei	Vertebrata	Gnathostomata		Eukaryota	Acanthopterygii	V3167-02
population-density | self | dense	cruise	Sebastes	306.34	3167	01:31:55:14	 	36.827866	-122.16777	2465479	1.08	04:40.0	Ventana	34.165	01:33:47:11	6.934	Osteichthyes	Scorpaenidae	Sebastes	Neopterygii		Animalia	Scorpaeniformes	Chordata		Actinopterygii			Scorpaenoidei	Vertebrata	Gnathostomata		Eukaryota	Acanthopterygii	V3167-02
population-density | self | dense	cruise	Sebastes	308.8	3167	01:34:05:25	http://search.mbari.org/ARCHIVE/frameGrabs/Ventana/images/3167/01_35_57_03.jpg	36.82736	-122.16771	20024002	1.08	06:51.0	Ventana	34.165	01:35:57:03	6.927	Osteichthyes	Scorpaenidae	Sebastes	Neopterygii		Animalia	Scorpaeniformes	Chordata		Actinopterygii			Scorpaenoidei	Vertebrata	Gnathostomata		Eukaryota	Acanthopterygii	V3167-02
"identity-gender | self | female, habitat | self | flat mud"	transect	Raja rhina	308.97	3167	01:34:52:09	http://search.mbari.org/ARCHIVE/frameGrabs/Ventana/images/3167/01_36_43_17.jpg	36.827065	-122.16783	20024006	1.08	07:37.0	Ventana	34.165	01:36:43:17	6.933	Chondrichthyes	Rajidae	Raja			Animalia	Rajiformes	Chordata	Raja rhina	Elasmobranchii				Vertebrata			Eukaryota	Batoidea	V3167-02
comment | self | end: repeat of cable; start: cable upon seafloor	cruise	cable	302.97	3167	01:44:50:21	http://search.mbari.org/ARCHIVE/frameGrabs/Ventana/images/3167/01_46_40_28.jpg	36.82806	-122.16819	20024020	1.12	17:36.0	Ventana	34.163	01:46:40:28	6.994																			V3167-02
identity-reference | self | start: minor cable span	cruise	cable	303.48	3167	01:46:35:03	 	36.82869	-122.16785	2465483	1.09	19:21.0	Ventana	34.163	01:48:25:25	6.966																			V3167-02
identity-reference | self | end: minor cable suspension	cruise	cable	305.91	3167	01:48:31:14	 	36.829094	-122.16762	2465484	1.1	21:17.0	Ventana	34.163	01:50:23:26	6.962																			V3167-02
"identity-reference | self | start: cable shallow burial, sinking with sediment on top"	cruise	cable	308.08	3167	01:53:40:20	http://search.mbari.org/ARCHIVE/frameGrabs/Ventana/images/3167/01_55_31_27.jpg	36.830566	-122.16661	20024025	1.09	26:27.0	Ventana	34.164	01:55:31:27	6.951																			V3167-02
identity-reference | self | start: minor cable suspension	cruise	cable	306.04	3167	01:49:05:28	http://search.mbari.org/ARCHIVE/frameGrabs/Ventana/images/3167/01_50_56_10.jpg	36.82927	-122.16753	2465485	1.09	21:51.0	Ventana	34.165	01:50:56:10	6.95																			V3167-02
identity-reference | self | end: minor cable suspension	cruise	cable	306.65	3167	01:49:25:28	 	36.829376	-122.16746	2465486	1.09	22:12.0	Ventana	34.164	01:51:17:13	6.953																			V3167-02
identity-reference | self | start: minor cable span	cruise	cable	307.98	3167	01:50:46:10	 	36.829803	-122.16721	2465494	1.1	23:32.0	Ventana	34.163	01:52:37:22	6.968																			V3167-02
identity-reference | self | end: minor cable suspension	cruise	cable	308.96	3167	01:51:24:09	 	36.829987	-122.1671	2465495	1.09	24:10.0	Ventana	34.163	01:53:14:25	6.957																			V3167-02
identity-reference | self | start: minor cable span	cruise	cable	308.7	3167	01:51:44:08	 	36.83008	-122.16703	2465497	1.1	24:30.0	Ventana	34.163	01:53:35:29	6.96																			V3167-02
identity-reference | self | end: minor cable suspension	cruise	cable	309.06	3167	01:52:08:08	 	36.830185	-122.166954	2465499	1.09	24:54.0	Ventana	34.163	01:53:59:22	6.959																			V3167-02
population-quantity | self | 999	cruise	Rathbunaster californicus	309.02	3167	01:52:10:08	 	36.830193	-122.16695	2465500	1.09	24:56.0	Ventana	34.163	01:54:02:14	6.959		Labidiasteridae	Rathbunaster			Animalia	Forcipulatida	Echinodermata	Rathbunaster californicus	Asteroidea							Eukaryota		V3167-02
population-density | self | dense	cruise	Sebastes	308.92	3167	01:52:14:08	 	36.830215	-122.16693	2465501	1.09	25:00.0	Ventana	34.163	01:54:05:11	6.959	Osteichthyes	Scorpaenidae	Sebastes	Neopterygii		Animalia	Scorpaeniformes	Chordata		Actinopterygii			Scorpaenoidei	Vertebrata	Gnathostomata		Eukaryota	Acanthopterygii	V3167-02
population-quantity | self | 999	cruise	Parastichopus leukothele	308.99	3167	01:52:18:23	 	36.830235	-122.166916	2465502	1.09	25:04.0	Ventana	34.163	01:54:10:23	6.959	Holothuroidea	Stichopodidae	Parastichopus			Animalia	Aspidochirotida	Echinodermata	Parastichopus leukothele	Aspidochirotacea							Eukaryota		V3167-02
population-quantity | self | 999	cruise	Allocentrotus fragilis	308.93	3167	01:52:22:22	 	36.83025	-122.1669	2465503	1.09	25:08.0	Ventana	34.164	01:54:14:18	6.96	Echinoidea	Strongylocentrotidae	Allocentrotus			Animalia	Echinoida	Echinodermata	Allocentrotus fragilis	Euechinoidea			Echinacea				Eukaryota		V3167-02
population-quantity | self | 999	cruise	Sebastes diploproa	309.12	3167	01:52:42:21	 	36.83033	-122.16683	2465508	1.09	25:28.0	Ventana	34.163	01:54:33:19	6.958	Osteichthyes	Scorpaenidae	Sebastes	Neopterygii		Animalia	Scorpaeniformes	Chordata	Sebastes diploproa	Actinopterygii			Scorpaenoidei	Vertebrata	Gnathostomata		Eukaryota	Acanthopterygii	V3167-02
population-quantity | self | 999	cruise	Sebastes diploproa	308.78	3167	01:53:08:21	 	36.830437	-122.16673	2465510	1.09	25:55.0	Ventana	34.163	01:55:00:27	6.956	Osteichthyes	Scorpaenidae	Sebastes	Neopterygii		Animalia	Scorpaeniformes	Chordata	Sebastes diploproa	Actinopterygii			Scorpaenoidei	Vertebrata	Gnathostomata		Eukaryota	Acanthopterygii	V3167-02
population-quantity | self | 999	cruise	Allocentrotus fragilis	308.51	3167	01:53:18:20	 	36.830475	-122.166695	2465511	1.09	26:05.0	Ventana	34.163	01:55:10:23	6.956	Echinoidea	Strongylocentrotidae	Allocentrotus			Animalia	Echinoida	Echinodermata	Allocentrotus fragilis	Euechinoidea			Echinacea				Eukaryota		V3167-02
population-quantity | self | 999	cruise	Rathbunaster californicus	308.25	3167	01:53:30:20	 	36.83052	-122.16665	2465512	1.09	26:17.0	Ventana	34.164	01:55:22:25	6.951		Labidiasteridae	Rathbunaster			Animalia	Forcipulatida	Echinodermata	Rathbunaster californicus	Asteroidea							Eukaryota		V3167-02
population-quantity | self | 999	cruise	Rathbunaster californicus	307.58	3167	01:54:01:04	 	36.83067	-122.16653	2465515	1.09	26:47.0	Ventana	34.164	01:55:52:25	6.954		Labidiasteridae	Rathbunaster			Animalia	Forcipulatida	Echinodermata	Rathbunaster californicus	Asteroidea							Eukaryota		V3167-02
population-quantity | self | 999	cruise	Parastichopus leukothele	306.74	3167	01:54:23:03	 	36.830788	-122.166435	2465517	1.09	27:09.0	Ventana	34.163	01:56:14:07	6.956	Holothuroidea	Stichopodidae	Parastichopus			Animalia	Aspidochirotida	Echinodermata	Parastichopus leukothele	Aspidochirotacea							Eukaryota		V3167-02
identity-reference | self | start: minor cable span	cruise	cable	306.67	3167	01:54:25:03	 	36.8308	-122.16643	2465518	1.09	27:11.0	Ventana	34.163	01:56:16:16	6.956																			V3167-02
identity-reference | self | end: minor cable suspension	cruise	cable	305.29	3167	01:54:45:03	 	36.830906	-122.16634	2465519	1.09	27:31.0	Ventana	34.164	01:56:35:13	6.959																			V3167-02
identity-reference | self | start: minor cable span	cruise	cable	303.85	3167	01:55:13:02	 	36.831047	-122.16623	2465520	1.09	27:59.0	Ventana	34.164	01:57:05:04	6.958																			V3167-02
identity-reference | self | end: minor cable suspension	cruise	cable	303.53	3167	01:55:29:01	http://search.mbari.org/ARCHIVE/frameGrabs/Ventana/images/3167/01_57_20_06.jpg	36.831135	-122.166145	2465523	1.09	28:15.0	Ventana	34.164	01:57:20:06	6.957																			V3167-02
life-stage | self | juvenile	cruise	Raja rhina	303.81	3167	01:55:17:02	 	36.831066	-122.16621	2465521	1.09	28:03.0	Ventana	34.164	01:57:08:01	6.958	Chondrichthyes	Rajidae	Raja			Animalia	Rajiformes	Chordata	Raja rhina	Elasmobranchii				Vertebrata			Eukaryota	Batoidea	V3167-02
life-stage | self | juvenile	cruise	Raja rhina	303.11	3167	01:55:33:01	 	36.831154	-122.16613	2465524	1.09	28:19.0	Ventana	34.164	01:57:25:08	6.957	Chondrichthyes	Rajidae	Raja			Animalia	Rajiformes	Chordata	Raja rhina	Elasmobranchii				Vertebrata			Eukaryota	Batoidea	V3167-02
comment | self | cable end shallow burial	cruise	cable	306.67	3167	01:54:25:03	 	36.8308	-122.16643	2465525	1.09	27:11.0	Ventana	34.163	01:56:16:16	6.956																			V3167-02
"identity-reference | self | start: cable shallow burial, sinking with sediment on top"	cruise	cable	302.53	3167	01:55:49:16	 	36.831234	-122.16605	2465526	1.09	28:35.0	Ventana	34.163	01:57:40:02	6.959																			V3167-02
population-quantity | self | 999	cruise	Allocentrotus fragilis	301.93	3167	01:56:03:15	 	36.831306	-122.16599	2465527	1.09	28:49.0	Ventana	34.163	01:57:54:09	6.962	Echinoidea	Strongylocentrotidae	Allocentrotus			Animalia	Echinoida	Echinodermata	Allocentrotus fragilis	Euechinoidea			Echinacea				Eukaryota		V3167-02
population-quantity | self | 999	cruise	Parastichopus leukothele	301.37	3167	01:56:15:15	 	36.83137	-122.16594	2465528	1.1	29:02.0	Ventana	34.163	01:58:07:05	6.966	Holothuroidea	Stichopodidae	Parastichopus			Animalia	Aspidochirotida	Echinodermata	Parastichopus leukothele	Aspidochirotacea							Eukaryota		V3167-02
population-quantity | self | 999	cruise	Rathbunaster californicus	301.21	3167	01:56:23:15	 	36.831413	-122.16591	2465529	1.1	29:10.0	Ventana	34.162	01:58:15:09	6.972		Labidiasteridae	Rathbunaster			Animalia	Forcipulatida	Echinodermata	Rathbunaster californicus	Asteroidea							Eukaryota		V3167-02
population-quantity | self | 999	cruise	Allocentrotus fragilis	300.19	3167	01:56:49:14	 	36.83154	-122.1658	2465531	1.1	29:36.0	Ventana	34.162	01:58:40:17	6.975	Echinoidea	Strongylocentrotidae	Allocentrotus			Animalia	Echinoida	Echinodermata	Allocentrotus fragilis	Euechinoidea			Echinacea				Eukaryota		V3167-02
population-quantity | self | 999	cruise	Allocentrotus fragilis	299.86	3167	01:57:01:13	 	36.831608	-122.16574	2465532	1.1	29:48.0	Ventana	34.163	01:58:52:10	6.976	Echinoidea	Strongylocentrotidae	Allocentrotus			Animalia	Echinoida	Echinodermata	Allocentrotus fragilis	Euechinoidea			Echinacea				Eukaryota		V3167-02
population-quantity | self | 999	cruise	Rathbunaster californicus	298.53	3167	01:57:39:27	 	36.831764	-122.165596	2465535	1.11	30:26.0	Ventana	34.163	01:59:30:26	6.989		Labidiasteridae	Rathbunaster			Animalia	Forcipulatida	Echinodermata	Rathbunaster californicus	Asteroidea							Eukaryota		V3167-02
upon | cable | nil	cruise	Stomphia	298.44	3167	01:57:41:27	http://search.mbari.org/ARCHIVE/frameGrabs/Ventana/images/3167/01_59_33_11.jpg	36.83177	-122.16559	2465536	1.11	30:28.0	Ventana	34.163	01:59:33:11	6.989	Anthozoa	Actinostolidae	Stomphia			Animalia	Actiniaria	Cnidaria		Hexacorallia			Nyantheae				Eukaryota		V3167-02
population-quantity | self | 999	cruise	Allocentrotus fragilis	298.44	3167	01:57:41:27	http://search.mbari.org/ARCHIVE/frameGrabs/Ventana/images/3167/01_59_33_11.jpg	36.83177	-122.16559	2465537	1.11	30:28.0	Ventana	34.163	01:59:33:11	6.989	Echinoidea	Strongylocentrotidae	Allocentrotus			Animalia	Echinoida	Echinodermata	Allocentrotus fragilis	Euechinoidea			Echinacea				Eukaryota		V3167-02
life-stage | self | juvenile	cruise	Raja rhina	298.18	3167	01:57:47:27	 	36.831795	-122.165565	2465538	1.11	30:34.0	Ventana	34.163	01:59:39:18	6.989	Chondrichthyes	Rajidae	Raja			Animalia	Rajiformes	Chordata	Raja rhina	Elasmobranchii				Vertebrata			Eukaryota	Batoidea	V3167-02
identity-reference | self | start: minor cable span	cruise	cable	298.23	3167	01:57:45:27	 	36.831787	-122.16557	2465539	1.11	30:32.0	Ventana	34.163	01:59:36:22	6.989																			V3167-02
population-quantity | self | 999	cruise	Rathbunaster californicus	298.02	3167	01:57:53:27	 	36.83182	-122.16554	2465540	1.11	30:40.0	Ventana	34.16	01:59:44:10	7.004		Labidiasteridae	Rathbunaster			Animalia	Forcipulatida	Echinodermata	Rathbunaster californicus	Asteroidea							Eukaryota		V3167-02
population-quantity | self | 999	cruise	Parastichopus leukothele	297.74	3167	01:57:59:27	 	36.831844	-122.16552	2465543	1.11	30:46.0	Ventana	34.16	01:59:51:10	7.004	Holothuroidea	Stichopodidae	Parastichopus			Animalia	Aspidochirotida	Echinodermata	Parastichopus leukothele	Aspidochirotacea							Eukaryota		V3167-02
identity-reference | self | start: minor cable span	cruise	cable	297.74	3167	01:57:59:27	 	36.831844	-122.16552	2465544	1.11	30:46.0	Ventana	34.16	01:59:50:25	7.004																			V3167-02
"identity-reference | self | start: cable shallow burial, sinking with sediment on top"	cruise	cable	297.68	3167	01:58:01:26	 	36.831852	-122.16551	2465545	1.11	30:48.0	Ventana	34.16	01:59:53:15	7.004																			V3167-02
life-stage | self | juvenile	cruise	Raja rhina	297.68	3167	01:58:01:26	 	36.831852	-122.16551	2465546	1.11	30:48.0	Ventana	34.16	01:59:53:15	7.004	Chondrichthyes	Rajidae	Raja			Animalia	Rajiformes	Chordata	Raja rhina	Elasmobranchii				Vertebrata			Eukaryota	Batoidea	V3167-02
population-quantity | self | 999	cruise	Parastichopus leukothele	297.21	3167	01:58:09:26	 	36.83188	-122.16548	2465547	1.12	30:56.0	Ventana	34.161	02:00:01:08	7.015	Holothuroidea	Stichopodidae	Parastichopus			Animalia	Aspidochirotida	Echinodermata	Parastichopus leukothele	Aspidochirotacea							Eukaryota		V3167-02
population-quantity | self | 999	cruise	Allocentrotus fragilis	296.85	3167	01:58:15:26	 	36.8319	-122.16546	2465549	1.12	31:02.0	Ventana	34.161	02:00:07:28	7.015	Echinoidea	Strongylocentrotidae	Allocentrotus			Animalia	Echinoida	Echinodermata	Allocentrotus fragilis	Euechinoidea			Echinacea				Eukaryota		V3167-02
population-density | self | dense	cruise	Sebastes diploproa	258.12	3167	02:08:51:10	http://search.mbari.org/ARCHIVE/frameGrabs/Ventana/images/3167/02_10_33_28.jpg	36.83447	-122.16248	20024029	1.49	42:04.0	Ventana	34.125	02:10:33:28	7.704	Osteichthyes	Scorpaenidae	Sebastes	Neopterygii		Animalia	Scorpaeniformes	Chordata	Sebastes diploproa	Actinopterygii			Scorpaenoidei	Vertebrata	Gnathostomata		Eukaryota	Acanthopterygii	V3167-03
population-density | self | dense	cruise	Allocentrotus fragilis	241.05	3167	02:11:21:20	http://search.mbari.org/ARCHIVE/frameGrabs/Ventana/images/3167/02_13_03_24.jpg	36.835026	-122.16168	20024030	1.58	44:34.0	Ventana	34.114	02:13:03:24	7.853	Echinoidea	Strongylocentrotidae	Allocentrotus			Animalia	Echinoida	Echinodermata	Allocentrotus fragilis	Euechinoidea			Echinacea				Eukaryota		V3167-03
"contains | eggcase | nil, perspective | self | close-up"	cruise	cable	133.37	3167	02:50:55:22	http://search.mbari.org/ARCHIVE/frameGrabs/Ventana/images/3167/02_52_38_11.jpg	36.838524	-122.153824	20024053	2.98	24:10.0	Ventana	33.847	02:52:38:11	9.726																			V3167-03
upon | cable | nil	cruise	Mediaster aequalis	133.37	3167	02:50:55:22	http://search.mbari.org/ARCHIVE/frameGrabs/Ventana/images/3167/02_52_38_11.jpg	36.838524	-122.153824	2466325	2.98	24:10.0	Ventana	33.847	02:52:38:11	9.726		Goniasteridae	Mediaster			Animalia	Valvatida	Echinodermata	Mediaster aequalis	Asteroidea			Granulosina				Eukaryota		V3167-03
perspective | self | close-up	cruise	cable	126.03	3167	02:56:32:26	http://search.mbari.org/ARCHIVE/frameGrabs/Ventana/images/3167/02_58_15_00.jpg	36.839294	-122.15181	20024059	3.04	29:48.0	Ventana	33.829	02:58:15:00	9.831																			V3167-03
contains | eggcase | nil	cruise	cable	125.95	3167	02:56:44:26	http://search.mbari.org/ARCHIVE/frameGrabs/Ventana/images/3167/02_58_27_15.jpg	36.83931	-122.151764	20024060	3.03	30:00.0	Ventana	33.832	02:58:27:15	9.815																			V3167-03
population-quantity | self | 999	cruise	Rathbunaster californicus	295.31	3167	01:58:54:28	http://search.mbari.org/ARCHIVE/frameGrabs/Ventana/images/3167/02_00_37_02.jpg	36.832096	-122.165276	2466370	1.12	32:06.0	Ventana	34.159	02:00:37:02	7.019		Labidiasteridae	Rathbunaster			Animalia	Forcipulatida	Echinodermata	Rathbunaster californicus	Asteroidea							Eukaryota		V3167-03
identity-reference | self | start: cable taut upon seafloor	cruise	cable	295.31	3167	01:58:54:28	http://search.mbari.org/ARCHIVE/frameGrabs/Ventana/images/3167/02_00_37_02.jpg	36.832096	-122.165276	2466383	1.12	32:06.0	Ventana	34.159	02:00:37:02	7.019																			V3167-03
population-quantity | self | 999	cruise	Parastichopus leukothele	294.71	3167	01:59:10:28	 	36.832157	-122.16523	2466395	1.13	32:23.0	Ventana	34.16	02:00:53:25	7.025	Holothuroidea	Stichopodidae	Parastichopus			Animalia	Aspidochirotida	Echinodermata	Parastichopus leukothele	Aspidochirotacea							Eukaryota		V3167-03
population-quantity | self | 999	cruise	Rathbunaster californicus	294.71	3167	01:59:10:28	 	36.832157	-122.16523	2466397	1.13	32:23.0	Ventana	34.16	02:00:53:25	7.025		Labidiasteridae	Rathbunaster			Animalia	Forcipulatida	Echinodermata	Rathbunaster californicus	Asteroidea							Eukaryota		V3167-03
population-quantity | self | 999	cruise	Allocentrotus fragilis	294.71	3167	01:59:10:28	 	36.832157	-122.16523	2466402	1.13	32:23.0	Ventana	34.16	02:00:53:25	7.025	Echinoidea	Strongylocentrotidae	Allocentrotus			Animalia	Echinoida	Echinodermata	Allocentrotus fragilis	Euechinoidea			Echinacea				Eukaryota		V3167-03
identity-reference | self | end: cable taut upon seafloor	cruise	cable	294.12	3167	01:59:22:27	 	36.832203	-122.165184	2466410	1.13	32:35.0	Ventana	34.16	02:01:06:13	7.025																			V3167-03
"identity-reference | self | start: cable shallow burial, sinking with sediment on top"	cruise	cable	294.12	3167	01:59:22:27	 	36.832203	-122.165184	2466417	1.13	32:35.0	Ventana	34.16	02:01:06:13	7.025																			V3167-03
population-quantity | self | 999	cruise	Rathbunaster californicus	292.67	3167	01:59:48:27	http://search.mbari.org/ARCHIVE/frameGrabs/Ventana/images/3167/02_01_31_08.jpg	36.832314	-122.16508	2466422	1.14	33:01.0	Ventana	34.16	02:01:31:08	7.033		Labidiasteridae	Rathbunaster			Animalia	Forcipulatida	Echinodermata	Rathbunaster californicus	Asteroidea							Eukaryota		V3167-03
population-quantity | self | 999	cruise	Allocentrotus fragilis	292.67	3167	01:59:48:27	http://search.mbari.org/ARCHIVE/frameGrabs/Ventana/images/3167/02_01_31_08.jpg	36.832314	-122.16508	2466424	1.14	33:01.0	Ventana	34.16	02:01:31:08	7.033	Echinoidea	Strongylocentrotidae	Allocentrotus			Animalia	Echinoida	Echinodermata	Allocentrotus fragilis	Euechinoidea			Echinacea				Eukaryota		V3167-03
"identity-gender | self | female, comment | self | cable partially buried, habitat | self | flat mud"	cruise	Bathyraja kincaidii	292.67	3167	01:59:48:27	http://search.mbari.org/ARCHIVE/frameGrabs/Ventana/images/3167/02_01_31_08.jpg	36.832314	-122.16508	2466430	1.14	33:01.0	Ventana	34.16	02:01:31:08	7.033	Chondrichthyes	Arhynchobatidae	Bathyraja			Animalia	Rajiformes	Chordata	Bathyraja kincaidii	Elasmobranchii				Vertebrata			Eukaryota	Batoidea	V3167-03
population-quantity | self | 999	cruise	Parastichopus leukothele	291.74	3167	02:00:11:11	 	36.83242	-122.164986	2466434	1.13	33:23.0	Ventana	34.159	02:01:54:09	7.023	Holothuroidea	Stichopodidae	Parastichopus			Animalia	Aspidochirotida	Echinodermata	Parastichopus leukothele	Aspidochirotacea							Eukaryota		V3167-03
population-quantity | self | 999	cruise	Rathbunaster californicus	291.74	3167	02:00:11:11	 	36.83242	-122.164986	2466435	1.13	33:23.0	Ventana	34.159	02:01:54:09	7.023		Labidiasteridae	Rathbunaster			Animalia	Forcipulatida	Echinodermata	Rathbunaster californicus	Asteroidea							Eukaryota		V3167-03
population-quantity | self | 999	cruise	Sebastes diploproa	291.74	3167	02:00:11:11	 	36.83242	-122.164986	2466436	1.13	33:23.0	Ventana	34.159	02:01:54:09	7.023	Osteichthyes	Scorpaenidae	Sebastes	Neopterygii		Animalia	Scorpaeniformes	Chordata	Sebastes diploproa	Actinopterygii			Scorpaenoidei	Vertebrata	Gnathostomata		Eukaryota	Acanthopterygii	V3167-03
population-quantity | self | 999	cruise	Allocentrotus fragilis	291.74	3167	02:00:11:11	 	36.83242	-122.164986	2466438	1.13	33:23.0	Ventana	34.159	02:01:54:09	7.023	Echinoidea	Strongylocentrotidae	Allocentrotus			Animalia	Echinoida	Echinodermata	Allocentrotus fragilis	Euechinoidea			Echinacea				Eukaryota		V3167-03
population-quantity | self | 999	cruise	Rathbunaster californicus	291.74	3167	02:00:11:11	 	36.83242	-122.164986	2466439	1.13	33:23.0	Ventana	34.159	02:01:54:09	7.023		Labidiasteridae	Rathbunaster			Animalia	Forcipulatida	Echinodermata	Rathbunaster californicus	Asteroidea							Eukaryota		V3167-03
population-quantity | self | 999	cruise	Parastichopus leukothele	290.96	3167	02:00:27:11	 	36.83249	-122.164925	2466441	1.13	33:39.0	Ventana	34.159	02:02:10:17	7.032	Holothuroidea	Stichopodidae	Parastichopus			Animalia	Aspidochirotida	Echinodermata	Parastichopus leukothele	Aspidochirotacea							Eukaryota		V3167-03
population-quantity | self | 999	cruise	Allocentrotus fragilis	290.54	3167	02:00:37:10	 	36.832535	-122.16489	2466443	1.13	33:49.0	Ventana	34.159	02:02:20:23	7.032	Echinoidea	Strongylocentrotidae	Allocentrotus			Animalia	Echinoida	Echinodermata	Allocentrotus fragilis	Euechinoidea			Echinacea				Eukaryota		V3167-03
population-density | self | dense	cruise	Rathbunaster californicus	289.98	3167	02:00:49:10	 	36.832584	-122.16483	2466445	1.13	34:01.0	Ventana	34.16	02:02:31:03	7.03		Labidiasteridae	Rathbunaster			Animalia	Forcipulatida	Echinodermata	Rathbunaster californicus	Asteroidea							Eukaryota		V3167-03
population-quantity | self | 999	cruise	Sebastes	288.13	3167	02:01:23:09	 	36.83273	-122.16469	2466449	1.14	34:35.0	Ventana	34.159	02:03:06:15	7.036	Osteichthyes	Scorpaenidae	Sebastes	Neopterygii		Animalia	Scorpaeniformes	Chordata		Actinopterygii			Scorpaenoidei	Vertebrata	Gnathostomata		Eukaryota	Acanthopterygii	V3167-03
population-density | self | dense	cruise	Rathbunaster californicus	287.46	3167	02:01:37:08	 	36.832794	-122.16462	2466451	1.13	34:49.0	Ventana	34.159	02:03:20:14	7.037		Labidiasteridae	Rathbunaster			Animalia	Forcipulatida	Echinodermata	Rathbunaster californicus	Asteroidea							Eukaryota		V3167-03
identity-reference | self | start: cable taut upon seafloor	cruise	cable	284.51	3167	02:02:29:22	 	36.833008	-122.16439	2466455	1.14	35:42.0	Ventana	34.158	02:04:12:18	7.049																			V3167-03
"comment | self | cable taut upon seafloor, identity-gender | self | male, habitat | self | flat mud"	cruise	Bathyraja kincaidii	285.64	3167	02:02:09:22	 	36.832924	-122.16448	2466461	1.14	35:21.0	Ventana	34.158	02:03:52:17	7.043	Chondrichthyes	Arhynchobatidae	Bathyraja			Animalia	Rajiformes	Chordata	Bathyraja kincaidii	Elasmobranchii				Vertebrata			Eukaryota	Batoidea	V3167-03
population-quantity | self | 999	cruise	Sebastes diploproa	284.51	3167	02:02:29:22	 	36.833008	-122.16439	2466470	1.14	35:42.0	Ventana	34.158	02:04:12:15	7.049	Osteichthyes	Scorpaenidae	Sebastes	Neopterygii		Animalia	Scorpaeniformes	Chordata	Sebastes diploproa	Actinopterygii			Scorpaenoidei	Vertebrata	Gnathostomata		Eukaryota	Acanthopterygii	V3167-03
population-density | self | dense	cruise	Rathbunaster californicus	284.51	3167	02:02:29:22	 	36.833008	-122.16439	2466473	1.14	35:42.0	Ventana	34.158	02:04:12:15	7.049		Labidiasteridae	Rathbunaster			Animalia	Forcipulatida	Echinodermata	Rathbunaster californicus	Asteroidea							Eukaryota		V3167-03
population-quantity | self | 999	cruise	Allocentrotus fragilis	284.51	3167	02:02:29:22	 	36.833008	-122.16439	2466475	1.14	35:42.0	Ventana	34.158	02:04:12:15	7.049	Echinoidea	Strongylocentrotidae	Allocentrotus			Animalia	Echinoida	Echinodermata	Allocentrotus fragilis	Euechinoidea			Echinacea				Eukaryota		V3167-03
population-density | self | dense	cruise	Rathbunaster californicus	284.01	3167	02:02:37:21	 	36.833042	-122.16435	2466480	1.14	35:50.0	Ventana	34.158	02:04:20:12	7.049		Labidiasteridae	Rathbunaster			Animalia	Forcipulatida	Echinodermata	Rathbunaster californicus	Asteroidea							Eukaryota		V3167-03
population-quantity | self | 999	cruise	Allocentrotus fragilis	283.84	3167	02:02:39:21	 	36.83305	-122.164345	2466483	1.14	35:52.0	Ventana	34.158	02:04:21:18	7.049	Echinoidea	Strongylocentrotidae	Allocentrotus			Animalia	Echinoida	Echinodermata	Allocentrotus fragilis	Euechinoidea			Echinacea				Eukaryota		V3167-03
identity-reference | self | end: cable taut upon seafloor	cruise	cable	280.16	3167	02:03:38:04	 	36.833275	-122.16408	2466485	1.16	36:50.0	Ventana	34.157	02:05:20:04	7.075																			V3167-03
"identity-reference | self | start: cable shallow burial, sinking with sediment on top"	cruise	cable	279.67	3167	02:03:46:04	 	36.833305	-122.16404	2466486	1.16	36:58.0	Ventana	34.155	02:05:28:00	7.082																			V3167-03
population-density | self | dense	cruise	Rathbunaster californicus	280.16	3167	02:03:38:04	 	36.833275	-122.16408	2466493	1.16	36:50.0	Ventana	34.157	02:05:21:14	7.075		Labidiasteridae	Rathbunaster			Animalia	Forcipulatida	Echinodermata	Rathbunaster californicus	Asteroidea							Eukaryota		V3167-03
population-quantity | self | 999	cruise	Allocentrotus fragilis	280.16	3167	02:03:38:04	 	36.833275	-122.16408	2466494	1.16	36:50.0	Ventana	34.157	02:05:21:14	7.075	Echinoidea	Strongylocentrotidae	Allocentrotus			Animalia	Echinoida	Echinodermata	Allocentrotus fragilis	Euechinoidea			Echinacea				Eukaryota		V3167-03
population-quantity | self | 999	cruise	Parastichopus leukothele	280.16	3167	02:03:38:04	 	36.833275	-122.16408	2466497	1.16	36:50.0	Ventana	34.157	02:05:21:14	7.075	Holothuroidea	Stichopodidae	Parastichopus			Animalia	Aspidochirotida	Echinodermata	Parastichopus leukothele	Aspidochirotacea							Eukaryota		V3167-03
population-quantity | self | 999	cruise	Allocentrotus fragilis	280.16	3167	02:03:38:04	 	36.833275	-122.16408	2466500	1.16	36:50.0	Ventana	34.157	02:05:21:14	7.075	Echinoidea	Strongylocentrotidae	Allocentrotus			Animalia	Echinoida	Echinodermata	Allocentrotus fragilis	Euechinoidea			Echinacea				Eukaryota		V3167-03
"habitat | self | flat mud, life-stage | self | juvenile"	cruise	Raja rhina	280.16	3167	02:03:38:04	 	36.833275	-122.16408	2466507	1.16	36:50.0	Ventana	34.157	02:05:21:14	7.075	Chondrichthyes	Rajidae	Raja			Animalia	Rajiformes	Chordata	Raja rhina	Elasmobranchii				Vertebrata			Eukaryota	Batoidea	V3167-03
population-quantity | self | 999	cruise	Rathbunaster californicus	280.16	3167	02:03:38:04	 	36.833275	-122.16408	2466516	1.16	36:50.0	Ventana	34.157	02:05:21:14	7.075		Labidiasteridae	Rathbunaster			Animalia	Forcipulatida	Echinodermata	Rathbunaster californicus	Asteroidea							Eukaryota		V3167-03
population-quantity | self | 999	cruise	Allocentrotus fragilis	280.16	3167	02:03:38:04	 	36.833275	-122.16408	2466524	1.16	36:50.0	Ventana	34.157	02:05:21:14	7.075	Echinoidea	Strongylocentrotidae	Allocentrotus			Animalia	Echinoida	Echinodermata	Allocentrotus fragilis	Euechinoidea			Echinacea				Eukaryota		V3167-03
"habitat | self | flat mud, life-stage | self | juvenile"	cruise	Raja rhina	276.67	3167	02:04:44:03	 	36.83352	-122.16375	2466537	1.17	37:56.0	Ventana	34.156	02:06:27:16	7.095	Chondrichthyes	Rajidae	Raja			Animalia	Rajiformes	Chordata	Raja rhina	Elasmobranchii				Vertebrata			Eukaryota	Batoidea	V3167-03
"habitat | self | flat mud, life-stage | self | juvenile"	cruise	Raja rhina	276.67	3167	02:04:44:03	 	36.83352	-122.16375	2466539	1.17	37:56.0	Ventana	34.156	02:06:27:24	7.095	Chondrichthyes	Rajidae	Raja			Animalia	Rajiformes	Chordata	Raja rhina	Elasmobranchii				Vertebrata			Eukaryota	Batoidea	V3167-03
population-quantity | self | 999	cruise	Allocentrotus fragilis	275.05	3167	02:05:14:16	 	36.833626	-122.1636	2466547	1.17	38:26.0	Ventana	34.155	02:06:57:02	7.099	Echinoidea	Strongylocentrotidae	Allocentrotus			Animalia	Echinoida	Echinodermata	Allocentrotus fragilis	Euechinoidea			Echinacea				Eukaryota		V3167-03
population-quantity | self | 999	cruise	Allocentrotus fragilis	273.87	3167	02:05:32:16	 	36.833687	-122.163506	2466561	1.17	38:44.0	Ventana	34.155	02:07:16:00	7.123	Echinoidea	Strongylocentrotidae	Allocentrotus			Animalia	Echinoida	Echinodermata	Allocentrotus fragilis	Euechinoidea			Echinacea				Eukaryota		V3167-03
population-quantity | self | 999	cruise	Rathbunaster californicus	273.87	3167	02:05:32:16	 	36.833687	-122.163506	2466569	1.17	38:44.0	Ventana	34.155	02:07:14:20	7.123		Labidiasteridae	Rathbunaster			Animalia	Forcipulatida	Echinodermata	Rathbunaster californicus	Asteroidea							Eukaryota		V3167-03
population-quantity | self | 999	cruise	Allocentrotus fragilis	273.6	3167	02:05:36:16	 	36.833706	-122.16348	2466571	1.17	38:49.0	Ventana	34.155	02:07:18:12	7.123	Echinoidea	Strongylocentrotidae	Allocentrotus			Animalia	Echinoida	Echinodermata	Allocentrotus fragilis	Euechinoidea			Echinacea				Eukaryota		V3167-03
population-quantity | self | 999	cruise	Sebastes diploproa	273.73	3167	02:05:34:16	 	36.8337	-122.16349	2466574	1.17	38:47.0	Ventana	34.155	02:07:17:04	7.123	Osteichthyes	Scorpaenidae	Sebastes	Neopterygii		Animalia	Scorpaeniformes	Chordata	Sebastes diploproa	Actinopterygii			Scorpaenoidei	Vertebrata	Gnathostomata		Eukaryota	Acanthopterygii	V3167-03
population-quantity | self | 999	cruise	Allocentrotus fragilis	272.84	3167	02:05:48:15	 	36.83375	-122.16342	2466575	1.18	39:01.0	Ventana	34.155	02:07:31:17	7.124	Echinoidea	Strongylocentrotidae	Allocentrotus			Animalia	Echinoida	Echinodermata	Allocentrotus fragilis	Euechinoidea			Echinacea				Eukaryota		V3167-03
population-density | self | dense	cruise	Rathbunaster californicus	272.82	3167	02:05:50:16	 	36.833755	-122.163414	2466576	1.18	39:03.0	Ventana	34.155	02:07:32:25	7.124		Labidiasteridae	Rathbunaster			Animalia	Forcipulatida	Echinodermata	Rathbunaster californicus	Asteroidea							Eukaryota		V3167-03
"identity-gender | self | male, habitat | self | flat mud"	cruise	Bathyraja kincaidii	272.82	3167	02:05:50:16	 	36.833755	-122.163414	2466577	1.18	39:03.0	Ventana	34.155	02:07:32:25	7.124	Chondrichthyes	Arhynchobatidae	Bathyraja			Animalia	Rajiformes	Chordata	Bathyraja kincaidii	Elasmobranchii				Vertebrata			Eukaryota	Batoidea	V3167-03
population-density | self | dense	cruise	Rathbunaster californicus	269.13	3167	02:06:44:29	 	36.83397	-122.16315	2466578	1.21	39:57.0	Ventana	34.151	02:08:26:21	7.179		Labidiasteridae	Rathbunaster			Animalia	Forcipulatida	Echinodermata	Rathbunaster californicus	Asteroidea							Eukaryota		V3167-03
population-quantity | self | 999	cruise	Sebastes diploproa	269.13	3167	02:06:44:29	 	36.83397	-122.16315	2466589	1.21	39:57.0	Ventana	34.151	02:08:26:21	7.179	Osteichthyes	Scorpaenidae	Sebastes	Neopterygii		Animalia	Scorpaeniformes	Chordata	Sebastes diploproa	Actinopterygii			Scorpaenoidei	Vertebrata	Gnathostomata		Eukaryota	Acanthopterygii	V3167-03
population-quantity | self | 999	cruise	Rathbunaster californicus	269.13	3167	02:06:44:29	 	36.83397	-122.16315	2466593	1.21	39:57.0	Ventana	34.151	02:08:26:21	7.179		Labidiasteridae	Rathbunaster			Animalia	Forcipulatida	Echinodermata	Rathbunaster californicus	Asteroidea							Eukaryota		V3167-03
population-quantity | self | 999	cruise	Allocentrotus fragilis	268.89	3167	02:06:50:29	 	36.833992	-122.16312	2466596	1.21	40:03.0	Ventana	34.151	02:08:33:04	7.179	Echinoidea	Strongylocentrotidae	Allocentrotus			Animalia	Echinoida	Echinodermata	Allocentrotus fragilis	Euechinoidea			Echinacea				Eukaryota		V3167-03
"habitat | self | flat mud, life-stage | self | juvenile"	cruise	Raja rhina	266.78	3167	02:07:14:28	 	36.834087	-122.162994	2466602	1.23	40:27.0	Ventana	34.15	02:08:57:02	7.216	Chondrichthyes	Rajidae	Raja			Animalia	Rajiformes	Chordata	Raja rhina	Elasmobranchii				Vertebrata			Eukaryota	Batoidea	V3167-03
population-density | self | dense	cruise	Rathbunaster californicus	266.78	3167	02:07:14:28	 	36.834087	-122.162994	2466608	1.23	40:27.0	Ventana	34.15	02:08:57:02	7.216		Labidiasteridae	Rathbunaster			Animalia	Forcipulatida	Echinodermata	Rathbunaster californicus	Asteroidea							Eukaryota		V3167-03
population-quantity | self | 999	cruise	Rathbunaster californicus	266.78	3167	02:07:14:28	 	36.834087	-122.162994	2466616	1.23	40:27.0	Ventana	34.15	02:08:57:02	7.216		Labidiasteridae	Rathbunaster			Animalia	Forcipulatida	Echinodermata	Rathbunaster californicus	Asteroidea							Eukaryota		V3167-03
population-quantity | self | 999	cruise	Parastichopus leukothele	266.78	3167	02:07:14:28	 	36.834087	-122.162994	2466619	1.23	40:27.0	Ventana	34.15	02:08:57:02	7.216	Holothuroidea	Stichopodidae	Parastichopus			Animalia	Aspidochirotida	Echinodermata	Parastichopus leukothele	Aspidochirotacea							Eukaryota		V3167-03
population-quantity | self | 999	cruise	Sebastes diploproa	266.78	3167	02:07:14:28	 	36.834087	-122.162994	2466621	1.23	40:27.0	Ventana	34.15	02:08:57:02	7.216	Osteichthyes	Scorpaenidae	Sebastes	Neopterygii		Animalia	Scorpaeniformes	Chordata	Sebastes diploproa	Actinopterygii			Scorpaenoidei	Vertebrata	Gnathostomata		Eukaryota	Acanthopterygii	V3167-03
population-quantity | self | 999	cruise	Sebastes diploproa	263.47	3167	02:07:54:27	http://search.mbari.org/ARCHIVE/frameGrabs/Ventana/images/3167/02_09_38_07.jpg	36.83425	-122.16278	2466623	1.32	41:07.0	Ventana	34.133	02:09:38:07	7.432	Osteichthyes	Scorpaenidae	Sebastes	Neopterygii		Animalia	Scorpaeniformes	Chordata	Sebastes diploproa	Actinopterygii			Scorpaenoidei	Vertebrata	Gnathostomata		Eukaryota	Acanthopterygii	V3167-03
population-quantity | self | 999	cruise	Allocentrotus fragilis	258.73	3167	02:08:45:10	 	36.834442	-122.16252	2466633	1.49	41:57.0	Ventana	34.125	02:10:26:29	7.704	Echinoidea	Strongylocentrotidae	Allocentrotus			Animalia	Echinoida	Echinodermata	Allocentrotus fragilis	Euechinoidea			Echinacea				Eukaryota		V3167-03
population-quantity | self | 999	cruise	Rathbunaster californicus	258.73	3167	02:08:45:10	 	36.834442	-122.16252	2466635	1.49	41:57.0	Ventana	34.125	02:10:27:00	7.704		Labidiasteridae	Rathbunaster			Animalia	Forcipulatida	Echinodermata	Rathbunaster californicus	Asteroidea							Eukaryota		V3167-03
population-quantity | self | 999	cruise	Sebastes diploproa	258.73	3167	02:08:45:10	 	36.834442	-122.16252	2466643	1.49	41:57.0	Ventana	34.125	02:10:27:19	7.704	Osteichthyes	Scorpaenidae	Sebastes	Neopterygii		Animalia	Scorpaeniformes	Chordata	Sebastes diploproa	Actinopterygii			Scorpaenoidei	Vertebrata	Gnathostomata		Eukaryota	Acanthopterygii	V3167-03
population-quantity | self | 999	cruise	Rathbunaster californicus	258.73	3167	02:08:45:10	 	36.834442	-122.16252	2466646	1.49	41:57.0	Ventana	34.125	02:10:27:19	7.704		Labidiasteridae	Rathbunaster			Animalia	Forcipulatida	Echinodermata	Rathbunaster californicus	Asteroidea							Eukaryota		V3167-03
population-quantity | self | 999	cruise	Allocentrotus fragilis	258.73	3167	02:08:45:10	 	36.834442	-122.16252	2466647	1.49	41:57.0	Ventana	34.125	02:10:27:19	7.704	Echinoidea	Strongylocentrotidae	Allocentrotus			Animalia	Echinoida	Echinodermata	Allocentrotus fragilis	Euechinoidea			Echinacea				Eukaryota		V3167-03
population-quantity | self | 999	cruise	Sebastes diploproa	258.73	3167	02:08:45:10	 	36.834442	-122.16252	2466648	1.49	41:57.0	Ventana	34.125	02:10:27:19	7.704	Osteichthyes	Scorpaenidae	Sebastes	Neopterygii		Animalia	Scorpaeniformes	Chordata	Sebastes diploproa	Actinopterygii			Scorpaenoidei	Vertebrata	Gnathostomata		Eukaryota	Acanthopterygii	V3167-03
"identity-gender | self | female, habitat | self | flat mud"	cruise	Bathyraja kincaidii	254.99	3167	02:09:19:09	 	36.83457	-122.16234	2466656	1.5	42:32.0	Ventana	34.121	02:11:01:29	7.717	Chondrichthyes	Arhynchobatidae	Bathyraja			Animalia	Rajiformes	Chordata	Bathyraja kincaidii	Elasmobranchii				Vertebrata			Eukaryota	Batoidea	V3167-03
identity-certainty | self | maybe	cruise	Enteroctopus dofleini	253.16	3167	02:09:35:09	http://search.mbari.org/ARCHIVE/frameGrabs/Ventana/images/3167/02_11_17_24.jpg	36.834637	-122.16225	2466667	1.52	42:48.0	Ventana	34.121	02:11:17:24	7.748	Cephalopoda	Octopodidae	Enteroctopus			Animalia	Octopoda	Mollusca	Enteroctopus dofleini	Coleoidea	Octopodinae		Incirrata				Eukaryota	Octopodiformes	V3167-03
population-quantity | self | 999	cruise	Rathbunaster californicus	253.16	3167	02:09:35:09	 	36.834637	-122.16225	2466669	1.52	42:48.0	Ventana	34.121	02:11:18:06	7.748		Labidiasteridae	Rathbunaster			Animalia	Forcipulatida	Echinodermata	Rathbunaster californicus	Asteroidea							Eukaryota		V3167-03
population-density | self | dense	cruise	shell hash	251.05	3167	02:09:55:23	http://search.mbari.org/ARCHIVE/frameGrabs/Ventana/images/3167/02_11_38_03.jpg	36.834705	-122.16214	2466679	1.54	43:08.0	Ventana	34.117	02:11:38:03	7.766																			V3167-03
"habitat | self | flat mud, life-stage | self | juvenile"	cruise	Raja rhina	251.46	3167	02:09:51:23	 	36.83469	-122.16216	2466699	1.53	43:04.0	Ventana	34.117	02:11:34:06	7.765	Chondrichthyes	Rajidae	Raja			Animalia	Rajiformes	Chordata	Raja rhina	Elasmobranchii				Vertebrata			Eukaryota	Batoidea	V3167-03
population-quantity | self | 999	cruise	Allocentrotus fragilis	251.46	3167	02:09:51:23	 	36.83469	-122.16216	2466700	1.53	43:04.0	Ventana	34.117	02:11:34:06	7.765	Echinoidea	Strongylocentrotidae	Allocentrotus			Animalia	Echinoida	Echinodermata	Allocentrotus fragilis	Euechinoidea			Echinacea				Eukaryota		V3167-03
population-quantity | self | 999	cruise	Parastichopus leukothele	251.46	3167	02:09:51:23	 	36.83469	-122.16216	2466703	1.53	43:04.0	Ventana	34.117	02:11:34:06	7.765	Holothuroidea	Stichopodidae	Parastichopus			Animalia	Aspidochirotida	Echinodermata	Parastichopus leukothele	Aspidochirotacea							Eukaryota		V3167-03
population-quantity | self | 999	cruise	Allocentrotus fragilis	251.46	3167	02:09:51:23	 	36.83469	-122.16216	2466706	1.53	43:04.0	Ventana	34.117	02:11:34:06	7.765	Echinoidea	Strongylocentrotidae	Allocentrotus			Animalia	Echinoida	Echinodermata	Allocentrotus fragilis	Euechinoidea			Echinacea				Eukaryota		V3167-03
population-quantity | self | 999	cruise	Sebastes diploproa	251.46	3167	02:09:51:23	 	36.83469	-122.16216	2466709	1.53	43:04.0	Ventana	34.117	02:11:34:06	7.765	Osteichthyes	Scorpaenidae	Sebastes	Neopterygii		Animalia	Scorpaeniformes	Chordata	Sebastes diploproa	Actinopterygii			Scorpaenoidei	Vertebrata	Gnathostomata		Eukaryota	Acanthopterygii	V3167-03
population-density | self | dense	cruise	shell hash	251.46	3167	02:09:51:23	 	36.83469	-122.16216	2466714	1.53	43:04.0	Ventana	34.117	02:11:34:06	7.765																			V3167-03
identity-reference | self | end: cable taut upon seafloor	cruise	cable	251.46	3167	02:09:51:23	 	36.83469	-122.16216	2466731	1.53	43:04.0	Ventana	34.117	02:11:34:06	7.765																			V3167-03
population-quantity | self | 999	cruise	Parastichopus leukothele	249.54	3167	02:10:07:22	 	36.834747	-122.16208	2466854	1.54	43:20.0	Ventana	34.117	02:11:50:28	7.766	Holothuroidea	Stichopodidae	Parastichopus			Animalia	Aspidochirotida	Echinodermata	Parastichopus leukothele	Aspidochirotacea							Eukaryota		V3167-03
population-quantity | self | 999	cruise	Sebastes diploproa	249.54	3167	02:10:07:22	 	36.834747	-122.16208	2466856	1.54	43:20.0	Ventana	34.117	02:11:50:28	7.766	Osteichthyes	Scorpaenidae	Sebastes	Neopterygii		Animalia	Scorpaeniformes	Chordata	Sebastes diploproa	Actinopterygii			Scorpaenoidei	Vertebrata	Gnathostomata		Eukaryota	Acanthopterygii	V3167-03
population-quantity | self | 999	cruise	Allocentrotus fragilis	246.95	3167	02:10:27:22	http://search.mbari.org/ARCHIVE/frameGrabs/Ventana/images/3167/02_12_10_14.jpg	36.83482	-122.16197	2466857	1.55	43:40.0	Ventana	34.12	02:12:10:14	7.797	Echinoidea	Strongylocentrotidae	Allocentrotus			Animalia	Echinoida	Echinodermata	Allocentrotus fragilis	Euechinoidea			Echinacea				Eukaryota		V3167-03
population-quantity | self | 999	cruise	Parastichopus leukothele	246.95	3167	02:10:27:22	http://search.mbari.org/ARCHIVE/frameGrabs/Ventana/images/3167/02_12_10_14.jpg	36.83482	-122.16197	2466859	1.55	43:40.0	Ventana	34.12	02:12:10:14	7.797	Holothuroidea	Stichopodidae	Parastichopus			Animalia	Aspidochirotida	Echinodermata	Parastichopus leukothele	Aspidochirotacea							Eukaryota		V3167-03
"identity-gender | self | male, habitat | self | flat mud"	cruise	Bathyraja kincaidii	246.95	3167	02:10:27:22	http://search.mbari.org/ARCHIVE/frameGrabs/Ventana/images/3167/02_12_10_14.jpg	36.83482	-122.16197	2466864	1.55	43:40.0	Ventana	34.12	02:12:10:14	7.797	Chondrichthyes	Arhynchobatidae	Bathyraja			Animalia	Rajiformes	Chordata	Bathyraja kincaidii	Elasmobranchii				Vertebrata			Eukaryota	Batoidea	V3167-03
population-quantity | self | 999	cruise	Pandalus platyceros	236.7	3167	02:12:02:04	 	36.835175	-122.16148	2466866	1.61	45:14.0	Ventana	34.111	02:13:44:04	7.903	Malacostraca	Pandalidae	Pandalus		Caridea	Animalia	Decapoda	Arthropoda	Pandalus platyceros	Eumalacostraca						Pandaloidea	Eukaryota	Eucarida	V3167-03
identity-reference | self | start: cable taut upon seafloor	cruise	cable	236.26	3167	02:12:06:04	 	36.83519	-122.16146	2466867	1.61	45:18.0	Ventana	34.111	02:13:49:19	7.903																			V3167-03
population-density | self | dense	cruise	Sebastes diploproa	235.75	3167	02:12:10:04	 	36.83521	-122.16144	2466868	1.61	45:23.0	Ventana	34.111	02:13:52:21	7.9	Osteichthyes	Scorpaenidae	Sebastes	Neopterygii		Animalia	Scorpaeniformes	Chordata	Sebastes diploproa	Actinopterygii			Scorpaenoidei	Vertebrata	Gnathostomata		Eukaryota	Acanthopterygii	V3167-03
population-quantity | self | 999	cruise	Sebastes	235.57	3167	02:12:12:03	 	36.835217	-122.16143	2466869	1.61	45:25.0	Ventana	34.111	02:13:54:05	7.9	Osteichthyes	Scorpaenidae	Sebastes	Neopterygii		Animalia	Scorpaeniformes	Chordata		Actinopterygii			Scorpaenoidei	Vertebrata	Gnathostomata		Eukaryota	Acanthopterygii	V3167-03
population-quantity | self | 999	cruise	Allocentrotus fragilis	236.08	3167	02:12:08:04	 	36.835197	-122.16145	2466870	1.61	45:20.0	Ventana	34.111	02:13:49:25	7.903	Echinoidea	Strongylocentrotidae	Allocentrotus			Animalia	Echinoida	Echinodermata	Allocentrotus fragilis	Euechinoidea			Echinacea				Eukaryota		V3167-03
upon | cable | nil	cruise	Metridium farcimen	236.26	3167	02:12:06:04	http://search.mbari.org/ARCHIVE/frameGrabs/Ventana/images/3167/02_13_47_25.jpg	36.83519	-122.16146	2466871	1.61	45:18.0	Ventana	34.111	02:13:47:25	7.903	Anthozoa	Metridiidae	Metridium			Animalia	Actiniaria	Cnidaria	Metridium farcimen	Hexacorallia			Nyantheae				Eukaryota		V3167-03
population-density | self | dense	cruise	Sebastes diploproa	230.96	3167	02:12:54:02	 	36.835342	-122.161224	2466872	1.62	46:07.0	Ventana	34.11	02:14:37:27	7.913	Osteichthyes	Scorpaenidae	Sebastes	Neopterygii		Animalia	Scorpaeniformes	Chordata	Sebastes diploproa	Actinopterygii			Scorpaenoidei	Vertebrata	Gnathostomata		Eukaryota	Acanthopterygii	V3167-03
population-quantity | self | 999	cruise	Pandalus platyceros	230.96	3167	02:12:54:02	 	36.835342	-122.161224	2466873	1.62	46:07.0	Ventana	34.11	02:14:36:25	7.913	Malacostraca	Pandalidae	Pandalus		Caridea	Animalia	Decapoda	Arthropoda	Pandalus platyceros	Eumalacostraca						Pandaloidea	Eukaryota	Eucarida	V3167-03
identity-reference | self | start: minor cable suspension	cruise	cable	230.96	3167	02:12:54:02	 	36.835342	-122.161224	2466875	1.62	46:07.0	Ventana	34.11	02:14:36:25	7.913																			V3167-03
population-quantity | self | 999	cruise	Sebastes diploproa	230.78	3167	02:12:58:02	 	36.835358	-122.1612	2466877	1.62	46:11.0	Ventana	34.109	02:14:40:18	7.923	Osteichthyes	Scorpaenidae	Sebastes	Neopterygii		Animalia	Scorpaeniformes	Chordata	Sebastes diploproa	Actinopterygii			Scorpaenoidei	Vertebrata	Gnathostomata		Eukaryota	Acanthopterygii	V3167-03
identity-reference | self | end: minor cable suspension	cruise	cable	226.55	3167	02:13:38:16	http://search.mbari.org/ARCHIVE/frameGrabs/Ventana/images/3167/02_15_21_21.jpg	36.83547	-122.161026	2466879	1.63	46:51.0	Ventana	34.108	02:15:21:21	7.938																			V3167-03
population-quantity | self | 999	cruise	Florometra serratissima	226.55	3167	02:13:38:16	http://search.mbari.org/ARCHIVE/frameGrabs/Ventana/images/3167/02_15_21_21.jpg	36.83547	-122.161026	2466880	1.63	46:51.0	Ventana	34.108	02:15:21:21	7.938	Crinoidea	Antedonidae	Florometra			Animalia	Comatulidina	Echinodermata	Florometra serratissima							Antedonacea	Eukaryota		V3167-03
population-quantity | self | 999	cruise	Mediaster aequalis	226.55	3167	02:13:38:16	http://search.mbari.org/ARCHIVE/frameGrabs/Ventana/images/3167/02_15_21_21.jpg	36.83547	-122.161026	2466881	1.63	46:51.0	Ventana	34.108	02:15:21:21	7.938		Goniasteridae	Mediaster			Animalia	Valvatida	Echinodermata	Mediaster aequalis	Asteroidea			Granulosina				Eukaryota		V3167-03
population-quantity | self | 999	cruise	Sebastes diploproa	226.55	3167	02:13:38:16	http://search.mbari.org/ARCHIVE/frameGrabs/Ventana/images/3167/02_15_21_21.jpg	36.83547	-122.161026	2466882	1.63	46:51.0	Ventana	34.108	02:15:21:21	7.938	Osteichthyes	Scorpaenidae	Sebastes	Neopterygii		Animalia	Scorpaeniformes	Chordata	Sebastes diploproa	Actinopterygii			Scorpaenoidei	Vertebrata	Gnathostomata		Eukaryota	Acanthopterygii	V3167-03
upon | cable | nil	cruise	Florometra serratissima	226.55	3167	02:13:38:16	http://search.mbari.org/ARCHIVE/frameGrabs/Ventana/images/3167/02_15_21_21.jpg	36.83547	-122.161026	2466883	1.63	46:51.0	Ventana	34.108	02:15:21:21	7.938	Crinoidea	Antedonidae	Florometra			Animalia	Comatulidina	Echinodermata	Florometra serratissima							Antedonacea	Eukaryota		V3167-03
population-quantity | self | 999	cruise	Allocentrotus fragilis	226.55	3167	02:13:38:16	http://search.mbari.org/ARCHIVE/frameGrabs/Ventana/images/3167/02_15_21_21.jpg	36.83547	-122.161026	2466884	1.63	46:51.0	Ventana	34.108	02:15:21:21	7.938	Echinoidea	Strongylocentrotidae	Allocentrotus			Animalia	Echinoida	Echinodermata	Allocentrotus fragilis	Euechinoidea			Echinacea				Eukaryota		V3167-03
"comment | self | cable taut, habitat | self | flat mud, life-stage | self | juvenile"	cruise	Raja rhina	226.55	3167	02:13:38:16	http://search.mbari.org/ARCHIVE/frameGrabs/Ventana/images/3167/02_15_21_21.jpg	36.83547	-122.161026	2466885	1.63	46:51.0	Ventana	34.108	02:15:21:21	7.938	Chondrichthyes	Rajidae	Raja			Animalia	Rajiformes	Chordata	Raja rhina	Elasmobranchii				Vertebrata			Eukaryota	Batoidea	V3167-03
population-quantity | self | 999	cruise	Allocentrotus fragilis	225.11	3167	02:13:44:16	 	36.835487	-122.160995	2466886	1.64	46:57.0	Ventana	34.109	02:15:27:10	7.936	Echinoidea	Strongylocentrotidae	Allocentrotus			Animalia	Echinoida	Echinodermata	Allocentrotus fragilis	Euechinoidea			Echinacea				Eukaryota		V3167-03
population-quantity | self | 999	cruise	Allocentrotus fragilis	225.11	3167	02:13:44:16	 	36.835487	-122.160995	2466887	1.64	46:57.0	Ventana	34.109	02:15:27:10	7.936	Echinoidea	Strongylocentrotidae	Allocentrotus			Animalia	Echinoida	Echinodermata	Allocentrotus fragilis	Euechinoidea			Echinacea				Eukaryota		V3167-03
population-density | self | dense	cruise	Allocentrotus fragilis	223.84	3167	02:13:50:16	 	36.835506	-122.16097	2466889	1.64	47:03.0	Ventana	34.109	02:15:32:21	7.936	Echinoidea	Strongylocentrotidae	Allocentrotus			Animalia	Echinoida	Echinodermata	Allocentrotus fragilis	Euechinoidea			Echinacea				Eukaryota		V3167-03
upon | cable | nil	cruise	Actiniaria sp. 3	211.32	3167	02:15:18:28	 	36.83577	-122.16054	2466890	1.73	48:31.0	Ventana	34.097	02:17:01:16	8.085	Anthozoa					Animalia	Actiniaria	Cnidaria		Hexacorallia							Eukaryota		V3167-03
population-quantity | self | 999	cruise	Sebastes diploproa	211.32	3167	02:15:18:28	 	36.83577	-122.16054	2466894	1.73	48:31.0	Ventana	34.097	02:17:01:16	8.085	Osteichthyes	Scorpaenidae	Sebastes	Neopterygii		Animalia	Scorpaeniformes	Chordata	Sebastes diploproa	Actinopterygii			Scorpaenoidei	Vertebrata	Gnathostomata		Eukaryota	Acanthopterygii	V3167-03
population-density | self | dense	cruise	Allocentrotus fragilis	211.32	3167	02:15:18:28	 	36.83577	-122.16054	2466895	1.73	48:31.0	Ventana	34.097	02:17:01:16	8.085	Echinoidea	Strongylocentrotidae	Allocentrotus			Animalia	Echinoida	Echinodermata	Allocentrotus fragilis	Euechinoidea			Echinacea				Eukaryota		V3167-03
"habitat | self | flat mud, life-stage | self | juvenile"	cruise	Raja rhina	209.44	3167	02:15:30:28	 	36.83581	-122.16048	2466896	1.75	48:44.0	Ventana	34.094	02:17:14:04	8.129	Chondrichthyes	Rajidae	Raja			Animalia	Rajiformes	Chordata	Raja rhina	Elasmobranchii				Vertebrata			Eukaryota	Batoidea	V3167-03
"identity-reference | self | start: cable shallow burial, sinking with sediment on top"	cruise	cable	208.41	3167	02:15:42:27	 	36.835846	-122.16042	2466897	1.83	48:56.0	Ventana	34.08	02:17:24:26	8.247																			V3167-03
population-dispersal | self | school	cruise	Sebastes	204.23	3167	02:16:31:11	http://search.mbari.org/ARCHIVE/frameGrabs/Ventana/images/3167/02_18_14_24.jpg	36.835987	-122.16021	2466924	1.88	49:44.0	Ventana	34.077	02:18:14:24	8.287	Osteichthyes	Scorpaenidae	Sebastes	Neopterygii		Animalia	Scorpaeniformes	Chordata		Actinopterygii			Scorpaenoidei	Vertebrata	Gnathostomata		Eukaryota	Acanthopterygii	V3167-03
population-quantity | self | 2	cruise	Pleurobranchaea californica	194.41	3167	02:17:55:08	http://search.mbari.org/ARCHIVE/frameGrabs/Ventana/images/3167/02_19_37_26.jpg	36.83631	-122.159805	2466937	2.12	51:08.0	Ventana	34.026	02:19:37:26	8.656	Gastropoda	Pleurobranchidae	Pleurobranchaea			Animalia	Notaspidea	Mollusca	Pleurobranchaea californica	Opisthobranchia						Pleurobranchiacea	Eukaryota		V3167-03
upon | cable | nil	cruise	Stomphia	191.42	3167	02:18:23:22	 	36.836388	-122.15965	2466939	2.12	51:36.0	Ventana	34.034	02:20:06:00	8.698	Anthozoa	Actinostolidae	Stomphia			Animalia	Actiniaria	Cnidaria		Hexacorallia			Nyantheae				Eukaryota		V3167-03
identity-gender | self | female	cruise	Bathyraja kincaidii	188.87	3167	02:18:49:21	 	36.83646	-122.1595	2466949	2.21	52:03.0	Ventana	34.007	02:20:32:12	8.862	Chondrichthyes	Arhynchobatidae	Bathyraja			Animalia	Rajiformes	Chordata	Bathyraja kincaidii	Elasmobranchii				Vertebrata			Eukaryota	Batoidea	V3167-03
population-dispersal | self | school	cruise	Sebastes	188.87	3167	02:18:49:21	 	36.83646	-122.1595	2466952	2.21	52:03.0	Ventana	34.007	02:20:32:12	8.862	Osteichthyes	Scorpaenidae	Sebastes	Neopterygii		Animalia	Scorpaeniformes	Chordata		Actinopterygii			Scorpaenoidei	Vertebrata	Gnathostomata		Eukaryota	Acanthopterygii	V3167-03
identity-reference | self | start: minor cable span	cruise	cable	188.88	3167	02:18:47:21	 	36.836452	-122.159515	2466947	2.21	52:00.0	Ventana	34.007	02:20:30:21	8.862																			V3167-03
population-quantity | self | 999	cruise	Allocentrotus fragilis	187.58	3167	02:19:05:21	 	36.836502	-122.15941	2466960	2.3	52:19.0	Ventana	33.992	02:20:48:24	8.922	Echinoidea	Strongylocentrotidae	Allocentrotus			Animalia	Echinoida	Echinodermata	Allocentrotus fragilis	Euechinoidea			Echinacea				Eukaryota		V3167-03
population-quantity | self | 999	cruise	rock	186.19	3167	02:19:15:20	 	36.83653	-122.159355	2466970	2.33	52:29.0	Ventana	33.99	02:20:57:14	8.95																			V3167-03
"identity-gender | self | male, habitat | self | flat mud"	cruise	Raja rhina	183.37	3167	02:19:37:20	 	36.836586	-122.15921	2466973	2.34	52:51.0	Ventana	33.987	02:21:20:15	8.943	Chondrichthyes	Rajidae	Raja			Animalia	Rajiformes	Chordata	Raja rhina	Elasmobranchii				Vertebrata			Eukaryota	Batoidea	V3167-03
"part-of | Pleurobranchaea californica | nil, upon | cable | nil"	transect	eggcase	170.84	3167	02:22:56:14	http://search.mbari.org/ARCHIVE/frameGrabs/Ventana/images/3167/02_24_38_20.jpg	36.836876	-122.1586	2467063	2.42	56:10.0	Ventana	33.973	02:24:38:20	9.039																			V3167-03
upon | cable | nil	transect	Florometra serratissima	170.84	3167	02:22:56:14	http://search.mbari.org/ARCHIVE/frameGrabs/Ventana/images/3167/02_24_38_20.jpg	36.836876	-122.1586	2467076	2.42	56:10.0	Ventana	33.973	02:24:38:20	9.039	Crinoidea	Antedonidae	Florometra			Animalia	Comatulidina	Echinodermata	Florometra serratissima							Antedonacea	Eukaryota		V3167-03
identity-certainty | self | maybe	transect	Parastichopus leukothele	166.07	3167	02:24:57:10	 	36.83696	-122.15826	2467182	2.59	58:10.0	Ventana	33.95	02:26:40:26	9.275	Holothuroidea	Stichopodidae	Parastichopus			Animalia	Aspidochirotida	Echinodermata	Parastichopus leukothele	Aspidochirotacea							Eukaryota		V3167-03
"part-of | Pleurobranchaea californica | nil, upon | cable | nil"	transect	eggcase	165.23	3167	02:25:13:09	 	36.83697	-122.15821	2467190	2.64	58:26.0	Ventana	33.942	02:26:55:25	9.348																			V3167-03
comment | self | splice?	transect	cable	162.11	3167	02:26:07:08	http://search.mbari.org/ARCHIVE/frameGrabs/Ventana/images/3167/02_27_51_05.jpg	36.837025	-122.15805	2467229	2.65	59:21.0	Ventana	33.938	02:27:51:05	9.314																			V3167-03
"part-of | Pleurobranchaea californica | nil, upon | cable | nil"	transect	eggcase	161.53	3167	02:26:19:08	 	36.837044	-122.15801	2467242	2.63	59:33.0	Ventana	33.943	02:28:02:17	9.295																			V3167-03
upon | cable | nil	transect	Stylasterias forreri	159.11	3167	02:26:57:22	 	36.8371	-122.157906	2467259	2.73	00:11.0	Ventana	33.926	02:28:40:08	9.403		Asteriidae	Stylasterias			Animalia	Forcipulatida	Echinodermata	Stylasterias forreri	Asteroidea							Eukaryota		V3167-03
upon | cable | nil	transect	Stylasterias forreri	165.54	3167	02:25:07:10	 	36.836967	-122.158226	2467186	2.59	58:20.0	Ventana	33.95	02:26:50:11	9.275		Asteriidae	Stylasterias			Animalia	Forcipulatida	Echinodermata	Stylasterias forreri	Asteroidea							Eukaryota		V3167-03
"identity-gender | self | male, habitat | self | flat mud"	transect	Raja rhina	162.79	3167	02:30:38:14	http://search.mbari.org/ARCHIVE/frameGrabs/Ventana/images/3167/02_32_21_07.jpg	36.837482	-122.15844	2467325	2.7	03:52.0	Ventana	33.934	02:32:21:07	9.368	Chondrichthyes	Rajidae	Raja			Animalia	Rajiformes	Chordata	Raja rhina	Elasmobranchii				Vertebrata			Eukaryota	Batoidea	V3167-03
"habitat | self | flat mud, life-stage | self | juvenile"	transect	Raja rhina	168.94	3167	02:34:01:08	http://search.mbari.org/ARCHIVE/frameGrabs/Ventana/images/3167/02_35_44_19.jpg	36.837326	-122.15899	2467353	2.66	07:15.0	Ventana	33.938	02:35:44:19	9.327	Chondrichthyes	Rajidae	Raja			Animalia	Rajiformes	Chordata	Raja rhina	Elasmobranchii				Vertebrata			Eukaryota	Batoidea	V3167-03
comment | self | back to cable	cruise	cable	173.07	3167	02:37:42:17	http://search.mbari.org/ARCHIVE/frameGrabs/Ventana/images/3167/02_39_25_08.jpg	36.83695	-122.15875	2467381	2.69	10:56.0	Ventana	33.934	02:39:25:08	9.366																			V3167-03
population-quantity | self | 999	cruise	Parastichopus leukothele	164.78	3167	02:39:46:28	 	36.837006	-122.15818	2467429	2.77	13:01.0	Ventana	33.912	02:41:28:22	9.453	Holothuroidea	Stichopodidae	Parastichopus			Animalia	Aspidochirotida	Echinodermata	Parastichopus leukothele	Aspidochirotacea							Eukaryota		V3167-03
population-quantity | self | 999	cruise	Parastichopus leukothele	155.83	3167	02:41:27:10	 	36.837254	-122.15747	2467446	2.83	14:42.0	Ventana	33.887	02:43:09:09	9.531	Holothuroidea	Stichopodidae	Parastichopus			Animalia	Aspidochirotida	Echinodermata	Parastichopus leukothele	Aspidochirotacea							Eukaryota		V3167-03
population-quantity | self | 999	cruise	Parastichopus leukothele	150.01	3167	02:43:09:21	 	36.83748	-122.1568	2467453	2.92	16:24.0	Ventana	33.87	02:44:52:07	9.608	Holothuroidea	Stichopodidae	Parastichopus			Animalia	Aspidochirotida	Echinodermata	Parastichopus leukothele	Aspidochirotacea							Eukaryota		V3167-03
population-quantity | self | 999	cruise	Rathbunaster californicus	149.15	3167	02:43:27:21	 	36.83751	-122.156685	2467454	2.91	16:42.0	Ventana	33.856	02:45:10:09	9.653		Labidiasteridae	Rathbunaster			Animalia	Forcipulatida	Echinodermata	Rathbunaster californicus	Asteroidea							Eukaryota		V3167-03
population-quantity | self | 999	cruise	Rathbunaster californicus	147.17	3167	02:44:16:04	 	36.837605	-122.15638	2467457	2.91	17:30.0	Ventana	33.872	02:45:58:10	9.615		Labidiasteridae	Rathbunaster			Animalia	Forcipulatida	Echinodermata	Rathbunaster californicus	Asteroidea							Eukaryota		V3167-03
upon | cable | nil	cruise	Stomphia	146.33	3167	02:44:28:04	 	36.837627	-122.15631	2467465	2.91	17:42.0	Ventana	33.869	02:46:11:06	9.616	Anthozoa	Actinostolidae	Stomphia			Animalia	Actiniaria	Cnidaria		Hexacorallia			Nyantheae				Eukaryota		V3167-03
population-quantity | self | 999	cruise	Rathbunaster californicus	142.71	3167	02:45:36:17	 	36.837845	-122.15564	2467478	2.94	18:51.0	Ventana	33.863	02:47:19:18	9.64		Labidiasteridae	Rathbunaster			Animalia	Forcipulatida	Echinodermata	Rathbunaster californicus	Asteroidea							Eukaryota		V3167-03
population-quantity | self | 999	cruise	Rathbunaster californicus	141.48	3167	02:46:18:15	 	36.83788	-122.15555	2467480	2.87	19:33.0	Ventana	33.873	02:48:00:23	9.593		Labidiasteridae	Rathbunaster			Animalia	Forcipulatida	Echinodermata	Rathbunaster californicus	Asteroidea							Eukaryota		V3167-03
population-quantity | self | 999	cruise	Rathbunaster californicus	140.14	3167	02:47:06:29	 	36.837994	-122.15525	2467483	2.84	20:21.0	Ventana	33.885	02:48:49:22	9.559		Labidiasteridae	Rathbunaster			Animalia	Forcipulatida	Echinodermata	Rathbunaster californicus	Asteroidea							Eukaryota		V3167-03
population-quantity | self | 999	cruise	Rathbunaster californicus	139.31	3167	02:47:38:28	 	36.838078	-122.15503	2467486	2.92	20:53.0	Ventana	33.866	02:49:22:07	9.632		Labidiasteridae	Rathbunaster			Animalia	Forcipulatida	Echinodermata	Rathbunaster californicus	Asteroidea							Eukaryota		V3167-03
population-quantity | self | 999	cruise	Rathbunaster californicus	137.64	3167	02:48:28:26	 	36.838223	-122.15468	2467495	2.91	21:44.0	Ventana	33.867	02:50:11:18	9.633		Labidiasteridae	Rathbunaster			Animalia	Forcipulatida	Echinodermata	Rathbunaster californicus	Asteroidea							Eukaryota		V3167-03
population-quantity | self | 999	cruise	Metridium farcimen	137.31	3167	02:48:45:11	 	36.838272	-122.15456	2467499	2.92	22:00.0	Ventana	33.865	02:50:27:15	9.645	Anthozoa	Metridiidae	Metridium			Animalia	Actiniaria	Cnidaria	Metridium farcimen	Hexacorallia			Nyantheae				Eukaryota		V3167-03
population-quantity | self | 999	cruise	Rathbunaster californicus	136.58	3167	02:49:13:10	 	36.838345	-122.15437	2467503	2.95	22:28.0	Ventana	33.851	02:50:56:21	9.695		Labidiasteridae	Rathbunaster			Animalia	Forcipulatida	Echinodermata	Rathbunaster californicus	Asteroidea							Eukaryota		V3167-03
population-quantity | self | 999	cruise	Rathbunaster californicus	136.61	3167	02:49:11:10	 	36.83834	-122.15439	2467508	2.95	22:26.0	Ventana	33.851	02:50:53:21	9.695		Labidiasteridae	Rathbunaster			Animalia	Forcipulatida	Echinodermata	Rathbunaster californicus	Asteroidea							Eukaryota		V3167-03
population-quantity | self | 999	cruise	Metridium farcimen	136.65	3167	02:49:17:10	http://search.mbari.org/ARCHIVE/frameGrabs/Ventana/images/3167/02_51_00_13.jpg	36.838352	-122.15435	2467512	2.95	22:32.0	Ventana	33.851	02:51:00:13	9.695	Anthozoa	Metridiidae	Metridium			Animalia	Actiniaria	Cnidaria	Metridium farcimen	Hexacorallia			Nyantheae				Eukaryota		V3167-03
identity-reference | self | end: minor cable span	cruise	cable	136.41	3167	02:49:27:09	 	36.838375	-122.15429	2467516	2.97	22:42.0	Ventana	33.845	02:51:10:02	9.718																			V3167-03
upon | cable | nil	cruise	Stomphia	136.2	3167	02:49:33:09	 	36.838387	-122.15426	2467537	2.97	22:48.0	Ventana	33.845	02:51:16:05	9.718	Anthozoa	Actinostolidae	Stomphia			Animalia	Actiniaria	Cnidaria		Hexacorallia			Nyantheae				Eukaryota		V3167-03
upon | cable | nil	cruise	Stomphia	136.2	3167	02:49:33:09	 	36.838387	-122.15426	2467541	2.97	22:48.0	Ventana	33.845	02:51:16:05	9.718	Anthozoa	Actinostolidae	Stomphia			Animalia	Actiniaria	Cnidaria		Hexacorallia			Nyantheae				Eukaryota		V3167-03
"identity-reference | self | start: cable taut upon seafloor, alternating with partially buried"	cruise	cable	135.8	3167	02:49:45:09	 	36.838406	-122.1542	2467552	2.98	23:00.0	Ventana	33.844	02:51:27:08	9.731																			V3167-03
population-quantity | self | 999	cruise	Metridium farcimen	135.46	3167	02:50:03:08	 	36.838436	-122.154106	2467554	2.98	23:18.0	Ventana	33.846	02:51:47:10	9.726	Anthozoa	Metridiidae	Metridium			Animalia	Actiniaria	Cnidaria	Metridium farcimen	Hexacorallia			Nyantheae				Eukaryota		V3167-03
identity-reference | self | end: cable taut upon seafloor	cruise	cable	133.82	3167	02:50:29:23	 	36.83848	-122.15396	2467556	2.99	23:44.0	Ventana	33.844	02:52:11:19	9.735																			V3167-03
population-quantity | self | 999	cruise	Rathbunaster californicus	133.34	3167	02:50:35:22	 	36.838493	-122.15393	2467566	2.99	23:50.0	Ventana	33.844	02:52:17:14	9.735		Labidiasteridae	Rathbunaster			Animalia	Forcipulatida	Echinodermata	Rathbunaster californicus	Asteroidea							Eukaryota		V3167-03
population-quantity | self | 999	cruise	Metridium farcimen	133.15	3167	02:51:25:21	 	36.83858	-122.153656	2467572	3	24:41.0	Ventana	33.841	02:53:08:22	9.752	Anthozoa	Metridiidae	Metridium			Animalia	Actiniaria	Cnidaria	Metridium farcimen	Hexacorallia			Nyantheae				Eukaryota		V3167-03
"upon | cable | nil, population-quantity | self | 999"	cruise	Metridium farcimen	131.69	3167	02:51:56:05	 	36.838646	-122.15348	2467576	3.05	25:11.0	Ventana	33.82	02:53:37:26	9.843	Anthozoa	Metridiidae	Metridium			Animalia	Actiniaria	Cnidaria	Metridium farcimen	Hexacorallia			Nyantheae				Eukaryota		V3167-03
"habitat | self | flat mud, life-stage | self | juvenile"	cruise	Raja rhina	129.62	3167	02:52:40:04	 	36.838757	-122.153175	2467589	3.06	25:55.0	Ventana	33.823	02:54:22:00	9.822	Chondrichthyes	Rajidae	Raja			Animalia	Rajiformes	Chordata	Raja rhina	Elasmobranchii				Vertebrata			Eukaryota	Batoidea	V3167-03
population-quantity | self | 999	cruise	Rathbunaster californicus	128.83	3167	02:53:02:03	 	36.83895	-122.15266	2467592	3.06	26:17.0	Ventana	33.816	02:54:44:03	9.842		Labidiasteridae	Rathbunaster			Animalia	Forcipulatida	Echinodermata	Rathbunaster californicus	Asteroidea							Eukaryota		V3167-03
population-quantity | self | 999	cruise	Parastichopus leukothele	126.06	3167	02:55:08:14	 	36.83915	-122.15216	2467627	3.11	28:24.0	Ventana	33.812	02:56:51:01	9.916	Holothuroidea	Stichopodidae	Parastichopus			Animalia	Aspidochirotida	Echinodermata	Parastichopus leukothele	Aspidochirotacea							Eukaryota		V3167-03
population-quantity | self | 999	cruise	Rathbunaster californicus	124.9	3167	02:57:57:09	 	36.839466	-122.15134	2467645	3.2	31:13.0	Ventana	33.766	02:59:40:02	10.146		Labidiasteridae	Rathbunaster			Animalia	Forcipulatida	Echinodermata	Rathbunaster californicus	Asteroidea							Eukaryota		V3167-03
population-quantity | self | 999	cruise	Rathbunaster californicus	295.31	3167	01:58:54:28	 	36.832096	-122.165276	2467694	1.12	32:06.0	Ventana	34.159	02:00:37:17	7.019		Labidiasteridae	Rathbunaster			Animalia	Forcipulatida	Echinodermata	Rathbunaster californicus	Asteroidea							Eukaryota		V3167-03
population-quantity | self | 999	cruise	Allocentrotus fragilis	295.33	3167	01:58:56:28	 	36.832104	-122.165276	2467695	1.13	32:08.0	Ventana	34.16	02:00:40:09	7.024	Echinoidea	Strongylocentrotidae	Allocentrotus			Animalia	Echinoida	Echinodermata	Allocentrotus fragilis	Euechinoidea			Echinacea				Eukaryota		V3167-03
population-quantity | self | 999	cruise	Sebastes diploproa	295.11	3167	01:59:00:28	 	36.832123	-122.16526	2467696	1.13	32:13.0	Ventana	34.16	02:00:42:29	7.024	Osteichthyes	Scorpaenidae	Sebastes	Neopterygii		Animalia	Scorpaeniformes	Chordata	Sebastes diploproa	Actinopterygii			Scorpaenoidei	Vertebrata	Gnathostomata		Eukaryota	Acanthopterygii	V3167-03
population-quantity | self | 999	cruise	Rathbunaster californicus	294.6	3167	01:59:12:28	 	36.832165	-122.16522	2467699	1.13	32:25.0	Ventana	34.16	02:00:55:26	7.025		Labidiasteridae	Rathbunaster			Animalia	Forcipulatida	Echinodermata	Rathbunaster californicus	Asteroidea							Eukaryota		V3167-03
upon | Abraliopsis | nil	cruise	Stomphia	293.92	3167	01:59:26:28	 	36.832222	-122.16517	2467701	1.14	32:39.0	Ventana	34.16	02:01:10:14	7.039	Anthozoa	Actinostolidae	Stomphia			Animalia	Actiniaria	Cnidaria		Hexacorallia			Nyantheae				Eukaryota		V3167-03
population-quantity | self | 999	cruise	Rathbunaster californicus	293.33	3167	01:59:40:27	 	36.83228	-122.165115	2467703	1.14	32:53.0	Ventana	34.16	02:01:24:03	7.033		Labidiasteridae	Rathbunaster			Animalia	Forcipulatida	Echinodermata	Rathbunaster californicus	Asteroidea							Eukaryota		V3167-03
population-quantity | self | 999	cruise	Allocentrotus fragilis	292.88	3167	01:59:44:26	 	36.8323	-122.16509	2467704	1.14	32:57.0	Ventana	34.16	02:01:27:24	7.033	Echinoidea	Strongylocentrotidae	Allocentrotus			Animalia	Echinoida	Echinodermata	Allocentrotus fragilis	Euechinoidea			Echinacea				Eukaryota		V3167-03
population-quantity | self | 999	cruise	Rathbunaster californicus	291.86	3167	02:00:09:11	 	36.83241	-122.16499	2467705	1.13	33:21.0	Ventana	34.158	02:01:51:26	7.03		Labidiasteridae	Rathbunaster			Animalia	Forcipulatida	Echinodermata	Rathbunaster californicus	Asteroidea							Eukaryota		V3167-03
population-quantity | self | 999	cruise	Allocentrotus fragilis	291.53	3167	02:00:15:11	 	36.832436	-122.16497	2467706	1.13	33:27.0	Ventana	34.159	02:01:57:05	7.023	Echinoidea	Strongylocentrotidae	Allocentrotus			Animalia	Echinoida	Echinodermata	Allocentrotus fragilis	Euechinoidea			Echinacea				Eukaryota		V3167-03
population-quantity | self | 999	cruise	Rathbunaster californicus	290.54	3167	02:00:37:10	 	36.832535	-122.16489	2467710	1.13	33:49.0	Ventana	34.159	02:02:19:13	7.032		Labidiasteridae	Rathbunaster			Animalia	Forcipulatida	Echinodermata	Rathbunaster californicus	Asteroidea							Eukaryota		V3167-03
population-quantity | self | 999	cruise	Sebastes diploproa	290.25	3167	02:00:43:10	 	36.83256	-122.164856	2467711	1.13	33:55.0	Ventana	34.16	02:02:26:07	7.03	Osteichthyes	Scorpaenidae	Sebastes	Neopterygii		Animalia	Scorpaeniformes	Chordata	Sebastes diploproa	Actinopterygii			Scorpaenoidei	Vertebrata	Gnathostomata		Eukaryota	Acanthopterygii	V3167-03
population-quantity | self | 999	cruise	Sebastes diploproa	288.65	3167	02:01:15:09	 	36.832695	-122.16473	2467713	1.14	34:27.0	Ventana	34.159	02:02:58:23	7.036	Osteichthyes	Scorpaenidae	Sebastes	Neopterygii		Animalia	Scorpaeniformes	Chordata	Sebastes diploproa	Actinopterygii			Scorpaenoidei	Vertebrata	Gnathostomata		Eukaryota	Acanthopterygii	V3167-03
population-quantity | self | 999	cruise	Rathbunaster californicus	288	3167	02:01:25:08	 	36.832737	-122.16468	2467714	1.14	34:37.0	Ventana	34.159	02:03:07:16	7.036		Labidiasteridae	Rathbunaster			Animalia	Forcipulatida	Echinodermata	Rathbunaster californicus	Asteroidea							Eukaryota		V3167-03
population-quantity | self | 999	cruise	Allocentrotus fragilis	287.7	3167	02:01:31:08	 	36.832775	-122.16464	2467715	1.13	34:43.0	Ventana	34.159	02:03:14:00	7.037	Echinoidea	Strongylocentrotidae	Allocentrotus			Animalia	Echinoida	Echinodermata	Allocentrotus fragilis	Euechinoidea			Echinacea				Eukaryota		V3167-03
population-quantity | self | 999	cruise	Rathbunaster californicus	286.34	3167	02:01:57:22	 	36.832874	-122.164536	2467721	1.14	35:09.0	Ventana	34.158	02:03:40:21	7.043		Labidiasteridae	Rathbunaster			Animalia	Forcipulatida	Echinodermata	Rathbunaster californicus	Asteroidea							Eukaryota		V3167-03
population-quantity | self | 999	cruise	Rathbunaster californicus	284.51	3167	02:02:29:22	 	36.833008	-122.16439	2467729	1.14	35:42.0	Ventana	34.158	02:04:12:21	7.049		Labidiasteridae	Rathbunaster			Animalia	Forcipulatida	Echinodermata	Rathbunaster californicus	Asteroidea							Eukaryota		V3167-03
"identity-gender | self | female, habitat | self | flat mud"	cruise	Bathyraja kincaidii	284.01	3167	02:02:37:21	http://search.mbari.org/ARCHIVE/frameGrabs/Ventana/images/3167/02_04_19_24.jpg	36.833042	-122.16435	2467734	1.14	35:50.0	Ventana	34.158	02:04:19:24	7.049	Chondrichthyes	Arhynchobatidae	Bathyraja			Animalia	Rajiformes	Chordata	Bathyraja kincaidii	Elasmobranchii				Vertebrata			Eukaryota	Batoidea	V3167-03
population-density | self | dense	cruise	Sebastes diploproa	283.28	3167	02:02:45:21	 	36.833073	-122.16432	2467737	1.14	35:58.0	Ventana	34.158	02:04:28:29	7.055	Osteichthyes	Scorpaenidae	Sebastes	Neopterygii		Animalia	Scorpaeniformes	Chordata	Sebastes diploproa	Actinopterygii			Scorpaenoidei	Vertebrata	Gnathostomata		Eukaryota	Acanthopterygii	V3167-03
population-quantity | self | 999	cruise	Allocentrotus fragilis	282.81	3167	02:02:53:21	 	36.833103	-122.16429	2467738	1.14	36:06.0	Ventana	34.158	02:04:36:00	7.055	Echinoidea	Strongylocentrotidae	Allocentrotus			Animalia	Echinoida	Echinodermata	Allocentrotus fragilis	Euechinoidea			Echinacea				Eukaryota		V3167-03
population-quantity | self | 999	cruise	Rathbunaster californicus	282.47	3167	02:02:59:20	 	36.833126	-122.16426	2467739	1.15	36:12.0	Ventana	34.158	02:04:42:09	7.061		Labidiasteridae	Rathbunaster			Animalia	Forcipulatida	Echinodermata	Rathbunaster californicus	Asteroidea							Eukaryota		V3167-03
population-quantity | self | 999	cruise	Rathbunaster californicus	280.96	3167	02:03:26:05	 	36.833233	-122.16414	2467741	1.16	36:38.0	Ventana	34.157	02:05:08:21	7.075		Labidiasteridae	Rathbunaster			Animalia	Forcipulatida	Echinodermata	Rathbunaster californicus	Asteroidea							Eukaryota		V3167-03
population-quantity | self | 999	cruise	Allocentrotus fragilis	280.51	3167	02:03:32:04	 	36.833256	-122.16411	2467742	1.16	36:44.0	Ventana	34.157	02:05:15:12	7.075	Echinoidea	Strongylocentrotidae	Allocentrotus			Animalia	Echinoida	Echinodermata	Allocentrotus fragilis	Euechinoidea			Echinacea				Eukaryota		V3167-03
population-quantity | self | 999	cruise	Rathbunaster californicus	279.09	3167	02:03:58:04	 	36.833347	-122.16399	2467744	1.16	37:10.0	Ventana	34.155	02:05:41:00	7.089		Labidiasteridae	Rathbunaster			Animalia	Forcipulatida	Echinodermata	Rathbunaster californicus	Asteroidea							Eukaryota		V3167-03
population-quantity | self | 999	cruise	Allocentrotus fragilis	278.73	3167	02:04:04:04	 	36.83337	-122.163956	2467745	1.16	37:16.0	Ventana	34.155	02:05:47:07	7.089	Echinoidea	Strongylocentrotidae	Allocentrotus			Animalia	Echinoida	Echinodermata	Allocentrotus fragilis	Euechinoidea			Echinacea				Eukaryota		V3167-03
population-quantity | self | 999	cruise	Sebastes diploproa	278.43	3167	02:04:10:04	 	36.833393	-122.163925	2467746	1.16	37:22.0	Ventana	34.155	02:05:53:12	7.089	Osteichthyes	Scorpaenidae	Sebastes	Neopterygii		Animalia	Scorpaeniformes	Chordata	Sebastes diploproa	Actinopterygii			Scorpaenoidei	Vertebrata	Gnathostomata		Eukaryota	Acanthopterygii	V3167-03
population-quantity | self | 999	cruise	Allocentrotus fragilis	277.19	3167	02:04:32:03	 	36.83347	-122.16382	2467748	1.17	37:44.0	Ventana	34.155	02:06:15:20	7.096	Echinoidea	Strongylocentrotidae	Allocentrotus			Animalia	Echinoida	Echinodermata	Allocentrotus fragilis	Euechinoidea			Echinacea				Eukaryota		V3167-03
population-quantity | self | 999	cruise	Rathbunaster californicus	276.98	3167	02:04:38:03	 	36.8335	-122.16378	2467749	1.17	37:50.0	Ventana	34.155	02:06:21:06	7.096		Labidiasteridae	Rathbunaster			Animalia	Forcipulatida	Echinodermata	Rathbunaster californicus	Asteroidea							Eukaryota		V3167-03
"habitat | self | flat mud, life-stage | self | juvenile"	cruise	Raja rhina	276.67	3167	02:04:44:03	 	36.83352	-122.16375	2467750	1.17	37:56.0	Ventana	34.156	02:06:26:18	7.095	Chondrichthyes	Rajidae	Raja			Animalia	Rajiformes	Chordata	Raja rhina	Elasmobranchii				Vertebrata			Eukaryota	Batoidea	V3167-03
population-quantity | self | 999	cruise	Allocentrotus fragilis	276.46	3167	02:04:50:02	 	36.83354	-122.16372	2467751	1.17	38:02.0	Ventana	34.156	02:06:34:02	7.095	Echinoidea	Strongylocentrotidae	Allocentrotus			Animalia	Echinoida	Echinodermata	Allocentrotus fragilis	Euechinoidea			Echinacea				Eukaryota		V3167-03
population-quantity | self | 999	cruise	Lycodes cortezianus	275.05	3167	02:05:14:16	 	36.833626	-122.1636	2467752	1.17	38:26.0	Ventana	34.155	02:06:56:05	7.099	Osteichthyes	Zoarcidae	Lycodes	Neopterygii		Animalia	Perciformes	Chordata	Lycodes cortezianus	Actinopterygii			Zoarcoidei	Vertebrata	Gnathostomata		Eukaryota	Acanthopterygii	V3167-03
population-quantity | self | 999	cruise	Parastichopus leukothele	274.36	3167	02:05:26:16	 	36.833668	-122.163536	2467753	1.17	38:38.0	Ventana	34.155	02:07:09:13	7.123	Holothuroidea	Stichopodidae	Parastichopus			Animalia	Aspidochirotida	Echinodermata	Parastichopus leukothele	Aspidochirotacea							Eukaryota		V3167-03
population-quantity | self | 999	cruise	Rathbunaster californicus	272.66	3167	02:05:54:15	 	36.83377	-122.1634	2467754	1.18	39:07.0	Ventana	34.155	02:07:37:06	7.124		Labidiasteridae	Rathbunaster			Animalia	Forcipulatida	Echinodermata	Rathbunaster californicus	Asteroidea							Eukaryota		V3167-03
population-quantity | self | 999	cruise	Allocentrotus fragilis	271.05	3167	02:06:18:15	 	36.83387	-122.16327	2467756	1.19	39:31.0	Ventana	34.153	02:08:00:27	7.15	Echinoidea	Strongylocentrotidae	Allocentrotus			Animalia	Echinoida	Echinodermata	Allocentrotus fragilis	Euechinoidea			Echinacea				Eukaryota		V3167-03
population-quantity | self | 999	cruise	Sebastes diploproa	270.57	3167	02:06:24:14	 	36.833893	-122.16324	2467757	1.19	39:37.0	Ventana	34.153	02:08:07:09	7.15	Osteichthyes	Scorpaenidae	Sebastes	Neopterygii		Animalia	Scorpaeniformes	Chordata	Sebastes diploproa	Actinopterygii			Scorpaenoidei	Vertebrata	Gnathostomata		Eukaryota	Acanthopterygii	V3167-03
population-quantity | self | 999	cruise	Rathbunaster californicus	269.43	3167	02:06:42:29	 	36.83396	-122.163155	2467758	1.21	39:55.0	Ventana	34.151	02:08:25:23	7.179		Labidiasteridae	Rathbunaster			Animalia	Forcipulatida	Echinodermata	Rathbunaster californicus	Asteroidea							Eukaryota		V3167-03
"identity-gender | self | female, habitat | self | flat mud"	cruise	Bathyraja kincaidii	269.13	3167	02:06:44:29	 	36.83397	-122.16315	2467760	1.21	39:57.0	Ventana	34.151	02:08:28:15	7.179	Chondrichthyes	Arhynchobatidae	Bathyraja			Animalia	Rajiformes	Chordata	Bathyraja kincaidii	Elasmobranchii				Vertebrata			Eukaryota	Batoidea	V3167-03
population-quantity | self | 999	cruise	Sebastes diploproa	265.95	3167	02:07:24:28	 	36.83413	-122.16295	2467761	1.23	40:37.0	Ventana	34.15	02:09:08:02	7.216	Osteichthyes	Scorpaenidae	Sebastes	Neopterygii		Animalia	Scorpaeniformes	Chordata	Sebastes diploproa	Actinopterygii			Scorpaenoidei	Vertebrata	Gnathostomata		Eukaryota	Acanthopterygii	V3167-03
population-quantity | self | 999	cruise	Rathbunaster californicus	264.83	3167	02:07:38:27	 	36.834183	-122.16287	2467763	1.24	40:51.0	Ventana	34.15	02:09:20:23	7.254		Labidiasteridae	Rathbunaster			Animalia	Forcipulatida	Echinodermata	Rathbunaster californicus	Asteroidea							Eukaryota		V3167-03
population-quantity | self | 999	cruise	Allocentrotus fragilis	264.23	3167	02:07:44:27	 	36.83421	-122.16284	2467764	1.32	40:57.0	Ventana	34.133	02:09:27:29	7.432	Echinoidea	Strongylocentrotidae	Allocentrotus			Animalia	Echinoida	Echinodermata	Allocentrotus fragilis	Euechinoidea			Echinacea				Eukaryota		V3167-03
population-quantity | self | 999	cruise	Rathbunaster californicus	263.05	3167	02:07:58:27	 	36.83427	-122.162766	2467765	1.37	41:11.0	Ventana	34.135	02:09:41:19	7.478		Labidiasteridae	Rathbunaster			Animalia	Forcipulatida	Echinodermata	Rathbunaster californicus	Asteroidea							Eukaryota		V3167-03
population-quantity | self | 999	cruise	Rathbunaster californicus	261.36	3167	02:08:19:11	 	36.834347	-122.16266	2467767	1.41	41:31.0	Ventana	34.133	02:10:01:14	7.578		Labidiasteridae	Rathbunaster			Animalia	Forcipulatida	Echinodermata	Rathbunaster californicus	Asteroidea							Eukaryota		V3167-03
population-quantity | self | 999	cruise	Allocentrotus fragilis	260.36	3167	02:08:31:11	 	36.83439	-122.1626	2467769	1.46	41:43.0	Ventana	34.124	02:10:14:17	7.653	Echinoidea	Strongylocentrotidae	Allocentrotus			Animalia	Echinoida	Echinodermata	Allocentrotus fragilis	Euechinoidea			Echinacea				Eukaryota		V3167-03
population-density | self | dense	cruise	Sebastes diploproa	258.58	3167	02:08:47:10	 	36.83445	-122.162506	2467770	1.49	41:59.0	Ventana	34.125	02:10:29:17	7.704	Osteichthyes	Scorpaenidae	Sebastes	Neopterygii		Animalia	Scorpaeniformes	Chordata	Sebastes diploproa	Actinopterygii			Scorpaenoidei	Vertebrata	Gnathostomata		Eukaryota	Acanthopterygii	V3167-03
population-quantity | self | 999	cruise	Rathbunaster californicus	257.22	3167	02:08:59:10	 	36.8345	-122.16244	2467772	1.5	42:12.0	Ventana	34.121	02:10:41:13	7.692		Labidiasteridae	Rathbunaster			Animalia	Forcipulatida	Echinodermata	Rathbunaster californicus	Asteroidea							Eukaryota		V3167-03
population-quantity | self | 999	cruise	Sebastes diploproa	255.72	3167	02:09:13:09	 	36.83455	-122.16237	2467773	1.5	42:26.0	Ventana	34.121	02:10:54:28	7.717	Osteichthyes	Scorpaenidae	Sebastes	Neopterygii		Animalia	Scorpaeniformes	Chordata	Sebastes diploproa	Actinopterygii			Scorpaenoidei	Vertebrata	Gnathostomata		Eukaryota	Acanthopterygii	V3167-03
population-quantity | self | 999	cruise	Allocentrotus fragilis	253.88	3167	02:09:29:09	 	36.834606	-122.162285	2467774	1.52	42:42.0	Ventana	34.121	02:11:12:07	7.748	Echinoidea	Strongylocentrotidae	Allocentrotus			Animalia	Echinoida	Echinodermata	Allocentrotus fragilis	Euechinoidea			Echinacea				Eukaryota		V3167-03
"identity-gender | self | female, habitat | self | flat mud"	cruise	Bathyraja kincaidii	252.97	3167	02:09:37:08	 	36.834644	-122.16223	2467775	1.52	42:50.0	Ventana	34.121	02:11:21:08	7.748	Chondrichthyes	Arhynchobatidae	Bathyraja			Animalia	Rajiformes	Chordata	Bathyraja kincaidii	Elasmobranchii				Vertebrata			Eukaryota	Batoidea	V3167-03
mating | nil | nil	cruise	Pleurobranchaea californica	252.97	3167	02:09:37:08	http://search.mbari.org/ARCHIVE/frameGrabs/Ventana/images/3167/02_11_20_28.jpg	36.834644	-122.16223	2467799	1.52	42:50.0	Ventana	34.121	02:11:20:28	7.748	Gastropoda	Pleurobranchidae	Pleurobranchaea			Animalia	Notaspidea	Mollusca	Pleurobranchaea californica	Opisthobranchia						Pleurobranchiacea	Eukaryota		V3167-03
population-quantity | self | 999	cruise	Rathbunaster californicus	252.01	3167	02:09:47:23	 	36.83468	-122.162186	2467800	1.53	43:00.0	Ventana	34.117	02:11:30:22	7.765		Labidiasteridae	Rathbunaster			Animalia	Forcipulatida	Echinodermata	Rathbunaster californicus	Asteroidea							Eukaryota		V3167-03
"habitat | self | flat mud, life-stage | self | juvenile"	cruise	Raja rhina	250.7	3167	02:09:59:23	 	36.83472	-122.16212	2467802	1.54	43:12.0	Ventana	34.117	02:11:43:06	7.766	Chondrichthyes	Rajidae	Raja			Animalia	Rajiformes	Chordata	Raja rhina	Elasmobranchii				Vertebrata			Eukaryota	Batoidea	V3167-03
population-density | self | dense	cruise	shell hash	252.01	3167	02:09:47:23	 	36.83468	-122.162186	2467805	1.53	43:00.0	Ventana	34.117	02:11:30:14	7.765																			V3167-03
population-density | self | dense	cruise	Sebastes diploproa	245.96	3167	02:10:35:22	 	36.834846	-122.16193	2467807	1.55	43:48.0	Ventana	34.12	02:12:17:22	7.797	Osteichthyes	Scorpaenidae	Sebastes	Neopterygii		Animalia	Scorpaeniformes	Chordata	Sebastes diploproa	Actinopterygii			Scorpaenoidei	Vertebrata	Gnathostomata		Eukaryota	Acanthopterygii	V3167-03
population-quantity | self | 999	cruise	Allocentrotus fragilis	244.95	3167	02:10:43:21	 	36.834877	-122.16189	2467808	1.56	43:56.0	Ventana	34.115	02:12:25:23	7.804	Echinoidea	Strongylocentrotidae	Allocentrotus			Animalia	Echinoida	Echinodermata	Allocentrotus fragilis	Euechinoidea			Echinacea				Eukaryota		V3167-03
population-density | self | dense	cruise	Allocentrotus fragilis	240.83	3167	02:11:23:20	 	36.835033	-122.161674	2467810	1.58	44:36.0	Ventana	34.114	02:13:06:26	7.853	Echinoidea	Strongylocentrotidae	Allocentrotus			Animalia	Echinoida	Echinodermata	Allocentrotus fragilis	Euechinoidea			Echinacea				Eukaryota		V3167-03
identity-certainty | self | maybe	cruise	Enteroctopus dofleini	239.67	3167	02:11:36:04	 	36.83508	-122.16161	2467811	1.59	44:48.0	Ventana	34.113	02:13:18:11	7.862	Cephalopoda	Octopodidae	Enteroctopus			Animalia	Octopoda	Mollusca	Enteroctopus dofleini	Coleoidea	Octopodinae		Incirrata				Eukaryota	Octopodiformes	V3167-03
"identity-gender | self | male, habitat | self | flat mud"	cruise	Bathyraja kincaidii	236.86	3167	02:12:00:04	http://search.mbari.org/ARCHIVE/frameGrabs/Ventana/images/3167/02_13_43_10.jpg	36.83517	-122.16149	2467813	1.61	45:12.0	Ventana	34.111	02:13:43:10	7.903	Chondrichthyes	Arhynchobatidae	Bathyraja			Animalia	Rajiformes	Chordata	Bathyraja kincaidii	Elasmobranchii				Vertebrata			Eukaryota	Batoidea	V3167-03
population-quantity | self | 999	cruise	Sebastes diploproa	233.71	3167	02:12:28:03	 	36.835266	-122.16135	2467816	1.61	45:41.0	Ventana	34.111	02:14:10:28	7.898	Osteichthyes	Scorpaenidae	Sebastes	Neopterygii		Animalia	Scorpaeniformes	Chordata	Sebastes diploproa	Actinopterygii			Scorpaenoidei	Vertebrata	Gnathostomata		Eukaryota	Acanthopterygii	V3167-03
population-quantity | self | 999	cruise	Sebastes	232.33	3167	02:12:40:02	 	36.8353	-122.161285	2467817	1.62	45:53.0	Ventana	34.11	02:14:23:07	7.913	Osteichthyes	Scorpaenidae	Sebastes	Neopterygii		Animalia	Scorpaeniformes	Chordata		Actinopterygii			Scorpaenoidei	Vertebrata	Gnathostomata		Eukaryota	Acanthopterygii	V3167-03
population-quantity | self | 999	cruise	Pandalus platyceros	230.89	3167	02:12:56:02	 	36.83535	-122.16121	2467818	1.62	46:09.0	Ventana	34.109	02:14:40:04	7.923	Malacostraca	Pandalidae	Pandalus		Caridea	Animalia	Decapoda	Arthropoda	Pandalus platyceros	Eumalacostraca						Pandaloidea	Eukaryota	Eucarida	V3167-03
population-quantity | self | 999	cruise	Pandalus platyceros	226.65	3167	02:13:32:16	 	36.835453	-122.16105	2467820	1.63	46:45.0	Ventana	34.108	02:15:14:08	7.938	Malacostraca	Pandalidae	Pandalus		Caridea	Animalia	Decapoda	Arthropoda	Pandalus platyceros	Eumalacostraca						Pandaloidea	Eukaryota	Eucarida	V3167-03
population-quantity | self | 999	cruise	Sebastes diploproa	226.55	3167	02:13:38:16	 	36.83547	-122.161026	2467821	1.63	46:51.0	Ventana	34.108	02:15:21:07	7.938	Osteichthyes	Scorpaenidae	Sebastes	Neopterygii		Animalia	Scorpaeniformes	Chordata	Sebastes diploproa	Actinopterygii			Scorpaenoidei	Vertebrata	Gnathostomata		Eukaryota	Acanthopterygii	V3167-03
identity-reference | self | end: minor cable suspension	cruise	cable	224.73	3167	02:13:46:16	http://search.mbari.org/ARCHIVE/frameGrabs/Ventana/images/3167/02_15_28_12.jpg	36.83549	-122.16099	2467822	1.64	46:59.0	Ventana	34.109	02:15:28:12	7.936																			V3167-03
identity-reference | self | start: minor cable suspension	cruise	cable	236.26	3167	02:12:06:04	 	36.83519	-122.16146	2467814	1.61	45:18.0	Ventana	34.111	02:13:49:20	7.903																			V3167-03
population-quantity | self | 999	cruise	Florometra serratissima	224.73	3167	02:13:46:16	http://search.mbari.org/ARCHIVE/frameGrabs/Ventana/images/3167/02_15_28_12.jpg	36.83549	-122.16099	2467823	1.64	46:59.0	Ventana	34.109	02:15:28:12	7.936	Crinoidea	Antedonidae	Florometra			Animalia	Comatulidina	Echinodermata	Florometra serratissima							Antedonacea	Eukaryota		V3167-03
population-quantity | self | 999	cruise	Florometra serratissima	222.55	3167	02:14:00:15	 	36.835533	-122.16093	2467826	1.64	47:13.0	Ventana	34.109	02:15:42:17	7.944	Crinoidea	Antedonidae	Florometra			Animalia	Comatulidina	Echinodermata	Florometra serratissima							Antedonacea	Eukaryota		V3167-03
identity-reference | self | start: minor cable span	cruise	cable	222.55	3167	02:14:00:15	 	36.835533	-122.16093	2467828	1.64	47:13.0	Ventana	34.109	02:15:42:15	7.944																			V3167-03
population-quantity | self | 999	cruise	Sebastes	221.79	3167	02:14:04:15	 	36.835545	-122.160904	2467829	1.64	47:17.0	Ventana	34.109	02:15:48:01	7.944	Osteichthyes	Scorpaenidae	Sebastes	Neopterygii		Animalia	Scorpaeniformes	Chordata		Actinopterygii			Scorpaenoidei	Vertebrata	Gnathostomata		Eukaryota	Acanthopterygii	V3167-03
"comment | self | cable minor span, habitat | self | flat mud, life-stage | self | juvenile"	cruise	Raja rhina	218.83	3167	02:14:24:15	 	36.835606	-122.16081	2467831	1.66	47:37.0	Ventana	34.107	02:16:08:02	7.973	Chondrichthyes	Rajidae	Raja			Animalia	Rajiformes	Chordata	Raja rhina	Elasmobranchii				Vertebrata			Eukaryota	Batoidea	V3167-03
population-density | self | dense	cruise	Allocentrotus fragilis	217.98	3167	02:14:30:15	 	36.83562	-122.16078	2467832	1.67	47:43.0	Ventana	34.102	02:16:13:28	7.999	Echinoidea	Strongylocentrotidae	Allocentrotus			Animalia	Echinoida	Echinodermata	Allocentrotus fragilis	Euechinoidea			Echinacea				Eukaryota		V3167-03
identity-reference | self | end: minor cable span	cruise	cable	216.69	3167	02:14:36:14	 	36.835648	-122.16074	2467833	1.67	47:49.0	Ventana	34.102	02:16:20:17	7.999																			V3167-03
population-density | self | dense	cruise	Allocentrotus fragilis	215.16	3167	02:14:52:28	 	36.835693	-122.16067	2467863	1.69	48:05.0	Ventana	34.1	02:16:34:26	8.021	Echinoidea	Strongylocentrotidae	Allocentrotus			Animalia	Echinoida	Echinodermata	Allocentrotus fragilis	Euechinoidea			Echinacea				Eukaryota		V3167-03
population-density | self | dense	cruise	Allocentrotus fragilis	211.6	3167	02:15:14:28	 	36.83576	-122.16056	2467865	1.73	48:27.0	Ventana	34.097	02:16:57:17	8.085	Echinoidea	Strongylocentrotidae	Allocentrotus			Animalia	Echinoida	Echinodermata	Allocentrotus fragilis	Euechinoidea			Echinacea				Eukaryota		V3167-03
population-quantity | self | 999	cruise	Sebastes diploproa	209.44	3167	02:15:30:28	 	36.83581	-122.16048	2467867	1.75	48:44.0	Ventana	34.094	02:17:14:09	8.129	Osteichthyes	Scorpaenidae	Sebastes	Neopterygii		Animalia	Scorpaeniformes	Chordata	Sebastes diploproa	Actinopterygii			Scorpaenoidei	Vertebrata	Gnathostomata		Eukaryota	Acanthopterygii	V3167-03
population-dispersal | self | school	cruise	Sebastes	204.23	3167	02:16:31:11	http://search.mbari.org/ARCHIVE/frameGrabs/Ventana/images/3167/02_18_14_02.jpg	36.835987	-122.16021	2467870	1.88	49:44.0	Ventana	34.077	02:18:14:02	8.287	Osteichthyes	Scorpaenidae	Sebastes	Neopterygii		Animalia	Scorpaeniformes	Chordata		Actinopterygii			Scorpaenoidei	Vertebrata	Gnathostomata		Eukaryota	Acanthopterygii	V3167-03
mating | nil | nil	cruise	Pleurobranchaea californica	192.34	3167	02:18:15:22	 	36.836365	-122.15969	2467876	2.12	51:28.0	Ventana	34.034	02:19:58:08	8.698	Gastropoda	Pleurobranchidae	Pleurobranchaea			Animalia	Notaspidea	Mollusca	Pleurobranchaea californica	Opisthobranchia						Pleurobranchiacea	Eukaryota		V3167-03
identity-reference | self | start: minor cable span	cruise	cable	188.88	3167	02:18:47:21	http://search.mbari.org/ARCHIVE/frameGrabs/Ventana/images/3167/02_20_30_07.jpg	36.836452	-122.159515	2467880	2.21	52:00.0	Ventana	34.007	02:20:30:07	8.862																			V3167-03
identity-reference | self | end: minor cable span	cruise	cable	183.56	3167	02:19:35:20	http://search.mbari.org/ARCHIVE/frameGrabs/Ventana/images/3167/02_21_19_15.jpg	36.836582	-122.15922	2467881	2.34	52:49.0	Ventana	33.987	02:21:19:15	8.943																			V3167-03
identity-reference | self | end: minor cable span	cruise	cable	184.22	3167	02:19:31:20	 	36.83657	-122.15924	2467882	2.34	52:45.0	Ventana	33.987	02:21:15:16	8.943																			V3167-03
"identity-reference | self | start: cable shallow burial, sinking with sediment on top"	cruise	cable	133.82	3167	02:50:29:23	http://search.mbari.org/ARCHIVE/frameGrabs/Ventana/images/3167/02_52_12_24.jpg	36.83848	-122.15396	2467557	2.99	23:44.0	Ventana	33.844	02:52:12:24	9.735																			V3167-03
"identity-reference | self | start: cable taut upon seafloor, alternating with partially buried"	cruise	cable	146.42	3167	02:44:26:04	http://search.mbari.org/ARCHIVE/frameGrabs/Ventana/images/3167/02_46_09_13.jpg	36.837624	-122.15632	2467458	2.91	17:40.0	Ventana	33.869	02:46:09:13	9.616																			V3167-03
"identity-reference | self | start: cable shallow burial, sinking with sediment on top"	cruise	cable	143.33	3167	02:45:16:03	http://search.mbari.org/ARCHIVE/frameGrabs/Ventana/images/3167/02_46_59_24.jpg	36.837727	-122.156006	2467883	2.93	18:31.0	Ventana	33.857	02:46:59:24	9.658																			V3167-03
"identity-reference | self | start: cable taut upon seafloor, alternating with partially buried"	cruise	cable	136.72	3167	02:49:07:10	 	36.83833	-122.15441	2467506	2.94	22:22.0	Ventana	33.857	02:50:50:26	9.671																			V3167-03
"identity-reference | self | start: cable taut upon seafloor, alternating with partially buried"	cruise	cable	133.37	3167	02:50:55:22	http://search.mbari.org/ARCHIVE/frameGrabs/Ventana/images/3167/02_52_38_11.jpg	36.838524	-122.153824	2467998	2.98	24:10.0	Ventana	33.847	02:52:38:11	9.726																			V3167-03
"identity-reference | self | white, long"	cruise	Pennatulacea	117.38	3167	03:05:39:09	http://search.mbari.org/ARCHIVE/frameGrabs/Ventana/images/3167/03_07_19_21.jpg	36.84122	-122.147224	20024064	3.54	39:17.0	Ventana	33.731	03:07:19:21	10.41	Anthozoa					Animalia	Pennatulacea	Cnidaria		Octocorallia							Eukaryota		V3167-04
identity-reference | self | highly disturbed	cruise	sediment	117.34	3167	03:05:59:08	http://search.mbari.org/ARCHIVE/frameGrabs/Ventana/images/3167/03_07_38_20.jpg	36.841244	-122.1471	20024065	3.58	39:37.0	Ventana	33.725	03:07:38:20	10.417																			V3167-04
"identity-reference | self | white, long"	cruise	Pennatulacea	104.27	3167	03:57:48:02	http://search.mbari.org/ARCHIVE/frameGrabs/Ventana/images/3167/03_59_28_00.jpg	36.84817	-122.129	20024091	4.99	31:29.0	Ventana	33.485	03:59:28:00	11.273	Anthozoa					Animalia	Pennatulacea	Cnidaria		Octocorallia							Eukaryota		V3167-04
"relative-size | self | large, upon | cable | nil"	cruise	Metridium farcimen	123.61	3167	02:58:27:22	http://search.mbari.org/ARCHIVE/frameGrabs/Ventana/images/3167/03_00_08_00.jpg	36.83962	-122.150955	2468069	3.43	32:05.0	Ventana	33.751	03:00:08:00	10.3	Anthozoa	Metridiidae	Metridium			Animalia	Actiniaria	Cnidaria	Metridium farcimen	Hexacorallia			Nyantheae				Eukaryota		V3167-04
population-quantity | self | 999	cruise	Rathbunaster californicus	123.68	3167	02:58:33:22	 	36.839638	-122.15091	2468076	3.38	32:11.0	Ventana	33.743	03:00:13:18	10.324		Labidiasteridae	Rathbunaster			Animalia	Forcipulatida	Echinodermata	Rathbunaster californicus	Asteroidea							Eukaryota		V3167-04
population-quantity | self | 999	cruise	Pleuronectiformes	123.28	3167	02:58:43:22	 	36.83967	-122.15083	2468077	3.38	32:21.0	Ventana	33.743	03:00:23:16	10.324	Osteichthyes			Neopterygii		Animalia	Pleuronectiformes	Chordata		Actinopterygii				Vertebrata	Gnathostomata		Eukaryota	Acanthopterygii	V3167-04
population-quantity | self | 999	cruise	Parastichopus leukothele	123.03	3167	02:58:59:21	 	36.839718	-122.15071	2468081	3.57	32:37.0	Ventana	33.717	03:00:40:10	10.438	Holothuroidea	Stichopodidae	Parastichopus			Animalia	Aspidochirotida	Echinodermata	Parastichopus leukothele	Aspidochirotacea							Eukaryota		V3167-04
population-quantity | self | 999	cruise	Metridium farcimen	122.43	3167	02:59:43:20	 	36.839855	-122.15038	2468087	3.38	33:21.0	Ventana	33.749	03:01:24:10	10.3	Anthozoa	Metridiidae	Metridium			Animalia	Actiniaria	Cnidaria	Metridium farcimen	Hexacorallia			Nyantheae				Eukaryota		V3167-04
"relative-size | self | small, upon | cable | nil"	cruise	Metridium farcimen	122.48	3167	02:59:51:20	 	36.83988	-122.15032	2468092	3.48	33:29.0	Ventana	33.728	03:01:31:24	10.395	Anthozoa	Metridiidae	Metridium			Animalia	Actiniaria	Cnidaria	Metridium farcimen	Hexacorallia			Nyantheae				Eukaryota		V3167-04
population-quantity | self | 999	cruise	Rathbunaster californicus	122.27	3167	03:00:04:04	 	36.839924	-122.150215	2468097	3.54	33:41.0	Ventana	33.727	03:01:44:23	10.418		Labidiasteridae	Rathbunaster			Animalia	Forcipulatida	Echinodermata	Rathbunaster californicus	Asteroidea							Eukaryota		V3167-04
"relative-size | self | large, upon | cable | nil"	cruise	Metridium farcimen	121.67	3167	03:00:18:04	 	36.84006	-122.14988	2468099	3.65	33:55.0	Ventana	33.716	03:01:57:12	10.474	Anthozoa	Metridiidae	Metridium			Animalia	Actiniaria	Cnidaria	Metridium farcimen	Hexacorallia			Nyantheae				Eukaryota		V3167-04
"relative-size | self | large, upon | cable | nil"	cruise	Metridium farcimen	121.57	3167	03:00:42:03	 	36.840088	-122.14981	2468102	3.64	34:19.0	Ventana	33.715	03:02:21:27	10.485	Anthozoa	Metridiidae	Metridium			Animalia	Actiniaria	Cnidaria	Metridium farcimen	Hexacorallia			Nyantheae				Eukaryota		V3167-04
population-quantity | self | 999	cruise	Rathbunaster californicus	121.48	3167	03:00:46:03	 	36.840096	-122.149796	2468105	3.66	34:23.0	Ventana	33.712	03:02:25:20	10.489		Labidiasteridae	Rathbunaster			Animalia	Forcipulatida	Echinodermata	Rathbunaster californicus	Asteroidea							Eukaryota		V3167-04
population-quantity | self | 999	cruise	Rathbunaster californicus	121.51	3167	03:00:56:03	 	36.840122	-122.14973	2468108	3.66	34:34.0	Ventana	33.712	03:02:36:01	10.489		Labidiasteridae	Rathbunaster			Animalia	Forcipulatida	Echinodermata	Rathbunaster californicus	Asteroidea							Eukaryota		V3167-04
population-quantity | self | 999	cruise	Metridium farcimen	121.3	3167	03:01:36:17	http://search.mbari.org/ARCHIVE/frameGrabs/Ventana/images/3167/03_03_17_04.jpg	36.840233	-122.149445	2468119	3.55	35:14.0	Ventana	33.735	03:03:17:04	10.394	Anthozoa	Metridiidae	Metridium			Animalia	Actiniaria	Cnidaria	Metridium farcimen	Hexacorallia			Nyantheae				Eukaryota		V3167-04
population-quantity | self | 999	cruise	shell hash	121.3	3167	03:01:36:17	http://search.mbari.org/ARCHIVE/frameGrabs/Ventana/images/3167/03_03_17_04.jpg	36.840233	-122.149445	2468120	3.55	35:14.0	Ventana	33.735	03:03:17:04	10.394																			V3167-04
population-quantity | self | 999	cruise	Parastichopus leukothele	121.13	3167	03:01:44:16	 	36.840263	-122.14936	2468123	3.55	35:22.0	Ventana	33.735	03:03:23:29	10.394	Holothuroidea	Stichopodidae	Parastichopus			Animalia	Aspidochirotida	Echinodermata	Parastichopus leukothele	Aspidochirotacea							Eukaryota		V3167-04
population-quantity | self | 999	cruise	Metridium farcimen	120.97	3167	03:01:56:16	 	36.840305	-122.14927	2468125	3.56	35:34.0	Ventana	33.729	03:03:36:18	10.402	Anthozoa	Metridiidae	Metridium			Animalia	Actiniaria	Cnidaria	Metridium farcimen	Hexacorallia			Nyantheae				Eukaryota		V3167-04
population-quantity | self | 999	cruise	Rathbunaster californicus	119.94	3167	03:02:22:15	 	36.8404	-122.149055	2468127	3.41	36:00.0	Ventana	33.749	03:04:02:15	10.311		Labidiasteridae	Rathbunaster			Animalia	Forcipulatida	Echinodermata	Rathbunaster californicus	Asteroidea							Eukaryota		V3167-04
population-quantity | self | 2	cruise	Ptilosarcus gurneyi	119.67	3167	03:02:38:15	http://search.mbari.org/ARCHIVE/frameGrabs/Ventana/images/3167/03_04_19_10.jpg	36.840458	-122.148926	2468140	3.45	36:16.0	Ventana	33.739	03:04:19:10	10.348	Anthozoa	Pennatulidae	Ptilosarcus			Animalia	Pennatulacea	Cnidaria	Ptilosarcus gurneyi	Octocorallia			Subselliflorae				Eukaryota		V3167-04
population-quantity | self | 999	cruise	Rathbunaster californicus	119.6	3167	03:02:46:14	 	36.840485	-122.148865	2468142	3.47	36:24.0	Ventana	33.741	03:04:25:29	10.347		Labidiasteridae	Rathbunaster			Animalia	Forcipulatida	Echinodermata	Rathbunaster californicus	Asteroidea							Eukaryota		V3167-04
"identity-reference | self | start: cable taut upon seafloor, alternating with partially buried, comment | self | mosstly buried through this area"	cruise	cable	123.55	3167	02:58:29:22	http://search.mbari.org/ARCHIVE/frameGrabs/Ventana/images/3167/03_00_09_19.jpg	36.839626	-122.15094	20024062	3.43	32:07.0	Ventana	33.751	03:00:09:19	10.3																			V3167-04
population-quantity | self | 999	cruise	Rathbunaster californicus	119.6	3167	03:02:46:14	 	36.840485	-122.148865	2468163	3.47	36:24.0	Ventana	33.741	03:04:26:20	10.347		Labidiasteridae	Rathbunaster			Animalia	Forcipulatida	Echinodermata	Rathbunaster californicus	Asteroidea							Eukaryota		V3167-04
"identity-reference | self | start: cable shallow burial, sinking with sediment on top"	cruise	cable	119.67	3167	03:02:42:14	http://search.mbari.org/ARCHIVE/frameGrabs/Ventana/images/3167/03_04_23_01.jpg	36.840473	-122.148895	2468164	3.45	36:20.0	Ventana	33.739	03:04:23:01	10.348																			V3167-04
population-quantity | self | 999	cruise	Rathbunaster californicus	119.6	3167	03:02:46:14	 	36.840485	-122.148865	2468167	3.47	36:24.0	Ventana	33.741	03:04:26:10	10.347		Labidiasteridae	Rathbunaster			Animalia	Forcipulatida	Echinodermata	Rathbunaster californicus	Asteroidea							Eukaryota		V3167-04
population-quantity | self | 999	cruise	Rathbunaster californicus	119.24	3167	03:03:02:14	 	36.84054	-122.148735	2468174	3.46	36:40.0	Ventana	33.741	03:04:42:14	10.346		Labidiasteridae	Rathbunaster			Animalia	Forcipulatida	Echinodermata	Rathbunaster californicus	Asteroidea							Eukaryota		V3167-04
"identity-reference | self | white, long, population-quantity | self | 999"	cruise	Pennatulacea	118.78	3167	03:03:30:28	 	36.840652	-122.14849	2468178	3.62	37:08.0	Ventana	33.711	03:05:11:18	10.479	Anthozoa					Animalia	Pennatulacea	Cnidaria		Octocorallia							Eukaryota		V3167-04
population-quantity | self | 999	cruise	Rathbunaster californicus	118.42	3167	03:03:54:27	 	36.840755	-122.14829	2468184	3.61	37:32.0	Ventana	33.715	03:05:35:07	10.454		Labidiasteridae	Rathbunaster			Animalia	Forcipulatida	Echinodermata	Rathbunaster californicus	Asteroidea							Eukaryota		V3167-04
"identity-reference | self | white, long, population-quantity | self | 999"	cruise	Pennatulacea	118.28	3167	03:04:16:26	 	36.84086	-122.14811	2468186	3.55	37:55.0	Ventana	33.733	03:05:56:24	10.402	Anthozoa					Animalia	Pennatulacea	Cnidaria		Octocorallia							Eukaryota		V3167-04
"identity-reference | self | start: cable taut upon seafloor, alternating with partially buried"	cruise	cable	118.39	3167	03:04:12:27	http://search.mbari.org/ARCHIVE/frameGrabs/Ventana/images/3167/03_05_53_04.jpg	36.840843	-122.14814	2468195	3.56	37:51.0	Ventana	33.714	03:05:53:04	10.45																			V3167-04
identity-reference | self | start: moderately disturbed	cruise	sediment	118.39	3167	03:04:12:27	http://search.mbari.org/ARCHIVE/frameGrabs/Ventana/images/3167/03_05_53_04.jpg	36.840843	-122.14814	2468197	3.56	37:51.0	Ventana	33.714	03:05:53:04	10.45																			V3167-04
identity-reference | self | start: highly disturbed	cruise	sediment	117.89	3167	03:04:22:26	http://search.mbari.org/ARCHIVE/frameGrabs/Ventana/images/3167/03_06_03_18.jpg	36.840885	-122.14806	2468212	3.55	38:01.0	Ventana	33.733	03:06:03:18	10.402																			V3167-04
identity-reference | self | end: highly disturbed	cruise	sediment	117.78	3167	03:04:43:11	 	36.84097	-122.147896	2468234	3.56	38:21.0	Ventana	33.728	03:06:22:20	10.409																			V3167-04
identity-reference | self | start: moderately disturbed	cruise	sediment	117.59	3167	03:04:55:10	 	36.841022	-122.14777	2468241	3.49	38:33.0	Ventana	33.73	03:06:34:12	10.389																			V3167-04
identity-reference | self | start: highly disturbed	cruise	sediment	117.53	3167	03:05:11:10	http://search.mbari.org/ARCHIVE/frameGrabs/Ventana/images/3167/03_06_50_11.jpg	36.84108	-122.14764	2468256	3.51	38:49.0	Ventana	33.732	03:06:50:11	10.385																			V3167-04
identity-reference | self | start: moderately disturbed	cruise	sediment	117.18	3167	03:05:37:09	 	36.841217	-122.14723	2468298	3.54	39:15.0	Ventana	33.731	03:07:17:20	10.41																			V3167-04
identity-reference | self | start: cable buried	cruise	cable	117.28	3167	03:05:19:10	http://search.mbari.org/ARCHIVE/frameGrabs/Ventana/images/3167/03_06_59_09.jpg	36.841106	-122.14757	2468311	3.53	38:57.0	Ventana	33.733	03:06:59:09	10.383																			V3167-04
population-quantity | self | 999	cruise	Rathbunaster californicus	117.17	3167	03:05:31:09	 	36.841213	-122.147255	2468321	3.54	39:09.0	Ventana	33.731	03:07:10:11	10.41		Labidiasteridae	Rathbunaster			Animalia	Forcipulatida	Echinodermata	Rathbunaster californicus	Asteroidea							Eukaryota		V3167-04
"identity-reference | self | white, long, population-quantity | self | 999"	cruise	Pennatulacea	117.03	3167	03:05:47:09	 	36.84123	-122.14719	2468327	3.58	39:25.0	Ventana	33.725	03:07:26:13	10.417	Anthozoa					Animalia	Pennatulacea	Cnidaria		Octocorallia							Eukaryota		V3167-04
identity-reference | self | start: highly disturbed	cruise	sediment	117.34	3167	03:05:59:08	 	36.841244	-122.1471	2468331	3.58	39:37.0	Ventana	33.725	03:07:40:04	10.417																			V3167-04
population-quantity | self | 999	cruise	Rathbunaster californicus	117.34	3167	03:05:59:08	 	36.841244	-122.1471	2468333	3.58	39:37.0	Ventana	33.725	03:07:40:04	10.417		Labidiasteridae	Rathbunaster			Animalia	Forcipulatida	Echinodermata	Rathbunaster californicus	Asteroidea							Eukaryota		V3167-04
"identity-reference | self | white, long"	cruise	Pennatulacea	116.81	3167	03:06:07:08	http://search.mbari.org/ARCHIVE/frameGrabs/Ventana/images/3167/03_07_48_08.jpg	36.84126	-122.14704	2468349	3.59	39:45.0	Ventana	33.718	03:07:48:08	10.45	Anthozoa					Animalia	Pennatulacea	Cnidaria		Octocorallia							Eukaryota		V3167-04
identity-reference | self | start: mildly disturbed	cruise	sediment	115.92	3167	03:06:53:22	 	36.841354	-122.14661	2468367	3.72	40:31.0	Ventana	33.704	03:08:33:15	10.489																			V3167-04
identity-reference | self | start: highly disturbed	cruise	sediment	115.7	3167	03:07:11:21	 	36.84139	-122.14642	2468386	3.67	40:49.0	Ventana	33.714	03:08:51:21	10.456																			V3167-04
population-quantity | self | 999	cruise	Rathbunaster californicus	115.78	3167	03:07:15:21	 	36.8414	-122.14638	2468391	3.67	40:54.0	Ventana	33.714	03:08:56:16	10.446		Labidiasteridae	Rathbunaster			Animalia	Forcipulatida	Echinodermata	Rathbunaster californicus	Asteroidea							Eukaryota		V3167-04
identity-reference | self | start: moderately disturbed	cruise	sediment	115.32	3167	03:07:21:21	 	36.84141	-122.14632	2468395	3.67	41:00.0	Ventana	33.714	03:09:02:02	10.446																			V3167-04
population-quantity | self | 999	cruise	Rathbunaster californicus	115.57	3167	03:07:27:21	 	36.841423	-122.146255	2468400	3.67	41:06.0	Ventana	33.714	03:09:08:20	10.446		Labidiasteridae	Rathbunaster			Animalia	Forcipulatida	Echinodermata	Rathbunaster californicus	Asteroidea							Eukaryota		V3167-04
population-quantity | self | 999	cruise	Rathbunaster californicus	114.96	3167	03:07:37:20	 	36.841442	-122.146164	2468404	3.56	41:16.0	Ventana	33.738	03:09:17:14	10.339		Labidiasteridae	Rathbunaster			Animalia	Forcipulatida	Echinodermata	Rathbunaster californicus	Asteroidea							Eukaryota		V3167-04
"identity-reference | self | white, long, population-quantity | self | 999"	cruise	Pennatulacea	115.35	3167	03:07:43:20	http://search.mbari.org/ARCHIVE/frameGrabs/Ventana/images/3167/03_09_23_12.jpg	36.841454	-122.1461	2468411	3.56	41:22.0	Ventana	33.738	03:09:23:12	10.339	Anthozoa					Animalia	Pennatulacea	Cnidaria		Octocorallia							Eukaryota		V3167-04
identity-reference | self | start: undisturbed	cruise	sediment	115.35	3167	03:07:43:20	http://search.mbari.org/ARCHIVE/frameGrabs/Ventana/images/3167/03_09_23_12.jpg	36.841454	-122.1461	2468415	3.56	41:22.0	Ventana	33.738	03:09:23:12	10.339																			V3167-04
"identity-reference | self | white, long, population-quantity | self | 999"	cruise	Pennatulacea	115.16	3167	03:08:04:04	 	36.84149	-122.14591	2468427	3.87	41:42.0	Ventana	33.686	03:09:44:29	10.589	Anthozoa					Animalia	Pennatulacea	Cnidaria		Octocorallia							Eukaryota		V3167-04
"identity-reference | self | white, long, population-quantity | self | 999"	cruise	Pennatulacea	115	3167	03:08:24:04	 	36.841534	-122.14571	2468430	3.91	42:02.0	Ventana	33.667	03:10:03:09	10.65	Anthozoa					Animalia	Pennatulacea	Cnidaria		Octocorallia							Eukaryota		V3167-04
identity-reference | self | start: moderately disturbed	cruise	sediment	115.04	3167	03:08:26:04	 	36.841534	-122.1457	2468433	3.91	42:04.0	Ventana	33.667	03:10:06:25	10.65																			V3167-04
identity-reference | self | start: mildly disturbed	cruise	sediment	114.82	3167	03:08:46:03	 	36.841576	-122.145515	2468440	3.9	42:24.0	Ventana	33.678	03:10:25:29	10.619																			V3167-04
population-quantity | self | 999	cruise	Rathbunaster californicus	114.51	3167	03:09:40:17	 	36.841637	-122.14498	2468450	3.89	43:18.0	Ventana	33.674	03:11:21:09	10.631		Labidiasteridae	Rathbunaster			Animalia	Forcipulatida	Echinodermata	Rathbunaster californicus	Asteroidea							Eukaryota		V3167-04
identity-reference | self | start: moderately disturbed	cruise	sediment	114.32	3167	03:10:00:16	 	36.841663	-122.14477	2468461	3.75	43:38.0	Ventana	33.688	03:11:39:23	10.571																			V3167-04
population-quantity | self | 999	cruise	Rathbunaster californicus	114.14	3167	03:10:12:15	 	36.84168	-122.14465	2468470	3.75	43:50.0	Ventana	33.688	03:11:52:18	10.571		Labidiasteridae	Rathbunaster			Animalia	Forcipulatida	Echinodermata	Rathbunaster californicus	Asteroidea							Eukaryota		V3167-04
identity-reference | self | start: mildly disturbed	cruise	sediment	114.46	3167	03:10:22:15	 	36.841694	-122.14456	2468474	4.27	44:00.0	Ventana	33.593	03:12:01:19	10.968																			V3167-04
population-quantity | self | 999	cruise	Rathbunaster californicus	114.29	3167	03:10:30:15	 	36.841705	-122.14447	2468478	4.38	44:09.0	Ventana	33.587	03:12:09:15	10.99		Labidiasteridae	Rathbunaster			Animalia	Forcipulatida	Echinodermata	Rathbunaster californicus	Asteroidea							Eukaryota		V3167-04
population-quantity | self | 999	cruise	Metridium farcimen	114.68	3167	03:10:36:15	 	36.841713	-122.14442	2468481	4.38	44:15.0	Ventana	33.587	03:12:15:22	10.99	Anthozoa	Metridiidae	Metridium			Animalia	Actiniaria	Cnidaria	Metridium farcimen	Hexacorallia			Nyantheae				Eukaryota		V3167-04
population-quantity | self | 999	cruise	Rathbunaster californicus	114.52	3167	03:10:54:14	 	36.841736	-122.14424	2468483	4.4	44:33.0	Ventana	33.575	03:12:34:07	11.03		Labidiasteridae	Rathbunaster			Animalia	Forcipulatida	Echinodermata	Rathbunaster californicus	Asteroidea							Eukaryota		V3167-04
identity-reference | self | start: moderately disturbed	cruise	sediment	114.04	3167	03:11:02:14	 	36.841747	-122.14417	2468487	4.62	44:41.0	Ventana	33.546	03:12:42:24	11.128																			V3167-04
"identity-certainty | self | maybe, population-quantity | self | 999"	cruise	Sebastes	114.23	3167	03:11:14:29	 	36.84176	-122.144066	2468501	4.64	44:53.0	Ventana	33.543	03:12:55:22	11.14	Osteichthyes	Scorpaenidae	Sebastes	Neopterygii		Animalia	Scorpaeniformes	Chordata		Actinopterygii			Scorpaenoidei	Vertebrata	Gnathostomata		Eukaryota	Acanthopterygii	V3167-04
population-quantity | self | 999	cruise	Rathbunaster californicus	114.32	3167	03:11:30:28	 	36.841778	-122.14392	2468512	4.61	45:09.0	Ventana	33.557	03:13:11:24	11.092		Labidiasteridae	Rathbunaster			Animalia	Forcipulatida	Echinodermata	Rathbunaster californicus	Asteroidea							Eukaryota		V3167-04
population-quantity | self | 999	cruise	Metridium farcimen	114.21	3167	03:11:38:28	 	36.841785	-122.14385	2468515	4.61	45:17.0	Ventana	33.557	03:13:19:21	11.092	Anthozoa	Metridiidae	Metridium			Animalia	Actiniaria	Cnidaria	Metridium farcimen	Hexacorallia			Nyantheae				Eukaryota		V3167-04
identity-reference | self | start: highly disturbed	cruise	sediment	114.28	3167	03:11:54:27	http://search.mbari.org/ARCHIVE/frameGrabs/Ventana/images/3167/03_13_34_09.jpg	36.841805	-122.143715	2468522	4.49	45:33.0	Ventana	33.575	03:13:34:09	11.035																			V3167-04
population-quantity | self | 999	cruise	Rathbunaster californicus	113.64	3167	03:12:28:26	 	36.841846	-122.14343	2468530	4.45	46:07.0	Ventana	33.574	03:14:08:29	11.036		Labidiasteridae	Rathbunaster			Animalia	Forcipulatida	Echinodermata	Rathbunaster californicus	Asteroidea							Eukaryota		V3167-04
population-quantity | self | 999	cruise	Metridium farcimen	113.91	3167	03:12:40:26	 	36.84186	-122.14333	2468531	4.61	46:19.0	Ventana	33.552	03:14:20:16	11.102	Anthozoa	Metridiidae	Metridium			Animalia	Actiniaria	Cnidaria	Metridium farcimen	Hexacorallia			Nyantheae				Eukaryota		V3167-04
population-quantity | self | 999	cruise	Sebastes	113.91	3167	03:12:40:26	 	36.84186	-122.14333	2468533	4.61	46:19.0	Ventana	33.552	03:14:20:16	11.102	Osteichthyes	Scorpaenidae	Sebastes	Neopterygii		Animalia	Scorpaeniformes	Chordata		Actinopterygii			Scorpaenoidei	Vertebrata	Gnathostomata		Eukaryota	Acanthopterygii	V3167-04
identity-reference | self | start: moderately disturbed	cruise	sediment	113.86	3167	03:12:44:26	 	36.841866	-122.143295	2468536	4.47	46:23.0	Ventana	33.579	03:14:24:13	11.02																			V3167-04
population-quantity | self | 999	cruise	Rathbunaster californicus	113.91	3167	03:13:13:10	 	36.841908	-122.14305	2468545	4.6	46:51.0	Ventana	33.538	03:14:54:01	11.158		Labidiasteridae	Rathbunaster			Animalia	Forcipulatida	Echinodermata	Rathbunaster californicus	Asteroidea							Eukaryota		V3167-04
identity-reference | self | start: highly disturbed	cruise	sediment	113.87	3167	03:13:21:09	http://search.mbari.org/ARCHIVE/frameGrabs/Ventana/images/3167/03_15_00_16.jpg	36.841923	-122.14299	2468552	4.84	46:59.0	Ventana	33.517	03:15:00:16	11.229																			V3167-04
population-density | self | dense	cruise	Laminariales	113.92	3167	03:13:35:09	 	36.84194	-122.14288	2468559	4.84	47:13.0	Ventana	33.52	03:15:15:00	11.222	Phaeophyceae					Chromista	Laminariales	Phaeophycophyta									Eukaryota		V3167-04
"identity-certainty | self | maybe, population-quantity | self | 999"	cruise	Sebastes	113.41	3167	03:13:55:08	 	36.841972	-122.142715	2468570	4.81	47:34.0	Ventana	33.521	03:15:35:11	11.215	Osteichthyes	Scorpaenidae	Sebastes	Neopterygii		Animalia	Scorpaeniformes	Chordata		Actinopterygii			Scorpaenoidei	Vertebrata	Gnathostomata		Eukaryota	Acanthopterygii	V3167-04
population-quantity | self | 999	cruise	Rathbunaster californicus	113.25	3167	03:14:03:08	 	36.841988	-122.14266	2468574	4.83	47:42.0	Ventana	33.519	03:15:43:17	11.221		Labidiasteridae	Rathbunaster			Animalia	Forcipulatida	Echinodermata	Rathbunaster californicus	Asteroidea							Eukaryota		V3167-04
population-quantity | self | 999	cruise	Rathbunaster californicus	112.88	3167	03:14:33:22	 	36.84203	-122.14245	2468586	4.85	48:12.0	Ventana	33.517	03:16:12:29	11.228		Labidiasteridae	Rathbunaster			Animalia	Forcipulatida	Echinodermata	Rathbunaster californicus	Asteroidea							Eukaryota		V3167-04
population-quantity | self | 999	cruise	Rathbunaster californicus	112.46	3167	03:15:17:21	 	36.842087	-122.142204	2468599	4.84	48:56.0	Ventana	33.519	03:16:57:15	11.224		Labidiasteridae	Rathbunaster			Animalia	Forcipulatida	Echinodermata	Rathbunaster californicus	Asteroidea							Eukaryota		V3167-04
population-quantity | self | 999	cruise	Rathbunaster californicus	111.59	3167	03:15:47:20	 	36.842182	-122.14185	2468613	4.87	49:26.0	Ventana	33.512	03:17:28:02	11.238		Labidiasteridae	Rathbunaster			Animalia	Forcipulatida	Echinodermata	Rathbunaster californicus	Asteroidea							Eukaryota		V3167-04
identity-reference | self | start: cable visible in trench	cruise	cable	111.57	3167	03:15:45:20	http://search.mbari.org/ARCHIVE/frameGrabs/Ventana/images/3167/03_17_25_09.jpg	36.84218	-122.14187	2468617	4.87	49:24.0	Ventana	33.512	03:17:25:09	11.238																			V3167-04
population-quantity | self | 999	cruise	Rathbunaster californicus	111.05	3167	03:16:05:19	 	36.84222	-122.141716	2468618	4.87	49:44.0	Ventana	33.514	03:17:45:24	11.233		Labidiasteridae	Rathbunaster			Animalia	Forcipulatida	Echinodermata	Rathbunaster californicus	Asteroidea							Eukaryota		V3167-04
identity-reference | self | start: cable buried	cruise	cable	110.39	3167	03:16:54:03	http://search.mbari.org/ARCHIVE/frameGrabs/Ventana/images/3167/03_18_34_21.jpg	36.84234	-122.14135	2468621	4.83	50:32.0	Ventana	33.521	03:18:34:21	11.214																			V3167-04
population-quantity | self | 999	cruise	Rathbunaster californicus	110.39	3167	03:16:54:03	http://search.mbari.org/ARCHIVE/frameGrabs/Ventana/images/3167/03_18_34_21.jpg	36.84234	-122.14135	2468623	4.83	50:32.0	Ventana	33.521	03:18:34:21	11.214		Labidiasteridae	Rathbunaster			Animalia	Forcipulatida	Echinodermata	Rathbunaster californicus	Asteroidea							Eukaryota		V3167-04
population-quantity | self | 999	cruise	Rathbunaster californicus	109.81	3167	03:18:36:15	 	36.84258	-122.14056	2468636	4.68	52:15.0	Ventana	33.538	03:20:17:10	11.153		Labidiasteridae	Rathbunaster			Animalia	Forcipulatida	Echinodermata	Rathbunaster californicus	Asteroidea							Eukaryota		V3167-04
"identity-reference | self | white, long, population-quantity | self | 999"	cruise	Pennatulacea	110.59	3167	03:20:02:27	 	36.84278	-122.139915	2468665	4.77	53:41.0	Ventana	33.535	03:21:42:10	11.167	Anthozoa					Animalia	Pennatulacea	Cnidaria		Octocorallia							Eukaryota		V3167-04
"identity-reference | self | white, long, population-quantity | self | 999"	cruise	Pennatulacea	110.12	3167	03:20:38:26	 	36.842854	-122.139694	2468673	4.51	54:18.0	Ventana	33.565	03:22:19:19	11.063	Anthozoa					Animalia	Pennatulacea	Cnidaria		Octocorallia							Eukaryota		V3167-04
"identity-reference | self | white, long, population-quantity | self | 999"	cruise	Pennatulacea	110.15	3167	03:21:25:09	 	36.8429	-122.139565	2468683	4.62	55:04.0	Ventana	33.55	03:23:05:02	11.115	Anthozoa					Animalia	Pennatulacea	Cnidaria		Octocorallia							Eukaryota		V3167-04
"identity-reference | self | start: undisturbed, comment | self | dramatic change from disturbed"	cruise	sediment	110.48	3167	03:26:04:01	http://search.mbari.org/ARCHIVE/frameGrabs/Ventana/images/3167/03_27_45_03.jpg	36.842793	-122.140114	2468745	4.56	59:43.0	Ventana	33.559	03:27:45:03	11.062																			V3167-04
comment | self | following mild depression over cable	cruise	sediment	110.59	3167	03:26:52:15	http://search.mbari.org/ARCHIVE/frameGrabs/Ventana/images/3167/03_28_32_11.jpg	36.84283	-122.139946	2468767	4.55	00:31.0	Ventana	33.554	03:28:32:11	11.073																			V3167-04
"identity-reference | self | white, long, population-quantity | self | 999"	cruise	Pennatulacea	110.82	3167	03:27:04:14	 	36.842842	-122.139885	2468779	4.56	00:43.0	Ventana	33.552	03:28:45:06	11.076	Anthozoa					Animalia	Pennatulacea	Cnidaria		Octocorallia							Eukaryota		V3167-04
"identity-reference | self | white, long, population-quantity | self | 999"	cruise	Pennatulacea	110.76	3167	03:27:58:28	 	36.842876	-122.139534	2468787	4.57	01:38.0	Ventana	33.549	03:29:38:13	11.094	Anthozoa					Animalia	Pennatulacea	Cnidaria		Octocorallia							Eukaryota		V3167-04
"identity-reference | self | white, long, population-quantity | self | 999"	cruise	Pennatulacea	110.83	3167	03:28:34:27	 	36.842922	-122.139275	2470806	4.5	02:14.0	Ventana	33.566	03:30:14:22	11.035	Anthozoa					Animalia	Pennatulacea	Cnidaria		Octocorallia							Eukaryota		V3167-04
buried | nil | nil	cruise	cable	110.75	3167	03:28:46:26	http://search.mbari.org/ARCHIVE/frameGrabs/Ventana/images/3167/03_30_26_28.jpg	36.84294	-122.1392	2470834	4.48	02:26.0	Ventana	33.563	03:30:26:28	11.043																			V3167-04
"identity-reference | self | white, long, population-quantity | self | 999"	cruise	Pennatulacea	110.55	3167	03:29:04:25	 	36.84298	-122.13908	2470841	4.57	02:44.0	Ventana	33.546	03:30:45:11	11.1	Anthozoa					Animalia	Pennatulacea	Cnidaria		Octocorallia							Eukaryota		V3167-04
"identity-reference | self | white, long, population-quantity | self | 999"	cruise	Pennatulacea	110.65	3167	03:29:43:09	 	36.843075	-122.138794	2470857	4.66	03:22.0	Ventana	33.536	03:31:23:21	11.134	Anthozoa					Animalia	Pennatulacea	Cnidaria		Octocorallia							Eukaryota		V3167-04
"identity-reference | self | white, long, population-quantity | self | 999"	cruise	Pennatulacea	110.8	3167	03:30:07:09	 	36.84313	-122.13863	2470858	4.6	03:46.0	Ventana	33.548	03:31:47:27	11.096	Anthozoa					Animalia	Pennatulacea	Cnidaria		Octocorallia							Eukaryota		V3167-04
"identity-reference | self | white, long, population-quantity | self | 999"	cruise	Pennatulacea	110.56	3167	03:30:17:08	http://search.mbari.org/ARCHIVE/frameGrabs/Ventana/images/3167/03_31_57_00.jpg	36.843155	-122.138565	2470874	4.56	03:57.0	Ventana	33.551	03:31:57:00	11.081	Anthozoa					Animalia	Pennatulacea	Cnidaria		Octocorallia							Eukaryota		V3167-04
population-quantity | self | 999	cruise	Mediaster aequalis	110.76	3167	03:30:21:08	 	36.843166	-122.13855	2470876	4.56	04:01.0	Ventana	33.551	03:32:01:08	11.081		Goniasteridae	Mediaster			Animalia	Valvatida	Echinodermata	Mediaster aequalis	Asteroidea			Granulosina				Eukaryota		V3167-04
population-quantity | self | 999	cruise	Rathbunaster californicus	110.6	3167	03:30:27:08	 	36.84318	-122.13852	2470877	4.56	04:07.0	Ventana	33.551	03:32:07:19	11.081		Labidiasteridae	Rathbunaster			Animalia	Forcipulatida	Echinodermata	Rathbunaster californicus	Asteroidea							Eukaryota		V3167-04
population-quantity | self | 999	cruise	Metridium farcimen	110.48	3167	03:30:47:22	 	36.84324	-122.13845	2470879	4.59	04:27.0	Ventana	33.549	03:32:27:03	11.091	Anthozoa	Metridiidae	Metridium			Animalia	Actiniaria	Cnidaria	Metridium farcimen	Hexacorallia			Nyantheae				Eukaryota		V3167-04
population-quantity | self | 999	cruise	Swiftia simplex	110.47	3167	03:31:05:22	 	36.8433	-122.13843	2470923	4.58	04:45.0	Ventana	33.55	03:32:45:28	11.088	Anthozoa	Plexauridae	Swiftia			Animalia	Gorgonacea	Cnidaria		Octocorallia			Holaxonia				Eukaryota		V3167-04
population-quantity | self | 999	cruise	Metridium farcimen	110.5	3167	03:31:07:22	 	36.843304	-122.13843	2470924	4.58	04:47.0	Ventana	33.55	03:32:48:07	11.088	Anthozoa	Metridiidae	Metridium			Animalia	Actiniaria	Cnidaria	Metridium farcimen	Hexacorallia			Nyantheae				Eukaryota		V3167-04
population-quantity | self | 999	cruise	Swiftia simplex	110.55	3167	03:31:17:21	 	36.84333	-122.13843	2470927	4.58	04:57.0	Ventana	33.549	03:32:58:11	11.09	Anthozoa	Plexauridae	Swiftia			Animalia	Gorgonacea	Cnidaria		Octocorallia			Holaxonia				Eukaryota		V3167-04
population-quantity | self | 999	cruise	Metridium farcimen	110.23	3167	03:31:31:21	 	36.843365	-122.13845	2470929	4.58	05:11.0	Ventana	33.549	03:33:10:25	11.089	Anthozoa	Metridiidae	Metridium			Animalia	Actiniaria	Cnidaria	Metridium farcimen	Hexacorallia			Nyantheae				Eukaryota		V3167-04
"comment | self | this is a repeat of previously seen cable route (came back around), identity-reference | self | start: highly disturbed"	cruise	sediment	110.33	3167	03:31:53:20	 	36.843372	-122.13853	2470935	4.58	05:33.0	Ventana	33.548	03:33:32:29	11.093																			V3167-04
population-quantity | self | 999	cruise	Mediaster aequalis	110.48	3167	03:31:57:20	 	36.84337	-122.13855	2470943	4.58	05:37.0	Ventana	33.548	03:33:37:24	11.093		Goniasteridae	Mediaster			Animalia	Valvatida	Echinodermata	Mediaster aequalis	Asteroidea			Granulosina				Eukaryota		V3167-04
population-quantity | self | 999	cruise	Rathbunaster californicus	110.54	3167	03:32:01:20	 	36.843365	-122.138565	2470944	4.56	05:41.0	Ventana	33.553	03:33:41:28	11.076		Labidiasteridae	Rathbunaster			Animalia	Forcipulatida	Echinodermata	Rathbunaster californicus	Asteroidea							Eukaryota		V3167-04
identity-reference | self | start: moderately disturbed	cruise	sediment	110.52	3167	03:32:13:20	http://search.mbari.org/ARCHIVE/frameGrabs/Ventana/images/3167/03_33_54_11.jpg	36.843346	-122.13863	2470949	4.51	05:53.0	Ventana	33.559	03:33:54:11	11.058																			V3167-04
identity-reference | self | start: mildly disturbed	cruise	sediment	110.26	3167	03:32:56:04	http://search.mbari.org/ARCHIVE/frameGrabs/Ventana/images/3167/03_34_35_02.jpg	36.843258	-122.138855	2470950	4.67	06:35.0	Ventana	33.53	03:34:35:02	11.147																			V3167-04
identity-reference | self | start: undisturbed	cruise	sediment	110.55	3167	03:33:00:03	http://search.mbari.org/ARCHIVE/frameGrabs/Ventana/images/3167/03_34_39_16.jpg	36.84325	-122.13887	20024078	4.59	06:39.0	Ventana	33.55	03:34:39:16	11.091																			V3167-04
"identity-reference | self | white, long, population-quantity | self | 999"	cruise	Pennatulacea	110.64	3167	03:33:42:02	 	36.84325	-122.138916	2470954	4.58	07:22.0	Ventana	33.552	03:35:22:18	11.101	Anthozoa					Animalia	Pennatulacea	Cnidaria		Octocorallia							Eukaryota		V3167-04
identity-reference | self | start: moderately disturbed	cruise	sediment	110.42	3167	03:34:18:16	 	36.84331	-122.13878	2470956	4.65	07:58.0	Ventana	33.544	03:35:57:15	11.11																			V3167-04
population-quantity | self | 999	cruise	Metridium farcimen	110.24	3167	03:34:24:16	 	36.843327	-122.13875	2470957	4.65	08:04.0	Ventana	33.544	03:36:05:11	11.11	Anthozoa	Metridiidae	Metridium			Animalia	Actiniaria	Cnidaria	Metridium farcimen	Hexacorallia			Nyantheae				Eukaryota		V3167-04
population-quantity | self | 999	cruise	Rathbunaster californicus	110.29	3167	03:34:38:15	 	36.843365	-122.138664	2470958	4.57	08:18.0	Ventana	33.552	03:36:17:18	11.083		Labidiasteridae	Rathbunaster			Animalia	Forcipulatida	Echinodermata	Rathbunaster californicus	Asteroidea							Eukaryota		V3167-04
population-quantity | self | 999	cruise	Rathbunaster californicus	110.31	3167	03:35:06:14	 	36.84345	-122.1385	2470961	4.57	08:46.0	Ventana	33.55	03:36:46:16	11.089		Labidiasteridae	Rathbunaster			Animalia	Forcipulatida	Echinodermata	Rathbunaster californicus	Asteroidea							Eukaryota		V3167-04
population-quantity | self | 999	cruise	Embiotocidae	110.4	3167	03:35:22:14	 	36.8435	-122.1384	2470964	4.59	09:02.0	Ventana	33.553	03:37:03:07	11.081	Osteichthyes	Embiotocidae		Neopterygii		Animalia	Perciformes	Chordata		Actinopterygii				Vertebrata	Gnathostomata		Eukaryota	Acanthopterygii	V3167-04
population-quantity | self | 999	cruise	Rathbunaster californicus	110.27	3167	03:35:32:14	 	36.843533	-122.138336	2470966	4.57	09:12.0	Ventana	33.553	03:37:13:19	11.081		Labidiasteridae	Rathbunaster			Animalia	Forcipulatida	Echinodermata	Rathbunaster californicus	Asteroidea							Eukaryota		V3167-04
population-density | self | dense	cruise	Laminariales	110.13	3167	03:35:40:14	http://search.mbari.org/ARCHIVE/frameGrabs/Ventana/images/3167/03_37_20_22.jpg	36.843555	-122.13829	2470968	4.57	09:20.0	Ventana	33.553	03:37:20:22	11.081	Phaeophyceae					Chromista	Laminariales	Phaeophycophyta									Eukaryota		V3167-04
population-quantity | self | 999	cruise	Embiotocidae	110.05	3167	03:35:54:28	 	36.8436	-122.1382	2470970	4.55	09:34.0	Ventana	33.555	03:37:34:05	11.073	Osteichthyes	Embiotocidae		Neopterygii		Animalia	Perciformes	Chordata		Actinopterygii				Vertebrata	Gnathostomata		Eukaryota	Acanthopterygii	V3167-04
population-quantity | self | 999	cruise	Rathbunaster californicus	110.11	3167	03:36:00:27	 	36.84362	-122.13816	2470971	4.56	09:40.0	Ventana	33.552	03:37:41:15	11.084		Labidiasteridae	Rathbunaster			Animalia	Forcipulatida	Echinodermata	Rathbunaster californicus	Asteroidea							Eukaryota		V3167-04
population-quantity | self | 999	cruise	Rathbunaster californicus	109.4	3167	03:37:19:10	 	36.843925	-122.137665	2470982	4.67	10:59.0	Ventana	33.535	03:38:58:24	11.133		Labidiasteridae	Rathbunaster			Animalia	Forcipulatida	Echinodermata	Rathbunaster californicus	Asteroidea							Eukaryota		V3167-04
population-quantity | self | 999	cruise	Embiotocidae	108.99	3167	03:37:41:09	 	36.84402	-122.13753	2470984	4.64	11:21.0	Ventana	33.534	03:39:20:25	11.138	Osteichthyes	Embiotocidae		Neopterygii		Animalia	Perciformes	Chordata		Actinopterygii				Vertebrata	Gnathostomata		Eukaryota	Acanthopterygii	V3167-04
population-quantity | self | 999	cruise	Rathbunaster californicus	109.49	3167	03:37:49:09	 	36.844063	-122.13747	2470985	4.73	11:29.0	Ventana	33.52	03:39:29:13	11.18		Labidiasteridae	Rathbunaster			Animalia	Forcipulatida	Echinodermata	Rathbunaster californicus	Asteroidea							Eukaryota		V3167-04
identity-reference | self | start: mildly disturbed	cruise	sediment	108.88	3167	03:38:31:08	 	36.844246	-122.1372	2470993	4.64	12:11.0	Ventana	33.543	03:40:11:09	11.112																			V3167-04
population-quantity | self | 999	cruise	Rathbunaster californicus	109.04	3167	03:38:35:08	 	36.844265	-122.13717	2470995	4.64	12:15.0	Ventana	33.543	03:40:15:24	11.112		Labidiasteridae	Rathbunaster			Animalia	Forcipulatida	Echinodermata	Rathbunaster californicus	Asteroidea							Eukaryota		V3167-04
population-quantity | self | 999	cruise	Rathbunaster californicus	108.95	3167	03:38:51:07	 	36.84434	-122.13707	2470997	4.6	12:31.0	Ventana	33.547	03:40:32:11	11.1		Labidiasteridae	Rathbunaster			Animalia	Forcipulatida	Echinodermata	Rathbunaster californicus	Asteroidea							Eukaryota		V3167-04
identity-reference | self | start: undisturbed	cruise	sediment	109.21	3167	03:38:57:07	 	36.844368	-122.13703	2470999	4.6	12:37.0	Ventana	33.547	03:40:37:27	11.1																			V3167-04
"identity-reference | self | white, long, population-quantity | self | 999"	cruise	Pennatulacea	109.02	3167	03:39:17:21	 	36.844463	-122.1369	2471002	4.61	12:57.0	Ventana	33.542	03:40:56:20	11.12	Anthozoa					Animalia	Pennatulacea	Cnidaria		Octocorallia							Eukaryota		V3167-04
"identity-reference | self | white, long, population-quantity | self | 999"	cruise	Pennatulacea	108.89	3167	03:39:33:21	 	36.844547	-122.13678	2471003	4.72	13:13.0	Ventana	33.517	03:41:14:13	11.186	Anthozoa					Animalia	Pennatulacea	Cnidaria		Octocorallia							Eukaryota		V3167-04
population-quantity | self | 999	cruise	Rathbunaster californicus	108.6	3167	03:40:40:04	 	36.844845	-122.136345	2471009	4.9	14:20.0	Ventana	33.501	03:42:20:10	11.241		Labidiasteridae	Rathbunaster			Animalia	Forcipulatida	Echinodermata	Rathbunaster californicus	Asteroidea							Eukaryota		V3167-04
"identity-reference | self | white, long, population-quantity | self | 999"	cruise	Pennatulacea	108.63	3167	03:41:14:03	 	36.84498	-122.1361	2471011	4.71	14:54.0	Ventana	33.531	03:42:53:15	11.157	Anthozoa					Animalia	Pennatulacea	Cnidaria		Octocorallia							Eukaryota		V3167-04
population-quantity | self | 999	cruise	Rathbunaster californicus	108.48	3167	03:41:34:02	 	36.845036	-122.13594	2471013	4.72	15:14.0	Ventana	33.529	03:43:13:02	11.16		Labidiasteridae	Rathbunaster			Animalia	Forcipulatida	Echinodermata	Rathbunaster californicus	Asteroidea							Eukaryota		V3167-04
"identity-reference | self | white, long, population-quantity | self | 999"	cruise	Pennatulacea	108.28	3167	03:41:56:02	 	36.8451	-122.13576	2471017	4.71	15:36.0	Ventana	33.527	03:43:35:11	11.172	Anthozoa					Animalia	Pennatulacea	Cnidaria		Octocorallia							Eukaryota		V3167-04
"identity-reference | self | white, long, population-quantity | self | 999"	cruise	Pennatulacea	108.26	3167	03:42:32:15	 	36.845222	-122.13548	2471023	4.74	16:12.0	Ventana	33.525	03:44:12:21	11.172	Anthozoa					Animalia	Pennatulacea	Cnidaria		Octocorallia							Eukaryota		V3167-04
population-quantity | self | 999	cruise	Rathbunaster californicus	108.02	3167	03:42:52:15	 	36.845287	-122.13534	2471027	4.72	16:32.0	Ventana	33.526	03:44:32:11	11.17		Labidiasteridae	Rathbunaster			Animalia	Forcipulatida	Echinodermata	Rathbunaster californicus	Asteroidea							Eukaryota		V3167-04
"identity-reference | self | white, long, population-quantity | self | 999"	cruise	Pennatulacea	107.82	3167	03:43:18:14	 	36.845375	-122.135155	2471029	4.79	16:58.0	Ventana	33.518	03:44:58:02	11.196	Anthozoa					Animalia	Pennatulacea	Cnidaria		Octocorallia							Eukaryota		V3167-04
"identity-reference | self | white, long, population-quantity | self | 999"	cruise	Pennatulacea	107.74	3167	03:43:32:14	 	36.84543	-122.135056	2471031	4.81	17:13.0	Ventana	33.515	03:45:12:06	11.202	Anthozoa					Animalia	Pennatulacea	Cnidaria		Octocorallia							Eukaryota		V3167-04
"identity-reference | self | white, long, population-quantity | self | 999"	cruise	Pennatulacea	107.63	3167	03:44:06:27	 	36.845547	-122.13482	2471035	4.81	17:47.0	Ventana	33.513	03:45:46:10	11.207	Anthozoa					Animalia	Pennatulacea	Cnidaria		Octocorallia							Eukaryota		V3167-04
"identity-reference | self | white, long, population-quantity | self | 999"	cruise	Pennatulacea	107.75	3167	03:44:32:27	 	36.845642	-122.13463	2471040	4.83	18:13.0	Ventana	33.511	03:46:13:08	11.215	Anthozoa					Animalia	Pennatulacea	Cnidaria		Octocorallia							Eukaryota		V3167-04
identity-reference | self | start: moderately disturbed	cruise	sediment	107.53	3167	03:45:20:25	http://search.mbari.org/ARCHIVE/frameGrabs/Ventana/images/3167/03_47_01_11.jpg	36.845795	-122.1343	2471042	4.84	19:01.0	Ventana	33.511	03:47:01:11	11.216																			V3167-04
population-quantity | self | 999	cruise	Rathbunaster californicus	107.22	3167	03:45:32:25	 	36.845833	-122.13422	2471043	4.84	19:13.0	Ventana	33.511	03:47:13:15	11.213		Labidiasteridae	Rathbunaster			Animalia	Forcipulatida	Echinodermata	Rathbunaster californicus	Asteroidea							Eukaryota		V3167-04
population-quantity | self | 999	cruise	Embiotocidae	107.15	3167	03:46:03:09	 	36.84594	-122.13401	2471045	4.83	19:43.0	Ventana	33.512	03:47:43:27	11.213	Osteichthyes	Embiotocidae		Neopterygii		Animalia	Perciformes	Chordata		Actinopterygii				Vertebrata	Gnathostomata		Eukaryota	Acanthopterygii	V3167-04
population-quantity | self | 999	cruise	Rathbunaster californicus	106.98	3167	03:47:05:07	 	36.84613	-122.13357	2471050	4.82	20:46.0	Ventana	33.513	03:48:46:06	11.208		Labidiasteridae	Rathbunaster			Animalia	Forcipulatida	Echinodermata	Rathbunaster californicus	Asteroidea							Eukaryota		V3167-04
"identity-reference | self | white, long, population-quantity | self | 999"	cruise	Pennatulacea	106.94	3167	03:47:19:22	 	36.84617	-122.13347	2471051	4.81	21:00.0	Ventana	33.516	03:49:00:02	11.2	Anthozoa					Animalia	Pennatulacea	Cnidaria		Octocorallia							Eukaryota		V3167-04
population-quantity | self | 999	cruise	Rathbunaster californicus	106.93	3167	03:47:33:21	 	36.84621	-122.133354	2471052	4.75	21:14.0	Ventana	33.522	03:49:14:02	11.185		Labidiasteridae	Rathbunaster			Animalia	Forcipulatida	Echinodermata	Rathbunaster californicus	Asteroidea							Eukaryota		V3167-04
"identity-reference | self | white, long, population-quantity | self | 999"	cruise	Pennatulacea	106.69	3167	03:48:07:20	 	36.8463	-122.133125	2471054	4.78	21:48.0	Ventana	33.514	03:49:46:26	11.203	Anthozoa					Animalia	Pennatulacea	Cnidaria		Octocorallia							Eukaryota		V3167-04
"identity-reference | self | white, long, population-quantity | self | 999"	cruise	Pennatulacea	106.53	3167	03:48:19:20	 	36.84633	-122.13304	2471056	4.85	22:00.0	Ventana	33.509	03:49:59:16	11.218	Anthozoa					Animalia	Pennatulacea	Cnidaria		Octocorallia							Eukaryota		V3167-04
identity-reference | self | start: highly disturbed	cruise	sediment	106.3	3167	03:49:12:03	http://search.mbari.org/ARCHIVE/frameGrabs/Ventana/images/3167/03_50_51_10.jpg	36.84648	-122.13267	2471059	4.88	22:52.0	Ventana	33.503	03:50:51:10	11.233																			V3167-04
identity-reference | self | start: moderately disturbed	cruise	sediment	106.25	3167	03:49:42:02	 	36.846565	-122.13248	2471060	4.89	23:22.0	Ventana	33.5	03:51:22:08	11.239																			V3167-04
population-quantity | self | 999	cruise	Rathbunaster californicus	106.28	3167	03:49:52:02	 	36.846596	-122.13241	2471061	4.91	23:32.0	Ventana	33.499	03:51:32:06	11.242		Labidiasteridae	Rathbunaster			Animalia	Forcipulatida	Echinodermata	Rathbunaster californicus	Asteroidea							Eukaryota		V3167-04
population-quantity | self | 999	cruise	Rathbunaster californicus	105.94	3167	03:50:34:16	 	36.846718	-122.13211	2471062	4.9	24:15.0	Ventana	33.501	03:52:15:04	11.237		Labidiasteridae	Rathbunaster			Animalia	Forcipulatida	Echinodermata	Rathbunaster californicus	Asteroidea							Eukaryota		V3167-04
population-quantity | self | 999	cruise	Rathbunaster californicus	105.88	3167	03:50:54:15	 	36.84678	-122.131966	2471063	4.89	24:35.0	Ventana	33.501	03:52:33:15	11.236		Labidiasteridae	Rathbunaster			Animalia	Forcipulatida	Echinodermata	Rathbunaster californicus	Asteroidea							Eukaryota		V3167-04
population-quantity | self | 999	cruise	Metridium farcimen	105.79	3167	03:51:28:14	 	36.846878	-122.13173	2471065	4.89	25:09.0	Ventana	33.501	03:53:07:25	11.235	Anthozoa	Metridiidae	Metridium			Animalia	Actiniaria	Cnidaria	Metridium farcimen	Hexacorallia			Nyantheae				Eukaryota		V3167-04
population-quantity | self | 999	cruise	laminariales	105.89	3167	03:52:04:13	 	36.84699	-122.13148	2471066	4.91	25:45.0	Ventana	33.497	03:53:44:19	11.246																			V3167-04
population-quantity | self | 999	cruise	Metridium farcimen	105.78	3167	03:52:10:13	 	36.847008	-122.13143	2471067	4.91	25:51.0	Ventana	33.497	03:53:51:14	11.246	Anthozoa	Metridiidae	Metridium			Animalia	Actiniaria	Cnidaria	Metridium farcimen	Hexacorallia			Nyantheae				Eukaryota		V3167-04
population-quantity | self | 999	cruise	Metridium farcimen	105.64	3167	03:52:28:27	 	36.84707	-122.131294	2471068	4.92	26:09.0	Ventana	33.495	03:54:08:06	11.251	Anthozoa	Metridiidae	Metridium			Animalia	Actiniaria	Cnidaria	Metridium farcimen	Hexacorallia			Nyantheae				Eukaryota		V3167-04
population-quantity | self | 999	cruise	Rathbunaster californicus	105.54	3167	03:52:34:27	 	36.847088	-122.131256	2471069	4.92	26:15.0	Ventana	33.495	03:54:14:04	11.251		Labidiasteridae	Rathbunaster			Animalia	Forcipulatida	Echinodermata	Rathbunaster californicus	Asteroidea							Eukaryota		V3167-04
population-quantity | self | 999	cruise	Embiotocidae	105.65	3167	03:52:56:26	 	36.847157	-122.1311	2471070	4.93	26:37.0	Ventana	33.495	03:54:35:29	11.252	Osteichthyes	Embiotocidae		Neopterygii		Animalia	Perciformes	Chordata		Actinopterygii				Vertebrata	Gnathostomata		Eukaryota	Acanthopterygii	V3167-04
population-quantity | self | 999	cruise	Rathbunaster californicus	105.47	3167	03:53:26:25	 	36.84726	-122.1309	2471072	4.93	27:08.0	Ventana	33.495	03:55:07:06	11.25		Labidiasteridae	Rathbunaster			Animalia	Forcipulatida	Echinodermata	Rathbunaster californicus	Asteroidea							Eukaryota		V3167-04
population-quantity | self | 999	cruise	Metridium farcimen	105.21	3167	03:53:34:25	 	36.847286	-122.130844	2471073	4.93	27:16.0	Ventana	33.495	03:55:15:01	11.25	Anthozoa	Metridiidae	Metridium			Animalia	Actiniaria	Cnidaria	Metridium farcimen	Hexacorallia			Nyantheae				Eukaryota		V3167-04
"identity-reference | self | white, long, population-quantity | self | 999"	cruise	Pennatulacea	105.14	3167	03:53:51:09	 	36.84734	-122.13074	2471074	4.93	27:32.0	Ventana	33.494	03:55:32:01	11.253	Anthozoa					Animalia	Pennatulacea	Cnidaria		Octocorallia							Eukaryota		V3167-04
population-quantity | self | 999	cruise	Rathbunaster californicus	105.17	3167	03:54:03:09	 	36.84738	-122.13065	2471075	4.95	27:44.0	Ventana	33.492	03:55:42:27	11.258		Labidiasteridae	Rathbunaster			Animalia	Forcipulatida	Echinodermata	Rathbunaster californicus	Asteroidea							Eukaryota		V3167-04
identity-reference | self | start: mildly disturbed	cruise	trench	105.35	3167	03:54:15:09	http://search.mbari.org/ARCHIVE/frameGrabs/Ventana/images/3167/03_55_55_28.jpg	36.847427	-122.13056	2471076	4.95	27:56.0	Ventana	33.491	03:55:55:28	11.259																			V3167-04
"identity-reference | self | white, long, population-quantity | self | 999"	cruise	Pennatulacea	104.88	3167	03:54:53:08	 	36.84756	-122.13029	2471081	4.96	28:34.0	Ventana	33.49	03:56:33:14	11.262	Anthozoa					Animalia	Pennatulacea	Cnidaria		Octocorallia							Eukaryota		V3167-04
population-quantity | self | 999	cruise	Rathbunaster californicus	105.04	3167	03:55:05:08	 	36.847607	-122.1302	2471082	4.96	28:46.0	Ventana	33.491	03:56:45:24	11.262		Labidiasteridae	Rathbunaster			Animalia	Forcipulatida	Echinodermata	Rathbunaster californicus	Asteroidea							Eukaryota		V3167-04
"identity-reference | self | white, long, population-quantity | self | 999"	cruise	Pennatulacea	104.73	3167	03:55:31:21	 	36.847702	-122.13001	2471083	4.97	29:12.0	Ventana	33.488	03:57:11:03	11.266	Anthozoa					Animalia	Pennatulacea	Cnidaria		Octocorallia							Eukaryota		V3167-04
"identity-reference | self | white, long, population-quantity | self | 999"	cruise	Pennatulacea	104.59	3167	03:55:47:21	 	36.847763	-122.12988	2471085	4.98	29:28.0	Ventana	33.486	03:57:26:22	11.27	Anthozoa					Animalia	Pennatulacea	Cnidaria		Octocorallia							Eukaryota		V3167-04
population-quantity | self | 999	cruise	Rathbunaster californicus	104.79	3167	03:55:57:21	 	36.84779	-122.129814	2471086	4.98	29:38.0	Ventana	33.487	03:57:37:18	11.27		Labidiasteridae	Rathbunaster			Animalia	Forcipulatida	Echinodermata	Rathbunaster californicus	Asteroidea							Eukaryota		V3167-04
population-quantity | self | 999	cruise	Metridium farcimen	104.64	3167	03:56:07:20	 	36.84782	-122.129745	2471088	4.98	29:48.0	Ventana	33.487	03:57:48:17	11.27	Anthozoa	Metridiidae	Metridium			Animalia	Actiniaria	Cnidaria	Metridium farcimen	Hexacorallia			Nyantheae				Eukaryota		V3167-04
population-quantity | self | 999	cruise	Embiotocidae	104.27	3167	03:56:31:20	 	36.8479	-122.12957	2471089	4.98	30:12.0	Ventana	33.486	03:58:12:01	11.269	Osteichthyes	Embiotocidae		Neopterygii		Animalia	Perciformes	Chordata		Actinopterygii				Vertebrata	Gnathostomata		Eukaryota	Acanthopterygii	V3167-04
population-quantity | self | 999	cruise	Metridium farcimen	104.37	3167	03:56:41:19	 	36.84794	-122.129486	2471090	4.99	30:23.0	Ventana	33.486	03:58:22:16	11.27	Anthozoa	Metridiidae	Metridium			Animalia	Actiniaria	Cnidaria	Metridium farcimen	Hexacorallia			Nyantheae				Eukaryota		V3167-04
population-quantity | self | 999	cruise	laminariales	104.32	3167	03:56:53:19	 	36.847977	-122.1294	2471091	4.99	30:35.0	Ventana	33.486	03:58:33:17	11.27																			V3167-04
population-quantity | self | 999	cruise	Embiotocidae	104.03	3167	03:57:18:03	 	36.84806	-122.12923	2471092	5	30:59.0	Ventana	33.484	03:58:58:07	11.277	Osteichthyes	Embiotocidae		Neopterygii		Animalia	Perciformes	Chordata		Actinopterygii				Vertebrata	Gnathostomata		Eukaryota	Acanthopterygii	V3167-04
"identity-reference | self | white, long, population-quantity | self | 999"	cruise	Pennatulacea	104.12	3167	03:57:38:03	 	36.848137	-122.12907	2471093	5	31:19.0	Ventana	33.483	03:59:17:04	11.277	Anthozoa					Animalia	Pennatulacea	Cnidaria		Octocorallia							Eukaryota		V3167-04
identity-reference | self | start: undisturbed	cruise	sediment	104.06	3167	03:57:14:03	http://search.mbari.org/ARCHIVE/frameGrabs/Ventana/images/3167/03_58_53_07.jpg	36.848045	-122.12926	2471097	5	30:55.0	Ventana	33.484	03:58:53:07	11.277																			V3167-04
"identity-reference | self | white, long, population-quantity | self | 999"	cruise	Pennatulacea	104.09	3167	03:57:36:02	 	36.84813	-122.12908	2471672	5	31:17.0	Ventana	33.483	03:59:16:13	11.277	Anthozoa					Animalia	Pennatulacea	Cnidaria		Octocorallia							Eukaryota		V3167-04
population-quantity | self | 999	cruise	Rathbunaster californicus	104.12	3167	03:57:38:03	 	36.848137	-122.12907	2471673	5	31:19.0	Ventana	33.483	03:59:17:29	11.277		Labidiasteridae	Rathbunaster			Animalia	Forcipulatida	Echinodermata	Rathbunaster californicus	Asteroidea							Eukaryota		V3167-04
"identity-reference | self | white, long, population-quantity | self | 999"	cruise	Pennatulacea	104.18	3167	03:57:58:02	 	36.84821	-122.12892	2471675	4.98	31:39.0	Ventana	33.486	03:59:38:01	11.271	Anthozoa					Animalia	Pennatulacea	Cnidaria		Octocorallia							Eukaryota		V3167-04
"identity-reference | self | white, long, population-quantity | self | 999"	cruise	Pennatulacea	103.94	3167	03:58:16:01	 	36.848286	-122.12879	2471679	5	31:57.0	Ventana	33.483	03:59:56:20	11.277	Anthozoa					Animalia	Pennatulacea	Cnidaria		Octocorallia							Eukaryota		V3167-04
population-quantity | self | 999	cruise	Rathbunaster californicus	104.06	3167	03:58:20:02	 	36.8483	-122.12876	2471680	5	32:01.0	Ventana	33.483	04:00:00:05	11.277		Labidiasteridae	Rathbunaster			Animalia	Forcipulatida	Echinodermata	Rathbunaster californicus	Asteroidea							Eukaryota		V3167-04
"identity-reference | self | white, long, population-quantity | self | 999"	cruise	Pennatulacea	103.85	3167	03:58:32:01	 	36.84835	-122.12868	2471681	4.99	32:13.0	Ventana	33.484	04:00:13:08	11.275	Anthozoa					Animalia	Pennatulacea	Cnidaria		Octocorallia							Eukaryota		V3167-04
population-quantity | self | 999	cruise	Rathbunaster californicus	103.67	3167	03:58:44:16	 	36.8484	-122.12859	2471684	4.99	32:25.0	Ventana	33.484	04:00:24:08	11.274		Labidiasteridae	Rathbunaster			Animalia	Forcipulatida	Echinodermata	Rathbunaster californicus	Asteroidea							Eukaryota		V3167-04
population-quantity | self | 999	cruise	Rathbunaster californicus	103.81	3167	03:59:12:15	 	36.848515	-122.12837	2471686	4.98	32:53.0	Ventana	33.486	04:00:52:22	11.27		Labidiasteridae	Rathbunaster			Animalia	Forcipulatida	Echinodermata	Rathbunaster californicus	Asteroidea							Eukaryota		V3167-04
"identity-reference | self | white, long, population-quantity | self | 999"	cruise	Pennatulacea	103.71	3167	03:59:28:14	 	36.848576	-122.12826	2471687	4.98	33:09.0	Ventana	33.486	04:01:07:23	11.269	Anthozoa					Animalia	Pennatulacea	Cnidaria		Octocorallia							Eukaryota		V3167-04
"identity-reference | self | white, long, population-quantity | self | 999"	cruise	Pennatulacea	103.64	3167	03:59:54:14	 	36.848682	-122.12807	2471688	4.99	33:36.0	Ventana	33.484	04:01:35:25	11.274	Anthozoa					Animalia	Pennatulacea	Cnidaria		Octocorallia							Eukaryota		V3167-04
"identity-reference | self | white, long, population-quantity | self | 999"	cruise	Pennatulacea	103.68	3167	04:00:26:28	 	36.8488	-122.12783	2471696	5.01	34:08.0	Ventana	33.482	04:02:07:23	11.28	Anthozoa					Animalia	Pennatulacea	Cnidaria		Octocorallia							Eukaryota		V3167-04
"surface-color | self | white, population-quantity | self | 999"	cruise	Pennatulacea	102.17	3167	04:06:06:25	http://search.mbari.org/ARCHIVE/frameGrabs/Ventana/images/3167/04_07_41_21.jpg	36.850006	-122.12502	20024095	5.03	40:10.0	Ventana	33.481	04:07:41:21	11.286	Anthozoa					Animalia	Pennatulacea	Cnidaria		Octocorallia							Eukaryota		V3167-05
population-quantity | self | 999	cruise	Metridium farcimen	98.76	3167	04:19:38:15	http://search.mbari.org/ARCHIVE/frameGrabs/Ventana/images/3167/04_21_13_11.jpg	36.85292	-122.11863	20024098	5.02	53:42.0	Ventana	33.484	04:21:13:11	11.283	Anthozoa	Metridiidae	Metridium			Animalia	Actiniaria	Cnidaria	Metridium farcimen	Hexacorallia			Nyantheae				Eukaryota		V3167-05
"surface-color | self | white, population-quantity | self | 999"	cruise	Pennatulacea	103.33	3167	04:01:13:19	 	36.849022	-122.12731	2471738	5.06	35:16.0	Ventana	33.477	04:02:48:19	11.295	Anthozoa					Animalia	Pennatulacea	Cnidaria		Octocorallia							Eukaryota		V3167-05
"population-quantity | self | 999, identity-reference | self | long, white"	cruise	Pennatulacea	103.22	3167	04:01:32:04	 	36.84908	-122.127174	2471747	5.06	35:34.0	Ventana	33.477	04:03:06:28	11.294	Anthozoa					Animalia	Pennatulacea	Cnidaria		Octocorallia							Eukaryota		V3167-05
"population-quantity | self | 999, identity-reference | self | long, white"	cruise	Pennatulacea	103.12	3167	04:02:02:03	 	36.849186	-122.12695	2471763	5.05	36:04.0	Ventana	33.477	04:03:36:26	11.293	Anthozoa					Animalia	Pennatulacea	Cnidaria		Octocorallia							Eukaryota		V3167-05
"population-quantity | self | 999, identity-reference | self | long, white"	cruise	Pennatulacea	103.14	3167	04:02:20:03	 	36.84926	-122.1268	2471768	5.06	36:22.0	Ventana	33.478	04:03:55:00	11.292	Anthozoa					Animalia	Pennatulacea	Cnidaria		Octocorallia							Eukaryota		V3167-05
"surface-color | self | white, population-quantity | self | 999"	cruise	Pennatulacea	102.85	3167	04:02:46:01	 	36.849358	-122.126595	2471771	5.05	36:49.0	Ventana	33.478	04:04:22:06	11.291	Anthozoa					Animalia	Pennatulacea	Cnidaria		Octocorallia							Eukaryota		V3167-05
"surface-color | self | white, population-quantity | self | 999"	cruise	Pennatulacea	102.73	3167	04:03:02:16	 	36.84942	-122.12648	2471772	5.05	37:05.0	Ventana	33.479	04:04:38:11	11.291	Anthozoa					Animalia	Pennatulacea	Cnidaria		Octocorallia							Eukaryota		V3167-05
"population-quantity | self | 999, identity-reference | self | long, white"	cruise	Pennatulacea	102.78	3167	04:03:30:15	 	36.84952	-122.12626	2471777	5.03	37:33.0	Ventana	33.479	04:05:05:07	11.286	Anthozoa					Animalia	Pennatulacea	Cnidaria		Octocorallia							Eukaryota		V3167-05
"population-quantity | self | 999, identity-reference | self | long, white"	cruise	Pennatulacea	102.66	3167	04:04:04:14	 	36.849636	-122.125984	2471786	5.02	38:07.0	Ventana	33.479	04:05:40:02	11.287	Anthozoa					Animalia	Pennatulacea	Cnidaria		Octocorallia							Eukaryota		V3167-05
"surface-color | self | white, population-quantity | self | 999"	cruise	Pennatulacea	102.43	3167	04:04:30:13	 	36.849705	-122.12578	2471789	5.02	38:33.0	Ventana	33.48	04:06:05:29	11.288	Anthozoa					Animalia	Pennatulacea	Cnidaria		Octocorallia							Eukaryota		V3167-05
"surface-color | self | white, population-quantity | self | 999"	cruise	Pennatulacea	102.12	3167	04:05:48:26	 	36.84994	-122.12517	2471844	5.02	39:51.0	Ventana	33.481	04:07:23:22	11.284	Anthozoa					Animalia	Pennatulacea	Cnidaria		Octocorallia							Eukaryota		V3167-05
"surface-color | self | white, population-quantity | self | 999"	cruise	Pennatulacea	102.18	3167	04:06:04:25	 	36.85	-122.12504	2471845	5.03	40:08.0	Ventana	33.481	04:07:41:07	11.286	Anthozoa					Animalia	Pennatulacea	Cnidaria		Octocorallia							Eukaryota		V3167-05
"surface-color | self | white, population-quantity | self | 999"	cruise	Pennatulacea	101.92	3167	04:06:41:09	 	36.85011	-122.12476	2471855	5.04	40:44.0	Ventana	33.48	04:08:16:26	11.288	Anthozoa					Animalia	Pennatulacea	Cnidaria		Octocorallia							Eukaryota		V3167-05
"surface-color | self | white, population-quantity | self | 999"	cruise	Pennatulacea	101.96	3167	04:06:59:09	 	36.850163	-122.12462	2471860	5.04	41:02.0	Ventana	33.48	04:08:34:26	11.287	Anthozoa					Animalia	Pennatulacea	Cnidaria		Octocorallia							Eukaryota		V3167-05
"surface-color | self | white, population-quantity | self | 999"	cruise	Pennatulacea	101.52	3167	04:07:57:07	 	36.85033	-122.124176	2471869	5.05	42:00.0	Ventana	33.48	04:09:32:02	11.29	Anthozoa					Animalia	Pennatulacea	Cnidaria		Octocorallia							Eukaryota		V3167-05
"surface-color | self | white, population-quantity | self | 999"	cruise	Pennatulacea	101.26	3167	04:08:09:06	 	36.850365	-122.124084	2471873	5.04	42:12.0	Ventana	33.481	04:09:44:10	11.289	Anthozoa					Animalia	Pennatulacea	Cnidaria		Octocorallia							Eukaryota		V3167-05
population-quantity | self | 999	cruise	Rathbunaster californicus	101.31	3167	04:08:27:21	 	36.850426	-122.12395	2471874	5.04	42:30.0	Ventana	33.48	04:10:02:04	11.289		Labidiasteridae	Rathbunaster			Animalia	Forcipulatida	Echinodermata	Rathbunaster californicus	Asteroidea							Eukaryota		V3167-05
population-quantity | self | 999	cruise	Rathbunaster californicus	101.23	3167	04:08:49:20	 	36.850506	-122.123764	2471877	5.05	42:52.0	Ventana	33.48	04:10:24:26	11.292		Labidiasteridae	Rathbunaster			Animalia	Forcipulatida	Echinodermata	Rathbunaster californicus	Asteroidea							Eukaryota		V3167-05
identity-reference | self | start: mildly disturbed alternating with undisturbed	cruise	sediment	101.29	3167	04:08:57:20	http://search.mbari.org/ARCHIVE/frameGrabs/Ventana/images/3167/04_10_32_17.jpg	36.850533	-122.1237	2471880	5.05	43:00.0	Ventana	33.48	04:10:32:17	11.29																			V3167-05
"surface-color | self | white, population-quantity | self | 999"	cruise	Pennatulacea	101.01	3167	04:09:31:19	 	36.85066	-122.12343	2471896	5.04	43:35.0	Ventana	33.48	04:11:07:19	11.286	Anthozoa					Animalia	Pennatulacea	Cnidaria		Octocorallia							Eukaryota		V3167-05
"surface-color | self | white, population-quantity | self | 999"	cruise	Pennatulacea	100.95	3167	04:09:44:04	 	36.8507	-122.12334	2471898	5.04	43:47.0	Ventana	33.481	04:11:19:19	11.287	Anthozoa					Animalia	Pennatulacea	Cnidaria		Octocorallia							Eukaryota		V3167-05
"surface-color | self | white, population-quantity | self | 999"	cruise	Pennatulacea	100.68	3167	04:10:44:01	 	36.85093	-122.122856	2471913	5.03	44:47.0	Ventana	33.482	04:12:19:13	11.285	Anthozoa					Animalia	Pennatulacea	Cnidaria		Octocorallia							Eukaryota		V3167-05
population-quantity | self | 999	cruise	Rathbunaster californicus	100.65	3167	04:10:52:01	 	36.85096	-122.12279	2471915	5.03	44:55.0	Ventana	33.481	04:12:27:06	11.284		Labidiasteridae	Rathbunaster			Animalia	Forcipulatida	Echinodermata	Rathbunaster californicus	Asteroidea							Eukaryota		V3167-05
"surface-color | self | white, population-quantity | self | 999"	cruise	Pennatulacea	100.71	3167	04:11:16:01	 	36.85105	-122.1226	2471919	5.02	45:19.0	Ventana	33.482	04:12:51:26	11.284	Anthozoa					Animalia	Pennatulacea	Cnidaria		Octocorallia							Eukaryota		V3167-05
"surface-color | self | white, population-quantity | self | 999"	cruise	Pennatulacea	100.47	3167	04:11:32:15	 	36.851112	-122.12247	2471921	5.03	45:35.0	Ventana	33.482	04:13:08:02	11.286	Anthozoa					Animalia	Pennatulacea	Cnidaria		Octocorallia							Eukaryota		V3167-05
"surface-color | self | white, population-quantity | self | 999"	cruise	Pennatulacea	100.37	3167	04:11:56:14	 	36.85121	-122.12226	2471925	5.01	45:59.0	Ventana	33.484	04:13:32:22	11.278	Anthozoa					Animalia	Pennatulacea	Cnidaria		Octocorallia							Eukaryota		V3167-05
population-quantity | self | 999	cruise	Rathbunaster californicus	100.25	3167	04:12:12:14	 	36.85127	-122.12213	2471927	4.99	46:15.0	Ventana	33.486	04:13:46:25	11.273		Labidiasteridae	Rathbunaster			Animalia	Forcipulatida	Echinodermata	Rathbunaster californicus	Asteroidea							Eukaryota		V3167-05
"surface-color | self | white, population-quantity | self | 999"	cruise	Pennatulacea	100.19	3167	04:12:30:13	 	36.851334	-122.12199	2471930	4.98	46:33.0	Ventana	33.485	04:14:05:18	11.275	Anthozoa					Animalia	Pennatulacea	Cnidaria		Octocorallia							Eukaryota		V3167-05
"surface-color | self | white, population-quantity | self | 999"	cruise	Pennatulacea	99.89	3167	04:12:56:27	 	36.851425	-122.12178	2471934	4.98	47:00.0	Ventana	33.488	04:14:33:06	11.268	Anthozoa					Animalia	Pennatulacea	Cnidaria		Octocorallia							Eukaryota		V3167-05
population-quantity | self | 999	cruise	Rathbunaster californicus	99.69	3167	04:14:16:25	 	36.85173	-122.12115	2471945	4.99	48:20.0	Ventana	33.487	04:15:51:14	11.272		Labidiasteridae	Rathbunaster			Animalia	Forcipulatida	Echinodermata	Rathbunaster californicus	Asteroidea							Eukaryota		V3167-05
"surface-color | self | white, population-quantity | self | 999"	cruise	Pennatulacea	99.47	3167	04:15:15:09	 	36.851948	-122.12069	2471949	5.01	49:18.0	Ventana	33.485	04:16:49:24	11.28	Anthozoa					Animalia	Pennatulacea	Cnidaria		Octocorallia							Eukaryota		V3167-05
"surface-color | self | white, population-quantity | self | 999"	cruise	Pennatulacea	99.26	3167	04:15:41:07	 	36.85204	-122.12049	2471950	5.02	49:44.0	Ventana	33.484	04:17:17:08	11.282	Anthozoa					Animalia	Pennatulacea	Cnidaria		Octocorallia							Eukaryota		V3167-05
"surface-color | self | white, population-quantity | self | 999"	cruise	Pennatulacea	99.18	3167	04:16:09:07	 	36.852146	-122.12027	2471951	5.02	50:13.0	Ventana	33.483	04:17:45:09	11.283	Anthozoa					Animalia	Pennatulacea	Cnidaria		Octocorallia							Eukaryota		V3167-05
"surface-color | self | white, population-quantity | self | 999"	cruise	Pennatulacea	99.14	3167	04:16:41:21	 	36.852253	-122.120026	2471952	5.04	50:45.0	Ventana	33.481	04:18:16:14	11.288	Anthozoa					Animalia	Pennatulacea	Cnidaria		Octocorallia							Eukaryota		V3167-05
"surface-color | self | white, population-quantity | self | 999"	cruise	Pennatulacea	98.5	3167	04:18:12:03	 	36.85257	-122.11932	2471956	5.03	52:15.0	Ventana	33.482	04:19:47:00	11.286	Anthozoa					Animalia	Pennatulacea	Cnidaria		Octocorallia							Eukaryota		V3167-05
"surface-color | self | white, population-quantity | self | 999"	cruise	Pennatulacea	98.45	3167	04:19:28:16	 	36.852882	-122.118706	2471959	5.03	53:32.0	Ventana	33.483	04:21:03:01	11.283	Anthozoa					Animalia	Pennatulacea	Cnidaria		Octocorallia							Eukaryota		V3167-05
population-quantity | self | 999	cruise	Metridium farcimen	98.57	3167	04:19:40:15	 	36.85293	-122.118614	2471962	5.02	53:44.0	Ventana	33.484	04:21:15:28	11.283	Anthozoa	Metridiidae	Metridium			Animalia	Actiniaria	Cnidaria	Metridium farcimen	Hexacorallia			Nyantheae				Eukaryota		V3167-05
population-quantity | self | 999	cruise	Metridium farcimen	98.42	3167	04:19:50:15	 	36.85297	-122.11853	2471963	5.02	53:54.0	Ventana	33.486	04:21:26:01	11.28	Anthozoa	Metridiidae	Metridium			Animalia	Actiniaria	Cnidaria	Metridium farcimen	Hexacorallia			Nyantheae				Eukaryota		V3167-05
"surface-color | self | white, population-quantity | self | 999"	cruise	Pennatulacea	98.17	3167	04:20:22:14	 	36.853104	-122.11828	2471969	5.02	54:26.0	Ventana	33.484	04:21:57:15	11.283	Anthozoa					Animalia	Pennatulacea	Cnidaria		Octocorallia							Eukaryota		V3167-05
"surface-color | self | white, population-quantity | self | 999"	cruise	Pennatulacea	98.05	3167	04:20:48:13	 	36.853195	-122.11808	2471970	5.03	54:52.0	Ventana	33.483	04:22:24:08	11.286	Anthozoa					Animalia	Pennatulacea	Cnidaria		Octocorallia							Eukaryota		V3167-05
"surface-color | self | white, population-quantity | self | 999"	cruise	Pennatulacea	97.94	3167	04:21:26:27	 	36.853313	-122.117775	2471972	5.04	55:30.0	Ventana	33.482	04:23:01:26	11.286	Anthozoa					Animalia	Pennatulacea	Cnidaria		Octocorallia							Eukaryota		V3167-05
"surface-color | self | white, population-quantity | self | 999"	cruise	Pennatulacea	97.85	3167	04:21:44:26	 	36.853367	-122.117645	2471973	5.03	55:48.0	Ventana	33.484	04:23:19:08	11.283	Anthozoa					Animalia	Pennatulacea	Cnidaria		Octocorallia							Eukaryota		V3167-05
"surface-color | self | white, population-quantity | self | 999"	cruise	Pennatulacea	97.83	3167	04:22:06:26	 	36.853443	-122.11748	2471975	5.03	56:10.0	Ventana	33.484	04:23:42:15	11.284	Anthozoa					Animalia	Pennatulacea	Cnidaria		Octocorallia							Eukaryota		V3167-05
"surface-color | self | white, population-quantity | self | 999"	cruise	Pennatulacea	97.51	3167	04:22:36:25	 	36.853554	-122.11726	2471977	5.03	56:41.0	Ventana	33.481	04:24:12:21	11.287	Anthozoa					Animalia	Pennatulacea	Cnidaria		Octocorallia							Eukaryota		V3167-05
identity-reference | self | start: moderately disturbed	cruise	sediment	97.4	3167	04:22:53:09	http://search.mbari.org/ARCHIVE/frameGrabs/Ventana/images/3167/04_24_29_10.jpg	36.853603	-122.11716	2471981	5.03	56:57.0	Ventana	33.484	04:24:29:10	11.282																			V3167-05
population-quantity | self | 999	cruise	Embiotocidae	98.84	3167	04:23:05:09	 	36.85364	-122.11707	2471988	5.01	57:09.0	Ventana	33.486	04:24:40:01	11.278	Osteichthyes	Embiotocidae		Neopterygii		Animalia	Perciformes	Chordata		Actinopterygii				Vertebrata	Gnathostomata		Eukaryota	Acanthopterygii	V3167-05
identity-reference | self | start: mildly disturbed alternating with undisturbed	cruise	sediment	97.62	3167	04:23:21:08	 	36.853683	-122.116974	2471993	5.02	57:25.0	Ventana	33.484	04:24:57:13	11.283																			V3167-05
"surface-color | self | white, population-quantity | self | 999"	cruise	Pennatulacea	97.29	3167	04:23:49:08	 	36.853756	-122.11682	2471999	5.02	57:53.0	Ventana	33.484	04:25:23:28	11.285	Anthozoa					Animalia	Pennatulacea	Cnidaria		Octocorallia							Eukaryota		V3167-05
calibrated | self | bottom 2 lasers 23 cm apart	launch	lasers	 	3167	 	 	 	 	20023926	 	 	Ventana	 	00:01:02:19	 																			V3167-01
"sampled-by | Push Corer | nil, sample-reference | self | V3167-C13, nil | nil | macro"	transect	sediment	319.84	3167	00:20:34:25	http://search.mbari.org/ARCHIVE/frameGrabs/Ventana/images/3167/00_22_29_21.jpg	36.824417	-122.16963	20023945	1.13	52:54.0	Ventana	34.159	00:22:29:21	7.01																			V3167-01
nil | nil | bottom too hard for pushcores	transect	sediment	319.78	3167	00:23:51:19	 	36.824398	-122.169624	20023948	1.13	56:11.0	Ventana	34.159	00:25:47:14	7.018																			V3167-01
nil | nil | end transect NI-1 A	endtransect	physical object	319.41	3167	00:28:30:26	http://search.mbari.org/ARCHIVE/frameGrabs/Ventana/images/3167/00_30_25_21.jpg	36.824722	-122.16909	20023952	1.14	00:51.0	Ventana	34.159	00:30:25:21	7.024																			V3167-01
"sample-reference | self | V3167 - C2, sampled-by | Push Corer | tracer"	stationary	sediment	320.22	3167	00:29:24:24	http://search.mbari.org/ARCHIVE/frameGrabs/Ventana/images/3167/00_31_20_04.jpg	36.824753	-122.169044	20023953	1.13	01:45.0	Ventana	34.158	00:31:20:04	7.023																			V3167-01
"sampled-by | Push Corer | nil, nil | nil | macro, sample-reference | self | V3167-C9"	stationary	sediment	320.22	3167	00:30:23:07	http://search.mbari.org/ARCHIVE/frameGrabs/Ventana/images/3167/00_32_19_02.jpg	36.824768	-122.169044	20023954	1.13	02:43.0	Ventana	34.16	00:32:19:02	7.021																			V3167-01
"sampled-by | Push Corer | nil, nil | nil | tracer, sample-reference | self | V3167-C26"	stationary	sediment	321.73	3167	00:42:16:01	http://search.mbari.org/ARCHIVE/frameGrabs/Ventana/images/3167/00_44_11_11.jpg	36.824825	-122.17042	20023959	1.14	14:37.0	Ventana	34.16	00:44:11:11	7.042																			V3167-01
"sampled-by | Push Corer | nil, nil | nil | macro, sample-reference | self | V3167-C27"	stationary	sediment	321.75	3167	00:43:34:13	http://search.mbari.org/ARCHIVE/frameGrabs/Ventana/images/3167/00_45_29_24.jpg	36.82482	-122.17043	20023960	1.15	15:55.0	Ventana	34.159	00:45:29:24	7.041																			V3167-01
nil | nil | End transectNI-1 B	endtransect	physical object	321.41	3167	00:46:23:08	http://search.mbari.org/ARCHIVE/frameGrabs/Ventana/images/3167/00_48_19_04.jpg	36.824886	-122.17066	20023963	1.13	18:44.0	Ventana	34.16	00:48:19:04	7.026																			V3167-01
nil | nil | start transect NI-1C	starttransect	physical object	322.58	3167	00:47:49:21	http://search.mbari.org/ARCHIVE/frameGrabs/Ventana/images/3167/00_49_44_16.jpg	36.82471	-122.17085	20023964	1.18	20:11.0	Ventana	34.153	00:49:44:16	7.114																			V3167-01
"sampled-by | Push Corer | nil, sample-reference | self | V3167-C32, nil | nil | macro"	stationary	sediment	324	3167	00:50:48:15	http://search.mbari.org/ARCHIVE/frameGrabs/Ventana/images/3167/00_52_44_25.jpg	36.82441	-122.17066	20023965	1.15	23:09.0	Ventana	34.156	00:52:44:25	7.062																			V3167-01
"sampled-by | Push Corer | nil, nil | nil | tracer, sample-reference | self | V3167-C22"	stationary	sediment	323.95	3167	00:52:12:12	http://search.mbari.org/ARCHIVE/frameGrabs/Ventana/images/3167/00_54_07_23.jpg	36.8244	-122.170654	20023966	1.13	24:34.0	Ventana	34.159	00:54:07:23	7.037																			V3167-01
"sampled-by | Push Corer | nil, sample-reference | self | V3167-C25, nil | nil | macro"	stationary	sediment	323.79	3167	00:54:49:07	http://search.mbari.org/ARCHIVE/frameGrabs/Ventana/images/3167/00_56_45_17.jpg	36.82427	-122.1705	20023968	1.14	27:11.0	Ventana	34.16	00:56:45:17	7.041																			V3167-01
"sampled-by | Push Corer | nil, sample-reference | self | V3167-C19, nil | nil | extra core"	stationary	sediment	323.81	3167	00:55:35:06	http://search.mbari.org/ARCHIVE/frameGrabs/Ventana/images/3167/00_57_31_01.jpg	36.824253	-122.170494	20023969	1.14	27:57.0	Ventana	34.159	00:57:31:01	7.038																			V3167-01
nil | nil | end transect NI-1C	endtransect	physical object	322.96	3167	00:59:21:14	http://search.mbari.org/ARCHIVE/frameGrabs/Ventana/images/3167/01_01_11_23.jpg	36.82392	-122.1702	20023971	1.14	32:04.0	Ventana	34.157	01:01:11:23	7.046																			V3167-02
"sampled-by | Push Corer | nil, sample-reference | self | V3167-C21, nil | nil | extra core"	stationary	sediment	323.92	3167	01:00:33:27	http://search.mbari.org/ARCHIVE/frameGrabs/Ventana/images/3167/01_02_25_05.jpg	36.823902	-122.17012	20023973	1.13	33:16.0	Ventana	34.159	01:02:25:05	7.031																			V3167-02
"sampled-by | Push Corer | nil, sample-reference | self | V3167-C20, nil | nil | extra core"	stationary	sediment	323.9	3167	01:01:27:25	http://search.mbari.org/ARCHIVE/frameGrabs/Ventana/images/3167/01_03_18_19.jpg	36.82389	-122.17013	20023974	1.14	34:11.0	Ventana	34.159	01:03:18:19	7.038																			V3167-02
nil | nil | heading north along cable	cruise	cable	322.6	3167	01:02:54:08	http://search.mbari.org/ARCHIVE/frameGrabs/Ventana/images/3167/01_04_45_01.jpg	36.823944	-122.17029	20023975	1.15	35:37.0	Ventana	34.156	01:04:45:01	7.071																			V3167-02
nil | nil | end Skate-1B transect (off cable)	endtransect	physical object	317.42	3167	01:20:02:06	http://search.mbari.org/ARCHIVE/frameGrabs/Ventana/images/3167/01_21_53_14.jpg	36.825405	-122.16904	20023983	1.07	52:46.0	Ventana	34.166	01:21:53:14	6.913																			V3167-02
nil | nil | repeating section of cable w/abundant skates	cruise	physical object	314.85	3167	01:23:13:15	http://search.mbari.org/ARCHIVE/frameGrabs/Ventana/images/3167/01_25_04_23.jpg	36.826015	-122.16933	20023984	1.07	55:57.0	Ventana	34.165	01:25:04:23	6.923																			V3167-02
nil | nil | repeating section of cable w/abundant skates	cruise	physical object	310.4	3167	01:24:47:27	http://search.mbari.org/ARCHIVE/frameGrabs/Ventana/images/3167/01_26_39_06.jpg	36.826557	-122.16906	20023985	1.08	57:32.0	Ventana	34.165	01:26:39:06	6.934																			V3167-02
nil | nil | beginning new section of cable (not yet surveyed this dive)	cruise	physical object	309.1	3167	01:25:31:26	http://search.mbari.org/ARCHIVE/frameGrabs/Ventana/images/3167/01_27_22_19.jpg	36.826786	-122.168915	20023986	1.11	58:16.0	Ventana	34.161	01:27:22:19	6.98																			V3167-02
"nil | nil | start ""Skate-2A"" transect (50 E of cable)"	starttransect	physical object	308.78	3167	01:32:51:12	http://search.mbari.org/ARCHIVE/frameGrabs/Ventana/images/3167/01_34_42_20.jpg	36.827736	-122.16764	20024001	1.08	05:36.0	Ventana	34.165	01:34:42:20	6.93																			V3167-02
"nil | nil | end ""Skate-2"" transect"	endtransect	physical object	309.65	3167	01:35:26:08	http://search.mbari.org/ARCHIVE/frameGrabs/Ventana/images/3167/01_37_21_16.jpg	36.82688	-122.16798	20024008	1.09	08:11.0	Ventana	34.164	01:37:16:20	6.953																			V3167-02
nil | nil | repeating cable section with abundant skates	cruise	physical object	307.35	3167	01:37:26:19	http://search.mbari.org/ARCHIVE/frameGrabs/Ventana/images/3167/01_39_17_12.jpg	36.826805	-122.16873	20024009	1.08	10:12.0	Ventana	34.165	01:39:17:12	6.933																			V3167-02
nil | nil | Skates taper off 5-10 m from cable	cruise	physical object	304.08	3167	01:40:51:28	http://search.mbari.org/ARCHIVE/frameGrabs/Ventana/images/3167/01_42_42_06.jpg	36.82761	-122.16849	20024015	1.15	13:37.0	Ventana	34.156	01:42:42:06	7.079																			V3167-02
nil | nil | cable about 1.5 m off bottom (short section)	cruise	cable	228.04	3167	02:13:24:16	http://search.mbari.org/ARCHIVE/frameGrabs/Ventana/images/3167/02_15_07_05.jpg	36.83543	-122.16109	20024032	1.63	46:37.0	Ventana	34.109	02:15:07:05	7.929																			V3167-03
nil | nil | start Station C transect A (on cable)	starttransect	physical object	171.9	3167	02:22:18:15	http://search.mbari.org/ARCHIVE/frameGrabs/Ventana/images/3167/02_24_01_04.jpg	36.836845	-122.15868	20024041	2.41	55:32.0	Ventana	33.976	02:24:01:04	9.027																			V3167-03
nil | nil | end transect C-A	endtransect	physical object	157.37	3167	02:27:27:20	http://search.mbari.org/ARCHIVE/frameGrabs/Ventana/images/3167/02_29_09_09.jpg	36.83715	-122.15786	20024044	2.72	00:41.0	Ventana	33.923	02:29:09:09	9.408																			V3167-03
nil | nil | Start Station C transect B (off cable)	starttransect	physical object	161.51	3167	02:30:08:15	http://search.mbari.org/ARCHIVE/frameGrabs/Ventana/images/3167/02_31_50_19.jpg	36.83752	-122.158356	20024045	2.7	03:22.0	Ventana	33.93	02:31:50:19	9.377																			V3167-03
nil | nil | end ofStation C transect B	endtransect	physical object	173.13	3167	02:35:47:20	http://search.mbari.org/ARCHIVE/frameGrabs/Ventana/images/3167/02_37_29_23.jpg	36.837185	-122.15919	20024046	2.63	09:02.0	Ventana	33.945	02:37:29:23	9.286																			V3167-03
nil | nil | cable splice	cruise	cable	156.8	3167	02:41:09:10	http://search.mbari.org/ARCHIVE/frameGrabs/Ventana/images/3167/02_42_51_14.jpg	36.837208	-122.157585	20024049	2.81	14:23.0	Ventana	33.897	02:42:51:14	9.488																			V3167-03
comment | self | plow down start	cruise	physical object	117.92	3167	03:04:32:26	http://search.mbari.org/ARCHIVE/frameGrabs/Ventana/images/3167/03_06_13_23.jpg	36.840927	-122.14798	20024063	3.56	38:11.0	Ventana	33.728	03:06:13:23	10.409																			V3167-04
nil | nil | return to cable after drifting to east of it	cruise	cable	110.3	3167	03:31:43:21	http://search.mbari.org/ARCHIVE/frameGrabs/Ventana/images/3167/03_33_24_03.jpg	36.843376	-122.13849	20024076	4.58	05:23.0	Ventana	33.548	03:33:24:03	11.093																			V3167-04
"nil | nil | back on cable route, heading ENE"	cruise	physical object	110.51	3167	03:34:00:16	http://search.mbari.org/ARCHIVE/frameGrabs/Ventana/images/3167/03_35_40_29.jpg	36.843273	-122.13886	20024079	4.68	07:40.0	Ventana	33.537	03:35:40:29	11.129																			V3167-04
population-quantity | self | 999	cruise	Embiotocidae	106.24	3167	03:49:56:02	http://search.mbari.org/ARCHIVE/frameGrabs/Ventana/images/3167/03_51_35_29.jpg	36.846607	-122.132385	20024087	4.91	23:36.0	Ventana	33.499	03:51:35:29	11.242	Osteichthyes	Embiotocidae		Neopterygii		Animalia	Perciformes	Chordata		Actinopterygii				Vertebrata	Gnathostomata		Eukaryota	Acanthopterygii	V3167-04
 	transect	Allocentrotus fragilis	316.32	3167	01:22:13:02	 	36.82567	-122.16948	2371627	1.09	54:57.0	Ventana	34.163	01:24:05:04	6.958	Echinoidea	Strongylocentrotidae	Allocentrotus			Animalia	Echinoida	Echinodermata	Allocentrotus fragilis	Euechinoidea			Echinacea				Eukaryota		V3167-02
 	cruise	Parastichopus leukothele	168.97	3167	02:38:48:14	 	36.836975	-122.15844	2467412	2.73	12:03.0	Ventana	33.923	02:40:31:26	9.409	Holothuroidea	Stichopodidae	Parastichopus			Animalia	Aspidochirotida	Echinodermata	Parastichopus leukothele	Aspidochirotacea							Eukaryota		V3167-03
 	transect	Allocentrotus fragilis	312.35	3167	01:16:55:27	 	36.826324	-122.16816	2370568	1.07	49:39.0	Ventana	34.166	01:18:46:25	6.915	Echinoidea	Strongylocentrotidae	Allocentrotus			Animalia	Echinoida	Echinodermata	Allocentrotus fragilis	Euechinoidea			Echinacea				Eukaryota		V3167-02
 	transect	Allocentrotus fragilis	305.95	3167	01:27:00:08	 	36.827194	-122.168686	2388331	1.1	59:45.0	Ventana	34.164	01:28:51:24	6.964	Echinoidea	Strongylocentrotidae	Allocentrotus			Animalia	Echinoida	Echinodermata	Allocentrotus fragilis	Euechinoidea			Echinacea				Eukaryota		V3167-02
 	transect	Rathbunaster californicus	322.53	3167	00:48:19:19	 	36.82467	-122.17083	2463236	1.19	20:41.0	Ventana	34.154	00:50:15:04	7.121		Labidiasteridae	Rathbunaster			Animalia	Forcipulatida	Echinodermata	Rathbunaster californicus	Asteroidea							Eukaryota		V3167-01
 	transect	Mediaster aequalis	312.46	3167	01:16:59:27	 	36.8263	-122.16816	2370598	1.07	49:43.0	Ventana	34.166	01:18:51:10	6.915		Goniasteridae	Mediaster			Animalia	Valvatida	Echinodermata	Mediaster aequalis	Asteroidea			Granulosina				Eukaryota		V3167-02
 	transect	Rathbunaster californicus	310.6	3167	01:24:39:27	 	36.826515	-122.16908	2372686	1.08	57:24.0	Ventana	34.165	01:26:31:06	6.934		Labidiasteridae	Rathbunaster			Animalia	Forcipulatida	Echinodermata	Rathbunaster californicus	Asteroidea							Eukaryota		V3167-02
 	transect	Rathbunaster californicus	309.18	3167	01:34:32:09	 	36.827194	-122.16777	2390066	1.08	07:17.0	Ventana	34.165	01:36:23:28	6.927		Labidiasteridae	Rathbunaster			Animalia	Forcipulatida	Echinodermata	Rathbunaster californicus	Asteroidea							Eukaryota		V3167-02
 	transect	Merluccius productus	315.71	3167	01:19:32:07	 	36.825523	-122.16886	2371304	1.09	52:16.0	Ventana	34.163	01:21:24:20	6.954	Osteichthyes	Merlucciidae	Merluccius	Neopterygii		Animalia	Gadiformes	Chordata	Merluccius productus	Actinopterygii				Vertebrata	Gnathostomata		Eukaryota	Paracanthopterygii	V3167-02
 	cruise	Raja rhina	302.19	3167	01:31:05:01	 	36.827972	-122.16801	2465324	1.09	03:50.0	Ventana	34.164	01:32:56:19	6.953	Chondrichthyes	Rajidae	Raja			Animalia	Rajiformes	Chordata	Raja rhina	Elasmobranchii				Vertebrata			Eukaryota	Batoidea	V3167-02
 	transect	Rathbunaster californicus	308.88	3167	01:33:31:26	 	36.827568	-122.16766	2389743	1.08	06:17.0	Ventana	34.166	01:35:22:12	6.925		Labidiasteridae	Rathbunaster			Animalia	Forcipulatida	Echinodermata	Rathbunaster californicus	Asteroidea							Eukaryota		V3167-02
 	transect	Rathbunaster californicus	313.13	3167	01:17:47:25	 	36.82606	-122.1683	2370951	1.07	50:32.0	Ventana	34.166	01:19:39:25	6.913		Labidiasteridae	Rathbunaster			Animalia	Forcipulatida	Echinodermata	Rathbunaster californicus	Asteroidea							Eukaryota		V3167-02
 	cruise	Metridium farcimen	98.17	3167	04:21:12:12	 	36.85327	-122.11789	2471971	5.04	55:16.0	Ventana	33.48	04:22:47:27	11.288	Anthozoa	Metridiidae	Metridium			Animalia	Actiniaria	Cnidaria	Metridium farcimen	Hexacorallia			Nyantheae				Eukaryota		V3167-05
 	cruise	Sebastes	307.5	3167	01:37:16:19	 	36.826794	-122.16869	2390772	1.07	10:02.0	Ventana	34.166	01:39:08:20	6.925	Osteichthyes	Scorpaenidae	Sebastes	Neopterygii		Animalia	Scorpaeniformes	Chordata		Actinopterygii			Scorpaenoidei	Vertebrata	Gnathostomata		Eukaryota	Acanthopterygii	V3167-02
 	transect	Allocentrotus fragilis	306.4	3167	01:26:48:09	 	36.827133	-122.16872	2388301	1.12	59:32.0	Ventana	34.164	01:28:40:14	6.991	Echinoidea	Strongylocentrotidae	Allocentrotus			Animalia	Echinoida	Echinodermata	Allocentrotus fragilis	Euechinoidea			Echinacea				Eukaryota		V3167-02
 	cruise	Microstomus pacificus	330.48	3167	00:10:28:14	 	36.822468	-122.17068	2462147	1.11	42:47.0	Ventana	34.162	00:12:23:23	6.953	Osteichthyes	Pleuronectidae	Microstomus	Neopterygii		Animalia	Pleuronectiformes	Chordata	Microstomus pacificus	Actinopterygii				Vertebrata	Gnathostomata		Eukaryota	Acanthopterygii	V3167-01
 	transect	Rathbunaster californicus	313.02	3167	01:17:35:26	 	36.826122	-122.168236	2370891	1.07	50:20.0	Ventana	34.166	01:19:27:20	6.912		Labidiasteridae	Rathbunaster			Animalia	Forcipulatida	Echinodermata	Rathbunaster californicus	Asteroidea							Eukaryota		V3167-02
 	transect	Rathbunaster californicus	312.59	3167	01:23:47:14	 	36.82622	-122.169235	2371950	1.08	56:32.0	Ventana	34.165	01:25:38:28	6.929		Labidiasteridae	Rathbunaster			Animalia	Forcipulatida	Echinodermata	Rathbunaster californicus	Asteroidea							Eukaryota		V3167-02
 	transect	Allocentrotus fragilis	306.94	3167	01:26:24:09	 	36.82701	-122.168785	2372949	1.17	59:08.0	Ventana	34.157	01:28:15:00	7.079	Echinoidea	Strongylocentrotidae	Allocentrotus			Animalia	Echinoida	Echinodermata	Allocentrotus fragilis	Euechinoidea			Echinacea				Eukaryota		V3167-02
 	transect	Allocentrotus fragilis	303.09	3167	01:29:34:18	 	36.827892	-122.16828	2389007	1.14	02:19.0	Ventana	34.159	01:31:26:13	7.042	Echinoidea	Strongylocentrotidae	Allocentrotus			Animalia	Echinoida	Echinodermata	Allocentrotus fragilis	Euechinoidea			Echinacea				Eukaryota		V3167-02
 	transect	Rathbunaster californicus	311.71	3167	01:24:07:14	 	36.826336	-122.16918	2372040	1.07	56:52.0	Ventana	34.165	01:25:58:00	6.925		Labidiasteridae	Rathbunaster			Animalia	Forcipulatida	Echinodermata	Rathbunaster californicus	Asteroidea							Eukaryota		V3167-02
 	transect	Parastichopus leukothele	315.85	3167	01:22:31:02	 	36.825768	-122.16944	2371687	1.08	55:15.0	Ventana	34.164	01:24:23:04	6.938	Holothuroidea	Stichopodidae	Parastichopus			Animalia	Aspidochirotida	Echinodermata	Parastichopus leukothele	Aspidochirotacea							Eukaryota		V3167-02
 	cruise	Metridium farcimen	104.67	3167	03:56:09:20	http://search.mbari.org/ARCHIVE/frameGrabs/Ventana/images/3167/03_57_50_03.jpg	36.847828	-122.12973	20024090	4.98	29:50.0	Ventana	33.487	03:57:50:03	11.27	Anthozoa	Metridiidae	Metridium			Animalia	Actiniaria	Cnidaria	Metridium farcimen	Hexacorallia			Nyantheae				Eukaryota		V3167-04
 	cruise	Hydrolagus colliei	303.05	3167	01:41:51:26	 	36.827644	-122.16839	2390862	1.17	14:37.0	Ventana	34.156	01:43:43:19	7.072	Chondrichthyes	Chimaeridae	Hydrolagus			Animalia	Chimaeriformes	Chordata	Hydrolagus colliei	Holocephali			Chimaeroidei	Vertebrata			Eukaryota	Holocephalimorpha	V3167-02
 	transect	Hydrolagus colliei	308.92	3167	01:33:45:26	 	36.827484	-122.16767	2389803	1.07	06:31.0	Ventana	34.166	01:35:38:01	6.926	Chondrichthyes	Chimaeridae	Hydrolagus			Animalia	Chimaeriformes	Chordata	Hydrolagus colliei	Holocephali			Chimaeroidei	Vertebrata			Eukaryota	Holocephalimorpha	V3167-02
 	transect	Rathbunaster californicus	319.42	3167	00:28:26:26	 	36.82472	-122.1691	2462793	1.14	00:47.0	Ventana	34.159	00:30:22:23	7.024		Labidiasteridae	Rathbunaster			Animalia	Forcipulatida	Echinodermata	Rathbunaster californicus	Asteroidea							Eukaryota		V3167-01
 	cruise	Sebastes diploproa	314.94	3167	01:09:13:26	 	36.82588	-122.16944	2464558	1.11	41:57.0	Ventana	34.162	01:11:05:16	6.977	Osteichthyes	Scorpaenidae	Sebastes	Neopterygii		Animalia	Scorpaeniformes	Chordata	Sebastes diploproa	Actinopterygii			Scorpaenoidei	Vertebrata	Gnathostomata		Eukaryota	Acanthopterygii	V3167-02
 	transect	Rathbunaster californicus	318.9	3167	00:25:08:02	 	36.82443	-122.16958	2462470	1.13	57:28.0	Ventana	34.161	00:27:03:22	7.013		Labidiasteridae	Rathbunaster			Animalia	Forcipulatida	Echinodermata	Rathbunaster californicus	Asteroidea							Eukaryota		V3167-01
 	transect	Rathbunaster californicus	313.66	3167	01:18:54:08	 	36.82573	-122.16868	2371214	1.1	51:38.0	Ventana	34.163	01:20:45:22	6.956		Labidiasteridae	Rathbunaster			Animalia	Forcipulatida	Echinodermata	Rathbunaster californicus	Asteroidea							Eukaryota		V3167-02
 	transect	Allocentrotus fragilis	322.81	3167	00:57:43:03	 	36.824116	-122.17041	2464205	1.16	30:26.0	Ventana	34.155	00:59:35:03	7.087	Echinoidea	Strongylocentrotidae	Allocentrotus			Animalia	Echinoida	Echinodermata	Allocentrotus fragilis	Euechinoidea			Echinacea				Eukaryota		V3167-02
 	cruise	Mediaster aequalis	224.73	3167	02:13:46:16	http://search.mbari.org/ARCHIVE/frameGrabs/Ventana/images/3167/02_15_28_12.jpg	36.83549	-122.16099	2467825	1.64	46:59.0	Ventana	34.109	02:15:28:12	7.936		Goniasteridae	Mediaster			Animalia	Valvatida	Echinodermata	Mediaster aequalis	Asteroidea			Granulosina				Eukaryota		V3167-03
 	cruise	Allocentrotus fragilis	321.7	3167	01:04:14:20	 	36.824223	-122.17027	2464385	1.14	36:58.0	Ventana	34.159	01:06:06:15	7.045	Echinoidea	Strongylocentrotidae	Allocentrotus			Animalia	Echinoida	Echinodermata	Allocentrotus fragilis	Euechinoidea			Echinacea				Eukaryota		V3167-02
 	transect	Rathbunaster californicus	309.01	3167	01:34:50:09	 	36.827076	-122.16782	2390126	1.08	07:35.0	Ventana	34.165	01:36:41:21	6.933		Labidiasteridae	Rathbunaster			Animalia	Forcipulatida	Echinodermata	Rathbunaster californicus	Asteroidea							Eukaryota		V3167-02
 	transect	Allocentrotus fragilis	308.83	3167	01:33:37:26	 	36.827534	-122.16766	2389773	1.07	06:23.0	Ventana	34.166	01:35:28:26	6.926	Echinoidea	Strongylocentrotidae	Allocentrotus			Animalia	Echinoida	Echinodermata	Allocentrotus fragilis	Euechinoidea			Echinacea				Eukaryota		V3167-02
 	cruise	Pleurobranchaea californica	110.69	3167	03:29:23:10	 	36.84302	-122.13895	2470852	4.66	03:02.0	Ventana	33.534	03:31:03:02	11.14	Gastropoda	Pleurobranchidae	Pleurobranchaea			Animalia	Notaspidea	Mollusca	Pleurobranchaea californica	Opisthobranchia						Pleurobranchiacea	Eukaryota		V3167-04
 	transect	Parastichopus leukothele	306.88	3167	01:26:32:09	 	36.827057	-122.168755	2372979	1.17	59:16.0	Ventana	34.157	01:28:24:13	7.079	Holothuroidea	Stichopodidae	Parastichopus			Animalia	Aspidochirotida	Echinodermata	Parastichopus leukothele	Aspidochirotacea							Eukaryota		V3167-02
 	transect	Sebastes diploproa	322.62	3167	00:58:17:02	 	36.824036	-122.17034	2464235	1.15	31:00.0	Ventana	34.158	01:00:08:22	7.048	Osteichthyes	Scorpaenidae	Sebastes	Neopterygii		Animalia	Scorpaeniformes	Chordata	Sebastes diploproa	Actinopterygii			Scorpaenoidei	Vertebrata	Gnathostomata		Eukaryota	Acanthopterygii	V3167-02
 	transect	Allocentrotus fragilis	313.37	3167	01:23:37:15	 	36.82616	-122.16926	2371920	1.07	56:22.0	Ventana	34.166	01:25:28:13	6.924	Echinoidea	Strongylocentrotidae	Allocentrotus			Animalia	Echinoida	Echinodermata	Allocentrotus fragilis	Euechinoidea			Echinacea				Eukaryota		V3167-02
 	transect	Parastichopus leukothele	311.05	3167	01:24:21:13	 	36.826416	-122.169136	2372100	1.08	57:06.0	Ventana	34.164	01:26:12:19	6.927	Holothuroidea	Stichopodidae	Parastichopus			Animalia	Aspidochirotida	Echinodermata	Parastichopus leukothele	Aspidochirotacea							Eukaryota		V3167-02
 	cruise	Pleurobranchaea californica	127.13	3167	02:54:22:15	 	36.83906	-122.15238	2467615	3.13	27:37.0	Ventana	33.8	02:56:04:07	9.979	Gastropoda	Pleurobranchidae	Pleurobranchaea			Animalia	Notaspidea	Mollusca	Pleurobranchaea californica	Opisthobranchia						Pleurobranchiacea	Eukaryota		V3167-03
 	transect	Parastichopus leukothele	308.78	3167	01:32:51:12	 	36.827736	-122.16764	2389593	1.08	05:36.0	Ventana	34.165	01:34:43:21	6.93	Holothuroidea	Stichopodidae	Parastichopus			Animalia	Aspidochirotida	Echinodermata	Parastichopus leukothele	Aspidochirotacea							Eukaryota		V3167-02
 	transect	Stylasterias forreri	310.45	3167	01:15:59:13	 	36.826588	-122.168236	2370478	1.07	48:43.0	Ventana	34.165	01:17:51:15	6.921		Asteriidae	Stylasterias			Animalia	Forcipulatida	Echinodermata	Stylasterias forreri	Asteroidea							Eukaryota		V3167-02
 	transect	Allocentrotus fragilis	308.54	3167	01:25:41:26	 	36.82683	-122.16889	2372806	1.09	58:26.0	Ventana	34.163	01:27:33:23	6.991	Echinoidea	Strongylocentrotidae	Allocentrotus			Animalia	Echinoida	Echinodermata	Allocentrotus fragilis	Euechinoidea			Echinacea				Eukaryota		V3167-02
 	transect	Asteroidea	318.35	3167	00:36:22:27	 	36.824883	-122.16978	2462973	1.15	08:43.0	Ventana	34.158	00:38:17:24	7.055						Animalia		Echinodermata		Asteroidea							Eukaryota		V3167-01
 	transect	Rathbunaster californicus	309.65	3167	01:35:26:08	 	36.82688	-122.16798	2390269	1.09	08:11.0	Ventana	34.164	01:37:16:17	6.953		Labidiasteridae	Rathbunaster			Animalia	Forcipulatida	Echinodermata	Rathbunaster californicus	Asteroidea							Eukaryota		V3167-02
 	transect	Hydrolagus colliei	307.44	3167	01:25:59:25	 	36.82691	-122.168846	2372836	1.19	58:44.0	Ventana	34.152	01:27:51:21	7.21	Chondrichthyes	Chimaeridae	Hydrolagus			Animalia	Chimaeriformes	Chordata	Hydrolagus colliei	Holocephali			Chimaeroidei	Vertebrata			Eukaryota	Holocephalimorpha	V3167-02
 	transect	Rathbunaster californicus	308.83	3167	01:33:57:25	 	36.827408	-122.167694	2389893	1.08	06:43.0	Ventana	34.165	01:35:49:16	6.927		Labidiasteridae	Rathbunaster			Animalia	Forcipulatida	Echinodermata	Rathbunaster californicus	Asteroidea							Eukaryota		V3167-02
 	cruise	Allocentrotus fragilis	342.16	3167	00:03:38:27	 	36.820347	-122.17134	2459563	1.1	35:57.0	Ventana	34.162	00:05:35:07	6.917	Echinoidea	Strongylocentrotidae	Allocentrotus			Animalia	Echinoida	Echinodermata	Allocentrotus fragilis	Euechinoidea			Echinacea				Eukaryota		V3167-01
 	transect	Rathbunaster californicus	319.24	3167	00:26:48:14	 	36.82458	-122.16934	2462703	1.14	59:08.0	Ventana	34.158	00:28:43:22	7.033		Labidiasteridae	Rathbunaster			Animalia	Forcipulatida	Echinodermata	Rathbunaster californicus	Asteroidea							Eukaryota		V3167-01
 	transect	Allocentrotus fragilis	313.04	3167	01:18:24:09	 	36.825886	-122.16851	2371124	1.1	51:08.0	Ventana	34.16	01:20:16:07	6.984	Echinoidea	Strongylocentrotidae	Allocentrotus			Animalia	Echinoida	Echinodermata	Allocentrotus fragilis	Euechinoidea			Echinacea				Eukaryota		V3167-02
 	transect	Rathbunaster californicus	313.24	3167	01:18:17:24	 	36.825912	-122.16847	2371094	1.08	51:02.0	Ventana	34.161	01:20:09:10	6.953		Labidiasteridae	Rathbunaster			Animalia	Forcipulatida	Echinodermata	Rathbunaster californicus	Asteroidea							Eukaryota		V3167-02
 	transect	Rathbunaster californicus	320.07	3167	00:18:36:14	 	36.824333	-122.169876	2462327	1.12	50:56.0	Ventana	34.162	00:20:32:17	6.992		Labidiasteridae	Rathbunaster			Animalia	Forcipulatida	Echinodermata	Rathbunaster californicus	Asteroidea							Eukaryota		V3167-01
 	transect	Stylasterias forreri	318.92	3167	00:37:38:24	 	36.824905	-122.17006	2463003	1.16	09:59.0	Ventana	34.156	00:39:34:15	7.075		Asteriidae	Stylasterias			Animalia	Forcipulatida	Echinodermata	Stylasterias forreri	Asteroidea							Eukaryota		V3167-01
 	transect	Rathbunaster californicus	313.01	3167	01:18:36:09	 	36.825825	-122.16858	2371154	1.1	51:20.0	Ventana	34.16	01:20:27:08	6.984		Labidiasteridae	Rathbunaster			Animalia	Forcipulatida	Echinodermata	Rathbunaster californicus	Asteroidea							Eukaryota		V3167-02
 	transect	Allocentrotus fragilis	305.15	3167	01:27:36:07	 	36.82738	-122.16859	2388564	1.11	00:21.0	Ventana	34.162	01:29:27:26	6.992	Echinoidea	Strongylocentrotidae	Allocentrotus			Animalia	Echinoida	Echinodermata	Allocentrotus fragilis	Euechinoidea			Echinacea				Eukaryota		V3167-02
 	transect	Hydrolagus colliei	309.69	3167	01:15:35:14	 	36.826675	-122.16828	2370448	1.07	48:19.0	Ventana	34.164	01:17:27:08	6.927	Chondrichthyes	Chimaeridae	Hydrolagus			Animalia	Chimaeriformes	Chordata	Hydrolagus colliei	Holocephali			Chimaeroidei	Vertebrata			Eukaryota	Holocephalimorpha	V3167-02
 	transect	Rathbunaster californicus	313.18	3167	01:18:09:25	 	36.825947	-122.168434	2371064	1.08	50:54.0	Ventana	34.161	01:20:01:27	6.953		Labidiasteridae	Rathbunaster			Animalia	Forcipulatida	Echinodermata	Rathbunaster californicus	Asteroidea							Eukaryota		V3167-02
 	transect	Rathbunaster californicus	314.82	3167	01:22:57:00	 	36.825916	-122.16937	2371770	1.07	55:41.0	Ventana	34.165	01:24:48:12	6.926		Labidiasteridae	Rathbunaster			Animalia	Forcipulatida	Echinodermata	Rathbunaster californicus	Asteroidea							Eukaryota		V3167-02
 	stationary	Microstomus pacificus	320.93	3167	00:38:53:07	 	36.824932	-122.17034	2463093	1.15	11:14.0	Ventana	34.157	00:40:48:15	7.043	Osteichthyes	Pleuronectidae	Microstomus	Neopterygii		Animalia	Pleuronectiformes	Chordata	Microstomus pacificus	Actinopterygii				Vertebrata	Gnathostomata		Eukaryota	Acanthopterygii	V3167-01
 	transect	Stomphia	322.82	3167	00:54:02:24	 	36.82431	-122.170555	2463379	1.17	26:24.0	Ventana	34.155	00:55:58:27	7.09	Anthozoa	Actinostolidae	Stomphia			Animalia	Actiniaria	Cnidaria		Hexacorallia			Nyantheae				Eukaryota		V3167-01
 	cruise	Parastichopus leukothele	318.71	3167	01:06:05:02	 	36.824856	-122.17001	2464445	1.13	38:48.0	Ventana	34.16	01:07:56:03	7.018	Holothuroidea	Stichopodidae	Parastichopus			Animalia	Aspidochirotida	Echinodermata	Parastichopus leukothele	Aspidochirotacea							Eukaryota		V3167-02
 	cruise	Stylasterias forreri	158.04	3167	02:27:47:20	 	36.837204	-122.15788	2467299	2.73	01:01.0	Ventana	33.924	02:29:31:01	9.41		Asteriidae	Stylasterias			Animalia	Forcipulatida	Echinodermata	Stylasterias forreri	Asteroidea							Eukaryota		V3167-03
 	transect	Parastichopus leukothele	308.58	3167	01:33:03:27	 	36.827694	-122.16764	2389630	1.08	05:48.0	Ventana	34.165	01:34:54:29	6.927	Holothuroidea	Stichopodidae	Parastichopus			Animalia	Aspidochirotida	Echinodermata	Parastichopus leukothele	Aspidochirotacea							Eukaryota		V3167-02
 	transect	Allocentrotus fragilis	304.49	3167	01:28:36:20	 	36.827667	-122.16842	2388797	1.1	01:21.0	Ventana	34.162	01:30:27:08	6.963	Echinoidea	Strongylocentrotidae	Allocentrotus			Animalia	Echinoida	Echinodermata	Allocentrotus fragilis	Euechinoidea			Echinacea				Eukaryota		V3167-02
 	transect	Allocentrotus fragilis	303.48	3167	01:29:08:19	 	36.827793	-122.16835	2388924	1.12	01:53.0	Ventana	34.159	01:31:01:09	7.03	Echinoidea	Strongylocentrotidae	Allocentrotus			Animalia	Echinoida	Echinodermata	Allocentrotus fragilis	Euechinoidea			Echinacea				Eukaryota		V3167-02
 	transect	Rathbunaster californicus	308.62	3167	01:34:13:25	http://search.mbari.org/ARCHIVE/frameGrabs/Ventana/images/3167/01_36_06_06.jpg	36.827305	-122.167725	2390006	1.08	06:59.0	Ventana	34.165	01:36:06:06	6.933		Labidiasteridae	Rathbunaster			Animalia	Forcipulatida	Echinodermata	Rathbunaster californicus	Asteroidea							Eukaryota		V3167-02
 	cruise	cable	191.6	3167	02:18:21:22	http://search.mbari.org/ARCHIVE/frameGrabs/Ventana/images/3167/02_20_03_21.jpg	36.836384	-122.15966	2467878	2.12	51:34.0	Ventana	34.034	02:20:03:21	8.698																			V3167-03
 	transect	Rathbunaster californicus	309.53	3167	01:35:10:08	 	36.826958	-122.16791	2390209	1.08	07:55.0	Ventana	34.163	01:37:01:07	6.95		Labidiasteridae	Rathbunaster			Animalia	Forcipulatida	Echinodermata	Rathbunaster californicus	Asteroidea							Eukaryota		V3167-02
 	transect	Parastichopus leukothele	305.06	3167	01:27:58:21	 	36.827496	-122.168526	2388624	1.16	00:43.0	Ventana	34.154	01:29:49:26	7.099	Holothuroidea	Stichopodidae	Parastichopus			Animalia	Aspidochirotida	Echinodermata	Parastichopus leukothele	Aspidochirotacea							Eukaryota		V3167-02
 	transect	Hydrolagus colliei	304.75	3167	01:28:26:21	 	36.827625	-122.16844	2388767	1.1	01:11.0	Ventana	34.162	01:30:18:18	6.963	Chondrichthyes	Chimaeridae	Hydrolagus			Animalia	Chimaeriformes	Chordata	Hydrolagus colliei	Holocephali			Chimaeroidei	Vertebrata			Eukaryota	Holocephalimorpha	V3167-02
 	cruise	Parastichopus leukothele	137.2	3167	02:48:57:11	 	36.838303	-122.15447	2467502	2.94	22:12.0	Ventana	33.857	02:50:39:29	9.671	Holothuroidea	Stichopodidae	Parastichopus			Animalia	Aspidochirotida	Echinodermata	Parastichopus leukothele	Aspidochirotacea							Eukaryota		V3167-03
 	transect	Sebastes	305.16	3167	01:27:46:06	 	36.827435	-122.16856	2388594	1.12	00:31.0	Ventana	34.159	01:29:37:16	7.026	Osteichthyes	Scorpaenidae	Sebastes	Neopterygii		Animalia	Scorpaeniformes	Chordata		Actinopterygii			Scorpaenoidei	Vertebrata	Gnathostomata		Eukaryota	Acanthopterygii	V3167-02
 	cruise	Metridium farcimen	113.05	3167	03:14:27:22	 	36.84202	-122.14249	2468584	4.85	48:06.0	Ventana	33.516	03:16:08:16	11.232	Anthozoa	Metridiidae	Metridium			Animalia	Actiniaria	Cnidaria	Metridium farcimen	Hexacorallia			Nyantheae				Eukaryota		V3167-04
 	transect	Allocentrotus fragilis	311.83	3167	01:24:05:14	 	36.826324	-122.16919	2372033	1.07	56:50.0	Ventana	34.165	01:25:56:01	6.925	Echinoidea	Strongylocentrotidae	Allocentrotus			Animalia	Echinoida	Echinodermata	Allocentrotus fragilis	Euechinoidea			Echinacea				Eukaryota		V3167-02
 	transect	Rathbunaster californicus	323.18	3167	00:49:44:02	 	36.824463	-122.1707	2463266	1.18	22:05.0	Ventana	34.154	00:51:40:08	7.11		Labidiasteridae	Rathbunaster			Animalia	Forcipulatida	Echinodermata	Rathbunaster californicus	Asteroidea							Eukaryota		V3167-01
 	cruise	Rathbunaster californicus	136.24	3167	02:49:31:10	 	36.838383	-122.15427	2467532	2.97	22:46.0	Ventana	33.845	02:51:13:06	9.718		Labidiasteridae	Rathbunaster			Animalia	Forcipulatida	Echinodermata	Rathbunaster californicus	Asteroidea							Eukaryota		V3167-03
 	transect	Rathbunaster californicus	308.41	3167	01:33:09:27	 	36.827675	-122.16765	2389660	1.08	05:54.0	Ventana	34.166	01:35:00:05	6.926		Labidiasteridae	Rathbunaster			Animalia	Forcipulatida	Echinodermata	Rathbunaster californicus	Asteroidea							Eukaryota		V3167-02
 	transect	Rathbunaster californicus	309.56	3167	01:25:03:27	 	36.82665	-122.169	2372739	1.09	57:48.0	Ventana	34.165	01:26:54:16	6.968		Labidiasteridae	Rathbunaster			Animalia	Forcipulatida	Echinodermata	Rathbunaster californicus	Asteroidea							Eukaryota		V3167-02
 	transect	Rathbunaster californicus	308.91	3167	01:33:51:26	 	36.827446	-122.16769	2389863	1.07	06:37.0	Ventana	34.166	01:35:43:19	6.926		Labidiasteridae	Rathbunaster			Animalia	Forcipulatida	Echinodermata	Rathbunaster californicus	Asteroidea							Eukaryota		V3167-02
 	transect	Raja rhina	303.17	3167	01:29:18:19	 	36.82783	-122.16832	2388954	1.12	02:03.0	Ventana	34.159	01:31:10:23	7.03	Chondrichthyes	Rajidae	Raja			Animalia	Rajiformes	Chordata	Raja rhina	Elasmobranchii				Vertebrata			Eukaryota	Batoidea	V3167-02
 	cruise	Luidia foliolata	97.34	3167	04:23:57:07	 	36.85377	-122.1168	2472001	5.02	58:01.0	Ventana	33.484	04:25:32:00	11.285		Luidiidae	Luidia			Animalia	Platyasterida	Echinodermata	Luidia foliolata	Asteroidea							Eukaryota		V3167-05
 	transect	Allocentrotus fragilis	312.5	3167	01:17:07:27	 	36.826263	-122.16817	2370748	1.07	49:51.0	Ventana	34.166	01:18:59:09	6.915	Echinoidea	Strongylocentrotidae	Allocentrotus			Animalia	Echinoida	Echinodermata	Allocentrotus fragilis	Euechinoidea			Echinacea				Eukaryota		V3167-02
 	transect	Hydrolagus colliei	309.05	3167	01:34:23:24	 	36.827244	-122.167755	2390036	1.08	07:09.0	Ventana	34.165	01:36:15:11	6.927	Chondrichthyes	Chimaeridae	Hydrolagus			Animalia	Chimaeriformes	Chordata	Hydrolagus colliei	Holocephali			Chimaeroidei	Vertebrata			Eukaryota	Holocephalimorpha	V3167-02
 	transect	Rathbunaster californicus	315.61	3167	01:19:30:07	 	36.82553	-122.16885	2371297	1.09	52:14.0	Ventana	34.163	01:21:21:17	6.954		Labidiasteridae	Rathbunaster			Animalia	Forcipulatida	Echinodermata	Rathbunaster californicus	Asteroidea							Eukaryota		V3167-02
 	transect	Parastichopus leukothele	303	3167	01:29:38:18	 	36.827904	-122.168274	2389014	1.11	02:23.0	Ventana	34.163	01:31:29:20	6.985	Holothuroidea	Stichopodidae	Parastichopus			Animalia	Aspidochirotida	Echinodermata	Parastichopus leukothele	Aspidochirotacea							Eukaryota		V3167-02
 	transect	Rathbunaster californicus	319.08	3167	00:25:56:01	 	36.82449	-122.16949	2462507	1.13	58:16.0	Ventana	34.159	00:27:52:27	7.019		Labidiasteridae	Rathbunaster			Animalia	Forcipulatida	Echinodermata	Rathbunaster californicus	Asteroidea							Eukaryota		V3167-01
 	transect	Rathbunaster californicus	316.47	3167	01:22:05:02	 	36.82563	-122.169495	2371604	1.09	54:49.0	Ventana	34.164	01:23:57:01	6.958		Labidiasteridae	Rathbunaster			Animalia	Forcipulatida	Echinodermata	Rathbunaster californicus	Asteroidea							Eukaryota		V3167-02
 	transect	Rathbunaster californicus	312.46	3167	01:16:59:27	 	36.8263	-122.16816	2370591	1.07	49:43.0	Ventana	34.166	01:18:51:10	6.915		Labidiasteridae	Rathbunaster			Animalia	Forcipulatida	Echinodermata	Rathbunaster californicus	Asteroidea							Eukaryota		V3167-02
 	cruise	Parastichopus leukothele	309.44	3167	01:36:02:07	 	36.82679	-122.16818	2390749	1.09	08:47.0	Ventana	34.165	01:37:54:11	6.939	Holothuroidea	Stichopodidae	Parastichopus			Animalia	Aspidochirotida	Echinodermata	Parastichopus leukothele	Aspidochirotacea							Eukaryota		V3167-02
 	transect	Allocentrotus fragilis	306.88	3167	01:26:32:09	 	36.827057	-122.168755	2372986	1.17	59:16.0	Ventana	34.157	01:28:24:13	7.079	Echinoidea	Strongylocentrotidae	Allocentrotus			Animalia	Echinoida	Echinodermata	Allocentrotus fragilis	Euechinoidea			Echinacea				Eukaryota		V3167-02
 	cruise	Pleuronectiformes	294.71	3167	01:59:10:28	 	36.832157	-122.16523	2466406	1.13	32:23.0	Ventana	34.16	02:00:53:25	7.025	Osteichthyes			Neopterygii		Animalia	Pleuronectiformes	Chordata		Actinopterygii				Vertebrata	Gnathostomata		Eukaryota	Acanthopterygii	V3167-03
 	transect	Rathbunaster californicus	309.11	3167	01:34:48:08	 	36.827087	-122.16782	2390119	1.08	07:33.0	Ventana	34.165	01:36:38:27	6.933		Labidiasteridae	Rathbunaster			Animalia	Forcipulatida	Echinodermata	Rathbunaster californicus	Asteroidea							Eukaryota		V3167-02
 	transect	Rathbunaster californicus	322.53	3167	00:58:29:01	 	36.824005	-122.17031	2464242	1.15	31:12.0	Ventana	34.157	01:00:20:14	7.051		Labidiasteridae	Rathbunaster			Animalia	Forcipulatida	Echinodermata	Rathbunaster californicus	Asteroidea							Eukaryota		V3167-02
 	cruise	Parastichopus leukothele	326.46	3167	00:13:07:09	 	36.823296	-122.170494	2462184	1.12	45:26.0	Ventana	34.16	00:15:02:12	6.99	Holothuroidea	Stichopodidae	Parastichopus			Animalia	Aspidochirotida	Echinodermata	Parastichopus leukothele	Aspidochirotacea							Eukaryota		V3167-01
 	cruise	Metridium farcimen	115.82	3167	03:07:13:21	 	36.841396	-122.1464	2468388	3.67	40:52.0	Ventana	33.714	03:08:54:09	10.456	Anthozoa	Metridiidae	Metridium			Animalia	Actiniaria	Cnidaria	Metridium farcimen	Hexacorallia			Nyantheae				Eukaryota		V3167-04
 	transect	Allocentrotus fragilis	305.98	3167	01:26:56:08	 	36.827175	-122.16869	2388324	1.1	59:41.0	Ventana	34.164	01:28:47:24	6.964	Echinoidea	Strongylocentrotidae	Allocentrotus			Animalia	Echinoida	Echinodermata	Allocentrotus fragilis	Euechinoidea			Echinacea				Eukaryota		V3167-02
 	transect	Allocentrotus fragilis	303.07	3167	01:29:24:19	 	36.827854	-122.168304	2388984	1.14	02:09.0	Ventana	34.159	01:31:17:05	7.042	Echinoidea	Strongylocentrotidae	Allocentrotus			Animalia	Echinoida	Echinodermata	Allocentrotus fragilis	Euechinoidea			Echinacea				Eukaryota		V3167-02
 	cruise	Ceriantharia sp. 3	322.82	3167	00:15:39:19	 	36.824074	-122.17022	2462214	1.12	47:59.0	Ventana	34.16	00:17:36:12	6.984	Anthozoa					Animalia	Ceriantharia	Cnidaria		Ceriantipatharia							Eukaryota		V3167-01
 	transect	Stylasterias forreri	312.96	3167	01:17:55:25	 	36.826023	-122.168335	2370974	1.07	50:40.0	Ventana	34.165	01:19:48:01	6.914		Asteriidae	Stylasterias			Animalia	Forcipulatida	Echinodermata	Stylasterias forreri	Asteroidea							Eukaryota		V3167-02
 	cruise	Allocentrotus fragilis	330.95	3167	00:10:08:15	 	36.822388	-122.1707	2462140	1.11	42:27.0	Ventana	34.165	00:12:04:00	6.96	Echinoidea	Strongylocentrotidae	Allocentrotus			Animalia	Echinoida	Echinodermata	Allocentrotus fragilis	Euechinoidea			Echinacea				Eukaryota		V3167-01
 	transect	Rathbunaster californicus	310.65	3167	01:24:33:27	 	36.82648	-122.169106	2372679	1.08	57:18.0	Ventana	34.165	01:26:24:19	6.93		Labidiasteridae	Rathbunaster			Animalia	Forcipulatida	Echinodermata	Rathbunaster californicus	Asteroidea							Eukaryota		V3167-02
 	transect	Rathbunaster californicus	308.92	3167	01:33:45:26	 	36.827484	-122.16767	2389826	1.07	06:31.0	Ventana	34.166	01:35:38:01	6.926		Labidiasteridae	Rathbunaster			Animalia	Forcipulatida	Echinodermata	Rathbunaster californicus	Asteroidea							Eukaryota		V3167-02
 	transect	Rathbunaster californicus	309.57	3167	01:35:04:08	 	36.826992	-122.16788	2390179	1.08	07:49.0	Ventana	34.164	01:36:54:18	6.94		Labidiasteridae	Rathbunaster			Animalia	Forcipulatida	Echinodermata	Rathbunaster californicus	Asteroidea							Eukaryota		V3167-02
 	transect	Rathbunaster californicus	314.62	3167	01:23:23:15	 	36.826073	-122.1693	2371867	1.07	56:07.0	Ventana	34.165	01:25:13:28	6.923		Labidiasteridae	Rathbunaster			Animalia	Forcipulatida	Echinodermata	Rathbunaster californicus	Asteroidea							Eukaryota		V3167-02
 	cruise	sediment	114.15	3167	03:11:24:28	http://search.mbari.org/ARCHIVE/frameGrabs/Ventana/images/3167/03_13_05_02.jpg	36.84177	-122.14398	2468508	4.64	45:03.0	Ventana	33.543	03:13:05:02	11.14																			V3167-04
 	transect	Ceriantharia sp. 3	313.66	3167	01:18:54:08	 	36.82573	-122.16868	2371207	1.1	51:38.0	Ventana	34.163	01:20:44:23	6.956	Anthozoa					Animalia	Ceriantharia	Cnidaria		Ceriantipatharia							Eukaryota		V3167-02
 	cruise	Parastichopus leukothele	115.92	3167	03:06:27:22	 	36.841297	-122.14687	2468358	3.69	40:05.0	Ventana	33.705	03:08:07:18	10.492	Holothuroidea	Stichopodidae	Parastichopus			Animalia	Aspidochirotida	Echinodermata	Parastichopus leukothele	Aspidochirotacea							Eukaryota		V3167-04
 	transect	Rathbunaster californicus	310.68	3167	01:16:13:13	 	36.82653	-122.16821	2370485	1.07	48:57.0	Ventana	34.166	01:18:04:28	6.923		Labidiasteridae	Rathbunaster			Animalia	Forcipulatida	Echinodermata	Rathbunaster californicus	Asteroidea							Eukaryota		V3167-02
 	transect	Rathbunaster californicus	311.4	3167	01:24:11:13	 	36.82636	-122.16917	2372063	1.08	56:56.0	Ventana	34.164	01:26:03:00	6.927		Labidiasteridae	Rathbunaster			Animalia	Forcipulatida	Echinodermata	Rathbunaster californicus	Asteroidea							Eukaryota		V3167-02
 	transect	Allocentrotus fragilis	318.56	3167	00:37:22:25	 	36.8249	-122.17	2462996	1.16	09:43.0	Ventana	34.156	00:39:19:23	7.077	Echinoidea	Strongylocentrotidae	Allocentrotus			Animalia	Echinoida	Echinodermata	Allocentrotus fragilis	Euechinoidea			Echinacea				Eukaryota		V3167-01
 	cruise	Sebastes	324.84	3167	00:14:25:06	http://search.mbari.org/ARCHIVE/frameGrabs/Ventana/images/3167/00_16_22_02.jpg	36.823723	-122.17037	20023940	1.11	46:44.0	Ventana	34.162	00:16:22:02	6.967	Osteichthyes	Scorpaenidae	Sebastes	Neopterygii		Animalia	Scorpaeniformes	Chordata		Actinopterygii			Scorpaenoidei	Vertebrata	Gnathostomata		Eukaryota	Acanthopterygii	V3167-01
 	transect	Allocentrotus fragilis	318.62	3167	00:24:19:18	 	36.82441	-122.16962	2462447	1.13	56:39.0	Ventana	34.159	00:26:16:23	7.02	Echinoidea	Strongylocentrotidae	Allocentrotus			Animalia	Echinoida	Echinodermata	Allocentrotus fragilis	Euechinoidea			Echinacea				Eukaryota		V3167-01
 	transect	Stomphia	313.07	3167	01:17:31:25	 	36.82614	-122.16822	2370884	1.07	50:16.0	Ventana	34.166	01:19:22:05	6.912	Anthozoa	Actinostolidae	Stomphia			Animalia	Actiniaria	Cnidaria		Hexacorallia			Nyantheae				Eukaryota		V3167-02
 	transect	Rathbunaster californicus	314.63	3167	01:19:06:08	 	36.82566	-122.16873	2371237	1.1	51:50.0	Ventana	34.163	01:20:58:10	6.956		Labidiasteridae	Rathbunaster			Animalia	Forcipulatida	Echinodermata	Rathbunaster californicus	Asteroidea							Eukaryota		V3167-02
 	transect	Parastichopus leukothele	308.79	3167	01:32:55:12	 	36.827724	-122.16764	2389600	1.08	05:40.0	Ventana	34.165	01:34:48:01	6.927	Holothuroidea	Stichopodidae	Parastichopus			Animalia	Aspidochirotida	Echinodermata	Parastichopus leukothele	Aspidochirotacea							Eukaryota		V3167-02
 	transect	Rathbunaster californicus	315.79	3167	01:22:35:01	 	36.82579	-122.169426	2371694	1.08	55:19.0	Ventana	34.164	01:24:26:14	6.938		Labidiasteridae	Rathbunaster			Animalia	Forcipulatida	Echinodermata	Rathbunaster californicus	Asteroidea							Eukaryota		V3167-02
 	transect	Rathbunaster californicus	313.09	3167	01:18:03:25	 	36.82599	-122.16838	2371004	1.07	50:48.0	Ventana	34.165	01:19:55:02	6.914		Labidiasteridae	Rathbunaster			Animalia	Forcipulatida	Echinodermata	Rathbunaster californicus	Asteroidea							Eukaryota		V3167-02
 	transect	Rathbunaster californicus	318.55	3167	00:36:04:27	 	36.82488	-122.16971	2462966	1.15	08:25.0	Ventana	34.157	00:38:00:09	7.051		Labidiasteridae	Rathbunaster			Animalia	Forcipulatida	Echinodermata	Rathbunaster californicus	Asteroidea							Eukaryota		V3167-01
 	transect	Sebastes diploproa	315.82	3167	01:19:34:07	 	36.825512	-122.16888	2371341	1.09	52:18.0	Ventana	34.163	01:21:26:05	6.954	Osteichthyes	Scorpaenidae	Sebastes	Neopterygii		Animalia	Scorpaeniformes	Chordata	Sebastes diploproa	Actinopterygii			Scorpaenoidei	Vertebrata	Gnathostomata		Eukaryota	Acanthopterygii	V3167-02
 	transect	Sebastes	309.01	3167	01:34:56:08	 	36.827038	-122.16785	2390149	1.08	07:41.0	Ventana	34.164	01:36:48:12	6.94	Osteichthyes	Scorpaenidae	Sebastes	Neopterygii		Animalia	Scorpaeniformes	Chordata		Actinopterygii			Scorpaenoidei	Vertebrata	Gnathostomata		Eukaryota	Acanthopterygii	V3167-02
 	transect	Parastichopus leukothele	306.87	3167	01:26:28:09	 	36.82703	-122.16877	2372956	1.17	59:12.0	Ventana	34.157	01:28:19:25	7.079	Holothuroidea	Stichopodidae	Parastichopus			Animalia	Aspidochirotida	Echinodermata	Parastichopus leukothele	Aspidochirotacea							Eukaryota		V3167-02
 	transect	Rathbunaster californicus	315.14	3167	01:22:47:01	 	36.82586	-122.169395	2371724	1.08	55:31.0	Ventana	34.166	01:24:38:07	6.927		Labidiasteridae	Rathbunaster			Animalia	Forcipulatida	Echinodermata	Rathbunaster californicus	Asteroidea							Eukaryota		V3167-02
 	transect	Phyllospadix	159.11	3167	02:26:57:22	 	36.8371	-122.157906	2467269	2.73	00:11.0	Ventana	33.926	02:28:40:08	9.403		Zosteraceae	Phyllospadix			Plantae	Najadales										Eukaryota		V3167-03
 	transect	Stomphia	308.95	3167	01:25:35:26	 	36.8268	-122.16891	2372783	1.11	58:20.0	Ventana	34.161	01:27:26:23	6.98	Anthozoa	Actinostolidae	Stomphia			Animalia	Actiniaria	Cnidaria		Hexacorallia			Nyantheae				Eukaryota		V3167-02
 	cruise	Stylasterias forreri	110.52	3167	03:29:16:25	 	36.843006	-122.13899	2470845	4.66	02:56.0	Ventana	33.534	03:30:57:27	11.14		Asteriidae	Stylasterias			Animalia	Forcipulatida	Echinodermata	Stylasterias forreri	Asteroidea							Eukaryota		V3167-04
 	transect	Rathbunaster californicus	308.9	3167	01:34:07:25	 	36.827343	-122.16771	2389969	1.08	06:53.0	Ventana	34.165	01:35:58:22	6.933		Labidiasteridae	Rathbunaster			Animalia	Forcipulatida	Echinodermata	Rathbunaster californicus	Asteroidea							Eukaryota		V3167-02
 	transect	Rathbunaster californicus	313.83	3167	01:23:31:15	 	36.826122	-122.16928	2371897	1.07	56:15.0	Ventana	34.166	01:25:22:05	6.924		Labidiasteridae	Rathbunaster			Animalia	Forcipulatida	Echinodermata	Rathbunaster californicus	Asteroidea							Eukaryota		V3167-02
 	transect	Rathbunaster californicus	311.34	3167	01:24:17:13	 	36.826393	-122.16915	2372093	1.08	57:02.0	Ventana	34.164	01:26:09:25	6.927		Labidiasteridae	Rathbunaster			Animalia	Forcipulatida	Echinodermata	Rathbunaster californicus	Asteroidea							Eukaryota		V3167-02
 	transect	Hippasteria	308.74	3167	01:34:01:25	 	36.82738	-122.1677	2389916	1.08	06:47.0	Ventana	34.165	01:35:52:07	6.927		Goniasteridae	Hippasteria			Animalia	Valvatida	Echinodermata		Asteroidea			Granulosina				Eukaryota		V3167-02
 	transect	Ceriantharia sp. 3	303.8	3167	01:28:56:20	 	36.827744	-122.16837	2388880	1.09	01:41.0	Ventana	34.163	01:30:47:29	6.964	Anthozoa					Animalia	Ceriantharia	Cnidaria		Ceriantipatharia							Eukaryota		V3167-02
 	transect	Rathbunaster californicus	320.22	3167	00:18:26:14	 	36.824326	-122.16991	2462304	1.12	50:46.0	Ventana	34.161	00:20:21:18	6.992		Labidiasteridae	Rathbunaster			Animalia	Forcipulatida	Echinodermata	Rathbunaster californicus	Asteroidea							Eukaryota		V3167-01
 	transect	Allocentrotus fragilis	305.16	3167	01:27:24:07	 	36.82732	-122.16862	2388504	1.11	00:09.0	Ventana	34.162	01:29:16:10	6.992	Echinoidea	Strongylocentrotidae	Allocentrotus			Animalia	Echinoida	Echinodermata	Allocentrotus fragilis	Euechinoidea			Echinacea				Eukaryota		V3167-02
 	transect	Rathbunaster californicus	309.6	3167	01:35:20:08	 	36.82691	-122.167946	2390262	1.08	08:05.0	Ventana	34.163	01:37:12:07	6.95		Labidiasteridae	Rathbunaster			Animalia	Forcipulatida	Echinodermata	Rathbunaster californicus	Asteroidea							Eukaryota		V3167-02
 	transect	Allocentrotus fragilis	309.02	3167	01:33:55:25	 	36.82742	-122.167694	2389886	1.08	06:41.0	Ventana	34.165	01:35:47:27	6.927	Echinoidea	Strongylocentrotidae	Allocentrotus			Animalia	Echinoida	Echinodermata	Allocentrotus fragilis	Euechinoidea			Echinacea				Eukaryota		V3167-02
 	transect	Allocentrotus fragilis	305.09	3167	01:27:32:07	 	36.827362	-122.168594	2388557	1.11	00:17.0	Ventana	34.162	01:29:22:20	6.992	Echinoidea	Strongylocentrotidae	Allocentrotus			Animalia	Echinoida	Echinodermata	Allocentrotus fragilis	Euechinoidea			Echinacea				Eukaryota		V3167-02
 	transect	Rathbunaster californicus	319.56	3167	00:19:02:13	 	36.824368	-122.169785	2462364	1.13	51:22.0	Ventana	34.16	00:20:57:23	7.011		Labidiasteridae	Rathbunaster			Animalia	Forcipulatida	Echinodermata	Rathbunaster californicus	Asteroidea							Eukaryota		V3167-01
 	transect	Liponema brevicornis	319.47	3167	00:38:03:09	http://search.mbari.org/ARCHIVE/frameGrabs/Ventana/images/3167/00_39_59_13.jpg	36.824917	-122.17014	2463026	1.15	10:24.0	Ventana	34.155	00:39:59:13	7.058	Anthozoa	Liponematidae	Liponema			Animalia	Actiniaria	Cnidaria	Liponema brevicornis	Hexacorallia			Nyantheae				Eukaryota		V3167-01
 	transect	Rathbunaster californicus	313.26	3167	01:18:44:08	 	36.825783	-122.168625	2371177	1.11	51:28.0	Ventana	34.161	01:20:35:01	6.99		Labidiasteridae	Rathbunaster			Animalia	Forcipulatida	Echinodermata	Rathbunaster californicus	Asteroidea							Eukaryota		V3167-02
 	transect	Allocentrotus fragilis	305.18	3167	01:27:42:07	http://search.mbari.org/ARCHIVE/frameGrabs/Ventana/images/3167/01_29_34_26.jpg	36.827415	-122.168564	2388587	1.12	00:27.0	Ventana	34.159	01:29:34:26	7.026	Echinoidea	Strongylocentrotidae	Allocentrotus			Animalia	Echinoida	Echinodermata	Allocentrotus fragilis	Euechinoidea			Echinacea				Eukaryota		V3167-02
 	transect	Allocentrotus fragilis	313.23	3167	01:18:15:24	 	36.825924	-122.168465	2371087	1.08	51:00.0	Ventana	34.161	01:20:08:05	6.953	Echinoidea	Strongylocentrotidae	Allocentrotus			Animalia	Echinoida	Echinodermata	Allocentrotus fragilis	Euechinoidea			Echinacea				Eukaryota		V3167-02
 	transect	Sebastes	305.19	3167	01:27:22:08	 	36.82731	-122.168625	2388474	1.1	00:07.0	Ventana	34.163	01:29:12:16	6.962	Osteichthyes	Scorpaenidae	Sebastes	Neopterygii		Animalia	Scorpaeniformes	Chordata		Actinopterygii			Scorpaenoidei	Vertebrata	Gnathostomata		Eukaryota	Acanthopterygii	V3167-02
 	transect	Rathbunaster californicus	308.88	3167	01:32:59:27	 	36.827705	-122.16764	2389623	1.08	05:44.0	Ventana	34.165	01:34:51:16	6.927		Labidiasteridae	Rathbunaster			Animalia	Forcipulatida	Echinodermata	Rathbunaster californicus	Asteroidea							Eukaryota		V3167-02
 	cruise	Sebastes diploproa	308.93	3167	01:52:26:22	 	36.83027	-122.166885	2465504	1.09	25:12.0	Ventana	34.164	01:54:18:19	6.96	Osteichthyes	Scorpaenidae	Sebastes	Neopterygii		Animalia	Scorpaeniformes	Chordata	Sebastes diploproa	Actinopterygii			Scorpaenoidei	Vertebrata	Gnathostomata		Eukaryota	Acanthopterygii	V3167-02
 	transect	Sebastes	308.62	3167	01:34:13:25	http://search.mbari.org/ARCHIVE/frameGrabs/Ventana/images/3167/01_36_06_06.jpg	36.827305	-122.167725	2389999	1.08	06:59.0	Ventana	34.165	01:36:06:06	6.933	Osteichthyes	Scorpaenidae	Sebastes	Neopterygii		Animalia	Scorpaeniformes	Chordata		Actinopterygii			Scorpaenoidei	Vertebrata	Gnathostomata		Eukaryota	Acanthopterygii	V3167-02
 	transect	Allocentrotus fragilis	303.73	3167	01:29:00:19	 	36.82776	-122.168365	2388901	1.09	01:45.0	Ventana	34.163	01:30:52:17	6.964	Echinoidea	Strongylocentrotidae	Allocentrotus			Animalia	Echinoida	Echinodermata	Allocentrotus fragilis	Euechinoidea			Echinacea				Eukaryota		V3167-02
 	transect	Sebastes	305.36	3167	01:27:18:07	http://search.mbari.org/ARCHIVE/frameGrabs/Ventana/images/3167/01_29_09_12.jpg	36.82729	-122.16863	2388444	1.1	00:03.0	Ventana	34.163	01:29:09:12	6.962	Osteichthyes	Scorpaenidae	Sebastes	Neopterygii		Animalia	Scorpaeniformes	Chordata		Actinopterygii			Scorpaenoidei	Vertebrata	Gnathostomata		Eukaryota	Acanthopterygii	V3167-02
 	transect	Rathbunaster californicus	308.41	3167	01:33:09:27	 	36.827675	-122.16765	2389653	1.08	05:54.0	Ventana	34.166	01:35:00:05	6.926		Labidiasteridae	Rathbunaster			Animalia	Forcipulatida	Echinodermata	Rathbunaster californicus	Asteroidea							Eukaryota		V3167-02
 	cruise	Stylasterias forreri	294.78	3167	01:59:08:28	 	36.83215	-122.16523	2467698	1.13	32:21.0	Ventana	34.16	02:00:51:12	7.024		Asteriidae	Stylasterias			Animalia	Forcipulatida	Echinodermata	Stylasterias forreri	Asteroidea							Eukaryota		V3167-03
 	cruise	Allocentrotus fragilis	203.4	3167	02:16:41:10	 	36.836018	-122.160164	2467871	1.89	49:54.0	Ventana	34.075	02:18:23:18	8.333	Echinoidea	Strongylocentrotidae	Allocentrotus			Animalia	Echinoida	Echinodermata	Allocentrotus fragilis	Euechinoidea			Echinacea				Eukaryota		V3167-03
 	cruise	Hydrolagus colliei	303.06	3167	01:31:21:15	 	36.82794	-122.16794	2389480	1.09	04:06.0	Ventana	34.164	01:33:12:27	6.949	Chondrichthyes	Chimaeridae	Hydrolagus			Animalia	Chimaeriformes	Chordata	Hydrolagus colliei	Holocephali			Chimaeroidei	Vertebrata			Eukaryota	Holocephalimorpha	V3167-02
 	transect	Rathbunaster californicus	314.7	3167	01:23:15:15	 	36.82603	-122.16932	2371837	1.07	55:59.0	Ventana	34.165	01:25:06:20	6.923		Labidiasteridae	Rathbunaster			Animalia	Forcipulatida	Echinodermata	Rathbunaster californicus	Asteroidea							Eukaryota		V3167-02
 	transect	Sebastes	309.48	3167	01:25:19:26	 	36.82673	-122.16895	2372762	1.11	58:04.0	Ventana	34.161	01:27:11:20	7.022	Osteichthyes	Scorpaenidae	Sebastes	Neopterygii		Animalia	Scorpaeniformes	Chordata		Actinopterygii			Scorpaenoidei	Vertebrata	Gnathostomata		Eukaryota	Acanthopterygii	V3167-02
 	transect	Allocentrotus fragilis	305.49	3167	01:27:16:08	 	36.82728	-122.16864	2388414	1.1	00:01.0	Ventana	34.163	01:29:07:00	6.962	Echinoidea	Strongylocentrotidae	Allocentrotus			Animalia	Echinoida	Echinodermata	Allocentrotus fragilis	Euechinoidea			Echinacea				Eukaryota		V3167-02
 	transect	Allocentrotus fragilis	306.58	3167	01:26:42:09	 	36.827103	-122.16873	2388271	1.12	59:26.0	Ventana	34.164	01:28:33:08	6.991	Echinoidea	Strongylocentrotidae	Allocentrotus			Animalia	Echinoida	Echinodermata	Allocentrotus fragilis	Euechinoidea			Echinacea				Eukaryota		V3167-02
 	cruise	Parastichopus leukothele	299.01	3167	01:57:27:28	 	36.831715	-122.16565	2465534	1.1	30:14.0	Ventana	34.162	01:59:19:03	6.981	Holothuroidea	Stichopodidae	Parastichopus			Animalia	Aspidochirotida	Echinodermata	Parastichopus leukothele	Aspidochirotacea							Eukaryota		V3167-02
 	transect	Rathbunaster californicus	309.07	3167	01:34:19:25	 	36.827267	-122.16774	2390029	1.08	07:05.0	Ventana	34.165	01:36:12:00	6.933		Labidiasteridae	Rathbunaster			Animalia	Forcipulatida	Echinodermata	Rathbunaster californicus	Asteroidea							Eukaryota		V3167-02
 	transect	Phyllospadix	167.07	3167	02:24:28:26	 	36.83694	-122.15834	2467149	2.55	57:42.0	Ventana	33.957	02:26:11:22	9.187		Zosteraceae	Phyllospadix			Plantae	Najadales										Eukaryota		V3167-03
 	cruise	Lycodes cortezianus	284.71	3167	02:02:25:21	 	36.832993	-122.164406	2467728	1.14	35:38.0	Ventana	34.158	02:04:08:11	7.049	Osteichthyes	Zoarcidae	Lycodes	Neopterygii		Animalia	Perciformes	Chordata	Lycodes cortezianus	Actinopterygii			Zoarcoidei	Vertebrata	Gnathostomata		Eukaryota	Acanthopterygii	V3167-03
 	cruise	Florometra serratissima	134.53	3167	02:50:19:08	 	36.838463	-122.15402	2467555	3	23:34.0	Ventana	33.841	02:52:03:01	9.749	Crinoidea	Antedonidae	Florometra			Animalia	Comatulidina	Echinodermata	Florometra serratissima							Antedonacea	Eukaryota		V3167-03
 	transect	Rathbunaster californicus	309.28	3167	01:34:30:09	 	36.827206	-122.16777	2390059	1.08	07:15.0	Ventana	34.165	01:36:21:21	6.927		Labidiasteridae	Rathbunaster			Animalia	Forcipulatida	Echinodermata	Rathbunaster californicus	Asteroidea							Eukaryota		V3167-02
 	cruise	cable	337.51	3167	00:05:55:08	http://search.mbari.org/ARCHIVE/frameGrabs/Ventana/images/3167/00_07_50_09.jpg	36.82108	-122.171165	2462020	1.11	38:14.0	Ventana	34.16	00:07:50:09	6.946																			V3167-01
 	cruise	Pleurobranchaea californica	173.76	3167	02:21:02:02	 	36.836777	-122.158844	2466976	2.37	54:15.0	Ventana	33.981	02:22:44:08	8.992	Gastropoda	Pleurobranchidae	Pleurobranchaea			Animalia	Notaspidea	Mollusca	Pleurobranchaea californica	Opisthobranchia						Pleurobranchiacea	Eukaryota		V3167-03
 	transect	Stomphia	314.83	3167	01:23:07:15	 	36.825974	-122.16934	2371807	1.07	55:51.0	Ventana	34.165	01:24:59:06	6.926	Anthozoa	Actinostolidae	Stomphia			Animalia	Actiniaria	Cnidaria		Hexacorallia			Nyantheae				Eukaryota		V3167-02
 	transect	Parastichopus leukothele	308.91	3167	01:33:51:26	 	36.827446	-122.16769	2389856	1.07	06:37.0	Ventana	34.166	01:35:43:19	6.926	Holothuroidea	Stichopodidae	Parastichopus			Animalia	Aspidochirotida	Echinodermata	Parastichopus leukothele	Aspidochirotacea							Eukaryota		V3167-02
 	transect	Allocentrotus fragilis	305.08	3167	01:27:54:21	 	36.827473	-122.16853	2388617	1.16	00:39.0	Ventana	34.154	01:29:46:22	7.099	Echinoidea	Strongylocentrotidae	Allocentrotus			Animalia	Echinoida	Echinodermata	Allocentrotus fragilis	Euechinoidea			Echinacea				Eukaryota		V3167-02
 	transect	Allocentrotus fragilis	310.04	3167	01:24:57:27	 	36.82662	-122.16902	2372732	1.09	57:42.0	Ventana	34.165	01:26:49:26	6.968	Echinoidea	Strongylocentrotidae	Allocentrotus			Animalia	Echinoida	Echinodermata	Allocentrotus fragilis	Euechinoidea			Echinacea				Eukaryota		V3167-02
 	transect	Rathbunaster californicus	316.08	3167	01:22:17:02	 	36.82569	-122.16947	2371634	1.09	55:01.0	Ventana	34.163	01:24:08:15	6.958		Labidiasteridae	Rathbunaster			Animalia	Forcipulatida	Echinodermata	Rathbunaster californicus	Asteroidea							Eukaryota		V3167-02
 	transect	Ceriantharia	168.57	3167	02:33:51:08	 	36.83733	-122.158966	2467352	2.67	07:05.0	Ventana	33.94	02:35:34:06	9.329	Anthozoa					Animalia	Ceriantharia	Cnidaria		Ceriantipatharia							Eukaryota		V3167-03
 	transect	Parastichopus leukothele	309.63	3167	01:35:14:08	 	36.826935	-122.16792	2390232	1.08	07:59.0	Ventana	34.163	01:37:06:09	6.95	Holothuroidea	Stichopodidae	Parastichopus			Animalia	Aspidochirotida	Echinodermata	Parastichopus leukothele	Aspidochirotacea							Eukaryota		V3167-02
 	transect	Parastichopus leukothele	316.7	3167	01:21:57:03	 	36.825592	-122.1695	2371581	1.09	54:41.0	Ventana	34.164	01:23:48:28	6.958	Holothuroidea	Stichopodidae	Parastichopus			Animalia	Aspidochirotida	Echinodermata	Parastichopus leukothele	Aspidochirotacea							Eukaryota		V3167-02
 	transect	Sebastes	309.17	3167	01:34:28:09	 	36.827217	-122.16776	2390050	1.08	07:13.0	Ventana	34.165	01:36:19:18	6.927	Osteichthyes	Scorpaenidae	Sebastes	Neopterygii		Animalia	Scorpaeniformes	Chordata		Actinopterygii			Scorpaenoidei	Vertebrata	Gnathostomata		Eukaryota	Acanthopterygii	V3167-02
 	transect	Glyptocephalus zachirus	321.75	3167	00:45:36:25	http://search.mbari.org/ARCHIVE/frameGrabs/Ventana/images/3167/00_47_34_00.jpg	36.824825	-122.17048	2463190	1.12	17:58.0	Ventana	34.16	00:47:34:00	7.02	Osteichthyes	Pleuronectidae	Glyptocephalus	Neopterygii		Animalia	Pleuronectiformes	Chordata		Actinopterygii				Vertebrata	Gnathostomata		Eukaryota	Acanthopterygii	V3167-01
 	cruise	Rathbunaster californicus	101.57	3167	04:07:25:08	 	36.850235	-122.12442	2471865	5.04	41:28.0	Ventana	33.481	04:08:59:25	11.29		Labidiasteridae	Rathbunaster			Animalia	Forcipulatida	Echinodermata	Rathbunaster californicus	Asteroidea							Eukaryota		V3167-05
 	cruise	Parastichopus leukothele	138.66	3167	02:47:56:28	 	36.838135	-122.1549	2467488	2.92	21:12.0	Ventana	33.865	02:49:40:02	9.635	Holothuroidea	Stichopodidae	Parastichopus			Animalia	Aspidochirotida	Echinodermata	Parastichopus leukothele	Aspidochirotacea							Eukaryota		V3167-03
 	cruise	Ceriantharia sp. 3	322.28	3167	01:04:02:20	http://search.mbari.org/ARCHIVE/frameGrabs/Ventana/images/3167/01_05_53_01.jpg	36.82416	-122.17029	2464371	1.14	36:46.0	Ventana	34.16	01:05:53:01	7.043	Anthozoa					Animalia	Ceriantharia	Cnidaria		Ceriantipatharia							Eukaryota		V3167-02
 	transect	Rathbunaster californicus	319.1	3167	00:24:33:18	 	36.824413	-122.1696	2462454	1.13	56:53.0	Ventana	34.163	00:26:29:13	7.013		Labidiasteridae	Rathbunaster			Animalia	Forcipulatida	Echinodermata	Rathbunaster californicus	Asteroidea							Eukaryota		V3167-01
 	cruise	Stylasterias forreri	164.95	3167	02:39:42:27	 	36.836998	-122.1582	2467428	2.77	12:57.0	Ventana	33.912	02:41:26:09	9.453		Asteriidae	Stylasterias			Animalia	Forcipulatida	Echinodermata	Stylasterias forreri	Asteroidea							Eukaryota		V3167-03
 	transect	Rathbunaster californicus	313.11	3167	01:17:39:25	 	36.826103	-122.16826	2370907	1.07	50:24.0	Ventana	34.166	01:19:30:05	6.913		Labidiasteridae	Rathbunaster			Animalia	Forcipulatida	Echinodermata	Rathbunaster californicus	Asteroidea							Eukaryota		V3167-02
 	transect	Stylasterias forreri	314.96	3167	01:19:14:07	 	36.82562	-122.16878	2371260	1.09	51:58.0	Ventana	34.161	01:21:05:14	6.971		Asteriidae	Stylasterias			Animalia	Forcipulatida	Echinodermata	Stylasterias forreri	Asteroidea							Eukaryota		V3167-02
 	transect	Allocentrotus fragilis	304.79	3167	01:28:24:20	 	36.827618	-122.16845	2388760	1.1	01:09.0	Ventana	34.162	01:30:15:04	6.963	Echinoidea	Strongylocentrotidae	Allocentrotus			Animalia	Echinoida	Echinodermata	Allocentrotus fragilis	Euechinoidea			Echinacea				Eukaryota		V3167-02
 	transect	Allocentrotus fragilis	306.09	3167	01:26:52:08	 	36.827156	-122.16871	2388317	1.12	59:37.0	Ventana	34.164	01:28:44:04	6.991	Echinoidea	Strongylocentrotidae	Allocentrotus			Animalia	Echinoida	Echinodermata	Allocentrotus fragilis	Euechinoidea			Echinacea				Eukaryota		V3167-02
 	transect	Allocentrotus fragilis	312.35	3167	01:16:55:27	 	36.826324	-122.16816	2370554	1.07	49:39.0	Ventana	34.166	01:18:46:25	6.915	Echinoidea	Strongylocentrotidae	Allocentrotus			Animalia	Echinoida	Echinodermata	Allocentrotus fragilis	Euechinoidea			Echinacea				Eukaryota		V3167-02
 	transect	Allocentrotus fragilis	312.91	3167	01:23:41:14	 	36.826183	-122.16925	2371934	1.08	56:26.0	Ventana	34.165	01:25:33:14	6.929	Echinoidea	Strongylocentrotidae	Allocentrotus			Animalia	Echinoida	Echinodermata	Allocentrotus fragilis	Euechinoidea			Echinacea				Eukaryota		V3167-02
 	transect	Allocentrotus fragilis	308.72	3167	01:25:37:25	 	36.826813	-122.1689	2372792	1.11	58:22.0	Ventana	34.161	01:27:29:08	6.98	Echinoidea	Strongylocentrotidae	Allocentrotus			Animalia	Echinoida	Echinodermata	Allocentrotus fragilis	Euechinoidea			Echinacea				Eukaryota		V3167-02
 	cruise	Parmaturus xaniurus	321.51	3167	00:16:13:18	 	36.824215	-122.170166	2462221	1.13	48:33.0	Ventana	34.159	00:18:09:27	7.001	Chondrichthyes	Scyliorhinidae	Parmaturus			Animalia	Carcharhiniformes	Chordata	Parmaturus xaniurus	Elasmobranchii				Vertebrata			Eukaryota	Galeomorphi	V3167-01
 	transect	Rathbunaster californicus	308.79	3167	01:32:55:12	 	36.827724	-122.16764	2389607	1.08	05:40.0	Ventana	34.165	01:34:48:01	6.927		Labidiasteridae	Rathbunaster			Animalia	Forcipulatida	Echinodermata	Rathbunaster californicus	Asteroidea							Eukaryota		V3167-02
 	transect	Rathbunaster californicus	313.13	3167	01:18:05:25	 	36.825977	-122.168396	2371057	1.07	50:50.0	Ventana	34.165	01:19:58:09	6.914		Labidiasteridae	Rathbunaster			Animalia	Forcipulatida	Echinodermata	Rathbunaster californicus	Asteroidea							Eukaryota		V3167-02
 	transect	Allocentrotus fragilis	314.41	3167	01:19:02:08	 	36.825684	-122.16872	2371230	1.1	51:46.0	Ventana	34.163	01:20:53:04	6.956	Echinoidea	Strongylocentrotidae	Allocentrotus			Animalia	Echinoida	Echinodermata	Allocentrotus fragilis	Euechinoidea			Echinacea				Eukaryota		V3167-02
 	transect	Rathbunaster californicus	316.03	3167	01:22:27:02	 	36.825745	-122.16945	2371671	1.08	55:11.0	Ventana	34.164	01:24:18:07	6.938		Labidiasteridae	Rathbunaster			Animalia	Forcipulatida	Echinodermata	Rathbunaster californicus	Asteroidea							Eukaryota		V3167-02
 	transect	Rathbunaster californicus	309.24	3167	01:34:44:09	 	36.82711	-122.16781	2390110	1.08	07:29.0	Ventana	34.165	01:36:35:11	6.933		Labidiasteridae	Rathbunaster			Animalia	Forcipulatida	Echinodermata	Rathbunaster californicus	Asteroidea							Eukaryota		V3167-02
 	transect	Rathbunaster californicus	319.36	3167	00:19:20:12	 	36.82438	-122.16973	2462394	1.14	51:40.0	Ventana	34.158	00:21:16:04	7.025		Labidiasteridae	Rathbunaster			Animalia	Forcipulatida	Echinodermata	Rathbunaster californicus	Asteroidea							Eukaryota		V3167-01
 	cruise	Parastichopus leukothele	314.19	3167	01:10:09:24	 	36.826096	-122.16935	2464574	1.1	42:53.0	Ventana	34.164	01:12:01:20	6.977	Holothuroidea	Stichopodidae	Parastichopus			Animalia	Aspidochirotida	Echinodermata	Parastichopus leukothele	Aspidochirotacea							Eukaryota		V3167-02
 	transect	Sebastes	308.9	3167	01:34:07:25	 	36.827343	-122.16771	2389960	1.08	06:53.0	Ventana	34.165	01:35:58:22	6.933	Osteichthyes	Scorpaenidae	Sebastes	Neopterygii		Animalia	Scorpaeniformes	Chordata		Actinopterygii			Scorpaenoidei	Vertebrata	Gnathostomata		Eukaryota	Acanthopterygii	V3167-02
 	transect	Rathbunaster californicus	322.69	3167	00:57:57:02	 	36.82408	-122.17038	2464221	1.15	30:40.0	Ventana	34.157	00:59:49:04	7.058		Labidiasteridae	Rathbunaster			Animalia	Forcipulatida	Echinodermata	Rathbunaster californicus	Asteroidea							Eukaryota		V3167-02
 	transect	Allocentrotus fragilis	306.83	3167	01:26:36:09	 	36.827076	-122.16875	2372995	1.17	59:20.0	Ventana	34.157	01:28:28:07	7.079	Echinoidea	Strongylocentrotidae	Allocentrotus			Animalia	Echinoida	Echinodermata	Allocentrotus fragilis	Euechinoidea			Echinacea				Eukaryota		V3167-02
 	transect	Rathbunaster californicus	314.43	3167	01:23:25:15	 	36.826084	-122.1693	2371874	1.07	56:09.0	Ventana	34.166	01:25:16:08	6.924		Labidiasteridae	Rathbunaster			Animalia	Forcipulatida	Echinodermata	Rathbunaster californicus	Asteroidea							Eukaryota		V3167-02
 	cruise	Parastichopus leukothele	117.34	3167	03:05:59:08	 	36.841244	-122.1471	2468335	3.58	39:37.0	Ventana	33.725	03:07:40:04	10.417	Holothuroidea	Stichopodidae	Parastichopus			Animalia	Aspidochirotida	Echinodermata	Parastichopus leukothele	Aspidochirotacea							Eukaryota		V3167-04
 	cruise	Stylasterias forreri	331.57	3167	00:09:44:15	 	36.822296	-122.17074	2462133	1.11	42:03.0	Ventana	34.162	00:11:40:14	6.948		Asteriidae	Stylasterias			Animalia	Forcipulatida	Echinodermata	Stylasterias forreri	Asteroidea							Eukaryota		V3167-01
 	transect	Agonidae	315.77	3167	01:22:37:01	 	36.8258	-122.16942	2371701	1.08	55:21.0	Ventana	34.164	01:24:29:02	6.938	Osteichthyes	Agonidae		Neopterygii		Animalia	Scorpaeniformes	Chordata		Actinopterygii				Vertebrata	Gnathostomata		Eukaryota	Acanthopterygii	V3167-02
 	cruise	Hippasteria	334.91	3167	00:07:53:19	 	36.82175	-122.17097	2462103	1.11	40:12.0	Ventana	34.16	00:09:50:24	6.958		Goniasteridae	Hippasteria			Animalia	Valvatida	Echinodermata		Asteroidea			Granulosina				Eukaryota		V3167-01
 	transect	Rathbunaster californicus	308.83	3167	01:33:27:26	 	36.82759	-122.16766	2389727	1.08	06:13.0	Ventana	34.166	01:35:18:22	6.925		Labidiasteridae	Rathbunaster			Animalia	Forcipulatida	Echinodermata	Rathbunaster californicus	Asteroidea							Eukaryota		V3167-02
 	transect	Allocentrotus fragilis	305.86	3167	01:27:04:08	 	36.827217	-122.16867	2388347	1.1	59:49.0	Ventana	34.164	01:28:55:20	6.964	Echinoidea	Strongylocentrotidae	Allocentrotus			Animalia	Echinoida	Echinodermata	Allocentrotus fragilis	Euechinoidea			Echinacea				Eukaryota		V3167-02
 	transect	Rathbunaster californicus	318.54	3167	00:35:44:13	 	36.82488	-122.16964	2462957	1.13	08:05.0	Ventana	34.16	00:37:41:10	7.019		Labidiasteridae	Rathbunaster			Animalia	Forcipulatida	Echinodermata	Rathbunaster californicus	Asteroidea							Eukaryota		V3167-01
 	transect	Allocentrotus fragilis	311.53	3167	01:24:09:13	 	36.826347	-122.169174	2372054	1.08	56:54.0	Ventana	34.164	01:26:00:26	6.927	Echinoidea	Strongylocentrotidae	Allocentrotus			Animalia	Echinoida	Echinodermata	Allocentrotus fragilis	Euechinoidea			Echinacea				Eukaryota		V3167-02
 	transect	Allocentrotus fragilis	302.96	3167	01:29:41:03	 	36.82791	-122.16827	2389021	1.11	02:25.0	Ventana	34.163	01:31:32:12	6.985	Echinoidea	Strongylocentrotidae	Allocentrotus			Animalia	Echinoida	Echinodermata	Allocentrotus fragilis	Euechinoidea			Echinacea				Eukaryota		V3167-02
 	cruise	Sebastes	341.27	3167	00:04:12:26	 	36.820526	-122.17127	2459570	1.11	36:31.0	Ventana	34.161	00:06:09:06	6.932	Osteichthyes	Scorpaenidae	Sebastes	Neopterygii		Animalia	Scorpaeniformes	Chordata		Actinopterygii			Scorpaenoidei	Vertebrata	Gnathostomata		Eukaryota	Acanthopterygii	V3167-01
 	transect	Rathbunaster californicus	315.82	3167	01:19:34:07	 	36.825512	-122.16888	2371348	1.09	52:18.0	Ventana	34.163	01:21:26:05	6.954		Labidiasteridae	Rathbunaster			Animalia	Forcipulatida	Echinodermata	Rathbunaster californicus	Asteroidea							Eukaryota		V3167-02
 	transect	Allocentrotus fragilis	308.74	3167	01:34:01:25	 	36.82738	-122.1677	2389930	1.08	06:47.0	Ventana	34.165	01:35:52:07	6.927	Echinoidea	Strongylocentrotidae	Allocentrotus			Animalia	Echinoida	Echinodermata	Allocentrotus fragilis	Euechinoidea			Echinacea				Eukaryota		V3167-02
 	transect	Stylasterias forreri	322.48	3167	00:58:39:15	 	36.823982	-122.17028	2464251	1.15	31:22.0	Ventana	34.157	01:00:31:01	7.051		Asteriidae	Stylasterias			Animalia	Forcipulatida	Echinodermata	Stylasterias forreri	Asteroidea							Eukaryota		V3167-02
 	transect	Rathbunaster californicus	309.57	3167	01:35:12:08	 	36.826946	-122.167915	2390223	1.08	07:57.0	Ventana	34.163	01:37:03:18	6.95		Labidiasteridae	Rathbunaster			Animalia	Forcipulatida	Echinodermata	Rathbunaster californicus	Asteroidea							Eukaryota		V3167-02
 	transect	Rathbunaster californicus	308.92	3167	01:33:49:25	 	36.827457	-122.16768	2389847	1.07	06:35.0	Ventana	34.166	01:35:40:24	6.926		Labidiasteridae	Rathbunaster			Animalia	Forcipulatida	Echinodermata	Rathbunaster californicus	Asteroidea							Eukaryota		V3167-02
 	transect	Rathbunaster californicus	314.89	3167	01:22:53:01	 	36.825893	-122.16938	2371754	1.08	55:37.0	Ventana	34.166	01:24:44:13	6.927		Labidiasteridae	Rathbunaster			Animalia	Forcipulatida	Echinodermata	Rathbunaster californicus	Asteroidea							Eukaryota		V3167-02
 	transect	Allocentrotus fragilis	305.2	3167	01:27:40:07	 	36.827404	-122.16857	2388580	1.12	00:25.0	Ventana	34.159	01:29:32:04	7.026	Echinoidea	Strongylocentrotidae	Allocentrotus			Animalia	Echinoida	Echinodermata	Allocentrotus fragilis	Euechinoidea			Echinacea				Eukaryota		V3167-02
 	transect	Laminariales	158.87	3167	02:27:01:21	 	36.83711	-122.15789	2467278	2.73	00:15.0	Ventana	33.926	02:28:45:05	9.403	Phaeophyceae					Chromista	Laminariales	Phaeophycophyta									Eukaryota		V3167-03
 	cruise	Rathbunaster californicus	108.39	3167	03:41:46:02	 	36.84507	-122.13584	2471016	4.71	15:26.0	Ventana	33.527	03:43:25:24	11.172		Labidiasteridae	Rathbunaster			Animalia	Forcipulatida	Echinodermata	Rathbunaster californicus	Asteroidea							Eukaryota		V3167-04
 	transect	Sabellida	318.38	3167	00:37:00:25	 	36.824894	-122.169914	2462987	1.16	09:21.0	Ventana	34.157	00:38:56:20	7.067	Polychaeta					Animalia	Sabellida	Annelida		Palpata							Eukaryota	Canalipalpata	V3167-01
 	transect	Parastichopus leukothele	313.13	3167	01:18:40:09	 	36.8258	-122.1686	2371170	1.11	51:24.0	Ventana	34.161	01:20:32:03	6.99	Holothuroidea	Stichopodidae	Parastichopus			Animalia	Aspidochirotida	Echinodermata	Parastichopus leukothele	Aspidochirotacea							Eukaryota		V3167-02
 	transect	Rathbunaster californicus	314.73	3167	01:23:01:01	 	36.82594	-122.16936	2371784	1.07	55:45.0	Ventana	34.165	01:24:53:06	6.926		Labidiasteridae	Rathbunaster			Animalia	Forcipulatida	Echinodermata	Rathbunaster californicus	Asteroidea							Eukaryota		V3167-02
 	transect	Sebastes	307.15	3167	01:26:13:25	 	36.82697	-122.16881	2372852	1.22	58:58.0	Ventana	34.147	01:28:05:16	7.163	Osteichthyes	Scorpaenidae	Sebastes	Neopterygii		Animalia	Scorpaeniformes	Chordata		Actinopterygii			Scorpaenoidei	Vertebrata	Gnathostomata		Eukaryota	Acanthopterygii	V3167-02
 	transect	Hippasteria	322.97	3167	00:54:11:08	 	36.824303	-122.17054	2463393	1.17	26:32.0	Ventana	34.155	00:56:06:12	7.09		Goniasteridae	Hippasteria			Animalia	Valvatida	Echinodermata		Asteroidea			Granulosina				Eukaryota		V3167-01
 	transect	Rathbunaster californicus	316.65	3167	01:19:52:07	 	36.82543	-122.168976	2371378	1.08	52:36.0	Ventana	34.166	01:21:43:23	6.929		Labidiasteridae	Rathbunaster			Animalia	Forcipulatida	Echinodermata	Rathbunaster californicus	Asteroidea							Eukaryota		V3167-02
 	transect	Rathbunaster californicus	313	3167	01:17:19:26	 	36.8262	-122.16818	2370794	1.07	50:04.0	Ventana	34.165	01:19:11:07	6.914		Labidiasteridae	Rathbunaster			Animalia	Forcipulatida	Echinodermata	Rathbunaster californicus	Asteroidea							Eukaryota		V3167-02
 	cruise	Pleuronectiformes	207.69	3167	02:15:50:27	 	36.83587	-122.16039	2466902	1.83	49:04.0	Ventana	34.08	02:17:32:27	8.247	Osteichthyes			Neopterygii		Animalia	Pleuronectiformes	Chordata		Actinopterygii				Vertebrata	Gnathostomata		Eukaryota	Acanthopterygii	V3167-03
 	transect	Rathbunaster californicus	311.33	3167	01:24:15:13	 	36.82638	-122.16916	2372084	1.08	57:00.0	Ventana	34.164	01:26:07:08	6.927		Labidiasteridae	Rathbunaster			Animalia	Forcipulatida	Echinodermata	Rathbunaster californicus	Asteroidea							Eukaryota		V3167-02
 	transect	Rathbunaster californicus	319.31	3167	00:37:57:09	 	36.824913	-122.17012	2463017	1.16	10:17.0	Ventana	34.156	00:39:52:08	7.069		Labidiasteridae	Rathbunaster			Animalia	Forcipulatida	Echinodermata	Rathbunaster californicus	Asteroidea							Eukaryota		V3167-01
 	transect	Allocentrotus fragilis	305.08	3167	01:27:52:22	 	36.827465	-122.16854	2388610	1.12	00:37.0	Ventana	34.159	01:29:44:02	7.026	Echinoidea	Strongylocentrotidae	Allocentrotus			Animalia	Echinoida	Echinodermata	Allocentrotus fragilis	Euechinoidea			Echinacea				Eukaryota		V3167-02
 	transect	Rathbunaster californicus	309.64	3167	01:35:18:08	 	36.826916	-122.16794	2390253	1.08	08:03.0	Ventana	34.163	01:37:09:23	6.95		Labidiasteridae	Rathbunaster			Animalia	Forcipulatida	Echinodermata	Rathbunaster californicus	Asteroidea							Eukaryota		V3167-02
 	transect	Parastichopus leukothele	309.48	3167	01:25:11:27	 	36.82669	-122.168976	2372753	1.11	57:56.0	Ventana	34.161	01:27:03:25	7.022	Holothuroidea	Stichopodidae	Parastichopus			Animalia	Aspidochirotida	Echinodermata	Parastichopus leukothele	Aspidochirotacea							Eukaryota		V3167-02
 	transect	Rathbunaster californicus	310.92	3167	01:24:23:13	 	36.826427	-122.169136	2372114	1.08	57:08.0	Ventana	34.165	01:26:16:02	6.93		Labidiasteridae	Rathbunaster			Animalia	Forcipulatida	Echinodermata	Rathbunaster californicus	Asteroidea							Eukaryota		V3167-02
 	transect	Sebastes	305.16	3167	01:27:24:07	 	36.82732	-122.16862	2388497	1.11	00:09.0	Ventana	34.162	01:29:16:10	6.992	Osteichthyes	Scorpaenidae	Sebastes	Neopterygii		Animalia	Scorpaeniformes	Chordata		Actinopterygii			Scorpaenoidei	Vertebrata	Gnathostomata		Eukaryota	Acanthopterygii	V3167-02
 	cruise	Agonidae	315.56	3167	01:08:47:27	 	36.82576	-122.169495	2464551	1.11	41:31.0	Ventana	34.16	01:10:39:04	6.996	Osteichthyes	Agonidae		Neopterygii		Animalia	Scorpaeniformes	Chordata		Actinopterygii				Vertebrata	Gnathostomata		Eukaryota	Acanthopterygii	V3167-02
 	transect	Rathbunaster californicus	310.28	3167	01:15:49:14	 	36.826626	-122.16825	2370464	1.07	48:33.0	Ventana	34.166	01:17:41:16	6.923		Labidiasteridae	Rathbunaster			Animalia	Forcipulatida	Echinodermata	Rathbunaster californicus	Asteroidea							Eukaryota		V3167-02
 	cruise	sediment	110.05	3167	03:18:08:16	http://search.mbari.org/ARCHIVE/frameGrabs/Ventana/images/3167/03_19_49_12.jpg	36.842514	-122.14077	2468628	4.82	51:47.0	Ventana	33.523	03:19:49:12	11.204																			V3167-04
 	transect	Rathbunaster californicus	308.85	3167	01:33:39:26	 	36.827522	-122.16767	2389787	1.07	06:25.0	Ventana	34.166	01:35:31:28	6.926		Labidiasteridae	Rathbunaster			Animalia	Forcipulatida	Echinodermata	Rathbunaster californicus	Asteroidea							Eukaryota		V3167-02
 	transect	Phyllospadix	161.1	3167	02:26:29:22	 	36.837055	-122.15798	2467248	2.64	59:43.0	Ventana	33.939	02:28:13:05	9.321		Zosteraceae	Phyllospadix			Plantae	Najadales										Eukaryota		V3167-03
 	transect	Sebastes diploproa	314.72	3167	01:23:17:15	 	36.82604	-122.16931	2371844	1.07	56:01.0	Ventana	34.165	01:25:09:13	6.923	Osteichthyes	Scorpaenidae	Sebastes	Neopterygii		Animalia	Scorpaeniformes	Chordata	Sebastes diploproa	Actinopterygii			Scorpaenoidei	Vertebrata	Gnathostomata		Eukaryota	Acanthopterygii	V3167-02
 	cruise	Lycodes cortezianus	297.95	3167	01:57:55:27	 	36.831825	-122.165535	2465541	1.11	30:42.0	Ventana	34.16	01:59:47:09	7.004	Osteichthyes	Zoarcidae	Lycodes	Neopterygii		Animalia	Perciformes	Chordata	Lycodes cortezianus	Actinopterygii			Zoarcoidei	Vertebrata	Gnathostomata		Eukaryota	Acanthopterygii	V3167-02
 	transect	Agonidae	304.26	3167	01:28:46:20	 	36.827705	-122.168396	2388843	1.09	01:31.0	Ventana	34.165	01:30:38:06	6.947	Osteichthyes	Agonidae		Neopterygii		Animalia	Scorpaeniformes	Chordata		Actinopterygii				Vertebrata	Gnathostomata		Eukaryota	Acanthopterygii	V3167-02
 	transect	Allocentrotus fragilis	306.4	3167	01:26:48:09	 	36.827133	-122.16872	2388294	1.12	59:32.0	Ventana	34.164	01:28:40:14	6.991	Echinoidea	Strongylocentrotidae	Allocentrotus			Animalia	Echinoida	Echinodermata	Allocentrotus fragilis	Euechinoidea			Echinacea				Eukaryota		V3167-02
 	transect	Phyllospadix	162.62	3167	02:25:59:08	 	36.837013	-122.15808	2467218	2.65	59:13.0	Ventana	33.938	02:27:42:02	9.314		Zosteraceae	Phyllospadix			Plantae	Najadales										Eukaryota		V3167-03
 	transect	Sebastes	306.94	3167	01:26:24:09	 	36.82701	-122.168785	2372942	1.17	59:08.0	Ventana	34.157	01:28:15:00	7.079	Osteichthyes	Scorpaenidae	Sebastes	Neopterygii		Animalia	Scorpaeniformes	Chordata		Actinopterygii			Scorpaenoidei	Vertebrata	Gnathostomata		Eukaryota	Acanthopterygii	V3167-02
 	transect	Rathbunaster californicus	316.08	3167	01:22:17:02	 	36.82569	-122.16947	2371641	1.09	55:01.0	Ventana	34.163	01:24:08:15	6.958		Labidiasteridae	Rathbunaster			Animalia	Forcipulatida	Echinodermata	Rathbunaster californicus	Asteroidea							Eukaryota		V3167-02
 	transect	Mediaster aequalis	171.45	3167	02:22:34:14	 	36.836857	-122.15865	2467045	2.42	55:48.0	Ventana	33.974	02:24:16:16	9.031		Goniasteridae	Mediaster			Animalia	Valvatida	Echinodermata	Mediaster aequalis	Asteroidea			Granulosina				Eukaryota		V3167-03
 	transect	Rathbunaster californicus	323.03	3167	00:48:55:18	 	36.824623	-122.170815	2463250	1.18	21:17.0	Ventana	34.153	00:50:51:21	7.112		Labidiasteridae	Rathbunaster			Animalia	Forcipulatida	Echinodermata	Rathbunaster californicus	Asteroidea							Eukaryota		V3167-01
 	transect	Parastichopus leukothele	311.83	3167	01:24:01:14	 	36.8263	-122.1692	2372017	1.07	56:46.0	Ventana	34.165	01:25:52:00	6.925	Holothuroidea	Stichopodidae	Parastichopus			Animalia	Aspidochirotida	Echinodermata	Parastichopus leukothele	Aspidochirotacea							Eukaryota		V3167-02
 	cruise	trench	99.03	3167	04:17:33:19	http://search.mbari.org/ARCHIVE/frameGrabs/Ventana/images/3167/04_19_08_25.jpg	36.85243	-122.11962	2471955	5.03	51:37.0	Ventana	33.482	04:19:08:25	11.286																			V3167-05
 	cruise	Raja rhina	308.27	3167	01:36:30:20	 	36.82677	-122.16839	2390758	1.08	09:15.0	Ventana	34.166	01:38:22:25	6.928	Chondrichthyes	Rajidae	Raja			Animalia	Rajiformes	Chordata	Raja rhina	Elasmobranchii				Vertebrata			Eukaryota	Batoidea	V3167-02
 	transect	Phyllospadix	166.96	3167	02:33:09:10	 	36.837334	-122.15884	2467345	2.69	06:23.0	Ventana	33.934	02:34:52:25	9.365		Zosteraceae	Phyllospadix			Plantae	Najadales										Eukaryota		V3167-03
 	cruise	Sebastes	303.51	3167	01:31:33:15	 	36.827915	-122.16787	2389487	1.08	04:18.0	Ventana	34.165	01:33:25:18	6.94	Osteichthyes	Scorpaenidae	Sebastes	Neopterygii		Animalia	Scorpaeniformes	Chordata		Actinopterygii			Scorpaenoidei	Vertebrata	Gnathostomata		Eukaryota	Acanthopterygii	V3167-02
 	transect	Rathbunaster californicus	311.93	3167	01:23:55:14	 	36.826267	-122.16921	2371987	1.07	56:40.0	Ventana	34.165	01:25:46:25	6.925		Labidiasteridae	Rathbunaster			Animalia	Forcipulatida	Echinodermata	Rathbunaster californicus	Asteroidea							Eukaryota		V3167-02
 	transect	Allocentrotus fragilis	308.92	3167	01:33:45:26	 	36.827484	-122.16767	2389817	1.07	06:31.0	Ventana	34.166	01:35:38:01	6.926	Echinoidea	Strongylocentrotidae	Allocentrotus			Animalia	Echinoida	Echinodermata	Allocentrotus fragilis	Euechinoidea			Echinacea				Eukaryota		V3167-02
 	transect	Rathbunaster californicus	321.58	3167	00:46:11:08	 	36.82488	-122.17062	2463220	1.13	18:32.0	Ventana	34.162	00:48:07:22	7.03		Labidiasteridae	Rathbunaster			Animalia	Forcipulatida	Echinodermata	Rathbunaster californicus	Asteroidea							Eukaryota		V3167-01
 	transect	Allocentrotus fragilis	303.28	3167	01:29:14:19	 	36.827816	-122.168335	2388938	1.12	01:59.0	Ventana	34.159	01:31:06:10	7.03	Echinoidea	Strongylocentrotidae	Allocentrotus			Animalia	Echinoida	Echinodermata	Allocentrotus fragilis	Euechinoidea			Echinacea				Eukaryota		V3167-02
 	transect	Rathbunaster californicus	319.95	3167	00:18:42:14	http://search.mbari.org/ARCHIVE/frameGrabs/Ventana/images/3167/00_20_37_17.jpg	36.82434	-122.16985	2462341	1.12	51:02.0	Ventana	34.162	00:20:37:17	6.992		Labidiasteridae	Rathbunaster			Animalia	Forcipulatida	Echinodermata	Rathbunaster californicus	Asteroidea							Eukaryota		V3167-01
 	transect	Rathbunaster californicus	309.5	3167	01:35:06:08	 	36.82698	-122.167885	2390193	1.08	07:51.0	Ventana	34.164	01:36:57:28	6.94		Labidiasteridae	Rathbunaster			Animalia	Forcipulatida	Echinodermata	Rathbunaster californicus	Asteroidea							Eukaryota		V3167-02
 	cruise	Agonidae	338.98	3167	00:05:15:09	 	36.82087	-122.1712	2462013	1.11	37:34.0	Ventana	34.16	00:07:11:04	6.939	Osteichthyes	Agonidae		Neopterygii		Animalia	Scorpaeniformes	Chordata		Actinopterygii				Vertebrata	Gnathostomata		Eukaryota	Acanthopterygii	V3167-01
 	transect	Parastichopus leukothele	316.34	3167	01:22:09:02	 	36.82565	-122.16949	2371611	1.09	54:53.0	Ventana	34.163	01:23:59:24	6.958	Holothuroidea	Stichopodidae	Parastichopus			Animalia	Aspidochirotida	Echinodermata	Parastichopus leukothele	Aspidochirotacea							Eukaryota		V3167-02
 	transect	Rathbunaster californicus	314.83	3167	01:23:07:15	 	36.825974	-122.16934	2371814	1.07	55:51.0	Ventana	34.165	01:24:59:06	6.926		Labidiasteridae	Rathbunaster			Animalia	Forcipulatida	Echinodermata	Rathbunaster californicus	Asteroidea							Eukaryota		V3167-02
 	transect	Sebastes	305.36	3167	01:27:18:07	http://search.mbari.org/ARCHIVE/frameGrabs/Ventana/images/3167/01_29_09_12.jpg	36.82729	-122.16863	2388437	1.1	00:03.0	Ventana	34.163	01:29:09:12	6.962	Osteichthyes	Scorpaenidae	Sebastes	Neopterygii		Animalia	Scorpaeniformes	Chordata		Actinopterygii			Scorpaenoidei	Vertebrata	Gnathostomata		Eukaryota	Acanthopterygii	V3167-02
 	transect	Florometra serratissima	173.03	3167	02:35:43:20	 	36.837193	-122.15919	2467375	2.63	08:58.0	Ventana	33.945	02:37:26:28	9.286	Crinoidea	Antedonidae	Florometra			Animalia	Comatulidina	Echinodermata	Florometra serratissima							Antedonacea	Eukaryota		V3167-03
 	cruise	Stylasterias forreri	305.74	3167	01:38:53:02	 	36.827152	-122.16869	2390788	1.09	11:38.0	Ventana	34.164	01:40:43:27	6.952		Asteriidae	Stylasterias			Animalia	Forcipulatida	Echinodermata	Stylasterias forreri	Asteroidea							Eukaryota		V3167-02
 	transect	Ceriantharia sp. 3	310.49	3167	01:24:41:27	 	36.826527	-122.169075	2372693	1.08	57:26.0	Ventana	34.165	01:26:33:24	6.934	Anthozoa					Animalia	Ceriantharia	Cnidaria		Ceriantipatharia							Eukaryota		V3167-02
 	transect	Stomphia	312.57	3167	01:17:13:26	 	36.82623	-122.168175	2370764	1.07	49:58.0	Ventana	34.165	01:19:04:26	6.914	Anthozoa	Actinostolidae	Stomphia			Animalia	Actiniaria	Cnidaria		Hexacorallia			Nyantheae				Eukaryota		V3167-02
 	cruise	Lycodes cortezianus	287.64	3167	02:01:33:08	 	36.83278	-122.16464	2466450	1.13	34:45.0	Ventana	34.159	02:03:16:13	7.037	Osteichthyes	Zoarcidae	Lycodes	Neopterygii		Animalia	Perciformes	Chordata	Lycodes cortezianus	Actinopterygii			Zoarcoidei	Vertebrata	Gnathostomata		Eukaryota	Acanthopterygii	V3167-03
 	transect	Sebastes	309.07	3167	01:34:19:25	 	36.827267	-122.16774	2390020	1.08	07:05.0	Ventana	34.165	01:36:12:00	6.933	Osteichthyes	Scorpaenidae	Sebastes	Neopterygii		Animalia	Scorpaeniformes	Chordata		Actinopterygii			Scorpaenoidei	Vertebrata	Gnathostomata		Eukaryota	Acanthopterygii	V3167-02
 	transect	Rathbunaster californicus	312.93	3167	01:18:32:09	 	36.825844	-122.16856	2371140	1.1	51:16.0	Ventana	34.16	01:20:23:05	6.984		Labidiasteridae	Rathbunaster			Animalia	Forcipulatida	Echinodermata	Rathbunaster californicus	Asteroidea							Eukaryota		V3167-02
 	transect	Parastichopus leukothele	308.41	3167	01:33:09:27	 	36.827675	-122.16765	2389644	1.08	05:54.0	Ventana	34.166	01:35:00:05	6.926	Holothuroidea	Stichopodidae	Parastichopus			Animalia	Aspidochirotida	Echinodermata	Parastichopus leukothele	Aspidochirotacea							Eukaryota		V3167-02
 	transect	Allocentrotus fragilis	306.58	3167	01:26:42:09	 	36.827103	-122.16873	2388264	1.12	59:26.0	Ventana	34.164	01:28:33:08	6.991	Echinoidea	Strongylocentrotidae	Allocentrotus			Animalia	Echinoida	Echinodermata	Allocentrotus fragilis	Euechinoidea			Echinacea				Eukaryota		V3167-02
 	transect	Allocentrotus fragilis	303.17	3167	01:29:18:19	 	36.82783	-122.16832	2388968	1.12	02:03.0	Ventana	34.159	01:31:10:23	7.03	Echinoidea	Strongylocentrotidae	Allocentrotus			Animalia	Echinoida	Echinodermata	Allocentrotus fragilis	Euechinoidea			Echinacea				Eukaryota		V3167-02
 	cruise	Parastichopus leukothele	140.8	3167	02:46:40:14	 	36.837925	-122.155426	2467481	2.87	19:55.0	Ventana	33.885	02:48:23:10	9.565	Holothuroidea	Stichopodidae	Parastichopus			Animalia	Aspidochirotida	Echinodermata	Parastichopus leukothele	Aspidochirotacea							Eukaryota		V3167-03
 	transect	Allocentrotus fragilis	313.56	3167	01:23:33:14	 	36.826138	-122.16927	2371911	1.07	56:18.0	Ventana	34.166	01:25:24:26	6.924	Echinoidea	Strongylocentrotidae	Allocentrotus			Animalia	Echinoida	Echinodermata	Allocentrotus fragilis	Euechinoidea			Echinacea				Eukaryota		V3167-02
 	cruise	Pleuronectiformes	251.46	3167	02:09:51:23	 	36.83469	-122.16216	2466729	1.53	43:04.0	Ventana	34.117	02:11:34:06	7.765	Osteichthyes			Neopterygii		Animalia	Pleuronectiformes	Chordata		Actinopterygii				Vertebrata	Gnathostomata		Eukaryota	Acanthopterygii	V3167-03
 	cruise	Octopus rubescens	151.42	3167	02:42:49:22	 	36.83744	-122.15693	2467451	2.83	16:04.0	Ventana	33.893	02:44:31:26	9.524	Cephalopoda	Octopodidae	Octopus			Animalia	Octopoda	Mollusca	Octopus rubescens	Coleoidea	Octopodinae		Incirrata				Eukaryota	Octopodiformes	V3167-03
 	cruise	Stylasterias forreri	247.5	3167	02:10:23:22	 	36.834805	-122.161995	2467804	1.53	43:36.0	Ventana	34.119	02:12:05:14	7.762		Asteriidae	Stylasterias			Animalia	Forcipulatida	Echinodermata	Stylasterias forreri	Asteroidea							Eukaryota		V3167-03
 	transect	Allocentrotus fragilis	309.05	3167	01:34:23:24	 	36.827244	-122.167755	2390043	1.08	07:09.0	Ventana	34.165	01:36:15:11	6.927	Echinoidea	Strongylocentrotidae	Allocentrotus			Animalia	Echinoida	Echinodermata	Allocentrotus fragilis	Euechinoidea			Echinacea				Eukaryota		V3167-02
 	transect	Psolus squamatus	321.76	3167	00:45:59:09	 	36.82486	-122.17057	2463213	1.14	18:20.0	Ventana	34.158	00:47:55:17	7.038	Holothuroidea	Psolidae	Psolus			Animalia	Dendrochirotida	Echinodermata	Psolus squamatus								Eukaryota		V3167-01
 	transect	Allocentrotus fragilis	312.35	3167	01:16:55:27	 	36.826324	-122.16816	2370561	1.07	49:39.0	Ventana	34.166	01:18:46:25	6.915	Echinoidea	Strongylocentrotidae	Allocentrotus			Animalia	Echinoida	Echinodermata	Allocentrotus fragilis	Euechinoidea			Echinacea				Eukaryota		V3167-02
 	cruise	Parastichopus leukothele	328.03	3167	00:11:48:26	 	36.822887	-122.17056	2462168	1.11	44:08.0	Ventana	34.163	00:13:43:23	6.959	Holothuroidea	Stichopodidae	Parastichopus			Animalia	Aspidochirotida	Echinodermata	Parastichopus leukothele	Aspidochirotacea							Eukaryota		V3167-01
 	cruise	Stylasterias forreri	168.23	3167	02:38:58:29	 	36.83698	-122.1584	2467421	2.74	12:13.0	Ventana	33.922	02:40:42:11	9.421		Asteriidae	Stylasterias			Animalia	Forcipulatida	Echinodermata	Stylasterias forreri	Asteroidea							Eukaryota		V3167-03
 	transect	Parastichopus leukothele	304.7	3167	01:28:30:20	http://search.mbari.org/ARCHIVE/frameGrabs/Ventana/images/3167/01_30_21_19.jpg	36.827644	-122.168434	2388783	1.1	01:15.0	Ventana	34.162	01:30:21:19	6.963	Holothuroidea	Stichopodidae	Parastichopus			Animalia	Aspidochirotida	Echinodermata	Parastichopus leukothele	Aspidochirotacea							Eukaryota		V3167-02
 	cruise	Luidia foliolata	99.63	3167	04:15:01:09	http://search.mbari.org/ARCHIVE/frameGrabs/Ventana/images/3167/04_16_35_23.jpg	36.85189	-122.12081	2471948	5.01	49:04.0	Ventana	33.484	04:16:35:23	11.278		Luidiidae	Luidia			Animalia	Platyasterida	Echinodermata	Luidia foliolata	Asteroidea							Eukaryota		V3167-05
 	cruise	Pleuronectiformes	214.58	3167	02:14:56:29	 	36.835705	-122.160645	2467864	1.71	48:09.0	Ventana	34.099	02:16:39:11	8.046	Osteichthyes			Neopterygii		Animalia	Pleuronectiformes	Chordata		Actinopterygii				Vertebrata	Gnathostomata		Eukaryota	Acanthopterygii	V3167-03
 	transect	Stylasterias forreri	308.79	3167	01:32:55:12	 	36.827724	-122.16764	2389614	1.08	05:40.0	Ventana	34.165	01:34:48:01	6.927		Asteriidae	Stylasterias			Animalia	Forcipulatida	Echinodermata	Stylasterias forreri	Asteroidea							Eukaryota		V3167-02
 	transect	Rathbunaster californicus	313.13	3167	01:17:41:26	 	36.82609	-122.16827	2370930	1.07	50:26.0	Ventana	34.166	01:19:33:06	6.913		Labidiasteridae	Rathbunaster			Animalia	Forcipulatida	Echinodermata	Rathbunaster californicus	Asteroidea							Eukaryota		V3167-02
 	transect	Rathbunaster californicus	323.13	3167	00:49:54:01	 	36.824448	-122.17069	2463273	1.18	22:15.0	Ventana	34.153	00:51:50:03	7.106		Labidiasteridae	Rathbunaster			Animalia	Forcipulatida	Echinodermata	Rathbunaster californicus	Asteroidea							Eukaryota		V3167-01
 	transect	Rathbunaster californicus	309.18	3167	01:34:32:09	 	36.827194	-122.16777	2390073	1.08	07:17.0	Ventana	34.165	01:36:23:28	6.927		Labidiasteridae	Rathbunaster			Animalia	Forcipulatida	Echinodermata	Rathbunaster californicus	Asteroidea							Eukaryota		V3167-02
 	transect	Rathbunaster californicus	313.21	3167	01:18:13:24	 	36.82593	-122.16845	2371080	1.08	50:58.0	Ventana	34.161	01:20:06:01	6.953		Labidiasteridae	Rathbunaster			Animalia	Forcipulatida	Echinodermata	Rathbunaster californicus	Asteroidea							Eukaryota		V3167-02
 	transect	Rathbunaster californicus	318.45	3167	00:35:28:13	 	36.82488	-122.16959	2462950	1.14	07:49.0	Ventana	34.159	00:37:25:05	7.033		Labidiasteridae	Rathbunaster			Animalia	Forcipulatida	Echinodermata	Rathbunaster californicus	Asteroidea							Eukaryota		V3167-01
 	transect	Allocentrotus fragilis	305.95	3167	01:27:00:08	 	36.827194	-122.168686	2388340	1.1	59:45.0	Ventana	34.164	01:28:51:24	6.964	Echinoidea	Strongylocentrotidae	Allocentrotus			Animalia	Echinoida	Echinodermata	Allocentrotus fragilis	Euechinoidea			Echinacea				Eukaryota		V3167-02
 	transect	Stomphia	322.65	3167	00:58:11:02	 	36.82405	-122.17035	2464228	1.15	30:54.0	Ventana	34.158	01:00:01:14	7.048	Anthozoa	Actinostolidae	Stomphia			Animalia	Actiniaria	Cnidaria		Hexacorallia			Nyantheae				Eukaryota		V3167-02
 	transect	Allocentrotus fragilis	306.89	3167	01:26:30:09	 	36.827053	-122.16876	2372972	1.17	59:14.0	Ventana	34.157	01:28:22:11	7.079	Echinoidea	Strongylocentrotidae	Allocentrotus			Animalia	Echinoida	Echinodermata	Allocentrotus fragilis	Euechinoidea			Echinacea				Eukaryota		V3167-02
 	cruise	trench	101.21	3167	04:08:35:21	http://search.mbari.org/ARCHIVE/frameGrabs/Ventana/images/3167/04_10_10_16.jpg	36.85046	-122.12386	20024097	5.05	42:38.0	Ventana	33.48	04:10:10:16	11.292																			V3167-05
 	transect	Sebastes	308.97	3167	01:34:52:09	 	36.827065	-122.16783	2390133	1.08	07:37.0	Ventana	34.165	01:36:44:06	6.933	Osteichthyes	Scorpaenidae	Sebastes	Neopterygii		Animalia	Scorpaeniformes	Chordata		Actinopterygii			Scorpaenoidei	Vertebrata	Gnathostomata		Eukaryota	Acanthopterygii	V3167-02
 	transect	Parastichopus leukothele	308.83	3167	01:33:37:26	 	36.827534	-122.16766	2389780	1.07	06:23.0	Ventana	34.166	01:35:28:26	6.926	Holothuroidea	Stichopodidae	Parastichopus			Animalia	Aspidochirotida	Echinodermata	Parastichopus leukothele	Aspidochirotacea							Eukaryota		V3167-02
 	transect	Hippasteria	315.98	3167	01:22:29:01	 	36.825756	-122.16944	2371678	1.08	55:13.0	Ventana	34.164	01:24:21:06	6.938		Goniasteridae	Hippasteria			Animalia	Valvatida	Echinodermata		Asteroidea			Granulosina				Eukaryota		V3167-02
 	transect	Parastichopus leukothele	306.58	3167	01:26:42:09	 	36.827103	-122.16873	2373002	1.12	59:26.0	Ventana	34.164	01:28:32:20	6.991	Holothuroidea	Stichopodidae	Parastichopus			Animalia	Aspidochirotida	Echinodermata	Parastichopus leukothele	Aspidochirotacea							Eukaryota		V3167-02
 	transect	Rathbunaster californicus	322.65	3167	00:58:55:15	 	36.823956	-122.17025	2464258	1.14	31:38.0	Ventana	34.157	01:00:47:16	7.047		Labidiasteridae	Rathbunaster			Animalia	Forcipulatida	Echinodermata	Rathbunaster californicus	Asteroidea							Eukaryota		V3167-02
 	cruise	Allocentrotus fragilis	318.42	3167	01:06:29:01	 	36.824993	-122.169945	2464454	1.12	39:12.0	Ventana	34.16	01:08:19:25	7.017	Echinoidea	Strongylocentrotidae	Allocentrotus			Animalia	Echinoida	Echinodermata	Allocentrotus fragilis	Euechinoidea			Echinacea				Eukaryota		V3167-02
 	transect	Rathbunaster californicus	308.88	3167	01:33:31:26	 	36.827568	-122.16766	2389750	1.08	06:17.0	Ventana	34.166	01:35:22:12	6.925		Labidiasteridae	Rathbunaster			Animalia	Forcipulatida	Echinodermata	Rathbunaster californicus	Asteroidea							Eukaryota		V3167-02
 	cruise	Merluccius productus	343.22	3167	00:00:58:02	http://search.mbari.org/ARCHIVE/frameGrabs/Ventana/images/3167/00_02_54_07.jpg	36.820026	-122.17138	2459547	1.11	33:16.0	Ventana	34.16	00:02:54:07	6.924	Osteichthyes	Merlucciidae	Merluccius	Neopterygii		Animalia	Gadiformes	Chordata	Merluccius productus	Actinopterygii				Vertebrata	Gnathostomata		Eukaryota	Paracanthopterygii	V3167-01
 	transect	Allocentrotus fragilis	308.6	3167	01:25:39:26	 	36.82682	-122.1689	2372799	1.09	58:24.0	Ventana	34.163	01:27:31:17	6.991	Echinoidea	Strongylocentrotidae	Allocentrotus			Animalia	Echinoida	Echinodermata	Allocentrotus fragilis	Euechinoidea			Echinacea				Eukaryota		V3167-02
 	transect	Sebastes	308.9	3167	01:34:07:25	 	36.827343	-122.16771	2389953	1.08	06:53.0	Ventana	34.165	01:35:58:22	6.933	Osteichthyes	Scorpaenidae	Sebastes	Neopterygii		Animalia	Scorpaeniformes	Chordata		Actinopterygii			Scorpaenoidei	Vertebrata	Gnathostomata		Eukaryota	Acanthopterygii	V3167-02
 	cruise	Parastichopus leukothele	110.46	3167	03:35:16:14	 	36.84348	-122.138435	2470963	4.59	08:56.0	Ventana	33.553	03:36:57:06	11.081	Holothuroidea	Stichopodidae	Parastichopus			Animalia	Aspidochirotida	Echinodermata	Parastichopus leukothele	Aspidochirotacea							Eukaryota		V3167-04
 	transect	Rathbunaster californicus	311.31	3167	01:16:29:13	 	36.826443	-122.16818	2370501	1.08	49:13.0	Ventana	34.165	01:18:21:00	6.923		Labidiasteridae	Rathbunaster			Animalia	Forcipulatida	Echinodermata	Rathbunaster californicus	Asteroidea							Eukaryota		V3167-02
 	transect	Allocentrotus fragilis	305.09	3167	01:27:32:07	 	36.827362	-122.168594	2388550	1.11	00:17.0	Ventana	34.162	01:29:22:20	6.992	Echinoidea	Strongylocentrotidae	Allocentrotus			Animalia	Echinoida	Echinodermata	Allocentrotus fragilis	Euechinoidea			Echinacea				Eukaryota		V3167-02
 	transect	Rathbunaster californicus	309.63	3167	01:35:14:08	 	36.826935	-122.16792	2390246	1.08	07:59.0	Ventana	34.163	01:37:06:09	6.95		Labidiasteridae	Rathbunaster			Animalia	Forcipulatida	Echinodermata	Rathbunaster californicus	Asteroidea							Eukaryota		V3167-02
 	transect	Rathbunaster californicus	309.37	3167	01:15:21:15	 	36.82671	-122.16832	2370441	1.08	48:05.0	Ventana	34.165	01:17:12:07	6.932		Labidiasteridae	Rathbunaster			Animalia	Forcipulatida	Echinodermata	Rathbunaster californicus	Asteroidea							Eukaryota		V3167-02
 	transect	Rathbunaster californicus	308.91	3167	01:33:51:26	 	36.827446	-122.16769	2389870	1.07	06:37.0	Ventana	34.166	01:35:43:19	6.926		Labidiasteridae	Rathbunaster			Animalia	Forcipulatida	Echinodermata	Rathbunaster californicus	Asteroidea							Eukaryota		V3167-02
 	transect	Rathbunaster californicus	313.13	3167	01:18:40:09	 	36.8258	-122.1686	2371163	1.11	51:24.0	Ventana	34.161	01:20:32:03	6.99		Labidiasteridae	Rathbunaster			Animalia	Forcipulatida	Echinodermata	Rathbunaster californicus	Asteroidea							Eukaryota		V3167-02
 	cruise	trench	103.25	3167	04:01:17:19	http://search.mbari.org/ARCHIVE/frameGrabs/Ventana/images/3167/04_02_54_01.jpg	36.849033	-122.12728	2471745	5.06	35:20.0	Ventana	33.477	04:02:54:01	11.295																			V3167-05
 	transect	Pleuronectiformes	314.88	3167	01:22:55:01	 	36.825905	-122.16937	2371761	1.07	55:39.0	Ventana	34.165	01:24:46:07	6.926	Osteichthyes			Neopterygii		Animalia	Pleuronectiformes	Chordata		Actinopterygii				Vertebrata	Gnathostomata		Eukaryota	Acanthopterygii	V3167-02
 	transect	Sebastes	305.15	3167	01:27:36:07	 	36.82738	-122.16859	2388573	1.11	00:21.0	Ventana	34.162	01:29:27:26	6.992	Osteichthyes	Scorpaenidae	Sebastes	Neopterygii		Animalia	Scorpaeniformes	Chordata		Actinopterygii			Scorpaenoidei	Vertebrata	Gnathostomata		Eukaryota	Acanthopterygii	V3167-02
 	transect	Sebastes	309.48	3167	01:35:02:08	http://search.mbari.org/ARCHIVE/frameGrabs/Ventana/images/3167/01_36_53_02.jpg	36.827003	-122.16787	20024007	1.08	07:47.0	Ventana	34.164	01:36:53:02	6.94	Osteichthyes	Scorpaenidae	Sebastes	Neopterygii		Animalia	Scorpaeniformes	Chordata		Actinopterygii			Scorpaenoidei	Vertebrata	Gnathostomata		Eukaryota	Acanthopterygii	V3167-02
 	transect	Rathbunaster californicus	308.83	3167	01:33:57:25	 	36.827408	-122.167694	2389900	1.08	06:43.0	Ventana	34.165	01:35:49:16	6.927		Labidiasteridae	Rathbunaster			Animalia	Forcipulatida	Echinodermata	Rathbunaster californicus	Asteroidea							Eukaryota		V3167-02
 	transect	Agonidae	307.78	3167	01:25:55:25	 	36.826893	-122.16885	2372829	1.19	58:40.0	Ventana	34.152	01:27:48:04	7.21	Osteichthyes	Agonidae		Neopterygii		Animalia	Scorpaeniformes	Chordata		Actinopterygii				Vertebrata	Gnathostomata		Eukaryota	Acanthopterygii	V3167-02
 	transect	Rathbunaster californicus	315.87	3167	01:19:36:07	 	36.825504	-122.168884	2371355	1.09	52:20.0	Ventana	34.163	01:21:28:24	6.954		Labidiasteridae	Rathbunaster			Animalia	Forcipulatida	Echinodermata	Rathbunaster californicus	Asteroidea							Eukaryota		V3167-02
 	cruise	Lycodes cortezianus	335.59	3167	00:07:17:20	 	36.82154	-122.17104	2462096	1.11	39:36.0	Ventana	34.161	00:09:14:09	6.954	Osteichthyes	Zoarcidae	Lycodes	Neopterygii		Animalia	Perciformes	Chordata	Lycodes cortezianus	Actinopterygii			Zoarcoidei	Vertebrata	Gnathostomata		Eukaryota	Acanthopterygii	V3167-01
 	transect	Rathbunaster californicus	315.14	3167	01:22:47:01	 	36.82586	-122.169395	2371731	1.08	55:31.0	Ventana	34.166	01:24:38:07	6.927		Labidiasteridae	Rathbunaster			Animalia	Forcipulatida	Echinodermata	Rathbunaster californicus	Asteroidea							Eukaryota		V3167-02
 	transect	Sabellida	323.1	3167	00:53:34:25	 	36.824352	-122.1706	2463356	1.17	25:56.0	Ventana	34.155	00:55:31:06	7.098	Polychaeta					Animalia	Sabellida	Annelida		Palpata							Eukaryota	Canalipalpata	V3167-01
 	cruise	Rathbunaster californicus	118.01	3167	03:04:34:26	 	36.840935	-122.147964	2468229	3.56	38:13.0	Ventana	33.728	03:06:14:23	10.409		Labidiasteridae	Rathbunaster			Animalia	Forcipulatida	Echinodermata	Rathbunaster californicus	Asteroidea							Eukaryota		V3167-04
 	transect	Phyllospadix	161.81	3167	02:26:13:08	 	36.837032	-122.15803	2467225	2.63	59:27.0	Ventana	33.943	02:27:55:29	9.295		Zosteraceae	Phyllospadix			Plantae	Najadales										Eukaryota		V3167-03
 	transect	Allocentrotus fragilis	305.1	3167	01:27:28:08	 	36.82734	-122.16861	2388520	1.11	00:13.0	Ventana	34.162	01:29:19:25	6.992	Echinoidea	Strongylocentrotidae	Allocentrotus			Animalia	Echinoida	Echinodermata	Allocentrotus fragilis	Euechinoidea			Echinacea				Eukaryota		V3167-02
 	cruise	cable	209.14	3167	02:15:36:28	http://search.mbari.org/ARCHIVE/frameGrabs/Ventana/images/3167/02_17_20_15.jpg	36.835827	-122.16045	20024037	1.75	48:50.0	Ventana	34.094	02:17:20:15	8.129																			V3167-03
 	cruise	Hydrolagus colliei	308.67	3167	01:32:29:13	 	36.82779	-122.16766	2389524	1.08	05:14.0	Ventana	34.165	01:34:21:05	6.929	Chondrichthyes	Chimaeridae	Hydrolagus			Animalia	Chimaeriformes	Chordata	Hydrolagus colliei	Holocephali			Chimaeroidei	Vertebrata			Eukaryota	Holocephalimorpha	V3167-02
 	transect	Rathbunaster californicus	311.83	3167	01:24:05:14	 	36.826324	-122.16919	2372024	1.07	56:50.0	Ventana	34.165	01:25:56:01	6.925		Labidiasteridae	Rathbunaster			Animalia	Forcipulatida	Echinodermata	Rathbunaster californicus	Asteroidea							Eukaryota		V3167-02
 	transect	Glyptocephalus zachirus	164.98	3167	02:31:56:27	 	36.837395	-122.158646	2467338	2.71	05:11.0	Ventana	33.935	02:33:39:04	9.38	Osteichthyes	Pleuronectidae	Glyptocephalus	Neopterygii		Animalia	Pleuronectiformes	Chordata		Actinopterygii				Vertebrata	Gnathostomata		Eukaryota	Acanthopterygii	V3167-03
 	transect	Allocentrotus fragilis	319.16	3167	00:37:46:24	 	36.82491	-122.17008	2463010	1.16	10:07.0	Ventana	34.156	00:39:42:21	7.075	Echinoidea	Strongylocentrotidae	Allocentrotus			Animalia	Echinoida	Echinodermata	Allocentrotus fragilis	Euechinoidea			Echinacea				Eukaryota		V3167-01
 	cruise	Hydrolagus colliei	307.33	3167	01:50:23:26	 	36.82968	-122.16729	2465488	1.1	23:10.0	Ventana	34.163	01:52:15:20	6.961	Chondrichthyes	Chimaeridae	Hydrolagus			Animalia	Chimaeriformes	Chordata	Hydrolagus colliei	Holocephali			Chimaeroidei	Vertebrata			Eukaryota	Holocephalimorpha	V3167-02
 	transect	Hippasteria	316.04	3167	01:22:21:02	 	36.82571	-122.169464	2371648	1.09	55:05.0	Ventana	34.163	01:24:12:19	6.958		Goniasteridae	Hippasteria			Animalia	Valvatida	Echinodermata		Asteroidea			Granulosina				Eukaryota		V3167-02
 	transect	Corallimorphus pilatus	305.1	3167	01:27:48:21	 	36.827442	-122.16855	2388603	1.12	00:33.0	Ventana	34.159	01:29:40:03	7.026	Anthozoa	Corallimorphidae	Corallimorphus			Animalia	Corallimorpharia	Cnidaria	Corallimorphus pilatus	Hexacorallia							Eukaryota		V3167-02
 	transect	Parastichopus leukothele	313.24	3167	01:18:17:24	 	36.825912	-122.16847	2371103	1.08	51:02.0	Ventana	34.161	01:20:09:10	6.953	Holothuroidea	Stichopodidae	Parastichopus			Animalia	Aspidochirotida	Echinodermata	Parastichopus leukothele	Aspidochirotacea							Eukaryota		V3167-02
 	transect	Allocentrotus fragilis	322.83	3167	00:57:37:03	 	36.824127	-122.17042	2464198	1.14	30:20.0	Ventana	34.157	00:59:27:24	7.052	Echinoidea	Strongylocentrotidae	Allocentrotus			Animalia	Echinoida	Echinodermata	Allocentrotus fragilis	Euechinoidea			Echinacea				Eukaryota		V3167-02
 	transect	Phyllospadix	171.74	3167	02:35:09:21	 	36.83722	-122.15919	2467368	2.65	08:24.0	Ventana	33.941	02:36:51:25	9.303		Zosteraceae	Phyllospadix			Plantae	Najadales										Eukaryota		V3167-03
 	cruise	Stomphia	305.4	3167	01:48:15:14	 	36.829025	-122.167656	2390908	1.1	21:01.0	Ventana	34.162	01:50:07:21	6.98	Anthozoa	Actinostolidae	Stomphia			Animalia	Actiniaria	Cnidaria		Hexacorallia			Nyantheae				Eukaryota		V3167-02
 	transect	Parastichopus leukothele	303.87	3167	01:28:52:19	 	36.82773	-122.16838	2388866	1.09	01:37.0	Ventana	34.165	01:30:44:03	6.947	Holothuroidea	Stichopodidae	Parastichopus			Animalia	Aspidochirotida	Echinodermata	Parastichopus leukothele	Aspidochirotacea							Eukaryota		V3167-02
 	transect	Rathbunaster californicus	319.91	3167	00:18:44:14	 	36.824345	-122.169846	2462348	1.12	51:04.0	Ventana	34.162	00:20:39:19	6.992		Labidiasteridae	Rathbunaster			Animalia	Forcipulatida	Echinodermata	Rathbunaster californicus	Asteroidea							Eukaryota		V3167-01
 	transect	Allocentrotus fragilis	308.92	3167	01:33:45:26	 	36.827484	-122.16767	2389810	1.07	06:31.0	Ventana	34.166	01:35:38:01	6.926	Echinoidea	Strongylocentrotidae	Allocentrotus			Animalia	Echinoida	Echinodermata	Allocentrotus fragilis	Euechinoidea			Echinacea				Eukaryota		V3167-02
 	transect	Allocentrotus fragilis	309.46	3167	01:25:09:26	 	36.82668	-122.16898	2372746	1.11	57:54.0	Ventana	34.161	01:27:00:05	7.022	Echinoidea	Strongylocentrotidae	Allocentrotus			Animalia	Echinoida	Echinodermata	Allocentrotus fragilis	Euechinoidea			Echinacea				Eukaryota		V3167-02
 	transect	Sebastes	309.57	3167	01:35:04:08	 	36.826992	-122.16788	2390186	1.08	07:49.0	Ventana	34.164	01:36:54:18	6.94	Osteichthyes	Scorpaenidae	Sebastes	Neopterygii		Animalia	Scorpaeniformes	Chordata		Actinopterygii			Scorpaenoidei	Vertebrata	Gnathostomata		Eukaryota	Acanthopterygii	V3167-02
 	transect	Allocentrotus fragilis	311.93	3167	01:23:55:14	 	36.826267	-122.16921	2371994	1.07	56:40.0	Ventana	34.165	01:25:46:25	6.925	Echinoidea	Strongylocentrotidae	Allocentrotus			Animalia	Echinoida	Echinodermata	Allocentrotus fragilis	Euechinoidea			Echinacea				Eukaryota		V3167-02
 	cruise	Parastichopus leukothele	309.57	3167	01:35:40:07	 	36.82683	-122.16805	2390735	1.08	08:25.0	Ventana	34.163	01:37:31:12	6.946	Holothuroidea	Stichopodidae	Parastichopus			Animalia	Aspidochirotida	Echinodermata	Parastichopus leukothele	Aspidochirotacea							Eukaryota		V3167-02
 	transect	Rathbunaster californicus	312.55	3167	01:17:11:26	 	36.826244	-122.16817	2370757	1.07	49:55.0	Ventana	34.165	01:19:03:07	6.914		Labidiasteridae	Rathbunaster			Animalia	Forcipulatida	Echinodermata	Rathbunaster californicus	Asteroidea							Eukaryota		V3167-02
 	transect	Rathbunaster californicus	308.58	3167	01:33:03:27	 	36.827694	-122.16764	2389637	1.08	05:48.0	Ventana	34.165	01:34:54:29	6.927		Labidiasteridae	Rathbunaster			Animalia	Forcipulatida	Echinodermata	Rathbunaster californicus	Asteroidea							Eukaryota		V3167-02
 	transect	Rathbunaster californicus	322.72	3167	00:48:33:19	 	36.82465	-122.17082	2463243	1.19	20:55.0	Ventana	34.153	00:50:30:04	7.118		Labidiasteridae	Rathbunaster			Animalia	Forcipulatida	Echinodermata	Rathbunaster californicus	Asteroidea							Eukaryota		V3167-01
 	transect	Rathbunaster californicus	312.25	3167	01:23:51:14	 	36.826244	-122.16923	2371964	1.08	56:36.0	Ventana	34.165	01:25:42:08	6.929		Labidiasteridae	Rathbunaster			Animalia	Forcipulatida	Echinodermata	Rathbunaster californicus	Asteroidea							Eukaryota		V3167-02
 	transect	Stylasterias forreri	303.48	3167	01:29:08:19	 	36.827793	-122.16835	2388915	1.12	01:53.0	Ventana	34.159	01:31:01:09	7.03		Asteriidae	Stylasterias			Animalia	Forcipulatida	Echinodermata	Stylasterias forreri	Asteroidea							Eukaryota		V3167-02
 	transect	Parastichopus leukothele	312.97	3167	01:18:28:09	 	36.825863	-122.16853	2371133	1.1	51:12.0	Ventana	34.16	01:20:18:27	6.984	Holothuroidea	Stichopodidae	Parastichopus			Animalia	Aspidochirotida	Echinodermata	Parastichopus leukothele	Aspidochirotacea							Eukaryota		V3167-02
 	cruise	Stomphia	308.68	3167	01:14:37:01	 	36.826756	-122.168495	2464717	1.09	47:21.0	Ventana	34.164	01:16:27:22	6.946	Anthozoa	Actinostolidae	Stomphia			Animalia	Actiniaria	Cnidaria		Hexacorallia			Nyantheae				Eukaryota		V3167-02
 	cruise	Hydrolagus colliei	297.01	3167	01:58:13:26	 	36.831894	-122.16547	2465548	1.12	31:00.0	Ventana	34.161	02:00:05:24	7.015	Chondrichthyes	Chimaeridae	Hydrolagus			Animalia	Chimaeriformes	Chordata	Hydrolagus colliei	Holocephali			Chimaeroidei	Vertebrata			Eukaryota	Holocephalimorpha	V3167-02
 	transect	Parastichopus leukothele	308.9	3167	01:34:17:24	 	36.827282	-122.16774	2390013	1.08	07:03.0	Ventana	34.165	01:36:09:28	6.933	Holothuroidea	Stichopodidae	Parastichopus			Animalia	Aspidochirotida	Echinodermata	Parastichopus leukothele	Aspidochirotacea							Eukaryota		V3167-02
 	transect	Allocentrotus fragilis	308.32	3167	01:33:13:26	 	36.827663	-122.167656	2389667	1.08	05:58.0	Ventana	34.166	01:35:05:19	6.926	Echinoidea	Strongylocentrotidae	Allocentrotus			Animalia	Echinoida	Echinodermata	Allocentrotus fragilis	Euechinoidea			Echinacea				Eukaryota		V3167-02
 	transect	Parastichopus leukothele	316.38	3167	01:22:11:02	 	36.82566	-122.16948	2371618	1.09	54:55.0	Ventana	34.163	01:24:01:15	6.958	Holothuroidea	Stichopodidae	Parastichopus			Animalia	Aspidochirotida	Echinodermata	Parastichopus leukothele	Aspidochirotacea							Eukaryota		V3167-02
 	transect	Allocentrotus fragilis	313	3167	01:17:19:26	 	36.8262	-122.16818	2370787	1.07	50:04.0	Ventana	34.165	01:19:11:07	6.914	Echinoidea	Strongylocentrotidae	Allocentrotus			Animalia	Echinoida	Echinodermata	Allocentrotus fragilis	Euechinoidea			Echinacea				Eukaryota		V3167-02
 	cruise	trench	106.87	3167	03:47:51:21	http://search.mbari.org/ARCHIVE/frameGrabs/Ventana/images/3167/03_49_31_28.jpg	36.846256	-122.13323	2471053	4.77	21:32.0	Ventana	33.518	03:49:31:28	11.193																			V3167-04
 	transect	Stylasterias forreri	309.57	3167	01:35:12:08	 	36.826946	-122.167915	2390216	1.08	07:57.0	Ventana	34.163	01:37:03:18	6.95		Asteriidae	Stylasterias			Animalia	Forcipulatida	Echinodermata	Stylasterias forreri	Asteroidea							Eukaryota		V3167-02
 	transect	Phyllospadix	165.01	3167	02:25:19:09	 	36.836975	-122.15819	2467195	2.64	58:32.0	Ventana	33.942	02:27:02:16	9.348		Zosteraceae	Phyllospadix			Plantae	Najadales										Eukaryota		V3167-03
 	transect	Rathbunaster californicus	308.92	3167	01:33:49:25	 	36.827457	-122.16768	2389840	1.07	06:35.0	Ventana	34.166	01:35:40:24	6.926		Labidiasteridae	Rathbunaster			Animalia	Forcipulatida	Echinodermata	Rathbunaster californicus	Asteroidea							Eukaryota		V3167-02
 	cruise	Agonidae	307.32	3167	01:36:46:20	 	36.82677	-122.1685	2390765	1.08	09:32.0	Ventana	34.165	01:38:37:01	6.935	Osteichthyes	Agonidae		Neopterygii		Animalia	Scorpaeniformes	Chordata		Actinopterygii				Vertebrata	Gnathostomata		Eukaryota	Acanthopterygii	V3167-02
 	transect	Allocentrotus fragilis	316.04	3167	01:19:42:06	 	36.825478	-122.168915	2371366	1.08	52:26.0	Ventana	34.166	01:21:33:22	6.929	Echinoidea	Strongylocentrotidae	Allocentrotus			Animalia	Echinoida	Echinodermata	Allocentrotus fragilis	Euechinoidea			Echinacea				Eukaryota		V3167-02
 	transect	Parastichopus leukothele	309.48	3167	01:25:11:27	 	36.82669	-122.168976	2372748	1.11	57:56.0	Ventana	34.161	01:27:03:25	7.022	Holothuroidea	Stichopodidae	Parastichopus			Animalia	Aspidochirotida	Echinodermata	Parastichopus leukothele	Aspidochirotacea							Eukaryota		V3167-02
 	transect	Sabellidae	322.81	3167	00:57:43:03	 	36.824116	-122.17041	2464203	1.16	30:26.0	Ventana	34.155	00:59:35:03	7.087	Polychaeta	Sabellidae				Animalia	Sabellida	Annelida		Palpata							Eukaryota	Canalipalpata	V3167-02
 	cruise	Stomphia	221.3	3167	02:14:06:15	 	36.835552	-122.1609	2467827	1.64	47:19.0	Ventana	34.109	02:15:49:23	7.944	Anthozoa	Actinostolidae	Stomphia			Animalia	Actiniaria	Cnidaria		Hexacorallia			Nyantheae				Eukaryota		V3167-03
 	transect	Rathbunaster californicus	313.66	3167	01:18:54:08	 	36.82573	-122.16868	2371212	1.1	51:38.0	Ventana	34.163	01:20:45:22	6.956		Labidiasteridae	Rathbunaster			Animalia	Forcipulatida	Echinodermata	Rathbunaster californicus	Asteroidea							Eukaryota		V3167-02
 	transect	Allocentrotus fragilis	306.58	3167	01:26:42:09	 	36.827103	-122.16873	2388269	1.12	59:26.0	Ventana	34.164	01:28:33:08	6.991	Echinoidea	Strongylocentrotidae	Allocentrotus			Animalia	Echinoida	Echinodermata	Allocentrotus fragilis	Euechinoidea			Echinacea				Eukaryota		V3167-02
 	cruise	Parastichopus leukothele	314.94	3167	01:09:09:26	 	36.82586	-122.16945	2464556	1.11	41:53.0	Ventana	34.162	01:11:00:28	6.977	Holothuroidea	Stichopodidae	Parastichopus			Animalia	Aspidochirotida	Echinodermata	Parastichopus leukothele	Aspidochirotacea							Eukaryota		V3167-02
 	cruise	Hydrolagus colliei	303.15	3167	01:31:23:15	 	36.827938	-122.16792	2389482	1.08	04:08.0	Ventana	34.165	01:33:15:07	6.94	Chondrichthyes	Chimaeridae	Hydrolagus			Animalia	Chimaeriformes	Chordata	Hydrolagus colliei	Holocephali			Chimaeroidei	Vertebrata			Eukaryota	Holocephalimorpha	V3167-02
 	transect	Agonidae	311.36	3167	01:16:31:12	 	36.82644	-122.16818	2370506	1.08	49:15.0	Ventana	34.165	01:18:22:24	6.923	Osteichthyes	Agonidae		Neopterygii		Animalia	Scorpaeniformes	Chordata		Actinopterygii				Vertebrata	Gnathostomata		Eukaryota	Acanthopterygii	V3167-02
 	transect	Rathbunaster californicus	317.1	3167	01:19:58:06	 	36.825417	-122.169014	2371396	1.07	52:42.0	Ventana	34.166	01:21:49:12	6.913		Labidiasteridae	Rathbunaster			Animalia	Forcipulatida	Echinodermata	Rathbunaster californicus	Asteroidea							Eukaryota		V3167-02
 	transect	Agonidae	308.92	3167	01:33:49:25	 	36.827457	-122.16768	2389835	1.07	06:35.0	Ventana	34.166	01:35:40:24	6.926	Osteichthyes	Agonidae		Neopterygii		Animalia	Scorpaeniformes	Chordata		Actinopterygii				Vertebrata	Gnathostomata		Eukaryota	Acanthopterygii	V3167-02
 	transect	Rathbunaster californicus	309.01	3167	01:34:50:09	 	36.827076	-122.16782	2390128	1.08	07:35.0	Ventana	34.165	01:36:41:21	6.933		Labidiasteridae	Rathbunaster			Animalia	Forcipulatida	Echinodermata	Rathbunaster californicus	Asteroidea							Eukaryota		V3167-02
 	transect	Rathbunaster californicus	308.91	3167	01:33:51:26	 	36.827446	-122.16769	2389865	1.07	06:37.0	Ventana	34.166	01:35:43:19	6.926		Labidiasteridae	Rathbunaster			Animalia	Forcipulatida	Echinodermata	Rathbunaster californicus	Asteroidea							Eukaryota		V3167-02
 	cruise	physical object	115.35	3167	03:07:43:20	http://search.mbari.org/ARCHIVE/frameGrabs/Ventana/images/3167/03_09_23_12.jpg	36.841454	-122.1461	2468409	3.56	41:22.0	Ventana	33.738	03:09:23:12	10.339																			V3167-04
 	transect	Allocentrotus fragilis	308.83	3167	01:33:37:26	 	36.827534	-122.16766	2389775	1.07	06:23.0	Ventana	34.166	01:35:28:26	6.926	Echinoidea	Strongylocentrotidae	Allocentrotus			Animalia	Echinoida	Echinodermata	Allocentrotus fragilis	Euechinoidea			Echinacea				Eukaryota		V3167-02
 	transect	Rathbunaster californicus	309.57	3167	01:35:12:08	 	36.826946	-122.167915	2390218	1.08	07:57.0	Ventana	34.163	01:37:03:18	6.95		Labidiasteridae	Rathbunaster			Animalia	Forcipulatida	Echinodermata	Rathbunaster californicus	Asteroidea							Eukaryota		V3167-02
 	transect	Rathbunaster californicus	322.6	3167	00:58:15:01	 	36.82404	-122.17034	2464233	1.15	30:58.0	Ventana	34.158	01:00:06:26	7.048		Labidiasteridae	Rathbunaster			Animalia	Forcipulatida	Echinodermata	Rathbunaster californicus	Asteroidea							Eukaryota		V3167-02
 	transect	Rathbunaster californicus	314.98	3167	01:22:49:01	 	36.82587	-122.16939	2371749	1.08	55:33.0	Ventana	34.166	01:24:41:01	6.927		Labidiasteridae	Rathbunaster			Animalia	Forcipulatida	Echinodermata	Rathbunaster californicus	Asteroidea							Eukaryota		V3167-02
 	cruise	Rathbunaster californicus	108.7	3167	03:39:39:21	 	36.844574	-122.13674	2471004	4.72	13:19.0	Ventana	33.517	03:41:20:06	11.186		Labidiasteridae	Rathbunaster			Animalia	Forcipulatida	Echinodermata	Rathbunaster californicus	Asteroidea							Eukaryota		V3167-04
 	cruise	cable	314.79	3167	01:09:43:25	http://search.mbari.org/ARCHIVE/frameGrabs/Ventana/images/3167/01_11_36_04.jpg	36.825993	-122.169395	20023979	1.11	42:27.0	Ventana	34.162	01:11:36:04	6.985																			V3167-02
 	transect	Allocentrotus fragilis	310.39	3167	01:24:49:27	 	36.826576	-122.169044	2372718	1.08	57:34.0	Ventana	34.165	01:26:41:26	6.934	Echinoidea	Strongylocentrotidae	Allocentrotus			Animalia	Echinoida	Echinodermata	Allocentrotus fragilis	Euechinoidea			Echinacea				Eukaryota		V3167-02
 	cruise	Glyptocephalus zachirus	159.65	3167	02:40:38:26	 	36.837143	-122.157745	2467444	2.79	13:53.0	Ventana	33.908	02:42:22:27	9.463	Osteichthyes	Pleuronectidae	Glyptocephalus	Neopterygii		Animalia	Pleuronectiformes	Chordata		Actinopterygii				Vertebrata	Gnathostomata		Eukaryota	Acanthopterygii	V3167-03
 	transect	Allocentrotus fragilis	316.32	3167	01:22:13:02	 	36.82567	-122.16948	2371629	1.09	54:57.0	Ventana	34.163	01:24:05:04	6.958	Echinoidea	Strongylocentrotidae	Allocentrotus			Animalia	Echinoida	Echinodermata	Allocentrotus fragilis	Euechinoidea			Echinacea				Eukaryota		V3167-02
 	cruise	Agonidae	327.65	3167	00:12:38:25	 	36.823147	-122.170525	2462175	1.13	44:58.0	Ventana	34.158	00:14:35:11	7.01	Osteichthyes	Agonidae		Neopterygii		Animalia	Scorpaeniformes	Chordata		Actinopterygii				Vertebrata	Gnathostomata		Eukaryota	Acanthopterygii	V3167-01
 	transect	Allocentrotus fragilis	312.8	3167	01:17:15:26	 	36.826218	-122.168175	2370769	1.07	50:00.0	Ventana	34.165	01:19:07:27	6.914	Echinoidea	Strongylocentrotidae	Allocentrotus			Animalia	Echinoida	Echinodermata	Allocentrotus fragilis	Euechinoidea			Echinacea				Eukaryota		V3167-02
 	transect	Allocentrotus fragilis	305.95	3167	01:27:00:08	 	36.827194	-122.168686	2388329	1.1	59:45.0	Ventana	34.164	01:28:51:24	6.964	Echinoidea	Strongylocentrotidae	Allocentrotus			Animalia	Echinoida	Echinodermata	Allocentrotus fragilis	Euechinoidea			Echinacea				Eukaryota		V3167-02
 	cruise	Parastichopus leukothele	106.01	3167	03:51:20:14	 	36.846855	-122.13178	2471064	4.89	25:01.0	Ventana	33.501	03:53:00:05	11.237	Holothuroidea	Stichopodidae	Parastichopus			Animalia	Aspidochirotida	Echinodermata	Parastichopus leukothele	Aspidochirotacea							Eukaryota		V3167-04
 	transect	Rathbunaster californicus	314.83	3167	01:23:07:15	 	36.825974	-122.16934	2371809	1.07	55:51.0	Ventana	34.165	01:24:59:06	6.926		Labidiasteridae	Rathbunaster			Animalia	Forcipulatida	Echinodermata	Rathbunaster californicus	Asteroidea							Eukaryota		V3167-02
 	transect	Rathbunaster californicus	313.04	3167	01:18:24:09	 	36.825886	-122.16851	2371122	1.1	51:08.0	Ventana	34.16	01:20:16:07	6.984		Labidiasteridae	Rathbunaster			Animalia	Forcipulatida	Echinodermata	Rathbunaster californicus	Asteroidea							Eukaryota		V3167-02
 	cruise	Stylasterias forreri	309.23	3167	01:52:36:21	 	36.830307	-122.166855	2465506	1.09	25:22.0	Ventana	34.164	01:54:28:00	6.96		Asteriidae	Stylasterias			Animalia	Forcipulatida	Echinodermata	Stylasterias forreri	Asteroidea							Eukaryota		V3167-02
 	transect	Allocentrotus fragilis	305.16	3167	01:27:24:07	 	36.82732	-122.16862	2388502	1.11	00:09.0	Ventana	34.162	01:29:16:10	6.992	Echinoidea	Strongylocentrotidae	Allocentrotus			Animalia	Echinoida	Echinodermata	Allocentrotus fragilis	Euechinoidea			Echinacea				Eukaryota		V3167-02
 	transect	Rathbunaster californicus	310.6	3167	01:24:39:27	 	36.826515	-122.16908	2372688	1.08	57:24.0	Ventana	34.165	01:26:31:06	6.934		Labidiasteridae	Rathbunaster			Animalia	Forcipulatida	Echinodermata	Rathbunaster californicus	Asteroidea							Eukaryota		V3167-02
 	transect	Rathbunaster californicus	312.46	3167	01:16:59:27	 	36.8263	-122.16816	2370596	1.07	49:43.0	Ventana	34.166	01:18:51:10	6.915		Labidiasteridae	Rathbunaster			Animalia	Forcipulatida	Echinodermata	Rathbunaster californicus	Asteroidea							Eukaryota		V3167-02
 	transect	Rathbunaster californicus	313.13	3167	01:17:47:25	 	36.82606	-122.1683	2370949	1.07	50:32.0	Ventana	34.166	01:19:39:25	6.913		Labidiasteridae	Rathbunaster			Animalia	Forcipulatida	Echinodermata	Rathbunaster californicus	Asteroidea							Eukaryota		V3167-02
 	transect	Rathbunaster californicus	311.93	3167	01:23:55:14	 	36.826267	-122.16921	2371982	1.07	56:40.0	Ventana	34.165	01:25:46:25	6.925		Labidiasteridae	Rathbunaster			Animalia	Forcipulatida	Echinodermata	Rathbunaster californicus	Asteroidea							Eukaryota		V3167-02
 	transect	Rathbunaster californicus	313	3167	01:17:19:26	 	36.8262	-122.16818	2370799	1.07	50:04.0	Ventana	34.165	01:19:11:07	6.914		Labidiasteridae	Rathbunaster			Animalia	Forcipulatida	Echinodermata	Rathbunaster californicus	Asteroidea							Eukaryota		V3167-02
 	transect	Hydrolagus colliei	309.59	3167	01:15:31:14	 	36.826687	-122.1683	2370446	1.07	48:15.0	Ventana	34.164	01:17:22:03	6.927	Chondrichthyes	Chimaeridae	Hydrolagus			Animalia	Chimaeriformes	Chordata	Hydrolagus colliei	Holocephali			Chimaeroidei	Vertebrata			Eukaryota	Holocephalimorpha	V3167-02
 	transect	Allocentrotus fragilis	306.4	3167	01:26:48:09	 	36.827133	-122.16872	2388299	1.12	59:32.0	Ventana	34.164	01:28:40:14	6.991	Echinoidea	Strongylocentrotidae	Allocentrotus			Animalia	Echinoida	Echinodermata	Allocentrotus fragilis	Euechinoidea			Echinacea				Eukaryota		V3167-02
 	transect	Rathbunaster californicus	319.04	3167	00:19:42:27	 	36.824394	-122.169685	2462408	1.14	52:02.0	Ventana	34.158	00:21:38:07	7.03		Labidiasteridae	Rathbunaster			Animalia	Forcipulatida	Echinodermata	Rathbunaster californicus	Asteroidea							Eukaryota		V3167-01
 	cruise	Liponema brevicornis	302.73	3167	01:46:11:04	 	36.828564	-122.167915	2390894	1.09	18:57.0	Ventana	34.164	01:48:03:06	6.956	Anthozoa	Liponematidae	Liponema			Animalia	Actiniaria	Cnidaria	Liponema brevicornis	Hexacorallia			Nyantheae				Eukaryota		V3167-02
 	transect	Parastichopus leukothele	313	3167	01:17:57:25	 	36.826015	-122.16835	2370979	1.07	50:42.0	Ventana	34.165	01:19:49:19	6.914	Holothuroidea	Stichopodidae	Parastichopus			Animalia	Aspidochirotida	Echinodermata	Parastichopus leukothele	Aspidochirotacea							Eukaryota		V3167-02
 	transect	Rathbunaster californicus	312.59	3167	01:23:47:14	 	36.82622	-122.169235	2371952	1.08	56:32.0	Ventana	34.165	01:25:38:28	6.929		Labidiasteridae	Rathbunaster			Animalia	Forcipulatida	Echinodermata	Rathbunaster californicus	Asteroidea							Eukaryota		V3167-02
 	transect	Allocentrotus fragilis	308.92	3167	01:33:45:26	 	36.827484	-122.16767	2389805	1.07	06:31.0	Ventana	34.166	01:35:38:01	6.926	Echinoidea	Strongylocentrotidae	Allocentrotus			Animalia	Echinoida	Echinodermata	Allocentrotus fragilis	Euechinoidea			Echinacea				Eukaryota		V3167-02
 	transect	Stomphia	319.45	3167	00:27:42:12	 	36.82466	-122.1692	2462761	1.14	00:02.0	Ventana	34.158	00:29:38:15	7.032	Anthozoa	Actinostolidae	Stomphia			Animalia	Actiniaria	Cnidaria		Hexacorallia			Nyantheae				Eukaryota		V3167-01
 	cruise	mud	158.17	3167	02:27:53:20	http://search.mbari.org/ARCHIVE/frameGrabs/Ventana/images/3167/02_29_37_11.jpg	36.83722	-122.1579	2467301	2.73	01:07.0	Ventana	33.924	02:29:37:11	9.41																			V3167-03
 	transect	Allocentrotus fragilis	305.49	3167	01:27:16:08	 	36.82728	-122.16864	2388419	1.1	00:01.0	Ventana	34.163	01:29:07:00	6.962	Echinoidea	Strongylocentrotidae	Allocentrotus			Animalia	Echinoida	Echinodermata	Allocentrotus fragilis	Euechinoidea			Echinacea				Eukaryota		V3167-02
 	transect	Rathbunaster californicus	308.58	3167	01:33:03:27	 	36.827694	-122.16764	2389632	1.08	05:48.0	Ventana	34.165	01:34:54:29	6.927		Labidiasteridae	Rathbunaster			Animalia	Forcipulatida	Echinodermata	Rathbunaster californicus	Asteroidea							Eukaryota		V3167-02
 	transect	Rathbunaster californicus	308.62	3167	01:34:13:25	http://search.mbari.org/ARCHIVE/frameGrabs/Ventana/images/3167/01_36_06_06.jpg	36.827305	-122.167725	2390008	1.08	06:59.0	Ventana	34.165	01:36:06:06	6.933		Labidiasteridae	Rathbunaster			Animalia	Forcipulatida	Echinodermata	Rathbunaster californicus	Asteroidea							Eukaryota		V3167-02
 	transect	Allocentrotus fragilis	313.09	3167	01:18:03:25	 	36.82599	-122.16838	2371002	1.07	50:48.0	Ventana	34.165	01:19:55:02	6.914	Echinoidea	Strongylocentrotidae	Allocentrotus			Animalia	Echinoida	Echinodermata	Allocentrotus fragilis	Euechinoidea			Echinacea				Eukaryota		V3167-02
 	cruise	Parmaturus xaniurus	332.96	3167	00:09:04:02	http://search.mbari.org/ARCHIVE/frameGrabs/Ventana/images/3167/00_11_00_26.jpg	36.82212	-122.17082	2462119	1.11	41:23.0	Ventana	34.161	00:11:00:26	6.966	Chondrichthyes	Scyliorhinidae	Parmaturus			Animalia	Carcharhiniformes	Chordata	Parmaturus xaniurus	Elasmobranchii				Vertebrata			Eukaryota	Galeomorphi	V3167-01
 	starttransect	object	323.38	3167	00:53:10:25	 	36.824383	-122.17063	2463317	1.14	25:32.0	Ventana	34.16	00:55:07:06	7.072																			V3167-01
 	transect	physical object	303.28	3167	01:29:14:19	http://search.mbari.org/ARCHIVE/frameGrabs/Ventana/images/3167/01_31_06_22.jpg	36.827816	-122.168335	2465183	1.12	01:59.0	Ventana	34.159	01:31:06:22	7.03																			V3167-02
 	transect	Rathbunaster californicus	323.17	3167	00:49:42:02	 	36.824467	-122.17071	2463264	1.18	22:03.0	Ventana	34.154	00:51:36:28	7.11		Labidiasteridae	Rathbunaster			Animalia	Forcipulatida	Echinodermata	Rathbunaster californicus	Asteroidea							Eukaryota		V3167-01
 	cruise	Sebastes	309.6	3167	01:35:46:07	 	36.826817	-122.16808	2390744	1.08	08:31.0	Ventana	34.163	01:37:37:25	6.946	Osteichthyes	Scorpaenidae	Sebastes	Neopterygii		Animalia	Scorpaeniformes	Chordata		Actinopterygii			Scorpaenoidei	Vertebrata	Gnathostomata		Eukaryota	Acanthopterygii	V3167-02
 	cruise	Stomphia	322.04	3167	01:04:08:20	 	36.824192	-122.17028	2464383	1.14	36:52.0	Ventana	34.16	01:06:00:15	7.043	Anthozoa	Actinostolidae	Stomphia			Animalia	Actiniaria	Cnidaria		Hexacorallia			Nyantheae				Eukaryota		V3167-02
 	transect	Sebastes	308.9	3167	01:34:07:25	 	36.827343	-122.16771	2389955	1.08	06:53.0	Ventana	34.165	01:35:58:22	6.933	Osteichthyes	Scorpaenidae	Sebastes	Neopterygii		Animalia	Scorpaeniformes	Chordata		Actinopterygii			Scorpaenoidei	Vertebrata	Gnathostomata		Eukaryota	Acanthopterygii	V3167-02
 	transect	Phyllospadix	170.46	3167	02:34:41:22	 	36.837296	-122.15908	2467361	2.68	07:55.0	Ventana	33.939	02:36:25:08	9.345		Zosteraceae	Phyllospadix			Plantae	Najadales										Eukaryota		V3167-03
 	cruise	Parastichopus leukothele	291.17	3167	02:00:23:10	 	36.832474	-122.16494	2467707	1.13	33:35.0	Ventana	34.159	02:02:05:16	7.023	Holothuroidea	Stichopodidae	Parastichopus			Animalia	Aspidochirotida	Echinodermata	Parastichopus leukothele	Aspidochirotacea							Eukaryota		V3167-03
 	transect	Pleuronectiformes	314.7	3167	01:23:15:15	 	36.82603	-122.16932	2371832	1.07	55:59.0	Ventana	34.165	01:25:06:20	6.923	Osteichthyes			Neopterygii		Animalia	Pleuronectiformes	Chordata		Actinopterygii				Vertebrata	Gnathostomata		Eukaryota	Acanthopterygii	V3167-02
 	transect	Rathbunaster californicus	323.17	3167	00:53:28:25	 	36.82436	-122.17061	2463347	1.18	25:50.0	Ventana	34.152	00:55:24:22	7.114		Labidiasteridae	Rathbunaster			Animalia	Forcipulatida	Echinodermata	Rathbunaster californicus	Asteroidea							Eukaryota		V3167-01
 	transect	Allocentrotus fragilis	308.78	3167	01:32:51:12	 	36.827736	-122.16764	2389595	1.08	05:36.0	Ventana	34.165	01:34:43:21	6.93	Echinoidea	Strongylocentrotidae	Allocentrotus			Animalia	Echinoida	Echinodermata	Allocentrotus fragilis	Euechinoidea			Echinacea				Eukaryota		V3167-02
 	transect	Allocentrotus fragilis	313.37	3167	01:23:37:15	 	36.82616	-122.16926	2371922	1.07	56:22.0	Ventana	34.166	01:25:28:13	6.924	Echinoidea	Strongylocentrotidae	Allocentrotus			Animalia	Echinoida	Echinodermata	Allocentrotus fragilis	Euechinoidea			Echinacea				Eukaryota		V3167-02
 	cruise	Metridium farcimen	111.97	3167	03:15:37:20	 	36.84216	-122.14193	2468612	4.86	49:16.0	Ventana	33.515	03:17:16:23	11.234	Anthozoa	Metridiidae	Metridium			Animalia	Actiniaria	Cnidaria	Metridium farcimen	Hexacorallia			Nyantheae				Eukaryota		V3167-04
 	transect	Rathbunaster californicus	309.05	3167	01:34:23:24	 	36.827244	-122.167755	2390038	1.08	07:09.0	Ventana	34.165	01:36:15:11	6.927		Labidiasteridae	Rathbunaster			Animalia	Forcipulatida	Echinodermata	Rathbunaster californicus	Asteroidea							Eukaryota		V3167-02
 	transect	Rathbunaster californicus	315.61	3167	01:19:30:07	 	36.82553	-122.16885	2371295	1.09	52:14.0	Ventana	34.163	01:21:21:17	6.954		Labidiasteridae	Rathbunaster			Animalia	Forcipulatida	Echinodermata	Rathbunaster californicus	Asteroidea							Eukaryota		V3167-02
 	cruise	Pandalus platyceros	273.87	3167	02:05:32:16	 	36.833687	-122.163506	2466558	1.17	38:44.0	Ventana	34.155	02:07:16:00	7.123	Malacostraca	Pandalidae	Pandalus		Caridea	Animalia	Decapoda	Arthropoda	Pandalus platyceros	Eumalacostraca						Pandaloidea	Eukaryota	Eucarida	V3167-03
 	transect	Rathbunaster californicus	318.43	3167	00:36:18:26	 	36.824883	-122.16976	2462971	1.15	08:39.0	Ventana	34.158	00:38:15:04	7.055		Labidiasteridae	Rathbunaster			Animalia	Forcipulatida	Echinodermata	Rathbunaster californicus	Asteroidea							Eukaryota		V3167-01
 	transect	Psolus squamatus	319.07	3167	00:26:04:00	 	36.824505	-122.169464	2462528	1.13	58:24.0	Ventana	34.159	00:27:59:26	7.022	Holothuroidea	Psolidae	Psolus			Animalia	Dendrochirotida	Echinodermata	Psolus squamatus								Eukaryota		V3167-01
 	transect	Rathbunaster californicus	309.65	3167	01:35:26:08	 	36.82688	-122.16798	2390271	1.09	08:11.0	Ventana	34.164	01:37:16:17	6.953		Labidiasteridae	Rathbunaster			Animalia	Forcipulatida	Echinodermata	Rathbunaster californicus	Asteroidea							Eukaryota		V3167-02
 	transect	Sabellida	319.68	3167	00:38:11:08	 	36.824917	-122.17017	2463031	1.15	10:32.0	Ventana	34.155	00:40:07:22	7.058	Polychaeta					Animalia	Sabellida	Annelida		Palpata							Eukaryota	Canalipalpata	V3167-01
 	transect	Rathbunaster californicus	308.83	3167	01:33:57:25	 	36.827408	-122.167694	2389895	1.08	06:43.0	Ventana	34.165	01:35:49:16	6.927		Labidiasteridae	Rathbunaster			Animalia	Forcipulatida	Echinodermata	Rathbunaster californicus	Asteroidea							Eukaryota		V3167-02
 	transect	Sebastes	309.31	3167	01:34:42:09	 	36.82712	-122.1678	2390098	1.08	07:27.0	Ventana	34.165	01:36:32:27	6.933	Osteichthyes	Scorpaenidae	Sebastes	Neopterygii		Animalia	Scorpaeniformes	Chordata		Actinopterygii			Scorpaenoidei	Vertebrata	Gnathostomata		Eukaryota	Acanthopterygii	V3167-02
 	transect	Hippasteria	319.28	3167	00:26:44:14	 	36.824574	-122.16936	2462701	1.14	59:04.0	Ventana	34.158	00:28:41:01	7.04		Goniasteridae	Hippasteria			Animalia	Valvatida	Echinodermata		Asteroidea			Granulosina				Eukaryota		V3167-01
 	cruise	Stylasterias forreri	225.11	3167	02:13:44:16	 	36.835487	-122.160995	2466888	1.64	46:57.0	Ventana	34.109	02:15:27:10	7.936		Asteriidae	Stylasterias			Animalia	Forcipulatida	Echinodermata	Stylasterias forreri	Asteroidea							Eukaryota		V3167-03
 	transect	Rathbunaster californicus	322.55	3167	00:48:17:20	 	36.824673	-122.17084	2463234	1.19	20:39.0	Ventana	34.154	00:50:13:05	7.121		Labidiasteridae	Rathbunaster			Animalia	Forcipulatida	Echinodermata	Rathbunaster californicus	Asteroidea							Eukaryota		V3167-01
 	transect	Rathbunaster californicus	309.18	3167	01:34:32:09	 	36.827194	-122.16777	2390068	1.08	07:17.0	Ventana	34.165	01:36:23:28	6.927		Labidiasteridae	Rathbunaster			Animalia	Forcipulatida	Echinodermata	Rathbunaster californicus	Asteroidea							Eukaryota		V3167-02
 	transect	Rathbunaster californicus	308.74	3167	01:34:01:25	 	36.82738	-122.1677	2389925	1.08	06:47.0	Ventana	34.165	01:35:52:07	6.927		Labidiasteridae	Rathbunaster			Animalia	Forcipulatida	Echinodermata	Rathbunaster californicus	Asteroidea							Eukaryota		V3167-02
 	cruise	cable	307.38	3167	01:37:24:19	 	36.826805	-122.168724	2390774	1.08	10:10.0	Ventana	34.165	01:39:16:14	6.933																			V3167-02
 	transect	Rathbunaster californicus	322.59	3167	00:58:51:15	 	36.82396	-122.17026	2464256	1.15	31:34.0	Ventana	34.157	01:00:43:04	7.062		Labidiasteridae	Rathbunaster			Animalia	Forcipulatida	Echinodermata	Rathbunaster californicus	Asteroidea							Eukaryota		V3167-02
 	transect	Rathbunaster californicus	313.24	3167	01:18:17:24	 	36.825912	-122.16847	2371092	1.08	51:02.0	Ventana	34.161	01:20:09:10	6.953		Labidiasteridae	Rathbunaster			Animalia	Forcipulatida	Echinodermata	Rathbunaster californicus	Asteroidea							Eukaryota		V3167-02
 	cruise	Microstomus pacificus	336	3167	00:06:31:21	 	36.82128	-122.17112	2462029	1.11	38:50.0	Ventana	34.161	00:08:27:14	6.949	Osteichthyes	Pleuronectidae	Microstomus	Neopterygii		Animalia	Pleuronectiformes	Chordata	Microstomus pacificus	Actinopterygii				Vertebrata	Gnathostomata		Eukaryota	Acanthopterygii	V3167-01
 	transect	Allocentrotus fragilis	312.35	3167	01:16:55:27	 	36.826324	-122.16816	2370559	1.07	49:39.0	Ventana	34.166	01:18:46:25	6.915	Echinoidea	Strongylocentrotidae	Allocentrotus			Animalia	Echinoida	Echinodermata	Allocentrotus fragilis	Euechinoidea			Echinacea				Eukaryota		V3167-02
 	transect	Allocentrotus fragilis	305.82	3167	01:27:06:08	 	36.827225	-122.16867	2388359	1.1	59:51.0	Ventana	34.164	01:28:58:15	6.964	Echinoidea	Strongylocentrotidae	Allocentrotus			Animalia	Echinoida	Echinodermata	Allocentrotus fragilis	Euechinoidea			Echinacea				Eukaryota		V3167-02
 	transect	Allocentrotus fragilis	305.15	3167	01:27:36:07	 	36.82738	-122.16859	2388562	1.11	00:21.0	Ventana	34.162	01:29:27:26	6.992	Echinoidea	Strongylocentrotidae	Allocentrotus			Animalia	Echinoida	Echinodermata	Allocentrotus fragilis	Euechinoidea			Echinacea				Eukaryota		V3167-02
 	transect	Allocentrotus fragilis	303.07	3167	01:29:24:19	 	36.827854	-122.168304	2388986	1.14	02:09.0	Ventana	34.159	01:31:17:05	7.042	Echinoidea	Strongylocentrotidae	Allocentrotus			Animalia	Echinoida	Echinodermata	Allocentrotus fragilis	Euechinoidea			Echinacea				Eukaryota		V3167-02
 	transect	Allocentrotus fragilis	318.87	3167	00:37:36:24	 	36.824905	-122.17005	2463001	1.16	09:57.0	Ventana	34.156	00:39:32:23	7.075	Echinoidea	Strongylocentrotidae	Allocentrotus			Animalia	Echinoida	Echinodermata	Allocentrotus fragilis	Euechinoidea			Echinacea				Eukaryota		V3167-01
 	transect	Stomphia	313.17	3167	01:18:07:24	 	36.82597	-122.1684	2371062	1.07	50:52.0	Ventana	34.165	01:20:00:15	6.914	Anthozoa	Actinostolidae	Stomphia			Animalia	Actiniaria	Cnidaria		Hexacorallia			Nyantheae				Eukaryota		V3167-02
 	cruise	Swiftia simplex	110.56	3167	03:30:17:08	http://search.mbari.org/ARCHIVE/frameGrabs/Ventana/images/3167/03_31_57_00.jpg	36.843155	-122.138565	2470873	4.56	03:57.0	Ventana	33.551	03:31:57:00	11.081	Anthozoa	Plexauridae	Swiftia			Animalia	Gorgonacea	Cnidaria		Octocorallia			Holaxonia				Eukaryota		V3167-04
 	transect	Rathbunaster californicus	314.81	3167	01:23:21:15	 	36.82606	-122.169304	2371862	1.07	56:05.0	Ventana	34.165	01:25:12:08	6.923		Labidiasteridae	Rathbunaster			Animalia	Forcipulatida	Echinodermata	Rathbunaster californicus	Asteroidea							Eukaryota		V3167-02
 	cruise	Pleuronectiformes	246.95	3167	02:10:27:22	http://search.mbari.org/ARCHIVE/frameGrabs/Ventana/images/3167/02_12_10_14.jpg	36.83482	-122.16197	2466858	1.55	43:40.0	Ventana	34.12	02:12:10:14	7.797	Osteichthyes			Neopterygii		Animalia	Pleuronectiformes	Chordata		Actinopterygii				Vertebrata	Gnathostomata		Eukaryota	Acanthopterygii	V3167-03
 	cruise	Stylasterias forreri	284.51	3167	02:02:29:22	 	36.833008	-122.16439	2466468	1.14	35:42.0	Ventana	34.158	02:04:12:15	7.049		Asteriidae	Stylasterias			Animalia	Forcipulatida	Echinodermata	Stylasterias forreri	Asteroidea							Eukaryota		V3167-03
 	transect	Ceriantharia sp. 3	313.66	3167	01:18:54:08	 	36.82573	-122.16868	2371205	1.1	51:38.0	Ventana	34.163	01:20:44:23	6.956	Anthozoa					Animalia	Ceriantharia	Cnidaria		Ceriantipatharia							Eukaryota		V3167-02
 	transect	Rathbunaster californicus	308.91	3167	01:33:51:26	 	36.827446	-122.16769	2389858	1.07	06:37.0	Ventana	34.166	01:35:43:19	6.926		Labidiasteridae	Rathbunaster			Animalia	Forcipulatida	Echinodermata	Rathbunaster californicus	Asteroidea							Eukaryota		V3167-02
 	transect	Rathbunaster californicus	313.07	3167	01:17:31:25	 	36.82614	-122.16822	2370882	1.07	50:16.0	Ventana	34.166	01:19:22:05	6.912		Labidiasteridae	Rathbunaster			Animalia	Forcipulatida	Echinodermata	Rathbunaster californicus	Asteroidea							Eukaryota		V3167-02
 	transect	Sebastes	306.38	3167	01:26:46:09	 	36.82712	-122.168724	2388292	1.12	59:30.0	Ventana	34.164	01:28:37:21	6.991	Osteichthyes	Scorpaenidae	Sebastes	Neopterygii		Animalia	Scorpaeniformes	Chordata		Actinopterygii			Scorpaenoidei	Vertebrata	Gnathostomata		Eukaryota	Acanthopterygii	V3167-02
 	transect	Rathbunaster californicus	309.53	3167	01:35:10:08	 	36.826958	-122.16791	2390211	1.08	07:55.0	Ventana	34.163	01:37:01:07	6.95		Labidiasteridae	Rathbunaster			Animalia	Forcipulatida	Echinodermata	Rathbunaster californicus	Asteroidea							Eukaryota		V3167-02
 	transect	Ceriantharia sp. 3	311.81	3167	01:24:03:13	 	36.826313	-122.16919	2372019	1.07	56:48.0	Ventana	34.165	01:25:54:21	6.925	Anthozoa					Animalia	Ceriantharia	Cnidaria		Ceriantipatharia							Eukaryota		V3167-02
 	transect	Rathbunaster californicus	315.77	3167	01:22:37:01	 	36.8258	-122.16942	2371696	1.08	55:21.0	Ventana	34.164	01:24:29:02	6.938		Labidiasteridae	Rathbunaster			Animalia	Forcipulatida	Echinodermata	Rathbunaster californicus	Asteroidea							Eukaryota		V3167-02
 	transect	Rathbunaster californicus	315.82	3167	01:19:34:07	 	36.825512	-122.16888	2371343	1.09	52:18.0	Ventana	34.163	01:21:26:05	6.954		Labidiasteridae	Rathbunaster			Animalia	Forcipulatida	Echinodermata	Rathbunaster californicus	Asteroidea							Eukaryota		V3167-02
 	transect	Rathbunaster californicus	309.01	3167	01:34:56:08	 	36.827038	-122.16785	2390151	1.08	07:41.0	Ventana	34.164	01:36:48:12	6.94		Labidiasteridae	Rathbunaster			Animalia	Forcipulatida	Echinodermata	Rathbunaster californicus	Asteroidea							Eukaryota		V3167-02
 	transect	Allocentrotus fragilis	308.95	3167	01:33:43:26	 	36.827496	-122.16767	2389798	1.07	06:29.0	Ventana	34.166	01:35:35:11	6.926	Echinoidea	Strongylocentrotidae	Allocentrotus			Animalia	Echinoida	Echinodermata	Allocentrotus fragilis	Euechinoidea			Echinacea				Eukaryota		V3167-02
 	transect	Rathbunaster californicus	309.63	3167	01:35:14:08	 	36.826935	-122.16792	2390241	1.08	07:59.0	Ventana	34.163	01:37:06:09	6.95		Labidiasteridae	Rathbunaster			Animalia	Forcipulatida	Echinodermata	Rathbunaster californicus	Asteroidea							Eukaryota		V3167-02
 	transect	Sebastes	308.95	3167	01:25:35:26	 	36.8268	-122.16891	2372785	1.11	58:20.0	Ventana	34.161	01:27:26:23	6.98	Osteichthyes	Scorpaenidae	Sebastes	Neopterygii		Animalia	Scorpaeniformes	Chordata		Actinopterygii			Scorpaenoidei	Vertebrata	Gnathostomata		Eukaryota	Acanthopterygii	V3167-02
 	cruise	Glyptocephalus zachirus	316.96	3167	01:07:55:14	 	36.82549	-122.169655	2464519	1.13	40:39.0	Ventana	34.16	01:09:47:05	7.017	Osteichthyes	Pleuronectidae	Glyptocephalus	Neopterygii		Animalia	Pleuronectiformes	Chordata		Actinopterygii				Vertebrata	Gnathostomata		Eukaryota	Acanthopterygii	V3167-02
 	transect	Allocentrotus fragilis	309.56	3167	01:25:03:27	 	36.82665	-122.169	2372741	1.09	57:48.0	Ventana	34.165	01:26:54:16	6.968	Echinoidea	Strongylocentrotidae	Allocentrotus			Animalia	Echinoida	Echinodermata	Allocentrotus fragilis	Euechinoidea			Echinacea				Eukaryota		V3167-02
 	transect	Rathbunaster californicus	311.34	3167	01:24:17:13	 	36.826393	-122.16915	2372095	1.08	57:02.0	Ventana	34.164	01:26:09:25	6.927		Labidiasteridae	Rathbunaster			Animalia	Forcipulatida	Echinodermata	Rathbunaster californicus	Asteroidea							Eukaryota		V3167-02
 	transect	Allocentrotus fragilis	306.58	3167	01:26:42:09	 	36.827103	-122.16873	2388262	1.12	59:26.0	Ventana	34.164	01:28:33:08	6.991	Echinoidea	Strongylocentrotidae	Allocentrotus			Animalia	Echinoida	Echinodermata	Allocentrotus fragilis	Euechinoidea			Echinacea				Eukaryota		V3167-02
 	transect	Rathbunaster californicus	316.47	3167	01:22:05:02	 	36.82563	-122.169495	2371606	1.09	54:49.0	Ventana	34.164	01:23:57:01	6.958		Labidiasteridae	Rathbunaster			Animalia	Forcipulatida	Echinodermata	Rathbunaster californicus	Asteroidea							Eukaryota		V3167-02
 	cruise	Rathbunaster californicus	107.58	3167	03:44:44:27	 	36.84568	-122.13455	2471041	4.85	18:25.0	Ventana	33.508	03:46:24:12	11.222		Labidiasteridae	Rathbunaster			Animalia	Forcipulatida	Echinodermata	Rathbunaster californicus	Asteroidea							Eukaryota		V3167-04
 	transect	Allocentrotus fragilis	312.46	3167	01:16:59:27	 	36.8263	-122.16816	2370589	1.07	49:43.0	Ventana	34.166	01:18:51:10	6.915	Echinoidea	Strongylocentrotidae	Allocentrotus			Animalia	Echinoida	Echinodermata	Allocentrotus fragilis	Euechinoidea			Echinacea				Eukaryota		V3167-02
 	transect	Allocentrotus fragilis	306.88	3167	01:26:32:09	 	36.827057	-122.168755	2372988	1.17	59:16.0	Ventana	34.157	01:28:24:13	7.079	Echinoidea	Strongylocentrotidae	Allocentrotus			Animalia	Echinoida	Echinodermata	Allocentrotus fragilis	Euechinoidea			Echinacea				Eukaryota		V3167-02
 	transect	Sebastes	312.25	3167	01:23:51:14	 	36.826244	-122.16923	2371959	1.08	56:36.0	Ventana	34.165	01:25:42:08	6.929	Osteichthyes	Scorpaenidae	Sebastes	Neopterygii		Animalia	Scorpaeniformes	Chordata		Actinopterygii			Scorpaenoidei	Vertebrata	Gnathostomata		Eukaryota	Acanthopterygii	V3167-02
 	transect	Sebastes	319.82	3167	00:18:48:14	http://search.mbari.org/ARCHIVE/frameGrabs/Ventana/images/3167/00_20_44_10.jpg	36.824352	-122.16983	2462355	1.13	51:08.0	Ventana	34.16	00:20:44:10	7.011	Osteichthyes	Scorpaenidae	Sebastes	Neopterygii		Animalia	Scorpaeniformes	Chordata		Actinopterygii			Scorpaenoidei	Vertebrata	Gnathostomata		Eukaryota	Acanthopterygii	V3167-01
 	cruise	Pleurobranchaea californica	102.29	3167	04:05:12:27	 	36.84982	-122.12546	2471793	5.02	39:15.0	Ventana	33.48	04:06:47:08	11.285	Gastropoda	Pleurobranchidae	Pleurobranchaea			Animalia	Notaspidea	Mollusca	Pleurobranchaea californica	Opisthobranchia						Pleurobranchiacea	Eukaryota		V3167-05
 	cruise	Merluccius productus	303.57	3167	01:46:39:03	 	36.82871	-122.16784	2390901	1.1	19:25.0	Ventana	34.162	01:48:31:12	6.984	Osteichthyes	Merlucciidae	Merluccius	Neopterygii		Animalia	Gadiformes	Chordata	Merluccius productus	Actinopterygii				Vertebrata	Gnathostomata		Eukaryota	Paracanthopterygii	V3167-02
 	transect	Allocentrotus fragilis	310.48	3167	01:24:45:27	 	36.826546	-122.16907	2372711	1.08	57:30.0	Ventana	34.165	01:26:36:22	6.934	Echinoidea	Strongylocentrotidae	Allocentrotus			Animalia	Echinoida	Echinodermata	Allocentrotus fragilis	Euechinoidea			Echinacea				Eukaryota		V3167-02
 	transect	Rathbunaster californicus	316.7	3167	01:21:57:03	 	36.825592	-122.1695	2371576	1.09	54:41.0	Ventana	34.164	01:23:48:28	6.958		Labidiasteridae	Rathbunaster			Animalia	Forcipulatida	Echinodermata	Rathbunaster californicus	Asteroidea							Eukaryota		V3167-02
 	cruise	cable	110.64	3167	03:16:38:04	http://search.mbari.org/ARCHIVE/frameGrabs/Ventana/images/3167/03_18_17_19.jpg	36.8423	-122.14147	2468619	4.84	50:16.0	Ventana	33.519	03:18:17:19	11.22																			V3167-04
 	transect	Rathbunaster californicus	313.09	3167	01:23:39:14	 	36.82617	-122.16926	2371929	1.08	56:24.0	Ventana	34.165	01:25:30:15	6.929		Labidiasteridae	Rathbunaster			Animalia	Forcipulatida	Echinodermata	Rathbunaster californicus	Asteroidea							Eukaryota		V3167-02
 	transect	Rathbunaster californicus	312.94	3167	01:18:34:09	 	36.825832	-122.168564	2371145	1.1	51:18.0	Ventana	34.16	01:20:25:12	6.984		Labidiasteridae	Rathbunaster			Animalia	Forcipulatida	Echinodermata	Rathbunaster californicus	Asteroidea							Eukaryota		V3167-02
 	transect	Allocentrotus fragilis	305.98	3167	01:26:56:08	 	36.827175	-122.16869	2388322	1.1	59:41.0	Ventana	34.164	01:28:47:24	6.964	Echinoidea	Strongylocentrotidae	Allocentrotus			Animalia	Echinoida	Echinodermata	Allocentrotus fragilis	Euechinoidea			Echinacea				Eukaryota		V3167-02
 	transect	Rathbunaster californicus	308.88	3167	01:32:59:27	 	36.827705	-122.16764	2389625	1.08	05:44.0	Ventana	34.165	01:34:51:16	6.927		Labidiasteridae	Rathbunaster			Animalia	Forcipulatida	Echinodermata	Rathbunaster californicus	Asteroidea							Eukaryota		V3167-02
 	transect	Sebastes	305.16	3167	01:27:24:07	 	36.82732	-122.16862	2388495	1.11	00:09.0	Ventana	34.162	01:29:16:10	6.992	Osteichthyes	Scorpaenidae	Sebastes	Neopterygii		Animalia	Scorpaeniformes	Chordata		Actinopterygii			Scorpaenoidei	Vertebrata	Gnathostomata		Eukaryota	Acanthopterygii	V3167-02
 	cruise	cable	308.09	3167	01:53:38:20	http://search.mbari.org/ARCHIVE/frameGrabs/Ventana/images/3167/01_55_29_16.jpg	36.83056	-122.16662	2465513	1.09	26:25.0	Ventana	34.164	01:55:29:16	6.951																			V3167-02
 	transect	Hippasteria	312.96	3167	01:17:55:25	 	36.826023	-122.168335	2370972	1.07	50:40.0	Ventana	34.165	01:19:48:01	6.914		Goniasteridae	Hippasteria			Animalia	Valvatida	Echinodermata		Asteroidea			Granulosina				Eukaryota		V3167-02
 	transect	Rathbunaster californicus	313.26	3167	01:18:44:08	 	36.825783	-122.168625	2371175	1.11	51:28.0	Ventana	34.161	01:20:35:01	6.99		Labidiasteridae	Rathbunaster			Animalia	Forcipulatida	Echinodermata	Rathbunaster californicus	Asteroidea							Eukaryota		V3167-02
 	endtransect	object	323.82	3167	00:50:10:01	 	36.824432	-122.17068	2463287	1.17	22:31.0	Ventana	34.155	00:52:06:09	7.103																			V3167-01
 	cruise	Rathbunaster californicus	110.21	3167	03:19:04:14	 	36.842648	-122.140335	2468649	4.61	52:43.0	Ventana	33.554	03:20:44:05	11.103		Labidiasteridae	Rathbunaster			Animalia	Forcipulatida	Echinodermata	Rathbunaster californicus	Asteroidea							Eukaryota		V3167-04
 	cruise	Metridium farcimen	137.48	3167	02:48:41:11	 	36.838257	-122.154594	2467497	2.92	21:56.0	Ventana	33.865	02:50:23:06	9.645	Anthozoa	Metridiidae	Metridium			Animalia	Actiniaria	Cnidaria	Metridium farcimen	Hexacorallia			Nyantheae				Eukaryota		V3167-03
 	cruise	Sebastes	323.37	3167	00:15:23:20	 	36.824005	-122.17025	2462212	1.11	47:43.0	Ventana	34.16	00:17:19:05	6.979	Osteichthyes	Scorpaenidae	Sebastes	Neopterygii		Animalia	Scorpaeniformes	Chordata		Actinopterygii			Scorpaenoidei	Vertebrata	Gnathostomata		Eukaryota	Acanthopterygii	V3167-01
 	transect	Rathbunaster californicus	308.92	3167	01:33:45:26	 	36.827484	-122.16767	2389828	1.07	06:31.0	Ventana	34.166	01:35:38:01	6.926		Labidiasteridae	Rathbunaster			Animalia	Forcipulatida	Echinodermata	Rathbunaster californicus	Asteroidea							Eukaryota		V3167-02
 	transect	Rathbunaster californicus	310.65	3167	01:24:35:28	 	36.826492	-122.1691	2372681	1.08	57:20.0	Ventana	34.165	01:26:27:05	6.93		Labidiasteridae	Rathbunaster			Animalia	Forcipulatida	Echinodermata	Rathbunaster californicus	Asteroidea							Eukaryota		V3167-02
 	cruise	cable	330.75	3167	00:10:14:14	http://search.mbari.org/ARCHIVE/frameGrabs/Ventana/images/3167/00_12_11_09.jpg	36.82241	-122.17069	2462142	1.11	42:33.0	Ventana	34.165	00:12:11:09	6.96																			V3167-01
 	cruise	Parastichopus leukothele	315.56	3167	01:08:47:27	 	36.82576	-122.169495	2464549	1.11	41:31.0	Ventana	34.16	01:10:39:23	6.996	Holothuroidea	Stichopodidae	Parastichopus			Animalia	Aspidochirotida	Echinodermata	Parastichopus leukothele	Aspidochirotacea							Eukaryota		V3167-02
 	cruise	Rathbunaster californicus	98.17	3167	04:20:04:15	http://search.mbari.org/ARCHIVE/frameGrabs/Ventana/images/3167/04_21_40_04.jpg	36.853024	-122.11842	2471966	5.02	54:08.0	Ventana	33.484	04:21:40:04	11.283		Labidiasteridae	Rathbunaster			Animalia	Forcipulatida	Echinodermata	Rathbunaster californicus	Asteroidea							Eukaryota		V3167-05
 	cruise	Mediaster aequalis	294.12	3167	01:59:22:27	 	36.832203	-122.165184	2467700	1.13	32:35.0	Ventana	34.16	02:01:05:23	7.025		Goniasteridae	Mediaster			Animalia	Valvatida	Echinodermata	Mediaster aequalis	Asteroidea			Granulosina				Eukaryota		V3167-03
 	transect	Sebastes	305.36	3167	01:27:18:07	http://search.mbari.org/ARCHIVE/frameGrabs/Ventana/images/3167/01_29_09_12.jpg	36.82729	-122.16863	2388442	1.1	00:03.0	Ventana	34.163	01:29:09:12	6.962	Osteichthyes	Scorpaenidae	Sebastes	Neopterygii		Animalia	Scorpaeniformes	Chordata		Actinopterygii			Scorpaenoidei	Vertebrata	Gnathostomata		Eukaryota	Acanthopterygii	V3167-02
 	transect	Rathbunaster californicus	308.41	3167	01:33:09:27	 	36.827675	-122.16765	2389655	1.08	05:54.0	Ventana	34.166	01:35:00:05	6.926		Labidiasteridae	Rathbunaster			Animalia	Forcipulatida	Echinodermata	Rathbunaster californicus	Asteroidea							Eukaryota		V3167-02
 	cruise	Rathbunaster californicus	102.01	3167	04:06:35:10	 	36.85009	-122.12481	2471853	5.04	40:38.0	Ventana	33.48	04:08:10:22	11.288		Labidiasteridae	Rathbunaster			Animalia	Forcipulatida	Echinodermata	Rathbunaster californicus	Asteroidea							Eukaryota		V3167-05
 	transect	Rathbunaster californicus	314.62	3167	01:23:23:15	 	36.826073	-122.1693	2371869	1.07	56:07.0	Ventana	34.165	01:25:13:28	6.923		Labidiasteridae	Rathbunaster			Animalia	Forcipulatida	Echinodermata	Rathbunaster californicus	Asteroidea							Eukaryota		V3167-02
 	transect	Rathbunaster californicus	318.53	3167	00:37:20:25	 	36.8249	-122.16999	2462994	1.16	09:41.0	Ventana	34.156	00:39:17:21	7.077		Labidiasteridae	Rathbunaster			Animalia	Forcipulatida	Echinodermata	Rathbunaster californicus	Asteroidea							Eukaryota		V3167-01
 	transect	Rathbunaster californicus	322.87	3167	00:53:52:24	 	36.824326	-122.17057	2463370	1.17	26:14.0	Ventana	34.155	00:55:49:28	7.097		Labidiasteridae	Rathbunaster			Animalia	Forcipulatida	Echinodermata	Rathbunaster californicus	Asteroidea							Eukaryota		V3167-01
 	transect	Rathbunaster californicus	313.13	3167	01:18:05:25	 	36.825977	-122.168396	2371055	1.07	50:50.0	Ventana	34.165	01:19:58:09	6.914		Labidiasteridae	Rathbunaster			Animalia	Forcipulatida	Echinodermata	Rathbunaster californicus	Asteroidea							Eukaryota		V3167-02
 	transect	Rathbunaster californicus	314.7	3167	01:23:15:15	 	36.82603	-122.16932	2371839	1.07	55:59.0	Ventana	34.165	01:25:06:20	6.923		Labidiasteridae	Rathbunaster			Animalia	Forcipulatida	Echinodermata	Rathbunaster californicus	Asteroidea							Eukaryota		V3167-02
 	transect	Sebastes	308.62	3167	01:34:11:25	 	36.82732	-122.167725	2389978	1.08	06:57.0	Ventana	34.165	01:36:02:14	6.933	Osteichthyes	Scorpaenidae	Sebastes	Neopterygii		Animalia	Scorpaeniformes	Chordata		Actinopterygii			Scorpaenoidei	Vertebrata	Gnathostomata		Eukaryota	Acanthopterygii	V3167-02
 	transect	Sabellida	318.55	3167	00:35:56:12	 	36.824875	-122.169685	2462964	1.14	08:17.0	Ventana	34.158	00:37:53:21	7.036	Polychaeta					Animalia	Sabellida	Annelida		Palpata							Eukaryota	Canalipalpata	V3167-01
 	transect	Allocentrotus fragilis	305.49	3167	01:27:16:08	 	36.82728	-122.16864	2388412	1.1	00:01.0	Ventana	34.163	01:29:07:00	6.962	Echinoidea	Strongylocentrotidae	Allocentrotus			Animalia	Echinoida	Echinodermata	Allocentrotus fragilis	Euechinoidea			Echinacea				Eukaryota		V3167-02
 	transect	Rathbunaster californicus	309.07	3167	01:34:19:25	 	36.827267	-122.16774	2390031	1.08	07:05.0	Ventana	34.165	01:36:12:00	6.933		Labidiasteridae	Rathbunaster			Animalia	Forcipulatida	Echinodermata	Rathbunaster californicus	Asteroidea							Eukaryota		V3167-02
 	cruise	Stylasterias forreri	320.26	3167	01:04:50:19	 	36.824413	-122.17022	2464406	1.13	37:34.0	Ventana	34.159	01:06:42:13	7.029		Asteriidae	Stylasterias			Animalia	Forcipulatida	Echinodermata	Stylasterias forreri	Asteroidea							Eukaryota		V3167-02
 	cruise	Mediaster aequalis	105.81	3167	03:53:14:26	 	36.847218	-122.13099	2471071	4.93	26:55.0	Ventana	33.495	03:54:55:07	11.251		Goniasteridae	Mediaster			Animalia	Valvatida	Echinodermata	Mediaster aequalis	Asteroidea			Granulosina				Eukaryota		V3167-04
 	transect	Allocentrotus fragilis	303.17	3167	01:29:18:19	 	36.82783	-122.16832	2388963	1.12	02:03.0	Ventana	34.159	01:31:10:23	7.03	Echinoidea	Strongylocentrotidae	Allocentrotus			Animalia	Echinoida	Echinodermata	Allocentrotus fragilis	Euechinoidea			Echinacea				Eukaryota		V3167-02
 	transect	Parastichopus leukothele	308.79	3167	01:32:55:12	 	36.827724	-122.16764	2389602	1.08	05:40.0	Ventana	34.165	01:34:48:01	6.927	Holothuroidea	Stichopodidae	Parastichopus			Animalia	Aspidochirotida	Echinodermata	Parastichopus leukothele	Aspidochirotacea							Eukaryota		V3167-02
 	transect	Phyllospadix	158.87	3167	02:27:01:21	 	36.83711	-122.15789	2467271	2.73	00:15.0	Ventana	33.926	02:28:43:18	9.403		Zosteraceae	Phyllospadix			Plantae	Najadales										Eukaryota		V3167-03
 	transect	Rathbunaster californicus	313.83	3167	01:23:31:15	 	36.826122	-122.16928	2371899	1.07	56:15.0	Ventana	34.166	01:25:22:05	6.924		Labidiasteridae	Rathbunaster			Animalia	Forcipulatida	Echinodermata	Rathbunaster californicus	Asteroidea							Eukaryota		V3167-02
 	transect	Sebastes	308.9	3167	01:34:07:25	 	36.827343	-122.16771	2389948	1.08	06:53.0	Ventana	34.165	01:35:58:22	6.933	Osteichthyes	Scorpaenidae	Sebastes	Neopterygii		Animalia	Scorpaeniformes	Chordata		Actinopterygii			Scorpaenoidei	Vertebrata	Gnathostomata		Eukaryota	Acanthopterygii	V3167-02
 	transect	Rathbunaster californicus	322.94	3167	00:49:10:03	 	36.824528	-122.17075	2463257	1.18	21:31.0	Ventana	34.154	00:51:06:22	7.113		Labidiasteridae	Rathbunaster			Animalia	Forcipulatida	Echinodermata	Rathbunaster californicus	Asteroidea							Eukaryota		V3167-01
 	transect	Allocentrotus fragilis	306.89	3167	01:26:30:09	 	36.827053	-122.16876	2372965	1.17	59:14.0	Ventana	34.157	01:28:22:11	7.079	Echinoidea	Strongylocentrotidae	Allocentrotus			Animalia	Echinoida	Echinodermata	Allocentrotus fragilis	Euechinoidea			Echinacea				Eukaryota		V3167-02
 	cruise	Phyllospadix	110.57	3167	03:31:15:22	 	36.843327	-122.13843	2470926	4.58	04:55.0	Ventana	33.549	03:32:55:24	11.09		Zosteraceae	Phyllospadix			Plantae	Najadales										Eukaryota		V3167-04
 	transect	Stylasterias forreri	305.82	3167	01:27:06:08	 	36.827225	-122.16867	2388352	1.1	59:51.0	Ventana	34.164	01:28:58:15	6.964		Asteriidae	Stylasterias			Animalia	Forcipulatida	Echinodermata	Stylasterias forreri	Asteroidea							Eukaryota		V3167-02
 	transect	Rathbunaster californicus	322.64	3167	00:58:57:15	 	36.82395	-122.17024	2464263	1.14	31:40.0	Ventana	34.157	01:00:49:17	7.047		Labidiasteridae	Rathbunaster			Animalia	Forcipulatida	Echinodermata	Rathbunaster californicus	Asteroidea							Eukaryota		V3167-02
 	transect	Allocentrotus fragilis	312.35	3167	01:16:55:27	 	36.826324	-122.16816	2370566	1.07	49:39.0	Ventana	34.166	01:18:46:25	6.915	Echinoidea	Strongylocentrotidae	Allocentrotus			Animalia	Echinoida	Echinodermata	Allocentrotus fragilis	Euechinoidea			Echinacea				Eukaryota		V3167-02
 	transect	Rathbunaster californicus	308.74	3167	01:34:01:25	 	36.82738	-122.1677	2389918	1.08	06:47.0	Ventana	34.165	01:35:52:07	6.927		Labidiasteridae	Rathbunaster			Animalia	Forcipulatida	Echinodermata	Rathbunaster californicus	Asteroidea							Eukaryota		V3167-02
 	cruise	Mediaster aequalis	236.7	3167	02:12:02:04	 	36.835175	-122.16148	2466865	1.61	45:14.0	Ventana	34.111	02:13:44:04	7.903		Goniasteridae	Mediaster			Animalia	Valvatida	Echinodermata	Mediaster aequalis	Asteroidea			Granulosina				Eukaryota		V3167-03
 	cruise	Rathbunaster californicus	308.97	3167	01:36:10:21	 	36.826782	-122.168236	2390751	1.08	08:55.0	Ventana	34.166	01:38:01:19	6.926		Labidiasteridae	Rathbunaster			Animalia	Forcipulatida	Echinodermata	Rathbunaster californicus	Asteroidea							Eukaryota		V3167-02
 	transect	Rathbunaster californicus	320.27	3167	00:18:24:14	 	36.82432	-122.169914	2462302	1.12	50:44.0	Ventana	34.161	00:20:20:20	6.992		Labidiasteridae	Rathbunaster			Animalia	Forcipulatida	Echinodermata	Rathbunaster californicus	Asteroidea							Eukaryota		V3167-01
 	transect	Rathbunaster californicus	315.37	3167	01:19:24:07	 	36.82556	-122.16882	2371288	1.09	52:08.0	Ventana	34.163	01:21:15:14	6.954		Labidiasteridae	Rathbunaster			Animalia	Forcipulatida	Echinodermata	Rathbunaster californicus	Asteroidea							Eukaryota		V3167-02
 	cruise	Stylasterias forreri	322.12	3167	00:47:05:07	 	36.82482	-122.17078	2463227	1.18	19:26.0	Ventana	34.152	00:49:02:02	7.119		Asteriidae	Stylasterias			Animalia	Forcipulatida	Echinodermata	Stylasterias forreri	Asteroidea							Eukaryota		V3167-01
 	transect	Rathbunaster californicus	309.11	3167	01:34:48:08	 	36.827087	-122.16782	2390121	1.08	07:33.0	Ventana	34.165	01:36:38:27	6.933		Labidiasteridae	Rathbunaster			Animalia	Forcipulatida	Echinodermata	Rathbunaster californicus	Asteroidea							Eukaryota		V3167-02
 	transect	Rathbunaster californicus	308.83	3167	01:33:57:25	 	36.827408	-122.167694	2389888	1.08	06:43.0	Ventana	34.165	01:35:49:16	6.927		Labidiasteridae	Rathbunaster			Animalia	Forcipulatida	Echinodermata	Rathbunaster californicus	Asteroidea							Eukaryota		V3167-02
 	transect	Allocentrotus fragilis	305.09	3167	01:27:32:07	 	36.827362	-122.168594	2388555	1.11	00:17.0	Ventana	34.162	01:29:22:20	6.992	Echinoidea	Strongylocentrotidae	Allocentrotus			Animalia	Echinoida	Echinodermata	Allocentrotus fragilis	Euechinoidea			Echinacea				Eukaryota		V3167-02
 	transect	Stomphia	305.18	3167	01:27:42:07	http://search.mbari.org/ARCHIVE/frameGrabs/Ventana/images/3167/01_29_34_26.jpg	36.827415	-122.168564	2388585	1.12	00:27.0	Ventana	34.159	01:29:34:26	7.026	Anthozoa	Actinostolidae	Stomphia			Animalia	Actiniaria	Cnidaria		Hexacorallia			Nyantheae				Eukaryota		V3167-02
 	transect	Stomphia	321.8	3167	00:45:49:09	 	36.824844	-122.17053	2463197	1.14	18:10.0	Ventana	34.158	00:47:45:13	7.038	Anthozoa	Actinostolidae	Stomphia			Animalia	Actiniaria	Cnidaria		Hexacorallia			Nyantheae				Eukaryota		V3167-01
 	transect	Rathbunaster californicus	313.23	3167	01:18:15:24	 	36.825924	-122.168465	2371085	1.08	51:00.0	Ventana	34.161	01:20:08:05	6.953		Labidiasteridae	Rathbunaster			Animalia	Forcipulatida	Echinodermata	Rathbunaster californicus	Asteroidea							Eukaryota		V3167-02
 	transect	Rathbunaster californicus	309.6	3167	01:35:20:08	 	36.82691	-122.167946	2390264	1.08	08:05.0	Ventana	34.163	01:37:12:07	6.95		Labidiasteridae	Rathbunaster			Animalia	Forcipulatida	Echinodermata	Rathbunaster californicus	Asteroidea							Eukaryota		V3167-02
 	transect	Allocentrotus fragilis	308.76	3167	01:33:23:27	 	36.82762	-122.167656	2389715	1.08	06:08.0	Ventana	34.166	01:35:15:24	6.925	Echinoidea	Strongylocentrotidae	Allocentrotus			Animalia	Echinoida	Echinodermata	Allocentrotus fragilis	Euechinoidea			Echinacea				Eukaryota		V3167-02
 	transect	Rathbunaster californicus	309.27	3167	01:34:38:09	 	36.82714	-122.16779	2390091	1.08	07:23.0	Ventana	34.165	01:36:29:19	6.933		Labidiasteridae	Rathbunaster			Animalia	Forcipulatida	Echinodermata	Rathbunaster californicus	Asteroidea							Eukaryota		V3167-02
 	transect	Rathbunaster californicus	322.93	3167	00:54:15:08	 	36.824295	-122.17053	2463400	1.17	26:36.0	Ventana	34.155	00:56:10:11	7.09		Labidiasteridae	Rathbunaster			Animalia	Forcipulatida	Echinodermata	Rathbunaster californicus	Asteroidea							Eukaryota		V3167-01
 	transect	Stomphia	304.79	3167	01:28:24:20	 	36.827618	-122.16845	2388758	1.1	01:09.0	Ventana	34.162	01:30:15:04	6.963	Anthozoa	Actinostolidae	Stomphia			Animalia	Actiniaria	Cnidaria		Hexacorallia			Nyantheae				Eukaryota		V3167-02
 	transect	Eptatretus stoutii	319.47	3167	00:38:03:09	http://search.mbari.org/ARCHIVE/frameGrabs/Ventana/images/3167/00_39_59_13.jpg	36.824917	-122.17014	2463024	1.15	10:24.0	Ventana	34.155	00:39:59:13	7.058	Agnatha		Eptatretus			Animalia		Chordata						Vertebrata			Eukaryota		V3167-01
 	transect	Allocentrotus fragilis	312.59	3167	01:23:47:14	 	36.82622	-122.169235	2464925	1.08	56:32.0	Ventana	34.165	01:25:37:28	6.929	Echinoidea	Strongylocentrotidae	Allocentrotus			Animalia	Echinoida	Echinodermata	Allocentrotus fragilis	Euechinoidea			Echinacea				Eukaryota		V3167-02
 	transect	Rathbunaster californicus	319.42	3167	00:19:18:13	 	36.82438	-122.16974	2462392	1.14	51:38.0	Ventana	34.158	00:21:14:13	7.025		Labidiasteridae	Rathbunaster			Animalia	Forcipulatida	Echinodermata	Rathbunaster californicus	Asteroidea							Eukaryota		V3167-01
 	transect	Allocentrotus fragilis	305.03	3167	01:28:02:21	 	36.827515	-122.16851	2388638	1.16	00:47.0	Ventana	34.154	01:29:53:13	7.099	Echinoidea	Strongylocentrotidae	Allocentrotus			Animalia	Echinoida	Echinodermata	Allocentrotus fragilis	Euechinoidea			Echinacea				Eukaryota		V3167-02
 	transect	Allocentrotus fragilis	310.49	3167	01:24:41:27	 	36.826527	-122.169075	2372702	1.08	57:26.0	Ventana	34.165	01:26:33:24	6.934	Echinoidea	Strongylocentrotidae	Allocentrotus			Animalia	Echinoida	Echinodermata	Allocentrotus fragilis	Euechinoidea			Echinacea				Eukaryota		V3167-02
 	transect	Rathbunaster californicus	309.24	3167	01:34:44:09	 	36.82711	-122.16781	2390112	1.08	07:29.0	Ventana	34.165	01:36:35:11	6.933		Labidiasteridae	Rathbunaster			Animalia	Forcipulatida	Echinodermata	Rathbunaster californicus	Asteroidea							Eukaryota		V3167-02
 	transect	Parastichopus leukothele	313.37	3167	01:17:27:26	 	36.82616	-122.168205	2370875	1.07	50:12.0	Ventana	34.166	01:19:19:12	6.912	Holothuroidea	Stichopodidae	Parastichopus			Animalia	Aspidochirotida	Echinodermata	Parastichopus leukothele	Aspidochirotacea							Eukaryota		V3167-02
 	transect	Rathbunaster californicus	308.75	3167	01:33:33:26	 	36.827557	-122.16766	2389759	1.08	06:19.0	Ventana	34.166	01:35:25:26	6.925		Labidiasteridae	Rathbunaster			Animalia	Forcipulatida	Echinodermata	Rathbunaster californicus	Asteroidea							Eukaryota		V3167-02
 	transect	Rathbunaster californicus	316.08	3167	01:22:17:02	 	36.82569	-122.16947	2371643	1.09	55:01.0	Ventana	34.163	01:24:08:15	6.958		Labidiasteridae	Rathbunaster			Animalia	Forcipulatida	Echinodermata	Rathbunaster californicus	Asteroidea							Eukaryota		V3167-02
 	transect	Rathbunaster californicus	166.21	3167	02:24:55:10	 	36.836956	-122.158264	2467167	2.59	58:08.0	Ventana	33.95	02:26:37:09	9.275		Labidiasteridae	Rathbunaster			Animalia	Forcipulatida	Echinodermata	Rathbunaster californicus	Asteroidea							Eukaryota		V3167-03
 	cruise	Hippasteria	302.76	3167	01:44:46:21	 	36.828037	-122.168205	2390880	1.12	17:32.0	Ventana	34.163	01:46:37:19	6.994		Goniasteridae	Hippasteria			Animalia	Valvatida	Echinodermata		Asteroidea			Granulosina				Eukaryota		V3167-02
 	cruise	Rathbunaster californicus	98.44	3167	04:18:46:02	 	36.85271	-122.11905	2471957	5.03	52:49.0	Ventana	33.484	04:20:20:25	11.284		Labidiasteridae	Rathbunaster			Animalia	Forcipulatida	Echinodermata	Rathbunaster californicus	Asteroidea							Eukaryota		V3167-05
 	cruise	Parmaturus xaniurus	316.09	3167	01:08:33:27	 	36.82569	-122.16953	2464542	1.12	41:17.0	Ventana	34.163	01:10:25:03	7.007	Chondrichthyes	Scyliorhinidae	Parmaturus			Animalia	Carcharhiniformes	Chordata	Parmaturus xaniurus	Elasmobranchii				Vertebrata			Eukaryota	Galeomorphi	V3167-02
 	transect	Allocentrotus fragilis	308.92	3167	01:33:45:26	 	36.827484	-122.16767	2389819	1.07	06:31.0	Ventana	34.166	01:35:38:01	6.926	Echinoidea	Strongylocentrotidae	Allocentrotus			Animalia	Echinoida	Echinodermata	Allocentrotus fragilis	Euechinoidea			Echinacea				Eukaryota		V3167-02
 	transect	Allocentrotus fragilis	310.84	3167	01:16:19:13	 	36.826504	-122.1682	2370492	1.07	49:03.0	Ventana	34.166	01:18:11:09	6.923	Echinoidea	Strongylocentrotidae	Allocentrotus			Animalia	Echinoida	Echinodermata	Allocentrotus fragilis	Euechinoidea			Echinacea				Eukaryota		V3167-02
 	transect	Allocentrotus fragilis	309.33	3167	01:35:00:08	 	36.827015	-122.16786	2390172	1.08	07:45.0	Ventana	34.164	01:36:51:11	6.94	Echinoidea	Strongylocentrotidae	Allocentrotus			Animalia	Echinoida	Echinodermata	Allocentrotus fragilis	Euechinoidea			Echinacea				Eukaryota		V3167-02
 	cruise	Lycodes cortezianus	295.31	3167	01:58:54:28	http://search.mbari.org/ARCHIVE/frameGrabs/Ventana/images/3167/02_00_37_02.jpg	36.832096	-122.165276	2466369	1.12	32:06.0	Ventana	34.159	02:00:37:02	7.019	Osteichthyes	Zoarcidae	Lycodes	Neopterygii		Animalia	Perciformes	Chordata	Lycodes cortezianus	Actinopterygii			Zoarcoidei	Vertebrata	Gnathostomata		Eukaryota	Acanthopterygii	V3167-03
 	transect	Stylasterias forreri	305.86	3167	01:27:04:08	 	36.827217	-122.16867	2388345	1.1	59:49.0	Ventana	34.164	01:28:55:20	6.964		Asteriidae	Stylasterias			Animalia	Forcipulatida	Echinodermata	Stylasterias forreri	Asteroidea							Eukaryota		V3167-02
 	transect	Parastichopus leukothele	312.09	3167	01:23:53:14	 	36.826256	-122.16922	2371966	1.07	56:38.0	Ventana	34.165	01:25:44:06	6.925	Holothuroidea	Stichopodidae	Parastichopus			Animalia	Aspidochirotida	Echinodermata	Parastichopus leukothele	Aspidochirotacea							Eukaryota		V3167-02
 	transect	Rathbunaster californicus	312.35	3167	01:16:55:27	 	36.826324	-122.16816	2370582	1.07	49:39.0	Ventana	34.166	01:18:46:25	6.915		Labidiasteridae	Rathbunaster			Animalia	Forcipulatida	Echinodermata	Rathbunaster californicus	Asteroidea							Eukaryota		V3167-02
 	transect	Rathbunaster californicus	316.34	3167	01:22:09:02	 	36.82565	-122.16949	2371613	1.09	54:53.0	Ventana	34.163	01:23:59:24	6.958		Labidiasteridae	Rathbunaster			Animalia	Forcipulatida	Echinodermata	Rathbunaster californicus	Asteroidea							Eukaryota		V3167-02
 	transect	Rathbunaster californicus	311.4	3167	01:24:11:13	 	36.82636	-122.16917	2372056	1.08	56:56.0	Ventana	34.164	01:26:03:00	6.927		Labidiasteridae	Rathbunaster			Animalia	Forcipulatida	Echinodermata	Rathbunaster californicus	Asteroidea							Eukaryota		V3167-02
 	transect	Stylasterias forreri	319.9	3167	00:38:17:08	 	36.82492	-122.17019	2463038	1.14	10:38.0	Ventana	34.16	00:40:12:05	7.03		Asteriidae	Stylasterias			Animalia	Forcipulatida	Echinodermata	Stylasterias forreri	Asteroidea							Eukaryota		V3167-01
 	cruise	Pleurobranchaea californica	103.54	3167	04:00:18:28	 	36.84877	-122.12789	2471694	5.03	34:00.0	Ventana	33.479	04:01:58:02	11.286	Gastropoda	Pleurobranchidae	Pleurobranchaea			Animalia	Notaspidea	Mollusca	Pleurobranchaea californica	Opisthobranchia						Pleurobranchiacea	Eukaryota		V3167-04
 	transect	Rathbunaster californicus	323.14	3167	00:57:07:04	 	36.824192	-122.17047	2464159	1.14	29:49.0	Ventana	34.158	00:58:57:29	7.048		Labidiasteridae	Rathbunaster			Animalia	Forcipulatida	Echinodermata	Rathbunaster californicus	Asteroidea							Eukaryota		V3167-02
 	transect	Parastichopus leukothele	307.78	3167	01:25:55:25	 	36.826893	-122.16885	2372824	1.19	58:40.0	Ventana	34.152	01:27:48:04	7.21	Holothuroidea	Stichopodidae	Parastichopus			Animalia	Aspidochirotida	Echinodermata	Parastichopus leukothele	Aspidochirotacea							Eukaryota		V3167-02
 	transect	Glyptocephalus zachirus	320.07	3167	00:18:36:14	http://search.mbari.org/ARCHIVE/frameGrabs/Ventana/images/3167/00_20_31_23.jpg	36.824333	-122.169876	2462332	1.12	50:56.0	Ventana	34.162	00:20:31:23	6.992	Osteichthyes	Pleuronectidae	Glyptocephalus	Neopterygii		Animalia	Pleuronectiformes	Chordata		Actinopterygii				Vertebrata	Gnathostomata		Eukaryota	Acanthopterygii	V3167-01
 	cruise	Mediaster aequalis	108.2	3167	03:42:00:01	 	36.84511	-122.13573	2471018	4.77	15:40.0	Ventana	33.52	03:43:39:23	11.189		Goniasteridae	Mediaster			Animalia	Valvatida	Echinodermata	Mediaster aequalis	Asteroidea			Granulosina				Eukaryota		V3167-04
 	transect	Parastichopus leukothele	314.88	3167	01:22:55:01	 	36.825905	-122.16937	2371763	1.07	55:39.0	Ventana	34.165	01:24:46:07	6.926	Holothuroidea	Stichopodidae	Parastichopus			Animalia	Aspidochirotida	Echinodermata	Parastichopus leukothele	Aspidochirotacea							Eukaryota		V3167-02
 	cruise	cable	341.13	3167	00:04:16:25	http://search.mbari.org/ARCHIVE/frameGrabs/Ventana/images/3167/00_06_12_06.jpg	36.82056	-122.171265	20023933	1.11	36:35.0	Ventana	34.161	00:06:12:06	6.932																			V3167-01
 	transect	Parastichopus leukothele	307.15	3167	01:26:13:25	 	36.82697	-122.16881	2372854	1.22	58:58.0	Ventana	34.147	01:28:05:16	7.163	Holothuroidea	Stichopodidae	Parastichopus			Animalia	Aspidochirotida	Echinodermata	Parastichopus leukothele	Aspidochirotacea							Eukaryota		V3167-02
 	transect	Phyllospadix	167.59	3167	02:24:10:27	 	36.83693	-122.15839	2467137	2.47	57:24.0	Ventana	33.962	02:25:53:07	9.118		Zosteraceae	Phyllospadix			Plantae	Najadales										Eukaryota		V3167-03
 	transect	Rathbunaster californicus	311.33	3167	01:24:15:13	 	36.82638	-122.16916	2372086	1.08	57:00.0	Ventana	34.164	01:26:07:08	6.927		Labidiasteridae	Rathbunaster			Animalia	Forcipulatida	Echinodermata	Rathbunaster californicus	Asteroidea							Eukaryota		V3167-02
 	cruise	Rathbunaster californicus	103.21	3167	04:01:44:03	 	36.84912	-122.12708	2471754	5.06	35:46.0	Ventana	33.478	04:03:20:04	11.293		Labidiasteridae	Rathbunaster			Animalia	Forcipulatida	Echinodermata	Rathbunaster californicus	Asteroidea							Eukaryota		V3167-05
 	cruise	Rathbunaster californicus	121.74	3167	03:00:22:04	 	36.84006	-122.14988	2468100	3.65	33:59.0	Ventana	33.716	03:02:02:09	10.474		Labidiasteridae	Rathbunaster			Animalia	Forcipulatida	Echinodermata	Rathbunaster californicus	Asteroidea							Eukaryota		V3167-04
 	cruise	trench	106.89	3167	03:46:53:08	http://search.mbari.org/ARCHIVE/frameGrabs/Ventana/images/3167/03_48_33_20.jpg	36.846096	-122.13365	2471048	4.81	20:34.0	Ventana	33.514	03:48:33:20	11.205																			V3167-04
 	cruise	Hydrolagus colliei	307.38	3167	01:50:27:26	 	36.8297	-122.167274	2465490	1.1	23:14.0	Ventana	34.163	01:52:19:26	6.961	Chondrichthyes	Chimaeridae	Hydrolagus			Animalia	Chimaeriformes	Chordata	Hydrolagus colliei	Holocephali			Chimaeroidei	Vertebrata			Eukaryota	Holocephalimorpha	V3167-02
 	transect	Hydrolagus colliei	313.13	3167	01:18:40:09	 	36.8258	-122.1686	2371168	1.11	51:24.0	Ventana	34.161	01:20:32:03	6.99	Chondrichthyes	Chimaeridae	Hydrolagus			Animalia	Chimaeriformes	Chordata	Hydrolagus colliei	Holocephali			Chimaeroidei	Vertebrata			Eukaryota	Holocephalimorpha	V3167-02
 	transect	Allocentrotus fragilis	306.09	3167	01:26:52:08	 	36.827156	-122.16871	2388315	1.12	59:37.0	Ventana	34.164	01:28:44:04	6.991	Echinoidea	Strongylocentrotidae	Allocentrotus			Animalia	Echinoida	Echinodermata	Allocentrotus fragilis	Euechinoidea			Echinacea				Eukaryota		V3167-02
 	transect	Rathbunaster californicus	308.98	3167	01:34:54:08	 	36.82705	-122.16784	2390142	1.08	07:39.0	Ventana	34.164	01:36:45:20	6.94		Labidiasteridae	Rathbunaster			Animalia	Forcipulatida	Echinodermata	Rathbunaster californicus	Asteroidea							Eukaryota		V3167-02
 	cruise	Mediaster aequalis	194.77	3167	02:17:51:08	 	36.836304	-122.15983	2467873	2.07	51:04.0	Ventana	34.045	02:19:35:01	8.599		Goniasteridae	Mediaster			Animalia	Valvatida	Echinodermata	Mediaster aequalis	Asteroidea			Granulosina				Eukaryota		V3167-03
 	transect	Rathbunaster californicus	313.01	3167	01:17:59:25	 	36.826008	-122.16836	2370995	1.07	50:44.0	Ventana	34.165	01:19:51:27	6.914		Labidiasteridae	Rathbunaster			Animalia	Forcipulatida	Echinodermata	Rathbunaster californicus	Asteroidea							Eukaryota		V3167-02
 	transect	Stomphia	312.72	3167	01:23:45:14	 	36.82621	-122.16924	2371936	1.08	56:30.0	Ventana	34.165	01:25:36:03	6.929	Anthozoa	Actinostolidae	Stomphia			Animalia	Actiniaria	Cnidaria		Hexacorallia			Nyantheae				Eukaryota		V3167-02
 	transect	Sebastes	308.74	3167	01:34:03:25	 	36.82737	-122.1677	2389939	1.08	06:49.0	Ventana	34.165	01:35:55:17	6.927	Osteichthyes	Scorpaenidae	Sebastes	Neopterygii		Animalia	Scorpaeniformes	Chordata		Actinopterygii			Scorpaenoidei	Vertebrata	Gnathostomata		Eukaryota	Acanthopterygii	V3167-02
 	transect	Allocentrotus fragilis	305.19	3167	01:27:22:08	 	36.82731	-122.168625	2388465	1.1	00:07.0	Ventana	34.163	01:29:12:16	6.962	Echinoidea	Strongylocentrotidae	Allocentrotus			Animalia	Echinoida	Echinodermata	Allocentrotus fragilis	Euechinoidea			Echinacea				Eukaryota		V3167-02
 	transect	Rathbunaster californicus	323.03	3167	00:48:55:18	 	36.824623	-122.170815	2463248	1.18	21:17.0	Ventana	34.153	00:50:51:21	7.112		Labidiasteridae	Rathbunaster			Animalia	Forcipulatida	Echinodermata	Rathbunaster californicus	Asteroidea							Eukaryota		V3167-01
 	transect	Rathbunaster californicus	308.79	3167	01:32:55:12	 	36.827724	-122.16764	2389609	1.08	05:40.0	Ventana	34.165	01:34:48:01	6.927		Labidiasteridae	Rathbunaster			Animalia	Forcipulatida	Echinodermata	Rathbunaster californicus	Asteroidea							Eukaryota		V3167-02
 	transect	Rathbunaster californicus	314.43	3167	01:23:25:15	 	36.826084	-122.1693	2371876	1.07	56:09.0	Ventana	34.166	01:25:16:08	6.924		Labidiasteridae	Rathbunaster			Animalia	Forcipulatida	Echinodermata	Rathbunaster californicus	Asteroidea							Eukaryota		V3167-02
 	transect	Allocentrotus fragilis	303.68	3167	01:29:02:20	 	36.827766	-122.16836	2388910	1.09	01:47.0	Ventana	34.163	01:30:54:02	6.964	Echinoidea	Strongylocentrotidae	Allocentrotus			Animalia	Echinoida	Echinodermata	Allocentrotus fragilis	Euechinoidea			Echinacea				Eukaryota		V3167-02
 	cruise	Stylasterias forreri	307.95	3167	01:36:36:20	 	36.82677	-122.16843	2390760	1.08	09:21.0	Ventana	34.166	01:38:28:16	6.928		Asteriidae	Stylasterias			Animalia	Forcipulatida	Echinodermata	Stylasterias forreri	Asteroidea							Eukaryota		V3167-02
 	transect	Sebastes paucispinis	308.62	3167	01:34:13:25	http://search.mbari.org/ARCHIVE/frameGrabs/Ventana/images/3167/01_36_06_06.jpg	36.827305	-122.167725	2389992	1.08	06:59.0	Ventana	34.165	01:36:06:06	6.933	Osteichthyes	Scorpaenidae	Sebastes	Neopterygii		Animalia	Scorpaeniformes	Chordata	Sebastes paucispinis	Actinopterygii			Scorpaenoidei	Vertebrata	Gnathostomata		Eukaryota	Acanthopterygii	V3167-02
 	transect	Allocentrotus fragilis	306.89	3167	01:26:30:09	 	36.827053	-122.16876	2372974	1.17	59:14.0	Ventana	34.157	01:28:22:11	7.079	Echinoidea	Strongylocentrotidae	Allocentrotus			Animalia	Echinoida	Echinodermata	Allocentrotus fragilis	Euechinoidea			Echinacea				Eukaryota		V3167-02
 	transect	Phyllospadix	167.66	3167	02:33:27:09	 	36.83733	-122.1589	2467347	2.68	06:41.0	Ventana	33.937	02:35:09:15	9.349		Zosteraceae	Phyllospadix			Plantae	Najadales										Eukaryota		V3167-03
 	transect	Sebastes diploproa	321.63	3167	00:46:05:08	http://search.mbari.org/ARCHIVE/frameGrabs/Ventana/images/3167/00_48_01_11.jpg	36.824867	-122.17059	2463218	1.13	18:26.0	Ventana	34.162	00:48:01:11	7.03	Osteichthyes	Scorpaenidae	Sebastes	Neopterygii		Animalia	Scorpaeniformes	Chordata	Sebastes diploproa	Actinopterygii			Scorpaenoidei	Vertebrata	Gnathostomata		Eukaryota	Acanthopterygii	V3167-01
 	transect	Rathbunaster californicus	308.78	3167	01:32:51:12	 	36.827736	-122.16764	2389579	1.08	05:36.0	Ventana	34.165	01:34:43:21	6.93		Labidiasteridae	Rathbunaster			Animalia	Forcipulatida	Echinodermata	Rathbunaster californicus	Asteroidea							Eukaryota		V3167-02
 	transect	Allocentrotus fragilis	303.28	3167	01:29:14:19	 	36.827816	-122.168335	2388940	1.12	01:59.0	Ventana	34.159	01:31:06:10	7.03	Echinoidea	Strongylocentrotidae	Allocentrotus			Animalia	Echinoida	Echinodermata	Allocentrotus fragilis	Euechinoidea			Echinacea				Eukaryota		V3167-02
 	transect	Allocentrotus fragilis	318.51	3167	00:35:34:13	 	36.824883	-122.16961	2462955	1.13	07:55.0	Ventana	34.16	00:37:30:17	7.019	Echinoidea	Strongylocentrotidae	Allocentrotus			Animalia	Echinoida	Echinodermata	Allocentrotus fragilis	Euechinoidea			Echinacea				Eukaryota		V3167-01
 	transect	Rathbunaster californicus	314.83	3167	01:23:07:15	 	36.825974	-122.16934	2371816	1.07	55:51.0	Ventana	34.165	01:24:59:06	6.926		Labidiasteridae	Rathbunaster			Animalia	Forcipulatida	Echinodermata	Rathbunaster californicus	Asteroidea							Eukaryota		V3167-02
 	transect	Sebastes	305.36	3167	01:27:18:07	http://search.mbari.org/ARCHIVE/frameGrabs/Ventana/images/3167/01_29_09_12.jpg	36.82729	-122.16863	2388435	1.1	00:03.0	Ventana	34.163	01:29:09:12	6.962	Osteichthyes	Scorpaenidae	Sebastes	Neopterygii		Animalia	Scorpaeniformes	Chordata		Actinopterygii			Scorpaenoidei	Vertebrata	Gnathostomata		Eukaryota	Acanthopterygii	V3167-02
 	transect	Allocentrotus fragilis	308.83	3167	01:33:57:25	 	36.827408	-122.167694	2389909	1.08	06:43.0	Ventana	34.165	01:35:49:16	6.927	Echinoidea	Strongylocentrotidae	Allocentrotus			Animalia	Echinoida	Echinodermata	Allocentrotus fragilis	Euechinoidea			Echinacea				Eukaryota		V3167-02
 	cruise	Rathbunaster californicus	126.25	3167	02:57:13:10	 	36.83936	-122.15163	2467640	3.02	30:28.0	Ventana	33.83	02:58:55:23	9.814		Labidiasteridae	Rathbunaster			Animalia	Forcipulatida	Echinodermata	Rathbunaster californicus	Asteroidea							Eukaryota		V3167-03
 	cruise	laminariales	105.07	3167	03:54:27:08	 	36.84747	-122.13048	2471078	4.95	28:08.0	Ventana	33.491	03:56:08:03	11.261																			V3167-04
 	transect	Allocentrotus fragilis	305.09	3167	01:27:32:07	 	36.827362	-122.168594	2388548	1.11	00:17.0	Ventana	34.162	01:29:22:20	6.992	Echinoidea	Strongylocentrotidae	Allocentrotus			Animalia	Echinoida	Echinodermata	Allocentrotus fragilis	Euechinoidea			Echinacea				Eukaryota		V3167-02
 	transect	Sebastes	309.07	3167	01:34:19:25	 	36.827267	-122.16774	2390022	1.08	07:05.0	Ventana	34.165	01:36:12:00	6.933	Osteichthyes	Scorpaenidae	Sebastes	Neopterygii		Animalia	Scorpaeniformes	Chordata		Actinopterygii			Scorpaenoidei	Vertebrata	Gnathostomata		Eukaryota	Acanthopterygii	V3167-02
 	transect	Stomphia	169.62	3167	02:23:24:28	 	36.8369	-122.15852	2467107	2.46	56:38.0	Ventana	33.97	02:25:08:06	9.077	Anthozoa	Actinostolidae	Stomphia			Animalia	Actiniaria	Cnidaria		Hexacorallia			Nyantheae				Eukaryota		V3167-03
 	transect	Allocentrotus fragilis	305.77	3167	01:27:10:08	 	36.827248	-122.168655	2388375	1.1	59:55.0	Ventana	34.163	01:29:00:29	6.962	Echinoidea	Strongylocentrotidae	Allocentrotus			Animalia	Echinoida	Echinodermata	Allocentrotus fragilis	Euechinoidea			Echinacea				Eukaryota		V3167-02
 	transect	Rathbunaster californicus	308.32	3167	01:33:13:26	 	36.827663	-122.167656	2389676	1.08	05:58.0	Ventana	34.166	01:35:05:19	6.926		Labidiasteridae	Rathbunaster			Animalia	Forcipulatida	Echinodermata	Rathbunaster californicus	Asteroidea							Eukaryota		V3167-02
 	transect	Rathbunaster californicus	321.72	3167	00:45:34:24	 	36.82482	-122.17047	2463188	1.12	17:56.0	Ventana	34.16	00:47:31:27	7.02		Labidiasteridae	Rathbunaster			Animalia	Forcipulatida	Echinodermata	Rathbunaster californicus	Asteroidea							Eukaryota		V3167-01
 	transect	Rathbunaster californicus	308.92	3167	01:33:49:25	 	36.827457	-122.16768	2389849	1.07	06:35.0	Ventana	34.166	01:35:40:24	6.926		Labidiasteridae	Rathbunaster			Animalia	Forcipulatida	Echinodermata	Rathbunaster californicus	Asteroidea							Eukaryota		V3167-02
 	transect	Sebastes	309.17	3167	01:34:28:09	 	36.827217	-122.16776	2390052	1.08	07:13.0	Ventana	34.165	01:36:19:18	6.927	Osteichthyes	Scorpaenidae	Sebastes	Neopterygii		Animalia	Scorpaeniformes	Chordata		Actinopterygii			Scorpaenoidei	Vertebrata	Gnathostomata		Eukaryota	Acanthopterygii	V3167-02
 	transect	Rathbunaster californicus	318.43	3167	00:36:56:26	 	36.824894	-122.1699	2462985	1.16	09:17.0	Ventana	34.157	00:38:52:09	7.067		Labidiasteridae	Rathbunaster			Animalia	Forcipulatida	Echinodermata	Rathbunaster californicus	Asteroidea							Eukaryota		V3167-01
 	transect	Allocentrotus fragilis	305.2	3167	01:27:40:07	 	36.827404	-122.16857	2388578	1.12	00:25.0	Ventana	34.159	01:29:32:04	7.026	Echinoidea	Strongylocentrotidae	Allocentrotus			Animalia	Echinoida	Echinodermata	Allocentrotus fragilis	Euechinoidea			Echinacea				Eukaryota		V3167-02
 	cruise	Sebastes rufus	309.94	3167	01:12:06:21	http://search.mbari.org/ARCHIVE/frameGrabs/Ventana/images/3167/01_13_57_14.jpg	36.826622	-122.16909	2464662	1.11	44:50.0	Ventana	34.161	01:13:57:14	7	Osteichthyes	Scorpaenidae	Sebastes	Neopterygii		Animalia	Scorpaeniformes	Chordata	Sebastes rufus	Actinopterygii			Scorpaenoidei	Vertebrata	Gnathostomata		Eukaryota	Acanthopterygii	V3167-02
 	transect	Rathbunaster californicus	319.24	3167	00:37:53:08	 	36.82491	-122.170105	2463015	1.16	10:13.0	Ventana	34.156	00:39:49:23	7.069		Labidiasteridae	Rathbunaster			Animalia	Forcipulatida	Echinodermata	Rathbunaster californicus	Asteroidea							Eukaryota		V3167-01
 	transect	Rathbunaster californicus	309.57	3167	01:35:12:08	 	36.826946	-122.167915	2390225	1.08	07:57.0	Ventana	34.163	01:37:03:18	6.95		Labidiasteridae	Rathbunaster			Animalia	Forcipulatida	Echinodermata	Rathbunaster californicus	Asteroidea							Eukaryota		V3167-02
 	cruise	Allocentrotus fragilis	205.69	3167	02:16:12:26	 	36.83593	-122.16029	2466904	1.86	49:26.0	Ventana	34.078	02:17:55:17	8.271	Echinoidea	Strongylocentrotidae	Allocentrotus			Animalia	Echinoida	Echinodermata	Allocentrotus fragilis	Euechinoidea			Echinacea				Eukaryota		V3167-03
 	transect	Rathbunaster californicus	309.22	3167	01:34:36:09	 	36.827168	-122.167786	2390082	1.08	07:21.0	Ventana	34.165	01:36:26:19	6.927		Labidiasteridae	Rathbunaster			Animalia	Forcipulatida	Echinodermata	Rathbunaster californicus	Asteroidea							Eukaryota		V3167-02
 	cruise	Stylasterias forreri	230.96	3167	02:12:54:02	 	36.835342	-122.161224	2466874	1.62	46:07.0	Ventana	34.11	02:14:36:25	7.913		Asteriidae	Stylasterias			Animalia	Forcipulatida	Echinodermata	Stylasterias forreri	Asteroidea							Eukaryota		V3167-03
 	transect	Rathbunaster californicus	308.76	3167	01:33:23:27	 	36.82762	-122.167656	2389706	1.08	06:08.0	Ventana	34.166	01:35:15:24	6.925		Labidiasteridae	Rathbunaster			Animalia	Forcipulatida	Echinodermata	Rathbunaster californicus	Asteroidea							Eukaryota		V3167-02
 	cruise	cable	119.67	3167	03:02:34:14	http://search.mbari.org/ARCHIVE/frameGrabs/Ventana/images/3167/03_04_14_08.jpg	36.840443	-122.14896	2468160	3.45	36:12.0	Ventana	33.739	03:04:14:08	10.348																			V3167-04
 	transect	Allocentrotus fragilis	309.47	3167	01:25:15:26	 	36.82671	-122.16896	2372755	1.11	58:00.0	Ventana	34.161	01:27:07:03	7.022	Echinoidea	Strongylocentrotidae	Allocentrotus			Animalia	Echinoida	Echinodermata	Allocentrotus fragilis	Euechinoidea			Echinacea				Eukaryota		V3167-02
 	transect	Allocentrotus fragilis	315.25	3167	01:19:22:07	 	36.825573	-122.168816	2371281	1.09	52:06.0	Ventana	34.161	01:21:13:12	6.971	Echinoidea	Strongylocentrotidae	Allocentrotus			Animalia	Echinoida	Echinodermata	Allocentrotus fragilis	Euechinoidea			Echinacea				Eukaryota		V3167-02
 	transect	Allocentrotus fragilis	305.76	3167	01:27:12:08	 	36.827255	-122.16865	2388405	1.1	59:57.0	Ventana	34.163	01:29:03:25	6.962	Echinoidea	Strongylocentrotidae	Allocentrotus			Animalia	Echinoida	Echinodermata	Allocentrotus fragilis	Euechinoidea			Echinacea				Eukaryota		V3167-02
 	cruise	Hydrolagus colliei	305.16	3167	01:39:43:15	 	36.827415	-122.16855	2390820	1.08	12:28.0	Ventana	34.165	01:41:34:18	6.941	Chondrichthyes	Chimaeridae	Hydrolagus			Animalia	Chimaeriformes	Chordata	Hydrolagus colliei	Holocephali			Chimaeroidei	Vertebrata			Eukaryota	Holocephalimorpha	V3167-02
 	transect	Rathbunaster californicus	322.97	3167	00:53:38:24	 	36.82435	-122.17059	2463361	1.17	26:00.0	Ventana	34.155	00:55:35:09	7.098		Labidiasteridae	Rathbunaster			Animalia	Forcipulatida	Echinodermata	Rathbunaster californicus	Asteroidea							Eukaryota		V3167-01
 	cruise	Hydrolagus colliei	302.63	3167	01:45:45:04	 	36.828403	-122.16801	2390887	1.12	18:30.0	Ventana	34.162	01:47:35:23	6.993	Chondrichthyes	Chimaeridae	Hydrolagus			Animalia	Chimaeriformes	Chordata	Hydrolagus colliei	Holocephali			Chimaeroidei	Vertebrata			Eukaryota	Holocephalimorpha	V3167-02
 	transect	Rathbunaster californicus	316.07	3167	01:22:23:02	 	36.82572	-122.16946	2371650	1.09	55:07.0	Ventana	34.163	01:24:13:19	6.958		Labidiasteridae	Rathbunaster			Animalia	Forcipulatida	Echinodermata	Rathbunaster californicus	Asteroidea							Eukaryota		V3167-02
 	transect	Rathbunaster californicus	311.53	3167	01:24:09:13	 	36.826347	-122.169174	2372049	1.08	56:54.0	Ventana	34.164	01:26:00:26	6.927		Labidiasteridae	Rathbunaster			Animalia	Forcipulatida	Echinodermata	Rathbunaster californicus	Asteroidea							Eukaryota		V3167-02
 	transect	Rathbunaster californicus	311.62	3167	01:16:39:12	 	36.8264	-122.168175	2370529	1.07	49:23.0	Ventana	34.165	01:18:31:12	6.917		Labidiasteridae	Rathbunaster			Animalia	Forcipulatida	Echinodermata	Rathbunaster californicus	Asteroidea							Eukaryota		V3167-02
 	transect	Allocentrotus fragilis	308.92	3167	01:33:45:26	 	36.827484	-122.16767	2389812	1.07	06:31.0	Ventana	34.166	01:35:38:01	6.926	Echinoidea	Strongylocentrotidae	Allocentrotus			Animalia	Echinoida	Echinodermata	Allocentrotus fragilis	Euechinoidea			Echinacea				Eukaryota		V3167-02
 	transect	Rathbunaster californicus	312.35	3167	01:16:55:27	 	36.826324	-122.16816	2370575	1.07	49:39.0	Ventana	34.166	01:18:46:25	6.915		Labidiasteridae	Rathbunaster			Animalia	Forcipulatida	Echinodermata	Rathbunaster californicus	Asteroidea							Eukaryota		V3167-02
 	transect	Allocentrotus fragilis	308.54	3167	01:25:41:26	 	36.82683	-122.16889	2372801	1.09	58:26.0	Ventana	34.163	01:27:33:23	6.991	Echinoidea	Strongylocentrotidae	Allocentrotus			Animalia	Echinoida	Echinodermata	Allocentrotus fragilis	Euechinoidea			Echinacea				Eukaryota		V3167-02
 	cruise	Metridium farcimen	110.12	3167	03:18:30:15	 	36.842564	-122.1406	2468633	4.68	52:09.0	Ventana	33.538	03:20:10:21	11.153	Anthozoa	Metridiidae	Metridium			Animalia	Actiniaria	Cnidaria	Metridium farcimen	Hexacorallia			Nyantheae				Eukaryota		V3167-04
 	transect	Allocentrotus fragilis	306.4	3167	01:26:48:09	 	36.827133	-122.16872	2388308	1.12	59:32.0	Ventana	34.164	01:28:40:14	6.991	Echinoidea	Strongylocentrotidae	Allocentrotus			Animalia	Echinoida	Echinodermata	Allocentrotus fragilis	Euechinoidea			Echinacea				Eukaryota		V3167-02
 	transect	Rathbunaster californicus	310.38	3167	01:24:53:27	 	36.8266	-122.16903	2372725	1.09	57:38.0	Ventana	34.165	01:26:44:12	6.968		Labidiasteridae	Rathbunaster			Animalia	Forcipulatida	Echinodermata	Rathbunaster californicus	Asteroidea							Eukaryota		V3167-02
 	transect	Rathbunaster californicus	308.92	3167	01:33:49:25	 	36.827457	-122.16768	2389842	1.07	06:35.0	Ventana	34.166	01:35:40:24	6.926		Labidiasteridae	Rathbunaster			Animalia	Forcipulatida	Echinodermata	Rathbunaster californicus	Asteroidea							Eukaryota		V3167-02
 	transect	Phyllospadix	164.22	3167	02:25:33:09	 	36.83699	-122.15815	2467204	2.65	58:47.0	Ventana	33.943	02:27:15:05	9.291		Zosteraceae	Phyllospadix			Plantae	Najadales										Eukaryota		V3167-03
 	transect	Rathbunaster californicus	315.98	3167	01:22:29:01	 	36.825756	-122.16944	2371680	1.08	55:13.0	Ventana	34.164	01:24:21:06	6.938		Labidiasteridae	Rathbunaster			Animalia	Forcipulatida	Echinodermata	Rathbunaster californicus	Asteroidea							Eukaryota		V3167-02
 	transect	Sebastes	308.88	3167	01:33:31:26	 	36.827568	-122.16766	2389752	1.08	06:17.0	Ventana	34.166	01:35:22:12	6.925	Osteichthyes	Scorpaenidae	Sebastes	Neopterygii		Animalia	Scorpaeniformes	Chordata		Actinopterygii			Scorpaenoidei	Vertebrata	Gnathostomata		Eukaryota	Acanthopterygii	V3167-02
 	transect	Rathbunaster californicus	309.5	3167	01:35:06:08	 	36.82698	-122.167885	2390195	1.08	07:51.0	Ventana	34.164	01:36:57:28	6.94		Labidiasteridae	Rathbunaster			Animalia	Forcipulatida	Echinodermata	Rathbunaster californicus	Asteroidea							Eukaryota		V3167-02
 	transect	Rathbunaster californicus	314.07	3167	01:18:58:08	 	36.825706	-122.16869	2371221	1.1	51:42.0	Ventana	34.163	01:20:48:25	6.956		Labidiasteridae	Rathbunaster			Animalia	Forcipulatida	Echinodermata	Rathbunaster californicus	Asteroidea							Eukaryota		V3167-02
 	cruise	cable	338.25	3167	00:05:31:08	http://search.mbari.org/ARCHIVE/frameGrabs/Ventana/images/3167/00_07_27_01.jpg	36.82095	-122.171196	2462015	1.1	37:50.0	Ventana	34.16	00:07:27:01	6.939																			V3167-01
 	transect	Rathbunaster californicus	319.24	3167	00:26:32:14	 	36.824554	-122.16939	2462692	1.14	58:52.0	Ventana	34.159	00:28:27:17	7.031		Labidiasteridae	Rathbunaster			Animalia	Forcipulatida	Echinodermata	Rathbunaster californicus	Asteroidea							Eukaryota		V3167-01
 	transect	Rathbunaster californicus	310.49	3167	01:24:41:27	 	36.826527	-122.169075	2372695	1.08	57:26.0	Ventana	34.165	01:26:33:24	6.934		Labidiasteridae	Rathbunaster			Animalia	Forcipulatida	Echinodermata	Rathbunaster californicus	Asteroidea							Eukaryota		V3167-02
 	transect	Rathbunaster californicus	312.09	3167	01:23:53:14	 	36.826256	-122.16922	2371973	1.07	56:38.0	Ventana	34.165	01:25:44:06	6.925		Labidiasteridae	Rathbunaster			Animalia	Forcipulatida	Echinodermata	Rathbunaster californicus	Asteroidea							Eukaryota		V3167-02
 	transect	Allocentrotus fragilis	316.38	3167	01:22:11:02	 	36.82566	-122.16948	2371620	1.09	54:55.0	Ventana	34.163	01:24:01:15	6.958	Echinoidea	Strongylocentrotidae	Allocentrotus			Animalia	Echinoida	Echinodermata	Allocentrotus fragilis	Euechinoidea			Echinacea				Eukaryota		V3167-02
 	cruise	Ptilosarcus gurneyi	110.08	3167	03:19:36:28	 	36.842728	-122.14011	2468663	4.81	53:15.0	Ventana	33.518	03:21:16:00	11.215	Anthozoa	Pennatulidae	Ptilosarcus			Animalia	Pennatulacea	Cnidaria	Ptilosarcus gurneyi	Octocorallia			Subselliflorae				Eukaryota		V3167-04
 	transect	Rathbunaster californicus	313.06	3167	01:17:49:25	 	36.826054	-122.168304	2370958	1.07	50:34.0	Ventana	34.166	01:19:41:22	6.913		Labidiasteridae	Rathbunaster			Animalia	Forcipulatida	Echinodermata	Rathbunaster californicus	Asteroidea							Eukaryota		V3167-02
 	transect	Rathbunaster californicus	310.92	3167	01:24:23:13	 	36.826427	-122.169136	2372109	1.08	57:08.0	Ventana	34.165	01:26:16:02	6.93		Labidiasteridae	Rathbunaster			Animalia	Forcipulatida	Echinodermata	Rathbunaster californicus	Asteroidea							Eukaryota		V3167-02
 	transect	Lycodes cortezianus	312.72	3167	01:23:45:14	 	36.82621	-122.16924	2371943	1.08	56:30.0	Ventana	34.165	01:25:36:20	6.929	Osteichthyes	Zoarcidae	Lycodes	Neopterygii		Animalia	Perciformes	Chordata	Lycodes cortezianus	Actinopterygii			Zoarcoidei	Vertebrata	Gnathostomata		Eukaryota	Acanthopterygii	V3167-02
 	transect	Rathbunaster californicus	313.32	3167	01:17:25:26	 	36.82617	-122.1682	2370808	1.07	50:10.0	Ventana	34.166	01:19:17:00	6.912		Labidiasteridae	Rathbunaster			Animalia	Forcipulatida	Echinodermata	Rathbunaster californicus	Asteroidea							Eukaryota		V3167-02
 	cruise	Stylasterias forreri	210.19	3167	02:15:24:28	 	36.83579	-122.160515	2467866	1.73	48:37.0	Ventana	34.097	02:17:07:18	8.085		Asteriidae	Stylasterias			Animalia	Forcipulatida	Echinodermata	Stylasterias forreri	Asteroidea							Eukaryota		V3167-03
 	cruise	Rathbunaster californicus	117.65	3167	03:04:59:10	 	36.841038	-122.14774	2468250	3.49	38:37.0	Ventana	33.73	03:06:38:21	10.389		Labidiasteridae	Rathbunaster			Animalia	Forcipulatida	Echinodermata	Rathbunaster californicus	Asteroidea							Eukaryota		V3167-04
 	transect	Allocentrotus fragilis	305.95	3167	01:27:00:08	 	36.827194	-122.168686	2388338	1.1	59:45.0	Ventana	34.164	01:28:51:24	6.964	Echinoidea	Strongylocentrotidae	Allocentrotus			Animalia	Echinoida	Echinodermata	Allocentrotus fragilis	Euechinoidea			Echinacea				Eukaryota		V3167-02
 	transect	Rathbunaster californicus	309.33	3167	01:35:00:08	 	36.827015	-122.16786	2390165	1.08	07:45.0	Ventana	34.164	01:36:51:11	6.94		Labidiasteridae	Rathbunaster			Animalia	Forcipulatida	Echinodermata	Rathbunaster californicus	Asteroidea							Eukaryota		V3167-02
 	transect	Rathbunaster californicus	316.8	3167	01:19:54:06	 	36.825428	-122.16899	2371387	1.07	52:38.0	Ventana	34.166	01:21:45:19	6.913		Labidiasteridae	Rathbunaster			Animalia	Forcipulatida	Echinodermata	Rathbunaster californicus	Asteroidea							Eukaryota		V3167-02
 	transect	Sabellida	323.13	3167	00:49:54:01	 	36.824448	-122.17069	2463271	1.18	22:15.0	Ventana	34.153	00:51:50:03	7.106	Polychaeta					Animalia	Sabellida	Annelida		Palpata							Eukaryota	Canalipalpata	V3167-01
 	transect	Stylasterias forreri	322.87	3167	00:57:33:03	 	36.82414	-122.170425	2464196	1.14	30:16.0	Ventana	34.157	00:59:24:26	7.052		Asteriidae	Stylasterias			Animalia	Forcipulatida	Echinodermata	Stylasterias forreri	Asteroidea							Eukaryota		V3167-02
 	transect	Rathbunaster californicus	319.53	3167	00:19:08:13	 	36.82437	-122.16976	2462369	1.14	51:28.0	Ventana	34.159	00:21:03:17	7.025		Labidiasteridae	Rathbunaster			Animalia	Forcipulatida	Echinodermata	Rathbunaster californicus	Asteroidea							Eukaryota		V3167-01
 	cruise	Pleurobranchaea californica	108.1	3167	03:42:44:15	 	36.84526	-122.1354	2471025	4.72	16:24.0	Ventana	33.526	03:44:24:14	11.17	Gastropoda	Pleurobranchidae	Pleurobranchaea			Animalia	Notaspidea	Mollusca	Pleurobranchaea californica	Opisthobranchia						Pleurobranchiacea	Eukaryota		V3167-04
 	transect	Octopus rubescens	165.59	3167	02:32:18:26	 	36.837376	-122.1587	2467340	2.69	05:33.0	Ventana	33.934	02:34:02:17	9.391	Cephalopoda	Octopodidae	Octopus			Animalia	Octopoda	Mollusca	Octopus rubescens	Coleoidea	Octopodinae		Incirrata				Eukaryota	Octopodiformes	V3167-03
 	transect	Allocentrotus fragilis	305.16	3167	01:27:24:07	 	36.82732	-122.16862	2388511	1.11	00:09.0	Ventana	34.162	01:29:16:10	6.992	Echinoidea	Strongylocentrotidae	Allocentrotus			Animalia	Echinoida	Echinodermata	Allocentrotus fragilis	Euechinoidea			Echinacea				Eukaryota		V3167-02
 	transect	Sebastes	308.9	3167	01:34:07:25	 	36.827343	-122.16771	2389962	1.08	06:53.0	Ventana	34.165	01:35:58:22	6.933	Osteichthyes	Scorpaenidae	Sebastes	Neopterygii		Animalia	Scorpaeniformes	Chordata		Actinopterygii			Scorpaenoidei	Vertebrata	Gnathostomata		Eukaryota	Acanthopterygii	V3167-02
 	transect	Allocentrotus fragilis	306.94	3167	01:26:24:09	 	36.82701	-122.168785	2372951	1.17	59:08.0	Ventana	34.157	01:28:15:00	7.079	Echinoidea	Strongylocentrotidae	Allocentrotus			Animalia	Echinoida	Echinodermata	Allocentrotus fragilis	Euechinoidea			Echinacea				Eukaryota		V3167-02
 	transect	Allocentrotus fragilis	318.45	3167	00:35:24:13	 	36.824875	-122.169586	2462948	1.14	07:45.0	Ventana	34.159	00:37:19:08	7.033	Echinoidea	Strongylocentrotidae	Allocentrotus			Animalia	Echinoida	Echinodermata	Allocentrotus fragilis	Euechinoidea			Echinacea				Eukaryota		V3167-01
 	transect	Allocentrotus fragilis	313.18	3167	01:18:09:25	 	36.825947	-122.168434	2371071	1.08	50:54.0	Ventana	34.161	01:20:01:27	6.953	Echinoidea	Strongylocentrotidae	Allocentrotus			Animalia	Echinoida	Echinodermata	Allocentrotus fragilis	Euechinoidea			Echinacea				Eukaryota		V3167-02
 	cruise	Hippasteria	329.34	3167	00:11:06:13	http://search.mbari.org/ARCHIVE/frameGrabs/Ventana/images/3167/00_13_03_11.jpg	36.822655	-122.17062	2462158	1.1	43:25.0	Ventana	34.165	00:13:03:11	6.943		Goniasteridae	Hippasteria			Animalia	Valvatida	Echinodermata		Asteroidea			Granulosina				Eukaryota		V3167-01
 	transect	Phyllospadix	171.8	3167	02:35:11:21	 	36.83722	-122.15919	2467370	2.65	08:26.0	Ventana	33.941	02:36:54:24	9.303		Zosteraceae	Phyllospadix			Plantae	Najadales										Eukaryota		V3167-03
 	transect	Rathbunaster californicus	312.55	3167	01:17:11:26	 	36.826244	-122.16817	2370755	1.07	49:55.0	Ventana	34.165	01:19:03:07	6.914		Labidiasteridae	Rathbunaster			Animalia	Forcipulatida	Echinodermata	Rathbunaster californicus	Asteroidea							Eukaryota		V3167-02
 	transect	Rathbunaster californicus	308.58	3167	01:33:03:27	 	36.827694	-122.16764	2389639	1.08	05:48.0	Ventana	34.165	01:34:54:29	6.927		Labidiasteridae	Rathbunaster			Animalia	Forcipulatida	Echinodermata	Rathbunaster californicus	Asteroidea							Eukaryota		V3167-02
 	transect	Stomphia	322.68	3167	00:48:31:19	 	36.82465	-122.17082	2463241	1.19	20:53.0	Ventana	34.153	00:50:27:21	7.118	Anthozoa	Actinostolidae	Stomphia			Animalia	Actiniaria	Cnidaria		Hexacorallia			Nyantheae				Eukaryota		V3167-01
 	transect	Rathbunaster californicus	312.97	3167	01:18:28:09	 	36.825863	-122.16853	2371131	1.1	51:12.0	Ventana	34.16	01:20:18:27	6.984		Labidiasteridae	Rathbunaster			Animalia	Forcipulatida	Echinodermata	Rathbunaster californicus	Asteroidea							Eukaryota		V3167-02
 	transect	Sebastes	306.88	3167	01:26:32:09	 	36.827057	-122.168755	2372981	1.17	59:16.0	Ventana	34.157	01:28:24:13	7.079	Osteichthyes	Scorpaenidae	Sebastes	Neopterygii		Animalia	Scorpaeniformes	Chordata		Actinopterygii			Scorpaenoidei	Vertebrata	Gnathostomata		Eukaryota	Acanthopterygii	V3167-02
 	cruise	Parastichopus leukothele	307.4	3167	01:36:50:20	 	36.826775	-122.16853	2390767	1.08	09:36.0	Ventana	34.165	01:38:42:07	6.935	Holothuroidea	Stichopodidae	Parastichopus			Animalia	Aspidochirotida	Echinodermata	Parastichopus leukothele	Aspidochirotacea							Eukaryota		V3167-02
 	cruise	Parastichopus leukothele	332.02	3167	00:09:28:01	 	36.82223	-122.17077	2462128	1.11	41:47.0	Ventana	34.161	00:11:24:06	6.965	Holothuroidea	Stichopodidae	Parastichopus			Animalia	Aspidochirotida	Echinodermata	Parastichopus leukothele	Aspidochirotacea							Eukaryota		V3167-01
 	transect	Rathbunaster californicus	314.73	3167	01:23:01:01	 	36.82594	-122.16936	2371793	1.07	55:45.0	Ventana	34.165	01:24:53:06	6.926		Labidiasteridae	Rathbunaster			Animalia	Forcipulatida	Echinodermata	Rathbunaster californicus	Asteroidea							Eukaryota		V3167-02
 	transect	Sebastes	305.09	3167	01:27:32:07	 	36.827362	-122.168594	2388541	1.11	00:17.0	Ventana	34.162	01:29:22:20	6.992	Osteichthyes	Scorpaenidae	Sebastes	Neopterygii		Animalia	Scorpaeniformes	Chordata		Actinopterygii			Scorpaenoidei	Vertebrata	Gnathostomata		Eukaryota	Acanthopterygii	V3167-02
 	transect	Rathbunaster californicus	318.39	3167	00:36:38:26	 	36.824886	-122.16984	2462978	1.15	08:59.0	Ventana	34.157	00:38:35:10	7.065		Labidiasteridae	Rathbunaster			Animalia	Forcipulatida	Echinodermata	Rathbunaster californicus	Asteroidea							Eukaryota		V3167-01
 	transect	Rathbunaster californicus	308.9	3167	01:34:17:24	 	36.827282	-122.16774	2390015	1.08	07:03.0	Ventana	34.165	01:36:09:28	6.933		Labidiasteridae	Rathbunaster			Animalia	Forcipulatida	Echinodermata	Rathbunaster californicus	Asteroidea							Eukaryota		V3167-02
 	cruise	Parastichopus leukothele	316.97	3167	01:20:32:20	 	36.825386	-122.16922	2371417	1.07	53:17.0	Ventana	34.166	01:22:23:00	6.924	Holothuroidea	Stichopodidae	Parastichopus			Animalia	Aspidochirotida	Echinodermata	Parastichopus leukothele	Aspidochirotacea							Eukaryota		V3167-02
 	cruise	Lycodes cortezianus	308.14	3167	01:13:57:02	 	36.82677	-122.16871	2464715	1.11	46:41.0	Ventana	34.163	01:15:48:19	6.981	Osteichthyes	Zoarcidae	Lycodes	Neopterygii		Animalia	Perciformes	Chordata	Lycodes cortezianus	Actinopterygii			Zoarcoidei	Vertebrata	Gnathostomata		Eukaryota	Acanthopterygii	V3167-02
 	cruise	cable	296.75	3167	01:58:19:26	http://search.mbari.org/ARCHIVE/frameGrabs/Ventana/images/3167/02_00_12_06.jpg	36.831917	-122.16544	2465550	1.12	31:06.0	Ventana	34.161	02:00:12:06	7.015																			V3167-02
 	cruise	trench	106.66	3167	03:48:01:20	http://search.mbari.org/ARCHIVE/frameGrabs/Ventana/images/3167/03_49_41_21.jpg	36.84628	-122.13316	2471055	4.78	21:42.0	Ventana	33.514	03:49:41:21	11.203																			V3167-04
 	cruise	Ceriantharia sp. 3	321.3	3167	00:16:22:03	http://search.mbari.org/ARCHIVE/frameGrabs/Ventana/images/3167/00_18_18_25.jpg	36.824238	-122.17015	2462226	1.12	48:41.0	Ventana	34.16	00:18:18:25	6.993	Anthozoa					Animalia	Ceriantharia	Cnidaria		Ceriantipatharia							Eukaryota		V3167-01
 	transect	Sebastes	309.63	3167	01:35:14:08	 	36.826935	-122.16792	2390248	1.08	07:59.0	Ventana	34.163	01:37:06:09	6.95	Osteichthyes	Scorpaenidae	Sebastes	Neopterygii		Animalia	Scorpaeniformes	Chordata		Actinopterygii			Scorpaenoidei	Vertebrata	Gnathostomata		Eukaryota	Acanthopterygii	V3167-02
 	transect	Allocentrotus fragilis	319.11	3167	00:37:44:24	 	36.82491	-122.170074	2463008	1.16	10:05.0	Ventana	34.156	00:39:40:06	7.075	Echinoidea	Strongylocentrotidae	Allocentrotus			Animalia	Echinoida	Echinodermata	Allocentrotus fragilis	Euechinoidea			Echinacea				Eukaryota		V3167-01
 	transect	Allocentrotus fragilis	305.76	3167	01:27:12:08	 	36.827255	-122.16865	2388398	1.1	59:57.0	Ventana	34.163	01:29:03:25	6.962	Echinoidea	Strongylocentrotidae	Allocentrotus			Animalia	Echinoida	Echinodermata	Allocentrotus fragilis	Euechinoidea			Echinacea				Eukaryota		V3167-02
 	transect	Rathbunaster californicus	308.91	3167	01:33:51:26	 	36.827446	-122.16769	2389872	1.07	06:37.0	Ventana	34.166	01:35:43:19	6.926		Labidiasteridae	Rathbunaster			Animalia	Forcipulatida	Echinodermata	Rathbunaster californicus	Asteroidea							Eukaryota		V3167-02
 	transect	Rathbunaster californicus	308.83	3167	01:33:57:25	 	36.827408	-122.167694	2389902	1.08	06:43.0	Ventana	34.165	01:35:49:16	6.927		Labidiasteridae	Rathbunaster			Animalia	Forcipulatida	Echinodermata	Rathbunaster californicus	Asteroidea							Eukaryota		V3167-02
 	cruise	Pleuronectiformes	246.69	3167	02:10:29:22	 	36.834827	-122.161964	2467806	1.55	43:42.0	Ventana	34.12	02:12:12:25	7.797	Osteichthyes			Neopterygii		Animalia	Pleuronectiformes	Chordata		Actinopterygii				Vertebrata	Gnathostomata		Eukaryota	Acanthopterygii	V3167-03
 	transect	Allocentrotus fragilis	305.15	3167	01:27:36:07	 	36.82738	-122.16859	2388571	1.11	00:21.0	Ventana	34.162	01:29:27:26	6.992	Echinoidea	Strongylocentrotidae	Allocentrotus			Animalia	Echinoida	Echinodermata	Allocentrotus fragilis	Euechinoidea			Echinacea				Eukaryota		V3167-02
 	transect	Sebastes	309.05	3167	01:34:23:24	 	36.827244	-122.167755	2390045	1.08	07:09.0	Ventana	34.165	01:36:15:11	6.927	Osteichthyes	Scorpaenidae	Sebastes	Neopterygii		Animalia	Scorpaeniformes	Chordata		Actinopterygii			Scorpaenoidei	Vertebrata	Gnathostomata		Eukaryota	Acanthopterygii	V3167-02
 	transect	Rathbunaster californicus	308.83	3167	01:33:27:26	 	36.82759	-122.16766	2389729	1.08	06:13.0	Ventana	34.166	01:35:18:22	6.925		Labidiasteridae	Rathbunaster			Animalia	Forcipulatida	Echinodermata	Rathbunaster californicus	Asteroidea							Eukaryota		V3167-02
 	cruise	Metridium farcimen	110.36	3167	03:31:55:20	 	36.843372	-122.13854	2470942	4.58	05:35.0	Ventana	33.548	03:33:35:22	11.093	Anthozoa	Metridiidae	Metridium			Animalia	Actiniaria	Cnidaria	Metridium farcimen	Hexacorallia			Nyantheae				Eukaryota		V3167-04
 	transect	Stomphia	313.13	3167	01:17:41:26	 	36.82609	-122.16827	2370928	1.07	50:26.0	Ventana	34.166	01:19:33:06	6.913	Anthozoa	Actinostolidae	Stomphia			Animalia	Actiniaria	Cnidaria		Hexacorallia			Nyantheae				Eukaryota		V3167-02
 	transect	Allocentrotus fragilis	303.07	3167	01:29:24:19	 	36.827854	-122.168304	2388977	1.14	02:09.0	Ventana	34.159	01:31:17:05	7.042	Echinoidea	Strongylocentrotidae	Allocentrotus			Animalia	Echinoida	Echinodermata	Allocentrotus fragilis	Euechinoidea			Echinacea				Eukaryota		V3167-02
 	transect	Ceriantharia	171.47	3167	02:22:42:14	http://search.mbari.org/ARCHIVE/frameGrabs/Ventana/images/3167/02_24_24_21.jpg	36.836864	-122.15864	2467054	2.42	55:56.0	Ventana	33.973	02:24:24:21	9.033	Anthozoa					Animalia	Ceriantharia	Cnidaria		Ceriantipatharia							Eukaryota		V3167-03
 	transect	Allocentrotus fragilis	311.83	3167	01:24:05:14	 	36.826324	-122.16919	2372026	1.07	56:50.0	Ventana	34.165	01:25:56:01	6.925	Echinoidea	Strongylocentrotidae	Allocentrotus			Animalia	Echinoida	Echinodermata	Allocentrotus fragilis	Euechinoidea			Echinacea				Eukaryota		V3167-02
 	transect	Sebastes	309.22	3167	01:34:36:09	 	36.827168	-122.167786	2390075	1.08	07:21.0	Ventana	34.165	01:36:26:19	6.927	Osteichthyes	Scorpaenidae	Sebastes	Neopterygii		Animalia	Scorpaeniformes	Chordata		Actinopterygii			Scorpaenoidei	Vertebrata	Gnathostomata		Eukaryota	Acanthopterygii	V3167-02
 	cruise	Parastichopus leukothele	130.66	3167	02:52:16:04	 	36.838696	-122.153336	2467581	3.05	25:31.0	Ventana	33.825	02:53:57:25	9.822	Holothuroidea	Stichopodidae	Parastichopus			Animalia	Aspidochirotida	Echinodermata	Parastichopus leukothele	Aspidochirotacea							Eukaryota		V3167-03
 	cruise	Hydrolagus colliei	307.83	3167	01:50:36:10	 	36.82975	-122.167244	2465493	1.1	23:22.0	Ventana	34.163	01:52:27:04	6.961	Chondrichthyes	Chimaeridae	Hydrolagus			Animalia	Chimaeriformes	Chordata	Hydrolagus colliei	Holocephali			Chimaeroidei	Vertebrata			Eukaryota	Holocephalimorpha	V3167-02
 	endtransect	object	323.05	3167	00:54:17:08	 	36.82429	-122.17053	2463405	1.17	26:38.0	Ventana	34.157	00:56:12:21	7.082																			V3167-01
 	transect	Rathbunaster californicus	319.27	3167	00:26:36:14	 	36.824562	-122.16938	2462699	1.14	58:56.0	Ventana	34.158	00:28:32:29	7.04		Labidiasteridae	Rathbunaster			Animalia	Forcipulatida	Echinodermata	Rathbunaster californicus	Asteroidea							Eukaryota		V3167-01
 	transect	Rathbunaster californicus	309.64	3167	01:35:18:08	 	36.826916	-122.16794	2390250	1.08	08:03.0	Ventana	34.163	01:37:09:23	6.95		Labidiasteridae	Rathbunaster			Animalia	Forcipulatida	Echinodermata	Rathbunaster californicus	Asteroidea							Eukaryota		V3167-02
 	transect	Rathbunaster californicus	313.04	3167	01:18:24:09	 	36.825886	-122.16851	2371120	1.1	51:08.0	Ventana	34.16	01:20:16:07	6.984		Labidiasteridae	Rathbunaster			Animalia	Forcipulatida	Echinodermata	Rathbunaster californicus	Asteroidea							Eukaryota		V3167-02
 	transect	Parastichopus leukothele	307.78	3167	01:25:55:25	 	36.826893	-122.16885	2372825	1.19	58:40.0	Ventana	34.152	01:27:48:04	7.21	Holothuroidea	Stichopodidae	Parastichopus			Animalia	Aspidochirotida	Echinodermata	Parastichopus leukothele	Aspidochirotacea							Eukaryota		V3167-02
 	transect	Allocentrotus fragilis	308.74	3167	01:34:01:25	 	36.82738	-122.1677	2389927	1.08	06:47.0	Ventana	34.165	01:35:52:07	6.927	Echinoidea	Strongylocentrotidae	Allocentrotus			Animalia	Echinoida	Echinodermata	Allocentrotus fragilis	Euechinoidea			Echinacea				Eukaryota		V3167-02
 	transect	Sebastes	305.09	3167	01:27:32:07	 	36.827362	-122.168594	2388545	1.11	00:17.0	Ventana	34.162	01:29:22:20	6.992	Osteichthyes	Scorpaenidae	Sebastes	Neopterygii		Animalia	Scorpaeniformes	Chordata		Actinopterygii			Scorpaenoidei	Vertebrata	Gnathostomata		Eukaryota	Acanthopterygii	V3167-02
 	transect	Allocentrotus fragilis	303.73	3167	01:29:00:19	 	36.82776	-122.168365	2388898	1.09	01:45.0	Ventana	34.163	01:30:52:17	6.964	Echinoidea	Strongylocentrotidae	Allocentrotus			Animalia	Echinoida	Echinodermata	Allocentrotus fragilis	Euechinoidea			Echinacea				Eukaryota		V3167-02
 	cruise	Pleuronectiformes	107.54	3167	03:44:08:28	 	36.845562	-122.13479	2471036	4.81	17:49.0	Ventana	33.513	03:45:48:12	11.207	Osteichthyes			Neopterygii		Animalia	Pleuronectiformes	Chordata		Actinopterygii				Vertebrata	Gnathostomata		Eukaryota	Acanthopterygii	V3167-04
 	cruise	Laminariales	110.25	3167	03:17:24:02	 	36.842415	-122.14111	2468625	4.84	51:03.0	Ventana	33.518	03:19:05:09	11.223	Phaeophyceae					Chromista	Laminariales	Phaeophycophyta									Eukaryota		V3167-04
 	transect	Allocentrotus fragilis	309.53	3167	01:15:27:15	 	36.8267	-122.168304	2370444	1.07	48:11.0	Ventana	34.164	01:17:18:14	6.927	Echinoidea	Strongylocentrotidae	Allocentrotus			Animalia	Echinoida	Echinodermata	Allocentrotus fragilis	Euechinoidea			Echinacea				Eukaryota		V3167-02
 	transect	Parmaturus xaniurus	320.18	3167	00:18:28:14	 	36.824326	-122.16991	2462316	1.12	50:48.0	Ventana	34.161	00:20:25:00	6.992	Chondrichthyes	Scyliorhinidae	Parmaturus			Animalia	Carcharhiniformes	Chordata	Parmaturus xaniurus	Elasmobranchii				Vertebrata			Eukaryota	Galeomorphi	V3167-01
 	transect	Sebastes diploproa	319.27	3167	00:27:10:13	http://search.mbari.org/ARCHIVE/frameGrabs/Ventana/images/3167/00_29_05_09.jpg	36.82461	-122.16929	20023951	1.13	59:30.0	Ventana	34.159	00:29:05:09	7.025	Osteichthyes	Scorpaenidae	Sebastes	Neopterygii		Animalia	Scorpaeniformes	Chordata	Sebastes diploproa	Actinopterygii			Scorpaenoidei	Vertebrata	Gnathostomata		Eukaryota	Acanthopterygii	V3167-01
 	transect	Rathbunaster californicus	313.17	3167	01:18:07:24	 	36.82597	-122.1684	2371060	1.07	50:52.0	Ventana	34.165	01:20:00:15	6.914		Labidiasteridae	Rathbunaster			Animalia	Forcipulatida	Echinodermata	Rathbunaster californicus	Asteroidea							Eukaryota		V3167-02
 	cruise	cable	195.12	3167	02:17:49:08	http://search.mbari.org/ARCHIVE/frameGrabs/Ventana/images/3167/02_19_31_19.jpg	36.836292	-122.15986	2466935	2.07	51:02.0	Ventana	34.045	02:19:31:19	8.599																			V3167-03
 	transect	Rathbunaster californicus	319.06	3167	00:19:40:27	 	36.82439	-122.169685	2462406	1.14	52:00.0	Ventana	34.158	00:21:35:27	7.03		Labidiasteridae	Rathbunaster			Animalia	Forcipulatida	Echinodermata	Rathbunaster californicus	Asteroidea							Eukaryota		V3167-01
 	cruise	Ceriantharia sp. 3	303.4	3167	01:46:23:03	 	36.82863	-122.167885	2390896	1.09	19:09.0	Ventana	34.163	01:48:14:23	6.966	Anthozoa					Animalia	Ceriantharia	Cnidaria		Ceriantipatharia							Eukaryota		V3167-02
 	transect	Sebastes diploproa	314.81	3167	01:23:21:15	 	36.82606	-122.169304	2371856	1.07	56:05.0	Ventana	34.165	01:25:12:08	6.923	Osteichthyes	Scorpaenidae	Sebastes	Neopterygii		Animalia	Scorpaeniformes	Chordata	Sebastes diploproa	Actinopterygii			Scorpaenoidei	Vertebrata	Gnathostomata		Eukaryota	Acanthopterygii	V3167-02
 	transect	Rathbunaster californicus	308.83	3167	01:33:57:25	 	36.827408	-122.167694	2389897	1.08	06:43.0	Ventana	34.165	01:35:49:16	6.927		Labidiasteridae	Rathbunaster			Animalia	Forcipulatida	Echinodermata	Rathbunaster californicus	Asteroidea							Eukaryota		V3167-02
 	transect	Allocentrotus fragilis	319.39	3167	00:38:01:08	 	36.824913	-122.170135	2463022	1.16	10:22.0	Ventana	34.156	00:39:57:15	7.069	Echinoidea	Strongylocentrotidae	Allocentrotus			Animalia	Echinoida	Echinodermata	Allocentrotus fragilis	Euechinoidea			Echinacea				Eukaryota		V3167-01
 	transect	Rathbunaster californicus	308.58	3167	01:33:03:27	 	36.827694	-122.16764	2389634	1.08	05:48.0	Ventana	34.165	01:34:54:29	6.927		Labidiasteridae	Rathbunaster			Animalia	Forcipulatida	Echinodermata	Rathbunaster californicus	Asteroidea							Eukaryota		V3167-02
 	cruise	Agonidae	303.23	3167	01:31:27:15	 	36.82793	-122.16791	2389484	1.08	04:12.0	Ventana	34.165	01:33:17:23	6.94	Osteichthyes	Agonidae		Neopterygii		Animalia	Scorpaeniformes	Chordata		Actinopterygii				Vertebrata	Gnathostomata		Eukaryota	Acanthopterygii	V3167-02
 	transect	Allocentrotus fragilis	305.2	3167	01:27:40:07	 	36.827404	-122.16857	2388575	1.12	00:25.0	Ventana	34.159	01:29:32:04	7.026	Echinoidea	Strongylocentrotidae	Allocentrotus			Animalia	Echinoida	Echinodermata	Allocentrotus fragilis	Euechinoidea			Echinacea				Eukaryota		V3167-02
 	transect	Hippasteria	309.5	3167	01:35:06:08	 	36.82698	-122.167885	2390190	1.08	07:51.0	Ventana	34.164	01:36:57:28	6.94		Goniasteridae	Hippasteria			Animalia	Valvatida	Echinodermata		Asteroidea			Granulosina				Eukaryota		V3167-02
 	transect	Rathbunaster californicus	310.04	3167	01:24:57:27	 	36.82662	-122.16902	2372735	1.09	57:42.0	Ventana	34.165	01:26:49:26	6.968		Labidiasteridae	Rathbunaster			Animalia	Forcipulatida	Echinodermata	Rathbunaster californicus	Asteroidea							Eukaryota		V3167-02
 	transect	Rathbunaster californicus	308.9	3167	01:34:17:24	 	36.827282	-122.16774	2390017	1.08	07:03.0	Ventana	34.165	01:36:09:28	6.933		Labidiasteridae	Rathbunaster			Animalia	Forcipulatida	Echinodermata	Rathbunaster californicus	Asteroidea							Eukaryota		V3167-02
 	cruise	Allocentrotus fragilis	193.34	3167	02:18:05:08	 	36.836334	-122.15975	2467874	2.12	51:18.0	Ventana	34.026	02:19:48:28	8.656	Echinoidea	Strongylocentrotidae	Allocentrotus			Animalia	Echinoida	Echinodermata	Allocentrotus fragilis	Euechinoidea			Echinacea				Eukaryota		V3167-03
 	transect	Rathbunaster californicus	308.92	3167	01:33:49:25	 	36.827457	-122.16768	2389837	1.07	06:35.0	Ventana	34.166	01:35:40:24	6.926		Labidiasteridae	Rathbunaster			Animalia	Forcipulatida	Echinodermata	Rathbunaster californicus	Asteroidea							Eukaryota		V3167-02
 	transect	Allocentrotus fragilis	311.83	3167	01:24:05:14	 	36.826324	-122.16919	2372029	1.07	56:50.0	Ventana	34.165	01:25:56:01	6.925	Echinoidea	Strongylocentrotidae	Allocentrotus			Animalia	Echinoida	Echinodermata	Allocentrotus fragilis	Euechinoidea			Echinacea				Eukaryota		V3167-02
 	transect	Allocentrotus fragilis	310.76	3167	01:24:29:13	 	36.82646	-122.16911	2372915	1.08	57:14.0	Ventana	34.165	01:26:21:23	6.93	Echinoidea	Strongylocentrotidae	Allocentrotus			Animalia	Echinoida	Echinodermata	Allocentrotus fragilis	Euechinoidea			Echinacea				Eukaryota		V3167-02
 	transect	Rathbunaster californicus	308.91	3167	01:33:51:26	 	36.827446	-122.16769	2389867	1.07	06:37.0	Ventana	34.166	01:35:43:19	6.926		Labidiasteridae	Rathbunaster			Animalia	Forcipulatida	Echinodermata	Rathbunaster californicus	Asteroidea							Eukaryota		V3167-02
 	transect	Rathbunaster californicus	309.57	3167	01:35:12:08	 	36.826946	-122.167915	2390220	1.08	07:57.0	Ventana	34.163	01:37:03:18	6.95		Labidiasteridae	Rathbunaster			Animalia	Forcipulatida	Echinodermata	Rathbunaster californicus	Asteroidea							Eukaryota		V3167-02
 	endtransect	object	320.75	3167	00:38:49:07	 	36.824932	-122.17034	2463082	1.15	11:10.0	Ventana	34.157	00:40:44:04	7.043																			V3167-01
 	transect	Rathbunaster californicus	311.85	3167	01:23:59:14	 	36.82629	-122.169205	2371999	1.07	56:44.0	Ventana	34.165	01:25:49:23	6.925		Labidiasteridae	Rathbunaster			Animalia	Forcipulatida	Echinodermata	Rathbunaster californicus	Asteroidea							Eukaryota		V3167-02
 	transect	Rathbunaster californicus	322.94	3167	00:49:10:03	 	36.824528	-122.17075	2463255	1.18	21:31.0	Ventana	34.154	00:51:05:08	7.113		Labidiasteridae	Rathbunaster			Animalia	Forcipulatida	Echinodermata	Rathbunaster californicus	Asteroidea							Eukaryota		V3167-01
 	transect	Rathbunaster californicus	314.84	3167	01:23:11:15	 	36.826008	-122.16933	2371826	1.07	55:55.0	Ventana	34.165	01:25:03:12	6.923		Labidiasteridae	Rathbunaster			Animalia	Forcipulatida	Echinodermata	Rathbunaster californicus	Asteroidea							Eukaryota		V3167-02
 	transect	Raja rhina	303.17	3167	01:29:18:19	 	36.82783	-122.16832	2388958	1.12	02:03.0	Ventana	34.159	01:31:10:23	7.03	Chondrichthyes	Rajidae	Raja			Animalia	Rajiformes	Chordata	Raja rhina	Elasmobranchii				Vertebrata			Eukaryota	Batoidea	V3167-02
 	transect	Phyllospadix	167.87	3167	02:33:33:09	 	36.83733	-122.15891	2467348	2.68	06:47.0	Ventana	33.937	02:35:16:16	9.349		Zosteraceae	Phyllospadix			Plantae	Najadales										Eukaryota		V3167-03
 	transect	Rathbunaster californicus	315.5	3167	01:19:26:07	 	36.825554	-122.16883	2371293	1.09	52:10.0	Ventana	34.163	01:21:17:18	6.954		Labidiasteridae	Rathbunaster			Animalia	Forcipulatida	Echinodermata	Rathbunaster californicus	Asteroidea							Eukaryota		V3167-02
 	cruise	Parmaturus xaniurus	327.59	3167	00:12:18:26	 	36.823036	-122.17055	2462173	1.13	44:38.0	Ventana	34.156	00:14:15:09	7.021	Chondrichthyes	Scyliorhinidae	Parmaturus			Animalia	Carcharhiniformes	Chordata	Parmaturus xaniurus	Elasmobranchii				Vertebrata			Eukaryota	Galeomorphi	V3167-01
 	transect	Rathbunaster californicus	310.65	3167	01:24:33:27	 	36.82648	-122.169106	2372675	1.08	57:18.0	Ventana	34.165	01:26:24:19	6.93		Labidiasteridae	Rathbunaster			Animalia	Forcipulatida	Echinodermata	Rathbunaster californicus	Asteroidea							Eukaryota		V3167-02
 	transect	Rathbunaster californicus	308.83	3167	01:33:27:26	 	36.82759	-122.16766	2389724	1.08	06:13.0	Ventana	34.166	01:35:18:22	6.925		Labidiasteridae	Rathbunaster			Animalia	Forcipulatida	Echinodermata	Rathbunaster californicus	Asteroidea							Eukaryota		V3167-02
 	transect	Rathbunaster californicus	316.38	3167	01:22:11:02	 	36.82566	-122.16948	2371623	1.09	54:55.0	Ventana	34.163	01:24:01:15	6.958		Labidiasteridae	Rathbunaster			Animalia	Forcipulatida	Echinodermata	Rathbunaster californicus	Asteroidea							Eukaryota		V3167-02
 	transect	Allocentrotus fragilis	305.95	3167	01:27:00:08	 	36.827194	-122.168686	2388342	1.1	59:45.0	Ventana	34.164	01:28:51:24	6.964	Echinoidea	Strongylocentrotidae	Allocentrotus			Animalia	Echinoida	Echinodermata	Allocentrotus fragilis	Euechinoidea			Echinacea				Eukaryota		V3167-02
 	transect	Parastichopus leukothele	302.96	3167	01:29:41:03	 	36.82791	-122.16827	2389018	1.11	02:25.0	Ventana	34.163	01:31:32:12	6.985	Holothuroidea	Stichopodidae	Parastichopus			Animalia	Aspidochirotida	Echinodermata	Parastichopus leukothele	Aspidochirotacea							Eukaryota		V3167-02
 	transect	Rathbunaster californicus	309.31	3167	01:34:42:09	 	36.82712	-122.1678	2390100	1.08	07:27.0	Ventana	34.165	01:36:32:27	6.933		Labidiasteridae	Rathbunaster			Animalia	Forcipulatida	Echinodermata	Rathbunaster californicus	Asteroidea							Eukaryota		V3167-02
 	transect	Allocentrotus fragilis	319.04	3167	00:25:44:01	 	36.824474	-122.16951	2462496	1.13	58:04.0	Ventana	34.159	00:27:40:01	7.017	Echinoidea	Strongylocentrotidae	Allocentrotus			Animalia	Echinoida	Echinodermata	Allocentrotus fragilis	Euechinoidea			Echinacea				Eukaryota		V3167-01
 	cruise	mud	172.9	3167	02:36:30:04	 	36.837055	-122.159096	2467378	2.62	09:44.0	Ventana	33.943	02:38:13:20	9.273																			V3167-03
 	transect	Allocentrotus fragilis	310.49	3167	01:24:41:27	 	36.826527	-122.169075	2372705	1.08	57:26.0	Ventana	34.165	01:26:33:24	6.934	Echinoidea	Strongylocentrotidae	Allocentrotus			Animalia	Echinoida	Echinodermata	Allocentrotus fragilis	Euechinoidea			Echinacea				Eukaryota		V3167-02
 	transect	Rathbunaster californicus	312.46	3167	01:16:59:27	 	36.8263	-122.16816	2370594	1.07	49:43.0	Ventana	34.166	01:18:51:10	6.915		Labidiasteridae	Rathbunaster			Animalia	Forcipulatida	Echinodermata	Rathbunaster californicus	Asteroidea							Eukaryota		V3167-02
 	transect	Rathbunaster californicus	309.18	3167	01:34:32:09	 	36.827194	-122.16777	2390070	1.08	07:17.0	Ventana	34.165	01:36:23:28	6.927		Labidiasteridae	Rathbunaster			Animalia	Forcipulatida	Echinodermata	Rathbunaster californicus	Asteroidea							Eukaryota		V3167-02
 	transect	Allocentrotus fragilis	312.35	3167	01:16:55:27	 	36.826324	-122.16816	2370557	1.07	49:39.0	Ventana	34.166	01:18:46:25	6.915	Echinoidea	Strongylocentrotidae	Allocentrotus			Animalia	Echinoida	Echinodermata	Allocentrotus fragilis	Euechinoidea			Echinacea				Eukaryota		V3167-02
 	transect	Sebastes diploproa	306.4	3167	01:26:48:09	 	36.827133	-122.16872	2388312	1.12	59:32.0	Ventana	34.164	01:28:40:14	6.991	Osteichthyes	Scorpaenidae	Sebastes	Neopterygii		Animalia	Scorpaeniformes	Chordata	Sebastes diploproa	Actinopterygii			Scorpaenoidei	Vertebrata	Gnathostomata		Eukaryota	Acanthopterygii	V3167-02
 	transect	Raja rhina	305.04	3167	01:28:08:21	 	36.827553	-122.16849	2388658	1.13	00:53.0	Ventana	34.162	01:29:59:06	7	Chondrichthyes	Rajidae	Raja			Animalia	Rajiformes	Chordata	Raja rhina	Elasmobranchii				Vertebrata			Eukaryota	Batoidea	V3167-02
 	transect	Allocentrotus fragilis	305.77	3167	01:27:10:08	 	36.827248	-122.168655	2388372	1.1	59:55.0	Ventana	34.163	01:29:00:29	6.962	Echinoidea	Strongylocentrotidae	Allocentrotus			Animalia	Echinoida	Echinodermata	Allocentrotus fragilis	Euechinoidea			Echinacea				Eukaryota		V3167-02
 	cruise	Lycodes cortezianus	324.99	3167	00:14:15:07	 	36.82367	-122.17039	2462203	1.12	46:34.0	Ventana	34.16	00:16:10:20	6.976	Osteichthyes	Zoarcidae	Lycodes	Neopterygii		Animalia	Perciformes	Chordata	Lycodes cortezianus	Actinopterygii			Zoarcoidei	Vertebrata	Gnathostomata		Eukaryota	Acanthopterygii	V3167-01
 	transect	Ceriantharia sp. 3	306.38	3167	01:26:46:09	 	36.82712	-122.168724	2388282	1.12	59:30.0	Ventana	34.164	01:28:37:21	6.991	Anthozoa					Animalia	Ceriantharia	Cnidaria		Ceriantipatharia							Eukaryota		V3167-02
 	transect	Allocentrotus fragilis	311.62	3167	01:16:39:12	 	36.8264	-122.168175	2370527	1.07	49:23.0	Ventana	34.165	01:18:31:12	6.917	Echinoidea	Strongylocentrotidae	Allocentrotus			Animalia	Echinoida	Echinodermata	Allocentrotus fragilis	Euechinoidea			Echinacea				Eukaryota		V3167-02
 	cruise	Metridium farcimen	101.87	3167	04:07:11:08	 	36.850197	-122.12453	2471862	5.04	41:14.0	Ventana	33.481	04:08:46:26	11.289	Anthozoa	Metridiidae	Metridium			Animalia	Actiniaria	Cnidaria	Metridium farcimen	Hexacorallia			Nyantheae				Eukaryota		V3167-05
 	transect	Sebastes	306.94	3167	01:26:24:09	 	36.82701	-122.168785	2372945	1.17	59:08.0	Ventana	34.157	01:28:15:00	7.079	Osteichthyes	Scorpaenidae	Sebastes	Neopterygii		Animalia	Scorpaeniformes	Chordata		Actinopterygii			Scorpaenoidei	Vertebrata	Gnathostomata		Eukaryota	Acanthopterygii	V3167-02
 	transect	Rathbunaster californicus	316.51	3167	01:22:03:02	 	36.82562	-122.169495	2371593	1.09	54:47.0	Ventana	34.164	01:23:54:08	6.958		Labidiasteridae	Rathbunaster			Animalia	Forcipulatida	Echinodermata	Rathbunaster californicus	Asteroidea							Eukaryota		V3167-02
 	transect	Parastichopus leukothele	313.07	3167	01:17:31:25	 	36.82614	-122.16822	2370887	1.07	50:16.0	Ventana	34.166	01:19:22:05	6.912	Holothuroidea	Stichopodidae	Parastichopus			Animalia	Aspidochirotida	Echinodermata	Parastichopus leukothele	Aspidochirotacea							Eukaryota		V3167-02
 	cruise	trench	102.43	3167	04:03:38:15	http://search.mbari.org/ARCHIVE/frameGrabs/Ventana/images/3167/04_05_13_10.jpg	36.849552	-122.1262	20024094	4.99	37:41.0	Ventana	33.482	04:05:13:10	11.279																			V3167-05
 	transect	Rathbunaster californicus	315.51	3167	01:22:41:01	 	36.825825	-122.16941	2371706	1.08	55:25.0	Ventana	34.166	01:24:31:25	6.927		Labidiasteridae	Rathbunaster			Animalia	Forcipulatida	Echinodermata	Rathbunaster californicus	Asteroidea							Eukaryota		V3167-02
 	transect	Sebastolobus	309.33	3167	01:35:00:08	 	36.827015	-122.16786	2390160	1.08	07:45.0	Ventana	34.164	01:36:51:11	6.94	Osteichthyes	Scorpaenidae	Sebastolobus	Neopterygii		Animalia	Scorpaeniformes	Chordata		Actinopterygii			Scorpaenoidei	Vertebrata	Gnathostomata		Eukaryota	Acanthopterygii	V3167-02
 	transect	Rathbunaster californicus	320.64	3167	00:17:58:00	 	36.824326	-122.170006	2462233	1.12	50:17.0	Ventana	34.161	00:19:54:06	6.981		Labidiasteridae	Rathbunaster			Animalia	Forcipulatida	Echinodermata	Rathbunaster californicus	Asteroidea							Eukaryota		V3167-01
 	transect	Rathbunaster californicus	319.39	3167	00:28:14:26	 	36.824703	-122.16912	2462782	1.15	00:35.0	Ventana	34.158	00:30:10:05	7.043		Labidiasteridae	Rathbunaster			Animalia	Forcipulatida	Echinodermata	Rathbunaster californicus	Asteroidea							Eukaryota		V3167-01
 	transect	Allocentrotus fragilis	311.4	3167	01:24:11:13	 	36.82636	-122.16917	2372066	1.08	56:56.0	Ventana	34.164	01:26:03:00	6.927	Echinoidea	Strongylocentrotidae	Allocentrotus			Animalia	Echinoida	Echinodermata	Allocentrotus fragilis	Euechinoidea			Echinacea				Eukaryota		V3167-02
 	transect	Rathbunaster californicus	314.63	3167	01:19:06:08	 	36.82566	-122.16873	2371233	1.1	51:50.0	Ventana	34.163	01:20:56:17	6.956		Labidiasteridae	Rathbunaster			Animalia	Forcipulatida	Echinodermata	Rathbunaster californicus	Asteroidea							Eukaryota		V3167-02
 	cruise	Metridium farcimen	109.55	3167	03:37:27:10	 	36.84396	-122.13762	2470983	4.67	11:07.0	Ventana	33.535	03:39:07:03	11.133	Anthozoa	Metridiidae	Metridium			Animalia	Actiniaria	Cnidaria	Metridium farcimen	Hexacorallia			Nyantheae				Eukaryota		V3167-04
 	cruise	Metridium farcimen	126.19	3167	02:57:19:10	 	36.83937	-122.151596	2467641	3.02	30:34.0	Ventana	33.83	02:59:00:29	9.814	Anthozoa	Metridiidae	Metridium			Animalia	Actiniaria	Cnidaria	Metridium farcimen	Hexacorallia			Nyantheae				Eukaryota		V3167-03
 	cruise	Metridium farcimen	110.37	3167	03:29:33:10	 	36.84305	-122.13886	2470856	4.66	03:12.0	Ventana	33.536	03:31:13:19	11.134	Anthozoa	Metridiidae	Metridium			Animalia	Actiniaria	Cnidaria	Metridium farcimen	Hexacorallia			Nyantheae				Eukaryota		V3167-04
 	transect	Parastichopus leukothele	308.75	3167	01:33:33:26	 	36.827557	-122.16766	2389754	1.08	06:19.0	Ventana	34.166	01:35:25:26	6.925	Holothuroidea	Stichopodidae	Parastichopus			Animalia	Aspidochirotida	Echinodermata	Parastichopus leukothele	Aspidochirotacea							Eukaryota		V3167-02
 	transect	Sebastes	308.9	3167	01:34:07:25	 	36.827343	-122.16771	2389957	1.08	06:53.0	Ventana	34.165	01:35:58:22	6.933	Osteichthyes	Scorpaenidae	Sebastes	Neopterygii		Animalia	Scorpaeniformes	Chordata		Actinopterygii			Scorpaenoidei	Vertebrata	Gnathostomata		Eukaryota	Acanthopterygii	V3167-02
 	transect	Rathbunaster californicus	322.68	3167	00:58:01:02	 	36.824074	-122.17037	2464224	1.15	30:44.0	Ventana	34.157	00:59:52:11	7.058		Labidiasteridae	Rathbunaster			Animalia	Forcipulatida	Echinodermata	Rathbunaster californicus	Asteroidea							Eukaryota		V3167-02
 	transect	Allocentrotus fragilis	308.54	3167	01:25:41:26	 	36.82683	-122.16889	2372802	1.09	58:26.0	Ventana	34.163	01:27:33:23	6.991	Echinoidea	Strongylocentrotidae	Allocentrotus			Animalia	Echinoida	Echinodermata	Allocentrotus fragilis	Euechinoidea			Echinacea				Eukaryota		V3167-02
 	transect	Allocentrotus fragilis	316	3167	01:19:40:07	 	36.825485	-122.16891	2371360	1.08	52:24.0	Ventana	34.166	01:21:31:19	6.929	Echinoidea	Strongylocentrotidae	Allocentrotus			Animalia	Echinoida	Echinodermata	Allocentrotus fragilis	Euechinoidea			Echinacea				Eukaryota		V3167-02
 	transect	Rathbunaster californicus	311.12	3167	01:16:25:13	 	36.826477	-122.16819	2370497	1.08	49:09.0	Ventana	34.165	01:18:17:02	6.923		Labidiasteridae	Rathbunaster			Animalia	Forcipulatida	Echinodermata	Rathbunaster californicus	Asteroidea							Eukaryota		V3167-02
 	transect	Allocentrotus fragilis	306.89	3167	01:26:30:09	 	36.827053	-122.16876	2372975	1.17	59:14.0	Ventana	34.157	01:28:22:11	7.079	Echinoidea	Strongylocentrotidae	Allocentrotus			Animalia	Echinoida	Echinodermata	Allocentrotus fragilis	Euechinoidea			Echinacea				Eukaryota		V3167-02
 	transect	Rathbunaster californicus	318.46	3167	00:36:16:27	 	36.824883	-122.169754	2462969	1.15	08:37.0	Ventana	34.157	00:38:12:14	7.051		Labidiasteridae	Rathbunaster			Animalia	Forcipulatida	Echinodermata	Rathbunaster californicus	Asteroidea							Eukaryota		V3167-01
 	cruise	Sebastes diploproa	335.81	3167	00:06:39:21	 	36.821323	-122.17111	2462031	1.11	38:58.0	Ventana	34.162	00:08:34:17	6.938	Osteichthyes	Scorpaenidae	Sebastes	Neopterygii		Animalia	Scorpaeniformes	Chordata	Sebastes diploproa	Actinopterygii			Scorpaenoidei	Vertebrata	Gnathostomata		Eukaryota	Acanthopterygii	V3167-01
 	transect	Stomphia	314.93	3167	01:22:59:01	 	36.825928	-122.169365	2371773	1.07	55:43.0	Ventana	34.165	01:24:51:23	6.926	Anthozoa	Actinostolidae	Stomphia			Animalia	Actiniaria	Cnidaria		Hexacorallia			Nyantheae				Eukaryota		V3167-02
 	cruise	Metridium farcimen	127.4	3167	02:53:50:16	 	36.839016	-122.1525	2467604	3.1	27:05.0	Ventana	33.803	02:55:33:00	9.937	Anthozoa	Metridiidae	Metridium			Animalia	Actiniaria	Cnidaria	Metridium farcimen	Hexacorallia			Nyantheae				Eukaryota		V3167-03
 	transect	Rathbunaster californicus	308.74	3167	01:34:01:25	 	36.82738	-122.1677	2389920	1.08	06:47.0	Ventana	34.165	01:35:52:07	6.927		Labidiasteridae	Rathbunaster			Animalia	Forcipulatida	Echinodermata	Rathbunaster californicus	Asteroidea							Eukaryota		V3167-02
 	transect	Rathbunaster californicus	313.27	3167	01:18:22:09	 	36.825893	-122.168495	2371113	1.08	51:06.0	Ventana	34.161	01:20:13:16	6.953		Labidiasteridae	Rathbunaster			Animalia	Forcipulatida	Echinodermata	Rathbunaster californicus	Asteroidea							Eukaryota		V3167-02
 	cruise	cable	215.04	3167	02:14:50:14	http://search.mbari.org/ARCHIVE/frameGrabs/Ventana/images/3167/02_16_32_17.jpg	36.835686	-122.160675	20024034	1.69	48:03.0	Ventana	34.1	02:16:32:17	8.021																			V3167-03
 	cruise	Parastichopus leukothele	117.54	3167	03:04:57:10	 	36.841026	-122.14776	2468249	3.49	38:35.0	Ventana	33.73	03:06:37:02	10.389	Holothuroidea	Stichopodidae	Parastichopus			Animalia	Aspidochirotida	Echinodermata	Parastichopus leukothele	Aspidochirotacea							Eukaryota		V3167-04
 	transect	Sebastes diploproa	313	3167	01:17:19:26	 	36.8262	-122.16818	2370790	1.07	50:04.0	Ventana	34.165	01:19:11:07	6.914	Osteichthyes	Scorpaenidae	Sebastes	Neopterygii		Animalia	Scorpaeniformes	Chordata	Sebastes diploproa	Actinopterygii			Scorpaenoidei	Vertebrata	Gnathostomata		Eukaryota	Acanthopterygii	V3167-02
 	transect	Rathbunaster californicus	314.98	3167	01:22:49:01	 	36.82587	-122.16939	2371743	1.08	55:33.0	Ventana	34.166	01:24:41:01	6.927		Labidiasteridae	Rathbunaster			Animalia	Forcipulatida	Echinodermata	Rathbunaster californicus	Asteroidea							Eukaryota		V3167-02
 	transect	Stylasterias forreri	320.13	3167	00:18:32:14	http://search.mbari.org/ARCHIVE/frameGrabs/Ventana/images/3167/00_20_28_11.jpg	36.82433	-122.16989	2462323	1.12	50:52.0	Ventana	34.161	00:20:28:11	6.992		Asteriidae	Stylasterias			Animalia	Forcipulatida	Echinodermata	Stylasterias forreri	Asteroidea							Eukaryota		V3167-01
 	transect	Allocentrotus fragilis	305.16	3167	01:27:24:07	 	36.82732	-122.16862	2388508	1.11	00:09.0	Ventana	34.162	01:29:16:10	6.992	Echinoidea	Strongylocentrotidae	Allocentrotus			Animalia	Echinoida	Echinodermata	Allocentrotus fragilis	Euechinoidea			Echinacea				Eukaryota		V3167-02
 	transect	Rathbunaster californicus	313.21	3167	01:18:13:24	 	36.82593	-122.16845	2371083	1.08	50:58.0	Ventana	34.161	01:20:06:01	6.953		Labidiasteridae	Rathbunaster			Animalia	Forcipulatida	Echinodermata	Rathbunaster californicus	Asteroidea							Eukaryota		V3167-02
 	transect	Rathbunaster californicus	308.88	3167	01:32:59:27	 	36.827705	-122.16764	2389627	1.08	05:44.0	Ventana	34.165	01:34:51:16	6.927		Labidiasteridae	Rathbunaster			Animalia	Forcipulatida	Echinodermata	Rathbunaster californicus	Asteroidea							Eukaryota		V3167-02
 	transect	Allocentrotus fragilis	320.36	3167	00:38:25:08	 	36.82492	-122.17021	2463045	1.14	10:46.0	Ventana	34.16	00:40:21:00	7.03	Echinoidea	Strongylocentrotidae	Allocentrotus			Animalia	Echinoida	Echinodermata	Allocentrotus fragilis	Euechinoidea			Echinacea				Eukaryota		V3167-01
 	transect	Mediaster aequalis	303.73	3167	01:29:00:19	 	36.82776	-122.168365	2388905	1.09	01:45.0	Ventana	34.163	01:30:52:17	6.964		Goniasteridae	Mediaster			Animalia	Valvatida	Echinodermata	Mediaster aequalis	Asteroidea			Granulosina				Eukaryota		V3167-02
 	transect	Rathbunaster californicus	322.94	3167	00:54:13:09	 	36.8243	-122.17053	2463398	1.17	26:34.0	Ventana	34.155	00:56:09:12	7.09		Labidiasteridae	Rathbunaster			Animalia	Forcipulatida	Echinodermata	Rathbunaster californicus	Asteroidea							Eukaryota		V3167-01
 	cruise	Parmaturus xaniurus	318.35	3167	01:06:39:01	 	36.82507	-122.16991	2464457	1.13	39:22.0	Ventana	34.16	01:08:31:10	7.017	Chondrichthyes	Scyliorhinidae	Parmaturus			Animalia	Carcharhiniformes	Chordata	Parmaturus xaniurus	Elasmobranchii				Vertebrata			Eukaryota	Galeomorphi	V3167-02
 	transect	Allocentrotus fragilis	305.15	3167	01:27:36:07	 	36.82738	-122.16859	2388568	1.11	00:21.0	Ventana	34.162	01:29:27:26	6.992	Echinoidea	Strongylocentrotidae	Allocentrotus			Animalia	Echinoida	Echinodermata	Allocentrotus fragilis	Euechinoidea			Echinacea				Eukaryota		V3167-02
 	cruise	sediment	109.92	3167	03:18:20:16	http://search.mbari.org/ARCHIVE/frameGrabs/Ventana/images/3167/03_19_59_18.jpg	36.84254	-122.14068	2468632	4.67	51:59.0	Ventana	33.544	03:19:59:18	11.134																			V3167-04
 	transect	Phyllospadix	163.97	3167	02:25:35:09	 	36.83699	-122.15814	2467205	2.65	58:49.0	Ventana	33.943	02:27:17:03	9.291		Zosteraceae	Phyllospadix			Plantae	Najadales										Eukaryota		V3167-03
 	transect	Rathbunaster californicus	308.41	3167	01:33:09:27	 	36.827675	-122.16765	2389657	1.08	05:54.0	Ventana	34.166	01:35:00:05	6.926		Labidiasteridae	Rathbunaster			Animalia	Forcipulatida	Echinodermata	Rathbunaster californicus	Asteroidea							Eukaryota		V3167-02
 	transect	Rathbunaster californicus	308.91	3167	01:33:51:26	 	36.827446	-122.16769	2389860	1.07	06:37.0	Ventana	34.166	01:35:43:19	6.926		Labidiasteridae	Rathbunaster			Animalia	Forcipulatida	Echinodermata	Rathbunaster californicus	Asteroidea							Eukaryota		V3167-02
 	transect	Allocentrotus fragilis	305.1	3167	01:27:48:21	 	36.827442	-122.16855	2388598	1.12	00:33.0	Ventana	34.159	01:29:40:03	7.026	Echinoidea	Strongylocentrotidae	Allocentrotus			Animalia	Echinoida	Echinodermata	Allocentrotus fragilis	Euechinoidea			Echinacea				Eukaryota		V3167-02
 	cruise	Parastichopus leukothele	300.51	3167	01:56:43:14	 	36.831512	-122.165825	2465530	1.1	29:30.0	Ventana	34.162	01:58:35:18	6.975	Holothuroidea	Stichopodidae	Parastichopus			Animalia	Aspidochirotida	Echinodermata	Parastichopus leukothele	Aspidochirotacea							Eukaryota		V3167-02
 	transect	Rathbunaster californicus	309.53	3167	01:35:10:08	 	36.826958	-122.16791	2390213	1.08	07:55.0	Ventana	34.163	01:37:01:07	6.95		Labidiasteridae	Rathbunaster			Animalia	Forcipulatida	Echinodermata	Rathbunaster californicus	Asteroidea							Eukaryota		V3167-02
 	transect	Sebastes diploproa	309.47	3167	01:25:15:26	 	36.82671	-122.16896	2372758	1.11	58:00.0	Ventana	34.161	01:27:07:03	7.022	Osteichthyes	Scorpaenidae	Sebastes	Neopterygii		Animalia	Scorpaeniformes	Chordata	Sebastes diploproa	Actinopterygii			Scorpaenoidei	Vertebrata	Gnathostomata		Eukaryota	Acanthopterygii	V3167-02
 	transect	Phyllospadix	165.8	3167	02:32:28:26	 	36.837364	-122.15872	2467341	2.71	05:43.0	Ventana	33.934	02:34:12:02	9.379		Zosteraceae	Phyllospadix			Plantae	Najadales										Eukaryota		V3167-03
 	transect	Hippasteria	314.7	3167	01:23:15:15	 	36.82603	-122.16932	2371833	1.07	55:59.0	Ventana	34.165	01:25:06:20	6.923		Goniasteridae	Hippasteria			Animalia	Valvatida	Echinodermata		Asteroidea			Granulosina				Eukaryota		V3167-02
 	cruise	Sebastes	285.21	3167	02:02:15:22	 	36.83295	-122.16445	2467724	1.14	35:27.0	Ventana	34.159	02:03:57:21	7.045	Osteichthyes	Scorpaenidae	Sebastes	Neopterygii		Animalia	Scorpaeniformes	Chordata		Actinopterygii			Scorpaenoidei	Vertebrata	Gnathostomata		Eukaryota	Acanthopterygii	V3167-03
 	transect	Allocentrotus fragilis	303.17	3167	01:29:18:19	 	36.82783	-122.16832	2388965	1.12	02:03.0	Ventana	34.159	01:31:10:23	7.03	Echinoidea	Strongylocentrotidae	Allocentrotus			Animalia	Echinoida	Echinodermata	Allocentrotus fragilis	Euechinoidea			Echinacea				Eukaryota		V3167-02
 	transect	Rathbunaster californicus	308.83	3167	01:33:57:25	 	36.827408	-122.167694	2389890	1.08	06:43.0	Ventana	34.165	01:35:49:16	6.927		Labidiasteridae	Rathbunaster			Animalia	Forcipulatida	Echinodermata	Rathbunaster californicus	Asteroidea							Eukaryota		V3167-02
 	transect	Rathbunaster californicus	309.63	3167	01:35:14:08	 	36.826935	-122.16792	2390243	1.08	07:59.0	Ventana	34.163	01:37:06:09	6.95		Labidiasteridae	Rathbunaster			Animalia	Forcipulatida	Echinodermata	Rathbunaster californicus	Asteroidea							Eukaryota		V3167-02
 	cruise	Metridium farcimen	97.29	3167	04:23:41:08	 	36.853737	-122.11686	2471998	5.03	57:45.0	Ventana	33.482	04:25:16:04	11.286	Anthozoa	Metridiidae	Metridium			Animalia	Actiniaria	Cnidaria	Metridium farcimen	Hexacorallia			Nyantheae				Eukaryota		V3167-05
 	transect	Rathbunaster californicus	314.8	3167	01:23:05:15	 	36.825962	-122.16935	2371803	1.07	55:49.0	Ventana	34.165	01:24:56:17	6.926		Labidiasteridae	Rathbunaster			Animalia	Forcipulatida	Echinodermata	Rathbunaster californicus	Asteroidea							Eukaryota		V3167-02
 	transect	Phyllospadix	171.9	3167	02:35:17:21	 	36.83722	-122.15919	2467371	2.65	08:32.0	Ventana	33.941	02:37:01:02	9.303		Zosteraceae	Phyllospadix			Plantae	Najadales										Eukaryota		V3167-03
 	cruise	Parastichopus leukothele	115.47	3167	03:07:25:21	 	36.84142	-122.14628	2468399	3.67	41:04.0	Ventana	33.714	03:09:06:19	10.446	Holothuroidea	Stichopodidae	Parastichopus			Animalia	Aspidochirotida	Echinodermata	Parastichopus leukothele	Aspidochirotacea							Eukaryota		V3167-04
 	transect	Rathbunaster californicus	309.05	3167	01:34:23:24	 	36.827244	-122.167755	2390040	1.08	07:09.0	Ventana	34.165	01:36:15:11	6.927		Labidiasteridae	Rathbunaster			Animalia	Forcipulatida	Echinodermata	Rathbunaster californicus	Asteroidea							Eukaryota		V3167-02
 	cruise	Metridium farcimen	135.79	3167	02:49:47:09	 	36.83841	-122.15418	2467544	2.98	23:02.0	Ventana	33.844	02:51:29:21	9.731	Anthozoa	Metridiidae	Metridium			Animalia	Actiniaria	Cnidaria	Metridium farcimen	Hexacorallia			Nyantheae				Eukaryota		V3167-03
 	transect	Psolus squamatus	319.07	3167	00:26:04:00	 	36.824505	-122.169464	2462526	1.13	58:24.0	Ventana	34.159	00:27:59:26	7.022	Holothuroidea	Psolidae	Psolus			Animalia	Dendrochirotida	Echinodermata	Psolus squamatus								Eukaryota		V3167-01
 	transect	Sabellidae	322.64	3167	00:58:57:15	 	36.82395	-122.17024	2464261	1.14	31:40.0	Ventana	34.157	01:00:49:17	7.047	Polychaeta	Sabellidae				Animalia	Sabellida	Annelida		Palpata							Eukaryota	Canalipalpata	V3167-02
 	transect	Rathbunaster californicus	308.88	3167	01:33:31:26	 	36.827568	-122.16766	2389747	1.08	06:17.0	Ventana	34.166	01:35:22:12	6.925		Labidiasteridae	Rathbunaster			Animalia	Forcipulatida	Echinodermata	Rathbunaster californicus	Asteroidea							Eukaryota		V3167-02
 	transect	Rathbunaster californicus	310.49	3167	01:24:41:27	 	36.826527	-122.169075	2372698	1.08	57:26.0	Ventana	34.165	01:26:33:24	6.934		Labidiasteridae	Rathbunaster			Animalia	Forcipulatida	Echinodermata	Rathbunaster californicus	Asteroidea							Eukaryota		V3167-02
 	transect	Allocentrotus fragilis	306.88	3167	01:26:32:09	 	36.827057	-122.168755	2372982	1.17	59:16.0	Ventana	34.157	01:28:24:13	7.079	Echinoidea	Strongylocentrotidae	Allocentrotus			Animalia	Echinoida	Echinodermata	Allocentrotus fragilis	Euechinoidea			Echinacea				Eukaryota		V3167-02
 	transect	Allocentrotus fragilis	312.35	3167	01:16:55:27	 	36.826324	-122.16816	2370564	1.07	49:39.0	Ventana	34.166	01:18:46:25	6.915	Echinoidea	Strongylocentrotidae	Allocentrotus			Animalia	Echinoida	Echinodermata	Allocentrotus fragilis	Euechinoidea			Echinacea				Eukaryota		V3167-02
 	transect	Parastichopus leukothele	312.46	3167	01:16:59:27	 	36.8263	-122.16816	2370587	1.07	49:43.0	Ventana	34.166	01:18:51:10	6.915	Holothuroidea	Stichopodidae	Parastichopus			Animalia	Aspidochirotida	Echinodermata	Parastichopus leukothele	Aspidochirotacea							Eukaryota		V3167-02
 	transect	Stomphia	312.97	3167	01:17:51:25	 	36.826042	-122.16832	2370963	1.07	50:36.0	Ventana	34.166	01:19:43:24	6.913	Anthozoa	Actinostolidae	Stomphia			Animalia	Actiniaria	Cnidaria		Hexacorallia			Nyantheae				Eukaryota		V3167-02
 	transect	Allocentrotus fragilis	305.95	3167	01:27:00:08	 	36.827194	-122.168686	2388335	1.1	59:45.0	Ventana	34.164	01:28:51:24	6.964	Echinoidea	Strongylocentrotidae	Allocentrotus			Animalia	Echinoida	Echinodermata	Allocentrotus fragilis	Euechinoidea			Echinacea				Eukaryota		V3167-02
 	cruise	Metridium farcimen	114.57	3167	03:10:02:16	 	36.841667	-122.14475	2468452	3.75	43:40.0	Ventana	33.688	03:11:41:18	10.571	Anthozoa	Metridiidae	Metridium			Animalia	Actiniaria	Cnidaria	Metridium farcimen	Hexacorallia			Nyantheae				Eukaryota		V3167-04
 	transect	Rathbunaster californicus	315.37	3167	01:19:24:07	 	36.82556	-122.16882	2371286	1.09	52:08.0	Ventana	34.163	01:21:15:14	6.954		Labidiasteridae	Rathbunaster			Animalia	Forcipulatida	Echinodermata	Rathbunaster californicus	Asteroidea							Eukaryota		V3167-02
 	transect	Allocentrotus fragilis	302.91	3167	01:29:45:03	 	36.827923	-122.16826	2389025	1.11	02:29.0	Ventana	34.163	01:31:35:26	6.985	Echinoidea	Strongylocentrotidae	Allocentrotus			Animalia	Echinoida	Echinodermata	Allocentrotus fragilis	Euechinoidea			Echinacea				Eukaryota		V3167-02
 	transect	Rathbunaster californicus	313.11	3167	01:17:39:25	 	36.826103	-122.16826	2370910	1.07	50:24.0	Ventana	34.166	01:19:30:05	6.913		Labidiasteridae	Rathbunaster			Animalia	Forcipulatida	Echinodermata	Rathbunaster californicus	Asteroidea							Eukaryota		V3167-02
 	transect	Rathbunaster californicus	321.5	3167	00:46:19:08	 	36.824886	-122.17065	2463225	1.13	18:40.0	Ventana	34.16	00:48:14:11	7.026		Labidiasteridae	Rathbunaster			Animalia	Forcipulatida	Echinodermata	Rathbunaster californicus	Asteroidea							Eukaryota		V3167-01
 	cruise	Florometra serratissima	327.52	3167	00:12:50:24	http://search.mbari.org/ARCHIVE/frameGrabs/Ventana/images/3167/00_14_47_02.jpg	36.82321	-122.17051	2462180	1.13	45:10.0	Ventana	34.159	00:14:47:02	6.999	Crinoidea	Antedonidae	Florometra			Animalia	Comatulidina	Echinodermata	Florometra serratissima							Antedonacea	Eukaryota		V3167-01
 	transect	Rathbunaster californicus	309.11	3167	01:34:48:08	 	36.827087	-122.16782	2390123	1.08	07:33.0	Ventana	34.165	01:36:38:27	6.933		Labidiasteridae	Rathbunaster			Animalia	Forcipulatida	Echinodermata	Rathbunaster californicus	Asteroidea							Eukaryota		V3167-02
 	transect	Rathbunaster californicus	321.79	3167	00:45:47:09	 	36.82484	-122.17052	2463195	1.14	18:08.0	Ventana	34.158	00:47:43:28	7.038		Labidiasteridae	Rathbunaster			Animalia	Forcipulatida	Echinodermata	Rathbunaster californicus	Asteroidea							Eukaryota		V3167-01
 	transect	Stomphia	312.08	3167	01:16:47:27	 	36.826363	-122.16817	2370534	1.07	49:31.0	Ventana	34.165	01:18:38:21	6.917	Anthozoa	Actinostolidae	Stomphia			Animalia	Actiniaria	Cnidaria		Hexacorallia			Nyantheae				Eukaryota		V3167-02
 	transect	Sebastes	308.76	3167	01:33:23:27	 	36.82762	-122.167656	2389717	1.08	06:08.0	Ventana	34.166	01:35:15:24	6.925	Osteichthyes	Scorpaenidae	Sebastes	Neopterygii		Animalia	Scorpaeniformes	Chordata		Actinopterygii			Scorpaenoidei	Vertebrata	Gnathostomata		Eukaryota	Acanthopterygii	V3167-02
 	transect	Rathbunaster californicus	313.07	3167	01:17:31:25	 	36.82614	-122.16822	2370880	1.07	50:16.0	Ventana	34.166	01:19:22:05	6.912		Labidiasteridae	Rathbunaster			Animalia	Forcipulatida	Echinodermata	Rathbunaster californicus	Asteroidea							Eukaryota		V3167-02
 	transect	Rathbunaster californicus	309.27	3167	01:34:38:09	 	36.82714	-122.16779	2390093	1.08	07:23.0	Ventana	34.165	01:36:29:19	6.933		Labidiasteridae	Rathbunaster			Animalia	Forcipulatida	Echinodermata	Rathbunaster californicus	Asteroidea							Eukaryota		V3167-02
 	cruise	Microstomus pacificus	330.57	3167	00:10:22:14	 	36.82244	-122.170685	2462144	1.11	42:41.0	Ventana	34.162	00:12:19:04	6.953	Osteichthyes	Pleuronectidae	Microstomus	Neopterygii		Animalia	Pleuronectiformes	Chordata	Microstomus pacificus	Actinopterygii				Vertebrata	Gnathostomata		Eukaryota	Acanthopterygii	V3167-01
 	transect	Rathbunaster californicus	315.85	3167	01:22:31:02	 	36.825768	-122.16944	2371683	1.08	55:15.0	Ventana	34.164	01:24:23:04	6.938		Labidiasteridae	Rathbunaster			Animalia	Forcipulatida	Echinodermata	Rathbunaster californicus	Asteroidea							Eukaryota		V3167-02
 	transect	Allocentrotus fragilis	306.4	3167	01:26:48:09	 	36.827133	-122.16872	2388305	1.12	59:32.0	Ventana	34.164	01:28:40:14	6.991	Echinoidea	Strongylocentrotidae	Allocentrotus			Animalia	Echinoida	Echinodermata	Allocentrotus fragilis	Euechinoidea			Echinacea				Eukaryota		V3167-02
 	transect	Rathbunaster californicus	309.57	3167	01:35:04:08	 	36.826992	-122.16788	2390183	1.08	07:49.0	Ventana	34.164	01:36:54:18	6.94		Labidiasteridae	Rathbunaster			Animalia	Forcipulatida	Echinodermata	Rathbunaster californicus	Asteroidea							Eukaryota		V3167-02
 	transect	Allocentrotus fragilis	319.05	3167	00:25:22:02	 	36.824444	-122.169556	2462473	1.13	57:42.0	Ventana	34.159	00:27:16:27	7.011	Echinoidea	Strongylocentrotidae	Allocentrotus			Animalia	Echinoida	Echinodermata	Allocentrotus fragilis	Euechinoidea			Echinacea				Eukaryota		V3167-01
 	cruise	Metridium farcimen	138.67	3167	02:48:00:27	http://search.mbari.org/ARCHIVE/frameGrabs/Ventana/images/3167/02_49_42_22.jpg	36.83815	-122.15487	2467491	2.92	21:16.0	Ventana	33.865	02:49:42:22	9.635	Anthozoa	Metridiidae	Metridium			Animalia	Actiniaria	Cnidaria	Metridium farcimen	Hexacorallia			Nyantheae				Eukaryota		V3167-03
 	transect	Rathbunaster californicus	314.24	3167	01:19:00:08	 	36.825695	-122.16871	2371226	1.1	51:44.0	Ventana	34.163	01:20:51:02	6.956		Labidiasteridae	Rathbunaster			Animalia	Forcipulatida	Echinodermata	Rathbunaster californicus	Asteroidea							Eukaryota		V3167-02
 	transect	Rathbunaster californicus	311.4	3167	01:24:11:13	 	36.82636	-122.16917	2372059	1.08	56:56.0	Ventana	34.164	01:26:03:00	6.927		Labidiasteridae	Rathbunaster			Animalia	Forcipulatida	Echinodermata	Rathbunaster californicus	Asteroidea							Eukaryota		V3167-02
 	transect	Sebastes diploproa	315.51	3167	01:22:41:01	 	36.825825	-122.16941	2371713	1.08	55:25.0	Ventana	34.166	01:24:33:21	6.927	Osteichthyes	Scorpaenidae	Sebastes	Neopterygii		Animalia	Scorpaeniformes	Chordata	Sebastes diploproa	Actinopterygii			Scorpaenoidei	Vertebrata	Gnathostomata		Eukaryota	Acanthopterygii	V3167-02
 	transect	Rathbunaster californicus	318.5	3167	00:37:16:25	 	36.8249	-122.169975	2462992	1.16	09:37.0	Ventana	34.157	00:39:12:24	7.073		Labidiasteridae	Rathbunaster			Animalia	Forcipulatida	Echinodermata	Rathbunaster californicus	Asteroidea							Eukaryota		V3167-01
 	transect	Rathbunaster californicus	311.36	3167	01:16:31:12	 	36.82644	-122.16818	2370504	1.08	49:15.0	Ventana	34.165	01:18:23:17	6.923		Labidiasteridae	Rathbunaster			Animalia	Forcipulatida	Echinodermata	Rathbunaster californicus	Asteroidea							Eukaryota		V3167-02
 	starttransect	object	318.62	3167	00:24:19:18	 	36.82441	-122.16962	2462443	1.13	56:39.0	Ventana	34.159	00:26:15:00	7.02																			V3167-01
 	transect	Sebastes	308.62	3167	01:34:11:25	 	36.82732	-122.167725	2389980	1.08	06:57.0	Ventana	34.165	01:36:02:14	6.933	Osteichthyes	Scorpaenidae	Sebastes	Neopterygii		Animalia	Scorpaeniformes	Chordata		Actinopterygii			Scorpaenoidei	Vertebrata	Gnathostomata		Eukaryota	Acanthopterygii	V3167-02
 	transect	Allocentrotus fragilis	318.54	3167	00:35:54:12	 	36.824875	-122.16968	2462962	1.14	08:15.0	Ventana	34.158	00:37:50:11	7.036	Echinoidea	Strongylocentrotidae	Allocentrotus			Animalia	Echinoida	Echinodermata	Allocentrotus fragilis	Euechinoidea			Echinacea				Eukaryota		V3167-01
 	transect	Allocentrotus fragilis	322.86	3167	00:53:48:25	 	36.82433	-122.17058	2463368	1.17	26:10.0	Ventana	34.155	00:55:45:21	7.097	Echinoidea	Strongylocentrotidae	Allocentrotus			Animalia	Echinoida	Echinodermata	Allocentrotus fragilis	Euechinoidea			Echinacea				Eukaryota		V3167-01
 	transect	Allocentrotus fragilis	314.15	3167	01:23:27:15	 	36.826096	-122.16929	2371886	1.07	56:11.0	Ventana	34.166	01:25:19:15	6.924	Echinoidea	Strongylocentrotidae	Allocentrotus			Animalia	Echinoida	Echinodermata	Allocentrotus fragilis	Euechinoidea			Echinacea				Eukaryota		V3167-02
 	transect	Allocentrotus fragilis	313.56	3167	01:23:33:14	 	36.826138	-122.16927	2371916	1.07	56:18.0	Ventana	34.166	01:25:24:26	6.924	Echinoidea	Strongylocentrotidae	Allocentrotus			Animalia	Echinoida	Echinodermata	Allocentrotus fragilis	Euechinoidea			Echinacea				Eukaryota		V3167-02
 	transect	Rathbunaster californicus	308.79	3167	01:32:55:12	 	36.827724	-122.16764	2389604	1.08	05:40.0	Ventana	34.165	01:34:48:01	6.927		Labidiasteridae	Rathbunaster			Animalia	Forcipulatida	Echinodermata	Rathbunaster californicus	Asteroidea							Eukaryota		V3167-02
 	transect	Allocentrotus fragilis	306.94	3167	01:26:24:09	 	36.82701	-122.168785	2372952	1.17	59:08.0	Ventana	34.157	01:28:15:00	7.079	Echinoidea	Strongylocentrotidae	Allocentrotus			Animalia	Echinoida	Echinodermata	Allocentrotus fragilis	Euechinoidea			Echinacea				Eukaryota		V3167-02
 	transect	cable	322.62	3167	00:58:13:01	 	36.824043	-122.17035	2464231	1.15	30:56.0	Ventana	34.158	01:00:04:18	7.048																			V3167-02
 	transect	Rathbunaster californicus	309.01	3167	01:34:56:08	 	36.827038	-122.16785	2390153	1.08	07:41.0	Ventana	34.164	01:36:48:12	6.94		Labidiasteridae	Rathbunaster			Animalia	Forcipulatida	Echinodermata	Rathbunaster californicus	Asteroidea							Eukaryota		V3167-02
 	transect	Rathbunaster californicus	316.04	3167	01:19:42:06	 	36.825478	-122.168915	2371367	1.08	52:26.0	Ventana	34.166	01:21:33:22	6.929		Labidiasteridae	Rathbunaster			Animalia	Forcipulatida	Echinodermata	Rathbunaster californicus	Asteroidea							Eukaryota		V3167-02
 	transect	Sebastes	308.9	3167	01:34:07:25	 	36.827343	-122.16771	2389950	1.08	06:53.0	Ventana	34.165	01:35:58:22	6.933	Osteichthyes	Scorpaenidae	Sebastes	Neopterygii		Animalia	Scorpaeniformes	Chordata		Actinopterygii			Scorpaenoidei	Vertebrata	Gnathostomata		Eukaryota	Acanthopterygii	V3167-02
 	transect	Sebastes	309.1	3167	01:25:31:26	 	36.826786	-122.168915	2372779	1.11	58:16.0	Ventana	34.161	01:27:23:09	6.98	Osteichthyes	Scorpaenidae	Sebastes	Neopterygii		Animalia	Scorpaeniformes	Chordata		Actinopterygii			Scorpaenoidei	Vertebrata	Gnathostomata		Eukaryota	Acanthopterygii	V3167-02
 	transect	Rathbunaster californicus	311.33	3167	01:24:15:13	 	36.82638	-122.16916	2372089	1.08	57:00.0	Ventana	34.164	01:26:07:08	6.927		Labidiasteridae	Rathbunaster			Animalia	Forcipulatida	Echinodermata	Rathbunaster californicus	Asteroidea							Eukaryota		V3167-02
 	cruise	Metridium farcimen	109.03	3167	03:38:11:08	 	36.844154	-122.13733	2470990	4.76	11:51.0	Ventana	33.514	03:39:50:18	11.198	Anthozoa	Metridiidae	Metridium			Animalia	Actiniaria	Cnidaria	Metridium farcimen	Hexacorallia			Nyantheae				Eukaryota		V3167-04
 	transect	Stylasterias forreri	308.83	3167	01:33:37:26	 	36.827534	-122.16766	2389777	1.07	06:23.0	Ventana	34.166	01:35:28:26	6.926		Asteriidae	Stylasterias			Animalia	Forcipulatida	Echinodermata	Stylasterias forreri	Asteroidea							Eukaryota		V3167-02
 	cruise	Metridium farcimen	108.25	3167	03:42:10:02	 	36.845142	-122.13566	2471020	4.77	15:50.0	Ventana	33.52	03:43:50:23	11.189	Anthozoa	Metridiidae	Metridium			Animalia	Actiniaria	Cnidaria	Metridium farcimen	Hexacorallia			Nyantheae				Eukaryota		V3167-04
 	transect	Allocentrotus fragilis	311.05	3167	01:24:21:13	 	36.826416	-122.169136	2372103	1.08	57:06.0	Ventana	34.164	01:26:12:19	6.927	Echinoidea	Strongylocentrotidae	Allocentrotus			Animalia	Echinoida	Echinodermata	Allocentrotus fragilis	Euechinoidea			Echinacea				Eukaryota		V3167-02
 	transect	Allocentrotus fragilis	305.15	3167	01:27:36:07	 	36.82738	-122.16859	2388561	1.11	00:21.0	Ventana	34.162	01:29:27:26	6.992	Echinoidea	Strongylocentrotidae	Allocentrotus			Animalia	Echinoida	Echinodermata	Allocentrotus fragilis	Euechinoidea			Echinacea				Eukaryota		V3167-02
 	transect	Allocentrotus fragilis	314.98	3167	01:22:49:01	 	36.82587	-122.16939	2371750	1.08	55:33.0	Ventana	34.166	01:24:41:01	6.927	Echinoidea	Strongylocentrotidae	Allocentrotus			Animalia	Echinoida	Echinodermata	Allocentrotus fragilis	Euechinoidea			Echinacea				Eukaryota		V3167-02
 	transect	Rathbunaster californicus	319	3167	00:37:42:24	 	36.82491	-122.17007	2463006	1.16	10:03.0	Ventana	34.156	00:39:38:24	7.075		Labidiasteridae	Rathbunaster			Animalia	Forcipulatida	Echinodermata	Rathbunaster californicus	Asteroidea							Eukaryota		V3167-01
 	transect	Rathbunaster californicus	320.28	3167	00:18:22:15	 	36.82432	-122.16992	2462300	1.12	50:42.0	Ventana	34.161	00:20:18:04	6.992		Labidiasteridae	Rathbunaster			Animalia	Forcipulatida	Echinodermata	Rathbunaster californicus	Asteroidea							Eukaryota		V3167-01
 	transect	Mediaster aequalis	158.87	3167	02:27:01:21	 	36.83711	-122.15789	2467274	2.73	00:15.0	Ventana	33.926	02:28:44:01	9.403		Goniasteridae	Mediaster			Animalia	Valvatida	Echinodermata	Mediaster aequalis	Asteroidea			Granulosina				Eukaryota		V3167-03
 	transect	Sebastes	309.53	3167	01:35:10:08	 	36.826958	-122.16791	2390204	1.08	07:55.0	Ventana	34.163	01:37:01:07	6.95	Osteichthyes	Scorpaenidae	Sebastes	Neopterygii		Animalia	Scorpaeniformes	Chordata		Actinopterygii			Scorpaenoidei	Vertebrata	Gnathostomata		Eukaryota	Acanthopterygii	V3167-02
 	cruise	Raja rhina	317.06	3167	01:20:42:20	http://search.mbari.org/ARCHIVE/frameGrabs/Ventana/images/3167/01_22_34_01.jpg	36.825394	-122.16928	2371427	1.08	53:27.0	Ventana	34.163	01:22:34:01	6.937	Chondrichthyes	Rajidae	Raja			Animalia	Rajiformes	Chordata	Raja rhina	Elasmobranchii				Vertebrata			Eukaryota	Batoidea	V3167-02
 	transect	Rathbunaster californicus	318.38	3167	00:36:36:26	 	36.824886	-122.16983	2462976	1.15	08:57.0	Ventana	34.157	00:38:32:00	7.065		Labidiasteridae	Rathbunaster			Animalia	Forcipulatida	Echinodermata	Rathbunaster californicus	Asteroidea							Eukaryota		V3167-01
 	cruise	Rathbunaster californicus	103.13	3167	04:01:50:03	 	36.849144	-122.127045	2471756	5.06	35:52.0	Ventana	33.478	04:03:25:27	11.293		Labidiasteridae	Rathbunaster			Animalia	Forcipulatida	Echinodermata	Rathbunaster californicus	Asteroidea							Eukaryota		V3167-05
 	transect	Rathbunaster californicus	313.21	3167	01:18:20:09	 	36.825905	-122.16849	2371106	1.08	51:04.0	Ventana	34.161	01:20:11:13	6.953		Labidiasteridae	Rathbunaster			Animalia	Forcipulatida	Echinodermata	Rathbunaster californicus	Asteroidea							Eukaryota		V3167-02
 	transect	Allocentrotus fragilis	309.48	3167	01:25:11:27	 	36.82669	-122.168976	2372749	1.11	57:56.0	Ventana	34.161	01:27:03:25	7.022	Echinoidea	Strongylocentrotidae	Allocentrotus			Animalia	Echinoida	Echinodermata	Allocentrotus fragilis	Euechinoidea			Echinacea				Eukaryota		V3167-02
 	transect	Rathbunaster californicus	319.72	3167	00:18:54:13	 	36.82436	-122.169815	2462360	1.13	51:14.0	Ventana	34.16	00:20:51:04	7.011		Labidiasteridae	Rathbunaster			Animalia	Forcipulatida	Echinodermata	Rathbunaster californicus	Asteroidea							Eukaryota		V3167-01
 	cruise	Lycodes cortezianus	309.14	3167	01:52:40:22	 	36.830322	-122.16684	2465507	1.09	25:26.0	Ventana	34.163	01:54:31:20	6.958	Osteichthyes	Zoarcidae	Lycodes	Neopterygii		Animalia	Perciformes	Chordata	Lycodes cortezianus	Actinopterygii			Zoarcoidei	Vertebrata	Gnathostomata		Eukaryota	Acanthopterygii	V3167-02
 	transect	Allocentrotus fragilis	305.16	3167	01:27:24:07	 	36.82732	-122.16862	2388501	1.11	00:09.0	Ventana	34.162	01:29:16:10	6.992	Echinoidea	Strongylocentrotidae	Allocentrotus			Animalia	Echinoida	Echinodermata	Allocentrotus fragilis	Euechinoidea			Echinacea				Eukaryota		V3167-02
 	transect	Rathbunaster californicus	313.32	3167	01:17:25:26	 	36.82617	-122.1682	2370813	1.07	50:10.0	Ventana	34.166	01:19:17:00	6.912		Labidiasteridae	Rathbunaster			Animalia	Forcipulatida	Echinodermata	Rathbunaster californicus	Asteroidea							Eukaryota		V3167-02
 	transect	Rathbunaster californicus	308.98	3167	01:34:54:08	 	36.82705	-122.16784	2390144	1.08	07:39.0	Ventana	34.164	01:36:45:20	6.94		Labidiasteridae	Rathbunaster			Animalia	Forcipulatida	Echinodermata	Rathbunaster californicus	Asteroidea							Eukaryota		V3167-02
 	transect	Phyllospadix	164.15	3167	02:31:26:28	 	36.83742	-122.15856	2467334	2.65	04:40.0	Ventana	33.935	02:33:09:06	9.374		Zosteraceae	Phyllospadix			Plantae	Najadales										Eukaryota		V3167-03
 	transect	Rathbunaster californicus	317.1	3167	01:19:58:06	 	36.825417	-122.169014	2371397	1.07	52:42.0	Ventana	34.166	01:21:49:12	6.913		Labidiasteridae	Rathbunaster			Animalia	Forcipulatida	Echinodermata	Rathbunaster californicus	Asteroidea							Eukaryota		V3167-02
 	transect	Parastichopus leukothele	308.85	3167	01:33:39:26	 	36.827522	-122.16767	2389791	1.07	06:25.0	Ventana	34.166	01:35:31:28	6.926	Holothuroidea	Stichopodidae	Parastichopus			Animalia	Aspidochirotida	Echinodermata	Parastichopus leukothele	Aspidochirotacea							Eukaryota		V3167-02
 	transect	Allocentrotus fragilis	306.89	3167	01:26:30:09	 	36.827053	-122.16876	2372961	1.17	59:14.0	Ventana	34.157	01:28:22:11	7.079	Echinoidea	Strongylocentrotidae	Allocentrotus			Animalia	Echinoida	Echinodermata	Allocentrotus fragilis	Euechinoidea			Echinacea				Eukaryota		V3167-02
 	transect	Allocentrotus fragilis	306.4	3167	01:26:48:09	 	36.827133	-122.16872	2388298	1.12	59:32.0	Ventana	34.164	01:28:40:14	6.991	Echinoidea	Strongylocentrotidae	Allocentrotus			Animalia	Echinoida	Echinodermata	Allocentrotus fragilis	Euechinoidea			Echinacea				Eukaryota		V3167-02
 	transect	Parastichopus leukothele	171.05	3167	02:34:53:21	 	36.83728	-122.1591	2467364	2.68	08:07.0	Ventana	33.939	02:36:37:06	9.345	Holothuroidea	Stichopodidae	Parastichopus			Animalia	Aspidochirotida	Echinodermata	Parastichopus leukothele	Aspidochirotacea							Eukaryota		V3167-03
 	cruise	Pandalus platyceros	246.95	3167	02:10:27:22	http://search.mbari.org/ARCHIVE/frameGrabs/Ventana/images/3167/02_12_10_14.jpg	36.83482	-122.16197	2466861	1.55	43:40.0	Ventana	34.12	02:12:10:14	7.797	Malacostraca	Pandalidae	Pandalus		Caridea	Animalia	Decapoda	Arthropoda	Pandalus platyceros	Eumalacostraca						Pandaloidea	Eukaryota	Eucarida	V3167-03
 	transect	Allocentrotus fragilis	303.56	3167	01:29:06:19	 	36.827785	-122.16835	2388912	1.09	01:51.0	Ventana	34.163	01:30:58:14	6.964	Echinoidea	Strongylocentrotidae	Allocentrotus			Animalia	Echinoida	Echinodermata	Allocentrotus fragilis	Euechinoidea			Echinacea				Eukaryota		V3167-02
 	transect	Phyllospadix	172.03	3167	02:22:26:14	 	36.836853	-122.15867	2467041	2.42	55:40.0	Ventana	33.974	02:24:09:06	9.031		Zosteraceae	Phyllospadix			Plantae	Najadales										Eukaryota		V3167-03
 	cruise	Stylasterias forreri	169.74	3167	02:38:32:15	 	36.83697	-122.15851	2467394	2.71	11:47.0	Ventana	33.926	02:40:16:03	9.392		Asteriidae	Stylasterias			Animalia	Forcipulatida	Echinodermata	Stylasterias forreri	Asteroidea							Eukaryota		V3167-03
 	transect	Allocentrotus fragilis	310.39	3167	01:24:49:27	 	36.826576	-122.169044	2372719	1.08	57:34.0	Ventana	34.165	01:26:41:26	6.934	Echinoidea	Strongylocentrotidae	Allocentrotus			Animalia	Echinoida	Echinodermata	Allocentrotus fragilis	Euechinoidea			Echinacea				Eukaryota		V3167-02
 	transect	Rathbunaster californicus	312.5	3167	01:17:07:27	 	36.826263	-122.16817	2370753	1.07	49:51.0	Ventana	34.166	01:18:59:09	6.915		Labidiasteridae	Rathbunaster			Animalia	Forcipulatida	Echinodermata	Rathbunaster californicus	Asteroidea							Eukaryota		V3167-02
 	cruise	Parastichopus leukothele	277.85	3167	02:04:22:03	 	36.833435	-122.16387	2467747	1.16	37:34.0	Ventana	34.157	02:06:05:14	7.091	Holothuroidea	Stichopodidae	Parastichopus			Animalia	Aspidochirotida	Echinodermata	Parastichopus leukothele	Aspidochirotacea							Eukaryota		V3167-03
 	transect	Rathbunaster californicus	316.32	3167	01:22:13:02	 	36.82567	-122.16948	2371630	1.09	54:57.0	Ventana	34.163	01:24:05:04	6.958		Labidiasteridae	Rathbunaster			Animalia	Forcipulatida	Echinodermata	Rathbunaster californicus	Asteroidea							Eukaryota		V3167-02
 	transect	Allocentrotus fragilis	303.28	3167	01:29:14:19	 	36.827816	-122.168335	2388942	1.12	01:59.0	Ventana	34.159	01:31:06:10	7.03	Echinoidea	Strongylocentrotidae	Allocentrotus			Animalia	Echinoida	Echinodermata	Allocentrotus fragilis	Euechinoidea			Echinacea				Eukaryota		V3167-02
 	transect	Allocentrotus fragilis	309.33	3167	01:35:00:08	 	36.827015	-122.16786	2390174	1.08	07:45.0	Ventana	34.164	01:36:51:11	6.94	Echinoidea	Strongylocentrotidae	Allocentrotus			Animalia	Echinoida	Echinodermata	Allocentrotus fragilis	Euechinoidea			Echinacea				Eukaryota		V3167-02
 	transect	Sabellida	319.06	3167	00:26:06:15	 	36.82451	-122.16946	2462533	1.13	58:26.0	Ventana	34.159	00:28:03:08	7.022	Polychaeta					Animalia	Sabellida	Annelida		Palpata							Eukaryota	Canalipalpata	V3167-01
 	cruise	Sebastes diploproa	289.56	3167	02:00:57:09	 	36.83262	-122.1648	2466446	1.13	34:09.0	Ventana	34.159	02:02:40:18	7.038	Osteichthyes	Scorpaenidae	Sebastes	Neopterygii		Animalia	Scorpaeniformes	Chordata	Sebastes diploproa	Actinopterygii			Scorpaenoidei	Vertebrata	Gnathostomata		Eukaryota	Acanthopterygii	V3167-03
 	transect	Allocentrotus fragilis	308.92	3167	01:33:45:26	 	36.827484	-122.16767	2389821	1.07	06:31.0	Ventana	34.166	01:35:38:01	6.926	Echinoidea	Strongylocentrotidae	Allocentrotus			Animalia	Echinoida	Echinodermata	Allocentrotus fragilis	Euechinoidea			Echinacea				Eukaryota		V3167-02
 	transect	Rathbunaster californicus	312.35	3167	01:16:55:27	 	36.826324	-122.16816	2370580	1.07	49:39.0	Ventana	34.166	01:18:46:25	6.915		Labidiasteridae	Rathbunaster			Animalia	Forcipulatida	Echinodermata	Rathbunaster californicus	Asteroidea							Eukaryota		V3167-02
 	transect	Stomphia	319.78	3167	00:38:15:08	 	36.824917	-122.17018	2463036	1.15	10:36.0	Ventana	34.155	00:40:10:21	7.058	Anthozoa	Actinostolidae	Stomphia			Animalia	Actiniaria	Cnidaria		Hexacorallia			Nyantheae				Eukaryota		V3167-01
 	transect	Rathbunaster californicus	310.6	3167	01:24:39:27	 	36.826515	-122.16908	2372689	1.08	57:24.0	Ventana	34.165	01:26:31:06	6.934		Labidiasteridae	Rathbunaster			Animalia	Forcipulatida	Echinodermata	Rathbunaster californicus	Asteroidea							Eukaryota		V3167-02
 	transect	Rathbunaster californicus	308.62	3167	01:34:13:25	http://search.mbari.org/ARCHIVE/frameGrabs/Ventana/images/3167/01_36_06_06.jpg	36.827305	-122.167725	2390001	1.08	06:59.0	Ventana	34.165	01:36:06:06	6.933		Labidiasteridae	Rathbunaster			Animalia	Forcipulatida	Echinodermata	Rathbunaster californicus	Asteroidea							Eukaryota		V3167-02
 	cruise	Stylasterias forreri	308.12	3167	01:13:39:03	 	36.826782	-122.1688	2464713	1.14	46:22.0	Ventana	34.156	01:15:29:27	7.075		Asteriidae	Stylasterias			Animalia	Forcipulatida	Echinodermata	Stylasterias forreri	Asteroidea							Eukaryota		V3167-02
 	transect	Rathbunaster californicus	322.59	3167	00:48:25:19	 	36.82466	-122.17083	2463239	1.19	20:47.0	Ventana	34.154	00:50:21:26	7.121		Labidiasteridae	Rathbunaster			Animalia	Forcipulatida	Echinodermata	Rathbunaster californicus	Asteroidea							Eukaryota		V3167-01
 	transect	Rathbunaster californicus	314.83	3167	01:23:07:15	 	36.825974	-122.16934	2371810	1.07	55:51.0	Ventana	34.165	01:24:59:06	6.926		Labidiasteridae	Rathbunaster			Animalia	Forcipulatida	Echinodermata	Rathbunaster californicus	Asteroidea							Eukaryota		V3167-02
 	transect	Parastichopus leukothele	305.08	3167	01:27:54:21	 	36.827473	-122.16853	2388621	1.16	00:39.0	Ventana	34.154	01:29:46:22	7.099	Holothuroidea	Stichopodidae	Parastichopus			Animalia	Aspidochirotida	Echinodermata	Parastichopus leukothele	Aspidochirotacea							Eukaryota		V3167-02
 	transect	Allocentrotus fragilis	306.58	3167	01:26:42:09	 	36.827103	-122.16873	2388268	1.12	59:26.0	Ventana	34.164	01:28:33:08	6.991	Echinoidea	Strongylocentrotidae	Allocentrotus			Animalia	Echinoida	Echinodermata	Allocentrotus fragilis	Euechinoidea			Echinacea				Eukaryota		V3167-02
 	cruise	Sebastes diploproa	337.05	3167	00:06:07:07	 	36.821148	-122.17115	2462024	1.11	38:26.0	Ventana	34.161	00:08:04:07	6.943	Osteichthyes	Scorpaenidae	Sebastes	Neopterygii		Animalia	Scorpaeniformes	Chordata	Sebastes diploproa	Actinopterygii			Scorpaenoidei	Vertebrata	Gnathostomata		Eukaryota	Acanthopterygii	V3167-01
 	transect	Agonidae	308.41	3167	01:33:09:27	 	36.827675	-122.16765	2389648	1.08	05:54.0	Ventana	34.166	01:35:00:05	6.926	Osteichthyes	Agonidae		Neopterygii		Animalia	Scorpaeniformes	Chordata		Actinopterygii				Vertebrata	Gnathostomata		Eukaryota	Acanthopterygii	V3167-02
 	cruise	Parastichopus leukothele	307.54	3167	01:37:10:19	 	36.826786	-122.168655	2390769	1.07	09:56.0	Ventana	34.166	01:39:01:04	6.925	Holothuroidea	Stichopodidae	Parastichopus			Animalia	Aspidochirotida	Echinodermata	Parastichopus leukothele	Aspidochirotacea							Eukaryota		V3167-02
 	transect	Rathbunaster californicus	308.32	3167	01:33:13:26	 	36.827663	-122.167656	2389678	1.08	05:58.0	Ventana	34.166	01:35:05:19	6.926		Labidiasteridae	Rathbunaster			Animalia	Forcipulatida	Echinodermata	Rathbunaster californicus	Asteroidea							Eukaryota		V3167-02
 	transect	Rathbunaster californicus	316.7	3167	01:21:57:03	 	36.825592	-122.1695	2371577	1.09	54:41.0	Ventana	34.164	01:23:48:28	6.958		Labidiasteridae	Rathbunaster			Animalia	Forcipulatida	Echinodermata	Rathbunaster californicus	Asteroidea							Eukaryota		V3167-02
 	transect	Liponema brevicornis	303.07	3167	01:29:24:19	 	36.827854	-122.168304	2388972	1.14	02:09.0	Ventana	34.159	01:31:17:05	7.042	Anthozoa	Liponematidae	Liponema			Animalia	Actiniaria	Cnidaria	Liponema brevicornis	Hexacorallia			Nyantheae				Eukaryota		V3167-02
 	transect	Allocentrotus fragilis	321.77	3167	00:45:26:24	 	36.824806	-122.17043	2463186	1.12	17:48.0	Ventana	34.16	00:47:21:23	7.01	Echinoidea	Strongylocentrotidae	Allocentrotus			Animalia	Echinoida	Echinodermata	Allocentrotus fragilis	Euechinoidea			Echinacea				Eukaryota		V3167-01
 	cruise	Parastichopus leukothele	166.48	3167	02:39:22:28	 	36.836983	-122.158295	2467424	2.76	12:37.0	Ventana	33.917	02:41:06:15	9.448	Holothuroidea	Stichopodidae	Parastichopus			Animalia	Aspidochirotida	Echinodermata	Parastichopus leukothele	Aspidochirotacea							Eukaryota		V3167-03
 	transect	Rathbunaster californicus	312.59	3167	01:23:47:14	 	36.82622	-122.169235	2371953	1.08	56:32.0	Ventana	34.165	01:25:38:28	6.929		Labidiasteridae	Rathbunaster			Animalia	Forcipulatida	Echinodermata	Rathbunaster californicus	Asteroidea							Eukaryota		V3167-02
 	transect	Rathbunaster californicus	309.17	3167	01:34:28:09	 	36.827217	-122.16776	2390054	1.08	07:13.0	Ventana	34.165	01:36:19:18	6.927		Labidiasteridae	Rathbunaster			Animalia	Forcipulatida	Echinodermata	Rathbunaster californicus	Asteroidea							Eukaryota		V3167-02
 	transect	Ceriantharia	168.27	3167	02:23:52:27	 	36.836918	-122.15844	2467124	2.45	57:06.0	Ventana	33.969	02:25:35:25	9.068	Anthozoa					Animalia	Ceriantharia	Cnidaria		Ceriantipatharia							Eukaryota		V3167-03
 	transect	Allocentrotus fragilis	303.1	3167	01:29:30:19	 	36.827877	-122.16829	2389002	1.14	02:15.0	Ventana	34.159	01:31:22:26	7.042	Echinoidea	Strongylocentrotidae	Allocentrotus			Animalia	Echinoida	Echinodermata	Allocentrotus fragilis	Euechinoidea			Echinacea				Eukaryota		V3167-02
 	transect	Rathbunaster californicus	313.12	3167	01:17:43:25	 	36.82608	-122.168274	2370933	1.07	50:28.0	Ventana	34.166	01:19:35:22	6.913		Labidiasteridae	Rathbunaster			Animalia	Forcipulatida	Echinodermata	Rathbunaster californicus	Asteroidea							Eukaryota		V3167-02
 	transect	Rathbunaster californicus	313.37	3167	01:23:37:15	 	36.82616	-122.16926	2371923	1.07	56:22.0	Ventana	34.166	01:25:28:13	6.924		Labidiasteridae	Rathbunaster			Animalia	Forcipulatida	Echinodermata	Rathbunaster californicus	Asteroidea							Eukaryota		V3167-02
 	cruise	Hippasteria	310.52	3167	01:11:50:21	 	36.826553	-122.169136	2464630	1.09	44:34.0	Ventana	34.164	01:13:42:06	6.967		Goniasteridae	Hippasteria			Animalia	Valvatida	Echinodermata		Asteroidea			Granulosina				Eukaryota		V3167-02
 	transect	Allocentrotus fragilis	305.95	3167	01:27:00:08	 	36.827194	-122.168686	2388328	1.1	59:45.0	Ventana	34.164	01:28:51:24	6.964	Echinoidea	Strongylocentrotidae	Allocentrotus			Animalia	Echinoida	Echinodermata	Allocentrotus fragilis	Euechinoidea			Echinacea				Eukaryota		V3167-02
 	transect	Allocentrotus fragilis	315.12	3167	01:19:18:07	 	36.825596	-122.16879	2371279	1.09	52:02.0	Ventana	34.161	01:21:09:27	6.971	Echinoidea	Strongylocentrotidae	Allocentrotus			Animalia	Echinoida	Echinodermata	Allocentrotus fragilis	Euechinoidea			Echinacea				Eukaryota		V3167-02
 	transect	Rathbunaster californicus	308.76	3167	01:33:23:27	 	36.82762	-122.167656	2389708	1.08	06:08.0	Ventana	34.166	01:35:15:24	6.925		Labidiasteridae	Rathbunaster			Animalia	Forcipulatida	Echinodermata	Rathbunaster californicus	Asteroidea							Eukaryota		V3167-02
 	transect	Rathbunaster californicus	308.9	3167	01:34:07:25	 	36.827343	-122.16771	2389971	1.08	06:53.0	Ventana	34.165	01:35:58:22	6.933		Labidiasteridae	Rathbunaster			Animalia	Forcipulatida	Echinodermata	Rathbunaster californicus	Asteroidea							Eukaryota		V3167-02
 	cruise	Raja rhina	305.16	3167	01:39:45:15	 	36.827423	-122.16854	2390822	1.08	12:30.0	Ventana	34.165	01:41:36:24	6.941	Chondrichthyes	Rajidae	Raja			Animalia	Rajiformes	Chordata	Raja rhina	Elasmobranchii				Vertebrata			Eukaryota	Batoidea	V3167-02
 	transect	Rathbunaster californicus	323.17	3167	00:49:50:02	 	36.824455	-122.17069	2463269	1.18	22:11.0	Ventana	34.153	00:51:46:16	7.106		Labidiasteridae	Rathbunaster			Animalia	Forcipulatida	Echinodermata	Rathbunaster californicus	Asteroidea							Eukaryota		V3167-01
 	cruise	Metridium farcimen	122.68	3167	02:59:31:20	 	36.839817	-122.150475	2468083	3.38	33:09.0	Ventana	33.749	03:01:11:04	10.3	Anthozoa	Metridiidae	Metridium			Animalia	Actiniaria	Cnidaria	Metridium farcimen	Hexacorallia			Nyantheae				Eukaryota		V3167-04
 	transect	Rathbunaster californicus	319.47	3167	00:27:48:12	 	36.82467	-122.16918	2462766	1.15	00:08.0	Ventana	34.157	00:29:45:20	7.063		Labidiasteridae	Rathbunaster			Animalia	Forcipulatida	Echinodermata	Rathbunaster californicus	Asteroidea							Eukaryota		V3167-01
 	transect	Sebastes	308.74	3167	01:34:03:25	 	36.82737	-122.1677	2389941	1.08	06:49.0	Ventana	34.165	01:35:55:17	6.927	Osteichthyes	Scorpaenidae	Sebastes	Neopterygii		Animalia	Scorpaeniformes	Chordata		Actinopterygii			Scorpaenoidei	Vertebrata	Gnathostomata		Eukaryota	Acanthopterygii	V3167-02
 	transect	Rathbunaster californicus	322.58	3167	00:58:25:01	 	36.824013	-122.17032	2464240	1.15	31:08.0	Ventana	34.157	01:00:16:04	7.051		Labidiasteridae	Rathbunaster			Animalia	Forcipulatida	Echinodermata	Rathbunaster californicus	Asteroidea							Eukaryota		V3167-02
 	transect	Allocentrotus fragilis	312.3	3167	01:16:53:27	 	36.826332	-122.16816	2370543	1.07	49:37.0	Ventana	34.165	01:18:45:03	6.917	Echinoidea	Strongylocentrotidae	Allocentrotus			Animalia	Echinoida	Echinodermata	Allocentrotus fragilis	Euechinoidea			Echinacea				Eukaryota		V3167-02
 	cruise	Parmaturus xaniurus	322.52	3167	00:15:47:19	 	36.824116	-122.170204	2462217	1.12	48:07.0	Ventana	34.16	00:17:42:21	6.984	Chondrichthyes	Scyliorhinidae	Parmaturus			Animalia	Carcharhiniformes	Chordata	Parmaturus xaniurus	Elasmobranchii				Vertebrata			Eukaryota	Galeomorphi	V3167-01
 	transect	Allocentrotus fragilis	319.43	3167	00:19:16:13	 	36.824375	-122.16975	2462390	1.14	51:36.0	Ventana	34.159	00:21:12:05	7.025	Echinoidea	Strongylocentrotidae	Allocentrotus			Animalia	Echinoida	Echinodermata	Allocentrotus fragilis	Euechinoidea			Echinacea				Eukaryota		V3167-01
 	transect	Rathbunaster californicus	308.79	3167	01:32:55:12	 	36.827724	-122.16764	2389611	1.08	05:40.0	Ventana	34.165	01:34:48:01	6.927		Labidiasteridae	Rathbunaster			Animalia	Forcipulatida	Echinodermata	Rathbunaster californicus	Asteroidea							Eukaryota		V3167-02
 	cruise	cable	163.09	3167	02:40:02:27	http://search.mbari.org/ARCHIVE/frameGrabs/Ventana/images/3167/02_41_45_16.jpg	36.837032	-122.15807	20024048	2.78	13:17.0	Ventana	33.912	02:41:45:16	9.453																			V3167-03
 	transect	Allocentrotus fragilis	308.95	3167	01:25:35:26	 	36.8268	-122.16891	2372788	1.11	58:20.0	Ventana	34.161	01:27:26:23	6.98	Echinoidea	Strongylocentrotidae	Allocentrotus			Animalia	Echinoida	Echinodermata	Allocentrotus fragilis	Euechinoidea			Echinacea				Eukaryota		V3167-02
 	transect	Rathbunaster californicus	313.37	3167	01:17:27:26	 	36.82616	-122.168205	2370873	1.07	50:12.0	Ventana	34.166	01:19:19:12	6.912		Labidiasteridae	Rathbunaster			Animalia	Forcipulatida	Echinodermata	Rathbunaster californicus	Asteroidea							Eukaryota		V3167-02
 	transect	Allocentrotus fragilis	313.19	3167	01:18:11:24	 	36.825943	-122.16844	2371076	1.08	50:56.0	Ventana	34.161	01:20:04:02	6.953	Echinoidea	Strongylocentrotidae	Allocentrotus			Animalia	Echinoida	Echinodermata	Allocentrotus fragilis	Euechinoidea			Echinacea				Eukaryota		V3167-02
 	transect	Allocentrotus fragilis	314.62	3167	01:23:23:15	 	36.826073	-122.1693	2371863	1.07	56:07.0	Ventana	34.165	01:25:13:28	6.923	Echinoidea	Strongylocentrotidae	Allocentrotus			Animalia	Echinoida	Echinodermata	Allocentrotus fragilis	Euechinoidea			Echinacea				Eukaryota		V3167-02
 	transect	Sebastes	315.85	3167	01:22:31:02	 	36.825768	-122.16944	2371690	1.08	55:15.0	Ventana	34.164	01:24:23:04	6.938	Osteichthyes	Scorpaenidae	Sebastes	Neopterygii		Animalia	Scorpaeniformes	Chordata		Actinopterygii			Scorpaenoidei	Vertebrata	Gnathostomata		Eukaryota	Acanthopterygii	V3167-02
 	cruise	Sebastes diploproa	331.35	3167	00:09:58:15	 	36.82235	-122.170715	2462137	1.11	42:17.0	Ventana	34.162	00:11:54:23	6.96	Osteichthyes	Scorpaenidae	Sebastes	Neopterygii		Animalia	Scorpaeniformes	Chordata	Sebastes diploproa	Actinopterygii			Scorpaenoidei	Vertebrata	Gnathostomata		Eukaryota	Acanthopterygii	V3167-01
 	transect	Rathbunaster californicus	308.78	3167	01:32:51:12	 	36.827736	-122.16764	2389581	1.08	05:36.0	Ventana	34.165	01:34:43:21	6.93		Labidiasteridae	Rathbunaster			Animalia	Forcipulatida	Echinodermata	Rathbunaster californicus	Asteroidea							Eukaryota		V3167-02
 	transect	Rathbunaster californicus	320.52	3167	00:18:06:15	 	36.82432	-122.169975	2462247	1.11	50:25.0	Ventana	34.161	00:20:02:27	6.984		Labidiasteridae	Rathbunaster			Animalia	Forcipulatida	Echinodermata	Rathbunaster californicus	Asteroidea							Eukaryota		V3167-01
 	transect	Allocentrotus fragilis	311.58	3167	01:16:37:12	 	36.826412	-122.168175	2370513	1.08	49:21.0	Ventana	34.165	01:18:29:26	6.923	Echinoidea	Strongylocentrotidae	Allocentrotus			Animalia	Echinoida	Echinodermata	Allocentrotus fragilis	Euechinoidea			Echinacea				Eukaryota		V3167-02
 	transect	Rathbunaster californicus	318.51	3167	00:35:34:13	 	36.824883	-122.16961	2462953	1.13	07:55.0	Ventana	34.16	00:37:30:17	7.019		Labidiasteridae	Rathbunaster			Animalia	Forcipulatida	Echinodermata	Rathbunaster californicus	Asteroidea							Eukaryota		V3167-01
 	transect	Rathbunaster californicus	313.83	3167	01:23:31:15	 	36.826122	-122.16928	2371893	1.07	56:15.0	Ventana	34.166	01:25:22:05	6.924		Labidiasteridae	Rathbunaster			Animalia	Forcipulatida	Echinodermata	Rathbunaster californicus	Asteroidea							Eukaryota		V3167-02
 	transect	Rathbunaster californicus	315.39	3167	01:22:45:01	 	36.825848	-122.1694	2371720	1.08	55:29.0	Ventana	34.166	01:24:36:21	6.927		Labidiasteridae	Rathbunaster			Animalia	Forcipulatida	Echinodermata	Rathbunaster californicus	Asteroidea							Eukaryota		V3167-02
 	transect	Allocentrotus fragilis	302.86	3167	01:29:49:03	 	36.82794	-122.16824	2389032	1.11	02:33.0	Ventana	34.163	01:31:40:22	6.985	Echinoidea	Strongylocentrotidae	Allocentrotus			Animalia	Echinoida	Echinodermata	Allocentrotus fragilis	Euechinoidea			Echinacea				Eukaryota		V3167-02
 	transect	Rathbunaster californicus	311.53	3167	01:24:09:13	 	36.826347	-122.169174	2372050	1.08	56:54.0	Ventana	34.164	01:26:00:26	6.927		Labidiasteridae	Rathbunaster			Animalia	Forcipulatida	Echinodermata	Rathbunaster californicus	Asteroidea							Eukaryota		V3167-02
 	transect	Allocentrotus fragilis	308.83	3167	01:33:57:25	 	36.827408	-122.167694	2389911	1.08	06:43.0	Ventana	34.165	01:35:49:16	6.927	Echinoidea	Strongylocentrotidae	Allocentrotus			Animalia	Echinoida	Echinodermata	Allocentrotus fragilis	Euechinoidea			Echinacea				Eukaryota		V3167-02
 	transect	Allocentrotus fragilis	306.83	3167	01:26:36:09	 	36.827076	-122.16875	2372991	1.17	59:20.0	Ventana	34.157	01:28:28:07	7.079	Echinoidea	Strongylocentrotidae	Allocentrotus			Animalia	Echinoida	Echinodermata	Allocentrotus fragilis	Euechinoidea			Echinacea				Eukaryota		V3167-02
 	cruise	Florometra serratissima	220.26	3167	02:14:16:15	 	36.835583	-122.16085	2467830	1.66	47:29.0	Ventana	34.107	02:16:00:13	7.973	Crinoidea	Antedonidae	Florometra			Animalia	Comatulidina	Echinodermata	Florometra serratissima							Antedonacea	Eukaryota		V3167-03
 	transect	Allocentrotus fragilis	305.82	3167	01:27:06:08	 	36.827225	-122.16867	2388358	1.1	59:51.0	Ventana	34.164	01:28:58:15	6.964	Echinoidea	Strongylocentrotidae	Allocentrotus			Animalia	Echinoida	Echinodermata	Allocentrotus fragilis	Euechinoidea			Echinacea				Eukaryota		V3167-02
 	transect	Rathbunaster californicus	315.82	3167	01:19:34:07	 	36.825512	-122.16888	2371344	1.09	52:18.0	Ventana	34.163	01:21:26:05	6.954		Labidiasteridae	Rathbunaster			Animalia	Forcipulatida	Echinodermata	Rathbunaster californicus	Asteroidea							Eukaryota		V3167-02
 	transect	Rathbunaster californicus	308.88	3167	01:33:31:26	 	36.827568	-122.16766	2389738	1.08	06:17.0	Ventana	34.166	01:35:22:12	6.925		Labidiasteridae	Rathbunaster			Animalia	Forcipulatida	Echinodermata	Rathbunaster californicus	Asteroidea							Eukaryota		V3167-02
 	transect	Parastichopus leukothele	308.17	3167	01:25:49:25	 	36.826866	-122.16887	2372818	1.09	58:34.0	Ventana	34.163	01:27:41:10	6.991	Holothuroidea	Stichopodidae	Parastichopus			Animalia	Aspidochirotida	Echinodermata	Parastichopus leukothele	Aspidochirotacea							Eukaryota		V3167-02
 	transect	Allocentrotus fragilis	310.77	3167	01:24:27:13	 	36.82645	-122.16912	2372126	1.08	57:12.0	Ventana	34.165	01:26:18:29	6.93	Echinoidea	Strongylocentrotidae	Allocentrotus			Animalia	Echinoida	Echinodermata	Allocentrotus fragilis	Euechinoidea			Echinacea				Eukaryota		V3167-02
 	transect	Rathbunaster californicus	315.14	3167	01:22:47:01	 	36.82586	-122.169395	2371727	1.08	55:31.0	Ventana	34.166	01:24:38:07	6.927		Labidiasteridae	Rathbunaster			Animalia	Forcipulatida	Echinodermata	Rathbunaster californicus	Asteroidea							Eukaryota		V3167-02
 	transect	Rathbunaster californicus	319.47	3167	00:38:03:09	http://search.mbari.org/ARCHIVE/frameGrabs/Ventana/images/3167/00_39_59_13.jpg	36.824917	-122.17014	2463029	1.15	10:24.0	Ventana	34.155	00:39:59:13	7.058		Labidiasteridae	Rathbunaster			Animalia	Forcipulatida	Echinodermata	Rathbunaster californicus	Asteroidea							Eukaryota		V3167-01
 	transect	Rathbunaster californicus	316.47	3167	01:19:48:06	 	36.825455	-122.168945	2371374	1.08	52:32.0	Ventana	34.166	01:21:39:00	6.929		Labidiasteridae	Rathbunaster			Animalia	Forcipulatida	Echinodermata	Rathbunaster californicus	Asteroidea							Eukaryota		V3167-02
 	transect	Parastichopus leukothele	307.15	3167	01:26:13:25	 	36.82697	-122.16881	2372848	1.22	58:58.0	Ventana	34.147	01:28:05:16	7.163	Holothuroidea	Stichopodidae	Parastichopus			Animalia	Aspidochirotida	Echinodermata	Parastichopus leukothele	Aspidochirotacea							Eukaryota		V3167-02
 	transect	Agonidae	305.18	3167	01:27:42:07	http://search.mbari.org/ARCHIVE/frameGrabs/Ventana/images/3167/01_29_34_26.jpg	36.827415	-122.168564	2388584	1.12	00:27.0	Ventana	34.159	01:29:34:26	7.026	Osteichthyes	Agonidae		Neopterygii		Animalia	Scorpaeniformes	Chordata		Actinopterygii				Vertebrata	Gnathostomata		Eukaryota	Acanthopterygii	V3167-02
 	transect	Rathbunaster californicus	308.83	3167	01:33:57:25	 	36.827408	-122.167694	2389904	1.08	06:43.0	Ventana	34.165	01:35:49:16	6.927		Labidiasteridae	Rathbunaster			Animalia	Forcipulatida	Echinodermata	Rathbunaster californicus	Asteroidea							Eukaryota		V3167-02
 	transect	Rathbunaster californicus	311.34	3167	01:24:17:13	 	36.826393	-122.16915	2372096	1.08	57:02.0	Ventana	34.164	01:26:09:25	6.927		Labidiasteridae	Rathbunaster			Animalia	Forcipulatida	Echinodermata	Rathbunaster californicus	Asteroidea							Eukaryota		V3167-02
 	transect	Allocentrotus fragilis	313.24	3167	01:17:23:26	 	36.82618	-122.1682	2370806	1.07	50:08.0	Ventana	34.166	01:19:14:17	6.912	Echinoidea	Strongylocentrotidae	Allocentrotus			Animalia	Echinoida	Echinodermata	Allocentrotus fragilis	Euechinoidea			Echinacea				Eukaryota		V3167-02
 	transect	Stylasterias forreri	305.08	3167	01:27:52:22	 	36.827465	-122.16854	2388614	1.12	00:37.0	Ventana	34.159	01:29:44:02	7.026		Asteriidae	Stylasterias			Animalia	Forcipulatida	Echinodermata	Stylasterias forreri	Asteroidea							Eukaryota		V3167-02
 	transect	Rathbunaster californicus	309.57	3167	01:35:12:08	 	36.826946	-122.167915	2390227	1.08	07:57.0	Ventana	34.163	01:37:03:18	6.95		Labidiasteridae	Rathbunaster			Animalia	Forcipulatida	Echinodermata	Rathbunaster californicus	Asteroidea							Eukaryota		V3167-02
 	transect	Stylasterias forreri	310.46	3167	01:15:57:13	 	36.826595	-122.168236	2370467	1.07	48:41.0	Ventana	34.165	01:17:49:13	6.921		Asteriidae	Stylasterias			Animalia	Forcipulatida	Echinodermata	Stylasterias forreri	Asteroidea							Eukaryota		V3167-02
 	transect	Rathbunaster californicus	318.75	3167	00:37:30:25	 	36.824905	-122.17003	2462999	1.16	09:51.0	Ventana	34.156	00:39:27:01	7.077		Labidiasteridae	Rathbunaster			Animalia	Forcipulatida	Echinodermata	Rathbunaster californicus	Asteroidea							Eukaryota		V3167-01
 	transect	Phyllospadix	162.93	3167	02:30:46:14	 	36.83747	-122.158455	2467327	2.69	04:00.0	Ventana	33.939	02:32:29:20	9.335		Zosteraceae	Phyllospadix			Plantae	Najadales										Eukaryota		V3167-03
 	transect	Parastichopus leukothele	314.89	3167	01:22:53:01	 	36.825893	-122.16938	2371757	1.08	55:37.0	Ventana	34.166	01:24:44:13	6.927	Holothuroidea	Stichopodidae	Parastichopus			Animalia	Aspidochirotida	Echinodermata	Parastichopus leukothele	Aspidochirotacea							Eukaryota		V3167-02
 	transect	Parastichopus leukothele	162.23	3167	02:26:05:08	 	36.83702	-122.15806	2467221	2.65	59:19.0	Ventana	33.938	02:27:47:28	9.314	Holothuroidea	Stichopodidae	Parastichopus			Animalia	Aspidochirotida	Echinodermata	Parastichopus leukothele	Aspidochirotacea							Eukaryota		V3167-03
 	transect	Rathbunaster californicus	309.6	3167	01:35:20:08	 	36.82691	-122.167946	2390257	1.08	08:05.0	Ventana	34.163	01:37:12:07	6.95		Labidiasteridae	Rathbunaster			Animalia	Forcipulatida	Echinodermata	Rathbunaster californicus	Asteroidea							Eukaryota		V3167-02
 	transect	Allocentrotus fragilis	311.81	3167	01:24:03:13	 	36.826313	-122.16919	2372020	1.07	56:48.0	Ventana	34.165	01:25:54:21	6.925	Echinoidea	Strongylocentrotidae	Allocentrotus			Animalia	Echinoida	Echinodermata	Allocentrotus fragilis	Euechinoidea			Echinacea				Eukaryota		V3167-02
 	transect	Rathbunaster californicus	309.33	3167	01:35:00:08	 	36.827015	-122.16786	2390167	1.08	07:45.0	Ventana	34.164	01:36:51:11	6.94		Labidiasteridae	Rathbunaster			Animalia	Forcipulatida	Echinodermata	Rathbunaster californicus	Asteroidea							Eukaryota		V3167-02
 	transect	Mediaster aequalis	312.5	3167	01:17:07:27	 	36.826263	-122.16817	2370746	1.07	49:51.0	Ventana	34.166	01:18:59:09	6.915		Goniasteridae	Mediaster			Animalia	Valvatida	Echinodermata	Mediaster aequalis	Asteroidea			Granulosina				Eukaryota		V3167-02
 	transect	Rathbunaster californicus	313.24	3167	01:18:17:24	 	36.825912	-122.16847	2371099	1.08	51:02.0	Ventana	34.161	01:20:09:10	6.953		Labidiasteridae	Rathbunaster			Animalia	Forcipulatida	Echinodermata	Rathbunaster californicus	Asteroidea							Eukaryota		V3167-02
 	transect	Rathbunaster californicus	314.83	3167	01:23:07:15	 	36.825974	-122.16934	2371817	1.07	55:51.0	Ventana	34.165	01:24:59:06	6.926		Labidiasteridae	Rathbunaster			Animalia	Forcipulatida	Echinodermata	Rathbunaster californicus	Asteroidea							Eukaryota		V3167-02
 	transect	Allocentrotus fragilis	305.98	3167	01:26:56:08	 	36.827175	-122.16869	2388321	1.1	59:41.0	Ventana	34.164	01:28:47:24	6.964	Echinoidea	Strongylocentrotidae	Allocentrotus			Animalia	Echinoida	Echinodermata	Allocentrotus fragilis	Euechinoidea			Echinacea				Eukaryota		V3167-02
 	cruise	Parastichopus leukothele	307.96	3167	01:53:51:04	 	36.830624	-122.16656	2465514	1.09	26:37.0	Ventana	34.164	01:55:42:12	6.954	Holothuroidea	Stichopodidae	Parastichopus			Animalia	Aspidochirotida	Echinodermata	Parastichopus leukothele	Aspidochirotacea							Eukaryota		V3167-02
 	transect	Allocentrotus fragilis	308.92	3167	01:33:45:26	 	36.827484	-122.16767	2389814	1.07	06:31.0	Ventana	34.166	01:35:38:01	6.926	Echinoidea	Strongylocentrotidae	Allocentrotus			Animalia	Echinoida	Echinodermata	Allocentrotus fragilis	Euechinoidea			Echinacea				Eukaryota		V3167-02
 	transect	Parastichopus leukothele	305.05	3167	01:28:12:21	 	36.827568	-122.16848	2388674	1.13	00:57.0	Ventana	34.162	01:30:03:02	7	Holothuroidea	Stichopodidae	Parastichopus			Animalia	Aspidochirotida	Echinodermata	Parastichopus leukothele	Aspidochirotacea							Eukaryota		V3167-02
 	transect	Allocentrotus fragilis	309.56	3167	01:25:03:27	 	36.82665	-122.169	2372742	1.09	57:48.0	Ventana	34.165	01:26:54:16	6.968	Echinoidea	Strongylocentrotidae	Allocentrotus			Animalia	Echinoida	Echinodermata	Allocentrotus fragilis	Euechinoidea			Echinacea				Eukaryota		V3167-02
 	transect	Sebastes	306.94	3167	01:26:24:09	 	36.82701	-122.168785	2372938	1.17	59:08.0	Ventana	34.157	01:28:15:00	7.079	Osteichthyes	Scorpaenidae	Sebastes	Neopterygii		Animalia	Scorpaeniformes	Chordata		Actinopterygii			Scorpaenoidei	Vertebrata	Gnathostomata		Eukaryota	Acanthopterygii	V3167-02
 	transect	Rathbunaster californicus	308.58	3167	01:33:03:27	 	36.827694	-122.16764	2389641	1.08	05:48.0	Ventana	34.165	01:34:54:29	6.927		Labidiasteridae	Rathbunaster			Animalia	Forcipulatida	Echinodermata	Rathbunaster californicus	Asteroidea							Eukaryota		V3167-02
 	transect	Rathbunaster californicus	312.35	3167	01:16:55:27	 	36.826324	-122.16816	2370573	1.07	49:39.0	Ventana	34.166	01:18:46:25	6.915		Labidiasteridae	Rathbunaster			Animalia	Forcipulatida	Echinodermata	Rathbunaster californicus	Asteroidea							Eukaryota		V3167-02
 	cruise	Sebastes diploproa	337.66	3167	00:05:49:08	 	36.82104	-122.17118	2462017	1.11	38:08.0	Ventana	34.16	00:07:44:10	6.946	Osteichthyes	Scorpaenidae	Sebastes	Neopterygii		Animalia	Scorpaeniformes	Chordata	Sebastes diploproa	Actinopterygii			Scorpaenoidei	Vertebrata	Gnathostomata		Eukaryota	Acanthopterygii	V3167-01
 	transect	Phyllospadix	169.43	3167	02:34:17:08	 	36.83732	-122.159035	2467357	2.67	07:31.0	Ventana	33.937	02:36:01:08	9.378		Zosteraceae	Phyllospadix			Plantae	Najadales										Eukaryota		V3167-03
 	transect	Phyllospadix	166.21	3167	02:24:53:10	 	36.836956	-122.158264	2467161	2.51	58:06.0	Ventana	33.962	02:26:35:13	9.18		Zosteraceae	Phyllospadix			Plantae	Najadales										Eukaryota		V3167-03
 	transect	Allocentrotus fragilis	311.93	3167	01:23:55:14	 	36.826267	-122.16921	2371990	1.07	56:40.0	Ventana	34.165	01:25:46:25	6.925	Echinoidea	Strongylocentrotidae	Allocentrotus			Animalia	Echinoida	Echinodermata	Allocentrotus fragilis	Euechinoidea			Echinacea				Eukaryota		V3167-02
 	transect	Parmaturus xaniurus	322.93	3167	00:49:28:02	 	36.824493	-122.17072	2463262	1.18	21:49.0	Ventana	34.154	00:51:24:09	7.111	Chondrichthyes	Scyliorhinidae	Parmaturus			Animalia	Carcharhiniformes	Chordata	Parmaturus xaniurus	Elasmobranchii				Vertebrata			Eukaryota	Galeomorphi	V3167-01
 	transect	Rathbunaster californicus	308.92	3167	01:33:49:25	 	36.827457	-122.16768	2389844	1.07	06:35.0	Ventana	34.166	01:35:40:24	6.926		Labidiasteridae	Rathbunaster			Animalia	Forcipulatida	Echinodermata	Rathbunaster californicus	Asteroidea							Eukaryota		V3167-02
 	transect	Sebastes	309.5	3167	01:35:06:08	 	36.82698	-122.167885	2390197	1.08	07:51.0	Ventana	34.164	01:36:57:28	6.94	Osteichthyes	Scorpaenidae	Sebastes	Neopterygii		Animalia	Scorpaeniformes	Chordata		Actinopterygii			Scorpaenoidei	Vertebrata	Gnathostomata		Eukaryota	Acanthopterygii	V3167-02
 	transect	Allocentrotus fragilis	303.48	3167	01:29:08:19	 	36.827793	-122.16835	2388919	1.12	01:53.0	Ventana	34.159	01:31:01:09	7.03	Echinoidea	Strongylocentrotidae	Allocentrotus			Animalia	Echinoida	Echinodermata	Allocentrotus fragilis	Euechinoidea			Echinacea				Eukaryota		V3167-02
 	transect	Rathbunaster californicus	312.97	3167	01:18:28:09	 	36.825863	-122.16853	2371129	1.1	51:12.0	Ventana	34.16	01:20:18:27	6.984		Labidiasteridae	Rathbunaster			Animalia	Forcipulatida	Echinodermata	Rathbunaster californicus	Asteroidea							Eukaryota		V3167-02
 	transect	Allocentrotus fragilis	322.98	3167	00:57:11:03	 	36.824184	-122.17046	2464164	1.14	29:53.0	Ventana	34.157	00:59:03:02	7.046	Echinoidea	Strongylocentrotidae	Allocentrotus			Animalia	Echinoida	Echinodermata	Allocentrotus fragilis	Euechinoidea			Echinacea				Eukaryota		V3167-02
 	transect	Allocentrotus fragilis	308.32	3167	01:33:13:26	 	36.827663	-122.167656	2389671	1.08	05:58.0	Ventana	34.166	01:35:05:19	6.926	Echinoidea	Strongylocentrotidae	Allocentrotus			Animalia	Echinoida	Echinodermata	Allocentrotus fragilis	Euechinoidea			Echinacea				Eukaryota		V3167-02
 	transect	Allocentrotus fragilis	319.24	3167	00:26:28:14	 	36.824547	-122.169395	2462690	1.14	58:48.0	Ventana	34.159	00:28:24:17	7.031	Echinoidea	Strongylocentrotidae	Allocentrotus			Animalia	Echinoida	Echinodermata	Allocentrotus fragilis	Euechinoidea			Echinacea				Eukaryota		V3167-01
 	cruise	Rathbunaster californicus	106.77	3167	03:48:25:20	 	36.846348	-122.132996	2471057	4.85	22:06.0	Ventana	33.509	03:50:06:16	11.218		Labidiasteridae	Rathbunaster			Animalia	Forcipulatida	Echinodermata	Rathbunaster californicus	Asteroidea							Eukaryota		V3167-04
 	cruise	Parastichopus leukothele	309.28	3167	01:35:54:07	 	36.8268	-122.16814	2390746	1.09	08:39.0	Ventana	34.165	01:37:45:04	6.939	Holothuroidea	Stichopodidae	Parastichopus			Animalia	Aspidochirotida	Echinodermata	Parastichopus leukothele	Aspidochirotacea							Eukaryota		V3167-02
 	cruise	Sebastes	302.38	3167	01:31:11:15	 	36.82796	-122.16798	2389475	1.09	03:56.0	Ventana	34.164	01:33:02:00	6.949	Osteichthyes	Scorpaenidae	Sebastes	Neopterygii		Animalia	Scorpaeniformes	Chordata		Actinopterygii			Scorpaenoidei	Vertebrata	Gnathostomata		Eukaryota	Acanthopterygii	V3167-02
 	cruise	Parmaturus xaniurus	316.12	3167	01:08:29:27	 	36.82567	-122.16954	2464533	1.12	41:13.0	Ventana	34.163	01:10:20:12	7.007	Chondrichthyes	Scyliorhinidae	Parmaturus			Animalia	Carcharhiniformes	Chordata	Parmaturus xaniurus	Elasmobranchii				Vertebrata			Eukaryota	Galeomorphi	V3167-02
 	transect	Allocentrotus fragilis	310.48	3167	01:24:45:27	 	36.826546	-122.16907	2372712	1.08	57:30.0	Ventana	34.165	01:26:36:22	6.934	Echinoidea	Strongylocentrotidae	Allocentrotus			Animalia	Echinoida	Echinodermata	Allocentrotus fragilis	Euechinoidea			Echinacea				Eukaryota		V3167-02
 	transect	Rathbunaster californicus	309.07	3167	01:34:19:25	 	36.827267	-122.16774	2390024	1.08	07:05.0	Ventana	34.165	01:36:12:00	6.933		Labidiasteridae	Rathbunaster			Animalia	Forcipulatida	Echinodermata	Rathbunaster californicus	Asteroidea							Eukaryota		V3167-02
 	cruise	Allocentrotus fragilis	317.09	3167	01:20:50:20	 	36.825405	-122.169334	2371434	1.08	53:35.0	Ventana	34.163	01:22:41:24	6.937	Echinoidea	Strongylocentrotidae	Allocentrotus			Animalia	Echinoida	Echinodermata	Allocentrotus fragilis	Euechinoidea			Echinacea				Eukaryota		V3167-02
 	transect	Rathbunaster californicus	312.54	3167	01:17:03:26	 	36.826283	-122.16816	2370603	1.07	49:47.0	Ventana	34.166	01:18:55:00	6.915		Labidiasteridae	Rathbunaster			Animalia	Forcipulatida	Echinodermata	Rathbunaster californicus	Asteroidea							Eukaryota		V3167-02
 	cruise	Stomphia	171.91	3167	02:37:56:16	 	36.836956	-122.15868	2467387	2.7	11:10.0	Ventana	33.933	02:39:38:27	9.38	Anthozoa	Actinostolidae	Stomphia			Animalia	Actiniaria	Cnidaria		Hexacorallia			Nyantheae				Eukaryota		V3167-03
 	transect	Allocentrotus fragilis	305.19	3167	01:27:22:08	 	36.82731	-122.168625	2388464	1.1	00:07.0	Ventana	34.163	01:29:12:16	6.962	Echinoidea	Strongylocentrotidae	Allocentrotus			Animalia	Echinoida	Echinodermata	Allocentrotus fragilis	Euechinoidea			Echinacea				Eukaryota		V3167-02
 	cruise	Pleuronectiformes	281.3	3167	02:03:20:05	 	36.833206	-122.16416	2467740	1.15	36:32.0	Ventana	34.157	02:05:03:00	7.068	Osteichthyes			Neopterygii		Animalia	Pleuronectiformes	Chordata		Actinopterygii				Vertebrata	Gnathostomata		Eukaryota	Acanthopterygii	V3167-03
 	transect	Rathbunaster californicus	310.65	3167	01:24:35:28	 	36.826492	-122.1691	2372682	1.08	57:20.0	Ventana	34.165	01:26:27:05	6.93		Labidiasteridae	Rathbunaster			Animalia	Forcipulatida	Echinodermata	Rathbunaster californicus	Asteroidea							Eukaryota		V3167-02
 	transect	Sebastes	313.83	3167	01:23:31:15	 	36.826122	-122.16928	2371900	1.07	56:15.0	Ventana	34.166	01:25:22:05	6.924	Osteichthyes	Scorpaenidae	Sebastes	Neopterygii		Animalia	Scorpaeniformes	Chordata		Actinopterygii			Scorpaenoidei	Vertebrata	Gnathostomata		Eukaryota	Acanthopterygii	V3167-02
 	transect	Sebastes	309.05	3167	01:34:23:24	 	36.827244	-122.167755	2390047	1.08	07:09.0	Ventana	34.165	01:36:15:11	6.927	Osteichthyes	Scorpaenidae	Sebastes	Neopterygii		Animalia	Scorpaeniformes	Chordata		Actinopterygii			Scorpaenoidei	Vertebrata	Gnathostomata		Eukaryota	Acanthopterygii	V3167-02
 	transect	Rathbunaster californicus	308.83	3167	01:33:27:26	 	36.82759	-122.16766	2389731	1.08	06:13.0	Ventana	34.166	01:35:18:22	6.925		Labidiasteridae	Rathbunaster			Animalia	Forcipulatida	Echinodermata	Rathbunaster californicus	Asteroidea							Eukaryota		V3167-02
 	transect	Rathbunaster californicus	321.74	3167	00:45:55:09	 	36.824852	-122.170555	2463209	1.14	18:16.0	Ventana	34.158	00:47:51:02	7.038		Labidiasteridae	Rathbunaster			Animalia	Forcipulatida	Echinodermata	Rathbunaster californicus	Asteroidea							Eukaryota		V3167-01
 	cruise	Mediaster aequalis	110.51	3167	03:31:13:22	 	36.843323	-122.13843	2470925	4.58	04:53.0	Ventana	33.549	03:32:53:17	11.09		Goniasteridae	Mediaster			Animalia	Valvatida	Echinodermata	Mediaster aequalis	Asteroidea			Granulosina				Eukaryota		V3167-04
 	transect	Rathbunaster californicus	322.95	3167	00:59:15:15	 	36.82393	-122.170204	2464277	1.14	31:58.0	Ventana	34.157	01:01:06:19	7.046		Labidiasteridae	Rathbunaster			Animalia	Forcipulatida	Echinodermata	Rathbunaster californicus	Asteroidea							Eukaryota		V3167-02
 	transect	Stomphia	313.13	3167	01:17:41:26	 	36.82609	-122.16827	2370926	1.07	50:26.0	Ventana	34.166	01:19:33:06	6.913	Anthozoa	Actinostolidae	Stomphia			Animalia	Actiniaria	Cnidaria		Hexacorallia			Nyantheae				Eukaryota		V3167-02
 	transect	Sebastes	308.88	3167	01:32:59:27	 	36.827705	-122.16764	2389618	1.08	05:44.0	Ventana	34.165	01:34:51:16	6.927	Osteichthyes	Scorpaenidae	Sebastes	Neopterygii		Animalia	Scorpaeniformes	Chordata		Actinopterygii			Scorpaenoidei	Vertebrata	Gnathostomata		Eukaryota	Acanthopterygii	V3167-02
 	transect	Allocentrotus fragilis	303.07	3167	01:29:24:19	 	36.827854	-122.168304	2388979	1.14	02:09.0	Ventana	34.159	01:31:17:05	7.042	Echinoidea	Strongylocentrotidae	Allocentrotus			Animalia	Echinoida	Echinodermata	Allocentrotus fragilis	Euechinoidea			Echinacea				Eukaryota		V3167-02
 	cruise	mud	102.29	3167	04:05:32:26	 	36.849884	-122.12529	2471839	5.03	39:35.0	Ventana	33.48	04:07:07:26	11.286																			V3167-05
 	transect	Rathbunaster californicus	319.14	3167	00:26:08:15	 	36.824512	-122.16946	2462540	1.13	58:28.0	Ventana	34.159	00:28:05:04	7.022		Labidiasteridae	Rathbunaster			Animalia	Forcipulatida	Echinodermata	Rathbunaster californicus	Asteroidea							Eukaryota		V3167-01
 	transect	Allocentrotus fragilis	305.49	3167	01:27:16:08	 	36.82728	-122.16864	2388411	1.1	00:01.0	Ventana	34.163	01:29:07:00	6.962	Echinoidea	Strongylocentrotidae	Allocentrotus			Animalia	Echinoida	Echinodermata	Allocentrotus fragilis	Euechinoidea			Echinacea				Eukaryota		V3167-02
 	transect	Rathbunaster californicus	309.22	3167	01:34:36:09	 	36.827168	-122.167786	2390077	1.08	07:21.0	Ventana	34.165	01:36:26:19	6.927		Labidiasteridae	Rathbunaster			Animalia	Forcipulatida	Echinodermata	Rathbunaster californicus	Asteroidea							Eukaryota		V3167-02
 	transect	Rathbunaster californicus	313.09	3167	01:23:39:14	 	36.82617	-122.16926	2371930	1.08	56:24.0	Ventana	34.165	01:25:30:15	6.929		Labidiasteridae	Rathbunaster			Animalia	Forcipulatida	Echinodermata	Rathbunaster californicus	Asteroidea							Eukaryota		V3167-02
 	transect	Rathbunaster californicus	319.56	3167	00:19:06:13	 	36.82437	-122.16977	2462367	1.14	51:26.0	Ventana	34.159	00:21:02:02	7.025		Labidiasteridae	Rathbunaster			Animalia	Forcipulatida	Echinodermata	Rathbunaster californicus	Asteroidea							Eukaryota		V3167-01
 	transect	Allocentrotus fragilis	302.89	3167	01:29:53:03	 	36.82795	-122.168236	2389039	1.11	02:37.0	Ventana	34.163	01:31:45:02	6.985	Echinoidea	Strongylocentrotidae	Allocentrotus			Animalia	Echinoida	Echinodermata	Allocentrotus fragilis	Euechinoidea			Echinacea				Eukaryota		V3167-02
 	transect	Allocentrotus fragilis	311.62	3167	01:16:39:12	 	36.8264	-122.168175	2370520	1.07	49:23.0	Ventana	34.165	01:18:31:12	6.917	Echinoidea	Strongylocentrotidae	Allocentrotus			Animalia	Echinoida	Echinodermata	Allocentrotus fragilis	Euechinoidea			Echinacea				Eukaryota		V3167-02
 	cruise	cable	325.19	3167	00:14:03:07	 	36.82361	-122.17041	2462194	1.12	46:22.0	Ventana	34.158	00:15:58:28	6.985																			V3167-01
 	transect	Rathbunaster californicus	322.76	3167	00:57:49:02	 	36.8241	-122.170395	2464217	1.16	30:32.0	Ventana	34.155	00:59:41:10	7.087		Labidiasteridae	Rathbunaster			Animalia	Forcipulatida	Echinodermata	Rathbunaster californicus	Asteroidea							Eukaryota		V3167-02
 	transect	Sebastes	315.05	3167	01:19:16:08	 	36.825607	-122.168785	2371272	1.09	52:00.0	Ventana	34.161	01:21:06:22	6.971	Osteichthyes	Scorpaenidae	Sebastes	Neopterygii		Animalia	Scorpaeniformes	Chordata		Actinopterygii			Scorpaenoidei	Vertebrata	Gnathostomata		Eukaryota	Acanthopterygii	V3167-02
 	cruise	Stylasterias forreri	302.65	3167	01:45:55:04	 	36.828465	-122.16797	2390889	1.1	18:40.0	Ventana	34.163	01:47:45:20	6.962		Asteriidae	Stylasterias			Animalia	Forcipulatida	Echinodermata	Stylasterias forreri	Asteroidea							Eukaryota		V3167-02
 	cruise	Metridium farcimen	110.56	3167	03:30:17:08	http://search.mbari.org/ARCHIVE/frameGrabs/Ventana/images/3167/03_31_57_00.jpg	36.843155	-122.138565	2470865	4.56	03:57.0	Ventana	33.551	03:31:57:00	11.081	Anthozoa	Metridiidae	Metridium			Animalia	Actiniaria	Cnidaria	Metridium farcimen	Hexacorallia			Nyantheae				Eukaryota		V3167-04
 	transect	Rathbunaster californicus	308.98	3167	01:34:54:08	 	36.82705	-122.16784	2390137	1.08	07:39.0	Ventana	34.164	01:36:45:20	6.94		Labidiasteridae	Rathbunaster			Animalia	Forcipulatida	Echinodermata	Rathbunaster californicus	Asteroidea							Eukaryota		V3167-02
 	transect	Sebastes	305.1	3167	01:27:28:08	 	36.82734	-122.16861	2388524	1.11	00:13.0	Ventana	34.162	01:29:19:25	6.992	Osteichthyes	Scorpaenidae	Sebastes	Neopterygii		Animalia	Scorpaeniformes	Chordata		Actinopterygii			Scorpaenoidei	Vertebrata	Gnathostomata		Eukaryota	Acanthopterygii	V3167-02
 	transect	Parastichopus leukothele	311.71	3167	01:24:07:14	 	36.826336	-122.16918	2372043	1.07	56:52.0	Ventana	34.165	01:25:58:00	6.925	Holothuroidea	Stichopodidae	Parastichopus			Animalia	Aspidochirotida	Echinodermata	Parastichopus leukothele	Aspidochirotacea							Eukaryota		V3167-02
 	transect	Allocentrotus fragilis	306.89	3167	01:26:30:09	 	36.827053	-122.16876	2372968	1.17	59:14.0	Ventana	34.157	01:28:22:11	7.079	Echinoidea	Strongylocentrotidae	Allocentrotus			Animalia	Echinoida	Echinodermata	Allocentrotus fragilis	Euechinoidea			Echinacea				Eukaryota		V3167-02
 	transect	Rathbunaster californicus	310.76	3167	01:16:17:13	 	36.82651	-122.168205	2370490	1.07	49:01.0	Ventana	34.166	01:18:08:25	6.923		Labidiasteridae	Rathbunaster			Animalia	Forcipulatida	Echinodermata	Rathbunaster californicus	Asteroidea							Eukaryota		V3167-02
 	transect	Rathbunaster californicus	315.77	3167	01:22:37:01	 	36.8258	-122.16942	2371697	1.08	55:21.0	Ventana	34.164	01:24:29:02	6.938		Labidiasteridae	Rathbunaster			Animalia	Forcipulatida	Echinodermata	Rathbunaster californicus	Asteroidea							Eukaryota		V3167-02
 	transect	Allocentrotus fragilis	303.09	3167	01:29:34:18	 	36.827892	-122.16828	2389009	1.14	02:19.0	Ventana	34.159	01:31:26:13	7.042	Echinoidea	Strongylocentrotidae	Allocentrotus			Animalia	Echinoida	Echinodermata	Allocentrotus fragilis	Euechinoidea			Echinacea				Eukaryota		V3167-02
 	transect	Allocentrotus fragilis	306.83	3167	01:26:36:09	 	36.827076	-122.16875	2372998	1.17	59:20.0	Ventana	34.157	01:28:28:07	7.079	Echinoidea	Strongylocentrotidae	Allocentrotus			Animalia	Echinoida	Echinodermata	Allocentrotus fragilis	Euechinoidea			Echinacea				Eukaryota		V3167-02
 	transect	Sebastes	309.24	3167	01:34:44:09	 	36.82711	-122.16781	2390107	1.08	07:29.0	Ventana	34.165	01:36:35:11	6.933	Osteichthyes	Scorpaenidae	Sebastes	Neopterygii		Animalia	Scorpaeniformes	Chordata		Actinopterygii			Scorpaenoidei	Vertebrata	Gnathostomata		Eukaryota	Acanthopterygii	V3167-02
 	transect	Rathbunaster californicus	308.75	3167	01:33:33:26	 	36.827557	-122.16766	2389761	1.08	06:19.0	Ventana	34.166	01:35:25:26	6.925		Labidiasteridae	Rathbunaster			Animalia	Forcipulatida	Echinodermata	Rathbunaster californicus	Asteroidea							Eukaryota		V3167-02
 	transect	Rathbunaster californicus	314.81	3167	01:19:10:08	 	36.825638	-122.168755	2371242	1.09	51:54.0	Ventana	34.161	01:21:01:27	6.971		Labidiasteridae	Rathbunaster			Animalia	Forcipulatida	Echinodermata	Rathbunaster californicus	Asteroidea							Eukaryota		V3167-02
 	transect	Allocentrotus fragilis	305.09	3167	01:27:32:07	 	36.827362	-122.168594	2388554	1.11	00:17.0	Ventana	34.162	01:29:22:20	6.992	Echinoidea	Strongylocentrotidae	Allocentrotus			Animalia	Echinoida	Echinodermata	Allocentrotus fragilis	Euechinoidea			Echinacea				Eukaryota		V3167-02
 	transect	Rathbunaster californicus	308.74	3167	01:34:03:25	 	36.82737	-122.1677	2389934	1.08	06:49.0	Ventana	34.165	01:35:55:17	6.927		Labidiasteridae	Rathbunaster			Animalia	Forcipulatida	Echinodermata	Rathbunaster californicus	Asteroidea							Eukaryota		V3167-02
 	transect	Phyllospadix	161.74	3167	02:30:16:15	 	36.837513	-122.15838	2467320	2.69	03:30.0	Ventana	33.936	02:31:58:21	9.363		Zosteraceae	Phyllospadix			Plantae	Najadales										Eukaryota		V3167-03
 	transect	Stylasterias forreri	305.49	3167	01:27:16:08	 	36.82728	-122.16864	2388423	1.1	00:01.0	Ventana	34.163	01:29:07:00	6.962		Asteriidae	Stylasterias			Animalia	Forcipulatida	Echinodermata	Stylasterias forreri	Asteroidea							Eukaryota		V3167-02
 	transect	Rathbunaster californicus	318.53	3167	00:35:52:13	 	36.824875	-122.16967	2462960	1.14	08:13.0	Ventana	34.158	00:37:48:13	7.036		Labidiasteridae	Rathbunaster			Animalia	Forcipulatida	Echinodermata	Rathbunaster californicus	Asteroidea							Eukaryota		V3167-01
 	transect	Allocentrotus fragilis	308.32	3167	01:33:13:26	 	36.827663	-122.167656	2389666	1.08	05:58.0	Ventana	34.166	01:35:05:19	6.926	Echinoidea	Strongylocentrotidae	Allocentrotus			Animalia	Echinoida	Echinodermata	Allocentrotus fragilis	Euechinoidea			Echinacea				Eukaryota		V3167-02
 	transect	Stomphia	313.01	3167	01:17:59:25	 	36.826008	-122.16836	2370998	1.07	50:44.0	Ventana	34.165	01:19:51:27	6.914	Anthozoa	Actinostolidae	Stomphia			Animalia	Actiniaria	Cnidaria		Hexacorallia			Nyantheae				Eukaryota		V3167-02
 	transect	Rathbunaster californicus	314.15	3167	01:23:27:15	 	36.826096	-122.16929	2371888	1.07	56:11.0	Ventana	34.166	01:25:19:15	6.924		Labidiasteridae	Rathbunaster			Animalia	Forcipulatida	Echinodermata	Rathbunaster californicus	Asteroidea							Eukaryota		V3167-02
 	cruise	Florometra serratissima	125.62	3167	02:57:35:10	 	36.83941	-122.1515	2467643	3.07	30:50.0	Ventana	33.809	02:59:17:12	9.922	Crinoidea	Antedonidae	Florometra			Animalia	Comatulidina	Echinodermata	Florometra serratissima							Antedonacea	Eukaryota		V3167-03
 	transect	Sebastes	310.76	3167	01:24:29:13	 	36.82646	-122.16911	2372917	1.08	57:14.0	Ventana	34.165	01:26:21:23	6.93	Osteichthyes	Scorpaenidae	Sebastes	Neopterygii		Animalia	Scorpaeniformes	Chordata		Actinopterygii			Scorpaenoidei	Vertebrata	Gnathostomata		Eukaryota	Acanthopterygii	V3167-02
 	transect	Rathbunaster californicus	308.79	3167	01:32:55:12	 	36.827724	-122.16764	2389606	1.08	05:40.0	Ventana	34.165	01:34:48:01	6.927		Labidiasteridae	Rathbunaster			Animalia	Forcipulatida	Echinodermata	Rathbunaster californicus	Asteroidea							Eukaryota		V3167-02
 	cruise	Stomphia	320.62	3167	01:04:42:19	 	36.824368	-122.170235	2464402	1.13	37:26.0	Ventana	34.159	01:06:33:17	7.029	Anthozoa	Actinostolidae	Stomphia			Animalia	Actiniaria	Cnidaria		Hexacorallia			Nyantheae				Eukaryota		V3167-02
 	transect	Allocentrotus fragilis	313.37	3167	01:23:37:15	 	36.82616	-122.16926	2371918	1.07	56:22.0	Ventana	34.166	01:25:28:13	6.924	Echinoidea	Strongylocentrotidae	Allocentrotus			Animalia	Echinoida	Echinodermata	Allocentrotus fragilis	Euechinoidea			Echinacea				Eukaryota		V3167-02
 	transect	Sebastes	306.89	3167	01:26:30:09	 	36.827053	-122.16876	2372977	1.17	59:14.0	Ventana	34.157	01:28:22:11	7.079	Osteichthyes	Scorpaenidae	Sebastes	Neopterygii		Animalia	Scorpaeniformes	Chordata		Actinopterygii			Scorpaenoidei	Vertebrata	Gnathostomata		Eukaryota	Acanthopterygii	V3167-02
 	transect	Sebastes	309.05	3167	01:34:23:24	 	36.827244	-122.167755	2390049	1.08	07:09.0	Ventana	34.165	01:36:15:11	6.927	Osteichthyes	Scorpaenidae	Sebastes	Neopterygii		Animalia	Scorpaeniformes	Chordata		Actinopterygii			Scorpaenoidei	Vertebrata	Gnathostomata		Eukaryota	Acanthopterygii	V3167-02
 	cruise	Rathbunaster californicus	127.29	3167	02:54:16:16	 	36.83905	-122.15241	2467613	3.13	27:31.0	Ventana	33.8	02:55:58:12	9.979		Labidiasteridae	Rathbunaster			Animalia	Forcipulatida	Echinodermata	Rathbunaster californicus	Asteroidea							Eukaryota		V3167-03
 	transect	Sebastes	308.9	3167	01:34:07:25	 	36.827343	-122.16771	2389959	1.08	06:53.0	Ventana	34.165	01:35:58:22	6.933	Osteichthyes	Scorpaenidae	Sebastes	Neopterygii		Animalia	Scorpaeniformes	Chordata		Actinopterygii			Scorpaenoidei	Vertebrata	Gnathostomata		Eukaryota	Acanthopterygii	V3167-02
 	transect	Mediaster aequalis	323.01	3167	00:49:08:03	 	36.82453	-122.17076	2463253	1.18	21:29.0	Ventana	34.154	00:51:03:01	7.113		Goniasteridae	Mediaster			Animalia	Valvatida	Echinodermata	Mediaster aequalis	Asteroidea			Granulosina				Eukaryota		V3167-01
 	cruise	Sebastes	308.63	3167	01:36:22:20	 	36.826775	-122.168335	2390755	1.08	09:07.0	Ventana	34.166	01:38:13:26	6.926	Osteichthyes	Scorpaenidae	Sebastes	Neopterygii		Animalia	Scorpaeniformes	Chordata		Actinopterygii			Scorpaenoidei	Vertebrata	Gnathostomata		Eukaryota	Acanthopterygii	V3167-02
 	cruise	physical object	104.03	3167	03:57:18:03	http://search.mbari.org/ARCHIVE/frameGrabs/Ventana/images/3167/03_58_58_25.jpg	36.84806	-122.12923	2471098	5	30:59.0	Ventana	33.484	03:58:58:25	11.277																			V3167-04
 	transect	Phyllospadix	168.4	3167	02:33:47:09	 	36.83733	-122.15895	2467350	2.67	07:01.0	Ventana	33.94	02:35:29:15	9.329		Zosteraceae	Phyllospadix			Plantae	Najadales										Eukaryota		V3167-03
 	transect	Allocentrotus fragilis	315.5	3167	01:19:26:07	 	36.825554	-122.16883	2371291	1.09	52:10.0	Ventana	34.163	01:21:17:18	6.954	Echinoidea	Strongylocentrotidae	Allocentrotus			Animalia	Echinoida	Echinodermata	Allocentrotus fragilis	Euechinoidea			Echinacea				Eukaryota		V3167-02
 	transect	Allocentrotus fragilis	303.17	3167	01:29:18:19	 	36.82783	-122.16832	2388960	1.12	02:03.0	Ventana	34.159	01:31:10:23	7.03	Echinoidea	Strongylocentrotidae	Allocentrotus			Animalia	Echinoida	Echinodermata	Allocentrotus fragilis	Euechinoidea			Echinacea				Eukaryota		V3167-02
 	cruise	Rathbunaster californicus	118	3167	03:04:47:10	 	36.840984	-122.14786	2468240	3.49	38:25.0	Ventana	33.73	03:06:27:16	10.389		Labidiasteridae	Rathbunaster			Animalia	Forcipulatida	Echinodermata	Rathbunaster californicus	Asteroidea							Eukaryota		V3167-04
 	transect	Rathbunaster californicus	309.22	3167	01:34:36:09	 	36.827168	-122.167786	2390079	1.08	07:21.0	Ventana	34.165	01:36:26:19	6.927		Labidiasteridae	Rathbunaster			Animalia	Forcipulatida	Echinodermata	Rathbunaster californicus	Asteroidea							Eukaryota		V3167-02
 	transect	Allocentrotus fragilis	313.23	3167	01:18:15:24	 	36.825924	-122.168465	2371088	1.08	51:00.0	Ventana	34.161	01:20:08:05	6.953	Echinoidea	Strongylocentrotidae	Allocentrotus			Animalia	Echinoida	Echinodermata	Allocentrotus fragilis	Euechinoidea			Echinacea				Eukaryota		V3167-02
 	transect	Rathbunaster californicus	308.83	3167	01:33:27:26	 	36.82759	-122.16766	2389726	1.08	06:13.0	Ventana	34.166	01:35:18:22	6.925		Labidiasteridae	Rathbunaster			Animalia	Forcipulatida	Echinodermata	Rathbunaster californicus	Asteroidea							Eukaryota		V3167-02
 	cruise	Stylasterias forreri	319.07	3167	01:05:43:02	 	36.824726	-122.17008	2464432	1.13	38:26.0	Ventana	34.16	01:07:35:06	7.025		Asteriidae	Stylasterias			Animalia	Forcipulatida	Echinodermata	Stylasterias forreri	Asteroidea							Eukaryota		V3167-02
 	transect	Rathbunaster californicus	308.78	3167	01:32:51:12	 	36.827736	-122.16764	2389576	1.08	05:36.0	Ventana	34.165	01:34:43:21	6.93		Labidiasteridae	Rathbunaster			Animalia	Forcipulatida	Echinodermata	Rathbunaster californicus	Asteroidea							Eukaryota		V3167-02
 	transect	Rathbunaster californicus	309.64	3167	01:35:18:08	 	36.826916	-122.16794	2390252	1.08	08:03.0	Ventana	34.163	01:37:09:23	6.95		Labidiasteridae	Rathbunaster			Animalia	Forcipulatida	Echinodermata	Rathbunaster californicus	Asteroidea							Eukaryota		V3167-02
 	cruise	Sebastes	306.24	3167	01:38:35:02	 	36.82706	-122.16875	2390785	1.13	11:20.0	Ventana	34.165	01:40:27:09	6.964	Osteichthyes	Scorpaenidae	Sebastes	Neopterygii		Animalia	Scorpaeniformes	Chordata		Actinopterygii			Scorpaenoidei	Vertebrata	Gnathostomata		Eukaryota	Acanthopterygii	V3167-02
 	transect	Allocentrotus fragilis	302.96	3167	01:29:41:03	 	36.82791	-122.16827	2389020	1.11	02:25.0	Ventana	34.163	01:31:32:12	6.985	Echinoidea	Strongylocentrotidae	Allocentrotus			Animalia	Echinoida	Echinodermata	Allocentrotus fragilis	Euechinoidea			Echinacea				Eukaryota		V3167-02
 	transect	Rathbunaster californicus	313.11	3167	01:17:39:25	 	36.826103	-122.16826	2370908	1.07	50:24.0	Ventana	34.166	01:19:30:05	6.913		Labidiasteridae	Rathbunaster			Animalia	Forcipulatida	Echinodermata	Rathbunaster californicus	Asteroidea							Eukaryota		V3167-02
 	transect	Rathbunaster californicus	321.55	3167	00:46:15:09	 	36.824883	-122.17063	2463223	1.13	18:36.0	Ventana	34.162	00:48:11:23	7.03		Labidiasteridae	Rathbunaster			Animalia	Forcipulatida	Echinodermata	Rathbunaster californicus	Asteroidea							Eukaryota		V3167-01
 	cruise	Microstomus pacificus	341.47	3167	00:04:04:26	 	36.820484	-122.17129	2459569	1.11	36:23.0	Ventana	34.161	00:06:00:20	6.932	Osteichthyes	Pleuronectidae	Microstomus	Neopterygii		Animalia	Pleuronectiformes	Chordata	Microstomus pacificus	Actinopterygii				Vertebrata	Gnathostomata		Eukaryota	Acanthopterygii	V3167-01
 	transect	Allocentrotus fragilis	308.74	3167	01:34:01:25	 	36.82738	-122.1677	2389929	1.08	06:47.0	Ventana	34.165	01:35:52:07	6.927	Echinoidea	Strongylocentrotidae	Allocentrotus			Animalia	Echinoida	Echinodermata	Allocentrotus fragilis	Euechinoidea			Echinacea				Eukaryota		V3167-02
 	transect	Allocentrotus fragilis	312.35	3167	01:16:55:27	 	36.826324	-122.16816	2370555	1.07	49:39.0	Ventana	34.166	01:18:46:25	6.915	Echinoidea	Strongylocentrotidae	Allocentrotus			Animalia	Echinoida	Echinodermata	Allocentrotus fragilis	Euechinoidea			Echinacea				Eukaryota		V3167-02
 	transect	Rathbunaster californicus	321.79	3167	00:45:47:09	 	36.82484	-122.17052	2463193	1.14	18:08.0	Ventana	34.158	00:47:43:02	7.038		Labidiasteridae	Rathbunaster			Animalia	Forcipulatida	Echinodermata	Rathbunaster californicus	Asteroidea							Eukaryota		V3167-01
 	transect	Sebastes	305.09	3167	01:27:32:07	 	36.827362	-122.168594	2388543	1.11	00:17.0	Ventana	34.162	01:29:22:20	6.992	Osteichthyes	Scorpaenidae	Sebastes	Neopterygii		Animalia	Scorpaeniformes	Chordata		Actinopterygii			Scorpaenoidei	Vertebrata	Gnathostomata		Eukaryota	Acanthopterygii	V3167-02
 	transect	Parastichopus leukothele	319.09	3167	00:25:28:01	 	36.824448	-122.16955	2462487	1.13	57:48.0	Ventana	34.159	00:27:24:17	7.011	Holothuroidea	Stichopodidae	Parastichopus			Animalia	Aspidochirotida	Echinodermata	Parastichopus leukothele	Aspidochirotacea							Eukaryota		V3167-01
 	transect	Rathbunaster californicus	313.07	3167	01:17:31:25	 	36.82614	-122.16822	2370878	1.07	50:16.0	Ventana	34.166	01:19:22:05	6.912		Labidiasteridae	Rathbunaster			Animalia	Forcipulatida	Echinodermata	Rathbunaster californicus	Asteroidea							Eukaryota		V3167-02
 	transect	Allocentrotus fragilis	311.62	3167	01:16:39:12	 	36.8264	-122.168175	2370525	1.07	49:23.0	Ventana	34.165	01:18:31:12	6.917	Echinoidea	Strongylocentrotidae	Allocentrotus			Animalia	Echinoida	Echinodermata	Allocentrotus fragilis	Euechinoidea			Echinacea				Eukaryota		V3167-02
 	transect	Parastichopus leukothele	306.94	3167	01:26:24:09	 	36.82701	-122.168785	2372947	1.17	59:08.0	Ventana	34.157	01:28:15:00	7.079	Holothuroidea	Stichopodidae	Parastichopus			Animalia	Aspidochirotida	Echinodermata	Parastichopus leukothele	Aspidochirotacea							Eukaryota		V3167-02
 	cruise	Pleurobranchaea californica	101.46	3167	04:07:21:08	 	36.850224	-122.12445	2471864	5.04	41:24.0	Ventana	33.481	04:08:55:25	11.29	Gastropoda	Pleurobranchidae	Pleurobranchaea			Animalia	Notaspidea	Mollusca	Pleurobranchaea californica	Opisthobranchia						Pleurobranchiacea	Eukaryota		V3167-05
 	transect	Rathbunaster californicus	308.83	3167	01:33:57:25	 	36.827408	-122.167694	2389899	1.08	06:43.0	Ventana	34.165	01:35:49:16	6.927		Labidiasteridae	Rathbunaster			Animalia	Forcipulatida	Echinodermata	Rathbunaster californicus	Asteroidea							Eukaryota		V3167-02
 	transect	Parastichopus leukothele	311.71	3167	01:24:07:14	 	36.826336	-122.16918	2372038	1.07	56:52.0	Ventana	34.165	01:25:58:00	6.925	Holothuroidea	Stichopodidae	Parastichopus			Animalia	Aspidochirotida	Echinodermata	Parastichopus leukothele	Aspidochirotacea							Eukaryota		V3167-02
 	transect	Rathbunaster californicus	315.85	3167	01:22:31:02	 	36.825768	-122.16944	2371685	1.08	55:15.0	Ventana	34.164	01:24:23:04	6.938		Labidiasteridae	Rathbunaster			Animalia	Forcipulatida	Echinodermata	Rathbunaster californicus	Asteroidea							Eukaryota		V3167-02
 	transect	Allocentrotus fragilis	319.39	3167	00:38:01:08	 	36.824913	-122.170135	2463020	1.16	10:22.0	Ventana	34.156	00:39:56:16	7.069	Echinoidea	Strongylocentrotidae	Allocentrotus			Animalia	Echinoida	Echinodermata	Allocentrotus fragilis	Euechinoidea			Echinacea				Eukaryota		V3167-01
 	cruise	Parastichopus leukothele	303.29	3167	01:31:31:15	 	36.82792	-122.167885	2389486	1.08	04:16.0	Ventana	34.165	01:33:22:05	6.94	Holothuroidea	Stichopodidae	Parastichopus			Animalia	Aspidochirotida	Echinodermata	Parastichopus leukothele	Aspidochirotacea							Eukaryota		V3167-02
 	transect	Rathbunaster californicus	310.96	3167	01:16:23:13	 	36.826485	-122.1682	2370495	1.07	49:07.0	Ventana	34.166	01:18:15:11	6.923		Labidiasteridae	Rathbunaster			Animalia	Forcipulatida	Echinodermata	Rathbunaster californicus	Asteroidea							Eukaryota		V3167-02
 	transect	Allocentrotus fragilis	305.06	3167	01:27:58:21	 	36.827496	-122.168526	2388626	1.16	00:43.0	Ventana	34.154	01:29:49:26	7.099	Echinoidea	Strongylocentrotidae	Allocentrotus			Animalia	Echinoida	Echinodermata	Allocentrotus fragilis	Euechinoidea			Echinacea				Eukaryota		V3167-02
 	transect	Allocentrotus fragilis	308.92	3167	01:33:45:26	 	36.827484	-122.16767	2389816	1.07	06:31.0	Ventana	34.166	01:35:38:01	6.926	Echinoidea	Strongylocentrotidae	Allocentrotus			Animalia	Echinoida	Echinodermata	Allocentrotus fragilis	Euechinoidea			Echinacea				Eukaryota		V3167-02
 	transect	Sebastolobus	309.33	3167	01:35:00:08	 	36.827015	-122.16786	2390162	1.08	07:45.0	Ventana	34.164	01:36:51:11	6.94	Osteichthyes	Scorpaenidae	Sebastolobus	Neopterygii		Animalia	Scorpaeniformes	Chordata		Actinopterygii			Scorpaenoidei	Vertebrata	Gnathostomata		Eukaryota	Acanthopterygii	V3167-02
 	transect	Allocentrotus fragilis	305.1	3167	01:27:48:21	 	36.827442	-122.16855	2388596	1.12	00:33.0	Ventana	34.159	01:29:40:03	7.026	Echinoidea	Strongylocentrotidae	Allocentrotus			Animalia	Echinoida	Echinodermata	Allocentrotus fragilis	Euechinoidea			Echinacea				Eukaryota		V3167-02
 	transect	Allocentrotus fragilis	311.4	3167	01:24:11:13	 	36.82636	-122.16917	2372068	1.08	56:56.0	Ventana	34.164	01:26:03:00	6.927	Echinoidea	Strongylocentrotidae	Allocentrotus			Animalia	Echinoida	Echinodermata	Allocentrotus fragilis	Euechinoidea			Echinacea				Eukaryota		V3167-02
 	transect	Rathbunaster californicus	309.5	3167	01:35:06:08	 	36.82698	-122.167885	2390192	1.08	07:51.0	Ventana	34.164	01:36:57:28	6.94		Labidiasteridae	Rathbunaster			Animalia	Forcipulatida	Echinodermata	Rathbunaster californicus	Asteroidea							Eukaryota		V3167-02
 	transect	Stylasterias forreri	309.18	3167	01:25:27:26	 	36.826767	-122.16893	2372774	1.11	58:12.0	Ventana	34.161	01:27:19:22	6.98		Asteriidae	Stylasterias			Animalia	Forcipulatida	Echinodermata	Stylasterias forreri	Asteroidea							Eukaryota		V3167-02
 	transect	Rathbunaster californicus	311.83	3167	01:24:05:14	 	36.826324	-122.16919	2372031	1.07	56:50.0	Ventana	34.165	01:25:56:01	6.925		Labidiasteridae	Rathbunaster			Animalia	Forcipulatida	Echinodermata	Rathbunaster californicus	Asteroidea							Eukaryota		V3167-02
 	transect	Rathbunaster californicus	308.85	3167	01:33:39:26	 	36.827522	-122.16767	2389786	1.07	06:25.0	Ventana	34.166	01:35:31:28	6.926		Labidiasteridae	Rathbunaster			Animalia	Forcipulatida	Echinodermata	Rathbunaster californicus	Asteroidea							Eukaryota		V3167-02
 	transect	Allocentrotus fragilis	316.07	3167	01:22:23:02	 	36.82572	-122.16946	2371655	1.09	55:07.0	Ventana	34.163	01:24:13:19	6.958	Echinoidea	Strongylocentrotidae	Allocentrotus			Animalia	Echinoida	Echinodermata	Allocentrotus fragilis	Euechinoidea			Echinacea				Eukaryota		V3167-02
 	transect	Rathbunaster californicus	309.57	3167	01:35:12:08	 	36.826946	-122.167915	2390222	1.08	07:57.0	Ventana	34.163	01:37:03:18	6.95		Labidiasteridae	Rathbunaster			Animalia	Forcipulatida	Echinodermata	Rathbunaster californicus	Asteroidea							Eukaryota		V3167-02
 	cruise	Hydrolagus colliei	303.65	3167	01:40:25:14	 	36.827576	-122.168495	2390838	1.09	13:11.0	Ventana	34.164	01:42:16:09	7.008	Chondrichthyes	Chimaeridae	Hydrolagus			Animalia	Chimaeriformes	Chordata	Hydrolagus colliei	Holocephali			Chimaeroidei	Vertebrata			Eukaryota	Holocephalimorpha	V3167-02
 	transect	Rathbunaster californicus	308.92	3167	01:33:49:25	 	36.827457	-122.16768	2389846	1.07	06:35.0	Ventana	34.166	01:35:40:24	6.926		Labidiasteridae	Rathbunaster			Animalia	Forcipulatida	Echinodermata	Rathbunaster californicus	Asteroidea							Eukaryota		V3167-02
 	transect	Rathbunaster californicus	322.98	3167	00:57:11:03	 	36.824184	-122.17046	2464162	1.14	29:53.0	Ventana	34.157	00:59:01:14	7.046		Labidiasteridae	Rathbunaster			Animalia	Forcipulatida	Echinodermata	Rathbunaster californicus	Asteroidea							Eukaryota		V3167-02
 	transect	Ceriantharia sp. 3	311.05	3167	01:24:21:13	 	36.826416	-122.169136	2372098	1.08	57:06.0	Ventana	34.164	01:26:12:19	6.927	Anthozoa					Animalia	Ceriantharia	Cnidaria		Ceriantipatharia							Eukaryota		V3167-02
 	cruise	Metridium farcimen	108.42	3167	03:41:42:02	 	36.84506	-122.13587	2471015	4.72	15:22.0	Ventana	33.529	03:43:21:02	11.16	Anthozoa	Metridiidae	Metridium			Animalia	Actiniaria	Cnidaria	Metridium farcimen	Hexacorallia			Nyantheae				Eukaryota		V3167-04
 	transect	Allocentrotus fragilis	308.75	3167	01:33:33:26	 	36.827557	-122.16766	2389756	1.08	06:19.0	Ventana	34.166	01:35:25:26	6.925	Echinoidea	Strongylocentrotidae	Allocentrotus			Animalia	Echinoida	Echinodermata	Allocentrotus fragilis	Euechinoidea			Echinacea				Eukaryota		V3167-02
 	transect	Porifera	322.69	3167	00:57:59:02	 	36.824078	-122.17038	2464222	1.15	30:42.0	Ventana	34.157	00:59:50:10	7.058						Animalia		Porifera									Eukaryota		V3167-02
 	transect	Hippasteria	308.54	3167	01:25:41:26	 	36.82683	-122.16889	2372804	1.09	58:26.0	Ventana	34.163	01:27:33:23	6.991		Goniasteridae	Hippasteria			Animalia	Valvatida	Echinodermata		Asteroidea			Granulosina				Eukaryota		V3167-02
 	transect	Allocentrotus fragilis	315.14	3167	01:22:47:01	 	36.82586	-122.169395	2371738	1.08	55:31.0	Ventana	34.166	01:24:38:07	6.927	Echinoidea	Strongylocentrotidae	Allocentrotus			Animalia	Echinoida	Echinodermata	Allocentrotus fragilis	Euechinoidea			Echinacea				Eukaryota		V3167-02
 	transect	Sebastes	308.97	3167	01:34:52:09	 	36.827065	-122.16783	2390132	1.08	07:37.0	Ventana	34.165	01:36:44:06	6.933	Osteichthyes	Scorpaenidae	Sebastes	Neopterygii		Animalia	Scorpaeniformes	Chordata		Actinopterygii			Scorpaenoidei	Vertebrata	Gnathostomata		Eukaryota	Acanthopterygii	V3167-02
 	cruise	Parastichopus leukothele	327.81	3167	00:11:56:26	 	36.82293	-122.170555	2462171	1.11	44:16.0	Ventana	34.163	00:13:53:07	6.959	Holothuroidea	Stichopodidae	Parastichopus			Animalia	Aspidochirotida	Echinodermata	Parastichopus leukothele	Aspidochirotacea							Eukaryota		V3167-01
 	transect	Rathbunaster californicus	316.32	3167	01:22:13:02	 	36.82567	-122.16948	2371625	1.09	54:57.0	Ventana	34.163	01:24:05:04	6.958		Labidiasteridae	Rathbunaster			Animalia	Forcipulatida	Echinodermata	Rathbunaster californicus	Asteroidea							Eukaryota		V3167-02
 	transect	Rathbunaster californicus	312.93	3167	01:18:32:09	 	36.825844	-122.16856	2371141	1.1	51:16.0	Ventana	34.16	01:20:23:05	6.984		Labidiasteridae	Rathbunaster			Animalia	Forcipulatida	Echinodermata	Rathbunaster californicus	Asteroidea							Eukaryota		V3167-02
 	transect	Allocentrotus fragilis	310.49	3167	01:24:41:27	 	36.826527	-122.169075	2372707	1.08	57:26.0	Ventana	34.165	01:26:33:24	6.934	Echinoidea	Strongylocentrotidae	Allocentrotus			Animalia	Echinoida	Echinodermata	Allocentrotus fragilis	Euechinoidea			Echinacea				Eukaryota		V3167-02
 	transect	Rathbunaster californicus	312.57	3167	01:17:13:26	 	36.82623	-122.168175	2370765	1.07	49:58.0	Ventana	34.165	01:19:04:26	6.914		Labidiasteridae	Rathbunaster			Animalia	Forcipulatida	Echinodermata	Rathbunaster californicus	Asteroidea							Eukaryota		V3167-02
 	transect	Allocentrotus fragilis	306.4	3167	01:26:48:09	 	36.827133	-122.16872	2388310	1.12	59:32.0	Ventana	34.164	01:28:40:14	6.991	Echinoidea	Strongylocentrotidae	Allocentrotus			Animalia	Echinoida	Echinodermata	Allocentrotus fragilis	Euechinoidea			Echinacea				Eukaryota		V3167-02
 	transect	Rathbunaster californicus	312.46	3167	01:16:59:27	 	36.8263	-122.16816	2370592	1.07	49:43.0	Ventana	34.166	01:18:51:10	6.915		Labidiasteridae	Rathbunaster			Animalia	Forcipulatida	Echinodermata	Rathbunaster californicus	Asteroidea							Eukaryota		V3167-02
 	transect	Rathbunaster californicus	319.36	3167	00:27:30:13	 	36.824646	-122.16923	2462750	1.14	59:50.0	Ventana	34.158	00:29:26:21	7.028		Labidiasteridae	Rathbunaster			Animalia	Forcipulatida	Echinodermata	Rathbunaster californicus	Asteroidea							Eukaryota		V3167-01
 	transect	Rathbunaster californicus	314.82	3167	01:22:57:00	 	36.825916	-122.16937	2371768	1.07	55:41.0	Ventana	34.165	01:24:48:12	6.926		Labidiasteridae	Rathbunaster			Animalia	Forcipulatida	Echinodermata	Rathbunaster californicus	Asteroidea							Eukaryota		V3167-02
 	cruise	Hippasteria	330.03	3167	00:10:46:13	 	36.822544	-122.170654	2462153	1.09	43:05.0	Ventana	34.164	00:12:43:02	6.913		Goniasteridae	Hippasteria			Animalia	Valvatida	Echinodermata		Asteroidea			Granulosina				Eukaryota		V3167-01
 	transect	Rathbunaster californicus	319.13	3167	00:19:34:27	 	36.824387	-122.1697	2462404	1.14	51:54.0	Ventana	34.158	00:21:31:16	7.03		Labidiasteridae	Rathbunaster			Animalia	Forcipulatida	Echinodermata	Rathbunaster californicus	Asteroidea							Eukaryota		V3167-01
 	transect	Sebastes	305.19	3167	01:27:22:08	 	36.82731	-122.168625	2388483	1.1	00:07.0	Ventana	34.163	01:29:12:16	6.962	Osteichthyes	Scorpaenidae	Sebastes	Neopterygii		Animalia	Scorpaeniformes	Chordata		Actinopterygii			Scorpaenoidei	Vertebrata	Gnathostomata		Eukaryota	Acanthopterygii	V3167-02
 	cruise	Ceriantharia sp. 3	303.38	3167	01:46:29:03	 	36.82866	-122.16786	2390898	1.09	19:15.0	Ventana	34.163	01:48:19:18	6.966	Anthozoa					Animalia	Ceriantharia	Cnidaria		Ceriantipatharia							Eukaryota		V3167-02
 	transect	Hydrolagus colliei	303.68	3167	01:29:02:20	 	36.827766	-122.16836	2388907	1.09	01:47.0	Ventana	34.163	01:30:54:02	6.964	Chondrichthyes	Chimaeridae	Hydrolagus			Animalia	Chimaeriformes	Chordata	Hydrolagus colliei	Holocephali			Chimaeroidei	Vertebrata			Eukaryota	Holocephalimorpha	V3167-02
 	transect	Rathbunaster californicus	312.09	3167	01:23:53:14	 	36.826256	-122.16922	2371971	1.07	56:38.0	Ventana	34.165	01:25:44:06	6.925		Labidiasteridae	Rathbunaster			Animalia	Forcipulatida	Echinodermata	Rathbunaster californicus	Asteroidea							Eukaryota		V3167-02
 	transect	Sebastes	167.21	3167	02:24:18:26	 	36.836933	-122.15836	2467140	2.47	57:32.0	Ventana	33.962	02:26:01:28	9.118	Osteichthyes	Scorpaenidae	Sebastes	Neopterygii		Animalia	Scorpaeniformes	Chordata		Actinopterygii			Scorpaenoidei	Vertebrata	Gnathostomata		Eukaryota	Acanthopterygii	V3167-03
 	cruise	Pycnopodia helianthoides	99.14	3167	04:16:41:21	http://search.mbari.org/ARCHIVE/frameGrabs/Ventana/images/3167/04_18_16_07.jpg	36.852253	-122.120026	2471954	5.04	50:45.0	Ventana	33.481	04:18:16:07	11.288		Asteriidae	Pycnopodia			Animalia	Forcipulatida	Echinodermata	Pycnopodia helianthoides	Asteroidea							Eukaryota		V3167-05
 	cruise	Parastichopus leukothele	302.61	3167	01:30:29:02	 	36.827995	-122.168144	2389456	1.09	03:14.0	Ventana	34.163	01:32:20:24	6.956	Holothuroidea	Stichopodidae	Parastichopus			Animalia	Aspidochirotida	Echinodermata	Parastichopus leukothele	Aspidochirotacea							Eukaryota		V3167-02
 	transect	Rathbunaster californicus	313	3167	01:17:19:26	 	36.8262	-122.16818	2370795	1.07	50:04.0	Ventana	34.165	01:19:11:07	6.914		Labidiasteridae	Rathbunaster			Animalia	Forcipulatida	Echinodermata	Rathbunaster californicus	Asteroidea							Eukaryota		V3167-02
 	transect	Rathbunaster californicus	310.65	3167	01:24:33:27	 	36.82648	-122.169106	2372677	1.08	57:18.0	Ventana	34.165	01:26:24:19	6.93		Labidiasteridae	Rathbunaster			Animalia	Forcipulatida	Echinodermata	Rathbunaster californicus	Asteroidea							Eukaryota		V3167-02
 	transect	Stylasterias forreri	304.49	3167	01:28:36:20	 	36.827667	-122.16842	2388799	1.1	01:21.0	Ventana	34.162	01:30:27:08	6.963		Asteriidae	Stylasterias			Animalia	Forcipulatida	Echinodermata	Stylasterias forreri	Asteroidea							Eukaryota		V3167-02
 	transect	Phyllospadix	166.01	3167	02:32:36:26	 	36.837357	-122.15875	2467343	2.71	05:51.0	Ventana	33.934	02:34:20:11	9.379		Zosteraceae	Phyllospadix			Plantae	Najadales										Eukaryota		V3167-03
 	transect	Rathbunaster californicus	314.62	3167	01:23:23:15	 	36.826073	-122.1693	2371865	1.07	56:07.0	Ventana	34.165	01:25:13:28	6.923		Labidiasteridae	Rathbunaster			Animalia	Forcipulatida	Echinodermata	Rathbunaster californicus	Asteroidea							Eukaryota		V3167-02
 	transect	Rathbunaster californicus	318.35	3167	00:36:44:26	http://search.mbari.org/ARCHIVE/frameGrabs/Ventana/images/3167/00_38_40_04.jpg	36.82489	-122.16986	2462983	1.15	09:05.0	Ventana	34.157	00:38:40:04	7.065		Labidiasteridae	Rathbunaster			Animalia	Forcipulatida	Echinodermata	Rathbunaster californicus	Asteroidea							Eukaryota		V3167-01
 	cruise	Allocentrotus fragilis	332.62	3167	00:09:14:01	 	36.822174	-122.1708	2462123	1.11	41:33.0	Ventana	34.161	00:11:10:09	6.966	Echinoidea	Strongylocentrotidae	Allocentrotus			Animalia	Echinoida	Echinodermata	Allocentrotus fragilis	Euechinoidea			Echinacea				Eukaryota		V3167-01
 	transect	Allocentrotus fragilis	303.28	3167	01:29:14:19	 	36.827816	-122.168335	2388937	1.12	01:59.0	Ventana	34.159	01:31:06:10	7.03	Echinoidea	Strongylocentrotidae	Allocentrotus			Animalia	Echinoida	Echinodermata	Allocentrotus fragilis	Euechinoidea			Echinacea				Eukaryota		V3167-02
 	transect	Rathbunaster californicus	308.41	3167	01:33:09:27	 	36.827675	-122.16765	2389659	1.08	05:54.0	Ventana	34.166	01:35:00:05	6.926		Labidiasteridae	Rathbunaster			Animalia	Forcipulatida	Echinodermata	Rathbunaster californicus	Asteroidea							Eukaryota		V3167-02
 	cruise	Sebastes	308.82	3167	01:14:39:01	 	36.826756	-122.16849	2464718	1.08	47:23.0	Ventana	34.166	01:16:30:29	6.933	Osteichthyes	Scorpaenidae	Sebastes	Neopterygii		Animalia	Scorpaeniformes	Chordata		Actinopterygii			Scorpaenoidei	Vertebrata	Gnathostomata		Eukaryota	Acanthopterygii	V3167-02
 	transect	Rathbunaster californicus	308.79	3167	01:32:55:12	 	36.827724	-122.16764	2389613	1.08	05:40.0	Ventana	34.165	01:34:48:01	6.927		Labidiasteridae	Rathbunaster			Animalia	Forcipulatida	Echinodermata	Rathbunaster californicus	Asteroidea							Eukaryota		V3167-02
 	cruise	Rathbunaster californicus	101.66	3167	04:06:47:09	 	36.850124	-122.12472	2471857	5.04	40:50.0	Ventana	33.48	04:08:22:13	11.288		Labidiasteridae	Rathbunaster			Animalia	Forcipulatida	Echinodermata	Rathbunaster californicus	Asteroidea							Eukaryota		V3167-05
 	transect	Sabellida	322.89	3167	00:53:44:24	 	36.82434	-122.170586	2463366	1.17	26:06.0	Ventana	34.155	00:55:40:05	7.098	Polychaeta					Animalia	Sabellida	Annelida		Palpata							Eukaryota	Canalipalpata	V3167-01
 	transect	Allocentrotus fragilis	305.49	3167	01:27:16:08	 	36.82728	-122.16864	2388416	1.1	00:01.0	Ventana	34.163	01:29:07:00	6.962	Echinoidea	Strongylocentrotidae	Allocentrotus			Animalia	Echinoida	Echinodermata	Allocentrotus fragilis	Euechinoidea			Echinacea				Eukaryota		V3167-02
 	transect	Sebastes	308.62	3167	01:34:11:25	 	36.82732	-122.167725	2389982	1.08	06:57.0	Ventana	34.165	01:36:02:14	6.933	Osteichthyes	Scorpaenidae	Sebastes	Neopterygii		Animalia	Scorpaeniformes	Chordata		Actinopterygii			Scorpaenoidei	Vertebrata	Gnathostomata		Eukaryota	Acanthopterygii	V3167-02
 	transect	Hippasteria	319.2	3167	00:37:51:09	 	36.82491	-122.1701	2463013	1.16	10:11.0	Ventana	34.156	00:39:47:08	7.069		Goniasteridae	Hippasteria			Animalia	Valvatida	Echinodermata		Asteroidea			Granulosina				Eukaryota		V3167-01
 	transect	Parastichopus leukothele	320.99	3167	00:17:46:00	 	36.82432	-122.17004	2462231	1.12	50:05.0	Ventana	34.16	00:19:43:01	6.99	Holothuroidea	Stichopodidae	Parastichopus			Animalia	Aspidochirotida	Echinodermata	Parastichopus leukothele	Aspidochirotacea							Eukaryota		V3167-01
 	transect	Allocentrotus fragilis	303.17	3167	01:29:18:19	 	36.82783	-122.16832	2388967	1.12	02:03.0	Ventana	34.159	01:31:10:23	7.03	Echinoidea	Strongylocentrotidae	Allocentrotus			Animalia	Echinoida	Echinodermata	Allocentrotus fragilis	Euechinoidea			Echinacea				Eukaryota		V3167-02
 	transect	Rathbunaster californicus	313.83	3167	01:23:31:15	 	36.826122	-122.16928	2371895	1.07	56:15.0	Ventana	34.166	01:25:22:05	6.924		Labidiasteridae	Rathbunaster			Animalia	Forcipulatida	Echinodermata	Rathbunaster californicus	Asteroidea							Eukaryota		V3167-02
 	transect	Allocentrotus fragilis	306.87	3167	01:26:28:09	 	36.82703	-122.16877	2372954	1.17	59:12.0	Ventana	34.157	01:28:19:25	7.079	Echinoidea	Strongylocentrotidae	Allocentrotus			Animalia	Echinoida	Echinodermata	Allocentrotus fragilis	Euechinoidea			Echinacea				Eukaryota		V3167-02
 	transect	Phyllospadix	172.34	3167	02:35:27:20	 	36.83721	-122.15919	2467373	2.63	08:42.0	Ventana	33.946	02:37:11:06	9.287		Zosteraceae	Phyllospadix			Plantae	Najadales										Eukaryota		V3167-03
 	transect	Sebastes	308.9	3167	01:34:07:25	 	36.827343	-122.16771	2389952	1.08	06:53.0	Ventana	34.165	01:35:58:22	6.933	Osteichthyes	Scorpaenidae	Sebastes	Neopterygii		Animalia	Scorpaeniformes	Chordata		Actinopterygii			Scorpaenoidei	Vertebrata	Gnathostomata		Eukaryota	Acanthopterygii	V3167-02
 	transect	Rathbunaster californicus	309.05	3167	01:34:23:24	 	36.827244	-122.167755	2390042	1.08	07:09.0	Ventana	34.165	01:36:15:11	6.927		Labidiasteridae	Rathbunaster			Animalia	Forcipulatida	Echinodermata	Rathbunaster californicus	Asteroidea							Eukaryota		V3167-02
 	transect	Rathbunaster californicus	312.55	3167	01:17:11:26	 	36.826244	-122.16817	2370758	1.07	49:55.0	Ventana	34.165	01:19:03:07	6.914		Labidiasteridae	Rathbunaster			Animalia	Forcipulatida	Echinodermata	Rathbunaster californicus	Asteroidea							Eukaryota		V3167-02
 	cruise	Metridium farcimen	100.72	3167	04:11:08:01	 	36.85102	-122.12266	2471917	5.02	45:11.0	Ventana	33.482	04:12:42:24	11.284	Anthozoa	Metridiidae	Metridium			Animalia	Actiniaria	Cnidaria	Metridium farcimen	Hexacorallia			Nyantheae				Eukaryota		V3167-05
 	transect	Parastichopus leukothele	309.31	3167	01:34:42:09	 	36.82712	-122.1678	2390102	1.08	07:27.0	Ventana	34.165	01:36:32:27	6.933	Holothuroidea	Stichopodidae	Parastichopus			Animalia	Aspidochirotida	Echinodermata	Parastichopus leukothele	Aspidochirotacea							Eukaryota		V3167-02
 	transect	Rathbunaster californicus	313.27	3167	01:18:22:09	 	36.825893	-122.168495	2371111	1.08	51:06.0	Ventana	34.161	01:20:13:16	6.953		Labidiasteridae	Rathbunaster			Animalia	Forcipulatida	Echinodermata	Rathbunaster californicus	Asteroidea							Eukaryota		V3167-02
 	transect	Rathbunaster californicus	308.88	3167	01:33:31:26	 	36.827568	-122.16766	2389749	1.08	06:17.0	Ventana	34.166	01:35:22:12	6.925		Labidiasteridae	Rathbunaster			Animalia	Forcipulatida	Echinodermata	Rathbunaster californicus	Asteroidea							Eukaryota		V3167-02
 	cruise	cable	213.02	3167	02:15:04:28	http://search.mbari.org/ARCHIVE/frameGrabs/Ventana/images/3167/02_16_48_01.jpg	36.835728	-122.16061	20024036	1.71	48:17.0	Ventana	34.099	02:16:48:01	8.046																			V3167-03
 	transect	Stylasterias forreri	302.91	3167	01:29:45:03	 	36.827923	-122.16826	2389027	1.11	02:29.0	Ventana	34.163	01:31:35:26	6.985		Asteriidae	Stylasterias			Animalia	Forcipulatida	Echinodermata	Stylasterias forreri	Asteroidea							Eukaryota		V3167-02
 	transect	Phyllospadix	161.81	3167	02:26:13:08	 	36.837032	-122.15803	2467237	2.63	59:27.0	Ventana	33.943	02:27:56:20	9.295		Zosteraceae	Phyllospadix			Plantae	Najadales										Eukaryota		V3167-03
 	transect	Rathbunaster californicus	313.13	3167	01:17:41:26	 	36.82609	-122.16827	2370931	1.07	50:26.0	Ventana	34.166	01:19:33:06	6.913		Labidiasteridae	Rathbunaster			Animalia	Forcipulatida	Echinodermata	Rathbunaster californicus	Asteroidea							Eukaryota		V3167-02
 	transect	Rathbunaster californicus	315.25	3167	01:19:22:07	 	36.825573	-122.168816	2371284	1.09	52:06.0	Ventana	34.161	01:21:13:12	6.971		Labidiasteridae	Rathbunaster			Animalia	Forcipulatida	Echinodermata	Rathbunaster californicus	Asteroidea							Eukaryota		V3167-02
 	transect	Rathbunaster californicus	309.18	3167	01:34:32:09	 	36.827194	-122.16777	2390072	1.08	07:17.0	Ventana	34.165	01:36:23:28	6.927		Labidiasteridae	Rathbunaster			Animalia	Forcipulatida	Echinodermata	Rathbunaster californicus	Asteroidea							Eukaryota		V3167-02
 	cruise	Parastichopus leukothele	307.41	3167	01:36:40:20	 	36.82677	-122.168465	2390762	1.08	09:26.0	Ventana	34.165	01:38:31:16	6.935	Holothuroidea	Stichopodidae	Parastichopus			Animalia	Aspidochirotida	Echinodermata	Parastichopus leukothele	Aspidochirotacea							Eukaryota		V3167-02
 	cruise	Microstomus pacificus	335.8	3167	00:07:01:21	 	36.82145	-122.171074	2462033	1.11	39:20.0	Ventana	34.16	00:08:57:18	6.95	Osteichthyes	Pleuronectidae	Microstomus	Neopterygii		Animalia	Pleuronectiformes	Chordata	Microstomus pacificus	Actinopterygii				Vertebrata	Gnathostomata		Eukaryota	Acanthopterygii	V3167-01
 	cruise	Liponema brevicornis	305.52	3167	01:39:01:01	 	36.827194	-122.16867	2390792	1.09	11:46.0	Ventana	34.164	01:40:52:27	6.952	Anthozoa	Liponematidae	Liponema			Animalia	Actiniaria	Cnidaria	Liponema brevicornis	Hexacorallia			Nyantheae				Eukaryota		V3167-02
 	transect	Rathbunaster californicus	313.21	3167	01:18:13:24	 	36.82593	-122.16845	2371081	1.08	50:58.0	Ventana	34.161	01:20:06:01	6.953		Labidiasteridae	Rathbunaster			Animalia	Forcipulatida	Echinodermata	Rathbunaster californicus	Asteroidea							Eukaryota		V3167-02
 	transect	Allocentrotus fragilis	305.15	3167	01:27:36:07	 	36.82738	-122.16859	2388566	1.11	00:21.0	Ventana	34.162	01:29:27:26	6.992	Echinoidea	Strongylocentrotidae	Allocentrotus			Animalia	Echinoida	Echinodermata	Allocentrotus fragilis	Euechinoidea			Echinacea				Eukaryota		V3167-02
 	cruise	hippasteria	103.57	3167	04:00:14:28	http://search.mbari.org/ARCHIVE/frameGrabs/Ventana/images/3167/04_01_54_22.jpg	36.848755	-122.12792	2471691	5.03	33:56.0	Ventana	33.479	04:01:54:22	11.286																			V3167-04
 	transect	Parastichopus leukothele	308.83	3167	01:33:27:26	 	36.82759	-122.16766	2389719	1.08	06:13.0	Ventana	34.166	01:35:18:22	6.925	Holothuroidea	Stichopodidae	Parastichopus			Animalia	Aspidochirotida	Echinodermata	Parastichopus leukothele	Aspidochirotacea							Eukaryota		V3167-02
 	transect	Allocentrotus fragilis	312	3167	01:16:45:12	 	36.826374	-122.16817	2370532	1.07	49:29.0	Ventana	34.165	01:18:37:07	6.917	Echinoidea	Strongylocentrotidae	Allocentrotus			Animalia	Echinoida	Echinodermata	Allocentrotus fragilis	Euechinoidea			Echinacea				Eukaryota		V3167-02
 	transect	Allocentrotus fragilis	320.23	3167	00:38:23:08	 	36.82492	-122.17021	2463043	1.14	10:44.0	Ventana	34.16	00:40:18:27	7.03	Echinoidea	Strongylocentrotidae	Allocentrotus			Animalia	Echinoida	Echinodermata	Allocentrotus fragilis	Euechinoidea			Echinacea				Eukaryota		V3167-01
 	transect	Rathbunaster californicus	308.74	3167	01:34:01:25	 	36.82738	-122.1677	2389922	1.08	06:47.0	Ventana	34.165	01:35:52:07	6.927		Labidiasteridae	Rathbunaster			Animalia	Forcipulatida	Echinodermata	Rathbunaster californicus	Asteroidea							Eukaryota		V3167-02
 	transect	Sabellida	321.73	3167	00:46:01:09	 	36.824863	-122.17058	2463216	1.14	18:22.0	Ventana	34.158	00:47:58:01	7.038	Polychaeta					Animalia	Sabellida	Annelida		Palpata							Eukaryota	Canalipalpata	V3167-01
 	transect	Allocentrotus fragilis	306.58	3167	01:26:42:09	 	36.827103	-122.16873	2388273	1.12	59:26.0	Ventana	34.164	01:28:33:08	6.991	Echinoidea	Strongylocentrotidae	Allocentrotus			Animalia	Echinoida	Echinodermata	Allocentrotus fragilis	Euechinoidea			Echinacea				Eukaryota		V3167-02
 	cruise	cable	205.78	3167	02:16:10:26	http://search.mbari.org/ARCHIVE/frameGrabs/Ventana/images/3167/02_17_53_09.jpg	36.835922	-122.1603	2467869	1.86	49:24.0	Ventana	34.078	02:17:53:09	8.271																			V3167-03
 	transect	Agonidae	322.94	3167	00:57:21:03	http://search.mbari.org/ARCHIVE/frameGrabs/Ventana/images/3167/00_59_12_24.jpg	36.824165	-122.17045	2464169	1.14	30:03.0	Ventana	34.157	00:59:12:24	7.046	Osteichthyes	Agonidae		Neopterygii		Animalia	Scorpaeniformes	Chordata		Actinopterygii				Vertebrata	Gnathostomata		Eukaryota	Acanthopterygii	V3167-02
 	transect	Stylasterias forreri	314.24	3167	01:19:00:08	 	36.825695	-122.16871	2371224	1.1	51:44.0	Ventana	34.163	01:20:51:02	6.956		Asteriidae	Stylasterias			Animalia	Forcipulatida	Echinodermata	Stylasterias forreri	Asteroidea							Eukaryota		V3167-02
 	transect	Rathbunaster californicus	311.31	3167	01:16:29:13	 	36.826443	-122.16818	2370502	1.08	49:13.0	Ventana	34.165	01:18:21:14	6.923		Labidiasteridae	Rathbunaster			Animalia	Forcipulatida	Echinodermata	Rathbunaster californicus	Asteroidea							Eukaryota		V3167-02
 	starttransect	object	321.66	3167	00:45:10:25	 	36.824795	-122.170395	2463133	1.14	17:32.0	Ventana	34.164	00:47:06:06	7.036																			V3167-01
 	transect	Allocentrotus fragilis	309.47	3167	01:25:15:26	 	36.82671	-122.16896	2372760	1.11	58:00.0	Ventana	34.161	01:27:07:03	7.022	Echinoidea	Strongylocentrotidae	Allocentrotus			Animalia	Echinoida	Echinodermata	Allocentrotus fragilis	Euechinoidea			Echinacea				Eukaryota		V3167-02
 	transect	Allocentrotus fragilis	313.42	3167	01:18:50:08	 	36.82575	-122.168655	2371194	1.11	51:34.0	Ventana	34.161	01:20:41:10	6.99	Echinoidea	Strongylocentrotidae	Allocentrotus			Animalia	Echinoida	Echinodermata	Allocentrotus fragilis	Euechinoidea			Echinacea				Eukaryota		V3167-02
 	transect	Rathbunaster californicus	308.92	3167	01:33:49:25	 	36.827457	-122.16768	2389839	1.07	06:35.0	Ventana	34.166	01:35:40:24	6.926		Labidiasteridae	Rathbunaster			Animalia	Forcipulatida	Echinodermata	Rathbunaster californicus	Asteroidea							Eukaryota		V3167-02
 	transect	Ceriantharia	167.08	3167	02:24:26:26	 	36.836937	-122.15835	2467147	2.55	57:40.0	Ventana	33.957	02:26:09:25	9.187	Anthozoa					Animalia	Ceriantharia	Cnidaria		Ceriantipatharia							Eukaryota		V3167-03
 	transect	Rathbunaster californicus	316.04	3167	01:19:42:06	 	36.825478	-122.168915	2371369	1.08	52:26.0	Ventana	34.166	01:21:33:22	6.929		Labidiasteridae	Rathbunaster			Animalia	Forcipulatida	Echinodermata	Rathbunaster californicus	Asteroidea							Eukaryota		V3167-02
 	transect	Rathbunaster californicus	316.08	3167	01:22:17:02	 	36.82569	-122.16947	2371632	1.09	55:01.0	Ventana	34.163	01:24:08:15	6.958		Labidiasteridae	Rathbunaster			Animalia	Forcipulatida	Echinodermata	Rathbunaster californicus	Asteroidea							Eukaryota		V3167-02
 	transect	Rathbunaster californicus	314.98	3167	01:22:49:01	 	36.82587	-122.16939	2371745	1.08	55:33.0	Ventana	34.166	01:24:41:01	6.927		Labidiasteridae	Rathbunaster			Animalia	Forcipulatida	Echinodermata	Rathbunaster californicus	Asteroidea							Eukaryota		V3167-02
 	transect	Rathbunaster californicus	308.91	3167	01:33:51:26	 	36.827446	-122.16769	2389869	1.07	06:37.0	Ventana	34.166	01:35:43:19	6.926		Labidiasteridae	Rathbunaster			Animalia	Forcipulatida	Echinodermata	Rathbunaster californicus	Asteroidea							Eukaryota		V3167-02
 	cruise	Laminariales	135.79	3167	02:49:51:09	 	36.838417	-122.15417	2467553	2.98	23:06.0	Ventana	33.844	02:51:34:27	9.731	Phaeophyceae					Chromista	Laminariales	Phaeophycophyta									Eukaryota		V3167-03
 	transect	Allocentrotus fragilis	311.85	3167	01:23:59:14	 	36.82629	-122.169205	2372008	1.07	56:44.0	Ventana	34.165	01:25:49:23	6.925	Echinoidea	Strongylocentrotidae	Allocentrotus			Animalia	Echinoida	Echinodermata	Allocentrotus fragilis	Euechinoidea			Echinacea				Eukaryota		V3167-02
 	transect	Rathbunaster californicus	309.01	3167	01:34:56:08	 	36.827038	-122.16785	2390155	1.08	07:41.0	Ventana	34.164	01:36:48:12	6.94		Labidiasteridae	Rathbunaster			Animalia	Forcipulatida	Echinodermata	Rathbunaster californicus	Asteroidea							Eukaryota		V3167-02
 	transect	Allocentrotus fragilis	305.08	3167	01:27:54:21	 	36.827473	-122.16853	2388619	1.16	00:39.0	Ventana	34.154	01:29:46:22	7.099	Echinoidea	Strongylocentrotidae	Allocentrotus			Animalia	Echinoida	Echinodermata	Allocentrotus fragilis	Euechinoidea			Echinacea				Eukaryota		V3167-02
 	transect	Allocentrotus fragilis	310.04	3167	01:24:57:27	 	36.82662	-122.16902	2372730	1.09	57:42.0	Ventana	34.165	01:26:49:26	6.968	Echinoidea	Strongylocentrotidae	Allocentrotus			Animalia	Echinoida	Echinodermata	Allocentrotus fragilis	Euechinoidea			Echinacea				Eukaryota		V3167-02
 	transect	Allocentrotus fragilis	306.88	3167	01:26:32:09	 	36.827057	-122.168755	2372984	1.17	59:16.0	Ventana	34.157	01:28:24:13	7.079	Echinoidea	Strongylocentrotidae	Allocentrotus			Animalia	Echinoida	Echinodermata	Allocentrotus fragilis	Euechinoidea			Echinacea				Eukaryota		V3167-02
 	transect	Sebastes diploproa	314.93	3167	01:22:59:01	 	36.825928	-122.169365	2371775	1.07	55:43.0	Ventana	34.165	01:24:51:23	6.926	Osteichthyes	Scorpaenidae	Sebastes	Neopterygii		Animalia	Scorpaeniformes	Chordata	Sebastes diploproa	Actinopterygii			Scorpaenoidei	Vertebrata	Gnathostomata		Eukaryota	Acanthopterygii	V3167-02
 	transect	Rathbunaster californicus	316.47	3167	01:22:05:02	 	36.82563	-122.169495	2371602	1.09	54:49.0	Ventana	34.164	01:23:57:01	6.958		Labidiasteridae	Rathbunaster			Animalia	Forcipulatida	Echinodermata	Rathbunaster californicus	Asteroidea							Eukaryota		V3167-02
 	cruise	Metridium farcimen	108.21	3167	03:42:22:01	 	36.84518	-122.13557	2471022	4.78	16:02.0	Ventana	33.519	03:44:03:07	11.191	Anthozoa	Metridiidae	Metridium			Animalia	Actiniaria	Cnidaria	Metridium farcimen	Hexacorallia			Nyantheae				Eukaryota		V3167-04
 	transect	Allocentrotus fragilis	310.49	3167	01:24:41:27	 	36.826527	-122.169075	2372700	1.08	57:26.0	Ventana	34.165	01:26:33:24	6.934	Echinoidea	Strongylocentrotidae	Allocentrotus			Animalia	Echinoida	Echinodermata	Allocentrotus fragilis	Euechinoidea			Echinacea				Eukaryota		V3167-02
 	transect	Allocentrotus fragilis	305.95	3167	01:27:00:08	 	36.827194	-122.168686	2388333	1.1	59:45.0	Ventana	34.164	01:28:51:24	6.964	Echinoidea	Strongylocentrotidae	Allocentrotus			Animalia	Echinoida	Echinodermata	Allocentrotus fragilis	Euechinoidea			Echinacea				Eukaryota		V3167-02
 	cruise	Pycnopodia helianthoides	99.41	3167	04:14:55:09	http://search.mbari.org/ARCHIVE/frameGrabs/Ventana/images/3167/04_16_29_26.jpg	36.85187	-122.12086	2471947	5.01	48:58.0	Ventana	33.484	04:16:29:26	11.278		Asteriidae	Pycnopodia			Animalia	Forcipulatida	Echinodermata	Pycnopodia helianthoides	Asteroidea							Eukaryota		V3167-05
 	transect	Allocentrotus fragilis	313	3167	01:17:19:26	 	36.8262	-122.16818	2370788	1.07	50:04.0	Ventana	34.165	01:19:11:07	6.914	Echinoidea	Strongylocentrotidae	Allocentrotus			Animalia	Echinoida	Echinodermata	Allocentrotus fragilis	Euechinoidea			Echinacea				Eukaryota		V3167-02
 	transect	Allocentrotus fragilis	303.8	3167	01:28:56:20	 	36.827744	-122.16837	2388882	1.09	01:41.0	Ventana	34.163	01:30:47:29	6.964	Echinoidea	Strongylocentrotidae	Allocentrotus			Animalia	Echinoida	Echinodermata	Allocentrotus fragilis	Euechinoidea			Echinacea				Eukaryota		V3167-02
 	transect	Rathbunaster californicus	323.08	3167	00:49:58:02	 	36.824444	-122.170685	2463276	1.18	22:19.0	Ventana	34.153	00:51:53:02	7.106		Labidiasteridae	Rathbunaster			Animalia	Forcipulatida	Echinodermata	Rathbunaster californicus	Asteroidea							Eukaryota		V3167-01
 	transect	Sebastes diploproa	310.92	3167	01:24:23:13	 	36.826427	-122.169136	2372121	1.08	57:08.0	Ventana	34.165	01:26:16:02	6.93	Osteichthyes	Scorpaenidae	Sebastes	Neopterygii		Animalia	Scorpaeniformes	Chordata	Sebastes diploproa	Actinopterygii			Scorpaenoidei	Vertebrata	Gnathostomata		Eukaryota	Acanthopterygii	V3167-02
 	transect	Allocentrotus fragilis	308.25	3167	01:25:47:26	 	36.82686	-122.16888	2372811	1.09	58:32.0	Ventana	34.163	01:27:38:29	6.991	Echinoidea	Strongylocentrotidae	Allocentrotus			Animalia	Echinoida	Echinodermata	Allocentrotus fragilis	Euechinoidea			Echinacea				Eukaryota		V3167-02
 	transect	Allocentrotus fragilis	305.16	3167	01:27:24:07	 	36.82732	-122.16862	2388506	1.11	00:09.0	Ventana	34.162	01:29:16:10	6.992	Echinoidea	Strongylocentrotidae	Allocentrotus			Animalia	Echinoida	Echinodermata	Allocentrotus fragilis	Euechinoidea			Echinacea				Eukaryota		V3167-02
 	cruise	Sebastes diploproa	327.64	3167	00:12:44:25	 	36.823177	-122.17052	2462178	1.13	45:04.0	Ventana	34.158	00:14:40:21	7.01	Osteichthyes	Scorpaenidae	Sebastes	Neopterygii		Animalia	Scorpaeniformes	Chordata	Sebastes diploproa	Actinopterygii			Scorpaenoidei	Vertebrata	Gnathostomata		Eukaryota	Acanthopterygii	V3167-01
 	transect	Allocentrotus fragilis	306.4	3167	01:26:48:09	 	36.827133	-122.16872	2388303	1.12	59:32.0	Ventana	34.164	01:28:40:14	6.991	Echinoidea	Strongylocentrotidae	Allocentrotus			Animalia	Echinoida	Echinodermata	Allocentrotus fragilis	Euechinoidea			Echinacea				Eukaryota		V3167-02
 	transect	Parastichopus leukothele	309.43	3167	01:15:23:14	 	36.826706	-122.16831	2370442	1.08	48:07.0	Ventana	34.165	01:17:14:08	6.932	Holothuroidea	Stichopodidae	Parastichopus			Animalia	Aspidochirotida	Echinodermata	Parastichopus leukothele	Aspidochirotacea							Eukaryota		V3167-02
 	transect	Allocentrotus fragilis	308.92	3167	01:33:45:26	 	36.827484	-122.16767	2389809	1.07	06:31.0	Ventana	34.166	01:35:38:01	6.926	Echinoidea	Strongylocentrotidae	Allocentrotus			Animalia	Echinoida	Echinodermata	Allocentrotus fragilis	Euechinoidea			Echinacea				Eukaryota		V3167-02
 	transect	Rathbunaster californicus	309.57	3167	01:35:04:08	 	36.826992	-122.16788	2390185	1.08	07:49.0	Ventana	34.164	01:36:54:18	6.94		Labidiasteridae	Rathbunaster			Animalia	Forcipulatida	Echinodermata	Rathbunaster californicus	Asteroidea							Eukaryota		V3167-02
 	transect	Rathbunaster californicus	313.13	3167	01:18:40:09	 	36.8258	-122.1686	2371164	1.11	51:24.0	Ventana	34.161	01:20:32:03	6.99		Labidiasteridae	Rathbunaster			Animalia	Forcipulatida	Echinodermata	Rathbunaster californicus	Asteroidea							Eukaryota		V3167-02
 	transect	Allocentrotus fragilis	312.59	3167	01:23:47:14	 	36.82622	-122.169235	2371948	1.08	56:32.0	Ventana	34.165	01:25:38:28	6.929	Echinoidea	Strongylocentrotidae	Allocentrotus			Animalia	Echinoida	Echinodermata	Allocentrotus fragilis	Euechinoidea			Echinacea				Eukaryota		V3167-02
 	transect	Rathbunaster californicus	319.45	3167	00:27:36:13	 	36.824654	-122.16921	2462757	1.14	59:56.0	Ventana	34.158	00:29:33:20	7.032		Labidiasteridae	Rathbunaster			Animalia	Forcipulatida	Echinodermata	Rathbunaster californicus	Asteroidea							Eukaryota		V3167-01
 	cruise	Pandalus platyceros	273.87	3167	02:05:32:16	 	36.833687	-122.163506	2466568	1.17	38:44.0	Ventana	34.155	02:07:16:00	7.123	Malacostraca	Pandalidae	Pandalus		Caridea	Animalia	Decapoda	Arthropoda	Pandalus platyceros	Eumalacostraca						Pandaloidea	Eukaryota	Eucarida	V3167-03
 	transect	Rathbunaster californicus	308.58	3167	01:33:03:27	 	36.827694	-122.16764	2389636	1.08	05:48.0	Ventana	34.165	01:34:54:29	6.927		Labidiasteridae	Rathbunaster			Animalia	Forcipulatida	Echinodermata	Rathbunaster californicus	Asteroidea							Eukaryota		V3167-02
 	transect	Rathbunaster californicus	319.55	3167	00:19:10:13	http://search.mbari.org/ARCHIVE/frameGrabs/Ventana/images/3167/00_21_06_11.jpg	36.82437	-122.16976	2462381	1.14	51:30.0	Ventana	34.159	00:21:06:11	7.025		Labidiasteridae	Rathbunaster			Animalia	Forcipulatida	Echinodermata	Rathbunaster californicus	Asteroidea							Eukaryota		V3167-01
 	cruise	Rathbunaster californicus	102.78	3167	04:03:10:15	 	36.84945	-122.12642	2471774	5.05	37:13.0	Ventana	33.478	04:04:45:05	11.291		Labidiasteridae	Rathbunaster			Animalia	Forcipulatida	Echinodermata	Rathbunaster californicus	Asteroidea							Eukaryota		V3167-05
 	cruise	Parastichopus leukothele	340.67	3167	00:04:40:25	 	36.820683	-122.171234	2459613	1.1	36:59.0	Ventana	34.161	00:06:37:23	6.936	Holothuroidea	Stichopodidae	Parastichopus			Animalia	Aspidochirotida	Echinodermata	Parastichopus leukothele	Aspidochirotacea							Eukaryota		V3167-01
 	transect	Phyllospadix	171.41	3167	02:35:03:21	 	36.83727	-122.15913	2467366	2.66	08:17.0	Ventana	33.941	02:36:47:01	9.323		Zosteraceae	Phyllospadix			Plantae	Najadales										Eukaryota		V3167-03
 	transect	Allocentrotus fragilis	305.19	3167	01:27:22:08	 	36.82731	-122.168625	2388469	1.1	00:07.0	Ventana	34.163	01:29:12:16	6.962	Echinoidea	Strongylocentrotidae	Allocentrotus			Animalia	Echinoida	Echinodermata	Allocentrotus fragilis	Euechinoidea			Echinacea				Eukaryota		V3167-02
 	cruise	Allocentrotus fragilis	330.52	3167	00:10:26:14	 	36.822456	-122.17068	2462146	1.11	42:45.0	Ventana	34.162	00:12:21:26	6.953	Echinoidea	Strongylocentrotidae	Allocentrotus			Animalia	Echinoida	Echinodermata	Allocentrotus fragilis	Euechinoidea			Echinacea				Eukaryota		V3167-01
 	transect	Raja rhina	303.56	3167	01:29:06:19	 	36.827785	-122.16835	2388914	1.09	01:51.0	Ventana	34.163	01:30:58:14	6.964	Chondrichthyes	Rajidae	Raja			Animalia	Rajiformes	Chordata	Raja rhina	Elasmobranchii				Vertebrata			Eukaryota	Batoidea	V3167-02
 	cruise	Pleuronectiformes	286.42	3167	02:01:55:23	 	36.832867	-122.16454	2467719	1.14	35:07.0	Ventana	34.159	02:03:37:19	7.039	Osteichthyes			Neopterygii		Animalia	Pleuronectiformes	Chordata		Actinopterygii				Vertebrata	Gnathostomata		Eukaryota	Acanthopterygii	V3167-03
 	cruise	Bathyraja kincaidii	309.65	3167	01:35:42:07	 	36.826828	-122.16806	2390741	1.08	08:27.0	Ventana	34.163	01:37:34:11	6.946	Chondrichthyes	Arhynchobatidae	Bathyraja			Animalia	Rajiformes	Chordata	Bathyraja kincaidii	Elasmobranchii				Vertebrata			Eukaryota	Batoidea	V3167-02
 	transect	Rathbunaster californicus	313.19	3167	01:18:11:24	 	36.825943	-122.16844	2371074	1.08	50:56.0	Ventana	34.161	01:20:04:02	6.953		Labidiasteridae	Rathbunaster			Animalia	Forcipulatida	Echinodermata	Rathbunaster californicus	Asteroidea							Eukaryota		V3167-02
 	cruise	Parastichopus leukothele	324.11	3167	00:14:57:21	 	36.823887	-122.1703	2462208	1.11	47:17.0	Ventana	34.161	00:16:54:06	6.974	Holothuroidea	Stichopodidae	Parastichopus			Animalia	Aspidochirotida	Echinodermata	Parastichopus leukothele	Aspidochirotacea							Eukaryota		V3167-01
 	transect	Allocentrotus fragilis	306.83	3167	01:26:36:09	 	36.827076	-122.16875	2372993	1.17	59:20.0	Ventana	34.157	01:28:28:07	7.079	Echinoidea	Strongylocentrotidae	Allocentrotus			Animalia	Echinoida	Echinodermata	Allocentrotus fragilis	Euechinoidea			Echinacea				Eukaryota		V3167-02
 	transect	Sebastes	308.74	3167	01:34:03:25	 	36.82737	-122.1677	2389943	1.08	06:49.0	Ventana	34.165	01:35:55:17	6.927	Osteichthyes	Scorpaenidae	Sebastes	Neopterygii		Animalia	Scorpaeniformes	Chordata		Actinopterygii			Scorpaenoidei	Vertebrata	Gnathostomata		Eukaryota	Acanthopterygii	V3167-02
 	transect	Phyllospadix	171.45	3167	02:22:34:14	 	36.836857	-122.15865	2467043	2.42	55:48.0	Ventana	33.974	02:24:16:16	9.031		Zosteraceae	Phyllospadix			Plantae	Najadales										Eukaryota		V3167-03
 	cruise	Lycodes cortezianus	276.67	3167	02:04:44:03	 	36.83352	-122.16375	2466538	1.17	37:56.0	Ventana	34.156	02:06:27:16	7.095	Osteichthyes	Zoarcidae	Lycodes	Neopterygii		Animalia	Perciformes	Chordata	Lycodes cortezianus	Actinopterygii			Zoarcoidei	Vertebrata	Gnathostomata		Eukaryota	Acanthopterygii	V3167-03
 	cruise	Allocentrotus fragilis	308.6	3167	01:13:04:19	 	36.82678	-122.16894	2464711	1.11	45:48.0	Ventana	34.162	01:14:56:17	6.987	Echinoidea	Strongylocentrotidae	Allocentrotus			Animalia	Echinoida	Echinodermata	Allocentrotus fragilis	Euechinoidea			Echinacea				Eukaryota		V3167-02
 	transect	Allocentrotus fragilis	307.12	3167	01:26:20:09	 	36.826996	-122.16879	2372933	1.22	59:04.0	Ventana	34.147	01:28:11:03	7.163	Echinoidea	Strongylocentrotidae	Allocentrotus			Animalia	Echinoida	Echinodermata	Allocentrotus fragilis	Euechinoidea			Echinacea				Eukaryota		V3167-02
 	transect	Rathbunaster californicus	314.43	3167	01:23:25:15	 	36.826084	-122.1693	2371872	1.07	56:09.0	Ventana	34.166	01:25:16:08	6.924		Labidiasteridae	Rathbunaster			Animalia	Forcipulatida	Echinodermata	Rathbunaster californicus	Asteroidea							Eukaryota		V3167-02
 	transect	Parastichopus leukothele	309.6	3167	01:35:24:07	 	36.82689	-122.16797	2390266	1.09	08:09.0	Ventana	34.164	01:37:14:19	6.953	Holothuroidea	Stichopodidae	Parastichopus			Animalia	Aspidochirotida	Echinodermata	Parastichopus leukothele	Aspidochirotacea							Eukaryota		V3167-02
 	transect	Rathbunaster californicus	308.62	3167	01:34:13:25	http://search.mbari.org/ARCHIVE/frameGrabs/Ventana/images/3167/01_36_06_06.jpg	36.827305	-122.167725	2390003	1.08	06:59.0	Ventana	34.165	01:36:06:06	6.933		Labidiasteridae	Rathbunaster			Animalia	Forcipulatida	Echinodermata	Rathbunaster californicus	Asteroidea							Eukaryota		V3167-02
 	transect	Stylasterias forreri	305.1	3167	01:27:28:08	 	36.82734	-122.16861	2388529	1.11	00:13.0	Ventana	34.162	01:29:19:25	6.992		Asteriidae	Stylasterias			Animalia	Forcipulatida	Echinodermata	Stylasterias forreri	Asteroidea							Eukaryota		V3167-02
 	transect	Rathbunaster californicus	314.83	3167	01:23:07:15	 	36.825974	-122.16934	2371812	1.07	55:51.0	Ventana	34.165	01:24:59:06	6.926		Labidiasteridae	Rathbunaster			Animalia	Forcipulatida	Echinodermata	Rathbunaster californicus	Asteroidea							Eukaryota		V3167-02
 	transect	Hippasteria	322.57	3167	00:48:21:19	http://search.mbari.org/ARCHIVE/frameGrabs/Ventana/images/3167/00_50_17_29.jpg	36.82467	-122.17083	2463237	1.19	20:43.0	Ventana	34.154	00:50:17:29	7.121		Goniasteridae	Hippasteria			Animalia	Valvatida	Echinodermata		Asteroidea			Granulosina				Eukaryota		V3167-01
 	cruise	Metridium farcimen	110.53	3167	03:34:58:15	 	36.843426	-122.13855	2470960	4.57	08:38.0	Ventana	33.55	03:36:38:16	11.089	Anthozoa	Metridiidae	Metridium			Animalia	Actiniaria	Cnidaria	Metridium farcimen	Hexacorallia			Nyantheae				Eukaryota		V3167-04
 	cruise	cable	128.04	3167	02:53:30:02	http://search.mbari.org/ARCHIVE/frameGrabs/Ventana/images/3167/02_55_12_06.jpg	36.838985	-122.15257	20024057	3.09	26:45.0	Ventana	33.803	02:55:12:06	9.914																			V3167-03
 	cruise	Sebastes	307.5	3167	01:37:16:19	 	36.826794	-122.16869	2390771	1.07	10:02.0	Ventana	34.166	01:39:07:28	6.925	Osteichthyes	Scorpaenidae	Sebastes	Neopterygii		Animalia	Scorpaeniformes	Chordata		Actinopterygii			Scorpaenoidei	Vertebrata	Gnathostomata		Eukaryota	Acanthopterygii	V3167-02
 	transect	Parastichopus leukothele	322.99	3167	00:53:36:25	http://search.mbari.org/ARCHIVE/frameGrabs/Ventana/images/3167/00_55_32_05.jpg	36.82435	-122.1706	20023967	1.17	25:58.0	Ventana	34.155	00:55:32:05	7.098	Holothuroidea	Stichopodidae	Parastichopus			Animalia	Aspidochirotida	Echinodermata	Parastichopus leukothele	Aspidochirotacea							Eukaryota		V3167-01
 	transect	Rathbunaster californicus	309.07	3167	01:34:19:25	 	36.827267	-122.16774	2390033	1.08	07:05.0	Ventana	34.165	01:36:12:00	6.933		Labidiasteridae	Rathbunaster			Animalia	Forcipulatida	Echinodermata	Rathbunaster californicus	Asteroidea							Eukaryota		V3167-02
 	transect	Sabellida	318.94	3167	00:37:40:24	 	36.824905	-122.17006	2463004	1.16	10:01.0	Ventana	34.156	00:39:37:05	7.075	Polychaeta					Animalia	Sabellida	Annelida		Palpata							Eukaryota	Canalipalpata	V3167-01
 	transect	Rathbunaster californicus	308.32	3167	01:33:13:26	 	36.827663	-122.167656	2389680	1.08	05:58.0	Ventana	34.166	01:35:05:19	6.926		Labidiasteridae	Rathbunaster			Animalia	Forcipulatida	Echinodermata	Rathbunaster californicus	Asteroidea							Eukaryota		V3167-02
 	cruise	Stylasterias forreri	318.27	3167	01:06:47:00	 	36.82511	-122.16988	2464478	1.13	39:30.0	Ventana	34.16	01:08:39:11	7.017		Asteriidae	Stylasterias			Animalia	Forcipulatida	Echinodermata	Stylasterias forreri	Asteroidea							Eukaryota		V3167-02
 	transect	Sebastes diploproa	320.35	3167	00:18:14:15	 	36.82432	-122.16995	2462298	1.11	50:34.0	Ventana	34.161	00:20:11:09	6.984	Osteichthyes	Scorpaenidae	Sebastes	Neopterygii		Animalia	Scorpaeniformes	Chordata	Sebastes diploproa	Actinopterygii			Scorpaenoidei	Vertebrata	Gnathostomata		Eukaryota	Acanthopterygii	V3167-01
 	cruise	cable	243.16	3167	02:10:59:21	http://search.mbari.org/ARCHIVE/frameGrabs/Ventana/images/3167/02_12_43_22.jpg	36.834934	-122.161804	2467809	1.57	44:12.0	Ventana	34.116	02:12:43:22	7.826																			V3167-03
 	transect	Rathbunaster californicus	309.53	3167	01:35:10:08	 	36.826958	-122.16791	2390206	1.08	07:55.0	Ventana	34.163	01:37:01:07	6.95		Labidiasteridae	Rathbunaster			Animalia	Forcipulatida	Echinodermata	Rathbunaster californicus	Asteroidea							Eukaryota		V3167-02
 	transect	Parastichopus leukothele	308.92	3167	01:33:49:25	 	36.827457	-122.16768	2389853	1.07	06:35.0	Ventana	34.166	01:35:40:24	6.926	Holothuroidea	Stichopodidae	Parastichopus			Animalia	Aspidochirotida	Echinodermata	Parastichopus leukothele	Aspidochirotacea							Eukaryota		V3167-02
 	transect	Parastichopus leukothele	313.24	3167	01:18:17:24	 	36.825912	-122.16847	2371104	1.08	51:02.0	Ventana	34.161	01:20:09:10	6.953	Holothuroidea	Stichopodidae	Parastichopus			Animalia	Aspidochirotida	Echinodermata	Parastichopus leukothele	Aspidochirotacea							Eukaryota		V3167-02
 	transect	Rathbunaster californicus	318.35	3167	00:36:28:27	 	36.824886	-122.1698	2462974	1.15	08:49.0	Ventana	34.158	00:38:24:10	7.055		Labidiasteridae	Rathbunaster			Animalia	Forcipulatida	Echinodermata	Rathbunaster californicus	Asteroidea							Eukaryota		V3167-01
 	transect	Parastichopus leukothele	305.15	3167	01:27:36:07	 	36.82738	-122.16859	2388559	1.11	00:21.0	Ventana	34.162	01:29:27:26	6.992	Holothuroidea	Stichopodidae	Parastichopus			Animalia	Aspidochirotida	Echinodermata	Parastichopus leukothele	Aspidochirotacea							Eukaryota		V3167-02
 	cruise	Stylasterias forreri	211.32	3167	02:15:18:28	 	36.83577	-122.16054	2466893	1.73	48:31.0	Ventana	34.097	02:17:01:16	8.085		Asteriidae	Stylasterias			Animalia	Forcipulatida	Echinodermata	Stylasterias forreri	Asteroidea							Eukaryota		V3167-03
 	transect	Sebastes	315.12	3167	01:19:18:07	 	36.825596	-122.16879	2371277	1.09	52:02.0	Ventana	34.161	01:21:09:27	6.971	Osteichthyes	Scorpaenidae	Sebastes	Neopterygii		Animalia	Scorpaeniformes	Chordata		Actinopterygii			Scorpaenoidei	Vertebrata	Gnathostomata		Eukaryota	Acanthopterygii	V3167-02
 	transect	Allocentrotus fragilis	305.18	3167	01:27:42:07	http://search.mbari.org/ARCHIVE/frameGrabs/Ventana/images/3167/01_29_34_26.jpg	36.827415	-122.168564	2388589	1.12	00:27.0	Ventana	34.159	01:29:34:26	7.026	Echinoidea	Strongylocentrotidae	Allocentrotus			Animalia	Echinoida	Echinodermata	Allocentrotus fragilis	Euechinoidea			Echinacea				Eukaryota		V3167-02
 	transect	Rathbunaster californicus	309.18	3167	01:34:32:09	 	36.827194	-122.16777	2390063	1.08	07:17.0	Ventana	34.165	01:36:23:28	6.927		Labidiasteridae	Rathbunaster			Animalia	Forcipulatida	Echinodermata	Rathbunaster californicus	Asteroidea							Eukaryota		V3167-02
 	cruise	trench	101.93	3167	04:06:25:09	http://search.mbari.org/ARCHIVE/frameGrabs/Ventana/images/3167/04_08_00_01.jpg	36.85006	-122.124886	2471848	5.04	40:28.0	Ventana	33.481	04:08:00:01	11.288																			V3167-05
 	cruise	Mediaster aequalis	284.01	3167	02:02:37:21	 	36.833042	-122.16435	2466478	1.14	35:50.0	Ventana	34.158	02:04:20:12	7.049		Goniasteridae	Mediaster			Animalia	Valvatida	Echinodermata	Mediaster aequalis	Asteroidea			Granulosina				Eukaryota		V3167-03
 	transect	Rathbunaster californicus	318.9	3167	00:25:08:02	 	36.82443	-122.16958	2462471	1.13	57:28.0	Ventana	34.161	00:27:04:18	7.013		Labidiasteridae	Rathbunaster			Animalia	Forcipulatida	Echinodermata	Rathbunaster californicus	Asteroidea							Eukaryota		V3167-01
 	cruise	Ceriantharia	165.34	3167	02:39:38:28	 	36.836994	-122.158226	2467426	2.77	12:53.0	Ventana	33.912	02:41:21:27	9.453	Anthozoa					Animalia	Ceriantharia	Cnidaria		Ceriantipatharia							Eukaryota		V3167-03
 	transect	Allocentrotus fragilis	306.89	3167	01:26:30:09	 	36.827053	-122.16876	2372963	1.17	59:14.0	Ventana	34.157	01:28:22:11	7.079	Echinoidea	Strongylocentrotidae	Allocentrotus			Animalia	Echinoida	Echinodermata	Allocentrotus fragilis	Euechinoidea			Echinacea				Eukaryota		V3167-02
 	transect	Phyllospadix	161.34	3167	02:26:27:22	 	36.837055	-122.15799	2467246	2.64	59:41.0	Ventana	33.939	02:28:09:14	9.321		Zosteraceae	Phyllospadix			Plantae	Najadales										Eukaryota		V3167-03
 	transect	Rathbunaster californicus	309.02	3167	01:33:55:25	 	36.82742	-122.167694	2389883	1.08	06:41.0	Ventana	34.165	01:35:47:27	6.927		Labidiasteridae	Rathbunaster			Animalia	Forcipulatida	Echinodermata	Rathbunaster californicus	Asteroidea							Eukaryota		V3167-02
 	transect	Sebastes	305.76	3167	01:27:12:08	 	36.827255	-122.16865	2388409	1.1	59:57.0	Ventana	34.163	01:29:03:25	6.962	Osteichthyes	Scorpaenidae	Sebastes	Neopterygii		Animalia	Scorpaeniformes	Chordata		Actinopterygii			Scorpaenoidei	Vertebrata	Gnathostomata		Eukaryota	Acanthopterygii	V3167-02
 	transect	Allocentrotus fragilis	313.37	3167	01:17:27:26	 	36.82616	-122.168205	2370871	1.07	50:12.0	Ventana	34.166	01:19:19:12	6.912	Echinoidea	Strongylocentrotidae	Allocentrotus			Animalia	Echinoida	Echinodermata	Allocentrotus fragilis	Euechinoidea			Echinacea				Eukaryota		V3167-02
 	transect	Allocentrotus fragilis	310.39	3167	01:24:49:27	 	36.826576	-122.169044	2372721	1.08	57:34.0	Ventana	34.165	01:26:41:26	6.934	Echinoidea	Strongylocentrotidae	Allocentrotus			Animalia	Echinoida	Echinodermata	Allocentrotus fragilis	Euechinoidea			Echinacea				Eukaryota		V3167-02
 	cruise	Gorgonocephalus eucnemis	98.13	3167	04:20:06:14	http://search.mbari.org/ARCHIVE/frameGrabs/Ventana/images/3167/04_21_42_00.jpg	36.85304	-122.1184	2471968	5.02	54:10.0	Ventana	33.484	04:21:42:00	11.283	Ophiuroidea	Gorgonocephalidae	Gorgonocephalus			Animalia	Ophiurida	Echinodermata	Gorgonocephalus eucnemis				Euryalina				Eukaryota		V3167-05
 	transect	Rathbunaster californicus	319.55	3167	00:19:12:13	 	36.824375	-122.169754	2462388	1.14	51:32.0	Ventana	34.159	00:21:08:15	7.025		Labidiasteridae	Rathbunaster			Animalia	Forcipulatida	Echinodermata	Rathbunaster californicus	Asteroidea							Eukaryota		V3167-01
 	transect	Rathbunaster californicus	319.44	3167	00:27:44:12	 	36.824665	-122.16919	2462764	1.14	00:04.0	Ventana	34.158	00:29:41:07	7.032		Labidiasteridae	Rathbunaster			Animalia	Forcipulatida	Echinodermata	Rathbunaster californicus	Asteroidea							Eukaryota		V3167-01
 	transect	Parastichopus leukothele	309.01	3167	01:34:56:08	 	36.827038	-122.16785	2390146	1.08	07:41.0	Ventana	34.164	01:36:48:12	6.94	Holothuroidea	Stichopodidae	Parastichopus			Animalia	Aspidochirotida	Echinodermata	Parastichopus leukothele	Aspidochirotacea							Eukaryota		V3167-02
 	cruise	Sebastes	117.55	3167	03:05:23:09	 	36.84121	-122.14726	2468284	3.53	39:01.0	Ventana	33.733	03:07:03:01	10.383	Osteichthyes	Scorpaenidae	Sebastes	Neopterygii		Animalia	Scorpaeniformes	Chordata		Actinopterygii			Scorpaenoidei	Vertebrata	Gnathostomata		Eukaryota	Acanthopterygii	V3167-04
 	transect	Sebastes	314.88	3167	01:19:12:07	 	36.825626	-122.16876	2371247	1.09	51:56.0	Ventana	34.161	01:21:03:26	6.971	Osteichthyes	Scorpaenidae	Sebastes	Neopterygii		Animalia	Scorpaeniformes	Chordata		Actinopterygii			Scorpaenoidei	Vertebrata	Gnathostomata		Eukaryota	Acanthopterygii	V3167-02
 	transect	Rathbunaster californicus	315.82	3167	01:19:34:07	 	36.825512	-122.16888	2371346	1.09	52:18.0	Ventana	34.163	01:21:26:05	6.954		Labidiasteridae	Rathbunaster			Animalia	Forcipulatida	Echinodermata	Rathbunaster californicus	Asteroidea							Eukaryota		V3167-02
 	transect	Rathbunaster californicus	311.93	3167	01:23:55:14	 	36.826267	-122.16921	2371985	1.07	56:40.0	Ventana	34.165	01:25:46:25	6.925		Labidiasteridae	Rathbunaster			Animalia	Forcipulatida	Echinodermata	Rathbunaster californicus	Asteroidea							Eukaryota		V3167-02
 	transect	Rathbunaster californicus	309.33	3167	01:35:00:08	 	36.827015	-122.16786	2390176	1.08	07:45.0	Ventana	34.164	01:36:51:11	6.94		Labidiasteridae	Rathbunaster			Animalia	Forcipulatida	Echinodermata	Rathbunaster californicus	Asteroidea							Eukaryota		V3167-02
 	transect	Rathbunaster californicus	315.39	3167	01:22:45:01	 	36.825848	-122.1694	2371722	1.08	55:29.0	Ventana	34.166	01:24:36:21	6.927		Labidiasteridae	Rathbunaster			Animalia	Forcipulatida	Echinodermata	Rathbunaster californicus	Asteroidea							Eukaryota		V3167-02
 	transect	Allocentrotus fragilis	302.86	3167	01:29:49:03	 	36.82794	-122.16824	2389034	1.11	02:33.0	Ventana	34.163	01:31:40:22	6.985	Echinoidea	Strongylocentrotidae	Allocentrotus			Animalia	Echinoida	Echinodermata	Allocentrotus fragilis	Euechinoidea			Echinacea				Eukaryota		V3167-02
 	cruise	Stylasterias forreri	302.81	3167	01:45:24:20	 	36.828266	-122.16808	2390884	1.13	18:10.0	Ventana	34.16	01:47:15:25	7.035		Asteriidae	Stylasterias			Animalia	Forcipulatida	Echinodermata	Stylasterias forreri	Asteroidea							Eukaryota		V3167-02
 	cruise	Lycodes cortezianus	288.65	3167	02:01:15:09	 	36.832695	-122.16473	2466448	1.14	34:27.0	Ventana	34.159	02:02:58:11	7.036	Osteichthyes	Zoarcidae	Lycodes	Neopterygii		Animalia	Perciformes	Chordata	Lycodes cortezianus	Actinopterygii			Zoarcoidei	Vertebrata	Gnathostomata		Eukaryota	Acanthopterygii	V3167-03
 	transect	Rathbunaster californicus	322.68	3167	00:59:03:15	 	36.823944	-122.170235	2464268	1.14	31:46.0	Ventana	34.157	01:00:54:02	7.047		Labidiasteridae	Rathbunaster			Animalia	Forcipulatida	Echinodermata	Rathbunaster californicus	Asteroidea							Eukaryota		V3167-02
 	transect	Rathbunaster californicus	313.86	3167	01:18:56:08	 	36.825718	-122.168686	2371217	1.1	51:40.0	Ventana	34.163	01:20:47:02	6.956		Labidiasteridae	Rathbunaster			Animalia	Forcipulatida	Echinodermata	Rathbunaster californicus	Asteroidea							Eukaryota		V3167-02
 	transect	Rathbunaster californicus	308.92	3167	01:33:45:26	 	36.827484	-122.16767	2389830	1.07	06:31.0	Ventana	34.166	01:35:38:01	6.926		Labidiasteridae	Rathbunaster			Animalia	Forcipulatida	Echinodermata	Rathbunaster californicus	Asteroidea							Eukaryota		V3167-02
 	cruise	Sebastes diploproa	336.52	3167	00:06:19:07	 	36.821213	-122.171135	2462026	1.11	38:38.0	Ventana	34.161	00:08:16:02	6.949	Osteichthyes	Scorpaenidae	Sebastes	Neopterygii		Animalia	Scorpaeniformes	Chordata	Sebastes diploproa	Actinopterygii			Scorpaenoidei	Vertebrata	Gnathostomata		Eukaryota	Acanthopterygii	V3167-01
 	transect	Allocentrotus fragilis	311.51	3167	01:16:35:13	 	36.82642	-122.168175	2370511	1.08	49:19.0	Ventana	34.165	01:18:27:18	6.923	Echinoidea	Strongylocentrotidae	Allocentrotus			Animalia	Echinoida	Echinodermata	Allocentrotus fragilis	Euechinoidea			Echinacea				Eukaryota		V3167-02
 	transect	Allocentrotus fragilis	305.82	3167	01:27:06:08	 	36.827225	-122.16867	2388356	1.1	59:51.0	Ventana	34.164	01:28:58:15	6.964	Echinoidea	Strongylocentrotidae	Allocentrotus			Animalia	Echinoida	Echinodermata	Allocentrotus fragilis	Euechinoidea			Echinacea				Eukaryota		V3167-02
 	cruise	Allocentrotus fragilis	312.71	3167	01:10:36:09	 	36.826206	-122.169304	2464598	1.1	43:20.0	Ventana	34.162	01:12:27:03	6.978	Echinoidea	Strongylocentrotidae	Allocentrotus			Animalia	Echinoida	Echinodermata	Allocentrotus fragilis	Euechinoidea			Echinacea				Eukaryota		V3167-02
 	transect	Rathbunaster californicus	308.88	3167	01:33:31:26	 	36.827568	-122.16766	2389740	1.08	06:17.0	Ventana	34.166	01:35:22:12	6.925		Labidiasteridae	Rathbunaster			Animalia	Forcipulatida	Echinodermata	Rathbunaster californicus	Asteroidea							Eukaryota		V3167-02
 	transect	Rathbunaster californicus	313	3167	01:17:57:25	 	36.826015	-122.16835	2370984	1.07	50:42.0	Ventana	34.165	01:19:49:19	6.914		Labidiasteridae	Rathbunaster			Animalia	Forcipulatida	Echinodermata	Rathbunaster californicus	Asteroidea							Eukaryota		V3167-02
 	transect	Parastichopus leukothele	310.55	3167	01:16:07:14	 	36.826553	-122.16822	2370481	1.07	48:51.0	Ventana	34.165	01:17:58:25	6.921	Holothuroidea	Stichopodidae	Parastichopus			Animalia	Aspidochirotida	Echinodermata	Parastichopus leukothele	Aspidochirotacea							Eukaryota		V3167-02
 	transect	Phyllospadix	168.19	3167	02:23:56:27	 	36.83692	-122.15843	2467126	2.45	57:10.0	Ventana	33.969	02:25:39:21	9.073		Zosteraceae	Phyllospadix			Plantae	Najadales										Eukaryota		V3167-03
 	cruise	Parastichopus leukothele	112.37	3167	03:15:25:21	 	36.84209	-122.14218	2468600	4.84	49:04.0	Ventana	33.519	03:17:05:10	11.224	Holothuroidea	Stichopodidae	Parastichopus			Animalia	Aspidochirotida	Echinodermata	Parastichopus leukothele	Aspidochirotacea							Eukaryota		V3167-04
 	transect	Allocentrotus fragilis	313.09	3167	01:23:39:14	 	36.82617	-122.16926	2371925	1.08	56:24.0	Ventana	34.165	01:25:30:15	6.929	Echinoidea	Strongylocentrotidae	Allocentrotus			Animalia	Echinoida	Echinodermata	Allocentrotus fragilis	Euechinoidea			Echinacea				Eukaryota		V3167-02
 	cruise	Gorgonocephalus eucnemis	100.59	3167	04:10:34:02	http://search.mbari.org/ARCHIVE/frameGrabs/Ventana/images/3167/04_12_09_24.jpg	36.85089	-122.12293	2471908	5.04	44:37.0	Ventana	33.482	04:12:09:24	11.287	Ophiuroidea	Gorgonocephalidae	Gorgonocephalus			Animalia	Ophiurida	Echinodermata	Gorgonocephalus eucnemis				Euryalina				Eukaryota		V3167-05
 	transect	Rathbunaster californicus	314.73	3167	01:23:01:01	 	36.82594	-122.16936	2371782	1.07	55:45.0	Ventana	34.165	01:24:53:06	6.926		Labidiasteridae	Rathbunaster			Animalia	Forcipulatida	Echinodermata	Rathbunaster californicus	Asteroidea							Eukaryota		V3167-02
 	transect	Allocentrotus fragilis	305.98	3167	01:26:56:08	 	36.827175	-122.16869	2388326	1.1	59:41.0	Ventana	34.164	01:28:47:24	6.964	Echinoidea	Strongylocentrotidae	Allocentrotus			Animalia	Echinoida	Echinodermata	Allocentrotus fragilis	Euechinoidea			Echinacea				Eukaryota		V3167-02
 	transect	Rathbunaster californicus	319.8	3167	00:18:52:13	 	36.82436	-122.169815	2462358	1.13	51:12.0	Ventana	34.16	00:20:47:19	7.011		Labidiasteridae	Rathbunaster			Animalia	Forcipulatida	Echinodermata	Rathbunaster californicus	Asteroidea							Eukaryota		V3167-01
 	transect	Rathbunaster californicus	310.92	3167	01:24:23:13	 	36.826427	-122.169136	2372112	1.08	57:08.0	Ventana	34.165	01:26:16:02	6.93		Labidiasteridae	Rathbunaster			Animalia	Forcipulatida	Echinodermata	Rathbunaster californicus	Asteroidea							Eukaryota		V3167-02
 	cruise	Parmaturus xaniurus	332.96	3167	00:09:04:02	http://search.mbari.org/ARCHIVE/frameGrabs/Ventana/images/3167/00_11_00_12.jpg	36.82212	-122.17082	20023937	1.11	41:23.0	Ventana	34.161	00:11:00:12	6.966	Chondrichthyes	Scyliorhinidae	Parmaturus			Animalia	Carcharhiniformes	Chordata	Parmaturus xaniurus	Elasmobranchii				Vertebrata			Eukaryota	Galeomorphi	V3167-01
 	transect	Rathbunaster californicus	313.32	3167	01:17:25:26	 	36.82617	-122.1682	2370811	1.07	50:10.0	Ventana	34.166	01:19:17:00	6.912		Labidiasteridae	Rathbunaster			Animalia	Forcipulatida	Echinodermata	Rathbunaster californicus	Asteroidea							Eukaryota		V3167-02
 	transect	Sebastes	308.62	3167	01:34:11:25	 	36.82732	-122.167725	2389973	1.08	06:57.0	Ventana	34.165	01:36:02:14	6.933	Osteichthyes	Scorpaenidae	Sebastes	Neopterygii		Animalia	Scorpaeniformes	Chordata		Actinopterygii			Scorpaenoidei	Vertebrata	Gnathostomata		Eukaryota	Acanthopterygii	V3167-02
 	transect	Rathbunaster californicus	319.29	3167	00:27:26:12	 	36.82464	-122.169235	2462734	1.14	59:46.0	Ventana	34.158	00:29:22:01	7.028		Labidiasteridae	Rathbunaster			Animalia	Forcipulatida	Echinodermata	Rathbunaster californicus	Asteroidea							Eukaryota		V3167-01
 	cruise	Lycodes cortezianus	309.06	3167	01:53:00:21	 	36.830406	-122.16676	2465509	1.09	25:47.0	Ventana	34.163	01:54:52:18	6.956	Osteichthyes	Zoarcidae	Lycodes	Neopterygii		Animalia	Perciformes	Chordata	Lycodes cortezianus	Actinopterygii			Zoarcoidei	Vertebrata	Gnathostomata		Eukaryota	Acanthopterygii	V3167-02
 	transect	Sebastes	305.16	3167	01:27:24:07	 	36.82732	-122.16862	2388499	1.11	00:09.0	Ventana	34.162	01:29:16:10	6.992	Osteichthyes	Scorpaenidae	Sebastes	Neopterygii		Animalia	Scorpaeniformes	Chordata		Actinopterygii			Scorpaenoidei	Vertebrata	Gnathostomata		Eukaryota	Acanthopterygii	V3167-02
 	cruise	Laminariales	110.05	3167	03:18:08:16	http://search.mbari.org/ARCHIVE/frameGrabs/Ventana/images/3167/03_19_49_12.jpg	36.842514	-122.14077	2468630	4.82	51:47.0	Ventana	33.523	03:19:49:12	11.204	Phaeophyceae					Chromista	Laminariales	Phaeophycophyta									Eukaryota		V3167-04
 	transect	Rathbunaster californicus	323.18	3167	00:49:44:02	 	36.824463	-122.1707	2463267	1.18	22:05.0	Ventana	34.154	00:51:40:08	7.11		Labidiasteridae	Rathbunaster			Animalia	Forcipulatida	Echinodermata	Rathbunaster californicus	Asteroidea							Eukaryota		V3167-01
 	cruise	Stylasterias forreri	171.87	3167	02:38:08:15	 	36.836964	-122.15862	2467389	2.72	11:23.0	Ventana	33.927	02:39:51:08	9.397		Asteriidae	Stylasterias			Animalia	Forcipulatida	Echinodermata	Stylasterias forreri	Asteroidea							Eukaryota		V3167-03
 	cruise	Stylasterias forreri	307.27	3167	01:54:11:04	 	36.830723	-122.16649	2465516	1.09	26:57.0	Ventana	34.162	01:56:01:16	6.954		Asteriidae	Stylasterias			Animalia	Forcipulatida	Echinodermata	Stylasterias forreri	Asteroidea							Eukaryota		V3167-02
 	transect	Sebastes	306.94	3167	01:26:24:09	 	36.82701	-122.168785	2372940	1.17	59:08.0	Ventana	34.157	01:28:15:00	7.079	Osteichthyes	Scorpaenidae	Sebastes	Neopterygii		Animalia	Scorpaeniformes	Chordata		Actinopterygii			Scorpaenoidei	Vertebrata	Gnathostomata		Eukaryota	Acanthopterygii	V3167-02
 	cruise	Parmaturus xaniurus	322.52	3167	00:15:47:19	 	36.824116	-122.170204	2462215	1.12	48:07.0	Ventana	34.16	00:17:42:21	6.984	Chondrichthyes	Scyliorhinidae	Parmaturus			Animalia	Carcharhiniformes	Chordata	Parmaturus xaniurus	Elasmobranchii				Vertebrata			Eukaryota	Galeomorphi	V3167-01
 	transect	Rathbunaster californicus	308.9	3167	01:34:07:25	 	36.827343	-122.16771	2389966	1.08	06:53.0	Ventana	34.165	01:35:58:22	6.933		Labidiasteridae	Rathbunaster			Animalia	Forcipulatida	Echinodermata	Rathbunaster californicus	Asteroidea							Eukaryota		V3167-02
 	cruise	Allocentrotus fragilis	319.94	3167	01:05:02:19	 	36.824493	-122.17019	2464411	1.13	37:46.0	Ventana	34.159	01:06:54:15	7.035	Echinoidea	Strongylocentrotidae	Allocentrotus			Animalia	Echinoida	Echinodermata	Allocentrotus fragilis	Euechinoidea			Echinacea				Eukaryota		V3167-02
 	transect	Rathbunaster californicus	313.18	3167	01:18:09:25	 	36.825947	-122.168434	2371067	1.08	50:54.0	Ventana	34.161	01:20:01:27	6.953		Labidiasteridae	Rathbunaster			Animalia	Forcipulatida	Echinodermata	Rathbunaster californicus	Asteroidea							Eukaryota		V3167-02
 	transect	Allocentrotus fragilis	306.89	3167	01:26:30:09	 	36.827053	-122.16876	2372970	1.17	59:14.0	Ventana	34.157	01:28:22:11	7.079	Echinoidea	Strongylocentrotidae	Allocentrotus			Animalia	Echinoida	Echinodermata	Allocentrotus fragilis	Euechinoidea			Echinacea				Eukaryota		V3167-02
 	cruise	Parastichopus leukothele	288.99	3167	02:01:07:09	 	36.832664	-122.16476	2467712	1.13	34:19.0	Ventana	34.159	02:02:50:05	7.038	Holothuroidea	Stichopodidae	Parastichopus			Animalia	Aspidochirotida	Echinodermata	Parastichopus leukothele	Aspidochirotacea							Eukaryota		V3167-03
 	transect	Phyllospadix	169.86	3167	02:34:25:22	 	36.83731	-122.15905	2467359	2.7	07:39.0	Ventana	33.937	02:36:08:05	9.374		Zosteraceae	Phyllospadix			Plantae	Najadales										Eukaryota		V3167-03
 	transect	Allocentrotus fragilis	305.1	3167	01:27:28:08	 	36.82734	-122.16861	2388522	1.11	00:13.0	Ventana	34.162	01:29:19:25	6.992	Echinoidea	Strongylocentrotidae	Allocentrotus			Animalia	Echinoida	Echinodermata	Allocentrotus fragilis	Euechinoidea			Echinacea				Eukaryota		V3167-02
 	transect	Sebastes	308.62	3167	01:34:13:25	http://search.mbari.org/ARCHIVE/frameGrabs/Ventana/images/3167/01_36_06_06.jpg	36.827305	-122.167725	2389996	1.08	06:59.0	Ventana	34.165	01:36:06:06	6.933	Osteichthyes	Scorpaenidae	Sebastes	Neopterygii		Animalia	Scorpaeniformes	Chordata		Actinopterygii			Scorpaenoidei	Vertebrata	Gnathostomata		Eukaryota	Acanthopterygii	V3167-02
 	cruise	cable	142.82	3167	02:45:26:02	http://search.mbari.org/ARCHIVE/frameGrabs/Ventana/images/3167/02_47_08_06.jpg	36.837845	-122.15564	20024050	2.94	18:41.0	Ventana	33.863	02:47:08:06	9.64																			V3167-03
 	transect	Stomphia	322.84	3167	00:49:22:03	 	36.824505	-122.17074	2463260	1.18	21:43.0	Ventana	34.154	00:51:18:02	7.111	Anthozoa	Actinostolidae	Stomphia			Animalia	Actiniaria	Cnidaria		Hexacorallia			Nyantheae				Eukaryota		V3167-01
 	transect	Parastichopus leukothele	308.32	3167	01:33:13:26	 	36.827663	-122.167656	2389673	1.08	05:58.0	Ventana	34.166	01:35:05:19	6.926	Holothuroidea	Stichopodidae	Parastichopus			Animalia	Aspidochirotida	Echinodermata	Parastichopus leukothele	Aspidochirotacea							Eukaryota		V3167-02
 	transect	Sebastes	306.83	3167	01:26:36:09	 	36.827076	-122.16875	2373000	1.17	59:20.0	Ventana	34.157	01:28:28:07	7.079	Osteichthyes	Scorpaenidae	Sebastes	Neopterygii		Animalia	Scorpaeniformes	Chordata		Actinopterygii			Scorpaenoidei	Vertebrata	Gnathostomata		Eukaryota	Acanthopterygii	V3167-02
 	cruise	Parastichopus leukothele	342.99	3167	00:03:10:28	 	36.820183	-122.1714	2459560	1.1	35:29.0	Ventana	34.163	00:05:07:11	6.916	Holothuroidea	Stichopodidae	Parastichopus			Animalia	Aspidochirotida	Echinodermata	Parastichopus leukothele	Aspidochirotacea							Eukaryota		V3167-01
 	transect	Allocentrotus fragilis	303.48	3167	01:29:08:19	 	36.827793	-122.16835	2388921	1.12	01:53.0	Ventana	34.159	01:31:01:09	7.03	Echinoidea	Strongylocentrotidae	Allocentrotus			Animalia	Echinoida	Echinodermata	Allocentrotus fragilis	Euechinoidea			Echinacea				Eukaryota		V3167-02
 	cruise	Ceriantharia sp. 3	309.5	3167	01:36:00:07	 	36.826794	-122.16817	2390748	1.09	08:45.0	Ventana	34.165	01:37:51:25	6.939	Anthozoa					Animalia	Ceriantharia	Cnidaria		Ceriantipatharia							Eukaryota		V3167-02
 	transect	Parastichopus leukothele	314.43	3167	01:23:25:15	 	36.826084	-122.1693	2371879	1.07	56:09.0	Ventana	34.166	01:25:16:08	6.924	Holothuroidea	Stichopodidae	Parastichopus			Animalia	Aspidochirotida	Echinodermata	Parastichopus leukothele	Aspidochirotacea							Eukaryota		V3167-02
 	cruise	Parmaturus xaniurus	322.48	3167	00:47:19:06	 	36.824783	-122.17081	2463230	1.19	19:40.0	Ventana	34.154	00:49:15:11	7.121	Chondrichthyes	Scyliorhinidae	Parmaturus			Animalia	Carcharhiniformes	Chordata	Parmaturus xaniurus	Elasmobranchii				Vertebrata			Eukaryota	Galeomorphi	V3167-01
 	cruise	Allocentrotus fragilis	204.23	3167	02:16:31:11	http://search.mbari.org/ARCHIVE/frameGrabs/Ventana/images/3167/02_18_14_24.jpg	36.835987	-122.16021	2466930	1.88	49:44.0	Ventana	34.077	02:18:14:24	8.287	Echinoidea	Strongylocentrotidae	Allocentrotus			Animalia	Echinoida	Echinodermata	Allocentrotus fragilis	Euechinoidea			Echinacea				Eukaryota		V3167-03
 	transect	Allocentrotus fragilis	305.09	3167	01:27:32:07	 	36.827362	-122.168594	2388552	1.11	00:17.0	Ventana	34.162	01:29:22:20	6.992	Echinoidea	Strongylocentrotidae	Allocentrotus			Animalia	Echinoida	Echinodermata	Allocentrotus fragilis	Euechinoidea			Echinacea				Eukaryota		V3167-02
 	transect	Phyllospadix	158.09	3167	02:27:13:21	 	36.837128	-122.15787	2467283	2.73	00:27.0	Ventana	33.923	02:28:56:11	9.402		Zosteraceae	Phyllospadix			Plantae	Najadales										Eukaryota		V3167-03
 	transect	Rathbunaster californicus	314.73	3167	01:23:01:01	 	36.82594	-122.16936	2371789	1.07	55:45.0	Ventana	34.165	01:24:53:06	6.926		Labidiasteridae	Rathbunaster			Animalia	Forcipulatida	Echinodermata	Rathbunaster californicus	Asteroidea							Eukaryota		V3167-02
 	transect	Rathbunaster californicus	309.07	3167	01:34:19:25	 	36.827267	-122.16774	2390026	1.08	07:05.0	Ventana	34.165	01:36:12:00	6.933		Labidiasteridae	Rathbunaster			Animalia	Forcipulatida	Echinodermata	Rathbunaster californicus	Asteroidea							Eukaryota		V3167-02
 	transect	Rathbunaster californicus	308.74	3167	01:34:03:25	 	36.82737	-122.1677	2389936	1.08	06:49.0	Ventana	34.165	01:35:55:17	6.927		Labidiasteridae	Rathbunaster			Animalia	Forcipulatida	Echinodermata	Rathbunaster californicus	Asteroidea							Eukaryota		V3167-02
 	transect	Allocentrotus fragilis	318.46	3167	00:36:10:27	 	36.82488	-122.16974	2462967	1.15	08:31.0	Ventana	34.157	00:38:06:21	7.051	Echinoidea	Strongylocentrotidae	Allocentrotus			Animalia	Echinoida	Echinodermata	Allocentrotus fragilis	Euechinoidea			Echinacea				Eukaryota		V3167-01
 	transect	Rathbunaster californicus	319.47	3167	00:38:03:09	http://search.mbari.org/ARCHIVE/frameGrabs/Ventana/images/3167/00_39_59_13.jpg	36.824917	-122.17014	2463027	1.15	10:24.0	Ventana	34.155	00:39:59:13	7.058		Labidiasteridae	Rathbunaster			Animalia	Forcipulatida	Echinodermata	Rathbunaster californicus	Asteroidea							Eukaryota		V3167-01
 	cruise	Parastichopus leukothele	318.17	3167	01:06:57:15	 	36.82517	-122.16985	2464501	1.13	39:40.0	Ventana	34.16	01:08:48:10	7.018	Holothuroidea	Stichopodidae	Parastichopus			Animalia	Aspidochirotida	Echinodermata	Parastichopus leukothele	Aspidochirotacea							Eukaryota		V3167-02
 	transect	Rathbunaster californicus	308.76	3167	01:33:23:27	 	36.82762	-122.167656	2389703	1.08	06:08.0	Ventana	34.166	01:35:15:24	6.925		Labidiasteridae	Rathbunaster			Animalia	Forcipulatida	Echinodermata	Rathbunaster californicus	Asteroidea							Eukaryota		V3167-02
 	transect	Allocentrotus fragilis	321.79	3167	00:45:51:09	 	36.82485	-122.17054	2463200	1.14	18:12.0	Ventana	34.158	00:47:47:13	7.038	Echinoidea	Strongylocentrotidae	Allocentrotus			Animalia	Echinoida	Echinodermata	Allocentrotus fragilis	Euechinoidea			Echinacea				Eukaryota		V3167-01
 	transect	Allocentrotus fragilis	303.07	3167	01:29:24:19	 	36.827854	-122.168304	2388981	1.14	02:09.0	Ventana	34.159	01:31:17:05	7.042	Echinoidea	Strongylocentrotidae	Allocentrotus			Animalia	Echinoida	Echinodermata	Allocentrotus fragilis	Euechinoidea			Echinacea				Eukaryota		V3167-02
 	transect	Allocentrotus fragilis	308.83	3167	01:33:57:25	 	36.827408	-122.167694	2389906	1.08	06:43.0	Ventana	34.165	01:35:49:16	6.927	Echinoidea	Strongylocentrotidae	Allocentrotus			Animalia	Echinoida	Echinodermata	Allocentrotus fragilis	Euechinoidea			Echinacea				Eukaryota		V3167-02
 	cruise	physical object	306.94	3167	01:26:24:09	http://search.mbari.org/ARCHIVE/frameGrabs/Ventana/images/3167/01_28_15_03.jpg	36.82701	-122.168785	20023990	1.17	59:08.0	Ventana	34.157	01:28:15:03	7.079																			V3167-02
 	transect	Allocentrotus fragilis	305.2	3167	01:27:40:07	 	36.827404	-122.16857	2388582	1.12	00:25.0	Ventana	34.159	01:29:32:04	7.026	Echinoidea	Strongylocentrotidae	Allocentrotus			Animalia	Echinoida	Echinodermata	Allocentrotus fragilis	Euechinoidea			Echinacea				Eukaryota		V3167-02
 	transect	Rathbunaster californicus	309.28	3167	01:34:30:09	 	36.827206	-122.16777	2390056	1.08	07:15.0	Ventana	34.165	01:36:21:21	6.927		Labidiasteridae	Rathbunaster			Animalia	Forcipulatida	Echinodermata	Rathbunaster californicus	Asteroidea							Eukaryota		V3167-02
 	transect	Sebastes	305.36	3167	01:27:18:07	http://search.mbari.org/ARCHIVE/frameGrabs/Ventana/images/3167/01_29_09_12.jpg	36.82729	-122.16863	2388432	1.1	00:03.0	Ventana	34.163	01:29:09:12	6.962	Osteichthyes	Scorpaenidae	Sebastes	Neopterygii		Animalia	Scorpaeniformes	Chordata		Actinopterygii			Scorpaenoidei	Vertebrata	Gnathostomata		Eukaryota	Acanthopterygii	V3167-02
 	cruise	Glyptocephalus zachirus	152.73	3167	02:42:31:23	 	36.837406	-122.15704	2467449	2.91	15:46.0	Ventana	33.875	02:44:15:07	9.593	Osteichthyes	Pleuronectidae	Glyptocephalus	Neopterygii		Animalia	Pleuronectiformes	Chordata		Actinopterygii				Vertebrata	Gnathostomata		Eukaryota	Acanthopterygii	V3167-03
 	transect	Allocentrotus fragilis	305.76	3167	01:27:12:08	 	36.827255	-122.16865	2388402	1.1	59:57.0	Ventana	34.163	01:29:03:25	6.962	Echinoidea	Strongylocentrotidae	Allocentrotus			Animalia	Echinoida	Echinodermata	Allocentrotus fragilis	Euechinoidea			Echinacea				Eukaryota		V3167-02
 	transect	Mediaster aequalis	309.22	3167	01:34:36:09	 	36.827168	-122.167786	2390086	1.08	07:21.0	Ventana	34.165	01:36:26:19	6.927		Goniasteridae	Mediaster			Animalia	Valvatida	Echinodermata	Mediaster aequalis	Asteroidea			Granulosina				Eukaryota		V3167-02
 	cruise	Allocentrotus fragilis	207.88	3167	02:15:48:27	http://search.mbari.org/ARCHIVE/frameGrabs/Ventana/images/3167/02_17_30_24.jpg	36.83586	-122.1604	2466900	1.83	49:02.0	Ventana	34.08	02:17:30:24	8.247	Echinoidea	Strongylocentrotidae	Allocentrotus			Animalia	Echinoida	Echinodermata	Allocentrotus fragilis	Euechinoidea			Echinacea				Eukaryota		V3167-03
 	transect	Corallimorphus pilatus	304.79	3167	01:28:24:20	 	36.827618	-122.16845	2388755	1.1	01:09.0	Ventana	34.162	01:30:15:04	6.963	Anthozoa	Corallimorphidae	Corallimorphus			Animalia	Corallimorpharia	Cnidaria	Corallimorphus pilatus	Hexacorallia							Eukaryota		V3167-02
 	transect	Florometra serratissima	319.05	3167	00:25:22:02	http://search.mbari.org/ARCHIVE/frameGrabs/Ventana/images/3167/00_27_18_09.jpg	36.824444	-122.169556	2462478	1.13	57:42.0	Ventana	34.159	00:27:18:09	7.011	Crinoidea	Antedonidae	Florometra			Animalia	Comatulidina	Echinodermata	Florometra serratissima							Antedonacea	Eukaryota		V3167-01
 	transect	Sebastes	309.57	3167	01:35:12:08	 	36.826946	-122.167915	2390229	1.08	07:57.0	Ventana	34.163	01:37:03:18	6.95	Osteichthyes	Scorpaenidae	Sebastes	Neopterygii		Animalia	Scorpaeniformes	Chordata		Actinopterygii			Scorpaenoidei	Vertebrata	Gnathostomata		Eukaryota	Acanthopterygii	V3167-02
 	transect	Allocentrotus fragilis	305.08	3167	01:27:52:22	 	36.827465	-122.16854	2388612	1.12	00:37.0	Ventana	34.159	01:29:44:02	7.026	Echinoidea	Strongylocentrotidae	Allocentrotus			Animalia	Echinoida	Echinodermata	Allocentrotus fragilis	Euechinoidea			Echinacea				Eukaryota		V3167-02
 	cruise	physical object	116.81	3167	03:06:07:08	http://search.mbari.org/ARCHIVE/frameGrabs/Ventana/images/3167/03_07_48_08.jpg	36.84126	-122.14704	2468344	3.59	39:45.0	Ventana	33.718	03:07:48:08	10.45																			V3167-04
 	transect	Rathbunaster californicus	318.6	3167	00:37:24:25	 	36.8249	-122.170006	2462997	1.16	09:45.0	Ventana	34.156	00:39:20:25	7.077		Labidiasteridae	Rathbunaster			Animalia	Forcipulatida	Echinodermata	Rathbunaster californicus	Asteroidea							Eukaryota		V3167-01
 	transect	Rathbunaster californicus	322.79	3167	00:59:09:15	 	36.823936	-122.17022	2464275	1.14	31:52.0	Ventana	34.157	01:01:01:15	7.047		Labidiasteridae	Rathbunaster			Animalia	Forcipulatida	Echinodermata	Rathbunaster californicus	Asteroidea							Eukaryota		V3167-02
 	transect	Rathbunaster californicus	311.81	3167	01:24:03:13	 	36.826313	-122.16919	2372022	1.07	56:48.0	Ventana	34.165	01:25:54:21	6.925		Labidiasteridae	Rathbunaster			Animalia	Forcipulatida	Echinodermata	Rathbunaster californicus	Asteroidea							Eukaryota		V3167-02
 	cruise	Sebastes	280.16	3167	02:03:38:04	 	36.833275	-122.16408	2466501	1.16	36:50.0	Ventana	34.157	02:05:21:14	7.075	Osteichthyes	Scorpaenidae	Sebastes	Neopterygii		Animalia	Scorpaeniformes	Chordata		Actinopterygii			Scorpaenoidei	Vertebrata	Gnathostomata		Eukaryota	Acanthopterygii	V3167-03
 	transect	Rathbunaster californicus	309.6	3167	01:35:20:08	 	36.82691	-122.167946	2390259	1.08	08:05.0	Ventana	34.163	01:37:12:07	6.95		Labidiasteridae	Rathbunaster			Animalia	Forcipulatida	Echinodermata	Rathbunaster californicus	Asteroidea							Eukaryota		V3167-02
 	cruise	Sebastes diploproa	309.91	3167	01:12:10:21	 	36.826637	-122.16908	2464674	1.1	44:54.0	Ventana	34.164	01:14:01:28	6.964	Osteichthyes	Scorpaenidae	Sebastes	Neopterygii		Animalia	Scorpaeniformes	Chordata	Sebastes diploproa	Actinopterygii			Scorpaenoidei	Vertebrata	Gnathostomata		Eukaryota	Acanthopterygii	V3167-02
 	transect	Phyllospadix	171.53	3167	02:22:40:14	 	36.83686	-122.158646	2467050	2.42	55:54.0	Ventana	33.973	02:24:24:14	9.033		Zosteraceae	Phyllospadix			Plantae	Najadales										Eukaryota		V3167-03
 	transect	Allocentrotus fragilis	309.5	3167	01:25:07:26	 	36.826668	-122.16899	2372744	1.09	57:52.0	Ventana	34.165	01:26:58:23	6.968	Echinoidea	Strongylocentrotidae	Allocentrotus			Animalia	Echinoida	Echinodermata	Allocentrotus fragilis	Euechinoidea			Echinacea				Eukaryota		V3167-02
 	transect	Allocentrotus fragilis	309.35	3167	01:25:25:26	 	36.826756	-122.16894	2372767	1.11	58:10.0	Ventana	34.161	01:27:17:14	6.98	Echinoidea	Strongylocentrotidae	Allocentrotus			Animalia	Echinoida	Echinodermata	Allocentrotus fragilis	Euechinoidea			Echinacea				Eukaryota		V3167-02
 	transect	Allocentrotus fragilis	322.76	3167	00:57:49:02	 	36.8241	-122.170395	2464215	1.16	30:32.0	Ventana	34.155	00:59:39:26	7.087	Echinoidea	Strongylocentrotidae	Allocentrotus			Animalia	Echinoida	Echinodermata	Allocentrotus fragilis	Euechinoidea			Echinacea				Eukaryota		V3167-02
 	transect	Allocentrotus fragilis	313.02	3167	01:17:35:26	 	36.826122	-122.168236	2370894	1.07	50:20.0	Ventana	34.166	01:19:27:20	6.912	Echinoidea	Strongylocentrotidae	Allocentrotus			Animalia	Echinoida	Echinodermata	Allocentrotus fragilis	Euechinoidea			Echinacea				Eukaryota		V3167-02
 	transect	Parastichopus leukothele	308.95	3167	01:33:43:26	 	36.827496	-122.16767	2389793	1.07	06:29.0	Ventana	34.166	01:35:35:11	6.926	Holothuroidea	Stichopodidae	Parastichopus			Animalia	Aspidochirotida	Echinodermata	Parastichopus leukothele	Aspidochirotacea							Eukaryota		V3167-02
 	transect	Allocentrotus fragilis	319.55	3167	00:19:04:13	 	36.824368	-122.16978	2462365	1.14	51:24.0	Ventana	34.159	00:20:59:14	7.025	Echinoidea	Strongylocentrotidae	Allocentrotus			Animalia	Echinoida	Echinodermata	Allocentrotus fragilis	Euechinoidea			Echinacea				Eukaryota		V3167-01
 	transect	Allocentrotus fragilis	316.03	3167	01:22:27:02	 	36.825745	-122.16945	2371669	1.08	55:11.0	Ventana	34.164	01:24:18:07	6.938	Echinoidea	Strongylocentrotidae	Allocentrotus			Animalia	Echinoida	Echinodermata	Allocentrotus fragilis	Euechinoidea			Echinacea				Eukaryota		V3167-02
 	transect	Sebastes diploproa	316.38	3167	01:22:11:02	 	36.82566	-122.16948	2371616	1.09	54:55.0	Ventana	34.163	01:24:01:15	6.958	Osteichthyes	Scorpaenidae	Sebastes	Neopterygii		Animalia	Scorpaeniformes	Chordata	Sebastes diploproa	Actinopterygii			Scorpaenoidei	Vertebrata	Gnathostomata		Eukaryota	Acanthopterygii	V3167-02
 	transect	Allocentrotus fragilis	315.05	3167	01:19:16:08	 	36.825607	-122.168785	2371270	1.09	52:00.0	Ventana	34.161	01:21:06:22	6.971	Echinoidea	Strongylocentrotidae	Allocentrotus			Animalia	Echinoida	Echinodermata	Allocentrotus fragilis	Euechinoidea			Echinacea				Eukaryota		V3167-02
 	transect	Rathbunaster californicus	308.98	3167	01:34:54:08	 	36.82705	-122.16784	2390139	1.08	07:39.0	Ventana	34.164	01:36:45:20	6.94		Labidiasteridae	Rathbunaster			Animalia	Forcipulatida	Echinodermata	Rathbunaster californicus	Asteroidea							Eukaryota		V3167-02
 	cruise	Sebastes	339.88	3167	00:04:49:09	 	36.820724	-122.17123	2462019	1.1	37:07.0	Ventana	34.161	00:06:45:05	6.936	Osteichthyes	Scorpaenidae	Sebastes	Neopterygii		Animalia	Scorpaeniformes	Chordata		Actinopterygii			Scorpaenoidei	Vertebrata	Gnathostomata		Eukaryota	Acanthopterygii	V3167-01
 	transect	Rathbunaster californicus	312.35	3167	01:16:55:27	 	36.826324	-122.16816	2370571	1.07	49:39.0	Ventana	34.166	01:18:46:25	6.915		Labidiasteridae	Rathbunaster			Animalia	Forcipulatida	Echinodermata	Rathbunaster californicus	Asteroidea							Eukaryota		V3167-02
 	transect	Allocentrotus fragilis	313.13	3167	01:17:47:25	 	36.82606	-122.1683	2370947	1.07	50:32.0	Ventana	34.166	01:19:39:25	6.913	Echinoidea	Strongylocentrotidae	Allocentrotus			Animalia	Echinoida	Echinodermata	Allocentrotus fragilis	Euechinoidea			Echinacea				Eukaryota		V3167-02
 	transect	Allocentrotus fragilis	311.93	3167	01:23:55:14	 	36.826267	-122.16921	2371992	1.07	56:40.0	Ventana	34.165	01:25:46:25	6.925	Echinoidea	Strongylocentrotidae	Allocentrotus			Animalia	Echinoida	Echinodermata	Allocentrotus fragilis	Euechinoidea			Echinacea				Eukaryota		V3167-02
 	cruise	Metridium farcimen	98.5	3167	04:19:36:15	 	36.852913	-122.118645	2471961	5.02	53:40.0	Ventana	33.484	04:21:11:06	11.283	Anthozoa	Metridiidae	Metridium			Animalia	Actiniaria	Cnidaria	Metridium farcimen	Hexacorallia			Nyantheae				Eukaryota		V3167-05
 	transect	Rathbunaster californicus	320	3167	00:18:40:14	 	36.82434	-122.16986	2462335	1.12	51:00.0	Ventana	34.162	00:20:36:28	6.992		Labidiasteridae	Rathbunaster			Animalia	Forcipulatida	Echinodermata	Rathbunaster californicus	Asteroidea							Eukaryota		V3167-01
 	transect	Rathbunaster californicus	312.25	3167	01:23:51:14	 	36.826244	-122.16923	2371962	1.08	56:36.0	Ventana	34.165	01:25:42:08	6.929		Labidiasteridae	Rathbunaster			Animalia	Forcipulatida	Echinodermata	Rathbunaster californicus	Asteroidea							Eukaryota		V3167-02
 	transect	Allocentrotus fragilis	305.86	3167	01:27:04:08	 	36.827217	-122.16867	2388349	1.1	59:49.0	Ventana	34.164	01:28:55:20	6.964	Echinoidea	Strongylocentrotidae	Allocentrotus			Animalia	Echinoida	Echinodermata	Allocentrotus fragilis	Euechinoidea			Echinacea				Eukaryota		V3167-02
 	transect	Rathbunaster californicus	321.8	3167	00:45:16:25	 	36.8248	-122.1704	2463147	1.12	17:38.0	Ventana	34.16	00:47:12:26	7.01		Labidiasteridae	Rathbunaster			Animalia	Forcipulatida	Echinodermata	Rathbunaster californicus	Asteroidea							Eukaryota		V3167-01
 	transect	Rathbunaster californicus	315.77	3167	01:22:37:01	 	36.8258	-122.16942	2371699	1.08	55:21.0	Ventana	34.164	01:24:29:02	6.938		Labidiasteridae	Rathbunaster			Animalia	Forcipulatida	Echinodermata	Rathbunaster californicus	Asteroidea							Eukaryota		V3167-02
 	transect	Allocentrotus fragilis	303.09	3167	01:29:34:18	 	36.827892	-122.16828	2389011	1.14	02:19.0	Ventana	34.159	01:31:26:13	7.042	Echinoidea	Strongylocentrotidae	Allocentrotus			Animalia	Echinoida	Echinodermata	Allocentrotus fragilis	Euechinoidea			Echinacea				Eukaryota		V3167-02
 	transect	Allocentrotus fragilis	308.92	3167	01:33:45:26	 	36.827484	-122.16767	2389823	1.07	06:31.0	Ventana	34.166	01:35:38:01	6.926	Echinoidea	Strongylocentrotidae	Allocentrotus			Animalia	Echinoida	Echinodermata	Allocentrotus fragilis	Euechinoidea			Echinacea				Eukaryota		V3167-02
 	transect	Rathbunaster californicus	309.24	3167	01:34:44:09	 	36.82711	-122.16781	2390109	1.08	07:29.0	Ventana	34.165	01:36:35:11	6.933		Labidiasteridae	Rathbunaster			Animalia	Forcipulatida	Echinodermata	Rathbunaster californicus	Asteroidea							Eukaryota		V3167-02
 	transect	Rathbunaster californicus	319.36	3167	00:19:20:12	 	36.82438	-122.16973	2462395	1.14	51:40.0	Ventana	34.158	00:21:16:19	7.025		Labidiasteridae	Rathbunaster			Animalia	Forcipulatida	Echinodermata	Rathbunaster californicus	Asteroidea							Eukaryota		V3167-01
 	cruise	Sebastes	311.36	3167	01:11:18:08	 	36.826393	-122.16922	2464621	1.09	44:02.0	Ventana	34.165	01:13:09:03	6.948	Osteichthyes	Scorpaenidae	Sebastes	Neopterygii		Animalia	Scorpaeniformes	Chordata		Actinopterygii			Scorpaenoidei	Vertebrata	Gnathostomata		Eukaryota	Acanthopterygii	V3167-02
 	transect	Rathbunaster californicus	308.75	3167	01:33:33:26	 	36.827557	-122.16766	2389763	1.08	06:19.0	Ventana	34.166	01:35:25:26	6.925		Labidiasteridae	Rathbunaster			Animalia	Forcipulatida	Echinodermata	Rathbunaster californicus	Asteroidea							Eukaryota		V3167-02
 	transect	Rathbunaster californicus	312.96	3167	01:17:55:25	 	36.826023	-122.168335	2370977	1.07	50:40.0	Ventana	34.165	01:19:48:01	6.914		Labidiasteridae	Rathbunaster			Animalia	Forcipulatida	Echinodermata	Rathbunaster californicus	Asteroidea							Eukaryota		V3167-02
 	transect	Sebastes	306.38	3167	01:26:46:09	 	36.82712	-122.168724	2388289	1.12	59:30.0	Ventana	34.164	01:28:37:21	6.991	Osteichthyes	Scorpaenidae	Sebastes	Neopterygii		Animalia	Scorpaeniformes	Chordata		Actinopterygii			Scorpaenoidei	Vertebrata	Gnathostomata		Eukaryota	Acanthopterygii	V3167-02
 	transect	Rathbunaster californicus	314.81	3167	01:19:10:08	 	36.825638	-122.168755	2371240	1.09	51:54.0	Ventana	34.161	01:21:01:27	6.971		Labidiasteridae	Rathbunaster			Animalia	Forcipulatida	Echinodermata	Rathbunaster californicus	Asteroidea							Eukaryota		V3167-02
 	cruise	Parastichopus leukothele	316.41	3167	01:08:21:12	 	36.82563	-122.16957	2464531	1.13	41:05.0	Ventana	34.16	01:10:12:12	7.021	Holothuroidea	Stichopodidae	Parastichopus			Animalia	Aspidochirotida	Echinodermata	Parastichopus leukothele	Aspidochirotacea							Eukaryota		V3167-02
 	cruise	Glyptocephalus zachirus	141.87	3167	02:46:08:16	 	36.837864	-122.15559	2467479	2.87	19:23.0	Ventana	33.873	02:47:50:28	9.593	Osteichthyes	Pleuronectidae	Glyptocephalus	Neopterygii		Animalia	Pleuronectiformes	Chordata		Actinopterygii				Vertebrata	Gnathostomata		Eukaryota	Acanthopterygii	V3167-03
 	transect	Parastichopus leukothele	310.48	3167	01:24:45:27	 	36.826546	-122.16907	2372714	1.08	57:30.0	Ventana	34.165	01:26:36:22	6.934	Holothuroidea	Stichopodidae	Parastichopus			Animalia	Aspidochirotida	Echinodermata	Parastichopus leukothele	Aspidochirotacea							Eukaryota		V3167-02
 	transect	Stomphia	312.54	3167	01:17:03:26	 	36.826283	-122.16816	2370601	1.07	49:47.0	Ventana	34.166	01:18:55:00	6.915	Anthozoa	Actinostolidae	Stomphia			Animalia	Actiniaria	Cnidaria		Hexacorallia			Nyantheae				Eukaryota		V3167-02
 	transect	Phyllospadix	169.65	3167	02:23:22:28	 	36.836895	-122.15853	2467103	2.44	56:36.0	Ventana	33.963	02:25:06:04	9.081		Zosteraceae	Phyllospadix			Plantae	Najadales										Eukaryota		V3167-03
 	transect	Rathbunaster californicus	313.33	3167	01:18:46:08	 	36.82577	-122.16863	2371180	1.11	51:30.0	Ventana	34.161	01:20:38:13	6.99		Labidiasteridae	Rathbunaster			Animalia	Forcipulatida	Echinodermata	Rathbunaster californicus	Asteroidea							Eukaryota		V3167-02
 	transect	Rathbunaster californicus	311.05	3167	01:24:21:13	 	36.826416	-122.169136	2372105	1.08	57:06.0	Ventana	34.164	01:26:12:19	6.927		Labidiasteridae	Rathbunaster			Animalia	Forcipulatida	Echinodermata	Rathbunaster californicus	Asteroidea							Eukaryota		V3167-02
 	transect	Parastichopus leukothele	313.83	3167	01:23:31:15	 	36.826122	-122.16928	2371902	1.07	56:15.0	Ventana	34.166	01:25:22:05	6.924	Holothuroidea	Stichopodidae	Parastichopus			Animalia	Aspidochirotida	Echinodermata	Parastichopus leukothele	Aspidochirotacea							Eukaryota		V3167-02
 	transect	Rathbunaster californicus	315.87	3167	01:19:36:07	 	36.825504	-122.168884	2371353	1.09	52:20.0	Ventana	34.163	01:21:28:24	6.954		Labidiasteridae	Rathbunaster			Animalia	Forcipulatida	Echinodermata	Rathbunaster californicus	Asteroidea							Eukaryota		V3167-02
 	transect	Allocentrotus fragilis	313.66	3167	01:18:54:08	 	36.82573	-122.16868	2371210	1.1	51:38.0	Ventana	34.163	01:20:44:23	6.956	Echinoidea	Strongylocentrotidae	Allocentrotus			Animalia	Echinoida	Echinodermata	Allocentrotus fragilis	Euechinoidea			Echinacea				Eukaryota		V3167-02
 	transect	Parastichopus leukothele	310.65	3167	01:24:35:28	 	36.826492	-122.1691	2372684	1.08	57:20.0	Ventana	34.165	01:26:27:05	6.93	Holothuroidea	Stichopodidae	Parastichopus			Animalia	Aspidochirotida	Echinodermata	Parastichopus leukothele	Aspidochirotacea							Eukaryota		V3167-02
 	transect	Rathbunaster californicus	315.14	3167	01:22:47:01	 	36.82586	-122.169395	2371729	1.08	55:31.0	Ventana	34.166	01:24:38:07	6.927		Labidiasteridae	Rathbunaster			Animalia	Forcipulatida	Echinodermata	Rathbunaster californicus	Asteroidea							Eukaryota		V3167-02
 	transect	Rathbunaster californicus	316.82	3167	01:21:59:02	 	36.825603	-122.1695	2371586	1.09	54:43.0	Ventana	34.164	01:23:51:02	6.958		Labidiasteridae	Rathbunaster			Animalia	Forcipulatida	Echinodermata	Rathbunaster californicus	Asteroidea							Eukaryota		V3167-02
 	transect	Allocentrotus fragilis	313.24	3167	01:17:23:26	 	36.82618	-122.1682	2370804	1.07	50:08.0	Ventana	34.166	01:19:14:17	6.912	Echinoidea	Strongylocentrotidae	Allocentrotus			Animalia	Echinoida	Echinodermata	Allocentrotus fragilis	Euechinoidea			Echinacea				Eukaryota		V3167-02
 	transect	Rathbunaster californicus	308.88	3167	01:32:59:27	 	36.827705	-122.16764	2389620	1.08	05:44.0	Ventana	34.165	01:34:51:16	6.927		Labidiasteridae	Rathbunaster			Animalia	Forcipulatida	Echinodermata	Rathbunaster californicus	Asteroidea							Eukaryota		V3167-02
 	transect	Glyptocephalus zachirus	164.78	3167	02:31:48:27	 	36.837402	-122.15862	2467336	2.7	05:02.0	Ventana	33.931	02:33:31:15	9.392	Osteichthyes	Pleuronectidae	Glyptocephalus	Neopterygii		Animalia	Pleuronectiformes	Chordata		Actinopterygii				Vertebrata	Gnathostomata		Eukaryota	Acanthopterygii	V3167-03
 	transect	Sabellida	319.14	3167	00:26:08:15	 	36.824512	-122.16946	2462538	1.13	58:28.0	Ventana	34.159	00:28:05:04	7.022	Polychaeta					Animalia	Sabellida	Annelida		Palpata							Eukaryota	Canalipalpata	V3167-01
 	transect	Rathbunaster californicus	312.91	3167	01:23:41:14	 	36.826183	-122.16925	2371932	1.08	56:26.0	Ventana	34.165	01:25:33:14	6.929		Labidiasteridae	Rathbunaster			Animalia	Forcipulatida	Echinodermata	Rathbunaster californicus	Asteroidea							Eukaryota		V3167-02
 	transect	Parastichopus leukothele	305.98	3167	01:26:56:08	 	36.827175	-122.16869	2388319	1.1	59:41.0	Ventana	34.164	01:28:47:24	6.964	Holothuroidea	Stichopodidae	Parastichopus			Animalia	Aspidochirotida	Echinodermata	Parastichopus leukothele	Aspidochirotacea							Eukaryota		V3167-02
 	transect	Rathbunaster californicus	309.33	3167	01:35:00:08	 	36.827015	-122.16786	2390169	1.08	07:45.0	Ventana	34.164	01:36:51:11	6.94		Labidiasteridae	Rathbunaster			Animalia	Forcipulatida	Echinodermata	Rathbunaster californicus	Asteroidea							Eukaryota		V3167-02
 	transect	Allocentrotus fragilis	305.86	3167	01:27:04:08	 	36.827217	-122.16867	2388346	1.1	59:49.0	Ventana	34.164	01:28:55:20	6.964	Echinoidea	Strongylocentrotidae	Allocentrotus			Animalia	Echinoida	Echinodermata	Allocentrotus fragilis	Euechinoidea			Echinacea				Eukaryota		V3167-02
 	transect	Rathbunaster californicus	308.83	3167	01:33:27:26	 	36.82759	-122.16766	2389728	1.08	06:13.0	Ventana	34.166	01:35:18:22	6.925		Labidiasteridae	Rathbunaster			Animalia	Forcipulatida	Echinodermata	Rathbunaster californicus	Asteroidea							Eukaryota		V3167-02
 	transect	Rathbunaster californicus	322.96	3167	00:59:19:14	 	36.823925	-122.1702	2464280	1.14	32:02.0	Ventana	34.157	01:01:11:04	7.046		Labidiasteridae	Rathbunaster			Animalia	Forcipulatida	Echinodermata	Rathbunaster californicus	Asteroidea							Eukaryota		V3167-02
 	transect	Rathbunaster californicus	312.35	3167	01:16:55:27	 	36.826324	-122.16816	2370583	1.07	49:39.0	Ventana	34.166	01:18:46:25	6.915		Labidiasteridae	Rathbunaster			Animalia	Forcipulatida	Echinodermata	Rathbunaster californicus	Asteroidea							Eukaryota		V3167-02
 	transect	Allocentrotus fragilis	302.96	3167	01:29:41:03	 	36.82791	-122.16827	2389022	1.11	02:25.0	Ventana	34.163	01:31:32:12	6.985	Echinoidea	Strongylocentrotidae	Allocentrotus			Animalia	Echinoida	Echinodermata	Allocentrotus fragilis	Euechinoidea			Echinacea				Eukaryota		V3167-02
 	cruise	Allocentrotus fragilis	328.96	3167	00:11:16:12	 	36.82271	-122.17061	2462162	1.1	43:35.0	Ventana	34.165	00:13:12:27	6.943	Echinoidea	Strongylocentrotidae	Allocentrotus			Animalia	Echinoida	Echinodermata	Allocentrotus fragilis	Euechinoidea			Echinacea				Eukaryota		V3167-01
 	transect	Rathbunaster californicus	322.47	3167	00:58:37:16	 	36.823986	-122.17029	2464250	1.15	31:20.0	Ventana	34.157	01:00:29:23	7.051		Labidiasteridae	Rathbunaster			Animalia	Forcipulatida	Echinodermata	Rathbunaster californicus	Asteroidea							Eukaryota		V3167-02
 	cruise	Ceriantharia sp. 3	325.29	3167	00:13:57:07	 	36.823566	-122.17042	2462192	1.12	46:16.0	Ventana	34.158	00:15:52:23	6.985	Anthozoa					Animalia	Ceriantharia	Cnidaria		Ceriantipatharia							Eukaryota		V3167-01
 	transect	Sebastes diploproa	321.57	3167	00:46:13:08	 	36.82488	-122.17062	2463221	1.13	18:34.0	Ventana	34.162	00:48:09:17	7.03	Osteichthyes	Scorpaenidae	Sebastes	Neopterygii		Animalia	Scorpaeniformes	Chordata	Sebastes diploproa	Actinopterygii			Scorpaenoidei	Vertebrata	Gnathostomata		Eukaryota	Acanthopterygii	V3167-01
 	transect	Allocentrotus fragilis	306.09	3167	01:26:52:08	 	36.827156	-122.16871	2388316	1.12	59:37.0	Ventana	34.164	01:28:44:04	6.991	Echinoidea	Strongylocentrotidae	Allocentrotus			Animalia	Echinoida	Echinodermata	Allocentrotus fragilis	Euechinoidea			Echinacea				Eukaryota		V3167-02
 	transect	Allocentrotus fragilis	312.35	3167	01:16:55:27	 	36.826324	-122.16816	2370553	1.07	49:39.0	Ventana	34.166	01:18:46:25	6.915	Echinoidea	Strongylocentrotidae	Allocentrotus			Animalia	Echinoida	Echinodermata	Allocentrotus fragilis	Euechinoidea			Echinacea				Eukaryota		V3167-02
 	cruise	Raja rhina	305.18	3167	01:39:41:15	 	36.827404	-122.16855	2390817	1.08	12:26.0	Ventana	34.165	01:41:31:24	6.941	Chondrichthyes	Rajidae	Raja			Animalia	Rajiformes	Chordata	Raja rhina	Elasmobranchii				Vertebrata			Eukaryota	Batoidea	V3167-02
 	transect	Rathbunaster californicus	312.94	3167	01:17:53:25	 	36.826035	-122.16833	2370966	1.07	50:38.0	Ventana	34.165	01:19:45:06	6.914		Labidiasteridae	Rathbunaster			Animalia	Forcipulatida	Echinodermata	Rathbunaster californicus	Asteroidea							Eukaryota		V3167-02
 	transect	Allocentrotus fragilis	319.08	3167	00:25:26:01	 	36.824448	-122.16955	2462485	1.13	57:46.0	Ventana	34.159	00:27:22:04	7.011	Echinoidea	Strongylocentrotidae	Allocentrotus			Animalia	Echinoida	Echinodermata	Allocentrotus fragilis	Euechinoidea			Echinacea				Eukaryota		V3167-01
 	transect	Stomphia	314.41	3167	01:19:02:08	 	36.825684	-122.16872	2371229	1.1	51:46.0	Ventana	34.163	01:20:53:04	6.956	Anthozoa	Actinostolidae	Stomphia			Animalia	Actiniaria	Cnidaria		Hexacorallia			Nyantheae				Eukaryota		V3167-02
 	transect	Rathbunaster californicus	316.03	3167	01:22:27:02	 	36.825745	-122.16945	2371672	1.08	55:11.0	Ventana	34.164	01:24:18:07	6.938		Labidiasteridae	Rathbunaster			Animalia	Forcipulatida	Echinodermata	Rathbunaster californicus	Asteroidea							Eukaryota		V3167-02
 	transect	Allocentrotus fragilis	321.75	3167	00:45:44:24	 	36.824837	-122.17051	2463191	1.12	18:06.0	Ventana	34.16	00:47:41:16	7.02	Echinoidea	Strongylocentrotidae	Allocentrotus			Animalia	Echinoida	Echinodermata	Allocentrotus fragilis	Euechinoidea			Echinacea				Eukaryota		V3167-01
 	transect	Allocentrotus fragilis	311.62	3167	01:16:39:12	 	36.8264	-122.168175	2370523	1.07	49:23.0	Ventana	34.165	01:18:31:12	6.917	Echinoidea	Strongylocentrotidae	Allocentrotus			Animalia	Echinoida	Echinodermata	Allocentrotus fragilis	Euechinoidea			Echinacea				Eukaryota		V3167-02
 	transect	Hippasteria	310.76	3167	01:24:29:13	 	36.82646	-122.16911	2372671	1.08	57:14.0	Ventana	34.165	01:26:21:23	6.93		Goniasteridae	Hippasteria			Animalia	Valvatida	Echinodermata		Asteroidea			Granulosina				Eukaryota		V3167-02
 	transect	Rathbunaster californicus	309.22	3167	01:34:36:09	 	36.827168	-122.167786	2390081	1.08	07:21.0	Ventana	34.165	01:36:26:19	6.927		Labidiasteridae	Rathbunaster			Animalia	Forcipulatida	Echinodermata	Rathbunaster californicus	Asteroidea							Eukaryota		V3167-02
 	transect	Allocentrotus fragilis	315.77	3167	01:22:37:01	 	36.8258	-122.16942	2371702	1.08	55:21.0	Ventana	34.164	01:24:29:02	6.938	Echinoidea	Strongylocentrotidae	Allocentrotus			Animalia	Echinoida	Echinodermata	Allocentrotus fragilis	Euechinoidea			Echinacea				Eukaryota		V3167-02
 	transect	Sebastes diploproa	318.55	3167	00:35:46:13	 	36.82488	-122.16965	2462958	1.13	08:07.0	Ventana	34.16	00:37:43:13	7.019	Osteichthyes	Scorpaenidae	Sebastes	Neopterygii		Animalia	Scorpaeniformes	Chordata	Sebastes diploproa	Actinopterygii			Scorpaenoidei	Vertebrata	Gnathostomata		Eukaryota	Acanthopterygii	V3167-01
 	transect	Stomphia	313.56	3167	01:23:33:14	 	36.826138	-122.16927	2371905	1.07	56:18.0	Ventana	34.166	01:25:24:26	6.924	Anthozoa	Actinostolidae	Stomphia			Animalia	Actiniaria	Cnidaria		Hexacorallia			Nyantheae				Eukaryota		V3167-02
 	transect	Rathbunaster californicus	311.4	3167	01:24:11:13	 	36.82636	-122.16917	2372055	1.08	56:56.0	Ventana	34.164	01:26:03:00	6.927		Labidiasteridae	Rathbunaster			Animalia	Forcipulatida	Echinodermata	Rathbunaster californicus	Asteroidea							Eukaryota		V3167-02
 	transect	Allocentrotus fragilis	306.89	3167	01:26:30:09	 	36.827053	-122.16876	2372964	1.17	59:14.0	Ventana	34.157	01:28:22:11	7.079	Echinoidea	Strongylocentrotidae	Allocentrotus			Animalia	Echinoida	Echinodermata	Allocentrotus fragilis	Euechinoidea			Echinacea				Eukaryota		V3167-02
 	transect	Rathbunaster californicus	313.01	3167	01:17:59:25	 	36.826008	-122.16836	2370996	1.07	50:44.0	Ventana	34.165	01:19:51:27	6.914		Labidiasteridae	Rathbunaster			Animalia	Forcipulatida	Echinodermata	Rathbunaster californicus	Asteroidea							Eukaryota		V3167-02
 	transect	Rathbunaster californicus	310.28	3167	01:15:49:14	 	36.826626	-122.16825	2370463	1.07	48:33.0	Ventana	34.166	01:17:40:29	6.923		Labidiasteridae	Rathbunaster			Animalia	Forcipulatida	Echinodermata	Rathbunaster californicus	Asteroidea							Eukaryota		V3167-02
 	transect	Sebastes diploproa	315.82	3167	01:19:34:07	 	36.825512	-122.16888	2371349	1.09	52:18.0	Ventana	34.163	01:21:26:05	6.954	Osteichthyes	Scorpaenidae	Sebastes	Neopterygii		Animalia	Scorpaeniformes	Chordata	Sebastes diploproa	Actinopterygii			Scorpaenoidei	Vertebrata	Gnathostomata		Eukaryota	Acanthopterygii	V3167-02
 	transect	Rathbunaster californicus	308.85	3167	01:33:39:26	 	36.827522	-122.16767	2389788	1.07	06:25.0	Ventana	34.166	01:35:31:28	6.926		Labidiasteridae	Rathbunaster			Animalia	Forcipulatida	Echinodermata	Rathbunaster californicus	Asteroidea							Eukaryota		V3167-02
 	transect	Allocentrotus fragilis	308.72	3167	01:25:37:25	 	36.826813	-122.1689	2372791	1.11	58:22.0	Ventana	34.161	01:27:29:08	6.98	Echinoidea	Strongylocentrotidae	Allocentrotus			Animalia	Echinoida	Echinodermata	Allocentrotus fragilis	Euechinoidea			Echinacea				Eukaryota		V3167-02
 	transect	Sebastes	308.9	3167	01:34:07:25	 	36.827343	-122.16771	2389961	1.08	06:53.0	Ventana	34.165	01:35:58:22	6.933	Osteichthyes	Scorpaenidae	Sebastes	Neopterygii		Animalia	Scorpaeniformes	Chordata		Actinopterygii			Scorpaenoidei	Vertebrata	Gnathostomata		Eukaryota	Acanthopterygii	V3167-02
 	transect	Rathbunaster californicus	308.79	3167	01:32:55:12	 	36.827724	-122.16764	2389608	1.08	05:40.0	Ventana	34.165	01:34:48:01	6.927		Labidiasteridae	Rathbunaster			Animalia	Forcipulatida	Echinodermata	Rathbunaster californicus	Asteroidea							Eukaryota		V3167-02
 	transect	Rathbunaster californicus	322.69	3167	00:57:57:02	 	36.82408	-122.17038	2464220	1.15	30:40.0	Ventana	34.157	00:59:48:16	7.058		Labidiasteridae	Rathbunaster			Animalia	Forcipulatida	Echinodermata	Rathbunaster californicus	Asteroidea							Eukaryota		V3167-02
 	transect	Rathbunaster californicus	309.24	3167	01:34:44:09	 	36.82711	-122.16781	2390111	1.08	07:29.0	Ventana	34.165	01:36:35:11	6.933		Labidiasteridae	Rathbunaster			Animalia	Forcipulatida	Echinodermata	Rathbunaster californicus	Asteroidea							Eukaryota		V3167-02
 	transect	Rathbunaster californicus	318.38	3167	00:37:00:25	 	36.824894	-122.169914	2462988	1.16	09:21.0	Ventana	34.157	00:38:56:20	7.067		Labidiasteridae	Rathbunaster			Animalia	Forcipulatida	Echinodermata	Rathbunaster californicus	Asteroidea							Eukaryota		V3167-01
 	transect	Rathbunaster californicus	308.75	3167	01:33:33:26	 	36.827557	-122.16766	2389758	1.08	06:19.0	Ventana	34.166	01:35:25:26	6.925		Labidiasteridae	Rathbunaster			Animalia	Forcipulatida	Echinodermata	Rathbunaster californicus	Asteroidea							Eukaryota		V3167-02
 	transect	Allocentrotus fragilis	306.83	3167	01:26:36:09	 	36.827076	-122.16875	2372994	1.17	59:20.0	Ventana	34.157	01:28:28:07	7.079	Echinoidea	Strongylocentrotidae	Allocentrotus			Animalia	Echinoida	Echinodermata	Allocentrotus fragilis	Euechinoidea			Echinacea				Eukaryota		V3167-02
 	transect	Rathbunaster californicus	316.65	3167	01:19:52:07	 	36.82543	-122.168976	2371379	1.08	52:36.0	Ventana	34.166	01:21:44:04	6.929		Labidiasteridae	Rathbunaster			Animalia	Forcipulatida	Echinodermata	Rathbunaster californicus	Asteroidea							Eukaryota		V3167-02
 	transect	Rathbunaster californicus	315.14	3167	01:22:47:01	 	36.82586	-122.169395	2371732	1.08	55:31.0	Ventana	34.166	01:24:38:07	6.927		Labidiasteridae	Rathbunaster			Animalia	Forcipulatida	Echinodermata	Rathbunaster californicus	Asteroidea							Eukaryota		V3167-02
 	transect	Sebastes diploproa	313.52	3167	01:18:52:08	 	36.82574	-122.16866	2371199	1.11	51:36.0	Ventana	34.161	01:20:43:16	6.99	Osteichthyes	Scorpaenidae	Sebastes	Neopterygii		Animalia	Scorpaeniformes	Chordata	Sebastes diploproa	Actinopterygii			Scorpaenoidei	Vertebrata	Gnathostomata		Eukaryota	Acanthopterygii	V3167-02
 	cruise	Parastichopus leukothele	317.12	3167	01:21:04:19	 	36.82543	-122.16941	2371439	1.09	53:49.0	Ventana	34.162	01:22:55:02	6.958	Holothuroidea	Stichopodidae	Parastichopus			Animalia	Aspidochirotida	Echinodermata	Parastichopus leukothele	Aspidochirotacea							Eukaryota		V3167-02
 	cruise	Parmaturus xaniurus	319.16	3167	01:05:35:03	 	36.82468	-122.170105	2464430	1.13	38:18.0	Ventana	34.16	01:07:27:04	7.026	Chondrichthyes	Scyliorhinidae	Parmaturus			Animalia	Carcharhiniformes	Chordata	Parmaturus xaniurus	Elasmobranchii				Vertebrata			Eukaryota	Galeomorphi	V3167-02
 	transect	Sebastes	305.16	3167	01:27:24:07	 	36.82732	-122.16862	2388496	1.11	00:09.0	Ventana	34.162	01:29:16:10	6.992	Osteichthyes	Scorpaenidae	Sebastes	Neopterygii		Animalia	Scorpaeniformes	Chordata		Actinopterygii			Scorpaenoidei	Vertebrata	Gnathostomata		Eukaryota	Acanthopterygii	V3167-02
 	cruise	Stylasterias forreri	106.96	3167	03:46:21:08	 	36.846	-122.13389	2471047	4.84	20:01.0	Ventana	33.511	03:48:01:22	11.214		Asteriidae	Stylasterias			Animalia	Forcipulatida	Echinodermata	Stylasterias forreri	Asteroidea							Eukaryota		V3167-04
 	transect	Allocentrotus fragilis	308.83	3167	01:33:57:25	 	36.827408	-122.167694	2389908	1.08	06:43.0	Ventana	34.165	01:35:49:16	6.927	Echinoidea	Strongylocentrotidae	Allocentrotus			Animalia	Echinoida	Echinodermata	Allocentrotus fragilis	Euechinoidea			Echinacea				Eukaryota		V3167-02
 	transect	Rathbunaster californicus	314.83	3167	01:23:07:15	 	36.825974	-122.16934	2371815	1.07	55:51.0	Ventana	34.165	01:24:59:06	6.926		Labidiasteridae	Rathbunaster			Animalia	Forcipulatida	Echinodermata	Rathbunaster californicus	Asteroidea							Eukaryota		V3167-02
 	cruise	Lycodes cortezianus	275.73	3167	02:05:02:17	 	36.833584	-122.16366	2466541	1.16	38:14.0	Ventana	34.155	02:06:45:11	7.092	Osteichthyes	Zoarcidae	Lycodes	Neopterygii		Animalia	Perciformes	Chordata	Lycodes cortezianus	Actinopterygii			Zoarcoidei	Vertebrata	Gnathostomata		Eukaryota	Acanthopterygii	V3167-03
 	transect	Sebastes	309.64	3167	01:35:18:08	 	36.826916	-122.16794	2390254	1.08	08:03.0	Ventana	34.163	01:37:09:23	6.95	Osteichthyes	Scorpaenidae	Sebastes	Neopterygii		Animalia	Scorpaeniformes	Chordata		Actinopterygii			Scorpaenoidei	Vertebrata	Gnathostomata		Eukaryota	Acanthopterygii	V3167-02
 	transect	Rathbunaster californicus	310.92	3167	01:24:23:13	 	36.826427	-122.169136	2372115	1.08	57:08.0	Ventana	34.165	01:26:16:02	6.93		Labidiasteridae	Rathbunaster			Animalia	Forcipulatida	Echinodermata	Rathbunaster californicus	Asteroidea							Eukaryota		V3167-02
 	transect	Allocentrotus fragilis	305.09	3167	01:27:32:07	 	36.827362	-122.168594	2388549	1.11	00:17.0	Ventana	34.162	01:29:22:20	6.992	Echinoidea	Strongylocentrotidae	Allocentrotus			Animalia	Echinoida	Echinodermata	Allocentrotus fragilis	Euechinoidea			Echinacea				Eukaryota		V3167-02
 	transect	Sebastes diploproa	312.55	3167	01:17:11:26	 	36.826244	-122.16817	2370763	1.07	49:55.0	Ventana	34.165	01:19:03:07	6.914	Osteichthyes	Scorpaenidae	Sebastes	Neopterygii		Animalia	Scorpaeniformes	Chordata	Sebastes diploproa	Actinopterygii			Scorpaenoidei	Vertebrata	Gnathostomata		Eukaryota	Acanthopterygii	V3167-02
 	transect	Allocentrotus fragilis	319.36	3167	00:26:16:15	 	36.824528	-122.16943	2462688	1.13	58:36.0	Ventana	34.159	00:28:12:24	7.022	Echinoidea	Strongylocentrotidae	Allocentrotus			Animalia	Echinoida	Echinodermata	Allocentrotus fragilis	Euechinoidea			Echinacea				Eukaryota		V3167-01
 	transect	Sebastes	307.78	3167	01:25:55:25	 	36.826893	-122.16885	2372821	1.19	58:40.0	Ventana	34.152	01:27:46:28	7.21	Osteichthyes	Scorpaenidae	Sebastes	Neopterygii		Animalia	Scorpaeniformes	Chordata		Actinopterygii			Scorpaenoidei	Vertebrata	Gnathostomata		Eukaryota	Acanthopterygii	V3167-02
 	transect	Rathbunaster californicus	312.93	3167	01:18:32:09	 	36.825844	-122.16856	2371139	1.1	51:16.0	Ventana	34.16	01:20:23:05	6.984		Labidiasteridae	Rathbunaster			Animalia	Forcipulatida	Echinodermata	Rathbunaster californicus	Asteroidea							Eukaryota		V3167-02
 	cruise	Sebastes	297.84	3167	01:57:57:27	 	36.831837	-122.16553	2465542	1.11	30:44.0	Ventana	34.16	01:59:49:12	7.004	Osteichthyes	Scorpaenidae	Sebastes	Neopterygii		Animalia	Scorpaeniformes	Chordata		Actinopterygii			Scorpaenoidei	Vertebrata	Gnathostomata		Eukaryota	Acanthopterygii	V3167-02
 	transect	Allocentrotus fragilis	305.19	3167	01:27:22:08	 	36.82731	-122.168625	2388466	1.1	00:07.0	Ventana	34.163	01:29:12:16	6.962	Echinoidea	Strongylocentrotidae	Allocentrotus			Animalia	Echinoida	Echinodermata	Allocentrotus fragilis	Euechinoidea			Echinacea				Eukaryota		V3167-02
 	transect	Rathbunaster californicus	313.21	3167	01:18:13:24	 	36.82593	-122.16845	2371079	1.08	50:58.0	Ventana	34.161	01:20:06:01	6.953		Labidiasteridae	Rathbunaster			Animalia	Forcipulatida	Echinodermata	Rathbunaster californicus	Asteroidea							Eukaryota		V3167-02
 	transect	Allocentrotus fragilis	319.2	3167	00:19:30:12	 	36.824387	-122.16971	2462402	1.14	51:50.0	Ventana	34.158	00:21:27:11	7.025	Echinoidea	Strongylocentrotidae	Allocentrotus			Animalia	Echinoida	Echinodermata	Allocentrotus fragilis	Euechinoidea			Echinacea				Eukaryota		V3167-01
 	transect	Allocentrotus fragilis	305.2	3167	01:27:40:07	 	36.827404	-122.16857	2388579	1.12	00:25.0	Ventana	34.159	01:29:32:04	7.026	Echinoidea	Strongylocentrotidae	Allocentrotus			Animalia	Echinoida	Echinodermata	Allocentrotus fragilis	Euechinoidea			Echinacea				Eukaryota		V3167-02
 	transect	Allocentrotus fragilis	307.15	3167	01:26:13:25	 	36.82697	-122.16881	2372851	1.22	58:58.0	Ventana	34.147	01:28:05:16	7.163	Echinoidea	Strongylocentrotidae	Allocentrotus			Animalia	Echinoida	Echinodermata	Allocentrotus fragilis	Euechinoidea			Echinacea				Eukaryota		V3167-02
 	cruise	Allocentrotus fragilis	303.6	3167	01:46:31:03	 	36.82867	-122.16786	2390900	1.09	19:17.0	Ventana	34.163	01:48:23:08	6.966	Echinoidea	Strongylocentrotidae	Allocentrotus			Animalia	Echinoida	Echinodermata	Allocentrotus fragilis	Euechinoidea			Echinacea				Eukaryota		V3167-02
 	transect	Rathbunaster californicus	314.43	3167	01:23:25:15	 	36.826084	-122.1693	2371875	1.07	56:09.0	Ventana	34.166	01:25:16:08	6.924		Labidiasteridae	Rathbunaster			Animalia	Forcipulatida	Echinodermata	Rathbunaster californicus	Asteroidea							Eukaryota		V3167-02
 	transect	Rathbunaster californicus	313	3167	01:17:19:26	 	36.8262	-122.16818	2370793	1.07	50:04.0	Ventana	34.165	01:19:11:07	6.914		Labidiasteridae	Rathbunaster			Animalia	Forcipulatida	Echinodermata	Rathbunaster californicus	Asteroidea							Eukaryota		V3167-02
 	transect	Allocentrotus fragilis	319.31	3167	00:37:57:09	 	36.824913	-122.17012	2463018	1.16	10:17.0	Ventana	34.156	00:39:53:12	7.069	Echinoidea	Strongylocentrotidae	Allocentrotus			Animalia	Echinoida	Echinodermata	Allocentrotus fragilis	Euechinoidea			Echinacea				Eukaryota		V3167-01
 	transect	Rathbunaster californicus	314.73	3167	01:23:01:01	 	36.82594	-122.16936	2371785	1.07	55:45.0	Ventana	34.165	01:24:53:06	6.926		Labidiasteridae	Rathbunaster			Animalia	Forcipulatida	Echinodermata	Rathbunaster californicus	Asteroidea							Eukaryota		V3167-02
 	transect	Phyllospadix	166.6	3167	02:24:46:25	 	36.836952	-122.15829	2467157	2.51	58:00.0	Ventana	33.962	02:26:30:13	9.18		Zosteraceae	Phyllospadix			Plantae	Najadales										Eukaryota		V3167-03
 	transect	Rathbunaster californicus	309.5	3167	01:35:06:08	 	36.82698	-122.167885	2390194	1.08	07:51.0	Ventana	34.164	01:36:57:28	6.94		Labidiasteridae	Rathbunaster			Animalia	Forcipulatida	Echinodermata	Rathbunaster californicus	Asteroidea							Eukaryota		V3167-02
 	cruise	Hippasteria	284.01	3167	02:02:37:21	 	36.833042	-122.16435	2466481	1.14	35:50.0	Ventana	34.158	02:04:20:12	7.049		Goniasteridae	Hippasteria			Animalia	Valvatida	Echinodermata		Asteroidea			Granulosina				Eukaryota		V3167-03
 	transect	Sebastes	305.36	3167	01:27:18:07	http://search.mbari.org/ARCHIVE/frameGrabs/Ventana/images/3167/01_29_09_12.jpg	36.82729	-122.16863	2388436	1.1	00:03.0	Ventana	34.163	01:29:09:12	6.962	Osteichthyes	Scorpaenidae	Sebastes	Neopterygii		Animalia	Scorpaeniformes	Chordata		Actinopterygii			Scorpaenoidei	Vertebrata	Gnathostomata		Eukaryota	Acanthopterygii	V3167-02
 	transect	Sebastes	309.07	3167	01:34:19:25	 	36.827267	-122.16774	2390021	1.08	07:05.0	Ventana	34.165	01:36:12:00	6.933	Osteichthyes	Scorpaenidae	Sebastes	Neopterygii		Animalia	Scorpaeniformes	Chordata		Actinopterygii			Scorpaenoidei	Vertebrata	Gnathostomata		Eukaryota	Acanthopterygii	V3167-02
 	transect	Stylasterias forreri	308.41	3167	01:33:09:27	 	36.827675	-122.16765	2389645	1.08	05:54.0	Ventana	34.166	01:35:00:05	6.926		Asteriidae	Stylasterias			Animalia	Forcipulatida	Echinodermata	Stylasterias forreri	Asteroidea							Eukaryota		V3167-02
 	transect	Allocentrotus fragilis	305.76	3167	01:27:12:08	 	36.827255	-122.16865	2388406	1.1	59:57.0	Ventana	34.163	01:29:03:25	6.962	Echinoidea	Strongylocentrotidae	Allocentrotus			Animalia	Echinoida	Echinodermata	Allocentrotus fragilis	Euechinoidea			Echinacea				Eukaryota		V3167-02
 	transect	Octopus rubescens	166.01	3167	02:32:36:26	 	36.837357	-122.15875	2467344	2.71	05:51.0	Ventana	33.934	02:34:20:11	9.379	Cephalopoda	Octopodidae	Octopus			Animalia	Octopoda	Mollusca	Octopus rubescens	Coleoidea	Octopodinae		Incirrata				Eukaryota	Octopodiformes	V3167-03
 	transect	Rathbunaster californicus	309.57	3167	01:35:12:08	 	36.826946	-122.167915	2390224	1.08	07:57.0	Ventana	34.163	01:37:03:18	6.95		Labidiasteridae	Rathbunaster			Animalia	Forcipulatida	Echinodermata	Rathbunaster californicus	Asteroidea							Eukaryota		V3167-02
 	transect	Sebastes diploproa	314.72	3167	01:23:17:15	 	36.82604	-122.16931	2371845	1.07	56:01.0	Ventana	34.165	01:25:09:13	6.923	Osteichthyes	Scorpaenidae	Sebastes	Neopterygii		Animalia	Scorpaeniformes	Chordata	Sebastes diploproa	Actinopterygii			Scorpaenoidei	Vertebrata	Gnathostomata		Eukaryota	Acanthopterygii	V3167-02
 	transect	Rathbunaster californicus	308.32	3167	01:33:13:26	 	36.827663	-122.167656	2389675	1.08	05:58.0	Ventana	34.166	01:35:05:19	6.926		Labidiasteridae	Rathbunaster			Animalia	Forcipulatida	Echinodermata	Rathbunaster californicus	Asteroidea							Eukaryota		V3167-02
 	transect	Rathbunaster californicus	308.92	3167	01:33:49:25	 	36.827457	-122.16768	2389848	1.07	06:35.0	Ventana	34.166	01:35:40:24	6.926		Labidiasteridae	Rathbunaster			Animalia	Forcipulatida	Echinodermata	Rathbunaster californicus	Asteroidea							Eukaryota		V3167-02
 	transect	Sebastes	309.17	3167	01:34:28:09	 	36.827217	-122.16776	2390051	1.08	07:13.0	Ventana	34.165	01:36:19:18	6.927	Osteichthyes	Scorpaenidae	Sebastes	Neopterygii		Animalia	Scorpaeniformes	Chordata		Actinopterygii			Scorpaenoidei	Vertebrata	Gnathostomata		Eukaryota	Acanthopterygii	V3167-02
 	cruise	Stylasterias forreri	258.73	3167	02:08:45:10	 	36.834442	-122.16252	2466638	1.49	41:57.0	Ventana	34.125	02:10:27:19	7.704		Asteriidae	Stylasterias			Animalia	Forcipulatida	Echinodermata	Stylasterias forreri	Asteroidea							Eukaryota		V3167-03
 	cruise	Ceriantharia sp. 3	308.93	3167	01:32:17:13	 	36.82782	-122.16769	2389518	1.08	05:02.0	Ventana	34.166	01:34:08:16	6.93	Anthozoa					Animalia	Ceriantharia	Cnidaria		Ceriantipatharia							Eukaryota		V3167-02
 	transect	Rathbunaster californicus	316.08	3167	01:22:17:02	 	36.82569	-122.16947	2371642	1.09	55:01.0	Ventana	34.163	01:24:08:15	6.958		Labidiasteridae	Rathbunaster			Animalia	Forcipulatida	Echinodermata	Rathbunaster californicus	Asteroidea							Eukaryota		V3167-02
 	transect	Rathbunaster californicus	323.03	3167	00:48:55:18	 	36.824623	-122.170815	2463251	1.18	21:17.0	Ventana	34.153	00:50:51:21	7.112		Labidiasteridae	Rathbunaster			Animalia	Forcipulatida	Echinodermata	Rathbunaster californicus	Asteroidea							Eukaryota		V3167-01
 	transect	Parastichopus leukothele	310.38	3167	01:24:53:27	 	36.8266	-122.16903	2372724	1.09	57:38.0	Ventana	34.165	01:26:44:12	6.968	Holothuroidea	Stichopodidae	Parastichopus			Animalia	Aspidochirotida	Echinodermata	Parastichopus leukothele	Aspidochirotacea							Eukaryota		V3167-02
 	transect	Rathbunaster californicus	308.88	3167	01:33:31:26	 	36.827568	-122.16766	2389751	1.08	06:17.0	Ventana	34.166	01:35:22:12	6.925		Labidiasteridae	Rathbunaster			Animalia	Forcipulatida	Echinodermata	Rathbunaster californicus	Asteroidea							Eukaryota		V3167-02
 	transect	Stylasterias forreri	305.82	3167	01:27:06:08	 	36.827225	-122.16867	2388369	1.1	59:51.0	Ventana	34.164	01:28:57:01	6.964		Asteriidae	Stylasterias			Animalia	Forcipulatida	Echinodermata	Stylasterias forreri	Asteroidea							Eukaryota		V3167-02
 	transect	Sebastes	306.83	3167	01:26:36:09	 	36.827076	-122.16875	2373001	1.17	59:20.0	Ventana	34.157	01:28:28:07	7.079	Osteichthyes	Scorpaenidae	Sebastes	Neopterygii		Animalia	Scorpaeniformes	Chordata		Actinopterygii			Scorpaenoidei	Vertebrata	Gnathostomata		Eukaryota	Acanthopterygii	V3167-02
 	cruise	Lycodes cortezianus	327.91	3167	00:11:52:26	 	36.822906	-122.170555	2462169	1.11	44:12.0	Ventana	34.163	00:13:47:23	6.959	Osteichthyes	Zoarcidae	Lycodes	Neopterygii		Animalia	Perciformes	Chordata	Lycodes cortezianus	Actinopterygii			Zoarcoidei	Vertebrata	Gnathostomata		Eukaryota	Acanthopterygii	V3167-01
 	transect	Parastichopus leukothele	310.49	3167	01:24:41:27	 	36.826527	-122.169075	2372694	1.08	57:26.0	Ventana	34.165	01:26:33:24	6.934	Holothuroidea	Stichopodidae	Parastichopus			Animalia	Aspidochirotida	Echinodermata	Parastichopus leukothele	Aspidochirotacea							Eukaryota		V3167-02
 	transect	Stylasterias forreri	323.08	3167	00:49:58:02	 	36.824444	-122.170685	2463274	1.18	22:19.0	Ventana	34.153	00:51:53:02	7.106		Asteriidae	Stylasterias			Animalia	Forcipulatida	Echinodermata	Stylasterias forreri	Asteroidea							Eukaryota		V3167-01
 	transect	Rathbunaster californicus	312.09	3167	01:23:53:14	 	36.826256	-122.16922	2371972	1.07	56:38.0	Ventana	34.165	01:25:44:06	6.925		Labidiasteridae	Rathbunaster			Animalia	Forcipulatida	Echinodermata	Rathbunaster californicus	Asteroidea							Eukaryota		V3167-02
 	cruise	Hippasteria	279.59	3167	02:03:48:04	 	36.833313	-122.16403	2467743	1.16	37:00.0	Ventana	34.155	02:05:30:27	7.082		Goniasteridae	Hippasteria			Animalia	Valvatida	Echinodermata		Asteroidea			Granulosina				Eukaryota		V3167-03
 	cruise	Rathbunaster californicus	307.31	3167	01:36:44:20	 	36.82677	-122.168495	2390764	1.08	09:30.0	Ventana	34.165	01:38:35:05	6.935		Labidiasteridae	Rathbunaster			Animalia	Forcipulatida	Echinodermata	Rathbunaster californicus	Asteroidea							Eukaryota		V3167-02
 	transect	Allocentrotus fragilis	305.76	3167	01:27:12:08	 	36.827255	-122.16865	2388399	1.1	59:57.0	Ventana	34.163	01:29:03:25	6.962	Echinoidea	Strongylocentrotidae	Allocentrotus			Animalia	Echinoida	Echinodermata	Allocentrotus fragilis	Euechinoidea			Echinacea				Eukaryota		V3167-02
 	transect	Allocentrotus fragilis	308.83	3167	01:33:27:26	 	36.82759	-122.16766	2389721	1.08	06:13.0	Ventana	34.166	01:35:18:22	6.925	Echinoidea	Strongylocentrotidae	Allocentrotus			Animalia	Echinoida	Echinodermata	Allocentrotus fragilis	Euechinoidea			Echinacea				Eukaryota		V3167-02
 	transect	Rathbunaster californicus	318.49	3167	00:35:32:13	 	36.824883	-122.1696	2462951	1.13	07:53.0	Ventana	34.16	00:37:28:17	7.019		Labidiasteridae	Rathbunaster			Animalia	Forcipulatida	Echinodermata	Rathbunaster californicus	Asteroidea							Eukaryota		V3167-01
 	transect	Sebastes	306.94	3167	01:26:24:09	 	36.82701	-122.168785	2372941	1.17	59:08.0	Ventana	34.157	01:28:15:00	7.079	Osteichthyes	Scorpaenidae	Sebastes	Neopterygii		Animalia	Scorpaeniformes	Chordata		Actinopterygii			Scorpaenoidei	Vertebrata	Gnathostomata		Eukaryota	Acanthopterygii	V3167-02
 	transect	Allocentrotus fragilis	308.92	3167	01:33:45:26	 	36.827484	-122.16767	2389811	1.07	06:31.0	Ventana	34.166	01:35:38:01	6.926	Echinoidea	Strongylocentrotidae	Allocentrotus			Animalia	Echinoida	Echinodermata	Allocentrotus fragilis	Euechinoidea			Echinacea				Eukaryota		V3167-02
 	cruise	Stylasterias forreri	305.52	3167	01:39:01:01	 	36.827194	-122.16867	2390794	1.09	11:46.0	Ventana	34.164	01:40:52:27	6.952		Asteriidae	Stylasterias			Animalia	Forcipulatida	Echinodermata	Stylasterias forreri	Asteroidea							Eukaryota		V3167-02
 	transect	Raja rhina	305.04	3167	01:28:08:21	 	36.827553	-122.16849	2388662	1.13	00:53.0	Ventana	34.162	01:29:59:06	7	Chondrichthyes	Rajidae	Raja			Animalia	Rajiformes	Chordata	Raja rhina	Elasmobranchii				Vertebrata			Eukaryota	Batoidea	V3167-02
 	transect	Allocentrotus fragilis	306.4	3167	01:26:48:09	 	36.827133	-122.16872	2388309	1.12	59:32.0	Ventana	34.164	01:28:40:14	6.991	Echinoidea	Strongylocentrotidae	Allocentrotus			Animalia	Echinoida	Echinodermata	Allocentrotus fragilis	Euechinoidea			Echinacea				Eukaryota		V3167-02
 	transect	Psolus squamatus	321.76	3167	00:45:59:09	 	36.82486	-122.17057	2463214	1.14	18:20.0	Ventana	34.158	00:47:55:17	7.038	Holothuroidea	Psolidae	Psolus			Animalia	Dendrochirotida	Echinodermata	Psolus squamatus								Eukaryota		V3167-01
 	transect	Sebastes diploproa	315.98	3167	01:22:29:01	 	36.825756	-122.16944	2371679	1.08	55:13.0	Ventana	34.164	01:24:21:06	6.938	Osteichthyes	Scorpaenidae	Sebastes	Neopterygii		Animalia	Scorpaeniformes	Chordata	Sebastes diploproa	Actinopterygii			Scorpaenoidei	Vertebrata	Gnathostomata		Eukaryota	Acanthopterygii	V3167-02
 	cruise	Microstomus pacificus	332.46	3167	00:09:18:01	 	36.82219	-122.17079	2462125	1.11	41:37.0	Ventana	34.161	00:11:15:03	6.966	Osteichthyes	Pleuronectidae	Microstomus	Neopterygii		Animalia	Pleuronectiformes	Chordata	Microstomus pacificus	Actinopterygii				Vertebrata	Gnathostomata		Eukaryota	Acanthopterygii	V3167-01
 	transect	Ceriantharia	169.36	3167	02:23:32:27	 	36.836903	-122.1585	2467111	2.46	56:46.0	Ventana	33.97	02:25:15:08	9.077	Anthozoa					Animalia	Ceriantharia	Cnidaria		Ceriantipatharia							Eukaryota		V3167-03
 	cruise	Parastichopus leukothele	119.46	3167	03:02:50:14	 	36.8405	-122.14883	2468170	3.47	36:28.0	Ventana	33.741	03:04:30:25	10.347	Holothuroidea	Stichopodidae	Parastichopus			Animalia	Aspidochirotida	Echinodermata	Parastichopus leukothele	Aspidochirotacea							Eukaryota		V3167-04
 	cruise	Hydrolagus colliei	314.65	3167	01:09:45:25	http://search.mbari.org/ARCHIVE/frameGrabs/Ventana/images/3167/01_11_38_06.jpg	36.825996	-122.16939	2464566	1.11	42:29.0	Ventana	34.162	01:11:38:06	6.985	Chondrichthyes	Chimaeridae	Hydrolagus			Animalia	Chimaeriformes	Chordata	Hydrolagus colliei	Holocephali			Chimaeroidei	Vertebrata			Eukaryota	Holocephalimorpha	V3167-02
 	transect	Rathbunaster californicus	313.42	3167	01:18:50:08	 	36.82575	-122.168655	2371192	1.11	51:34.0	Ventana	34.161	01:20:41:10	6.99		Labidiasteridae	Rathbunaster			Animalia	Forcipulatida	Echinodermata	Rathbunaster californicus	Asteroidea							Eukaryota		V3167-02
 	transect	Rathbunaster californicus	309.33	3167	01:35:00:08	 	36.827015	-122.16786	2390164	1.08	07:45.0	Ventana	34.164	01:36:51:11	6.94		Labidiasteridae	Rathbunaster			Animalia	Forcipulatida	Echinodermata	Rathbunaster californicus	Asteroidea							Eukaryota		V3167-02
 	transect	Rathbunaster californicus	321.77	3167	00:45:26:24	 	36.824806	-122.17043	2463184	1.12	17:48.0	Ventana	34.16	00:47:21:23	7.01		Labidiasteridae	Rathbunaster			Animalia	Forcipulatida	Echinodermata	Rathbunaster californicus	Asteroidea							Eukaryota		V3167-01
 	transect	Rathbunaster californicus	311.31	3167	01:16:29:13	 	36.826443	-122.16818	2370500	1.08	49:13.0	Ventana	34.165	01:18:20:12	6.923		Labidiasteridae	Rathbunaster			Animalia	Forcipulatida	Echinodermata	Rathbunaster californicus	Asteroidea							Eukaryota		V3167-02
 	cruise	sediment	110.33	3167	03:20:20:27	http://search.mbari.org/ARCHIVE/frameGrabs/Ventana/images/3167/03_22_00_23.jpg	36.842815	-122.1398	2468666	4.55	53:59.0	Ventana	33.565	03:22:00:23	11.064																			V3167-04
 	transect	Rathbunaster californicus	319.16	3167	00:37:46:24	 	36.82491	-122.17008	2463011	1.16	10:07.0	Ventana	34.156	00:39:43:26	7.075		Labidiasteridae	Rathbunaster			Animalia	Forcipulatida	Echinodermata	Rathbunaster californicus	Asteroidea							Eukaryota		V3167-01
 	transect	Rathbunaster californicus	322.86	3167	00:57:35:03	 	36.824135	-122.170425	2464197	1.14	30:18.0	Ventana	34.157	00:59:26:11	7.052		Labidiasteridae	Rathbunaster			Animalia	Forcipulatida	Echinodermata	Rathbunaster californicus	Asteroidea							Eukaryota		V3167-02
 	transect	Rathbunaster californicus	308.62	3167	01:34:11:25	 	36.82732	-122.167725	2389984	1.08	06:57.0	Ventana	34.165	01:36:02:14	6.933		Labidiasteridae	Rathbunaster			Animalia	Forcipulatida	Echinodermata	Rathbunaster californicus	Asteroidea							Eukaryota		V3167-02
 	transect	Allocentrotus fragilis	309.35	3167	01:25:25:26	 	36.826756	-122.16894	2372768	1.11	58:10.0	Ventana	34.161	01:27:17:14	6.98	Echinoidea	Strongylocentrotidae	Allocentrotus			Animalia	Echinoida	Echinodermata	Allocentrotus fragilis	Euechinoidea			Echinacea				Eukaryota		V3167-02
 	transect	Stylasterias forreri	170.59	3167	02:23:02:28	 	36.83688	-122.158585	2467081	2.42	56:16.0	Ventana	33.973	02:24:46:09	9.039		Asteriidae	Stylasterias			Animalia	Forcipulatida	Echinodermata	Stylasterias forreri	Asteroidea							Eukaryota		V3167-03
 	transect	Allocentrotus fragilis	313.56	3167	01:23:33:14	 	36.826138	-122.16927	2371912	1.07	56:18.0	Ventana	34.166	01:25:24:26	6.924	Echinoidea	Strongylocentrotidae	Allocentrotus			Animalia	Echinoida	Echinodermata	Allocentrotus fragilis	Euechinoidea			Echinacea				Eukaryota		V3167-02
 	transect	Allocentrotus fragilis	305.95	3167	01:27:00:08	 	36.827194	-122.168686	2388339	1.1	59:45.0	Ventana	34.164	01:28:51:24	6.964	Echinoidea	Strongylocentrotidae	Allocentrotus			Animalia	Echinoida	Echinodermata	Allocentrotus fragilis	Euechinoidea			Echinacea				Eukaryota		V3167-02
 	transect	Allocentrotus fragilis	306.89	3167	01:26:30:09	 	36.827053	-122.16876	2372971	1.17	59:14.0	Ventana	34.157	01:28:22:11	7.079	Echinoidea	Strongylocentrotidae	Allocentrotus			Animalia	Echinoida	Echinodermata	Allocentrotus fragilis	Euechinoidea			Echinacea				Eukaryota		V3167-02
 	cruise	Parastichopus leukothele	249.09	3167	02:10:11:22	 	36.834763	-122.162056	2467803	1.53	43:24.0	Ventana	34.119	02:11:53:23	7.762	Holothuroidea	Stichopodidae	Parastichopus			Animalia	Aspidochirotida	Echinodermata	Parastichopus leukothele	Aspidochirotacea							Eukaryota		V3167-03
 	transect	Rathbunaster californicus	315.87	3167	01:19:36:07	 	36.825504	-122.168884	2371356	1.09	52:20.0	Ventana	34.163	01:21:28:24	6.954		Labidiasteridae	Rathbunaster			Animalia	Forcipulatida	Echinodermata	Rathbunaster californicus	Asteroidea							Eukaryota		V3167-02
 	cruise	Sebastes diploproa	335.62	3167	00:07:15:20	 	36.82153	-122.17104	2462095	1.11	39:34.0	Ventana	34.161	00:09:10:27	6.954	Osteichthyes	Scorpaenidae	Sebastes	Neopterygii		Animalia	Scorpaeniformes	Chordata	Sebastes diploproa	Actinopterygii			Scorpaenoidei	Vertebrata	Gnathostomata		Eukaryota	Acanthopterygii	V3167-01
 	transect	Sebastes	308.97	3167	01:34:52:09	 	36.827065	-122.16783	2390134	1.08	07:37.0	Ventana	34.165	01:36:44:06	6.933	Osteichthyes	Scorpaenidae	Sebastes	Neopterygii		Animalia	Scorpaeniformes	Chordata		Actinopterygii			Scorpaenoidei	Vertebrata	Gnathostomata		Eukaryota	Acanthopterygii	V3167-02
 	transect	Phyllospadix	159.76	3167	02:26:47:21	 	36.837086	-122.15793	2467254	2.7	00:01.0	Ventana	33.929	02:28:30:27	9.394		Zosteraceae	Phyllospadix			Plantae	Najadales										Eukaryota		V3167-03
 	transect	Sebastes	308.78	3167	01:32:51:12	 	36.827736	-122.16764	2389585	1.08	05:36.0	Ventana	34.165	01:34:43:21	6.93	Osteichthyes	Scorpaenidae	Sebastes	Neopterygii		Animalia	Scorpaeniformes	Chordata		Actinopterygii			Scorpaenoidei	Vertebrata	Gnathostomata		Eukaryota	Acanthopterygii	V3167-02
 	transect	Parastichopus leukothele	308.83	3167	01:33:37:26	 	36.827534	-122.16766	2389781	1.07	06:23.0	Ventana	34.166	01:35:28:26	6.926	Holothuroidea	Stichopodidae	Parastichopus			Animalia	Aspidochirotida	Echinodermata	Parastichopus leukothele	Aspidochirotacea							Eukaryota		V3167-02
 	cruise	cable	207.88	3167	02:15:48:27	http://search.mbari.org/ARCHIVE/frameGrabs/Ventana/images/3167/02_17_30_24.jpg	36.83586	-122.1604	2466901	1.83	49:02.0	Ventana	34.08	02:17:30:24	8.247																			V3167-03
 	transect	Rathbunaster californicus	312.97	3167	01:18:28:09	 	36.825863	-122.16853	2371132	1.1	51:12.0	Ventana	34.16	01:20:18:27	6.984		Labidiasteridae	Rathbunaster			Animalia	Forcipulatida	Echinodermata	Rathbunaster californicus	Asteroidea							Eukaryota		V3167-02
 	transect	Sebastes	305.09	3167	01:27:32:07	 	36.827362	-122.168594	2388542	1.11	00:17.0	Ventana	34.162	01:29:22:20	6.992	Osteichthyes	Scorpaenidae	Sebastes	Neopterygii		Animalia	Scorpaeniformes	Chordata		Actinopterygii			Scorpaenoidei	Vertebrata	Gnathostomata		Eukaryota	Acanthopterygii	V3167-02
 	transect	Allocentrotus fragilis	305.1	3167	01:27:28:08	 	36.82734	-122.16861	2388519	1.11	00:13.0	Ventana	34.162	01:29:19:25	6.992	Echinoidea	Strongylocentrotidae	Allocentrotus			Animalia	Echinoida	Echinodermata	Allocentrotus fragilis	Euechinoidea			Echinacea				Eukaryota		V3167-02
 	cruise	Rathbunaster californicus	108.31	3167	03:42:38:15	 	36.84524	-122.13544	2471024	4.74	16:18.0	Ventana	33.525	03:44:18:10	11.172		Labidiasteridae	Rathbunaster			Animalia	Forcipulatida	Echinodermata	Rathbunaster californicus	Asteroidea							Eukaryota		V3167-04
 	cruise	Hydrolagus colliei	307.38	3167	01:50:27:26	 	36.8297	-122.167274	2465489	1.1	23:14.0	Ventana	34.163	01:52:19:26	6.961	Chondrichthyes	Chimaeridae	Hydrolagus			Animalia	Chimaeriformes	Chordata	Hydrolagus colliei	Holocephali			Chimaeroidei	Vertebrata			Eukaryota	Holocephalimorpha	V3167-02
 	cruise	Metridium farcimen	117.53	3167	03:05:11:10	http://search.mbari.org/ARCHIVE/frameGrabs/Ventana/images/3167/03_06_50_11.jpg	36.84108	-122.14764	2468260	3.51	38:49.0	Ventana	33.732	03:06:50:11	10.385	Anthozoa	Metridiidae	Metridium			Animalia	Actiniaria	Cnidaria	Metridium farcimen	Hexacorallia			Nyantheae				Eukaryota		V3167-04
 	transect	Parastichopus leukothele	308.74	3167	01:34:01:25	 	36.82738	-122.1677	2389931	1.08	06:47.0	Ventana	34.165	01:35:52:07	6.927	Holothuroidea	Stichopodidae	Parastichopus			Animalia	Aspidochirotida	Echinodermata	Parastichopus leukothele	Aspidochirotacea							Eukaryota		V3167-02
 	transect	Ceriantharia	165.01	3167	02:25:19:09	 	36.836975	-122.15819	2467194	2.64	58:32.0	Ventana	33.942	02:27:02:16	9.348	Anthozoa					Animalia	Ceriantharia	Cnidaria		Ceriantipatharia							Eukaryota		V3167-03
 	transect	Rathbunaster californicus	314.73	3167	01:23:01:01	 	36.82594	-122.16936	2371792	1.07	55:45.0	Ventana	34.165	01:24:53:06	6.926		Labidiasteridae	Rathbunaster			Animalia	Forcipulatida	Echinodermata	Rathbunaster californicus	Asteroidea							Eukaryota		V3167-02
 	cruise	Parmaturus xaniurus	335.7	3167	00:07:09:20	http://search.mbari.org/ARCHIVE/frameGrabs/Ventana/images/3167/00_09_06_15.jpg	36.821495	-122.17106	2462035	1.11	39:28.0	Ventana	34.161	00:09:06:15	6.954	Chondrichthyes	Scyliorhinidae	Parmaturus			Animalia	Carcharhiniformes	Chordata	Parmaturus xaniurus	Elasmobranchii				Vertebrata			Eukaryota	Galeomorphi	V3167-01
 	cruise	Parastichopus leukothele	113.22	3167	03:14:11:08	 	36.841995	-122.1426	2468576	4.83	47:50.0	Ventana	33.519	03:15:52:15	11.221	Holothuroidea	Stichopodidae	Parastichopus			Animalia	Aspidochirotida	Echinodermata	Parastichopus leukothele	Aspidochirotacea							Eukaryota		V3167-04
 	transect	Rathbunaster californicus	313.13	3167	01:18:40:09	 	36.8258	-122.1686	2371162	1.11	51:24.0	Ventana	34.161	01:20:32:03	6.99		Labidiasteridae	Rathbunaster			Animalia	Forcipulatida	Echinodermata	Rathbunaster californicus	Asteroidea							Eukaryota		V3167-02
 	transect	Agonidae	309.5	3167	01:15:19:15	 	36.826714	-122.16833	2370440	1.08	48:03.0	Ventana	34.165	01:17:11:11	6.932	Osteichthyes	Agonidae		Neopterygii		Animalia	Scorpaeniformes	Chordata		Actinopterygii				Vertebrata	Gnathostomata		Eukaryota	Acanthopterygii	V3167-02
 	transect	Stylasterias forreri	314.88	3167	01:22:55:01	 	36.825905	-122.16937	2371762	1.07	55:39.0	Ventana	34.165	01:24:46:07	6.926		Asteriidae	Stylasterias			Animalia	Forcipulatida	Echinodermata	Stylasterias forreri	Asteroidea							Eukaryota		V3167-02
 	transect	Allocentrotus fragilis	307.78	3167	01:25:55:25	 	36.826893	-122.16885	2372828	1.19	58:40.0	Ventana	34.152	01:27:48:04	7.21	Echinoidea	Strongylocentrotidae	Allocentrotus			Animalia	Echinoida	Echinodermata	Allocentrotus fragilis	Euechinoidea			Echinacea				Eukaryota		V3167-02
 	transect	Sebastes	305.15	3167	01:27:36:07	 	36.82738	-122.16859	2388572	1.11	00:21.0	Ventana	34.162	01:29:27:26	6.992	Osteichthyes	Scorpaenidae	Sebastes	Neopterygii		Animalia	Scorpaeniformes	Chordata		Actinopterygii			Scorpaenoidei	Vertebrata	Gnathostomata		Eukaryota	Acanthopterygii	V3167-02
 	cruise	Stylasterias forreri	302.52	3167	01:44:28:22	 	36.82793	-122.16827	2390877	1.12	17:14.0	Ventana	34.16	01:46:20:20	7.035		Asteriidae	Stylasterias			Animalia	Forcipulatida	Echinodermata	Stylasterias forreri	Asteroidea							Eukaryota		V3167-02
 	cruise	Parastichopus leukothele	159.41	3167	02:28:44:03	 	36.83742	-122.1581	2467307	2.72	01:57.0	Ventana	33.928	02:30:26:12	9.401	Holothuroidea	Stichopodidae	Parastichopus			Animalia	Aspidochirotida	Echinodermata	Parastichopus leukothele	Aspidochirotacea							Eukaryota		V3167-03
 	transect	Rathbunaster californicus	308.58	3167	01:33:03:27	 	36.827694	-122.16764	2389638	1.08	05:48.0	Ventana	34.165	01:34:54:29	6.927		Labidiasteridae	Rathbunaster			Animalia	Forcipulatida	Echinodermata	Rathbunaster californicus	Asteroidea							Eukaryota		V3167-02
 	cruise	Parastichopus leukothele	136.63	3167	02:49:15:10	 	36.83835	-122.15436	2467510	2.95	22:30.0	Ventana	33.851	02:50:58:07	9.695	Holothuroidea	Stichopodidae	Parastichopus			Animalia	Aspidochirotida	Echinodermata	Parastichopus leukothele	Aspidochirotacea							Eukaryota		V3167-03
 	transect	Rathbunaster californicus	308.92	3167	01:33:49:25	 	36.827457	-122.16768	2389841	1.07	06:35.0	Ventana	34.166	01:35:40:24	6.926		Labidiasteridae	Rathbunaster			Animalia	Forcipulatida	Echinodermata	Rathbunaster californicus	Asteroidea							Eukaryota		V3167-02
 	transect	Rathbunaster californicus	322.94	3167	00:57:21:03	 	36.824165	-122.17045	2464167	1.14	30:03.0	Ventana	34.157	00:59:12:08	7.046		Labidiasteridae	Rathbunaster			Animalia	Forcipulatida	Echinodermata	Rathbunaster californicus	Asteroidea							Eukaryota		V3167-02
 	transect	Corallimorphus pilatus	303.48	3167	01:29:08:19	 	36.827793	-122.16835	2388916	1.12	01:53.0	Ventana	34.159	01:31:01:09	7.03	Anthozoa	Corallimorphidae	Corallimorphus			Animalia	Corallimorpharia	Cnidaria	Corallimorphus pilatus	Hexacorallia							Eukaryota		V3167-02
 	transect	Allocentrotus fragilis	308.32	3167	01:33:13:26	 	36.827663	-122.167656	2389668	1.08	05:58.0	Ventana	34.166	01:35:05:19	6.926	Echinoidea	Strongylocentrotidae	Allocentrotus			Animalia	Echinoida	Echinodermata	Allocentrotus fragilis	Euechinoidea			Echinacea				Eukaryota		V3167-02
 	transect	Phyllospadix	164.85	3167	02:31:52:27	 	36.8374	-122.15863	2467337	2.7	05:06.0	Ventana	33.931	02:33:35:09	9.392		Zosteraceae	Phyllospadix			Plantae	Najadales										Eukaryota		V3167-03
 	transect	Ceriantharia sp. 3	305.1	3167	01:27:48:21	 	36.827442	-122.16855	2388602	1.12	00:33.0	Ventana	34.159	01:29:40:03	7.026	Anthozoa					Animalia	Ceriantharia	Cnidaria		Ceriantipatharia							Eukaryota		V3167-02
 	transect	Rathbunaster californicus	311.83	3167	01:24:05:14	 	36.826324	-122.16919	2372025	1.07	56:50.0	Ventana	34.165	01:25:56:01	6.925		Labidiasteridae	Rathbunaster			Animalia	Forcipulatida	Echinodermata	Rathbunaster californicus	Asteroidea							Eukaryota		V3167-02
 	transect	Phyllospadix	171.58	3167	02:35:05:21	 	36.837265	-122.15913	2467367	2.66	08:20.0	Ventana	33.941	02:36:47:21	9.323		Zosteraceae	Phyllospadix			Plantae	Najadales										Eukaryota		V3167-03
 	transect	Rathbunaster californicus	309.63	3167	01:35:14:08	 	36.826935	-122.16792	2390247	1.08	07:59.0	Ventana	34.163	01:37:06:09	6.95		Labidiasteridae	Rathbunaster			Animalia	Forcipulatida	Echinodermata	Rathbunaster californicus	Asteroidea							Eukaryota		V3167-02
 	transect	Rathbunaster californicus	308.91	3167	01:33:51:26	 	36.827446	-122.16769	2389871	1.07	06:37.0	Ventana	34.166	01:35:43:19	6.926		Labidiasteridae	Rathbunaster			Animalia	Forcipulatida	Echinodermata	Rathbunaster californicus	Asteroidea							Eukaryota		V3167-02
 	transect	Parastichopus leukothele	314.88	3167	01:23:09:15	 	36.826	-122.169334	2371822	1.07	55:53.0	Ventana	34.165	01:25:01:00	6.923	Holothuroidea	Stichopodidae	Parastichopus			Animalia	Aspidochirotida	Echinodermata	Parastichopus leukothele	Aspidochirotacea							Eukaryota		V3167-02
 	transect	Allocentrotus fragilis	309.46	3167	01:25:09:26	 	36.82668	-122.16898	2372747	1.11	57:54.0	Ventana	34.161	01:27:00:05	7.022	Echinoidea	Strongylocentrotidae	Allocentrotus			Animalia	Echinoida	Echinodermata	Allocentrotus fragilis	Euechinoidea			Echinacea				Eukaryota		V3167-02
 	transect	Rathbunaster californicus	319.91	3167	00:18:44:14	 	36.824345	-122.169846	2462349	1.12	51:04.0	Ventana	34.162	00:20:40:01	6.992		Labidiasteridae	Rathbunaster			Animalia	Forcipulatida	Echinodermata	Rathbunaster californicus	Asteroidea							Eukaryota		V3167-01
 	transect	Allocentrotus fragilis	309.05	3167	01:34:23:24	 	36.827244	-122.167755	2390044	1.08	07:09.0	Ventana	34.165	01:36:15:11	6.927	Echinoidea	Strongylocentrotidae	Allocentrotus			Animalia	Echinoida	Echinodermata	Allocentrotus fragilis	Euechinoidea			Echinacea				Eukaryota		V3167-02
 	cruise	Parastichopus leukothele	304.7	3167	01:31:41:14	 	36.827896	-122.16784	2389495	1.08	04:26.0	Ventana	34.165	01:33:32:10	6.936	Holothuroidea	Stichopodidae	Parastichopus			Animalia	Aspidochirotida	Echinodermata	Parastichopus leukothele	Aspidochirotacea							Eukaryota		V3167-02
 	transect	Rathbunaster californicus	320.69	3167	00:38:39:07	 	36.824924	-122.17026	2463071	1.15	11:00.0	Ventana	34.153	00:40:35:17	7.064		Labidiasteridae	Rathbunaster			Animalia	Forcipulatida	Echinodermata	Rathbunaster californicus	Asteroidea							Eukaryota		V3167-01
 	cruise	Parastichopus leukothele	104.92	3167	03:55:35:22	 	36.847713	-122.12999	2471084	4.97	29:16.0	Ventana	33.488	03:57:15:12	11.266	Holothuroidea	Stichopodidae	Parastichopus			Animalia	Aspidochirotida	Echinodermata	Parastichopus leukothele	Aspidochirotacea							Eukaryota		V3167-04
 	transect	Allocentrotus fragilis	313.37	3167	01:23:37:15	 	36.82616	-122.16926	2371919	1.07	56:22.0	Ventana	34.166	01:25:28:13	6.924	Echinoidea	Strongylocentrotidae	Allocentrotus			Animalia	Echinoida	Echinodermata	Allocentrotus fragilis	Euechinoidea			Echinacea				Eukaryota		V3167-02
 	transect	Hippasteria	319	3167	00:25:48:01	 	36.82448	-122.1695	2462499	1.13	58:08.0	Ventana	34.159	00:27:45:00	7.019		Goniasteridae	Hippasteria			Animalia	Valvatida	Echinodermata		Asteroidea			Granulosina				Eukaryota		V3167-01
 	transect	Allocentrotus fragilis	303.07	3167	01:29:24:19	 	36.827854	-122.168304	2388976	1.14	02:09.0	Ventana	34.159	01:31:17:05	7.042	Echinoidea	Strongylocentrotidae	Allocentrotus			Animalia	Echinoida	Echinodermata	Allocentrotus fragilis	Euechinoidea			Echinacea				Eukaryota		V3167-02
 	cruise	Sebastes rufus	308.96	3167	01:12:54:19	http://search.mbari.org/ARCHIVE/frameGrabs/Ventana/images/3167/01_14_45_16.jpg	36.826767	-122.16897	2464679	1.11	45:38.0	Ventana	34.162	01:14:45:16	6.987	Osteichthyes	Scorpaenidae	Sebastes	Neopterygii		Animalia	Scorpaeniformes	Chordata	Sebastes rufus	Actinopterygii			Scorpaenoidei	Vertebrata	Gnathostomata		Eukaryota	Acanthopterygii	V3167-02
 	transect	Hippasteria	309.07	3167	01:34:19:25	 	36.827267	-122.16774	2390035	1.08	07:05.0	Ventana	34.165	01:36:12:00	6.933		Goniasteridae	Hippasteria			Animalia	Valvatida	Echinodermata		Asteroidea			Granulosina				Eukaryota		V3167-02
 	cruise	Mediaster aequalis	160.08	3167	02:40:32:26	 	36.837135	-122.15776	2467443	2.79	13:47.0	Ventana	33.906	02:42:15:08	9.464		Goniasteridae	Mediaster			Animalia	Valvatida	Echinodermata	Mediaster aequalis	Asteroidea			Granulosina				Eukaryota		V3167-03
 	cruise	Metridium farcimen	104.76	3167	03:55:53:21	http://search.mbari.org/ARCHIVE/frameGrabs/Ventana/images/3167/03_57_33_04.jpg	36.84778	-122.129845	20024089	4.98	29:34.0	Ventana	33.486	03:57:33:04	11.27	Anthozoa	Metridiidae	Metridium			Animalia	Actiniaria	Cnidaria	Metridium farcimen	Hexacorallia			Nyantheae				Eukaryota		V3167-04
 	transect	Rathbunaster californicus	313.13	3167	01:18:05:25	 	36.825977	-122.168396	2371012	1.07	50:50.0	Ventana	34.165	01:19:56:18	6.914		Labidiasteridae	Rathbunaster			Animalia	Forcipulatida	Echinodermata	Rathbunaster californicus	Asteroidea							Eukaryota		V3167-02
 	transect	Allocentrotus fragilis	305.95	3167	01:27:00:08	 	36.827194	-122.168686	2388332	1.1	59:45.0	Ventana	34.164	01:28:51:24	6.964	Echinoidea	Strongylocentrotidae	Allocentrotus			Animalia	Echinoida	Echinodermata	Allocentrotus fragilis	Euechinoidea			Echinacea				Eukaryota		V3167-02
 	cruise	trench	100.18	3167	04:13:36:26	http://search.mbari.org/ARCHIVE/frameGrabs/Ventana/images/3167/04_15_12_02.jpg	36.85158	-122.12145	2471940	5.01	47:40.0	Ventana	33.485	04:15:12:02	11.279																			V3167-05
 	cruise	Sebastes	262.08	3167	02:08:10:26	 	36.834316	-122.1627	2467766	1.41	41:23.0	Ventana	34.133	02:09:53:21	7.578	Osteichthyes	Scorpaenidae	Sebastes	Neopterygii		Animalia	Scorpaeniformes	Chordata		Actinopterygii			Scorpaenoidei	Vertebrata	Gnathostomata		Eukaryota	Acanthopterygii	V3167-03
 	transect	Rathbunaster californicus	308.76	3167	01:33:23:27	 	36.82762	-122.167656	2389712	1.08	06:08.0	Ventana	34.166	01:35:15:24	6.925		Labidiasteridae	Rathbunaster			Animalia	Forcipulatida	Echinodermata	Rathbunaster californicus	Asteroidea							Eukaryota		V3167-02
 	transect	Sebastes	308.62	3167	01:34:11:25	 	36.82732	-122.167725	2389975	1.08	06:57.0	Ventana	34.165	01:36:02:14	6.933	Osteichthyes	Scorpaenidae	Sebastes	Neopterygii		Animalia	Scorpaeniformes	Chordata		Actinopterygii			Scorpaenoidei	Vertebrata	Gnathostomata		Eukaryota	Acanthopterygii	V3167-02
 	transect	Rathbunaster californicus	319.23	3167	00:25:06:02	 	36.82443	-122.16958	2462469	1.13	57:26.0	Ventana	34.161	00:27:02:13	7.013		Labidiasteridae	Rathbunaster			Animalia	Forcipulatida	Echinodermata	Rathbunaster californicus	Asteroidea							Eukaryota		V3167-01
 	cruise	Sebastes	310.43	3167	01:11:58:21	 	36.826588	-122.16911	2464649	1.11	44:42.0	Ventana	34.161	01:13:49:26	7	Osteichthyes	Scorpaenidae	Sebastes	Neopterygii		Animalia	Scorpaeniformes	Chordata		Actinopterygii			Scorpaenoidei	Vertebrata	Gnathostomata		Eukaryota	Acanthopterygii	V3167-02
 	transect	Rathbunaster californicus	309.18	3167	01:34:32:09	 	36.827194	-122.16777	2390065	1.08	07:17.0	Ventana	34.165	01:36:23:28	6.927		Labidiasteridae	Rathbunaster			Animalia	Forcipulatida	Echinodermata	Rathbunaster californicus	Asteroidea							Eukaryota		V3167-02
 	cruise	Sebastes diploproa	321.6	3167	01:04:16:20	 	36.82423	-122.170265	2464386	1.14	37:00.0	Ventana	34.159	01:06:08:11	7.045	Osteichthyes	Scorpaenidae	Sebastes	Neopterygii		Animalia	Scorpaeniformes	Chordata	Sebastes diploproa	Actinopterygii			Scorpaenoidei	Vertebrata	Gnathostomata		Eukaryota	Acanthopterygii	V3167-02
 	transect	Phyllospadix	167.02	3167	02:24:30:26	 	36.83694	-122.15833	2467150	2.55	57:44.0	Ventana	33.957	02:26:13:02	9.187		Zosteraceae	Phyllospadix			Plantae	Najadales										Eukaryota		V3167-03
 	transect	Rathbunaster californicus	312.24	3167	01:16:51:27	 	36.826344	-122.16816	2370539	1.07	49:35.0	Ventana	34.165	01:18:42:07	6.917		Labidiasteridae	Rathbunaster			Animalia	Forcipulatida	Echinodermata	Rathbunaster californicus	Asteroidea							Eukaryota		V3167-02
 	transect	Allocentrotus fragilis	308.83	3167	01:33:37:26	 	36.827534	-122.16766	2389772	1.07	06:23.0	Ventana	34.166	01:35:28:26	6.926	Echinoidea	Strongylocentrotidae	Allocentrotus			Animalia	Echinoida	Echinodermata	Allocentrotus fragilis	Euechinoidea			Echinacea				Eukaryota		V3167-02
 	transect	Rathbunaster californicus	309.01	3167	01:34:50:09	 	36.827076	-122.16782	2390125	1.08	07:35.0	Ventana	34.165	01:36:41:21	6.933		Labidiasteridae	Rathbunaster			Animalia	Forcipulatida	Echinodermata	Rathbunaster californicus	Asteroidea							Eukaryota		V3167-02
 	transect	Rathbunaster californicus	319.04	3167	00:19:42:27	 	36.824394	-122.169685	2462409	1.14	52:02.0	Ventana	34.158	00:21:38:23	7.03		Labidiasteridae	Rathbunaster			Animalia	Forcipulatida	Echinodermata	Rathbunaster californicus	Asteroidea							Eukaryota		V3167-01
 	cruise	Sebastes diploproa	330.39	3167	00:10:30:14	 	36.822475	-122.17067	2462148	1.11	42:49.0	Ventana	34.162	00:12:26:17	6.953	Osteichthyes	Scorpaenidae	Sebastes	Neopterygii		Animalia	Scorpaeniformes	Chordata	Sebastes diploproa	Actinopterygii			Scorpaenoidei	Vertebrata	Gnathostomata		Eukaryota	Acanthopterygii	V3167-01
 	transect	Sebastes	306.88	3167	01:26:32:09	 	36.827057	-122.168755	2372980	1.17	59:16.0	Ventana	34.157	01:28:24:13	7.079	Osteichthyes	Scorpaenidae	Sebastes	Neopterygii		Animalia	Scorpaeniformes	Chordata		Actinopterygii			Scorpaenoidei	Vertebrata	Gnathostomata		Eukaryota	Acanthopterygii	V3167-02
 	transect	Rathbunaster californicus	322.63	3167	00:58:19:01	 	36.82403	-122.170334	2464236	1.15	31:02.0	Ventana	34.158	01:00:10:09	7.048		Labidiasteridae	Rathbunaster			Animalia	Forcipulatida	Echinodermata	Rathbunaster californicus	Asteroidea							Eukaryota		V3167-02
 	cruise	Sebastes paucispinis	302.72	3167	01:46:09:04	http://search.mbari.org/ARCHIVE/frameGrabs/Ventana/images/3167/01_47_59_16.jpg	36.828552	-122.16792	2390893	1.09	18:55.0	Ventana	34.164	01:47:59:16	6.956	Osteichthyes	Scorpaenidae	Sebastes	Neopterygii		Animalia	Scorpaeniformes	Chordata	Sebastes paucispinis	Actinopterygii			Scorpaenoidei	Vertebrata	Gnathostomata		Eukaryota	Acanthopterygii	V3167-02
 	transect	Sebastes diploproa	308.54	3167	01:25:41:26	 	36.82683	-122.16889	2372807	1.09	58:26.0	Ventana	34.163	01:27:33:23	6.991	Osteichthyes	Scorpaenidae	Sebastes	Neopterygii		Animalia	Scorpaeniformes	Chordata	Sebastes diploproa	Actinopterygii			Scorpaenoidei	Vertebrata	Gnathostomata		Eukaryota	Acanthopterygii	V3167-02
 	transect	Rathbunaster californicus	311.71	3167	01:24:07:14	 	36.826336	-122.16918	2372039	1.07	56:52.0	Ventana	34.165	01:25:58:00	6.925		Labidiasteridae	Rathbunaster			Animalia	Forcipulatida	Echinodermata	Rathbunaster californicus	Asteroidea							Eukaryota		V3167-02
 	transect	Agonidae	305.12	3167	01:27:50:07	 	36.827454	-122.16855	2464942	1.12	00:35.0	Ventana	34.159	01:29:41:00	7.026	Osteichthyes	Agonidae		Neopterygii		Animalia	Scorpaeniformes	Chordata		Actinopterygii				Vertebrata	Gnathostomata		Eukaryota	Acanthopterygii	V3167-02
 	transect	Rathbunaster californicus	315.85	3167	01:22:31:02	 	36.825768	-122.16944	2371686	1.08	55:15.0	Ventana	34.164	01:24:23:04	6.938		Labidiasteridae	Rathbunaster			Animalia	Forcipulatida	Echinodermata	Rathbunaster californicus	Asteroidea							Eukaryota		V3167-02
 	transect	Rathbunaster californicus	319.42	3167	00:28:26:26	 	36.82472	-122.1691	2462792	1.14	00:47.0	Ventana	34.159	00:30:21:28	7.024		Labidiasteridae	Rathbunaster			Animalia	Forcipulatida	Echinodermata	Rathbunaster californicus	Asteroidea							Eukaryota		V3167-01
 	transect	Parmaturus xaniurus	321.79	3167	00:45:14:25	 	36.8248	-122.1704	2463145	1.14	17:36.0	Ventana	34.164	00:47:11:09	7.036	Chondrichthyes	Scyliorhinidae	Parmaturus			Animalia	Carcharhiniformes	Chordata	Parmaturus xaniurus	Elasmobranchii				Vertebrata			Eukaryota	Galeomorphi	V3167-01
 	transect	Parastichopus leukothele	308.83	3167	01:33:57:25	 	36.827408	-122.167694	2389915	1.08	06:43.0	Ventana	34.165	01:35:49:16	6.927	Holothuroidea	Stichopodidae	Parastichopus			Animalia	Aspidochirotida	Echinodermata	Parastichopus leukothele	Aspidochirotacea							Eukaryota		V3167-02
 	transect	Corallimorphus pilatus	304.79	3167	01:28:24:20	 	36.827618	-122.16845	2464972	1.1	01:09.0	Ventana	34.162	01:30:15:17	6.963	Anthozoa	Corallimorphidae	Corallimorphus			Animalia	Corallimorpharia	Cnidaria	Corallimorphus pilatus	Hexacorallia							Eukaryota		V3167-02
 	transect	Parastichopus leukothele	316	3167	01:19:40:07	 	36.825485	-122.16891	2371363	1.08	52:24.0	Ventana	34.166	01:21:31:19	6.929	Holothuroidea	Stichopodidae	Parastichopus			Animalia	Aspidochirotida	Echinodermata	Parastichopus leukothele	Aspidochirotacea							Eukaryota		V3167-02
 	transect	Rathbunaster californicus	322.68	3167	00:59:01:15	 	36.823948	-122.170235	2464266	1.14	31:44.0	Ventana	34.157	01:00:52:18	7.047		Labidiasteridae	Rathbunaster			Animalia	Forcipulatida	Echinodermata	Rathbunaster californicus	Asteroidea							Eukaryota		V3167-02
 	transect	Hippasteria	315.51	3167	01:22:41:01	 	36.825825	-122.16941	2371716	1.08	55:25.0	Ventana	34.166	01:24:33:21	6.927		Goniasteridae	Hippasteria			Animalia	Valvatida	Echinodermata		Asteroidea			Granulosina				Eukaryota		V3167-02
 	cruise	Allocentrotus fragilis	311.53	3167	01:11:10:07	 	36.826355	-122.169235	2464619	1.09	43:54.0	Ventana	34.165	01:13:01:21	6.948	Echinoidea	Strongylocentrotidae	Allocentrotus			Animalia	Echinoida	Echinodermata	Allocentrotus fragilis	Euechinoidea			Echinacea				Eukaryota		V3167-02
 	transect	Rathbunaster californicus	313.66	3167	01:18:54:08	 	36.82573	-122.16868	2371215	1.1	51:38.0	Ventana	34.163	01:20:45:22	6.956		Labidiasteridae	Rathbunaster			Animalia	Forcipulatida	Echinodermata	Rathbunaster californicus	Asteroidea							Eukaryota		V3167-02
 	transect	Rathbunaster californicus	309.27	3167	01:34:38:09	 	36.82714	-122.16779	2390095	1.08	07:23.0	Ventana	34.165	01:36:29:19	6.933		Labidiasteridae	Rathbunaster			Animalia	Forcipulatida	Echinodermata	Rathbunaster californicus	Asteroidea							Eukaryota		V3167-02
 	cruise	physical object	332.96	3167	00:09:04:02	http://search.mbari.org/ARCHIVE/frameGrabs/Ventana/images/3167/00_11_00_26.jpg	36.82212	-122.17082	2462118	1.11	41:23.0	Ventana	34.161	00:11:00:26	6.966																			V3167-01
 	transect	Stomphia	311.4	3167	01:24:11:13	 	36.82636	-122.16917	2372069	1.08	56:56.0	Ventana	34.164	01:26:03:00	6.927	Anthozoa	Actinostolidae	Stomphia			Animalia	Actiniaria	Cnidaria		Hexacorallia			Nyantheae				Eukaryota		V3167-02
 	transect	Rathbunaster californicus	308.88	3167	01:33:31:26	 	36.827568	-122.16766	2389742	1.08	06:17.0	Ventana	34.166	01:35:22:12	6.925		Labidiasteridae	Rathbunaster			Animalia	Forcipulatida	Echinodermata	Rathbunaster californicus	Asteroidea							Eukaryota		V3167-02
 	transect	Rathbunaster californicus	314.82	3167	01:22:57:00	 	36.825916	-122.16937	2371769	1.07	55:41.0	Ventana	34.165	01:24:48:12	6.926		Labidiasteridae	Rathbunaster			Animalia	Forcipulatida	Echinodermata	Rathbunaster californicus	Asteroidea							Eukaryota		V3167-02
 	transect	Allocentrotus fragilis	305.15	3167	01:27:36:07	 	36.82738	-122.16859	2388565	1.11	00:21.0	Ventana	34.162	01:29:27:26	6.992	Echinoidea	Strongylocentrotidae	Allocentrotus			Animalia	Echinoida	Echinodermata	Allocentrotus fragilis	Euechinoidea			Echinacea				Eukaryota		V3167-02
 	transect	Parastichopus leukothele	320.39	3167	00:18:12:15	http://search.mbari.org/ARCHIVE/frameGrabs/Ventana/images/3167/00_20_08_06.jpg	36.82432	-122.16995	2462296	1.11	50:32.0	Ventana	34.161	00:20:08:06	6.984	Holothuroidea	Stichopodidae	Parastichopus			Animalia	Aspidochirotida	Echinodermata	Parastichopus leukothele	Aspidochirotacea							Eukaryota		V3167-01
 	transect	Allocentrotus fragilis	318.87	3167	00:37:36:24	 	36.824905	-122.17005	2463002	1.16	09:57.0	Ventana	34.156	00:39:33:11	7.075	Echinoidea	Strongylocentrotidae	Allocentrotus			Animalia	Echinoida	Echinodermata	Allocentrotus fragilis	Euechinoidea			Echinacea				Eukaryota		V3167-01
 	cruise	Rathbunaster californicus	108.94	3167	03:39:07:22	 	36.844418	-122.13696	2471001	4.6	12:47.0	Ventana	33.546	03:40:47:06	11.102		Labidiasteridae	Rathbunaster			Animalia	Forcipulatida	Echinodermata	Rathbunaster californicus	Asteroidea							Eukaryota		V3167-04
 	transect	Rathbunaster californicus	309.53	3167	01:35:10:08	 	36.826958	-122.16791	2390208	1.08	07:55.0	Ventana	34.163	01:37:01:07	6.95		Labidiasteridae	Rathbunaster			Animalia	Forcipulatida	Echinodermata	Rathbunaster californicus	Asteroidea							Eukaryota		V3167-02
 	transect	Rathbunaster californicus	312.5	3167	01:17:07:27	 	36.826263	-122.16817	2370749	1.07	49:51.0	Ventana	34.166	01:18:59:09	6.915		Labidiasteridae	Rathbunaster			Animalia	Forcipulatida	Echinodermata	Rathbunaster californicus	Asteroidea							Eukaryota		V3167-02
 	cruise	Parastichopus leukothele	158.04	3167	02:27:49:19	 	36.837208	-122.15789	2467300	2.73	01:03.0	Ventana	33.924	02:29:33:07	9.41	Holothuroidea	Stichopodidae	Parastichopus			Animalia	Aspidochirotida	Echinodermata	Parastichopus leukothele	Aspidochirotacea							Eukaryota		V3167-03
 	transect	Stomphia	314.98	3167	01:22:49:01	 	36.82587	-122.16939	2371739	1.08	55:33.0	Ventana	34.166	01:24:41:01	6.927	Anthozoa	Actinostolidae	Stomphia			Animalia	Actiniaria	Cnidaria		Hexacorallia			Nyantheae				Eukaryota		V3167-02
 	transect	Gastropoda	318.35	3167	00:36:22:27	 	36.824883	-122.16978	2462972	1.15	08:43.0	Ventana	34.158	00:38:17:24	7.055	Gastropoda					Animalia		Mollusca									Eukaryota		V3167-01
 	transect	Rathbunaster californicus	308.83	3167	01:33:57:25	 	36.827408	-122.167694	2389892	1.08	06:43.0	Ventana	34.165	01:35:49:16	6.927		Labidiasteridae	Rathbunaster			Animalia	Forcipulatida	Echinodermata	Rathbunaster californicus	Asteroidea							Eukaryota		V3167-02
 	cruise	Hydrolagus colliei	308.96	3167	01:51:24:09	 	36.829987	-122.1671	2465496	1.09	24:10.0	Ventana	34.163	01:53:14:25	6.957	Chondrichthyes	Chimaeridae	Hydrolagus			Animalia	Chimaeriformes	Chordata	Hydrolagus colliei	Holocephali			Chimaeroidei	Vertebrata			Eukaryota	Holocephalimorpha	V3167-02
 	transect	Rathbunaster californicus	308.95	3167	01:33:43:26	 	36.827496	-122.16767	2389802	1.07	06:29.0	Ventana	34.166	01:35:35:11	6.926		Labidiasteridae	Rathbunaster			Animalia	Forcipulatida	Echinodermata	Rathbunaster californicus	Asteroidea							Eukaryota		V3167-02
 	cruise	sediment	303.29	3167	01:31:31:15	http://search.mbari.org/ARCHIVE/frameGrabs/Ventana/images/3167/01_33_23_08.jpg	36.82792	-122.167885	20023999	1.08	04:16.0	Ventana	34.165	01:33:23:08	6.94																			V3167-02
 	transect	Allocentrotus fragilis	305.1	3167	01:27:48:21	 	36.827442	-122.16855	2388595	1.12	00:33.0	Ventana	34.159	01:29:40:03	7.026	Echinoidea	Strongylocentrotidae	Allocentrotus			Animalia	Echinoida	Echinodermata	Allocentrotus fragilis	Euechinoidea			Echinacea				Eukaryota		V3167-02
 	transect	Phyllospadix	163.33	3167	02:30:56:14	 	36.83746	-122.158485	2467330	2.66	04:10.0	Ventana	33.941	02:32:39:24	9.298		Zosteraceae	Phyllospadix			Plantae	Najadales										Eukaryota		V3167-03
 	transect	Allocentrotus fragilis	313.33	3167	01:18:46:08	 	36.82577	-122.16863	2371185	1.11	51:30.0	Ventana	34.161	01:20:38:13	6.99	Echinoidea	Strongylocentrotidae	Allocentrotus			Animalia	Echinoida	Echinodermata	Allocentrotus fragilis	Euechinoidea			Echinacea				Eukaryota		V3167-02
 	transect	Rathbunaster californicus	313.24	3167	01:18:17:24	 	36.825912	-122.16847	2371095	1.08	51:02.0	Ventana	34.161	01:20:09:10	6.953		Labidiasteridae	Rathbunaster			Animalia	Forcipulatida	Echinodermata	Rathbunaster californicus	Asteroidea							Eukaryota		V3167-02
 	transect	Mediaster aequalis	323.18	3167	00:49:44:02	 	36.824463	-122.1707	2463265	1.18	22:05.0	Ventana	34.154	00:51:39:16	7.11		Goniasteridae	Mediaster			Animalia	Valvatida	Echinodermata	Mediaster aequalis	Asteroidea			Granulosina				Eukaryota		V3167-01
 	transect	Raja rhina	303.73	3167	01:29:00:19	 	36.82776	-122.168365	2388893	1.09	01:45.0	Ventana	34.163	01:30:52:17	6.964	Chondrichthyes	Rajidae	Raja			Animalia	Rajiformes	Chordata	Raja rhina	Elasmobranchii				Vertebrata			Eukaryota	Batoidea	V3167-02
 	transect	Parastichopus leukothele	164.38	3167	02:25:31:09	 	36.836987	-122.15816	2467203	2.65	58:45.0	Ventana	33.943	02:27:13:01	9.291	Holothuroidea	Stichopodidae	Parastichopus			Animalia	Aspidochirotida	Echinodermata	Parastichopus leukothele	Aspidochirotacea							Eukaryota		V3167-03
 	cruise	Sebastes	339.88	3167	00:04:49:09	 	36.820724	-122.17123	2459615	1.1	37:07.0	Ventana	34.161	00:06:45:24	6.936	Osteichthyes	Scorpaenidae	Sebastes	Neopterygii		Animalia	Scorpaeniformes	Chordata		Actinopterygii			Scorpaenoidei	Vertebrata	Gnathostomata		Eukaryota	Acanthopterygii	V3167-01
 	transect	Mediaster aequalis	309.56	3167	01:25:03:27	 	36.82665	-122.169	2372738	1.09	57:48.0	Ventana	34.165	01:26:54:16	6.968		Goniasteridae	Mediaster			Animalia	Valvatida	Echinodermata	Mediaster aequalis	Asteroidea			Granulosina				Eukaryota		V3167-02
 	transect	Sebastes	305.19	3167	01:27:22:08	 	36.82731	-122.168625	2388482	1.1	00:07.0	Ventana	34.163	01:29:12:16	6.962	Osteichthyes	Scorpaenidae	Sebastes	Neopterygii		Animalia	Scorpaeniformes	Chordata		Actinopterygii			Scorpaenoidei	Vertebrata	Gnathostomata		Eukaryota	Acanthopterygii	V3167-02
 	transect	Allocentrotus fragilis	304.33	3167	01:28:42:20	 	36.82769	-122.1684	2388828	1.09	01:27.0	Ventana	34.165	01:30:33:17	6.947	Echinoidea	Strongylocentrotidae	Allocentrotus			Animalia	Echinoida	Echinodermata	Allocentrotus fragilis	Euechinoidea			Echinacea				Eukaryota		V3167-02
 	transect	Sabellida	320.62	3167	00:38:37:08	 	36.824924	-122.17025	2463062	1.15	10:58.0	Ventana	34.153	00:40:32:15	7.064	Polychaeta					Animalia	Sabellida	Annelida		Palpata							Eukaryota	Canalipalpata	V3167-01
 	transect	Allocentrotus fragilis	314.85	3167	01:23:13:15	 	36.826015	-122.16933	2371829	1.07	55:57.0	Ventana	34.165	01:25:04:28	6.923	Echinoidea	Strongylocentrotidae	Allocentrotus			Animalia	Echinoida	Echinodermata	Allocentrotus fragilis	Euechinoidea			Echinacea				Eukaryota		V3167-02
 	transect	Rathbunaster californicus	309.57	3167	01:35:04:08	 	36.826992	-122.16788	2390178	1.08	07:49.0	Ventana	34.164	01:36:54:18	6.94		Labidiasteridae	Rathbunaster			Animalia	Forcipulatida	Echinodermata	Rathbunaster californicus	Asteroidea							Eukaryota		V3167-02
 	transect	Allocentrotus fragilis	304.49	3167	01:28:36:20	 	36.827667	-122.16842	2388798	1.1	01:21.0	Ventana	34.162	01:30:27:08	6.963	Echinoidea	Strongylocentrotidae	Allocentrotus			Animalia	Echinoida	Echinodermata	Allocentrotus fragilis	Euechinoidea			Echinacea				Eukaryota		V3167-02
 	transect	Allocentrotus fragilis	319.72	3167	00:38:13:08	 	36.824917	-122.17017	2463032	1.15	10:34.0	Ventana	34.155	00:40:08:24	7.058	Echinoidea	Strongylocentrotidae	Allocentrotus			Animalia	Echinoida	Echinodermata	Allocentrotus fragilis	Euechinoidea			Echinacea				Eukaryota		V3167-01
 	transect	Rathbunaster californicus	316.32	3167	01:22:13:02	 	36.82567	-122.16948	2371626	1.09	54:57.0	Ventana	34.163	01:24:05:04	6.958		Labidiasteridae	Rathbunaster			Animalia	Forcipulatida	Echinodermata	Rathbunaster californicus	Asteroidea							Eukaryota		V3167-02
 	transect	Rathbunaster californicus	319.24	3167	00:26:48:14	 	36.82458	-122.16934	2462702	1.14	59:08.0	Ventana	34.158	00:28:43:22	7.033		Labidiasteridae	Rathbunaster			Animalia	Forcipulatida	Echinodermata	Rathbunaster californicus	Asteroidea							Eukaryota		V3167-01
 	transect	Sabellida	322.53	3167	00:48:19:19	 	36.82467	-122.17083	2463235	1.19	20:41.0	Ventana	34.154	00:50:15:04	7.121	Polychaeta					Animalia	Sabellida	Annelida		Palpata							Eukaryota	Canalipalpata	V3167-01
 	transect	Allocentrotus fragilis	303.48	3167	01:29:08:19	 	36.827793	-122.16835	2388923	1.12	01:53.0	Ventana	34.159	01:31:01:09	7.03	Echinoidea	Strongylocentrotidae	Allocentrotus			Animalia	Echinoida	Echinodermata	Allocentrotus fragilis	Euechinoidea			Echinacea				Eukaryota		V3167-02
 	transect	Allocentrotus fragilis	305.06	3167	01:27:58:21	 	36.827496	-122.168526	2388625	1.16	00:43.0	Ventana	34.154	01:29:49:26	7.099	Echinoidea	Strongylocentrotidae	Allocentrotus			Animalia	Echinoida	Echinodermata	Allocentrotus fragilis	Euechinoidea			Echinacea				Eukaryota		V3167-02
 	cruise	Raja rhina	302.25	3167	01:31:01:00	 	36.827976	-122.16802	2389472	1.09	03:46.0	Ventana	34.164	01:32:52:26	6.953	Chondrichthyes	Rajidae	Raja			Animalia	Rajiformes	Chordata	Raja rhina	Elasmobranchii				Vertebrata			Eukaryota	Batoidea	V3167-02
 	transect	Rathbunaster californicus	308.62	3167	01:34:13:25	http://search.mbari.org/ARCHIVE/frameGrabs/Ventana/images/3167/01_36_06_06.jpg	36.827305	-122.167725	2390005	1.08	06:59.0	Ventana	34.165	01:36:06:06	6.933		Labidiasteridae	Rathbunaster			Animalia	Forcipulatida	Echinodermata	Rathbunaster californicus	Asteroidea							Eukaryota		V3167-02
 	cruise	Stylasterias forreri	283.67	3167	02:02:41:21	 	36.833057	-122.16434	2467736	1.14	35:54.0	Ventana	34.158	02:04:24:16	7.055		Asteriidae	Stylasterias			Animalia	Forcipulatida	Echinodermata	Stylasterias forreri	Asteroidea							Eukaryota		V3167-03
 	transect	Parastichopus leukothele	308.92	3167	01:33:45:26	 	36.827484	-122.16767	2389832	1.07	06:31.0	Ventana	34.166	01:35:38:01	6.926	Holothuroidea	Stichopodidae	Parastichopus			Animalia	Aspidochirotida	Echinodermata	Parastichopus leukothele	Aspidochirotacea							Eukaryota		V3167-02
 	transect	Rathbunaster californicus	312.35	3167	01:16:55:27	 	36.826324	-122.16816	2370576	1.07	49:39.0	Ventana	34.166	01:18:46:25	6.915		Labidiasteridae	Rathbunaster			Animalia	Forcipulatida	Echinodermata	Rathbunaster californicus	Asteroidea							Eukaryota		V3167-02
 	transect	Phyllospadix	170.39	3167	02:34:39:22	 	36.8373	-122.15908	2467360	2.68	07:53.0	Ventana	33.939	02:36:21:13	9.345		Zosteraceae	Phyllospadix			Plantae	Najadales										Eukaryota		V3167-03
 	transect	Rathbunaster californicus	310.49	3167	01:24:41:27	 	36.826527	-122.169075	2372708	1.08	57:26.0	Ventana	34.165	01:26:33:24	6.934		Labidiasteridae	Rathbunaster			Animalia	Forcipulatida	Echinodermata	Rathbunaster californicus	Asteroidea							Eukaryota		V3167-02
 	cruise	Rathbunaster californicus	307.41	3167	01:37:22:19	 	36.8268	-122.16872	2390773	1.08	10:08.0	Ventana	34.165	01:39:13:21	6.933		Labidiasteridae	Rathbunaster			Animalia	Forcipulatida	Echinodermata	Rathbunaster californicus	Asteroidea							Eukaryota		V3167-02
 	cruise	Hippasteria	336.1	3167	00:06:27:22	 	36.82126	-122.17113	2462028	1.11	38:46.0	Ventana	34.161	00:08:24:06	6.949		Goniasteridae	Hippasteria			Animalia	Valvatida	Echinodermata		Asteroidea			Granulosina				Eukaryota		V3167-01
 	cruise	Parastichopus leukothele	115.7	3167	03:07:11:21	 	36.84139	-122.14642	2468387	3.67	40:49.0	Ventana	33.714	03:08:51:21	10.456	Holothuroidea	Stichopodidae	Parastichopus			Animalia	Aspidochirotida	Echinodermata	Parastichopus leukothele	Aspidochirotacea							Eukaryota		V3167-04
 	cruise	cable	229.7	3167	02:13:12:17	http://search.mbari.org/ARCHIVE/frameGrabs/Ventana/images/3167/02_14_55_01.jpg	36.835396	-122.16114	2467819	1.63	46:25.0	Ventana	34.109	02:14:55:01	7.929																			V3167-03
 	cruise	Rathbunaster californicus	110.73	3167	03:27:46:28	 	36.84287	-122.13961	2468786	4.54	01:26.0	Ventana	33.551	03:29:25:26	11.082		Labidiasteridae	Rathbunaster			Animalia	Forcipulatida	Echinodermata	Rathbunaster californicus	Asteroidea							Eukaryota		V3167-04
 	transect	Rathbunaster californicus	313.83	3167	01:23:31:15	 	36.826122	-122.16928	2371896	1.07	56:15.0	Ventana	34.166	01:25:22:05	6.924		Labidiasteridae	Rathbunaster			Animalia	Forcipulatida	Echinodermata	Rathbunaster californicus	Asteroidea							Eukaryota		V3167-02
 	transect	Allocentrotus fragilis	303.07	3167	01:29:24:19	 	36.827854	-122.168304	2388983	1.14	02:09.0	Ventana	34.159	01:31:17:05	7.042	Echinoidea	Strongylocentrotidae	Allocentrotus			Animalia	Echinoida	Echinodermata	Allocentrotus fragilis	Euechinoidea			Echinacea				Eukaryota		V3167-02
 	cruise	Rathbunaster californicus	100.59	3167	04:10:34:02	 	36.85089	-122.12293	2471903	5.04	44:37.0	Ventana	33.482	04:12:10:09	11.287		Labidiasteridae	Rathbunaster			Animalia	Forcipulatida	Echinodermata	Rathbunaster californicus	Asteroidea							Eukaryota		V3167-05
 	transect	Rathbunaster californicus	308.76	3167	01:33:23:27	 	36.82762	-122.167656	2389705	1.08	06:08.0	Ventana	34.166	01:35:15:24	6.925		Labidiasteridae	Rathbunaster			Animalia	Forcipulatida	Echinodermata	Rathbunaster californicus	Asteroidea							Eukaryota		V3167-02
 	cruise	Agonidae	320.04	3167	00:28:40:25	 	36.824734	-122.169075	2462799	1.13	01:01.0	Ventana	34.16	00:30:36:11	7.022	Osteichthyes	Agonidae		Neopterygii		Animalia	Scorpaeniformes	Chordata		Actinopterygii				Vertebrata	Gnathostomata		Eukaryota	Acanthopterygii	V3167-01
 	cruise	cable	145.7	3167	02:44:36:04	http://search.mbari.org/ARCHIVE/frameGrabs/Ventana/images/3167/02_46_18_10.jpg	36.837643	-122.156265	2467466	2.91	17:50.0	Ventana	33.869	02:46:18:10	9.616																			V3167-03
 	transect	Rathbunaster californicus	309.28	3167	01:34:30:09	 	36.827206	-122.16777	2390058	1.08	07:15.0	Ventana	34.165	01:36:21:21	6.927		Labidiasteridae	Rathbunaster			Animalia	Forcipulatida	Echinodermata	Rathbunaster californicus	Asteroidea							Eukaryota		V3167-02
 	transect	Psolus squamatus	322.79	3167	00:59:09:15	 	36.823936	-122.17022	2464273	1.14	31:52.0	Ventana	34.157	01:01:01:15	7.047	Holothuroidea	Psolidae	Psolus			Animalia	Dendrochirotida	Echinodermata	Psolus squamatus								Eukaryota		V3167-02
 	transect	Rathbunaster californicus	310.65	3167	01:24:33:27	 	36.82648	-122.169106	2372678	1.08	57:18.0	Ventana	34.165	01:26:24:19	6.93		Labidiasteridae	Rathbunaster			Animalia	Forcipulatida	Echinodermata	Rathbunaster californicus	Asteroidea							Eukaryota		V3167-02
 	transect	Rathbunaster californicus	315.61	3167	01:19:30:07	 	36.82553	-122.16885	2371298	1.09	52:14.0	Ventana	34.163	01:21:21:17	6.954		Labidiasteridae	Rathbunaster			Animalia	Forcipulatida	Echinodermata	Rathbunaster californicus	Asteroidea							Eukaryota		V3167-02
 	cruise	Rathbunaster californicus	115.92	3167	03:06:27:22	 	36.841297	-122.14687	2468357	3.69	40:05.0	Ventana	33.705	03:08:07:18	10.492		Labidiasteridae	Rathbunaster			Animalia	Forcipulatida	Echinodermata	Rathbunaster californicus	Asteroidea							Eukaryota		V3167-04
 	transect	Allocentrotus fragilis	313.09	3167	01:23:39:14	 	36.82617	-122.16926	2371926	1.08	56:24.0	Ventana	34.165	01:25:30:15	6.929	Echinoidea	Strongylocentrotidae	Allocentrotus			Animalia	Echinoida	Echinodermata	Allocentrotus fragilis	Euechinoidea			Echinacea				Eukaryota		V3167-02
 	cruise	Mediaster aequalis	190.69	3167	02:18:29:22	 	36.836403	-122.159615	2467879	2.19	51:42.0	Ventana	34.017	02:20:13:04	8.744		Goniasteridae	Mediaster			Animalia	Valvatida	Echinodermata	Mediaster aequalis	Asteroidea			Granulosina				Eukaryota		V3167-03
 	transect	Allocentrotus fragilis	312.3	3167	01:16:53:27	 	36.826332	-122.16816	2370546	1.07	49:37.0	Ventana	34.165	01:18:45:03	6.917	Echinoidea	Strongylocentrotidae	Allocentrotus			Animalia	Echinoida	Echinodermata	Allocentrotus fragilis	Euechinoidea			Echinacea				Eukaryota		V3167-02
 	transect	Parastichopus leukothele	308.79	3167	01:32:55:12	 	36.827724	-122.16764	2389599	1.08	05:40.0	Ventana	34.165	01:34:48:01	6.927	Holothuroidea	Stichopodidae	Parastichopus			Animalia	Aspidochirotida	Echinodermata	Parastichopus leukothele	Aspidochirotacea							Eukaryota		V3167-02
 	cruise	Agonidae	305.28	3167	01:39:25:15	 	36.827328	-122.168594	2390810	1.08	12:10.0	Ventana	34.165	01:41:16:22	6.94	Osteichthyes	Agonidae		Neopterygii		Animalia	Scorpaeniformes	Chordata		Actinopterygii				Vertebrata	Gnathostomata		Eukaryota	Acanthopterygii	V3167-02
 	transect	Rathbunaster californicus	313.09	3167	01:18:03:25	 	36.82599	-122.16838	2371005	1.07	50:48.0	Ventana	34.165	01:19:55:02	6.914		Labidiasteridae	Rathbunaster			Animalia	Forcipulatida	Echinodermata	Rathbunaster californicus	Asteroidea							Eukaryota		V3167-02
 	transect	Allocentrotus fragilis	305.49	3167	01:27:16:08	 	36.82728	-122.16864	2388415	1.1	00:01.0	Ventana	34.163	01:29:07:00	6.962	Echinoidea	Strongylocentrotidae	Allocentrotus			Animalia	Echinoida	Echinodermata	Allocentrotus fragilis	Euechinoidea			Echinacea				Eukaryota		V3167-02
 	cruise	Merluccius productus	326.65	3167	00:13:03:09	 	36.823273	-122.170494	2462183	1.13	45:22.0	Ventana	34.159	00:15:00:02	6.999	Osteichthyes	Merlucciidae	Merluccius	Neopterygii		Animalia	Gadiformes	Chordata	Merluccius productus	Actinopterygii				Vertebrata	Gnathostomata		Eukaryota	Paracanthopterygii	V3167-01
 	transect	Rathbunaster californicus	314.7	3167	01:23:15:15	 	36.82603	-122.16932	2371836	1.07	55:59.0	Ventana	34.165	01:25:06:20	6.923		Labidiasteridae	Rathbunaster			Animalia	Forcipulatida	Echinodermata	Rathbunaster californicus	Asteroidea							Eukaryota		V3167-02
 	transect	Ceriantharia sp. 3	306.89	3167	01:26:30:09	 	36.827053	-122.16876	2372957	1.17	59:14.0	Ventana	34.157	01:28:21:10	7.079	Anthozoa					Animalia	Ceriantharia	Cnidaria		Ceriantipatharia							Eukaryota		V3167-02
 	transect	Rathbunaster californicus	308.95	3167	01:33:43:26	 	36.827496	-122.16767	2389795	1.07	06:29.0	Ventana	34.166	01:35:35:11	6.926		Labidiasteridae	Rathbunaster			Animalia	Forcipulatida	Echinodermata	Rathbunaster californicus	Asteroidea							Eukaryota		V3167-02
 	transect	Allocentrotus fragilis	319.55	3167	00:19:12:13	 	36.824375	-122.169754	2462386	1.14	51:32.0	Ventana	34.159	00:21:08:15	7.025	Echinoidea	Strongylocentrotidae	Allocentrotus			Animalia	Echinoida	Echinodermata	Allocentrotus fragilis	Euechinoidea			Echinacea				Eukaryota		V3167-01
 	transect	Sebastes	309.01	3167	01:34:56:08	 	36.827038	-122.16785	2390148	1.08	07:41.0	Ventana	34.164	01:36:48:12	6.94	Osteichthyes	Scorpaenidae	Sebastes	Neopterygii		Animalia	Scorpaeniformes	Chordata		Actinopterygii			Scorpaenoidei	Vertebrata	Gnathostomata		Eukaryota	Acanthopterygii	V3167-02
 	cruise	Sebastes diploproa	320.08	3167	01:04:58:19	 	36.82446	-122.1702	2464409	1.13	37:42.0	Ventana	34.159	01:06:51:03	7.035	Osteichthyes	Scorpaenidae	Sebastes	Neopterygii		Animalia	Scorpaeniformes	Chordata	Sebastes diploproa	Actinopterygii			Scorpaenoidei	Vertebrata	Gnathostomata		Eukaryota	Acanthopterygii	V3167-02
 	transect	Rathbunaster californicus	308.9	3167	01:34:07:25	 	36.827343	-122.16771	2389968	1.08	06:53.0	Ventana	34.165	01:35:58:22	6.933		Labidiasteridae	Rathbunaster			Animalia	Forcipulatida	Echinodermata	Rathbunaster californicus	Asteroidea							Eukaryota		V3167-02
 	transect	Rathbunaster californicus	313.18	3167	01:18:09:25	 	36.825947	-122.168434	2371065	1.08	50:54.0	Ventana	34.161	01:20:01:27	6.953		Labidiasteridae	Rathbunaster			Animalia	Forcipulatida	Echinodermata	Rathbunaster californicus	Asteroidea							Eukaryota		V3167-02
 	cruise	Hippasteria	311.71	3167	01:10:56:08	 	36.826294	-122.169266	2464612	1.1	43:40.0	Ventana	34.163	01:12:48:06	6.969		Goniasteridae	Hippasteria			Animalia	Valvatida	Echinodermata		Asteroidea			Granulosina				Eukaryota		V3167-02
 	cruise	Hippasteria	330.86	3167	00:10:10:15	 	36.822395	-122.1707	2462141	1.11	42:29.0	Ventana	34.165	00:12:06:20	6.96		Goniasteridae	Hippasteria			Animalia	Valvatida	Echinodermata		Asteroidea			Granulosina				Eukaryota		V3167-01
 	cruise	cable	136.65	3167	02:49:17:10	http://search.mbari.org/ARCHIVE/frameGrabs/Ventana/images/3167/02_50_59_29.jpg	36.838352	-122.15435	20024052	2.95	22:32.0	Ventana	33.851	02:50:59:29	9.695																			V3167-03
 	transect	Allocentrotus fragilis	305.82	3167	01:27:06:08	 	36.827225	-122.16867	2388355	1.1	59:51.0	Ventana	34.164	01:28:58:15	6.964	Echinoidea	Strongylocentrotidae	Allocentrotus			Animalia	Echinoida	Echinodermata	Allocentrotus fragilis	Euechinoidea			Echinacea				Eukaryota		V3167-02
 	transect	Rathbunaster californicus	308.74	3167	01:34:03:25	 	36.82737	-122.1677	2389938	1.08	06:49.0	Ventana	34.165	01:35:55:17	6.927		Labidiasteridae	Rathbunaster			Animalia	Forcipulatida	Echinodermata	Rathbunaster californicus	Asteroidea							Eukaryota		V3167-02
 	transect	Rathbunaster californicus	314.62	3167	01:23:23:15	 	36.826073	-122.1693	2371866	1.07	56:07.0	Ventana	34.165	01:25:13:28	6.923		Labidiasteridae	Rathbunaster			Animalia	Forcipulatida	Echinodermata	Rathbunaster californicus	Asteroidea							Eukaryota		V3167-02
 	transect	Rathbunaster californicus	310.68	3167	01:16:13:13	 	36.82653	-122.16821	2370486	1.07	48:57.0	Ventana	34.166	01:18:05:12	6.923		Labidiasteridae	Rathbunaster			Animalia	Forcipulatida	Echinodermata	Rathbunaster californicus	Asteroidea							Eukaryota		V3167-02
 	transect	Allocentrotus fragilis	306.88	3167	01:26:32:09	 	36.827057	-122.168755	2372987	1.17	59:16.0	Ventana	34.157	01:28:24:13	7.079	Echinoidea	Strongylocentrotidae	Allocentrotus			Animalia	Echinoida	Echinodermata	Allocentrotus fragilis	Euechinoidea			Echinacea				Eukaryota		V3167-02
 	transect	Sebastes	308.75	3167	01:33:33:26	 	36.827557	-122.16766	2389765	1.08	06:19.0	Ventana	34.166	01:35:25:26	6.925	Osteichthyes	Scorpaenidae	Sebastes	Neopterygii		Animalia	Scorpaeniformes	Chordata		Actinopterygii			Scorpaenoidei	Vertebrata	Gnathostomata		Eukaryota	Acanthopterygii	V3167-02
 	transect	Rathbunaster californicus	311.4	3167	01:24:11:13	 	36.82636	-122.16917	2372062	1.08	56:56.0	Ventana	34.164	01:26:03:00	6.927		Labidiasteridae	Rathbunaster			Animalia	Forcipulatida	Echinodermata	Rathbunaster californicus	Asteroidea							Eukaryota		V3167-02
 	cruise	Osteichthyes	103.41	3167	04:00:46:27	 	36.84887	-122.127686	2471700	5.04	34:28.0	Ventana	33.477	04:02:26:03	11.294	Osteichthyes					Animalia		Chordata						Vertebrata	Gnathostomata		Eukaryota		V3167-04
 	transect	Pleuronectiformes	305.77	3167	01:27:10:08	 	36.827248	-122.168655	2388385	1.1	59:55.0	Ventana	34.163	01:29:00:29	6.962	Osteichthyes			Neopterygii		Animalia	Pleuronectiformes	Chordata		Actinopterygii				Vertebrata	Gnathostomata		Eukaryota	Acanthopterygii	V3167-02
 	transect	Rathbunaster californicus	314.63	3167	01:19:06:08	 	36.82566	-122.16873	2371238	1.1	51:50.0	Ventana	34.163	01:20:58:10	6.956		Labidiasteridae	Rathbunaster			Animalia	Forcipulatida	Echinodermata	Rathbunaster californicus	Asteroidea							Eukaryota		V3167-02
 	transect	Rathbunaster californicus	322.51	3167	00:58:31:01	 	36.823997	-122.1703	2464243	1.15	31:14.0	Ventana	34.157	01:00:23:11	7.051		Labidiasteridae	Rathbunaster			Animalia	Forcipulatida	Echinodermata	Rathbunaster californicus	Asteroidea							Eukaryota		V3167-02
 	transect	Rathbunaster californicus	315.79	3167	01:22:35:01	 	36.82579	-122.169426	2371693	1.08	55:19.0	Ventana	34.164	01:24:26:14	6.938		Labidiasteridae	Rathbunaster			Animalia	Forcipulatida	Echinodermata	Rathbunaster californicus	Asteroidea							Eukaryota		V3167-02
 	transect	Parastichopus leukothele	318.55	3167	00:36:04:27	 	36.82488	-122.16971	2462965	1.15	08:25.0	Ventana	34.157	00:38:00:09	7.051	Holothuroidea	Stichopodidae	Parastichopus			Animalia	Aspidochirotida	Echinodermata	Parastichopus leukothele	Aspidochirotacea							Eukaryota		V3167-01
 	transect	Phyllospadix	170.19	3167	02:23:14:28	 	36.83689	-122.158554	2467097	2.44	56:28.0	Ventana	33.963	02:24:57:16	9.081		Zosteraceae	Phyllospadix			Plantae	Najadales										Eukaryota		V3167-03
 	transect	Rathbunaster californicus	313.26	3167	01:18:44:08	 	36.825783	-122.168625	2371178	1.11	51:28.0	Ventana	34.161	01:20:35:01	6.99		Labidiasteridae	Rathbunaster			Animalia	Forcipulatida	Echinodermata	Rathbunaster californicus	Asteroidea							Eukaryota		V3167-02
 	transect	Allocentrotus fragilis	305.18	3167	01:27:42:07	http://search.mbari.org/ARCHIVE/frameGrabs/Ventana/images/3167/01_29_34_26.jpg	36.827415	-122.168564	2388588	1.12	00:27.0	Ventana	34.159	01:29:34:26	7.026	Echinoidea	Strongylocentrotidae	Allocentrotus			Animalia	Echinoida	Echinodermata	Allocentrotus fragilis	Euechinoidea			Echinacea				Eukaryota		V3167-02
 	cruise	Anthomastus ritteri	307.79	3167	01:32:09:14	 	36.82784	-122.16772	2389509	1.08	04:54.0	Ventana	34.166	01:34:01:12	6.93	Anthozoa	Alcyoniidae				Animalia	Alcyonacea	Cnidaria	Anthomastus	Octocorallia							Eukaryota		V3167-02
 	transect	Rathbunaster californicus	314.98	3167	01:22:49:01	 	36.82587	-122.16939	2371746	1.08	55:33.0	Ventana	34.166	01:24:41:01	6.927		Labidiasteridae	Rathbunaster			Animalia	Forcipulatida	Echinodermata	Rathbunaster californicus	Asteroidea							Eukaryota		V3167-02
 	transect	Rathbunaster californicus	316.04	3167	01:19:42:06	 	36.825478	-122.168915	2371370	1.08	52:26.0	Ventana	34.166	01:21:33:22	6.929		Labidiasteridae	Rathbunaster			Animalia	Forcipulatida	Echinodermata	Rathbunaster californicus	Asteroidea							Eukaryota		V3167-02
 	transect	Allocentrotus fragilis	311.34	3167	01:24:17:13	 	36.826393	-122.16915	2372092	1.08	57:02.0	Ventana	34.164	01:26:09:25	6.927	Echinoidea	Strongylocentrotidae	Allocentrotus			Animalia	Echinoida	Echinodermata	Allocentrotus fragilis	Euechinoidea			Echinacea				Eukaryota		V3167-02
 	transect	Parastichopus leukothele	308.91	3167	01:33:51:26	 	36.827446	-122.16769	2389855	1.07	06:37.0	Ventana	34.166	01:35:43:19	6.926	Holothuroidea	Stichopodidae	Parastichopus			Animalia	Aspidochirotida	Echinodermata	Parastichopus leukothele	Aspidochirotacea							Eukaryota		V3167-02
 	cruise	Metridium farcimen	112.91	3167	03:14:49:22	 	36.842052	-122.142334	2468590	4.84	48:28.0	Ventana	33.519	03:16:29:05	11.222	Anthozoa	Metridiidae	Metridium			Animalia	Actiniaria	Cnidaria	Metridium farcimen	Hexacorallia			Nyantheae				Eukaryota		V3167-04
 	transect	Allocentrotus fragilis	305.08	3167	01:27:54:21	 	36.827473	-122.16853	2388618	1.16	00:39.0	Ventana	34.154	01:29:46:22	7.099	Echinoidea	Strongylocentrotidae	Allocentrotus			Animalia	Echinoida	Echinodermata	Allocentrotus fragilis	Euechinoidea			Echinacea				Eukaryota		V3167-02
 	cruise	Rathbunaster californicus	103.86	3167	03:58:12:02	 	36.848267	-122.12882	2471677	5	31:53.0	Ventana	33.483	03:59:51:20	11.277		Labidiasteridae	Rathbunaster			Animalia	Forcipulatida	Echinodermata	Rathbunaster californicus	Asteroidea							Eukaryota		V3167-04
 	transect	Stomphia	317.42	3167	01:20:02:06	 	36.825405	-122.16904	2371400	1.07	52:46.0	Ventana	34.166	01:21:53:09	6.913	Anthozoa	Actinostolidae	Stomphia			Animalia	Actiniaria	Cnidaria		Hexacorallia			Nyantheae				Eukaryota		V3167-02
 	transect	Parastichopus leukothele	313.66	3167	01:18:54:08	 	36.82573	-122.16868	2371208	1.1	51:38.0	Ventana	34.163	01:20:44:23	6.956	Holothuroidea	Stichopodidae	Parastichopus			Animalia	Aspidochirotida	Echinodermata	Parastichopus leukothele	Aspidochirotacea							Eukaryota		V3167-02
 	cruise	Rathbunaster californicus	103.07	3167	04:01:56:03	 	36.849163	-122.12699	2471760	5.05	35:58.0	Ventana	33.477	04:03:31:12	11.293		Labidiasteridae	Rathbunaster			Animalia	Forcipulatida	Echinodermata	Rathbunaster californicus	Asteroidea							Eukaryota		V3167-05
 	transect	Hippasteria	318.56	3167	00:37:22:25	 	36.8249	-122.17	2462995	1.16	09:43.0	Ventana	34.156	00:39:19:02	7.077		Goniasteridae	Hippasteria			Animalia	Valvatida	Echinodermata		Asteroidea			Granulosina				Eukaryota		V3167-01
 	transect	Sebastes diploproa	309.8	3167	01:15:37:14	 	36.826668	-122.16828	2370456	1.07	48:21.0	Ventana	34.164	01:17:28:23	6.927	Osteichthyes	Scorpaenidae	Sebastes	Neopterygii		Animalia	Scorpaeniformes	Chordata	Sebastes diploproa	Actinopterygii			Scorpaenoidei	Vertebrata	Gnathostomata		Eukaryota	Acanthopterygii	V3167-02
 	cruise	trench	108.67	3167	03:40:23:20	http://search.mbari.org/ARCHIVE/frameGrabs/Ventana/images/3167/03_42_03_07.jpg	36.844772	-122.136444	2471008	4.85	14:04.0	Ventana	33.506	03:42:03:07	11.226																			V3167-04
 	transect	Allocentrotus fragilis	303.8	3167	01:28:56:20	 	36.827744	-122.16837	2388881	1.09	01:41.0	Ventana	34.163	01:30:47:29	6.964	Echinoidea	Strongylocentrotidae	Allocentrotus			Animalia	Echinoida	Echinodermata	Allocentrotus fragilis	Euechinoidea			Echinacea				Eukaryota		V3167-02
 	cruise	cable	346.35	3167	00:02:04:15	http://search.mbari.org/ARCHIVE/frameGrabs/Ventana/images/3167/00_03_59_10.jpg	36.819927	-122.17145	20023932	1.1	34:23.0	Ventana	34.162	00:03:59:10	6.923																			V3167-01
 	transect	Stomphia	309.48	3167	01:25:19:26	 	36.82673	-122.16895	2372761	1.11	58:04.0	Ventana	34.161	01:27:11:20	7.022	Anthozoa	Actinostolidae	Stomphia			Animalia	Actiniaria	Cnidaria		Hexacorallia			Nyantheae				Eukaryota		V3167-02
 	transect	Sabellida	320.59	3167	00:18:02:15	 	36.82432	-122.16999	2462273	1.12	50:21.0	Ventana	34.161	00:19:59:06	6.981	Polychaeta					Animalia	Sabellida	Annelida		Palpata							Eukaryota	Canalipalpata	V3167-01
 	transect	Allocentrotus fragilis	305.16	3167	01:27:24:07	 	36.82732	-122.16862	2388505	1.11	00:09.0	Ventana	34.162	01:29:16:10	6.992	Echinoidea	Strongylocentrotidae	Allocentrotus			Animalia	Echinoida	Echinodermata	Allocentrotus fragilis	Euechinoidea			Echinacea				Eukaryota		V3167-02
 	transect	Parastichopus leukothele	309.02	3167	01:33:55:25	 	36.82742	-122.167694	2389885	1.08	06:41.0	Ventana	34.165	01:35:47:27	6.927	Holothuroidea	Stichopodidae	Parastichopus			Animalia	Aspidochirotida	Echinodermata	Parastichopus leukothele	Aspidochirotacea							Eukaryota		V3167-02
 	transect	Parastichopus leukothele	307.12	3167	01:26:20:09	 	36.826996	-122.16879	2372934	1.22	59:04.0	Ventana	34.147	01:28:11:03	7.163	Holothuroidea	Stichopodidae	Parastichopus			Animalia	Aspidochirotida	Echinodermata	Parastichopus leukothele	Aspidochirotacea							Eukaryota		V3167-02
 	transect	Allocentrotus fragilis	306.4	3167	01:26:48:09	 	36.827133	-122.16872	2388302	1.12	59:32.0	Ventana	34.164	01:28:40:14	6.991	Echinoidea	Strongylocentrotidae	Allocentrotus			Animalia	Echinoida	Echinodermata	Allocentrotus fragilis	Euechinoidea			Echinacea				Eukaryota		V3167-02
 	transect	Rathbunaster californicus	309.33	3167	01:35:00:08	 	36.827015	-122.16786	2390171	1.08	07:45.0	Ventana	34.164	01:36:51:11	6.94		Labidiasteridae	Rathbunaster			Animalia	Forcipulatida	Echinodermata	Rathbunaster californicus	Asteroidea							Eukaryota		V3167-02
 	transect	Rathbunaster californicus	308.88	3167	01:32:59:27	 	36.827705	-122.16764	2389622	1.08	05:44.0	Ventana	34.165	01:34:51:16	6.927		Labidiasteridae	Rathbunaster			Animalia	Forcipulatida	Echinodermata	Rathbunaster californicus	Asteroidea							Eukaryota		V3167-02
 	cruise	Lycodes cortezianus	270.06	3167	02:06:32:29	 	36.833923	-122.1632	2467759	1.2	39:45.0	Ventana	34.151	02:08:16:01	7.171	Osteichthyes	Zoarcidae	Lycodes	Neopterygii		Animalia	Perciformes	Chordata	Lycodes cortezianus	Actinopterygii			Zoarcoidei	Vertebrata	Gnathostomata		Eukaryota	Acanthopterygii	V3167-03
 	transect	Sebastes	308.62	3167	01:34:13:25	http://search.mbari.org/ARCHIVE/frameGrabs/Ventana/images/3167/01_36_06_06.jpg	36.827305	-122.167725	2389998	1.08	06:59.0	Ventana	34.165	01:36:06:06	6.933	Osteichthyes	Scorpaenidae	Sebastes	Neopterygii		Animalia	Scorpaeniformes	Chordata		Actinopterygii			Scorpaenoidei	Vertebrata	Gnathostomata		Eukaryota	Acanthopterygii	V3167-02
 	transect	Allocentrotus fragilis	310.04	3167	01:24:57:27	 	36.82662	-122.16902	2372731	1.09	57:42.0	Ventana	34.165	01:26:49:26	6.968	Echinoidea	Strongylocentrotidae	Allocentrotus			Animalia	Echinoida	Echinodermata	Allocentrotus fragilis	Euechinoidea			Echinacea				Eukaryota		V3167-02
 	cruise	Stylasterias forreri	337.51	3167	00:05:55:08	http://search.mbari.org/ARCHIVE/frameGrabs/Ventana/images/3167/00_07_50_09.jpg	36.82108	-122.171165	2462021	1.11	38:14.0	Ventana	34.16	00:07:50:09	6.946		Asteriidae	Stylasterias			Animalia	Forcipulatida	Echinodermata	Stylasterias forreri	Asteroidea							Eukaryota		V3167-01
 	transect	Allocentrotus fragilis	303.73	3167	01:29:00:19	 	36.82776	-122.168365	2388900	1.09	01:45.0	Ventana	34.163	01:30:52:17	6.964	Echinoidea	Strongylocentrotidae	Allocentrotus			Animalia	Echinoida	Echinodermata	Allocentrotus fragilis	Euechinoidea			Echinacea				Eukaryota		V3167-02
 	transect	Rathbunaster californicus	308.92	3167	01:33:45:26	 	36.827484	-122.16767	2389825	1.07	06:31.0	Ventana	34.166	01:35:38:01	6.926		Labidiasteridae	Rathbunaster			Animalia	Forcipulatida	Echinodermata	Rathbunaster californicus	Asteroidea							Eukaryota		V3167-02
 	cruise	Rathbunaster californicus	107.58	3167	03:44:20:27	 	36.8456	-122.13471	2471038	4.82	18:01.0	Ventana	33.512	03:46:01:05	11.21		Labidiasteridae	Rathbunaster			Animalia	Forcipulatida	Echinodermata	Rathbunaster californicus	Asteroidea							Eukaryota		V3167-04
 	transect	Florometra serratissima	322.88	3167	00:49:20:02	 	36.82451	-122.17074	2463258	1.18	21:41.0	Ventana	34.154	00:51:16:08	7.111	Crinoidea	Antedonidae	Florometra			Animalia	Comatulidina	Echinodermata	Florometra serratissima							Antedonacea	Eukaryota		V3167-01
 	transect	Rathbunaster californicus	316.08	3167	01:22:17:02	 	36.82569	-122.16947	2371633	1.09	55:01.0	Ventana	34.163	01:24:08:15	6.958		Labidiasteridae	Rathbunaster			Animalia	Forcipulatida	Echinodermata	Rathbunaster californicus	Asteroidea							Eukaryota		V3167-02
 	transect	Allocentrotus fragilis	319.08	3167	00:25:56:01	 	36.82449	-122.16949	2462506	1.13	58:16.0	Ventana	34.159	00:27:52:27	7.019	Echinoidea	Strongylocentrotidae	Allocentrotus			Animalia	Echinoida	Echinodermata	Allocentrotus fragilis	Euechinoidea			Echinacea				Eukaryota		V3167-01
 	transect	Rathbunaster californicus	316.47	3167	01:22:05:02	 	36.82563	-122.169495	2371603	1.09	54:49.0	Ventana	34.164	01:23:57:01	6.958		Labidiasteridae	Rathbunaster			Animalia	Forcipulatida	Echinodermata	Rathbunaster californicus	Asteroidea							Eukaryota		V3167-02
 	transect	Sebastes	305.36	3167	01:27:18:07	http://search.mbari.org/ARCHIVE/frameGrabs/Ventana/images/3167/01_29_09_12.jpg	36.82729	-122.16863	2388445	1.1	00:03.0	Ventana	34.163	01:29:09:12	6.962	Osteichthyes	Scorpaenidae	Sebastes	Neopterygii		Animalia	Scorpaeniformes	Chordata		Actinopterygii			Scorpaenoidei	Vertebrata	Gnathostomata		Eukaryota	Acanthopterygii	V3167-02
 	transect	Rathbunaster californicus	320.54	3167	00:38:33:08	 	36.824924	-122.17024	2463055	1.15	10:54.0	Ventana	34.153	00:40:28:06	7.064		Labidiasteridae	Rathbunaster			Animalia	Forcipulatida	Echinodermata	Rathbunaster californicus	Asteroidea							Eukaryota		V3167-01
 	cruise	Stylasterias forreri	309.01	3167	01:36:08:21	 	36.826786	-122.16822	2390750	1.08	08:53.0	Ventana	34.166	01:37:59:22	6.926		Asteriidae	Stylasterias			Animalia	Forcipulatida	Echinodermata	Stylasterias forreri	Asteroidea							Eukaryota		V3167-02
 	transect	Allocentrotus fragilis	310.49	3167	01:24:41:27	 	36.826527	-122.169075	2372701	1.08	57:26.0	Ventana	34.165	01:26:33:24	6.934	Echinoidea	Strongylocentrotidae	Allocentrotus			Animalia	Echinoida	Echinodermata	Allocentrotus fragilis	Euechinoidea			Echinacea				Eukaryota		V3167-02
 	transect	Rathbunaster californicus	312.8	3167	01:17:15:26	 	36.826218	-122.168175	2370772	1.07	50:00.0	Ventana	34.165	01:19:07:27	6.914		Labidiasteridae	Rathbunaster			Animalia	Forcipulatida	Echinodermata	Rathbunaster californicus	Asteroidea							Eukaryota		V3167-02
 	transect	Sebastes	309.53	3167	01:35:10:08	 	36.826958	-122.16791	2390201	1.08	07:55.0	Ventana	34.163	01:37:01:07	6.95	Osteichthyes	Scorpaenidae	Sebastes	Neopterygii		Animalia	Scorpaeniformes	Chordata		Actinopterygii			Scorpaenoidei	Vertebrata	Gnathostomata		Eukaryota	Acanthopterygii	V3167-02
 	transect	Rathbunaster californicus	320.27	3167	00:18:24:14	 	36.82432	-122.169914	2462303	1.12	50:44.0	Ventana	34.161	00:20:21:04	6.992		Labidiasteridae	Rathbunaster			Animalia	Forcipulatida	Echinodermata	Rathbunaster californicus	Asteroidea							Eukaryota		V3167-01
 	transect	Allocentrotus fragilis	312.46	3167	01:16:59:27	 	36.8263	-122.16816	2370599	1.07	49:43.0	Ventana	34.166	01:18:51:10	6.915	Echinoidea	Strongylocentrotidae	Allocentrotus			Animalia	Echinoida	Echinodermata	Allocentrotus fragilis	Euechinoidea			Echinacea				Eukaryota		V3167-02
 	cruise	Sebastes diploproa	299.39	3167	01:57:17:28	 	36.831673	-122.16569	2465533	1.1	30:04.0	Ventana	34.163	01:59:09:19	6.976	Osteichthyes	Scorpaenidae	Sebastes	Neopterygii		Animalia	Scorpaeniformes	Chordata	Sebastes diploproa	Actinopterygii			Scorpaenoidei	Vertebrata	Gnathostomata		Eukaryota	Acanthopterygii	V3167-02
 	transect	Allocentrotus fragilis	306.58	3167	01:26:42:09	 	36.827103	-122.16873	2388272	1.12	59:26.0	Ventana	34.164	01:28:33:08	6.991	Echinoidea	Strongylocentrotidae	Allocentrotus			Animalia	Echinoida	Echinodermata	Allocentrotus fragilis	Euechinoidea			Echinacea				Eukaryota		V3167-02
 	transect	Stomphia	311.93	3167	01:23:55:14	 	36.826267	-122.16921	2371979	1.07	56:40.0	Ventana	34.165	01:25:46:25	6.925	Anthozoa	Actinostolidae	Stomphia			Animalia	Actiniaria	Cnidaria		Hexacorallia			Nyantheae				Eukaryota		V3167-02
 	transect	Rathbunaster californicus	309.07	3167	01:34:19:25	 	36.827267	-122.16774	2390028	1.08	07:05.0	Ventana	34.165	01:36:12:00	6.933		Labidiasteridae	Rathbunaster			Animalia	Forcipulatida	Echinodermata	Rathbunaster californicus	Asteroidea							Eukaryota		V3167-02
 	transect	Rathbunaster californicus	310.76	3167	01:16:17:13	 	36.82651	-122.168205	2370491	1.07	49:01.0	Ventana	34.166	01:18:09:25	6.923		Labidiasteridae	Rathbunaster			Animalia	Forcipulatida	Echinodermata	Rathbunaster californicus	Asteroidea							Eukaryota		V3167-02
 	transect	Allocentrotus fragilis	308.92	3167	01:33:45:26	 	36.827484	-122.16767	2389820	1.07	06:31.0	Ventana	34.166	01:35:38:01	6.926	Echinoidea	Strongylocentrotidae	Allocentrotus			Animalia	Echinoida	Echinodermata	Allocentrotus fragilis	Euechinoidea			Echinacea				Eukaryota		V3167-02
 	transect	Rathbunaster californicus	315.51	3167	01:22:41:01	 	36.825825	-122.16941	2371704	1.08	55:25.0	Ventana	34.166	01:24:31:25	6.927		Labidiasteridae	Rathbunaster			Animalia	Forcipulatida	Echinodermata	Rathbunaster californicus	Asteroidea							Eukaryota		V3167-02
 	transect	Ceriantharia	167.59	3167	02:24:10:27	 	36.83693	-122.15839	2467136	2.47	57:24.0	Ventana	33.962	02:25:53:07	9.118	Anthozoa					Animalia	Ceriantharia	Cnidaria		Ceriantipatharia							Eukaryota		V3167-03
 	transect	Rathbunaster californicus	311.4	3167	01:24:11:13	 	36.82636	-122.16917	2372057	1.08	56:56.0	Ventana	34.164	01:26:03:00	6.927		Labidiasteridae	Rathbunaster			Animalia	Forcipulatida	Echinodermata	Rathbunaster californicus	Asteroidea							Eukaryota		V3167-02
 	transect	Rathbunaster californicus	313.32	3167	01:17:25:26	 	36.82617	-122.1682	2370814	1.07	50:10.0	Ventana	34.166	01:19:17:00	6.912		Labidiasteridae	Rathbunaster			Animalia	Forcipulatida	Echinodermata	Rathbunaster californicus	Asteroidea							Eukaryota		V3167-02
 	transect	Allocentrotus fragilis	310.04	3167	01:24:57:27	 	36.82662	-122.16902	2372733	1.09	57:42.0	Ventana	34.165	01:26:49:26	6.968	Echinoidea	Strongylocentrotidae	Allocentrotus			Animalia	Echinoida	Echinodermata	Allocentrotus fragilis	Euechinoidea			Echinacea				Eukaryota		V3167-02
 	transect	Allocentrotus fragilis	310.11	3167	01:15:45:14	 	36.82664	-122.16826	2370461	1.07	48:29.0	Ventana	34.166	01:17:36:11	6.923	Echinoidea	Strongylocentrotidae	Allocentrotus			Animalia	Echinoida	Echinodermata	Allocentrotus fragilis	Euechinoidea			Echinacea				Eukaryota		V3167-02
 	transect	Parastichopus leukothele	308.85	3167	01:33:39:26	 	36.827522	-122.16767	2389790	1.07	06:25.0	Ventana	34.166	01:35:31:28	6.926	Holothuroidea	Stichopodidae	Parastichopus			Animalia	Aspidochirotida	Echinodermata	Parastichopus leukothele	Aspidochirotacea							Eukaryota		V3167-02
 	cruise	Parastichopus leukothele	109.43	3167	03:38:05:09	 	36.844128	-122.13737	2470989	4.76	11:45.0	Ventana	33.514	03:39:44:18	11.198	Holothuroidea	Stichopodidae	Parastichopus			Animalia	Aspidochirotida	Echinodermata	Parastichopus leukothele	Aspidochirotacea							Eukaryota		V3167-04
 	transect	Rathbunaster californicus	319.38	3167	00:28:08:26	 	36.824696	-122.169136	2462776	1.15	00:29.0	Ventana	34.158	00:30:04:16	7.043		Labidiasteridae	Rathbunaster			Animalia	Forcipulatida	Echinodermata	Rathbunaster californicus	Asteroidea							Eukaryota		V3167-01
 	cruise	Pleurobranchaea californica	108.3	3167	03:42:06:01	 	36.84513	-122.13569	2471019	4.77	15:46.0	Ventana	33.52	03:43:46:00	11.189	Gastropoda	Pleurobranchidae	Pleurobranchaea			Animalia	Notaspidea	Mollusca	Pleurobranchaea californica	Opisthobranchia						Pleurobranchiacea	Eukaryota		V3167-04
 	cruise	Sebastes	314.53	3167	01:10:05:25	 	36.82608	-122.16936	2464571	1.11	42:49.0	Ventana	34.16	01:11:58:00	6.998	Osteichthyes	Scorpaenidae	Sebastes	Neopterygii		Animalia	Scorpaeniformes	Chordata		Actinopterygii			Scorpaenoidei	Vertebrata	Gnathostomata		Eukaryota	Acanthopterygii	V3167-02
 	transect	Lycodes cortezianus	312.72	3167	01:23:45:14	 	36.82621	-122.16924	2464924	1.08	56:30.0	Ventana	34.165	01:25:36:01	6.929	Osteichthyes	Zoarcidae	Lycodes	Neopterygii		Animalia	Perciformes	Chordata	Lycodes cortezianus	Actinopterygii			Zoarcoidei	Vertebrata	Gnathostomata		Eukaryota	Acanthopterygii	V3167-02
 	transect	Allocentrotus fragilis	310.49	3167	01:24:41:27	 	36.826527	-122.169075	2372703	1.08	57:26.0	Ventana	34.165	01:26:33:24	6.934	Echinoidea	Strongylocentrotidae	Allocentrotus			Animalia	Echinoida	Echinodermata	Allocentrotus fragilis	Euechinoidea			Echinacea				Eukaryota		V3167-02
 	cruise	ear	236.86	3167	02:12:00:04	http://search.mbari.org/ARCHIVE/frameGrabs/Ventana/images/3167/02_13_43_10.jpg	36.83517	-122.16149	2467812	1.61	45:12.0	Ventana	34.111	02:13:43:10	7.903																			V3167-03
 	cruise	Stylasterias forreri	201.15	3167	02:17:03:10	 	36.836094	-122.160065	2467872	1.95	50:16.0	Ventana	34.067	02:18:45:03	8.437		Asteriidae	Stylasterias			Animalia	Forcipulatida	Echinodermata	Stylasterias forreri	Asteroidea							Eukaryota		V3167-03
 	transect	Parastichopus leukothele	322.73	3167	00:57:55:02	 	36.824085	-122.17039	2464218	1.15	30:38.0	Ventana	34.157	00:59:46:06	7.058	Holothuroidea	Stichopodidae	Parastichopus			Animalia	Aspidochirotida	Echinodermata	Parastichopus leukothele	Aspidochirotacea							Eukaryota		V3167-02
 	transect	Allocentrotus fragilis	308.72	3167	01:25:37:25	 	36.826813	-122.1689	2372793	1.11	58:22.0	Ventana	34.161	01:27:29:08	6.98	Echinoidea	Strongylocentrotidae	Allocentrotus			Animalia	Echinoida	Echinodermata	Allocentrotus fragilis	Euechinoidea			Echinacea				Eukaryota		V3167-02
 	transect	Sebastes	309.53	3167	01:35:10:08	 	36.826958	-122.16791	2390203	1.08	07:55.0	Ventana	34.163	01:37:01:07	6.95	Osteichthyes	Scorpaenidae	Sebastes	Neopterygii		Animalia	Scorpaeniformes	Chordata		Actinopterygii			Scorpaenoidei	Vertebrata	Gnathostomata		Eukaryota	Acanthopterygii	V3167-02
 	transect	Mediaster aequalis	316.8	3167	01:19:54:06	 	36.825428	-122.16899	2371381	1.07	52:38.0	Ventana	34.166	01:21:45:19	6.913		Goniasteridae	Mediaster			Animalia	Valvatida	Echinodermata	Mediaster aequalis	Asteroidea			Granulosina				Eukaryota		V3167-02
 	transect	Rathbunaster californicus	308.75	3167	01:33:33:26	 	36.827557	-122.16766	2389760	1.08	06:19.0	Ventana	34.166	01:35:25:26	6.925		Labidiasteridae	Rathbunaster			Animalia	Forcipulatida	Echinodermata	Rathbunaster californicus	Asteroidea							Eukaryota		V3167-02
 	transect	Rathbunaster californicus	308.92	3167	01:33:49:25	 	36.827457	-122.16768	2389850	1.07	06:35.0	Ventana	34.166	01:35:40:24	6.926		Labidiasteridae	Rathbunaster			Animalia	Forcipulatida	Echinodermata	Rathbunaster californicus	Asteroidea							Eukaryota		V3167-02
 	transect	Hippasteria	313.52	3167	01:18:52:08	 	36.82574	-122.16866	2371197	1.11	51:36.0	Ventana	34.161	01:20:43:16	6.99		Goniasteridae	Hippasteria			Animalia	Valvatida	Echinodermata		Asteroidea			Granulosina				Eukaryota		V3167-02
 	transect	Rathbunaster californicus	311.33	3167	01:24:15:13	 	36.82638	-122.16916	2372087	1.08	57:00.0	Ventana	34.164	01:26:07:08	6.927		Labidiasteridae	Rathbunaster			Animalia	Forcipulatida	Echinodermata	Rathbunaster californicus	Asteroidea							Eukaryota		V3167-02
 	transect	Sebastes	305.08	3167	01:27:52:22	 	36.827465	-122.16854	2388607	1.12	00:37.0	Ventana	34.159	01:29:44:02	7.026	Osteichthyes	Scorpaenidae	Sebastes	Neopterygii		Animalia	Scorpaeniformes	Chordata		Actinopterygii			Scorpaenoidei	Vertebrata	Gnathostomata		Eukaryota	Acanthopterygii	V3167-02
 	transect	Rathbunaster californicus	315.14	3167	01:22:47:01	 	36.82586	-122.169395	2371734	1.08	55:31.0	Ventana	34.166	01:24:38:07	6.927		Labidiasteridae	Rathbunaster			Animalia	Forcipulatida	Echinodermata	Rathbunaster californicus	Asteroidea							Eukaryota		V3167-02
 	transect	Rathbunaster californicus	319.56	3167	00:19:00:13	 	36.824364	-122.16979	2462363	1.13	51:20.0	Ventana	34.16	00:20:57:03	7.011		Labidiasteridae	Rathbunaster			Animalia	Forcipulatida	Echinodermata	Rathbunaster californicus	Asteroidea							Eukaryota		V3167-01
 	cruise	Mediaster aequalis	121.52	3167	03:00:34:03	 	36.840076	-122.14985	2468101	3.64	34:11.0	Ventana	33.715	03:02:13:18	10.485		Goniasteridae	Mediaster			Animalia	Valvatida	Echinodermata	Mediaster aequalis	Asteroidea			Granulosina				Eukaryota		V3167-04
 	cruise	Hydrolagus colliei	307.38	3167	01:50:27:26	 	36.8297	-122.167274	2465491	1.1	23:14.0	Ventana	34.163	01:52:19:26	6.961	Chondrichthyes	Chimaeridae	Hydrolagus			Animalia	Chimaeriformes	Chordata	Hydrolagus colliei	Holocephali			Chimaeroidei	Vertebrata			Eukaryota	Holocephalimorpha	V3167-02
 	cruise	Metridium farcimen	106.9	3167	03:46:59:07	 	36.846115	-122.13361	2471049	4.82	20:40.0	Ventana	33.513	03:48:40:05	11.208	Anthozoa	Metridiidae	Metridium			Animalia	Actiniaria	Cnidaria	Metridium farcimen	Hexacorallia			Nyantheae				Eukaryota		V3167-04
 	transect	Rathbunaster californicus	312.35	3167	01:16:55:27	 	36.826324	-122.16816	2370581	1.07	49:39.0	Ventana	34.166	01:18:46:25	6.915		Labidiasteridae	Rathbunaster			Animalia	Forcipulatida	Echinodermata	Rathbunaster californicus	Asteroidea							Eukaryota		V3167-02
 	transect	Rathbunaster californicus	316.34	3167	01:22:09:02	 	36.82565	-122.16949	2371614	1.09	54:53.0	Ventana	34.163	01:23:59:24	6.958		Labidiasteridae	Rathbunaster			Animalia	Forcipulatida	Echinodermata	Rathbunaster californicus	Asteroidea							Eukaryota		V3167-02
 	cruise	trench	105.33	3167	03:54:31:09	http://search.mbari.org/ARCHIVE/frameGrabs/Ventana/images/3167/03_56_11_12.jpg	36.84748	-122.13045	2471079	4.95	28:12.0	Ventana	33.491	03:56:11:12	11.261																			V3167-04
 	transect	Allocentrotus fragilis	306.09	3167	01:26:52:08	 	36.827156	-122.16871	2388314	1.12	59:37.0	Ventana	34.164	01:28:44:04	6.991	Echinoidea	Strongylocentrotidae	Allocentrotus			Animalia	Echinoida	Echinodermata	Allocentrotus fragilis	Euechinoidea			Echinacea				Eukaryota		V3167-02
 	cruise	Parmaturus xaniurus	328.41	3167	00:11:32:27	 	36.8228	-122.170586	2462164	1.12	43:52.0	Ventana	34.16	00:13:27:25	6.993	Chondrichthyes	Scyliorhinidae	Parmaturus			Animalia	Carcharhiniformes	Chordata	Parmaturus xaniurus	Elasmobranchii				Vertebrata			Eukaryota	Galeomorphi	V3167-01
 	transect	Psolus squamatus	319.24	3167	00:26:10:15	 	36.824516	-122.16945	2462543	1.13	58:30.0	Ventana	34.159	00:28:06:06	7.022	Holothuroidea	Psolidae	Psolus			Animalia	Dendrochirotida	Echinodermata	Psolus squamatus								Eukaryota		V3167-01
 	transect	Sebastes	310.92	3167	01:24:23:13	 	36.826427	-122.169136	2372117	1.08	57:08.0	Ventana	34.165	01:26:16:02	6.93	Osteichthyes	Scorpaenidae	Sebastes	Neopterygii		Animalia	Scorpaeniformes	Chordata		Actinopterygii			Scorpaenoidei	Vertebrata	Gnathostomata		Eukaryota	Acanthopterygii	V3167-02
 	transect	Sebastes	312.93	3167	01:18:32:09	 	36.825844	-122.16856	2371137	1.1	51:16.0	Ventana	34.16	01:20:23:05	6.984	Osteichthyes	Scorpaenidae	Sebastes	Neopterygii		Animalia	Scorpaeniformes	Chordata		Actinopterygii			Scorpaenoidei	Vertebrata	Gnathostomata		Eukaryota	Acanthopterygii	V3167-02
 	transect	Agonidae	307.78	3167	01:25:55:25	 	36.826893	-122.16885	2372823	1.19	58:40.0	Ventana	34.152	01:27:48:04	7.21	Osteichthyes	Agonidae		Neopterygii		Animalia	Scorpaeniformes	Chordata		Actinopterygii				Vertebrata	Gnathostomata		Eukaryota	Acanthopterygii	V3167-02
 	cruise	Actiniaria sp. 1	325.36	3167	00:13:53:08	 	36.823547	-122.170425	2462190	1.12	46:12.0	Ventana	34.158	00:15:48:08	6.985	Anthozoa					Animalia	Actiniaria	Cnidaria		Hexacorallia							Eukaryota		V3167-01
 	cruise	Metridium farcimen	110.23	3167	03:17:58:16	 	36.84249	-122.14086	2468627	4.84	51:37.0	Ventana	33.519	03:19:38:21	11.218	Anthozoa	Metridiidae	Metridium			Animalia	Actiniaria	Cnidaria	Metridium farcimen	Hexacorallia			Nyantheae				Eukaryota		V3167-04
 	transect	Hippasteria	316.82	3167	01:21:59:02	 	36.825603	-122.1695	2371584	1.09	54:43.0	Ventana	34.164	01:23:51:02	6.958		Goniasteridae	Hippasteria			Animalia	Valvatida	Echinodermata		Asteroidea			Granulosina				Eukaryota		V3167-02
 	transect	Rathbunaster californicus	312.97	3167	01:17:51:25	 	36.826042	-122.16832	2370964	1.07	50:36.0	Ventana	34.166	01:19:43:24	6.913		Labidiasteridae	Rathbunaster			Animalia	Forcipulatida	Echinodermata	Rathbunaster californicus	Asteroidea							Eukaryota		V3167-02
 	cruise	Stomphia	321.68	3167	00:16:03:19	 	36.824177	-122.17018	2462220	1.13	48:23.0	Ventana	34.159	00:17:59:21	7.001	Anthozoa	Actinostolidae	Stomphia			Animalia	Actiniaria	Cnidaria		Hexacorallia			Nyantheae				Eukaryota		V3167-01
 	transect	Rathbunaster californicus	319.42	3167	00:19:18:13	 	36.82438	-122.16974	2462393	1.14	51:38.0	Ventana	34.158	00:21:15:19	7.025		Labidiasteridae	Rathbunaster			Animalia	Forcipulatida	Echinodermata	Rathbunaster californicus	Asteroidea							Eukaryota		V3167-01
 	cruise	Pandalus platyceros	269.13	3167	02:06:44:29	 	36.83397	-122.16315	2466580	1.21	39:57.0	Ventana	34.151	02:08:26:23	7.179	Malacostraca	Pandalidae	Pandalus		Caridea	Animalia	Decapoda	Arthropoda	Pandalus platyceros	Eumalacostraca						Pandaloidea	Eukaryota	Eucarida	V3167-03
 	transect	Stomphia	305.19	3167	01:27:22:08	 	36.82731	-122.168625	2388487	1.1	00:07.0	Ventana	34.163	01:29:12:16	6.962	Anthozoa	Actinostolidae	Stomphia			Animalia	Actiniaria	Cnidaria		Hexacorallia			Nyantheae				Eukaryota		V3167-02
 	cruise	Mediaster aequalis	200.16	3167	02:17:11:10	 	36.83612	-122.16003	2466933	2.03	50:24.0	Ventana	34.051	02:18:54:27	8.536		Goniasteridae	Mediaster			Animalia	Valvatida	Echinodermata	Mediaster aequalis	Asteroidea			Granulosina				Eukaryota		V3167-03
 	transect	Stylasterias forreri	313	3167	01:17:19:26	 	36.8262	-122.16818	2370784	1.07	50:04.0	Ventana	34.165	01:19:11:07	6.914		Asteriidae	Stylasterias			Animalia	Forcipulatida	Echinodermata	Stylasterias forreri	Asteroidea							Eukaryota		V3167-02
 	cruise	Stomphia	317.72	3167	01:20:16:21	 	36.825386	-122.16912	2371411	1.07	53:00.0	Ventana	34.166	01:22:07:23	6.916	Anthozoa	Actinostolidae	Stomphia			Animalia	Actiniaria	Cnidaria		Hexacorallia			Nyantheae				Eukaryota		V3167-02
 	transect	Allocentrotus fragilis	305.03	3167	01:28:02:21	 	36.827515	-122.16851	2388637	1.16	00:47.0	Ventana	34.154	01:29:53:13	7.099	Echinoidea	Strongylocentrotidae	Allocentrotus			Animalia	Echinoida	Echinodermata	Allocentrotus fragilis	Euechinoidea			Echinacea				Eukaryota		V3167-02
 	transect	Allocentrotus fragilis	319.32	3167	00:27:28:13	 	36.824642	-122.169235	2462746	1.14	59:48.0	Ventana	34.158	00:29:24:12	7.028	Echinoidea	Strongylocentrotidae	Allocentrotus			Animalia	Echinoida	Echinodermata	Allocentrotus fragilis	Euechinoidea			Echinacea				Eukaryota		V3167-01
 	transect	Parastichopus leukothele	307.15	3167	01:26:13:25	 	36.82697	-122.16881	2372853	1.22	58:58.0	Ventana	34.147	01:28:05:16	7.163	Holothuroidea	Stichopodidae	Parastichopus			Animalia	Aspidochirotida	Echinodermata	Parastichopus leukothele	Aspidochirotacea							Eukaryota		V3167-02
 	transect	Rathbunaster californicus	323.1	3167	00:50:04:01	 	36.824436	-122.17068	2463279	1.17	22:25.0	Ventana	34.155	00:51:59:18	7.103		Labidiasteridae	Rathbunaster			Animalia	Forcipulatida	Echinodermata	Rathbunaster californicus	Asteroidea							Eukaryota		V3167-01
 	transect	Stylasterias forreri	303.68	3167	01:29:02:20	 	36.827766	-122.16836	2388911	1.09	01:47.0	Ventana	34.163	01:30:54:02	6.964		Asteriidae	Stylasterias			Animalia	Forcipulatida	Echinodermata	Stylasterias forreri	Asteroidea							Eukaryota		V3167-02
 	cruise	Allocentrotus fragilis	302.55	3167	01:44:42:21	 	36.82801	-122.16822	2390879	1.12	17:28.0	Ventana	34.163	01:46:34:13	6.994	Echinoidea	Strongylocentrotidae	Allocentrotus			Animalia	Echinoida	Echinodermata	Allocentrotus fragilis	Euechinoidea			Echinacea				Eukaryota		V3167-02
 	cruise	Metridium farcimen	98.32	3167	04:19:14:01	 	36.852825	-122.11881	2471958	5.02	53:18.0	Ventana	33.484	04:20:50:08	11.283	Anthozoa	Metridiidae	Metridium			Animalia	Actiniaria	Cnidaria	Metridium farcimen	Hexacorallia			Nyantheae				Eukaryota		V3167-05
 	transect	Eptatretus stoutii	304.33	3167	01:28:42:20	 	36.82769	-122.1684	2388840	1.09	01:27.0	Ventana	34.165	01:30:33:05	6.947	Agnatha		Eptatretus			Animalia		Chordata						Vertebrata			Eukaryota		V3167-02
 	transect	Allocentrotus fragilis	303.28	3167	01:29:14:19	 	36.827816	-122.168335	2388941	1.12	01:59.0	Ventana	34.159	01:31:06:10	7.03	Echinoidea	Strongylocentrotidae	Allocentrotus			Animalia	Echinoida	Echinodermata	Allocentrotus fragilis	Euechinoidea			Echinacea				Eukaryota		V3167-02
 	cruise	Stylasterias forreri	334.56	3167	00:08:03:19	 	36.821808	-122.17095	2462104	1.11	40:22.0	Ventana	34.16	00:09:59:18	6.958		Asteriidae	Stylasterias			Animalia	Forcipulatida	Echinodermata	Stylasterias forreri	Asteroidea							Eukaryota		V3167-01
 	transect	Allocentrotus fragilis	318.56	3167	00:35:40:13	 	36.824883	-122.169624	2462956	1.13	08:01.0	Ventana	34.16	00:37:37:16	7.019	Echinoidea	Strongylocentrotidae	Allocentrotus			Animalia	Echinoida	Echinodermata	Allocentrotus fragilis	Euechinoidea			Echinacea				Eukaryota		V3167-01
 	transect	Rathbunaster californicus	309.07	3167	01:34:19:25	 	36.827267	-122.16774	2390023	1.08	07:05.0	Ventana	34.165	01:36:12:00	6.933		Labidiasteridae	Rathbunaster			Animalia	Forcipulatida	Echinodermata	Rathbunaster californicus	Asteroidea							Eukaryota		V3167-02
 	transect	Rathbunaster californicus	308.9	3167	01:34:07:25	 	36.827343	-122.16771	2389970	1.08	06:53.0	Ventana	34.165	01:35:58:22	6.933		Labidiasteridae	Rathbunaster			Animalia	Forcipulatida	Echinodermata	Rathbunaster californicus	Asteroidea							Eukaryota		V3167-02
 	transect	Allocentrotus fragilis	305.76	3167	01:27:12:08	 	36.827255	-122.16865	2388404	1.1	59:57.0	Ventana	34.163	01:29:03:25	6.962	Echinoidea	Strongylocentrotidae	Allocentrotus			Animalia	Echinoida	Echinodermata	Allocentrotus fragilis	Euechinoidea			Echinacea				Eukaryota		V3167-02
 	transect	Rathbunaster californicus	308.32	3167	01:33:13:26	 	36.827663	-122.167656	2389677	1.08	05:58.0	Ventana	34.166	01:35:05:19	6.926		Labidiasteridae	Rathbunaster			Animalia	Forcipulatida	Echinodermata	Rathbunaster californicus	Asteroidea							Eukaryota		V3167-02
 	transect	Rathbunaster californicus	312.72	3167	01:23:45:14	 	36.82621	-122.16924	2371937	1.08	56:30.0	Ventana	34.165	01:25:36:03	6.929		Labidiasteridae	Rathbunaster			Animalia	Forcipulatida	Echinodermata	Rathbunaster californicus	Asteroidea							Eukaryota		V3167-02
 	cruise	Lycodes cortezianus	285.74	3167	02:02:07:23	 	36.832916	-122.16449	2467722	1.14	35:19.0	Ventana	34.158	02:03:49:19	7.043	Osteichthyes	Zoarcidae	Lycodes	Neopterygii		Animalia	Perciformes	Chordata	Lycodes cortezianus	Actinopterygii			Zoarcoidei	Vertebrata	Gnathostomata		Eukaryota	Acanthopterygii	V3167-03
 	transect	Sebastes	308.74	3167	01:34:03:25	 	36.82737	-122.1677	2389940	1.08	06:49.0	Ventana	34.165	01:35:55:17	6.927	Osteichthyes	Scorpaenidae	Sebastes	Neopterygii		Animalia	Scorpaeniformes	Chordata		Actinopterygii			Scorpaenoidei	Vertebrata	Gnathostomata		Eukaryota	Acanthopterygii	V3167-02
 	transect	Sebastes	314.72	3167	01:23:17:15	 	36.82604	-122.16931	2371847	1.07	56:01.0	Ventana	34.165	01:25:09:13	6.923	Osteichthyes	Scorpaenidae	Sebastes	Neopterygii		Animalia	Scorpaeniformes	Chordata		Actinopterygii			Scorpaenoidei	Vertebrata	Gnathostomata		Eukaryota	Acanthopterygii	V3167-02
 	transect	Rathbunaster californicus	318.4	3167	00:36:58:25	 	36.824894	-122.16991	2462986	1.16	09:19.0	Ventana	34.157	00:38:54:28	7.067		Labidiasteridae	Rathbunaster			Animalia	Forcipulatida	Echinodermata	Rathbunaster californicus	Asteroidea							Eukaryota		V3167-01
 	transect	Rathbunaster californicus	308.79	3167	01:32:55:12	 	36.827724	-122.16764	2389610	1.08	05:40.0	Ventana	34.165	01:34:48:01	6.927		Labidiasteridae	Rathbunaster			Animalia	Forcipulatida	Echinodermata	Rathbunaster californicus	Asteroidea							Eukaryota		V3167-02
 	cruise	Rathbunaster californicus	110.58	3167	03:32:32:04	http://search.mbari.org/ARCHIVE/frameGrabs/Ventana/images/3167/03_34_12_01.jpg	36.843307	-122.138725	20024077	4.58	06:11.0	Ventana	33.544	03:34:12:01	11.106		Labidiasteridae	Rathbunaster			Animalia	Forcipulatida	Echinodermata	Rathbunaster californicus	Asteroidea							Eukaryota		V3167-04
 	cruise	Allocentrotus fragilis	308.15	3167	01:36:34:20	 	36.82677	-122.16842	2390759	1.08	09:19.0	Ventana	34.166	01:38:26:22	6.928	Echinoidea	Strongylocentrotidae	Allocentrotus			Animalia	Echinoida	Echinodermata	Allocentrotus fragilis	Euechinoidea			Echinacea				Eukaryota		V3167-02
 	transect	Rathbunaster californicus	313.12	3167	01:17:43:25	 	36.82608	-122.168274	2370934	1.07	50:28.0	Ventana	34.166	01:19:35:22	6.913		Labidiasteridae	Rathbunaster			Animalia	Forcipulatida	Echinodermata	Rathbunaster californicus	Asteroidea							Eukaryota		V3167-02
 	transect	Glyptocephalus zachirus	323.03	3167	00:48:55:18	 	36.824623	-122.170815	2463249	1.18	21:17.0	Ventana	34.153	00:50:51:21	7.112	Osteichthyes	Pleuronectidae	Glyptocephalus	Neopterygii		Animalia	Pleuronectiformes	Chordata		Actinopterygii				Vertebrata	Gnathostomata		Eukaryota	Acanthopterygii	V3167-01
 	transect	Allocentrotus fragilis	306.89	3167	01:26:30:09	 	36.827053	-122.16876	2372973	1.17	59:14.0	Ventana	34.157	01:28:22:11	7.079	Echinoidea	Strongylocentrotidae	Allocentrotus			Animalia	Echinoida	Echinodermata	Allocentrotus fragilis	Euechinoidea			Echinacea				Eukaryota		V3167-02
 	transect	Phyllospadix	167.47	3167	02:33:23:09	 	36.83733	-122.15888	2467346	2.69	06:37.0	Ventana	33.934	02:35:05:00	9.365		Zosteraceae	Phyllospadix			Plantae	Najadales										Eukaryota		V3167-03
 	transect	Parastichopus leukothele	319.95	3167	00:18:42:14	http://search.mbari.org/ARCHIVE/frameGrabs/Ventana/images/3167/00_20_37_17.jpg	36.82434	-122.16985	2462340	1.12	51:02.0	Ventana	34.162	00:20:37:17	6.992	Holothuroidea	Stichopodidae	Parastichopus			Animalia	Aspidochirotida	Echinodermata	Parastichopus leukothele	Aspidochirotacea							Eukaryota		V3167-01
 	transect	Rathbunaster californicus	313.21	3167	01:18:20:09	 	36.825905	-122.16849	2371107	1.08	51:04.0	Ventana	34.161	01:20:11:13	6.953		Labidiasteridae	Rathbunaster			Animalia	Forcipulatida	Echinodermata	Rathbunaster californicus	Asteroidea							Eukaryota		V3167-02
 	transect	Rathbunaster californicus	321.58	3167	00:46:11:08	 	36.82488	-122.17062	2463219	1.13	18:32.0	Ventana	34.162	00:48:06:21	7.03		Labidiasteridae	Rathbunaster			Animalia	Forcipulatida	Echinodermata	Rathbunaster californicus	Asteroidea							Eukaryota		V3167-01
 	cruise	Sebastes	305.7	3167	01:38:59:02	 	36.827183	-122.16867	2390789	1.09	11:44.0	Ventana	34.164	01:40:49:27	6.952	Osteichthyes	Scorpaenidae	Sebastes	Neopterygii		Animalia	Scorpaeniformes	Chordata		Actinopterygii			Scorpaenoidei	Vertebrata	Gnathostomata		Eukaryota	Acanthopterygii	V3167-02
 	transect	Rathbunaster californicus	308.78	3167	01:32:51:12	 	36.827736	-122.16764	2389580	1.08	05:36.0	Ventana	34.165	01:34:43:21	6.93		Labidiasteridae	Rathbunaster			Animalia	Forcipulatida	Echinodermata	Rathbunaster californicus	Asteroidea							Eukaryota		V3167-02
 	cruise	Hippasteria	338.83	3167	00:05:23:08	 	36.820908	-122.1712	2462014	1.1	37:42.0	Ventana	34.16	00:07:19:03	6.939		Goniasteridae	Hippasteria			Animalia	Valvatida	Echinodermata		Asteroidea			Granulosina				Eukaryota		V3167-01
 	transect	Allocentrotus fragilis	315.25	3167	01:19:22:07	 	36.825573	-122.168816	2371280	1.09	52:06.0	Ventana	34.161	01:21:13:12	6.971	Echinoidea	Strongylocentrotidae	Allocentrotus			Animalia	Echinoida	Echinodermata	Allocentrotus fragilis	Euechinoidea			Echinacea				Eukaryota		V3167-02
 	transect	Allocentrotus fragilis	302.86	3167	01:29:49:03	 	36.82794	-122.16824	2389031	1.11	02:33.0	Ventana	34.163	01:31:40:22	6.985	Echinoidea	Strongylocentrotidae	Allocentrotus			Animalia	Echinoida	Echinodermata	Allocentrotus fragilis	Euechinoidea			Echinacea				Eukaryota		V3167-02
 	transect	Sebastes	305.86	3167	01:27:04:08	 	36.827217	-122.16867	2388344	1.1	59:49.0	Ventana	34.164	01:28:55:20	6.964	Osteichthyes	Scorpaenidae	Sebastes	Neopterygii		Animalia	Scorpaeniformes	Chordata		Actinopterygii			Scorpaenoidei	Vertebrata	Gnathostomata		Eukaryota	Acanthopterygii	V3167-02
 	transect	Mediaster aequalis	173.09	3167	02:35:45:20	 	36.83719	-122.15919	2467376	2.63	09:00.0	Ventana	33.945	02:37:29:05	9.286		Goniasteridae	Mediaster			Animalia	Valvatida	Echinodermata	Mediaster aequalis	Asteroidea			Granulosina				Eukaryota		V3167-03
 	transect	Rathbunaster californicus	308.76	3167	01:33:23:27	 	36.82762	-122.167656	2389707	1.08	06:08.0	Ventana	34.166	01:35:15:24	6.925		Labidiasteridae	Rathbunaster			Animalia	Forcipulatida	Echinodermata	Rathbunaster californicus	Asteroidea							Eukaryota		V3167-02
 	transect	Allocentrotus fragilis	309.6	3167	01:35:20:08	 	36.82691	-122.167946	2390256	1.08	08:05.0	Ventana	34.163	01:37:12:07	6.95	Echinoidea	Strongylocentrotidae	Allocentrotus			Animalia	Echinoida	Echinodermata	Allocentrotus fragilis	Euechinoidea			Echinacea				Eukaryota		V3167-02
 	transect	Allocentrotus fragilis	308.83	3167	01:33:57:25	 	36.827408	-122.167694	2389910	1.08	06:43.0	Ventana	34.165	01:35:49:16	6.927	Echinoidea	Strongylocentrotidae	Allocentrotus			Animalia	Echinoida	Echinodermata	Allocentrotus fragilis	Euechinoidea			Echinacea				Eukaryota		V3167-02
 	transect	Allocentrotus fragilis	322.77	3167	00:59:07:15	 	36.823936	-122.17022	2464271	1.14	31:50.0	Ventana	34.157	01:00:59:07	7.047	Echinoidea	Strongylocentrotidae	Allocentrotus			Animalia	Echinoida	Echinodermata	Allocentrotus fragilis	Euechinoidea			Echinacea				Eukaryota		V3167-02
 	transect	Rathbunaster californicus	309.24	3167	01:34:44:09	 	36.82711	-122.16781	2390113	1.08	07:29.0	Ventana	34.165	01:36:35:11	6.933		Labidiasteridae	Rathbunaster			Animalia	Forcipulatida	Echinodermata	Rathbunaster californicus	Asteroidea							Eukaryota		V3167-02
 	transect	Sebastes	305.09	3167	01:27:32:07	 	36.827362	-122.168594	2388547	1.11	00:17.0	Ventana	34.162	01:29:22:20	6.992	Osteichthyes	Scorpaenidae	Sebastes	Neopterygii		Animalia	Scorpaeniformes	Chordata		Actinopterygii			Scorpaenoidei	Vertebrata	Gnathostomata		Eukaryota	Acanthopterygii	V3167-02
 	cruise	Parastichopus leukothele	312.27	3167	01:10:44:08	 	36.82624	-122.16929	2464601	1.1	43:28.0	Ventana	34.162	01:12:35:00	6.978	Holothuroidea	Stichopodidae	Parastichopus			Animalia	Aspidochirotida	Echinodermata	Parastichopus leukothele	Aspidochirotacea							Eukaryota		V3167-02
 	transect	physical object	319.09	3167	00:26:00:00	http://search.mbari.org/ARCHIVE/frameGrabs/Ventana/images/3167/00_27_55_16.jpg	36.824497	-122.16947	2462513	1.13	58:20.0	Ventana	34.159	00:27:55:16	7.019																			V3167-01
 	transect	Ceriantharia sp. 3	313.11	3167	01:17:39:25	 	36.826103	-122.16826	2370904	1.07	50:24.0	Ventana	34.166	01:19:30:05	6.913	Anthozoa					Animalia	Ceriantharia	Cnidaria		Ceriantipatharia							Eukaryota		V3167-02
 	transect	Hydrolagus colliei	308.88	3167	01:33:31:26	 	36.827568	-122.16766	2389737	1.08	06:17.0	Ventana	34.166	01:35:22:12	6.925	Chondrichthyes	Chimaeridae	Hydrolagus			Animalia	Chimaeriformes	Chordata	Hydrolagus colliei	Holocephali			Chimaeroidei	Vertebrata			Eukaryota	Holocephalimorpha	V3167-02
 	transect	Hippasteria	315.98	3167	01:22:29:01	 	36.825756	-122.16944	2371674	1.08	55:13.0	Ventana	34.164	01:24:19:29	6.938		Goniasteridae	Hippasteria			Animalia	Valvatida	Echinodermata		Asteroidea			Granulosina				Eukaryota		V3167-02
 	transect	Allocentrotus fragilis	305.77	3167	01:27:10:08	 	36.827248	-122.168655	2388374	1.1	59:55.0	Ventana	34.163	01:29:00:29	6.962	Echinoidea	Strongylocentrotidae	Allocentrotus			Animalia	Echinoida	Echinodermata	Allocentrotus fragilis	Euechinoidea			Echinacea				Eukaryota		V3167-02
 	transect	Allocentrotus fragilis	312.3	3167	01:16:53:27	 	36.826332	-122.16816	2370544	1.07	49:37.0	Ventana	34.165	01:18:45:03	6.917	Echinoidea	Strongylocentrotidae	Allocentrotus			Animalia	Echinoida	Echinodermata	Allocentrotus fragilis	Euechinoidea			Echinacea				Eukaryota		V3167-02
 	cruise	cable	173.43	3167	02:37:40:16	http://search.mbari.org/ARCHIVE/frameGrabs/Ventana/images/3167/02_39_23_05.jpg	36.83695	-122.15876	20024047	2.69	10:54.0	Ventana	33.934	02:39:23:05	9.366																			V3167-03
 	transect	Rathbunaster californicus	313.19	3167	01:18:11:24	 	36.825943	-122.16844	2371077	1.08	50:56.0	Ventana	34.161	01:20:04:02	6.953		Labidiasteridae	Rathbunaster			Animalia	Forcipulatida	Echinodermata	Rathbunaster californicus	Asteroidea							Eukaryota		V3167-02
 	transect	Sebastes	306.94	3167	01:26:24:09	 	36.82701	-122.168785	2372943	1.17	59:08.0	Ventana	34.157	01:28:15:00	7.079	Osteichthyes	Scorpaenidae	Sebastes	Neopterygii		Animalia	Scorpaeniformes	Chordata		Actinopterygii			Scorpaenoidei	Vertebrata	Gnathostomata		Eukaryota	Acanthopterygii	V3167-02
 	transect	Allocentrotus fragilis	305.2	3167	01:27:40:07	 	36.827404	-122.16857	2388577	1.12	00:25.0	Ventana	34.159	01:29:32:04	7.026	Echinoidea	Strongylocentrotidae	Allocentrotus			Animalia	Echinoida	Echinodermata	Allocentrotus fragilis	Euechinoidea			Echinacea				Eukaryota		V3167-02
 	transect	Allocentrotus fragilis	303.1	3167	01:29:30:19	 	36.827877	-122.16829	2389001	1.14	02:15.0	Ventana	34.159	01:31:22:26	7.042	Echinoidea	Strongylocentrotidae	Allocentrotus			Animalia	Echinoida	Echinodermata	Allocentrotus fragilis	Euechinoidea			Echinacea				Eukaryota		V3167-02
 	transect	Rathbunaster californicus	319.29	3167	00:37:55:09	 	36.824913	-122.17011	2463016	1.16	10:15.0	Ventana	34.156	00:39:51:16	7.069		Labidiasteridae	Rathbunaster			Animalia	Forcipulatida	Echinodermata	Rathbunaster californicus	Asteroidea							Eukaryota		V3167-01
 	transect	Rathbunaster californicus	309.22	3167	01:34:36:09	 	36.827168	-122.167786	2390083	1.08	07:21.0	Ventana	34.165	01:36:26:19	6.927		Labidiasteridae	Rathbunaster			Animalia	Forcipulatida	Echinodermata	Rathbunaster californicus	Asteroidea							Eukaryota		V3167-02
 	transect	Rathbunaster californicus	308.92	3167	01:33:49:25	 	36.827457	-122.16768	2389843	1.07	06:35.0	Ventana	34.166	01:35:40:24	6.926		Labidiasteridae	Rathbunaster			Animalia	Forcipulatida	Echinodermata	Rathbunaster californicus	Asteroidea							Eukaryota		V3167-02
 	transect	Sebastes	309.5	3167	01:35:06:08	 	36.82698	-122.167885	2390196	1.08	07:51.0	Ventana	34.164	01:36:57:28	6.94	Osteichthyes	Scorpaenidae	Sebastes	Neopterygii		Animalia	Scorpaeniformes	Chordata		Actinopterygii			Scorpaenoidei	Vertebrata	Gnathostomata		Eukaryota	Acanthopterygii	V3167-02
 	transect	Parastichopus leukothele	313.86	3167	01:18:56:08	 	36.825718	-122.168686	2371220	1.1	51:40.0	Ventana	34.163	01:20:47:02	6.956	Holothuroidea	Stichopodidae	Parastichopus			Animalia	Aspidochirotida	Echinodermata	Parastichopus leukothele	Aspidochirotacea							Eukaryota		V3167-02
 	transect	Allocentrotus fragilis	309.47	3167	01:25:15:26	 	36.82671	-122.16896	2372756	1.11	58:00.0	Ventana	34.161	01:27:07:03	7.022	Echinoidea	Strongylocentrotidae	Allocentrotus			Animalia	Echinoida	Echinodermata	Allocentrotus fragilis	Euechinoidea			Echinacea				Eukaryota		V3167-02
 	transect	Hippasteria	319.23	3167	00:19:28:12	 	36.824383	-122.169716	2462400	1.14	51:48.0	Ventana	34.158	00:21:24:24	7.025		Goniasteridae	Hippasteria			Animalia	Valvatida	Echinodermata		Asteroidea			Granulosina				Eukaryota		V3167-01
 	cruise	Hydrolagus colliei	302.19	3167	01:31:05:01	 	36.827972	-122.16801	2389474	1.09	03:50.0	Ventana	34.164	01:32:55:26	6.953	Chondrichthyes	Chimaeridae	Hydrolagus			Animalia	Chimaeriformes	Chordata	Hydrolagus colliei	Holocephali			Chimaeroidei	Vertebrata			Eukaryota	Holocephalimorpha	V3167-02
 	transect	Allocentrotus fragilis	313.42	3167	01:18:50:08	 	36.82575	-122.168655	2371190	1.11	51:34.0	Ventana	34.161	01:20:41:10	6.99	Echinoidea	Strongylocentrotidae	Allocentrotus			Animalia	Echinoida	Echinodermata	Allocentrotus fragilis	Euechinoidea			Echinacea				Eukaryota		V3167-02
 	transect	Allocentrotus fragilis	305.1	3167	01:27:48:21	 	36.827442	-122.16855	2388600	1.12	00:33.0	Ventana	34.159	01:29:40:03	7.026	Echinoidea	Strongylocentrotidae	Allocentrotus			Animalia	Echinoida	Echinodermata	Allocentrotus fragilis	Euechinoidea			Echinacea				Eukaryota		V3167-02
 	transect	Rathbunaster californicus	309.33	3167	01:35:00:08	 	36.827015	-122.16786	2390166	1.08	07:45.0	Ventana	34.164	01:36:51:11	6.94		Labidiasteridae	Rathbunaster			Animalia	Forcipulatida	Echinodermata	Rathbunaster californicus	Asteroidea							Eukaryota		V3167-02
 	cruise	Rathbunaster californicus	109.98	3167	03:19:26:13	 	36.8427	-122.140175	2468664	4.62	53:05.0	Ventana	33.546	03:21:07:10	11.126		Labidiasteridae	Rathbunaster			Animalia	Forcipulatida	Echinodermata	Rathbunaster californicus	Asteroidea							Eukaryota		V3167-04
 	transect	Mediaster aequalis	322.88	3167	00:57:31:03	 	36.824142	-122.17043	2464195	1.14	30:14.0	Ventana	34.157	00:59:23:01	7.052		Goniasteridae	Mediaster			Animalia	Valvatida	Echinodermata	Mediaster aequalis	Asteroidea			Granulosina				Eukaryota		V3167-02
 	transect	Sebastes diploproa	309.35	3167	01:25:25:26	 	36.826756	-122.16894	2372770	1.11	58:10.0	Ventana	34.161	01:27:17:14	6.98	Osteichthyes	Scorpaenidae	Sebastes	Neopterygii		Animalia	Scorpaeniformes	Chordata	Sebastes diploproa	Actinopterygii			Scorpaenoidei	Vertebrata	Gnathostomata		Eukaryota	Acanthopterygii	V3167-02
 	transect	Rathbunaster californicus	316.07	3167	01:22:23:02	 	36.82572	-122.16946	2371651	1.09	55:07.0	Ventana	34.163	01:24:13:19	6.958		Labidiasteridae	Rathbunaster			Animalia	Forcipulatida	Echinodermata	Rathbunaster californicus	Asteroidea							Eukaryota		V3167-02
 	transect	Rathbunaster californicus	310.92	3167	01:24:23:13	 	36.826427	-122.169136	2372110	1.08	57:08.0	Ventana	34.165	01:26:16:02	6.93		Labidiasteridae	Rathbunaster			Animalia	Forcipulatida	Echinodermata	Rathbunaster californicus	Asteroidea							Eukaryota		V3167-02
 	transect	Hippasteria	311.85	3167	01:23:59:14	 	36.82629	-122.169205	2372004	1.07	56:44.0	Ventana	34.165	01:25:49:23	6.925		Goniasteridae	Hippasteria			Animalia	Valvatida	Echinodermata		Asteroidea			Granulosina				Eukaryota		V3167-02
 	transect	Rathbunaster californicus	315.51	3167	01:22:41:01	 	36.825825	-122.16941	2371711	1.08	55:25.0	Ventana	34.166	01:24:33:21	6.927		Labidiasteridae	Rathbunaster			Animalia	Forcipulatida	Echinodermata	Rathbunaster californicus	Asteroidea							Eukaryota		V3167-02
 	transect	Sebastes	308.85	3167	01:33:39:26	 	36.827522	-122.16767	2389783	1.07	06:25.0	Ventana	34.166	01:35:31:28	6.926	Osteichthyes	Scorpaenidae	Sebastes	Neopterygii		Animalia	Scorpaeniformes	Chordata		Actinopterygii			Scorpaenoidei	Vertebrata	Gnathostomata		Eukaryota	Acanthopterygii	V3167-02
 	transect	Rathbunaster californicus	312.35	3167	01:16:55:27	 	36.826324	-122.16816	2370574	1.07	49:39.0	Ventana	34.166	01:18:46:25	6.915		Labidiasteridae	Rathbunaster			Animalia	Forcipulatida	Echinodermata	Rathbunaster californicus	Asteroidea							Eukaryota		V3167-02
 	transect	Stylasterias forreri	310.38	3167	01:24:53:27	 	36.8266	-122.16903	2372726	1.09	57:38.0	Ventana	34.165	01:26:44:12	6.968		Asteriidae	Stylasterias			Animalia	Forcipulatida	Echinodermata	Stylasterias forreri	Asteroidea							Eukaryota		V3167-02
 	transect	Rathbunaster californicus	309.57	3167	01:35:12:08	 	36.826946	-122.167915	2390226	1.08	07:57.0	Ventana	34.163	01:37:03:18	6.95		Labidiasteridae	Rathbunaster			Animalia	Forcipulatida	Echinodermata	Rathbunaster californicus	Asteroidea							Eukaryota		V3167-02
 	transect	Rathbunaster californicus	312.97	3167	01:18:28:09	 	36.825863	-122.16853	2371130	1.1	51:12.0	Ventana	34.16	01:20:18:27	6.984		Labidiasteridae	Rathbunaster			Animalia	Forcipulatida	Echinodermata	Rathbunaster californicus	Asteroidea							Eukaryota		V3167-02
 	transect	Allocentrotus fragilis	308.54	3167	01:25:41:26	 	36.82683	-122.16889	2372800	1.09	58:26.0	Ventana	34.163	01:27:32:08	6.991	Echinoidea	Strongylocentrotidae	Allocentrotus			Animalia	Echinoida	Echinodermata	Allocentrotus fragilis	Euechinoidea			Echinacea				Eukaryota		V3167-02
 	transect	Rathbunaster californicus	310.49	3167	01:24:41:27	 	36.826527	-122.169075	2372696	1.08	57:26.0	Ventana	34.165	01:26:33:24	6.934		Labidiasteridae	Rathbunaster			Animalia	Forcipulatida	Echinodermata	Rathbunaster californicus	Asteroidea							Eukaryota		V3167-02
 	transect	Parastichopus leukothele	312.8	3167	01:17:15:26	 	36.826218	-122.168175	2370777	1.07	50:00.0	Ventana	34.165	01:19:07:27	6.914	Holothuroidea	Stichopodidae	Parastichopus			Animalia	Aspidochirotida	Echinodermata	Parastichopus leukothele	Aspidochirotacea							Eukaryota		V3167-02
 	transect	Allocentrotus fragilis	305.95	3167	01:27:00:08	 	36.827194	-122.168686	2388337	1.1	59:45.0	Ventana	34.164	01:28:51:24	6.964	Echinoidea	Strongylocentrotidae	Allocentrotus			Animalia	Echinoida	Echinodermata	Allocentrotus fragilis	Euechinoidea			Echinacea				Eukaryota		V3167-02
 	transect	Rathbunaster californicus	312.09	3167	01:23:53:14	 	36.826256	-122.16922	2371974	1.07	56:38.0	Ventana	34.165	01:25:44:06	6.925		Labidiasteridae	Rathbunaster			Animalia	Forcipulatida	Echinodermata	Rathbunaster californicus	Asteroidea							Eukaryota		V3167-02
 	transect	Allocentrotus fragilis	316.38	3167	01:22:11:02	 	36.82566	-122.16948	2371621	1.09	54:55.0	Ventana	34.163	01:24:01:15	6.958	Echinoidea	Strongylocentrotidae	Allocentrotus			Animalia	Echinoida	Echinodermata	Allocentrotus fragilis	Euechinoidea			Echinacea				Eukaryota		V3167-02
 	transect	Rathbunaster californicus	313.06	3167	01:17:49:25	 	36.826054	-122.168304	2370957	1.07	50:34.0	Ventana	34.166	01:19:41:22	6.913		Labidiasteridae	Rathbunaster			Animalia	Forcipulatida	Echinodermata	Rathbunaster californicus	Asteroidea							Eukaryota		V3167-02
 	transect	Sabellida	319.53	3167	00:19:08:13	 	36.82437	-122.16976	2462370	1.14	51:28.0	Ventana	34.159	00:21:05:03	7.025	Polychaeta					Animalia	Sabellida	Annelida		Palpata							Eukaryota	Canalipalpata	V3167-01
 	transect	Allocentrotus fragilis	305.16	3167	01:27:24:07	 	36.82732	-122.16862	2388510	1.11	00:09.0	Ventana	34.162	01:29:16:10	6.992	Echinoidea	Strongylocentrotidae	Allocentrotus			Animalia	Echinoida	Echinodermata	Allocentrotus fragilis	Euechinoidea			Echinacea				Eukaryota		V3167-02
 	transect	Rathbunaster californicus	316.8	3167	01:19:54:06	 	36.825428	-122.16899	2371388	1.07	52:38.0	Ventana	34.166	01:21:45:19	6.913		Labidiasteridae	Rathbunaster			Animalia	Forcipulatida	Echinodermata	Rathbunaster californicus	Asteroidea							Eukaryota		V3167-02
 	transect	Rathbunaster californicus	314.98	3167	01:22:49:01	 	36.82587	-122.16939	2371741	1.08	55:33.0	Ventana	34.166	01:24:41:01	6.927		Labidiasteridae	Rathbunaster			Animalia	Forcipulatida	Echinodermata	Rathbunaster californicus	Asteroidea							Eukaryota		V3167-02
 	transect	Rathbunaster californicus	323.13	3167	00:49:54:01	 	36.824448	-122.17069	2463272	1.18	22:15.0	Ventana	34.153	00:51:50:03	7.106		Labidiasteridae	Rathbunaster			Animalia	Forcipulatida	Echinodermata	Rathbunaster californicus	Asteroidea							Eukaryota		V3167-01
 	transect	Parastichopus leukothele	313.13	3167	01:18:40:09	 	36.8258	-122.1686	2371160	1.11	51:24.0	Ventana	34.161	01:20:30:24	6.99	Holothuroidea	Stichopodidae	Parastichopus			Animalia	Aspidochirotida	Echinodermata	Parastichopus leukothele	Aspidochirotacea							Eukaryota		V3167-02
 	transect	Sebastes diploproa	313.01	3167	01:17:59:25	 	36.826008	-122.16836	2370987	1.07	50:44.0	Ventana	34.165	01:19:50:16	6.914	Osteichthyes	Scorpaenidae	Sebastes	Neopterygii		Animalia	Scorpaeniformes	Chordata	Sebastes diploproa	Actinopterygii			Scorpaenoidei	Vertebrata	Gnathostomata		Eukaryota	Acanthopterygii	V3167-02
 	transect	Allocentrotus fragilis	308.92	3167	01:33:45:26	 	36.827484	-122.16767	2389813	1.07	06:31.0	Ventana	34.166	01:35:38:01	6.926	Echinoidea	Strongylocentrotidae	Allocentrotus			Animalia	Echinoida	Echinodermata	Allocentrotus fragilis	Euechinoidea			Echinacea				Eukaryota		V3167-02
 	transect	Mediaster aequalis	318.45	3167	00:35:24:13	http://search.mbari.org/ARCHIVE/frameGrabs/Ventana/images/3167/00_37_19_24.jpg	36.824875	-122.169586	2462949	1.14	07:45.0	Ventana	34.159	00:37:19:24	7.033		Goniasteridae	Mediaster			Animalia	Valvatida	Echinodermata	Mediaster aequalis	Asteroidea			Granulosina				Eukaryota		V3167-01
 	cruise	Hydrolagus colliei	309	3167	01:51:58:08	 	36.83014	-122.16699	2465498	1.09	24:44.0	Ventana	34.163	01:53:49:12	6.957	Chondrichthyes	Chimaeridae	Hydrolagus			Animalia	Chimaeriformes	Chordata	Hydrolagus colliei	Holocephali			Chimaeroidei	Vertebrata			Eukaryota	Holocephalimorpha	V3167-02
 	transect	Sebastes	305.19	3167	01:27:22:08	 	36.82731	-122.168625	2388480	1.1	00:07.0	Ventana	34.163	01:29:12:16	6.962	Osteichthyes	Scorpaenidae	Sebastes	Neopterygii		Animalia	Scorpaeniformes	Chordata		Actinopterygii			Scorpaenoidei	Vertebrata	Gnathostomata		Eukaryota	Acanthopterygii	V3167-02
 	cruise	mud	159.74	3167	02:28:58:03	 	36.83748	-122.15816	2467309	2.67	02:12.0	Ventana	33.938	02:30:40:19	9.305																			V3167-03
 	transect	Rathbunaster californicus	312.72	3167	01:23:45:14	 	36.82621	-122.16924	2371944	1.08	56:30.0	Ventana	34.165	01:25:36:20	6.929		Labidiasteridae	Rathbunaster			Animalia	Forcipulatida	Echinodermata	Rathbunaster californicus	Asteroidea							Eukaryota		V3167-02
 	transect	Allocentrotus fragilis	306.4	3167	01:26:48:09	 	36.827133	-122.16872	2388307	1.12	59:32.0	Ventana	34.164	01:28:40:14	6.991	Echinoidea	Strongylocentrotidae	Allocentrotus			Animalia	Echinoida	Echinodermata	Allocentrotus fragilis	Euechinoidea			Echinacea				Eukaryota		V3167-02
 	transect	Rathbunaster californicus	313.24	3167	01:17:23:26	 	36.82618	-122.1682	2370807	1.07	50:08.0	Ventana	34.166	01:19:14:17	6.912		Labidiasteridae	Rathbunaster			Animalia	Forcipulatida	Echinodermata	Rathbunaster californicus	Asteroidea							Eukaryota		V3167-02
 	cruise	Hydrolagus colliei	339.58	3167	00:05:01:09	 	36.820793	-122.17121	2459617	1.11	37:20.0	Ventana	34.16	00:06:57:18	6.938	Chondrichthyes	Chimaeridae	Hydrolagus			Animalia	Chimaeriformes	Chordata	Hydrolagus colliei	Holocephali			Chimaeroidei	Vertebrata			Eukaryota	Holocephalimorpha	V3167-01
 	transect	Raja rhina	305.04	3167	01:28:08:21	 	36.827553	-122.16849	2388660	1.13	00:53.0	Ventana	34.162	01:29:59:06	7	Chondrichthyes	Rajidae	Raja			Animalia	Rajiformes	Chordata	Raja rhina	Elasmobranchii				Vertebrata			Eukaryota	Batoidea	V3167-02
 	transect	Rathbunaster californicus	308.58	3167	01:33:03:27	 	36.827694	-122.16764	2389640	1.08	05:48.0	Ventana	34.165	01:34:54:29	6.927		Labidiasteridae	Rathbunaster			Animalia	Forcipulatida	Echinodermata	Rathbunaster californicus	Asteroidea							Eukaryota		V3167-02
 	transect	Allocentrotus fragilis	303.48	3167	01:29:08:19	 	36.827793	-122.16835	2388918	1.12	01:53.0	Ventana	34.159	01:31:01:09	7.03	Echinoidea	Strongylocentrotidae	Allocentrotus			Animalia	Echinoida	Echinodermata	Allocentrotus fragilis	Euechinoidea			Echinacea				Eukaryota		V3167-02
 	cruise	Lycodes cortezianus	332.07	3167	00:09:26:01	 	36.822224	-122.17077	2462127	1.11	41:45.0	Ventana	34.161	00:11:22:12	6.965	Osteichthyes	Zoarcidae	Lycodes	Neopterygii		Animalia	Perciformes	Chordata	Lycodes cortezianus	Actinopterygii			Zoarcoidei	Vertebrata	Gnathostomata		Eukaryota	Acanthopterygii	V3167-01
 	transect	Ceriantharia sp. 3	318.35	3167	00:36:44:26	http://search.mbari.org/ARCHIVE/frameGrabs/Ventana/images/3167/00_38_40_04.jpg	36.82489	-122.16986	2462979	1.15	09:05.0	Ventana	34.157	00:38:40:04	7.065	Anthozoa					Animalia	Ceriantharia	Cnidaria		Ceriantipatharia							Eukaryota		V3167-01
 	cruise	Stylasterias forreri	186.19	3167	02:19:15:20	 	36.83653	-122.159355	2466963	2.33	52:29.0	Ventana	33.99	02:20:57:14	8.95		Asteriidae	Stylasterias			Animalia	Forcipulatida	Echinodermata	Stylasterias forreri	Asteroidea							Eukaryota		V3167-03
 	transect	Rathbunaster californicus	308.9	3167	01:34:17:24	 	36.827282	-122.16774	2390016	1.08	07:03.0	Ventana	34.165	01:36:09:28	6.933		Labidiasteridae	Rathbunaster			Animalia	Forcipulatida	Echinodermata	Rathbunaster californicus	Asteroidea							Eukaryota		V3167-02
 	transect	Allocentrotus fragilis	308.32	3167	01:33:13:26	 	36.827663	-122.167656	2389670	1.08	05:58.0	Ventana	34.166	01:35:05:19	6.926	Echinoidea	Strongylocentrotidae	Allocentrotus			Animalia	Echinoida	Echinodermata	Allocentrotus fragilis	Euechinoidea			Echinacea				Eukaryota		V3167-02
 	cruise	Sebastes rufus	308.14	3167	01:13:47:03	 	36.82678	-122.16876	2464714	1.13	46:30.0	Ventana	34.159	01:15:37:17	7.019	Osteichthyes	Scorpaenidae	Sebastes	Neopterygii		Animalia	Scorpaeniformes	Chordata	Sebastes rufus	Actinopterygii			Scorpaenoidei	Vertebrata	Gnathostomata		Eukaryota	Acanthopterygii	V3167-02
 	cruise	Metridium farcimen	296.11	3167	01:58:31:26	http://search.mbari.org/ARCHIVE/frameGrabs/Ventana/images/3167/02_00_22_23.jpg	36.831955	-122.165405	2465551	1.13	31:18.0	Ventana	34.16	02:00:22:23	7.029	Anthozoa	Metridiidae	Metridium			Animalia	Actiniaria	Cnidaria	Metridium farcimen	Hexacorallia			Nyantheae				Eukaryota		V3167-02
 	transect	Sebastes	308.88	3167	01:32:59:27	 	36.827705	-122.16764	2389617	1.08	05:44.0	Ventana	34.165	01:34:51:16	6.927	Osteichthyes	Scorpaenidae	Sebastes	Neopterygii		Animalia	Scorpaeniformes	Chordata		Actinopterygii			Scorpaenoidei	Vertebrata	Gnathostomata		Eukaryota	Acanthopterygii	V3167-02
 	transect	Phyllospadix	158.07	3167	02:27:15:20	 	36.83713	-122.15787	2467286	2.73	00:29.0	Ventana	33.923	02:28:58:29	9.402		Zosteraceae	Phyllospadix			Plantae	Najadales										Eukaryota		V3167-03
 	transect	Stomphia	323.18	3167	00:53:14:25	 	36.82438	-122.17062	2463325	1.14	25:36.0	Ventana	34.16	00:55:11:20	7.072	Anthozoa	Actinostolidae	Stomphia			Animalia	Actiniaria	Cnidaria		Hexacorallia			Nyantheae				Eukaryota		V3167-01
 	transect	Rathbunaster californicus	319.11	3167	00:37:44:24	 	36.82491	-122.170074	2463009	1.16	10:05.0	Ventana	34.156	00:39:40:27	7.075		Labidiasteridae	Rathbunaster			Animalia	Forcipulatida	Echinodermata	Rathbunaster californicus	Asteroidea							Eukaryota		V3167-01
 	transect	Gastropoda	164.98	3167	02:31:56:27	 	36.837395	-122.158646	2467339	2.71	05:11.0	Ventana	33.935	02:33:39:04	9.38	Gastropoda					Animalia		Mollusca									Eukaryota		V3167-03
 	transect	Allocentrotus fragilis	313.56	3167	01:23:33:14	 	36.826138	-122.16927	2371914	1.07	56:18.0	Ventana	34.166	01:25:24:26	6.924	Echinoidea	Strongylocentrotidae	Allocentrotus			Animalia	Echinoida	Echinodermata	Allocentrotus fragilis	Euechinoidea			Echinacea				Eukaryota		V3167-02
 	transect	Sebastes	308.9	3167	01:34:07:25	 	36.827343	-122.16771	2389963	1.08	06:53.0	Ventana	34.165	01:35:58:22	6.933	Osteichthyes	Scorpaenidae	Sebastes	Neopterygii		Animalia	Scorpaeniformes	Chordata		Actinopterygii			Scorpaenoidei	Vertebrata	Gnathostomata		Eukaryota	Acanthopterygii	V3167-02
 	transect	Rathbunaster californicus	314.84	3167	01:23:11:15	 	36.826008	-122.16933	2371824	1.07	55:55.0	Ventana	34.165	01:25:03:12	6.923		Labidiasteridae	Rathbunaster			Animalia	Forcipulatida	Echinodermata	Rathbunaster californicus	Asteroidea							Eukaryota		V3167-02
 	cruise	Stylasterias forreri	335.54	3167	00:07:21:20	 	36.821564	-122.171036	2462097	1.11	39:40.0	Ventana	34.16	00:09:17:22	6.955		Asteriidae	Stylasterias			Animalia	Forcipulatida	Echinodermata	Stylasterias forreri	Asteroidea							Eukaryota		V3167-01
 	transect	Phyllospadix	171.74	3167	02:35:09:21	 	36.83722	-122.15919	2467369	2.65	08:24.0	Ventana	33.941	02:36:52:14	9.303		Zosteraceae	Phyllospadix			Plantae	Najadales										Eukaryota		V3167-03
 	transect	Sebastes	308.78	3167	01:32:51:12	 	36.827736	-122.16764	2389587	1.08	05:36.0	Ventana	34.165	01:34:43:21	6.93	Osteichthyes	Scorpaenidae	Sebastes	Neopterygii		Animalia	Scorpaeniformes	Chordata		Actinopterygii			Scorpaenoidei	Vertebrata	Gnathostomata		Eukaryota	Acanthopterygii	V3167-02
 	transect	Rathbunaster californicus	322.72	3167	00:48:33:19	 	36.82465	-122.17082	2463242	1.19	20:55.0	Ventana	34.153	00:50:29:01	7.118		Labidiasteridae	Rathbunaster			Animalia	Forcipulatida	Echinodermata	Rathbunaster californicus	Asteroidea							Eukaryota		V3167-01
 	cruise	Parastichopus leukothele	307.37	3167	01:36:48:20	 	36.826775	-122.16852	2390766	1.08	09:34.0	Ventana	34.165	01:38:39:04	6.935	Holothuroidea	Stichopodidae	Parastichopus			Animalia	Aspidochirotida	Echinodermata	Parastichopus leukothele	Aspidochirotacea							Eukaryota		V3167-02
 	transect	Rathbunaster californicus	320.18	3167	00:18:28:14	 	36.824326	-122.16991	2462317	1.12	50:48.0	Ventana	34.161	00:20:25:00	6.992		Labidiasteridae	Rathbunaster			Animalia	Forcipulatida	Echinodermata	Rathbunaster californicus	Asteroidea							Eukaryota		V3167-01
 	cruise	Agonidae	310.99	3167	01:11:34:07	 	36.826477	-122.169174	2464624	1.09	44:18.0	Ventana	34.164	01:13:25:23	6.954	Osteichthyes	Agonidae		Neopterygii		Animalia	Scorpaeniformes	Chordata		Actinopterygii				Vertebrata	Gnathostomata		Eukaryota	Acanthopterygii	V3167-02
 	transect	Rathbunaster californicus	322.95	3167	00:59:15:15	 	36.82393	-122.170204	2464278	1.14	31:58.0	Ventana	34.157	01:01:06:19	7.046		Labidiasteridae	Rathbunaster			Animalia	Forcipulatida	Echinodermata	Rathbunaster californicus	Asteroidea							Eukaryota		V3167-02
 	cruise	cable	171.91	3167	02:21:32:17	http://search.mbari.org/ARCHIVE/frameGrabs/Ventana/images/3167/02_23_15_05.jpg	36.83682	-122.15876	20024040	2.4	54:45.0	Ventana	33.977	02:23:15:05	9.013																			V3167-03
 	transect	Allocentrotus fragilis	312.35	3167	01:16:55:27	 	36.826324	-122.16816	2370551	1.07	49:39.0	Ventana	34.166	01:18:46:25	6.915	Echinoidea	Strongylocentrotidae	Allocentrotus			Animalia	Echinoida	Echinodermata	Allocentrotus fragilis	Euechinoidea			Echinacea				Eukaryota		V3167-02
 	transect	Parastichopus leukothele	319.9	3167	00:38:17:08	 	36.82492	-122.17019	2463039	1.14	10:38.0	Ventana	34.16	00:40:13:08	7.03	Holothuroidea	Stichopodidae	Parastichopus			Animalia	Aspidochirotida	Echinodermata	Parastichopus leukothele	Aspidochirotacea							Eukaryota		V3167-01
 	transect	Allocentrotus fragilis	303.09	3167	01:29:34:18	 	36.827892	-122.16828	2389008	1.14	02:19.0	Ventana	34.159	01:31:26:13	7.042	Echinoidea	Strongylocentrotidae	Allocentrotus			Animalia	Echinoida	Echinodermata	Allocentrotus fragilis	Euechinoidea			Echinacea				Eukaryota		V3167-02
 	transect	Rathbunaster californicus	309.22	3167	01:34:36:09	 	36.827168	-122.167786	2390076	1.08	07:21.0	Ventana	34.165	01:36:26:19	6.927		Labidiasteridae	Rathbunaster			Animalia	Forcipulatida	Echinodermata	Rathbunaster californicus	Asteroidea							Eukaryota		V3167-02
 	transect	Rathbunaster californicus	313.24	3167	01:18:17:24	 	36.825912	-122.16847	2371100	1.08	51:02.0	Ventana	34.161	01:20:09:10	6.953		Labidiasteridae	Rathbunaster			Animalia	Forcipulatida	Echinodermata	Rathbunaster californicus	Asteroidea							Eukaryota		V3167-02
 	transect	Rathbunaster californicus	308.74	3167	01:34:03:25	 	36.82737	-122.1677	2389933	1.08	06:49.0	Ventana	34.165	01:35:55:17	6.927		Labidiasteridae	Rathbunaster			Animalia	Forcipulatida	Echinodermata	Rathbunaster californicus	Asteroidea							Eukaryota		V3167-02
 	transect	Parastichopus leukothele	322.53	3167	00:58:35:16	 	36.82399	-122.170296	2464248	1.15	31:18.0	Ventana	34.157	01:00:27:14	7.051	Holothuroidea	Stichopodidae	Parastichopus			Animalia	Aspidochirotida	Echinodermata	Parastichopus leukothele	Aspidochirotacea							Eukaryota		V3167-02
 	transect	Sebastes	305.76	3167	01:27:12:08	 	36.827255	-122.16865	2388397	1.1	59:57.0	Ventana	34.163	01:29:03:25	6.962	Osteichthyes	Scorpaenidae	Sebastes	Neopterygii		Animalia	Scorpaeniformes	Chordata		Actinopterygii			Scorpaenoidei	Vertebrata	Gnathostomata		Eukaryota	Acanthopterygii	V3167-02
 	transect	Allocentrotus fragilis	311.62	3167	01:16:39:12	 	36.8264	-122.168175	2370521	1.07	49:23.0	Ventana	34.165	01:18:31:12	6.917	Echinoidea	Strongylocentrotidae	Allocentrotus			Animalia	Echinoida	Echinodermata	Allocentrotus fragilis	Euechinoidea			Echinacea				Eukaryota		V3167-02
 	transect	Allocentrotus fragilis	313.18	3167	01:18:09:25	 	36.825947	-122.168434	2371070	1.08	50:54.0	Ventana	34.161	01:20:01:27	6.953	Echinoidea	Strongylocentrotidae	Allocentrotus			Animalia	Echinoida	Echinodermata	Allocentrotus fragilis	Euechinoidea			Echinacea				Eukaryota		V3167-02
 	transect	Rathbunaster californicus	308.83	3167	01:33:57:25	 	36.827408	-122.167694	2389903	1.08	06:43.0	Ventana	34.165	01:35:49:16	6.927		Labidiasteridae	Rathbunaster			Animalia	Forcipulatida	Echinodermata	Rathbunaster californicus	Asteroidea							Eukaryota		V3167-02
 	transect	Allocentrotus fragilis	305.15	3167	01:27:36:07	 	36.82738	-122.16859	2388570	1.11	00:21.0	Ventana	34.162	01:29:27:26	6.992	Echinoidea	Strongylocentrotidae	Allocentrotus			Animalia	Echinoida	Echinodermata	Allocentrotus fragilis	Euechinoidea			Echinacea				Eukaryota		V3167-02
 	transect	Rathbunaster californicus	308.83	3167	01:33:27:26	 	36.82759	-122.16766	2389730	1.08	06:13.0	Ventana	34.166	01:35:18:22	6.925		Labidiasteridae	Rathbunaster			Animalia	Forcipulatida	Echinodermata	Rathbunaster californicus	Asteroidea							Eukaryota		V3167-02
 	transect	Allocentrotus fragilis	313.07	3167	01:17:37:25	 	36.82611	-122.16824	2370897	1.07	50:22.0	Ventana	34.166	01:19:28:23	6.912	Echinoidea	Strongylocentrotidae	Allocentrotus			Animalia	Echinoida	Echinodermata	Allocentrotus fragilis	Euechinoidea			Echinacea				Eukaryota		V3167-02
 	transect	Rathbunaster californicus	309.01	3167	01:34:50:09	 	36.827076	-122.16782	2390127	1.08	07:35.0	Ventana	34.165	01:36:41:21	6.933		Labidiasteridae	Rathbunaster			Animalia	Forcipulatida	Echinodermata	Rathbunaster californicus	Asteroidea							Eukaryota		V3167-02
 	transect	Rathbunaster californicus	313.02	3167	01:17:35:26	 	36.826122	-122.168236	2370890	1.07	50:20.0	Ventana	34.166	01:19:27:20	6.912		Labidiasteridae	Rathbunaster			Animalia	Forcipulatida	Echinodermata	Rathbunaster californicus	Asteroidea							Eukaryota		V3167-02
 	transect	Allocentrotus fragilis	306.4	3167	01:26:48:09	 	36.827133	-122.16872	2388300	1.12	59:32.0	Ventana	34.164	01:28:40:14	6.991	Echinoidea	Strongylocentrotidae	Allocentrotus			Animalia	Echinoida	Echinodermata	Allocentrotus fragilis	Euechinoidea			Echinacea				Eukaryota		V3167-02
 	transect	Allocentrotus fragilis	308.83	3167	01:33:37:26	 	36.827534	-122.16766	2389774	1.07	06:23.0	Ventana	34.166	01:35:28:26	6.926	Echinoidea	Strongylocentrotidae	Allocentrotus			Animalia	Echinoida	Echinodermata	Allocentrotus fragilis	Euechinoidea			Echinacea				Eukaryota		V3167-02
 	cruise	object	303.01	3167	01:46:13:03	 	36.828575	-122.16791	2390895	1.09	18:59.0	Ventana	34.164	01:48:04:29	6.956																			V3167-02
 	transect	Sebastes	311.71	3167	01:24:07:14	 	36.826336	-122.16918	2372041	1.07	56:52.0	Ventana	34.165	01:25:58:00	6.925	Osteichthyes	Scorpaenidae	Sebastes	Neopterygii		Animalia	Scorpaeniformes	Chordata		Actinopterygii			Scorpaenoidei	Vertebrata	Gnathostomata		Eukaryota	Acanthopterygii	V3167-02
 	transect	Phyllospadix	163.56	3167	02:25:47:08	 	36.837	-122.15811	2467212	2.57	59:01.0	Ventana	33.958	02:27:29:22	9.234		Zosteraceae	Phyllospadix			Plantae	Najadales										Eukaryota		V3167-03
 	cruise	sediment	117.4	3167	03:05:27:09	http://search.mbari.org/ARCHIVE/frameGrabs/Ventana/images/3167/03_07_06_12.jpg	36.84121	-122.14726	2468288	3.53	39:05.0	Ventana	33.733	03:07:06:12	10.383																			V3167-04
 	transect	Hydrolagus colliei	305.03	3167	01:28:02:21	 	36.827515	-122.16851	2388653	1.16	00:47.0	Ventana	34.154	01:29:53:13	7.099	Chondrichthyes	Chimaeridae	Hydrolagus			Animalia	Chimaeriformes	Chordata	Hydrolagus colliei	Holocephali			Chimaeroidei	Vertebrata			Eukaryota	Holocephalimorpha	V3167-02
 	transect	Sebastes diploproa	315.85	3167	01:22:31:02	 	36.825768	-122.16944	2371688	1.08	55:15.0	Ventana	34.164	01:24:23:04	6.938	Osteichthyes	Scorpaenidae	Sebastes	Neopterygii		Animalia	Scorpaeniformes	Chordata	Sebastes diploproa	Actinopterygii			Scorpaenoidei	Vertebrata	Gnathostomata		Eukaryota	Acanthopterygii	V3167-02
 	endtransect	object	319.03	3167	00:19:44:27	 	36.824394	-122.16968	2462437	1.14	52:04.0	Ventana	34.158	00:21:40:28	7.03																			V3167-01
 	transect	Parastichopus leukothele	302.83	3167	01:29:51:03	 	36.827946	-122.16824	2389038	1.11	02:35.0	Ventana	34.163	01:31:43:01	6.985	Holothuroidea	Stichopodidae	Parastichopus			Animalia	Aspidochirotida	Echinodermata	Parastichopus leukothele	Aspidochirotacea							Eukaryota		V3167-02
 	transect	Psolus squamatus	320.51	3167	00:38:29:08	 	36.824924	-122.17023	2463053	1.14	10:50.0	Ventana	34.16	00:40:25:29	7.03	Holothuroidea	Psolidae	Psolus			Animalia	Dendrochirotida	Echinodermata	Psolus squamatus								Eukaryota		V3167-01
 	transect	Stomphia	319.32	3167	00:26:42:14	 	36.82457	-122.16936	2462700	1.14	59:02.0	Ventana	34.158	00:28:38:18	7.04	Anthozoa	Actinostolidae	Stomphia			Animalia	Actiniaria	Cnidaria		Hexacorallia			Nyantheae				Eukaryota		V3167-01
 	transect	Parastichopus leukothele	322.91	3167	00:57:25:03	http://search.mbari.org/ARCHIVE/frameGrabs/Ventana/images/3167/00_59_15_26.jpg	36.824158	-122.17044	2464174	1.14	30:08.0	Ventana	34.157	00:59:15:26	7.052	Holothuroidea	Stichopodidae	Parastichopus			Animalia	Aspidochirotida	Echinodermata	Parastichopus leukothele	Aspidochirotacea							Eukaryota		V3167-02
 	transect	Sebastes	309.57	3167	01:35:04:08	 	36.826992	-122.16788	2390187	1.08	07:49.0	Ventana	34.164	01:36:54:18	6.94	Osteichthyes	Scorpaenidae	Sebastes	Neopterygii		Animalia	Scorpaeniformes	Chordata		Actinopterygii			Scorpaenoidei	Vertebrata	Gnathostomata		Eukaryota	Acanthopterygii	V3167-02
 	transect	Rathbunaster californicus	312.46	3167	01:16:59:27	 	36.8263	-122.16816	2370597	1.07	49:43.0	Ventana	34.166	01:18:51:10	6.915		Labidiasteridae	Rathbunaster			Animalia	Forcipulatida	Echinodermata	Rathbunaster californicus	Asteroidea							Eukaryota		V3167-02
 	transect	Rathbunaster californicus	313.66	3167	01:18:54:08	 	36.82573	-122.16868	2371213	1.1	51:38.0	Ventana	34.163	01:20:45:22	6.956		Labidiasteridae	Rathbunaster			Animalia	Forcipulatida	Echinodermata	Rathbunaster californicus	Asteroidea							Eukaryota		V3167-02
 	transect	Parastichopus leukothele	305.06	3167	01:27:58:21	 	36.827496	-122.168526	2388623	1.16	00:43.0	Ventana	34.154	01:29:49:26	7.099	Holothuroidea	Stichopodidae	Parastichopus			Animalia	Aspidochirotida	Echinodermata	Parastichopus leukothele	Aspidochirotacea							Eukaryota		V3167-02
 	cruise	Pleurobranchaea californica	143.33	3167	02:45:12:02	 	36.83772	-122.15603	2467475	2.93	18:27.0	Ventana	33.857	02:46:54:09	9.658	Gastropoda	Pleurobranchidae	Pleurobranchaea			Animalia	Notaspidea	Mollusca	Pleurobranchaea californica	Opisthobranchia						Pleurobranchiacea	Eukaryota		V3167-03
 	transect	Rathbunaster californicus	310.6	3167	01:24:39:27	 	36.826515	-122.16908	2372687	1.08	57:24.0	Ventana	34.165	01:26:31:06	6.934		Labidiasteridae	Rathbunaster			Animalia	Forcipulatida	Echinodermata	Rathbunaster californicus	Asteroidea							Eukaryota		V3167-02
 	transect	Allocentrotus fragilis	306.58	3167	01:26:42:09	 	36.827103	-122.16873	2388270	1.12	59:26.0	Ventana	34.164	01:28:33:08	6.991	Echinoidea	Strongylocentrotidae	Allocentrotus			Animalia	Echinoida	Echinodermata	Allocentrotus fragilis	Euechinoidea			Echinacea				Eukaryota		V3167-02
 	transect	Hippasteria	308.88	3167	01:33:31:26	 	36.827568	-122.16766	2389744	1.08	06:17.0	Ventana	34.166	01:35:22:12	6.925		Goniasteridae	Hippasteria			Animalia	Valvatida	Echinodermata		Asteroidea			Granulosina				Eukaryota		V3167-02
 	transect	Rathbunaster californicus	311.93	3167	01:23:55:14	 	36.826267	-122.16921	2371981	1.07	56:40.0	Ventana	34.165	01:25:46:25	6.925		Labidiasteridae	Rathbunaster			Animalia	Forcipulatida	Echinodermata	Rathbunaster californicus	Asteroidea							Eukaryota		V3167-02
 	transect	Rathbunaster californicus	313.13	3167	01:17:47:25	 	36.82606	-122.1683	2370950	1.07	50:32.0	Ventana	34.166	01:19:39:25	6.913		Labidiasteridae	Rathbunaster			Animalia	Forcipulatida	Echinodermata	Rathbunaster californicus	Asteroidea							Eukaryota		V3167-02
 	transect	Rathbunaster californicus	314.98	3167	01:22:49:01	 	36.82587	-122.16939	2371748	1.08	55:33.0	Ventana	34.166	01:24:41:01	6.927		Labidiasteridae	Rathbunaster			Animalia	Forcipulatida	Echinodermata	Rathbunaster californicus	Asteroidea							Eukaryota		V3167-02
 	transect	Rathbunaster californicus	313.01	3167	01:18:36:09	 	36.825825	-122.16858	2371153	1.1	51:20.0	Ventana	34.16	01:20:27:08	6.984		Labidiasteridae	Rathbunaster			Animalia	Forcipulatida	Echinodermata	Rathbunaster californicus	Asteroidea							Eukaryota		V3167-02
 	transect	Allocentrotus fragilis	309.64	3167	01:15:33:15	 	36.82668	-122.16829	2370447	1.07	48:17.0	Ventana	34.164	01:17:25:06	6.927	Echinoidea	Strongylocentrotidae	Allocentrotus			Animalia	Echinoida	Echinodermata	Allocentrotus fragilis	Euechinoidea			Echinacea				Eukaryota		V3167-02
 	transect	Parastichopus leukothele	168.58	3167	02:23:48:27	http://search.mbari.org/ARCHIVE/frameGrabs/Ventana/images/3167/02_25_32_01.jpg	36.836914	-122.158455	2467122	2.45	57:02.0	Ventana	33.969	02:25:32:01	9.068	Holothuroidea	Stichopodidae	Parastichopus			Animalia	Aspidochirotida	Echinodermata	Parastichopus leukothele	Aspidochirotacea							Eukaryota		V3167-03
 	transect	Rathbunaster californicus	312.59	3167	01:23:47:14	 	36.82622	-122.169235	2371951	1.08	56:32.0	Ventana	34.165	01:25:38:28	6.929		Labidiasteridae	Rathbunaster			Animalia	Forcipulatida	Echinodermata	Rathbunaster californicus	Asteroidea							Eukaryota		V3167-02
 	transect	Allocentrotus fragilis	313.37	3167	01:23:37:15	 	36.82616	-122.16926	2371921	1.07	56:22.0	Ventana	34.166	01:25:28:13	6.924	Echinoidea	Strongylocentrotidae	Allocentrotus			Animalia	Echinoida	Echinodermata	Allocentrotus fragilis	Euechinoidea			Echinacea				Eukaryota		V3167-02
 	transect	Rathbunaster californicus	313.33	3167	01:18:46:08	 	36.82577	-122.16863	2371183	1.11	51:30.0	Ventana	34.161	01:20:38:13	6.99		Labidiasteridae	Rathbunaster			Animalia	Forcipulatida	Echinodermata	Rathbunaster californicus	Asteroidea							Eukaryota		V3167-02
 	transect	Rathbunaster californicus	309.01	3167	01:34:56:08	 	36.827038	-122.16785	2390157	1.08	07:41.0	Ventana	34.164	01:36:48:12	6.94		Labidiasteridae	Rathbunaster			Animalia	Forcipulatida	Echinodermata	Rathbunaster californicus	Asteroidea							Eukaryota		V3167-02
 	transect	Allocentrotus fragilis	305.95	3167	01:27:00:08	 	36.827194	-122.168686	2388330	1.1	59:45.0	Ventana	34.164	01:28:51:24	6.964	Echinoidea	Strongylocentrotidae	Allocentrotus			Animalia	Echinoida	Echinodermata	Allocentrotus fragilis	Euechinoidea			Echinacea				Eukaryota		V3167-02
 	transect	Allocentrotus fragilis	308.92	3167	01:33:45:26	 	36.827484	-122.16767	2389804	1.07	06:31.0	Ventana	34.166	01:35:38:01	6.926	Echinoidea	Strongylocentrotidae	Allocentrotus			Animalia	Echinoida	Echinodermata	Allocentrotus fragilis	Euechinoidea			Echinacea				Eukaryota		V3167-02
 	cruise	Octopoda	172.1	3167	02:21:20:02	 	36.836807	-122.15878	2466979	2.39	54:33.0	Ventana	33.978	02:23:04:00	9.011	Cephalopoda					Animalia	Octopoda	Mollusca		Coleoidea							Eukaryota	Octopodiformes	V3167-03
 	transect	Allocentrotus fragilis	305.16	3167	01:27:24:07	 	36.82732	-122.16862	2388503	1.11	00:09.0	Ventana	34.162	01:29:16:10	6.992	Echinoidea	Strongylocentrotidae	Allocentrotus			Animalia	Echinoida	Echinodermata	Allocentrotus fragilis	Euechinoidea			Echinacea				Eukaryota		V3167-02
 	cruise	Hydrolagus colliei	309.23	3167	01:52:36:21	 	36.830307	-122.166855	2465505	1.09	25:22.0	Ventana	34.164	01:54:28:00	6.96	Chondrichthyes	Chimaeridae	Hydrolagus			Animalia	Chimaeriformes	Chordata	Hydrolagus colliei	Holocephali			Chimaeroidei	Vertebrata			Eukaryota	Holocephalimorpha	V3167-02
 	cruise	Stylasterias forreri	314.94	3167	01:09:11:26	 	36.82587	-122.16944	2464557	1.11	41:55.0	Ventana	34.162	01:11:02:12	6.977		Asteriidae	Stylasterias			Animalia	Forcipulatida	Echinodermata	Stylasterias forreri	Asteroidea							Eukaryota		V3167-02
 	cruise	Mediaster aequalis	122.54	3167	02:59:37:20	 	36.839836	-122.15043	2468085	3.38	33:15.0	Ventana	33.749	03:01:17:21	10.3		Goniasteridae	Mediaster			Animalia	Valvatida	Echinodermata	Mediaster aequalis	Asteroidea			Granulosina				Eukaryota		V3167-04
 	transect	Sebastes	308.62	3167	01:34:11:25	 	36.82732	-122.167725	2389977	1.08	06:57.0	Ventana	34.165	01:36:02:14	6.933	Osteichthyes	Scorpaenidae	Sebastes	Neopterygii		Animalia	Scorpaeniformes	Chordata		Actinopterygii			Scorpaenoidei	Vertebrata	Gnathostomata		Eukaryota	Acanthopterygii	V3167-02
 	transect	Hippasteria	303.87	3167	01:28:52:19	 	36.82773	-122.16838	2388856	1.09	01:37.0	Ventana	34.165	01:30:44:03	6.947		Goniasteridae	Hippasteria			Animalia	Valvatida	Echinodermata		Asteroidea			Granulosina				Eukaryota		V3167-02
 	transect	Rathbunaster californicus	317.1	3167	01:19:58:06	 	36.825417	-122.169014	2371395	1.07	52:42.0	Ventana	34.166	01:21:49:12	6.913		Labidiasteridae	Rathbunaster			Animalia	Forcipulatida	Echinodermata	Rathbunaster californicus	Asteroidea							Eukaryota		V3167-02
 	transect	Stylasterias forreri	167	3167	02:24:32:26	 	36.836945	-122.158325	2467152	2.55	57:46.0	Ventana	33.957	02:26:15:25	9.187		Asteriidae	Stylasterias			Animalia	Forcipulatida	Echinodermata	Stylasterias forreri	Asteroidea							Eukaryota		V3167-03
 	transect	Stomphia	319.55	3167	00:19:10:13	http://search.mbari.org/ARCHIVE/frameGrabs/Ventana/images/3167/00_21_06_11.jpg	36.82437	-122.16976	2462377	1.14	51:30.0	Ventana	34.159	00:21:06:11	7.025	Anthozoa	Actinostolidae	Stomphia			Animalia	Actiniaria	Cnidaria		Hexacorallia			Nyantheae				Eukaryota		V3167-01
 	cruise	trench	107.73	3167	03:43:50:13	http://search.mbari.org/ARCHIVE/frameGrabs/Ventana/images/3167/03_45_30_10.jpg	36.845493	-122.134926	2471033	4.81	17:31.0	Ventana	33.515	03:45:30:10	11.203																			V3167-04
 	cruise	Stomphia	330.35	3167	00:10:36:14	 	36.8225	-122.17067	2462150	1.09	42:55.0	Ventana	34.164	00:12:32:04	6.913	Anthozoa	Actinostolidae	Stomphia			Animalia	Actiniaria	Cnidaria		Hexacorallia			Nyantheae				Eukaryota		V3167-01
 	transect	Allocentrotus fragilis	306.89	3167	01:26:30:09	 	36.827053	-122.16876	2372959	1.17	59:14.0	Ventana	34.157	01:28:22:11	7.079	Echinoidea	Strongylocentrotidae	Allocentrotus			Animalia	Echinoida	Echinodermata	Allocentrotus fragilis	Euechinoidea			Echinacea				Eukaryota		V3167-02
 	transect	Raja rhina	303.73	3167	01:29:00:19	 	36.82776	-122.168365	2388895	1.09	01:45.0	Ventana	34.163	01:30:52:17	6.964	Chondrichthyes	Rajidae	Raja			Animalia	Rajiformes	Chordata	Raja rhina	Elasmobranchii				Vertebrata			Eukaryota	Batoidea	V3167-02
 	cruise	Parastichopus leukothele	321.84	3167	01:04:12:21	 	36.82421	-122.17027	2464384	1.14	36:56.0	Ventana	34.159	01:06:04:11	7.045	Holothuroidea	Stichopodidae	Parastichopus			Animalia	Aspidochirotida	Echinodermata	Parastichopus leukothele	Aspidochirotacea							Eukaryota		V3167-02
 	transect	Parastichopus leukothele	314.81	3167	01:23:21:15	 	36.82606	-122.169304	2371861	1.07	56:05.0	Ventana	34.165	01:25:12:08	6.923	Holothuroidea	Stichopodidae	Parastichopus			Animalia	Aspidochirotida	Echinodermata	Parastichopus leukothele	Aspidochirotacea							Eukaryota		V3167-02
 	transect	Sebastes	308.9	3167	01:34:07:25	 	36.827343	-122.16771	2389954	1.08	06:53.0	Ventana	34.165	01:35:58:22	6.933	Osteichthyes	Scorpaenidae	Sebastes	Neopterygii		Animalia	Scorpaeniformes	Chordata		Actinopterygii			Scorpaenoidei	Vertebrata	Gnathostomata		Eukaryota	Acanthopterygii	V3167-02
 	cruise	Parastichopus leukothele	290.91	3167	02:00:29:10	 	36.832497	-122.16492	2467708	1.13	33:41.0	Ventana	34.159	02:02:11:21	7.032	Holothuroidea	Stichopodidae	Parastichopus			Animalia	Aspidochirotida	Echinodermata	Parastichopus leukothele	Aspidochirotacea							Eukaryota		V3167-03
 	cruise	Rathbunaster californicus	309.39	3167	01:35:48:07	 	36.826813	-122.1681	2390745	1.08	08:33.0	Ventana	34.163	01:37:40:22	6.946		Labidiasteridae	Rathbunaster			Animalia	Forcipulatida	Echinodermata	Rathbunaster californicus	Asteroidea							Eukaryota		V3167-02
 	transect	Parastichopus leukothele	308.78	3167	01:32:51:12	 	36.827736	-122.16764	2389594	1.08	05:36.0	Ventana	34.165	01:34:43:21	6.93	Holothuroidea	Stichopodidae	Parastichopus			Animalia	Aspidochirotida	Echinodermata	Parastichopus leukothele	Aspidochirotacea							Eukaryota		V3167-02
 	cruise	cable	240.06	3167	02:11:31:20	http://search.mbari.org/ARCHIVE/frameGrabs/Ventana/images/3167/02_13_13_23.jpg	36.835064	-122.16164	20024031	1.59	44:44.0	Ventana	34.113	02:13:13:23	7.862																			V3167-03
 	transect	Corallimorphus pilatus	304.49	3167	01:28:36:20	 	36.827667	-122.16842	2388796	1.1	01:21.0	Ventana	34.162	01:30:27:08	6.963	Anthozoa	Corallimorphidae	Corallimorphus			Animalia	Corallimorpharia	Cnidaria	Corallimorphus pilatus	Hexacorallia							Eukaryota		V3167-02
 	transect	Psolus squamatus	319.07	3167	00:26:04:00	 	36.824505	-122.169464	2462527	1.13	58:24.0	Ventana	34.159	00:27:59:26	7.022	Holothuroidea	Psolidae	Psolus			Animalia	Dendrochirotida	Echinodermata	Psolus squamatus								Eukaryota		V3167-01
 	cruise	Mediaster aequalis	102.9	3167	04:02:24:02	 	36.849274	-122.12677	2471769	5.05	36:26.0	Ventana	33.478	04:04:00:03	11.292		Goniasteridae	Mediaster			Animalia	Valvatida	Echinodermata	Mediaster aequalis	Asteroidea			Granulosina				Eukaryota		V3167-05
 	transect	Stylasterias forreri	309.65	3167	01:35:26:08	 	36.82688	-122.16798	2390270	1.09	08:11.0	Ventana	34.164	01:37:16:17	6.953		Asteriidae	Stylasterias			Animalia	Forcipulatida	Echinodermata	Stylasterias forreri	Asteroidea							Eukaryota		V3167-02
 	transect	Rathbunaster californicus	314.8	3167	01:23:05:15	 	36.825962	-122.16935	2371801	1.07	55:49.0	Ventana	34.165	01:24:56:17	6.926		Labidiasteridae	Rathbunaster			Animalia	Forcipulatida	Echinodermata	Rathbunaster californicus	Asteroidea							Eukaryota		V3167-02
 	transect	Rathbunaster californicus	322.53	3167	00:47:53:20	 	36.824707	-122.170845	2463233	1.18	20:15.0	Ventana	34.153	00:49:49:28	7.114		Labidiasteridae	Rathbunaster			Animalia	Forcipulatida	Echinodermata	Rathbunaster californicus	Asteroidea							Eukaryota		V3167-01
 	transect	Rathbunaster californicus	313.04	3167	01:18:24:09	 	36.825886	-122.16851	2371123	1.1	51:08.0	Ventana	34.16	01:20:16:07	6.984		Labidiasteridae	Rathbunaster			Animalia	Forcipulatida	Echinodermata	Rathbunaster californicus	Asteroidea							Eukaryota		V3167-02
 	transect	Allocentrotus fragilis	306.88	3167	01:26:32:09	 	36.827057	-122.168755	2372989	1.17	59:16.0	Ventana	34.157	01:28:24:13	7.079	Echinoidea	Strongylocentrotidae	Allocentrotus			Animalia	Echinoida	Echinodermata	Allocentrotus fragilis	Euechinoidea			Echinacea				Eukaryota		V3167-02
 	transect	Rathbunaster californicus	308.62	3167	01:34:13:25	http://search.mbari.org/ARCHIVE/frameGrabs/Ventana/images/3167/01_36_06_06.jpg	36.827305	-122.167725	2390007	1.08	06:59.0	Ventana	34.165	01:36:06:06	6.933		Labidiasteridae	Rathbunaster			Animalia	Forcipulatida	Echinodermata	Rathbunaster californicus	Asteroidea							Eukaryota		V3167-02
 	transect	Rathbunaster californicus	320.64	3167	00:17:58:00	 	36.824326	-122.170006	2462234	1.12	50:17.0	Ventana	34.161	00:19:54:06	6.981		Labidiasteridae	Rathbunaster			Animalia	Forcipulatida	Echinodermata	Rathbunaster californicus	Asteroidea							Eukaryota		V3167-01
 	transect	Rathbunaster californicus	308.74	3167	01:34:01:25	 	36.82738	-122.1677	2389924	1.08	06:47.0	Ventana	34.165	01:35:52:07	6.927		Labidiasteridae	Rathbunaster			Animalia	Forcipulatida	Echinodermata	Rathbunaster californicus	Asteroidea							Eukaryota		V3167-02
 	cruise	cable	332.96	3167	00:09:04:02	http://search.mbari.org/ARCHIVE/frameGrabs/Ventana/images/3167/00_11_00_26.jpg	36.82212	-122.17082	2462120	1.11	41:23.0	Ventana	34.161	00:11:00:26	6.966																			V3167-01
 	cruise	Sebastes	307.69	3167	01:37:53:03	 	36.826874	-122.16879	2390775	1.08	10:38.0	Ventana	34.165	01:39:45:06	6.93	Osteichthyes	Scorpaenidae	Sebastes	Neopterygii		Animalia	Scorpaeniformes	Chordata		Actinopterygii			Scorpaenoidei	Vertebrata	Gnathostomata		Eukaryota	Acanthopterygii	V3167-02
 	transect	Allocentrotus fragilis	305.15	3167	01:27:36:07	 	36.82738	-122.16859	2388563	1.11	00:21.0	Ventana	34.162	01:29:27:26	6.992	Echinoidea	Strongylocentrotidae	Allocentrotus			Animalia	Echinoida	Echinodermata	Allocentrotus fragilis	Euechinoidea			Echinacea				Eukaryota		V3167-02
 	transect	Allocentrotus fragilis	303.07	3167	01:29:24:19	 	36.827854	-122.168304	2388985	1.14	02:09.0	Ventana	34.159	01:31:17:05	7.042	Echinoidea	Strongylocentrotidae	Allocentrotus			Animalia	Echinoida	Echinodermata	Allocentrotus fragilis	Euechinoidea			Echinacea				Eukaryota		V3167-02
 	transect	Rathbunaster californicus	318.84	3167	00:37:34:24	 	36.824905	-122.170044	2463000	1.16	09:55.0	Ventana	34.156	00:39:31:15	7.075		Labidiasteridae	Rathbunaster			Animalia	Forcipulatida	Echinodermata	Rathbunaster californicus	Asteroidea							Eukaryota		V3167-01
 	transect	Rathbunaster californicus	308.91	3167	01:33:51:26	 	36.827446	-122.16769	2389864	1.07	06:37.0	Ventana	34.166	01:35:43:19	6.926		Labidiasteridae	Rathbunaster			Animalia	Forcipulatida	Echinodermata	Rathbunaster californicus	Asteroidea							Eukaryota		V3167-02
 	transect	Raja rhina	303.17	3167	01:29:18:19	 	36.82783	-122.16832	2388955	1.12	02:03.0	Ventana	34.159	01:31:10:23	7.03	Chondrichthyes	Rajidae	Raja			Animalia	Rajiformes	Chordata	Raja rhina	Elasmobranchii				Vertebrata			Eukaryota	Batoidea	V3167-02
 	transect	Parmaturus xaniurus	314.62	3167	01:23:03:00	 	36.82595	-122.16936	2464820	1.07	55:47.0	Ventana	34.165	01:24:54:02	6.926	Chondrichthyes	Scyliorhinidae	Parmaturus			Animalia	Carcharhiniformes	Chordata	Parmaturus xaniurus	Elasmobranchii				Vertebrata			Eukaryota	Galeomorphi	V3167-02
 	transect	Rathbunaster californicus	321.79	3167	00:45:53:09	 	36.82485	-122.17055	2463203	1.14	18:14.0	Ventana	34.158	00:47:49:02	7.038		Labidiasteridae	Rathbunaster			Animalia	Forcipulatida	Echinodermata	Rathbunaster californicus	Asteroidea							Eukaryota		V3167-01
 	transect	Allocentrotus fragilis	322.78	3167	00:54:00:24	 	36.824314	-122.170555	2463376	1.17	26:22.0	Ventana	34.155	00:55:57:06	7.097	Echinoidea	Strongylocentrotidae	Allocentrotus			Animalia	Echinoida	Echinodermata	Allocentrotus fragilis	Euechinoidea			Echinacea				Eukaryota		V3167-01
 	cruise	Hydrolagus colliei	309.5	3167	01:12:24:20	 	36.82669	-122.169044	2464677	1.1	45:08.0	Ventana	34.164	01:14:15:01	6.979	Chondrichthyes	Chimaeridae	Hydrolagus			Animalia	Chimaeriformes	Chordata	Hydrolagus colliei	Holocephali			Chimaeroidei	Vertebrata			Eukaryota	Holocephalimorpha	V3167-02
 	transect	Allocentrotus fragilis	312.5	3167	01:17:07:27	 	36.826263	-122.16817	2370747	1.07	49:51.0	Ventana	34.166	01:18:59:09	6.915	Echinoidea	Strongylocentrotidae	Allocentrotus			Animalia	Echinoida	Echinodermata	Allocentrotus fragilis	Euechinoidea			Echinacea				Eukaryota		V3167-02
 	transect	Rathbunaster californicus	315.61	3167	01:19:30:07	 	36.82553	-122.16885	2371296	1.09	52:14.0	Ventana	34.163	01:21:21:17	6.954		Labidiasteridae	Rathbunaster			Animalia	Forcipulatida	Echinodermata	Rathbunaster californicus	Asteroidea							Eukaryota		V3167-02
 	transect	Rathbunaster californicus	318.43	3167	00:36:18:26	 	36.824883	-122.16976	2462970	1.15	08:39.0	Ventana	34.158	00:38:14:12	7.055		Labidiasteridae	Rathbunaster			Animalia	Forcipulatida	Echinodermata	Rathbunaster californicus	Asteroidea							Eukaryota		V3167-01
 	transect	Allocentrotus fragilis	305.49	3167	01:27:16:08	 	36.82728	-122.16864	2388420	1.1	00:01.0	Ventana	34.163	01:29:07:00	6.962	Echinoidea	Strongylocentrotidae	Allocentrotus			Animalia	Echinoida	Echinodermata	Allocentrotus fragilis	Euechinoidea			Echinacea				Eukaryota		V3167-02
 	cruise	Ceriantharia	169.88	3167	02:38:28:15	 	36.83697	-122.15852	2467392	2.71	11:43.0	Ventana	33.926	02:40:11:11	9.392	Anthozoa					Animalia	Ceriantharia	Cnidaria		Ceriantipatharia							Eukaryota		V3167-03
 	transect	Ceriantharia sp. 3	313.11	3167	01:17:39:25	 	36.826103	-122.16826	2370920	1.07	50:24.0	Ventana	34.166	01:19:30:05	6.913	Anthozoa					Animalia	Ceriantharia	Cnidaria		Ceriantipatharia							Eukaryota		V3167-02
 	transect	Rathbunaster californicus	308.83	3167	01:33:57:25	 	36.827408	-122.167694	2389894	1.08	06:43.0	Ventana	34.165	01:35:49:16	6.927		Labidiasteridae	Rathbunaster			Animalia	Forcipulatida	Echinodermata	Rathbunaster californicus	Asteroidea							Eukaryota		V3167-02
 	cruise	Parastichopus leukothele	260.67	3167	02:08:27:10	 	36.834373	-122.16261	2467768	1.46	41:39.0	Ventana	34.124	02:10:10:02	7.653	Holothuroidea	Stichopodidae	Parastichopus			Animalia	Aspidochirotida	Echinodermata	Parastichopus leukothele	Aspidochirotacea							Eukaryota		V3167-03
 	transect	Rathbunaster californicus	309.18	3167	01:34:32:09	 	36.827194	-122.16777	2390067	1.08	07:17.0	Ventana	34.165	01:36:23:28	6.927		Labidiasteridae	Rathbunaster			Animalia	Forcipulatida	Echinodermata	Rathbunaster californicus	Asteroidea							Eukaryota		V3167-02
 	transect	Stylasterias forreri	305.16	3167	01:27:46:06	 	36.827435	-122.16856	2388593	1.12	00:31.0	Ventana	34.159	01:29:37:16	7.026		Asteriidae	Stylasterias			Animalia	Forcipulatida	Echinodermata	Stylasterias forreri	Asteroidea							Eukaryota		V3167-02
 	transect	Rathbunaster californicus	309.63	3167	01:35:14:08	 	36.826935	-122.16792	2390240	1.08	07:59.0	Ventana	34.163	01:37:06:09	6.95		Labidiasteridae	Rathbunaster			Animalia	Forcipulatida	Echinodermata	Rathbunaster californicus	Asteroidea							Eukaryota		V3167-02
 	transect	Allocentrotus fragilis	312.35	3167	01:16:55:27	 	36.826324	-122.16816	2370560	1.07	49:39.0	Ventana	34.166	01:18:46:25	6.915	Echinoidea	Strongylocentrotidae	Allocentrotus			Animalia	Echinoida	Echinodermata	Allocentrotus fragilis	Euechinoidea			Echinacea				Eukaryota		V3167-02
 	transect	Rathbunaster californicus	311.93	3167	01:23:55:14	 	36.826267	-122.16921	2371988	1.07	56:40.0	Ventana	34.165	01:25:46:25	6.925		Labidiasteridae	Rathbunaster			Animalia	Forcipulatida	Echinodermata	Rathbunaster californicus	Asteroidea							Eukaryota		V3167-02
 	transect	Allocentrotus fragilis	305.98	3167	01:26:56:08	 	36.827175	-122.16869	2388323	1.1	59:41.0	Ventana	34.164	01:28:47:24	6.964	Echinoidea	Strongylocentrotidae	Allocentrotus			Animalia	Echinoida	Echinodermata	Allocentrotus fragilis	Euechinoidea			Echinacea				Eukaryota		V3167-02
 	transect	Allocentrotus fragilis	308.95	3167	01:25:35:26	 	36.8268	-122.16891	2372786	1.11	58:20.0	Ventana	34.161	01:27:26:23	6.98	Echinoidea	Strongylocentrotidae	Allocentrotus			Animalia	Echinoida	Echinodermata	Allocentrotus fragilis	Euechinoidea			Echinacea				Eukaryota		V3167-02
 	transect	Rathbunaster californicus	319.29	3167	00:27:26:12	 	36.82464	-122.169235	2462737	1.14	59:46.0	Ventana	34.158	00:29:22:01	7.028		Labidiasteridae	Rathbunaster			Animalia	Forcipulatida	Echinodermata	Rathbunaster californicus	Asteroidea							Eukaryota		V3167-01
 	cruise	Sebastes	291.74	3167	02:00:11:11	 	36.83242	-122.164986	2466437	1.13	33:23.0	Ventana	34.159	02:01:54:09	7.023	Osteichthyes	Scorpaenidae	Sebastes	Neopterygii		Animalia	Scorpaeniformes	Chordata		Actinopterygii			Scorpaenoidei	Vertebrata	Gnathostomata		Eukaryota	Acanthopterygii	V3167-03
 	transect	Ceriantharia sp. 3	305.05	3167	01:28:12:21	 	36.827568	-122.16848	2388676	1.13	00:57.0	Ventana	34.162	01:30:03:02	7	Anthozoa					Animalia	Ceriantharia	Cnidaria		Ceriantipatharia							Eukaryota		V3167-02
 	transect	Rathbunaster californicus	309.56	3167	01:25:03:27	 	36.82665	-122.169	2372740	1.09	57:48.0	Ventana	34.165	01:26:54:16	6.968		Labidiasteridae	Rathbunaster			Animalia	Forcipulatida	Echinodermata	Rathbunaster californicus	Asteroidea							Eukaryota		V3167-02
 	cruise	Sebastes	311.84	3167	01:10:54:08	 	36.826286	-122.16927	2464610	1.1	43:38.0	Ventana	34.163	01:12:45:29	6.969	Osteichthyes	Scorpaenidae	Sebastes	Neopterygii		Animalia	Scorpaeniformes	Chordata		Actinopterygii			Scorpaenoidei	Vertebrata	Gnathostomata		Eukaryota	Acanthopterygii	V3167-02
 	transect	Rathbunaster californicus	319.29	3167	00:27:00:14	 	36.8246	-122.16931	2462707	1.14	59:20.0	Ventana	34.158	00:28:56:19	7.033		Labidiasteridae	Rathbunaster			Animalia	Forcipulatida	Echinodermata	Rathbunaster californicus	Asteroidea							Eukaryota		V3167-01
 	transect	Rathbunaster californicus	316.08	3167	01:22:17:02	 	36.82569	-122.16947	2371635	1.09	55:01.0	Ventana	34.163	01:24:08:15	6.958		Labidiasteridae	Rathbunaster			Animalia	Forcipulatida	Echinodermata	Rathbunaster californicus	Asteroidea							Eukaryota		V3167-02
 	transect	Rathbunaster californicus	308.92	3167	01:33:45:26	 	36.827484	-122.16767	2389827	1.07	06:31.0	Ventana	34.166	01:35:38:01	6.926		Labidiasteridae	Rathbunaster			Animalia	Forcipulatida	Echinodermata	Rathbunaster californicus	Asteroidea							Eukaryota		V3167-02
 	transect	Sabellida	319.55	3167	00:19:12:13	 	36.824375	-122.169754	2462384	1.14	51:32.0	Ventana	34.159	00:21:08:15	7.025	Polychaeta					Animalia	Sabellida	Annelida		Palpata							Eukaryota	Canalipalpata	V3167-01
 	cruise	Hydrolagus colliei	302.06	3167	01:44:00:23	 	36.827778	-122.16835	2390872	1.14	16:46.0	Ventana	34.162	01:45:51:06	7.029	Chondrichthyes	Chimaeridae	Hydrolagus			Animalia	Chimaeriformes	Chordata	Hydrolagus colliei	Holocephali			Chimaeroidei	Vertebrata			Eukaryota	Holocephalimorpha	V3167-02
 	transect	Rathbunaster californicus	309.57	3167	01:35:04:08	 	36.826992	-122.16788	2390180	1.08	07:49.0	Ventana	34.164	01:36:54:18	6.94		Labidiasteridae	Rathbunaster			Animalia	Forcipulatida	Echinodermata	Rathbunaster californicus	Asteroidea							Eukaryota		V3167-02
 	transect	Parastichopus leukothele	313.12	3167	01:17:45:25	 	36.826073	-122.16828	2370943	1.07	50:30.0	Ventana	34.166	01:19:38:01	6.913	Holothuroidea	Stichopodidae	Parastichopus			Animalia	Aspidochirotida	Echinodermata	Parastichopus leukothele	Aspidochirotacea							Eukaryota		V3167-02
 	cruise	Sebastes aurora	284.51	3167	02:02:29:22	 	36.833008	-122.16439	2466467	1.14	35:42.0	Ventana	34.158	02:04:12:15	7.049	Osteichthyes	Scorpaenidae	Sebastes	Neopterygii		Animalia	Scorpaeniformes	Chordata	Sebastes aurora	Actinopterygii			Scorpaenoidei	Vertebrata	Gnathostomata		Eukaryota	Acanthopterygii	V3167-03
 	transect	Rathbunaster californicus	312.46	3167	01:16:59:27	 	36.8263	-122.16816	2370590	1.07	49:43.0	Ventana	34.166	01:18:51:10	6.915		Labidiasteridae	Rathbunaster			Animalia	Forcipulatida	Echinodermata	Rathbunaster californicus	Asteroidea							Eukaryota		V3167-02
 	cruise	Sebastes	302.48	3167	01:30:35:01	 	36.827995	-122.16812	2389458	1.09	03:20.0	Ventana	34.163	01:32:27:01	6.956	Osteichthyes	Scorpaenidae	Sebastes	Neopterygii		Animalia	Scorpaeniformes	Chordata		Actinopterygii			Scorpaenoidei	Vertebrata	Gnathostomata		Eukaryota	Acanthopterygii	V3167-02
 	transect	Rathbunaster californicus	311.4	3167	01:24:11:13	 	36.82636	-122.16917	2372064	1.08	56:56.0	Ventana	34.164	01:26:03:00	6.927		Labidiasteridae	Rathbunaster			Animalia	Forcipulatida	Echinodermata	Rathbunaster californicus	Asteroidea							Eukaryota		V3167-02
 	transect	Sebastes	308.91	3167	01:33:51:26	 	36.827446	-122.16769	2389857	1.07	06:37.0	Ventana	34.166	01:35:43:19	6.926	Osteichthyes	Scorpaenidae	Sebastes	Neopterygii		Animalia	Scorpaeniformes	Chordata		Actinopterygii			Scorpaenoidei	Vertebrata	Gnathostomata		Eukaryota	Acanthopterygii	V3167-02
 	transect	Allocentrotus fragilis	310.63	3167	01:16:11:13	 	36.826538	-122.16821	2370484	1.07	48:55.0	Ventana	34.166	01:18:02:18	6.923	Echinoidea	Strongylocentrotidae	Allocentrotus			Animalia	Echinoida	Echinodermata	Allocentrotus fragilis	Euechinoidea			Echinacea				Eukaryota		V3167-02
 	transect	Rathbunaster californicus	309.53	3167	01:35:10:08	 	36.826958	-122.16791	2390210	1.08	07:55.0	Ventana	34.163	01:37:01:07	6.95		Labidiasteridae	Rathbunaster			Animalia	Forcipulatida	Echinodermata	Rathbunaster californicus	Asteroidea							Eukaryota		V3167-02
 	transect	Rathbunaster californicus	314.63	3167	01:19:06:08	 	36.82566	-122.16873	2371236	1.1	51:50.0	Ventana	34.163	01:20:58:10	6.956		Labidiasteridae	Rathbunaster			Animalia	Forcipulatida	Echinodermata	Rathbunaster californicus	Asteroidea							Eukaryota		V3167-02
 	transect	Allocentrotus fragilis	310.48	3167	01:24:45:27	 	36.826546	-122.16907	2372710	1.08	57:30.0	Ventana	34.165	01:26:36:22	6.934	Echinoidea	Strongylocentrotidae	Allocentrotus			Animalia	Echinoida	Echinodermata	Allocentrotus fragilis	Euechinoidea			Echinacea				Eukaryota		V3167-02
 	transect	Rathbunaster californicus	309.11	3167	01:34:48:08	 	36.827087	-122.16782	2390120	1.08	07:33.0	Ventana	34.165	01:36:38:27	6.933		Labidiasteridae	Rathbunaster			Animalia	Forcipulatida	Echinodermata	Rathbunaster californicus	Asteroidea							Eukaryota		V3167-02
 	transect	Allocentrotus fragilis	315.77	3167	01:22:37:01	 	36.8258	-122.16942	2371695	1.08	55:21.0	Ventana	34.164	01:24:29:02	6.938	Echinoidea	Strongylocentrotidae	Allocentrotus			Animalia	Echinoida	Echinodermata	Allocentrotus fragilis	Euechinoidea			Echinacea				Eukaryota		V3167-02
 	transect	Rathbunaster californicus	320.13	3167	00:18:32:14	http://search.mbari.org/ARCHIVE/frameGrabs/Ventana/images/3167/00_20_28_11.jpg	36.82433	-122.16989	2462324	1.12	50:52.0	Ventana	34.161	00:20:28:11	6.992		Labidiasteridae	Rathbunaster			Animalia	Forcipulatida	Echinodermata	Rathbunaster californicus	Asteroidea							Eukaryota		V3167-01
 	transect	Rathbunaster californicus	322.57	3167	00:58:27:01	 	36.82401	-122.17031	2464241	1.15	31:10.0	Ventana	34.157	01:00:18:01	7.051		Labidiasteridae	Rathbunaster			Animalia	Forcipulatida	Echinodermata	Rathbunaster californicus	Asteroidea							Eukaryota		V3167-02
 	transect	Rathbunaster californicus	315.82	3167	01:19:34:07	 	36.825512	-122.16888	2371342	1.09	52:18.0	Ventana	34.163	01:21:26:05	6.954		Labidiasteridae	Rathbunaster			Animalia	Forcipulatida	Echinodermata	Rathbunaster californicus	Asteroidea							Eukaryota		V3167-02
 	transect	Rathbunaster californicus	313.26	3167	01:18:44:08	 	36.825783	-122.168625	2371176	1.11	51:28.0	Ventana	34.161	01:20:35:01	6.99		Labidiasteridae	Rathbunaster			Animalia	Forcipulatida	Echinodermata	Rathbunaster californicus	Asteroidea							Eukaryota		V3167-02
 	cruise	trench	108.58	3167	03:40:54:04	http://search.mbari.org/ARCHIVE/frameGrabs/Ventana/images/3167/03_42_33_20.jpg	36.844906	-122.13626	2471010	4.88	14:34.0	Ventana	33.505	03:42:33:20	11.23																			V3167-04
 	cruise	Stylasterias forreri	273.73	3167	02:05:34:16	 	36.8337	-122.16349	2466573	1.17	38:47.0	Ventana	34.155	02:07:16:29	7.123		Asteriidae	Stylasterias			Animalia	Forcipulatida	Echinodermata	Stylasterias forreri	Asteroidea							Eukaryota		V3167-03
 	cruise	Metridium farcimen	137.48	3167	02:48:41:11	 	36.838257	-122.154594	2467498	2.92	21:56.0	Ventana	33.865	02:50:24:25	9.645	Anthozoa	Metridiidae	Metridium			Animalia	Actiniaria	Cnidaria	Metridium farcimen	Hexacorallia			Nyantheae				Eukaryota		V3167-03
 	transect	Rathbunaster californicus	313.83	3167	01:23:31:15	 	36.826122	-122.16928	2371898	1.07	56:15.0	Ventana	34.166	01:25:22:05	6.924		Labidiasteridae	Rathbunaster			Animalia	Forcipulatida	Echinodermata	Rathbunaster californicus	Asteroidea							Eukaryota		V3167-02
 	transect	Rathbunaster californicus	311.34	3167	01:24:17:13	 	36.826393	-122.16915	2372094	1.08	57:02.0	Ventana	34.164	01:26:09:25	6.927		Labidiasteridae	Rathbunaster			Animalia	Forcipulatida	Echinodermata	Rathbunaster californicus	Asteroidea							Eukaryota		V3167-02
 	transect	Rathbunaster californicus	310.65	3167	01:24:35:28	 	36.826492	-122.1691	2372680	1.08	57:20.0	Ventana	34.165	01:26:27:05	6.93		Labidiasteridae	Rathbunaster			Animalia	Forcipulatida	Echinodermata	Rathbunaster californicus	Asteroidea							Eukaryota		V3167-02
 	transect	Phyllospadix	167.68	3167	02:24:06:26	 	36.836926	-122.1584	2467129	2.45	57:20.0	Ventana	33.969	02:25:48:21	9.073		Zosteraceae	Phyllospadix			Plantae	Najadales										Eukaryota		V3167-03
 	transect	Rathbunaster californicus	314.89	3167	01:22:53:01	 	36.825893	-122.16938	2371755	1.08	55:37.0	Ventana	34.166	01:24:44:13	6.927		Labidiasteridae	Rathbunaster			Animalia	Forcipulatida	Echinodermata	Rathbunaster californicus	Asteroidea							Eukaryota		V3167-02
 	transect	Sebastes diploproa	309.8	3167	01:15:37:14	 	36.826668	-122.16828	2370454	1.07	48:21.0	Ventana	34.164	01:17:28:09	6.927	Osteichthyes	Scorpaenidae	Sebastes	Neopterygii		Animalia	Scorpaeniformes	Chordata	Sebastes diploproa	Actinopterygii			Scorpaenoidei	Vertebrata	Gnathostomata		Eukaryota	Acanthopterygii	V3167-02
 	transect	Rathbunaster californicus	313.09	3167	01:23:39:14	 	36.82617	-122.16926	2371928	1.08	56:24.0	Ventana	34.165	01:25:30:15	6.929		Labidiasteridae	Rathbunaster			Animalia	Forcipulatida	Echinodermata	Rathbunaster californicus	Asteroidea							Eukaryota		V3167-02
 	transect	Rathbunaster californicus	316.7	3167	01:21:57:03	 	36.825592	-122.1695	2371575	1.09	54:41.0	Ventana	34.164	01:23:48:28	6.958		Labidiasteridae	Rathbunaster			Animalia	Forcipulatida	Echinodermata	Rathbunaster californicus	Asteroidea							Eukaryota		V3167-02
 	cruise	Stomphia	188.87	3167	02:18:49:21	 	36.83646	-122.1595	2466956	2.21	52:03.0	Ventana	34.007	02:20:32:12	8.862	Anthozoa	Actinostolidae	Stomphia			Animalia	Actiniaria	Cnidaria		Hexacorallia			Nyantheae				Eukaryota		V3167-03
 	transect	physical object	307.76	3167	01:26:07:25	http://search.mbari.org/ARCHIVE/frameGrabs/Ventana/images/3167/01_28_00_14.jpg	36.826942	-122.16882	2464933	1.19	58:52.0	Ventana	34.152	01:28:00:14	7.21																			V3167-02
 	cruise	Parmaturus xaniurus	327.14	3167	00:12:59:09	 	36.823254	-122.1705	2462181	1.13	45:18.0	Ventana	34.159	00:14:54:05	6.999	Chondrichthyes	Scyliorhinidae	Parmaturus			Animalia	Carcharhiniformes	Chordata	Parmaturus xaniurus	Elasmobranchii				Vertebrata			Eukaryota	Galeomorphi	V3167-01
 	transect	Parastichopus leukothele	308.79	3167	01:32:55:12	 	36.827724	-122.16764	2389601	1.08	05:40.0	Ventana	34.165	01:34:48:01	6.927	Holothuroidea	Stichopodidae	Parastichopus			Animalia	Aspidochirotida	Echinodermata	Parastichopus leukothele	Aspidochirotacea							Eukaryota		V3167-02
 	cruise	Parastichopus leukothele	323.55	3167	00:15:19:20	 	36.82399	-122.17026	2462211	1.11	47:39.0	Ventana	34.16	00:17:16:03	6.979	Holothuroidea	Stichopodidae	Parastichopus			Animalia	Aspidochirotida	Echinodermata	Parastichopus leukothele	Aspidochirotacea							Eukaryota		V3167-01
 	transect	Rathbunaster californicus	322.94	3167	00:49:10:03	 	36.824528	-122.17075	2463256	1.18	21:31.0	Ventana	34.154	00:51:05:22	7.113		Labidiasteridae	Rathbunaster			Animalia	Forcipulatida	Echinodermata	Rathbunaster californicus	Asteroidea							Eukaryota		V3167-01
 	transect	Sebastes	308.9	3167	01:34:07:25	 	36.827343	-122.16771	2389947	1.08	06:53.0	Ventana	34.165	01:35:58:22	6.933	Osteichthyes	Scorpaenidae	Sebastes	Neopterygii		Animalia	Scorpaeniformes	Chordata		Actinopterygii			Scorpaenoidei	Vertebrata	Gnathostomata		Eukaryota	Acanthopterygii	V3167-02
 	transect	Rathbunaster californicus	308.62	3167	01:34:13:25	http://search.mbari.org/ARCHIVE/frameGrabs/Ventana/images/3167/01_36_06_06.jpg	36.827305	-122.167725	2390000	1.08	06:59.0	Ventana	34.165	01:36:06:06	6.933		Labidiasteridae	Rathbunaster			Animalia	Forcipulatida	Echinodermata	Rathbunaster californicus	Asteroidea							Eukaryota		V3167-02
 	cruise	Metridium farcimen	114.29	3167	03:10:10:15	 	36.84168	-122.14468	2468468	3.75	43:48.0	Ventana	33.688	03:11:51:08	10.571	Anthozoa	Metridiidae	Metridium			Animalia	Actiniaria	Cnidaria	Metridium farcimen	Hexacorallia			Nyantheae				Eukaryota		V3167-04
 	cruise	Merluccius productus	330.75	3167	00:10:14:14	http://search.mbari.org/ARCHIVE/frameGrabs/Ventana/images/3167/00_12_11_09.jpg	36.82241	-122.17069	2462143	1.11	42:33.0	Ventana	34.165	00:12:11:09	6.96	Osteichthyes	Merlucciidae	Merluccius	Neopterygii		Animalia	Gadiformes	Chordata	Merluccius productus	Actinopterygii				Vertebrata	Gnathostomata		Eukaryota	Paracanthopterygii	V3167-01
 	cruise	Florometra serratissima	341.13	3167	00:04:16:25	 	36.82056	-122.171265	2459571	1.11	36:35.0	Ventana	34.161	00:06:13:09	6.932	Crinoidea	Antedonidae	Florometra			Animalia	Comatulidina	Echinodermata	Florometra serratissima							Antedonacea	Eukaryota		V3167-01
 	transect	Allocentrotus fragilis	303.73	3167	01:29:00:19	 	36.82776	-122.168365	2388902	1.09	01:45.0	Ventana	34.163	01:30:52:17	6.964	Echinoidea	Strongylocentrotidae	Allocentrotus			Animalia	Echinoida	Echinodermata	Allocentrotus fragilis	Euechinoidea			Echinacea				Eukaryota		V3167-02
 	transect	Allocentrotus fragilis	306.89	3167	01:26:30:09	 	36.827053	-122.16876	2372966	1.17	59:14.0	Ventana	34.157	01:28:22:11	7.079	Echinoidea	Strongylocentrotidae	Allocentrotus			Animalia	Echinoida	Echinodermata	Allocentrotus fragilis	Euechinoidea			Echinacea				Eukaryota		V3167-02
 	cruise	benthos	341.7	3167	00:00:16:03	 	36.820084	-122.17129	2459541	1.14	32:34.0	Ventana	34.159	00:02:12:17	6.952																			V3167-01
 	transect	Rathbunaster californicus	314.62	3167	01:23:23:15	 	36.826073	-122.1693	2371868	1.07	56:07.0	Ventana	34.165	01:25:13:28	6.923		Labidiasteridae	Rathbunaster			Animalia	Forcipulatida	Echinodermata	Rathbunaster californicus	Asteroidea							Eukaryota		V3167-02
 	transect	Sebastes	305.36	3167	01:27:18:07	http://search.mbari.org/ARCHIVE/frameGrabs/Ventana/images/3167/01_29_09_12.jpg	36.82729	-122.16863	2388443	1.1	00:03.0	Ventana	34.163	01:29:09:12	6.962	Osteichthyes	Scorpaenidae	Sebastes	Neopterygii		Animalia	Scorpaeniformes	Chordata		Actinopterygii			Scorpaenoidei	Vertebrata	Gnathostomata		Eukaryota	Acanthopterygii	V3167-02
 	transect	Rathbunaster californicus	308.41	3167	01:33:09:27	 	36.827675	-122.16765	2389654	1.08	05:54.0	Ventana	34.166	01:35:00:05	6.926		Labidiasteridae	Rathbunaster			Animalia	Forcipulatida	Echinodermata	Rathbunaster californicus	Asteroidea							Eukaryota		V3167-02
 	transect	Rathbunaster californicus	308.74	3167	01:34:01:25	 	36.82738	-122.1677	2389917	1.08	06:47.0	Ventana	34.165	01:35:52:07	6.927		Labidiasteridae	Rathbunaster			Animalia	Forcipulatida	Echinodermata	Rathbunaster californicus	Asteroidea							Eukaryota		V3167-02
 	transect	Allocentrotus fragilis	312.8	3167	01:17:15:26	 	36.826218	-122.168175	2370770	1.07	50:00.0	Ventana	34.165	01:19:07:27	6.914	Echinoidea	Strongylocentrotidae	Allocentrotus			Animalia	Echinoida	Echinodermata	Allocentrotus fragilis	Euechinoidea			Echinacea				Eukaryota		V3167-02
 	cruise	Parastichopus leukothele	308.94	3167	01:36:12:21	 	36.826782	-122.16825	2390752	1.08	08:57.0	Ventana	34.166	01:38:03:28	6.926	Holothuroidea	Stichopodidae	Parastichopus			Animalia	Aspidochirotida	Echinodermata	Parastichopus leukothele	Aspidochirotacea							Eukaryota		V3167-02
 	transect	Allocentrotus fragilis	306.83	3167	01:26:36:09	 	36.827076	-122.16875	2372996	1.17	59:20.0	Ventana	34.157	01:28:28:07	7.079	Echinoidea	Strongylocentrotidae	Allocentrotus			Animalia	Echinoida	Echinodermata	Allocentrotus fragilis	Euechinoidea			Echinacea				Eukaryota		V3167-02
 	transect	Stylasterias forreri	319.08	3167	00:25:54:00	 	36.82449	-122.16949	2462504	1.13	58:14.0	Ventana	34.159	00:27:51:03	7.019		Asteriidae	Stylasterias			Animalia	Forcipulatida	Echinodermata	Stylasterias forreri	Asteroidea							Eukaryota		V3167-01
 	cruise	Rathbunaster californicus	102.32	3167	04:05:04:27	 	36.849792	-122.12552	2471792	4.97	39:07.0	Ventana	33.487	04:06:40:13	11.269		Labidiasteridae	Rathbunaster			Animalia	Forcipulatida	Echinodermata	Rathbunaster californicus	Asteroidea							Eukaryota		V3167-05
 	cruise	Microstomus pacificus	318.9	3167	01:05:47:03	 	36.824753	-122.17007	2464437	1.13	38:30.0	Ventana	34.16	01:07:38:27	7.025	Osteichthyes	Pleuronectidae	Microstomus	Neopterygii		Animalia	Pleuronectiformes	Chordata	Microstomus pacificus	Actinopterygii				Vertebrata	Gnathostomata		Eukaryota	Acanthopterygii	V3167-02
 	cruise	Microstomus pacificus	322.12	3167	00:47:05:07	 	36.82482	-122.17078	2463226	1.18	19:26.0	Ventana	34.152	00:49:02:02	7.119	Osteichthyes	Pleuronectidae	Microstomus	Neopterygii		Animalia	Pleuronectiformes	Chordata	Microstomus pacificus	Actinopterygii				Vertebrata	Gnathostomata		Eukaryota	Acanthopterygii	V3167-01
 	transect	Rathbunaster californicus	318.55	3167	00:35:56:12	 	36.824875	-122.169685	2462963	1.14	08:17.0	Ventana	34.158	00:37:53:06	7.036		Labidiasteridae	Rathbunaster			Animalia	Forcipulatida	Echinodermata	Rathbunaster californicus	Asteroidea							Eukaryota		V3167-01
 	transect	Rathbunaster californicus	309.07	3167	01:34:19:25	 	36.827267	-122.16774	2390030	1.08	07:05.0	Ventana	34.165	01:36:12:00	6.933		Labidiasteridae	Rathbunaster			Animalia	Forcipulatida	Echinodermata	Rathbunaster californicus	Asteroidea							Eukaryota		V3167-02
 	transect	Allocentrotus fragilis	305.09	3167	01:27:32:07	 	36.827362	-122.168594	2388556	1.11	00:17.0	Ventana	34.162	01:29:22:20	6.992	Echinoidea	Strongylocentrotidae	Allocentrotus			Animalia	Echinoida	Echinodermata	Allocentrotus fragilis	Euechinoidea			Echinacea				Eukaryota		V3167-02
 	transect	Allocentrotus fragilis	305.18	3167	01:27:42:07	http://search.mbari.org/ARCHIVE/frameGrabs/Ventana/images/3167/01_29_34_26.jpg	36.827415	-122.168564	2388586	1.12	00:27.0	Ventana	34.159	01:29:34:26	7.026	Echinoidea	Strongylocentrotidae	Allocentrotus			Animalia	Echinoida	Echinodermata	Allocentrotus fragilis	Euechinoidea			Echinacea				Eukaryota		V3167-02
 	transect	Allocentrotus fragilis	303.17	3167	01:29:18:19	 	36.82783	-122.16832	2388962	1.12	02:03.0	Ventana	34.159	01:31:10:23	7.03	Echinoidea	Strongylocentrotidae	Allocentrotus			Animalia	Echinoida	Echinodermata	Allocentrotus fragilis	Euechinoidea			Echinacea				Eukaryota		V3167-02
 	transect	Rathbunaster californicus	309.6	3167	01:35:20:08	 	36.82691	-122.167946	2390263	1.08	08:05.0	Ventana	34.163	01:37:12:07	6.95		Labidiasteridae	Rathbunaster			Animalia	Forcipulatida	Echinodermata	Rathbunaster californicus	Asteroidea							Eukaryota		V3167-02
 	cruise	object	113.86	3167	03:13:31:09	 	36.841934	-122.142914	2468558	4.84	47:09.0	Ventana	33.52	03:15:10:22	11.222																			V3167-04
 	transect	Sebastes	309.18	3167	01:34:32:09	 	36.827194	-122.16777	2390060	1.08	07:17.0	Ventana	34.165	01:36:23:28	6.927	Osteichthyes	Scorpaenidae	Sebastes	Neopterygii		Animalia	Scorpaeniformes	Chordata		Actinopterygii			Scorpaenoidei	Vertebrata	Gnathostomata		Eukaryota	Acanthopterygii	V3167-02
 	transect	Phyllospadix	158.87	3167	02:27:01:21	 	36.83711	-122.15789	2467272	2.73	00:15.0	Ventana	33.926	02:28:44:01	9.403		Zosteraceae	Phyllospadix			Plantae	Najadales										Eukaryota		V3167-03
 	cruise	Parmaturus xaniurus	333.67	3167	00:08:44:02	 	36.822025	-122.17087	2462113	1.11	41:03.0	Ventana	34.161	00:10:40:11	6.959	Chondrichthyes	Scyliorhinidae	Parmaturus			Animalia	Carcharhiniformes	Chordata	Parmaturus xaniurus	Elasmobranchii				Vertebrata			Eukaryota	Galeomorphi	V3167-01
 	transect	Parastichopus leukothele	309.27	3167	01:34:38:09	 	36.82714	-122.16779	2390090	1.08	07:23.0	Ventana	34.165	01:36:29:19	6.933	Holothuroidea	Stichopodidae	Parastichopus			Animalia	Aspidochirotida	Echinodermata	Parastichopus leukothele	Aspidochirotacea							Eukaryota		V3167-02
 	transect	Rathbunaster californicus	322.94	3167	00:54:13:09	 	36.8243	-122.17053	2463399	1.17	26:34.0	Ventana	34.155	00:56:09:28	7.09		Labidiasteridae	Rathbunaster			Animalia	Forcipulatida	Echinodermata	Rathbunaster californicus	Asteroidea							Eukaryota		V3167-01
 	transect	Allocentrotus fragilis	305.08	3167	01:27:54:21	 	36.827473	-122.16853	2388616	1.16	00:39.0	Ventana	34.154	01:29:46:22	7.099	Echinoidea	Strongylocentrotidae	Allocentrotus			Animalia	Echinoida	Echinodermata	Allocentrotus fragilis	Euechinoidea			Echinacea				Eukaryota		V3167-02
 	transect	Sebastolobus	308.32	3167	01:33:13:26	 	36.827663	-122.167656	2389684	1.08	05:58.0	Ventana	34.166	01:35:05:19	6.926	Osteichthyes	Scorpaenidae	Sebastolobus	Neopterygii		Animalia	Scorpaeniformes	Chordata		Actinopterygii			Scorpaenoidei	Vertebrata	Gnathostomata		Eukaryota	Acanthopterygii	V3167-02
 	cruise	Rathbunaster californicus	101.72	3167	04:06:29:10	 	36.850075	-122.124855	2471852	5.04	40:32.0	Ventana	33.481	04:08:04:00	11.288		Labidiasteridae	Rathbunaster			Animalia	Forcipulatida	Echinodermata	Rathbunaster californicus	Asteroidea							Eukaryota		V3167-05
 	transect	Allocentrotus fragilis	312.35	3167	01:16:55:27	 	36.826324	-122.16816	2370567	1.07	49:39.0	Ventana	34.166	01:18:46:25	6.915	Echinoidea	Strongylocentrotidae	Allocentrotus			Animalia	Echinoida	Echinodermata	Allocentrotus fragilis	Euechinoidea			Echinacea				Eukaryota		V3167-02
 	transect	Rathbunaster californicus	318.5	3167	00:37:16:25	 	36.8249	-122.169975	2462993	1.16	09:37.0	Ventana	34.157	00:39:13:16	7.073		Labidiasteridae	Rathbunaster			Animalia	Forcipulatida	Echinodermata	Rathbunaster californicus	Asteroidea							Eukaryota		V3167-01
 	transect	Parastichopus leukothele	322.87	3167	00:53:50:24	 	36.82433	-122.17057	2463369	1.17	26:12.0	Ventana	34.155	00:55:48:04	7.097	Holothuroidea	Stichopodidae	Parastichopus			Animalia	Aspidochirotida	Echinodermata	Parastichopus leukothele	Aspidochirotacea							Eukaryota		V3167-01
 	transect	Rathbunaster californicus	312.47	3167	01:17:05:26	 	36.826275	-122.16816	2370740	1.07	49:49.0	Ventana	34.166	01:18:57:27	6.915		Labidiasteridae	Rathbunaster			Animalia	Forcipulatida	Echinodermata	Rathbunaster californicus	Asteroidea							Eukaryota		V3167-02
 	cruise	Hydrolagus colliei	308.93	3167	01:51:22:09	http://search.mbari.org/ARCHIVE/frameGrabs/Ventana/images/3167/01_53_14_01.jpg	36.829975	-122.16711	20024024	1.09	24:08.0	Ventana	34.163	01:53:14:01	6.957	Chondrichthyes	Chimaeridae	Hydrolagus			Animalia	Chimaeriformes	Chordata	Hydrolagus colliei	Holocephali			Chimaeroidei	Vertebrata			Eukaryota	Holocephalimorpha	V3167-02
 	transect	Rathbunaster californicus	314.7	3167	01:23:15:15	 	36.82603	-122.16932	2371838	1.07	55:59.0	Ventana	34.165	01:25:06:20	6.923		Labidiasteridae	Rathbunaster			Animalia	Forcipulatida	Echinodermata	Rathbunaster californicus	Asteroidea							Eukaryota		V3167-02
 	transect	Allocentrotus fragilis	305.49	3167	01:27:16:08	 	36.82728	-122.16864	2388413	1.1	00:01.0	Ventana	34.163	01:29:07:00	6.962	Echinoidea	Strongylocentrotidae	Allocentrotus			Animalia	Echinoida	Echinodermata	Allocentrotus fragilis	Euechinoidea			Echinacea				Eukaryota		V3167-02
 	transect	Sebastes	308.83	3167	01:33:57:25	 	36.827408	-122.167694	2389887	1.08	06:43.0	Ventana	34.165	01:35:49:16	6.927	Osteichthyes	Scorpaenidae	Sebastes	Neopterygii		Animalia	Scorpaeniformes	Chordata		Actinopterygii			Scorpaenoidei	Vertebrata	Gnathostomata		Eukaryota	Acanthopterygii	V3167-02
 	transect	Rathbunaster californicus	312.5	3167	01:17:07:27	 	36.826263	-122.16817	2370752	1.07	49:51.0	Ventana	34.166	01:18:59:09	6.915		Labidiasteridae	Rathbunaster			Animalia	Forcipulatida	Echinodermata	Rathbunaster californicus	Asteroidea							Eukaryota		V3167-02
 	transect	Rathbunaster californicus	319.6	3167	00:18:58:13	 	36.824364	-122.1698	2462361	1.13	51:18.0	Ventana	34.16	00:20:53:13	7.011		Labidiasteridae	Rathbunaster			Animalia	Forcipulatida	Echinodermata	Rathbunaster californicus	Asteroidea							Eukaryota		V3167-01
 	cruise	Rathbunaster californicus	103.14	3167	04:01:52:03	 	36.84915	-122.12702	2471757	5.05	35:54.0	Ventana	33.477	04:03:27:07	11.293		Labidiasteridae	Rathbunaster			Animalia	Forcipulatida	Echinodermata	Rathbunaster californicus	Asteroidea							Eukaryota		V3167-05
 	transect	Parastichopus leukothele	309.6	3167	01:35:24:07	 	36.82689	-122.16797	2390265	1.09	08:09.0	Ventana	34.164	01:37:14:19	6.953	Holothuroidea	Stichopodidae	Parastichopus			Animalia	Aspidochirotida	Echinodermata	Parastichopus leukothele	Aspidochirotacea							Eukaryota		V3167-02
 	transect	Allocentrotus fragilis	322.91	3167	00:54:06:23	 	36.824306	-122.17055	2463390	1.17	26:28.0	Ventana	34.155	00:56:02:21	7.09	Echinoidea	Strongylocentrotidae	Allocentrotus			Animalia	Echinoida	Echinodermata	Allocentrotus fragilis	Euechinoidea			Echinacea				Eukaryota		V3167-01
 	transect	Sebastes	308.83	3167	01:33:57:25	 	36.827408	-122.167694	2389912	1.08	06:43.0	Ventana	34.165	01:35:49:16	6.927	Osteichthyes	Scorpaenidae	Sebastes	Neopterygii		Animalia	Scorpaeniformes	Chordata		Actinopterygii			Scorpaenoidei	Vertebrata	Gnathostomata		Eukaryota	Acanthopterygii	V3167-02
 	transect	Rathbunaster californicus	314.83	3167	01:23:07:15	 	36.825974	-122.16934	2371811	1.07	55:51.0	Ventana	34.165	01:24:59:06	6.926		Labidiasteridae	Rathbunaster			Animalia	Forcipulatida	Echinodermata	Rathbunaster californicus	Asteroidea							Eukaryota		V3167-02
 	cruise	Rathbunaster californicus	102.36	3167	04:04:10:14	 	36.84965	-122.12594	2471787	5.03	38:13.0	Ventana	33.48	04:05:44:24	11.287		Labidiasteridae	Rathbunaster			Animalia	Forcipulatida	Echinodermata	Rathbunaster californicus	Asteroidea							Eukaryota		V3167-05
 	transect	Phyllospadix	161.51	3167	02:26:21:23	 	36.837044	-122.158005	2467243	2.63	59:35.0	Ventana	33.943	02:28:04:09	9.295		Zosteraceae	Phyllospadix			Plantae	Najadales										Eukaryota		V3167-03
 	transect	Rathbunaster californicus	309.02	3167	01:33:55:25	 	36.82742	-122.167694	2389882	1.08	06:41.0	Ventana	34.165	01:35:47:27	6.927		Labidiasteridae	Rathbunaster			Animalia	Forcipulatida	Echinodermata	Rathbunaster californicus	Asteroidea							Eukaryota		V3167-02
 	transect	Rathbunaster californicus	319	3167	00:37:42:24	 	36.82491	-122.17007	2463007	1.16	10:03.0	Ventana	34.156	00:39:39:09	7.075		Labidiasteridae	Rathbunaster			Animalia	Forcipulatida	Echinodermata	Rathbunaster californicus	Asteroidea							Eukaryota		V3167-01
 	transect	Allocentrotus fragilis	305.19	3167	01:27:22:08	 	36.82731	-122.168625	2388470	1.1	00:07.0	Ventana	34.163	01:29:12:16	6.962	Echinoidea	Strongylocentrotidae	Allocentrotus			Animalia	Echinoida	Echinodermata	Allocentrotus fragilis	Euechinoidea			Echinacea				Eukaryota		V3167-02
 	transect	Allocentrotus fragilis	303.56	3167	01:29:06:19	 	36.827785	-122.16835	2388913	1.09	01:51.0	Ventana	34.163	01:30:58:14	6.964	Echinoidea	Strongylocentrotidae	Allocentrotus			Animalia	Echinoida	Echinodermata	Allocentrotus fragilis	Euechinoidea			Echinacea				Eukaryota		V3167-02
 	transect	Rathbunaster californicus	319.43	3167	00:19:16:13	 	36.824375	-122.16975	2462391	1.14	51:36.0	Ventana	34.159	00:21:13:14	7.025		Labidiasteridae	Rathbunaster			Animalia	Forcipulatida	Echinodermata	Rathbunaster californicus	Asteroidea							Eukaryota		V3167-01
 	transect	Phyllospadix	163.56	3167	02:25:47:08	 	36.837	-122.15811	2467213	2.57	59:01.0	Ventana	33.958	02:27:30:16	9.234		Zosteraceae	Phyllospadix			Plantae	Najadales										Eukaryota		V3167-03
 	cruise	cable	334.09	3167	00:08:20:03	http://search.mbari.org/ARCHIVE/frameGrabs/Ventana/images/3167/00_10_14_28.jpg	36.8219	-122.17091	20023936	1.12	40:39.0	Ventana	34.16	00:10:14:28	6.965																			V3167-01
 	cruise	Sebastes aurora	246.95	3167	02:10:27:22	http://search.mbari.org/ARCHIVE/frameGrabs/Ventana/images/3167/02_12_10_14.jpg	36.83482	-122.16197	2466860	1.55	43:40.0	Ventana	34.12	02:12:10:14	7.797	Osteichthyes	Scorpaenidae	Sebastes	Neopterygii		Animalia	Scorpaeniformes	Chordata	Sebastes aurora	Actinopterygii			Scorpaenoidei	Vertebrata	Gnathostomata		Eukaryota	Acanthopterygii	V3167-03
 	cruise	cable	295.11	3167	01:59:00:28	http://search.mbari.org/ARCHIVE/frameGrabs/Ventana/images/3167/02_00_44_01.jpg	36.832123	-122.16526	20024026	1.13	32:13.0	Ventana	34.16	02:00:44:01	7.024																			V3167-03
 	cruise	mud	158.99	3167	02:28:18:04	 	36.837307	-122.15798	2467303	2.7	01:31.0	Ventana	33.929	02:29:59:26	9.364																			V3167-03
 	transect	Allocentrotus fragilis	305.15	3167	01:27:36:07	 	36.82738	-122.16859	2388560	1.11	00:21.0	Ventana	34.162	01:29:27:26	6.992	Echinoidea	Strongylocentrotidae	Allocentrotus			Animalia	Echinoida	Echinodermata	Allocentrotus fragilis	Euechinoidea			Echinacea				Eukaryota		V3167-02
 	transect	Rathbunaster californicus	309.33	3167	01:35:00:08	 	36.827015	-122.16786	2390175	1.08	07:45.0	Ventana	34.164	01:36:51:11	6.94		Labidiasteridae	Rathbunaster			Animalia	Forcipulatida	Echinodermata	Rathbunaster californicus	Asteroidea							Eukaryota		V3167-02
 	transect	Allocentrotus fragilis	303.28	3167	01:29:14:19	 	36.827816	-122.168335	2388943	1.12	01:59.0	Ventana	34.159	01:31:06:10	7.03	Echinoidea	Strongylocentrotidae	Allocentrotus			Animalia	Echinoida	Echinodermata	Allocentrotus fragilis	Euechinoidea			Echinacea				Eukaryota		V3167-02
 	transect	Allocentrotus fragilis	308.92	3167	01:33:45:26	 	36.827484	-122.16767	2389822	1.07	06:31.0	Ventana	34.166	01:35:38:01	6.926	Echinoidea	Strongylocentrotidae	Allocentrotus			Animalia	Echinoida	Echinodermata	Allocentrotus fragilis	Euechinoidea			Echinacea				Eukaryota		V3167-02
 	transect	Parastichopus leukothele	305.18	3167	01:27:42:07	http://search.mbari.org/ARCHIVE/frameGrabs/Ventana/images/3167/01_29_34_26.jpg	36.827415	-122.168564	2388590	1.12	00:27.0	Ventana	34.159	01:29:34:26	7.026	Holothuroidea	Stichopodidae	Parastichopus			Animalia	Aspidochirotida	Echinodermata	Parastichopus leukothele	Aspidochirotacea							Eukaryota		V3167-02
 	cruise	Pleuronectiformes	289.1	3167	02:01:05:09	 	36.832657	-122.164764	2466447	1.13	34:17.0	Ventana	34.159	02:02:48:27	7.038	Osteichthyes			Neopterygii		Animalia	Pleuronectiformes	Chordata		Actinopterygii				Vertebrata	Gnathostomata		Eukaryota	Acanthopterygii	V3167-03
 	transect	Allocentrotus fragilis	309.48	3167	01:25:11:27	 	36.82669	-122.168976	2372750	1.11	57:56.0	Ventana	34.161	01:27:03:25	7.022	Echinoidea	Strongylocentrotidae	Allocentrotus			Animalia	Echinoida	Echinodermata	Allocentrotus fragilis	Euechinoidea			Echinacea				Eukaryota		V3167-02
 	cruise	Hydrolagus colliei	302.31	3167	01:30:55:01	 	36.827984	-122.168045	2389469	1.09	03:40.0	Ventana	34.164	01:32:47:18	6.953	Chondrichthyes	Chimaeridae	Hydrolagus			Animalia	Chimaeriformes	Chordata	Hydrolagus colliei	Holocephali			Chimaeroidei	Vertebrata			Eukaryota	Holocephalimorpha	V3167-02
 	transect	Sebastes	305.36	3167	01:27:18:07	http://search.mbari.org/ARCHIVE/frameGrabs/Ventana/images/3167/01_29_09_12.jpg	36.82729	-122.16863	2388440	1.1	00:03.0	Ventana	34.163	01:29:09:12	6.962	Osteichthyes	Scorpaenidae	Sebastes	Neopterygii		Animalia	Scorpaeniformes	Chordata		Actinopterygii			Scorpaenoidei	Vertebrata	Gnathostomata		Eukaryota	Acanthopterygii	V3167-02
 	transect	Rathbunaster californicus	308.62	3167	01:34:13:25	http://search.mbari.org/ARCHIVE/frameGrabs/Ventana/images/3167/01_36_06_06.jpg	36.827305	-122.167725	2390002	1.08	06:59.0	Ventana	34.165	01:36:06:06	6.933		Labidiasteridae	Rathbunaster			Animalia	Forcipulatida	Echinodermata	Rathbunaster californicus	Asteroidea							Eukaryota		V3167-02
 	transect	Allocentrotus fragilis	306.58	3167	01:26:42:09	 	36.827103	-122.16873	2388267	1.12	59:26.0	Ventana	34.164	01:28:33:08	6.991	Echinoidea	Strongylocentrotidae	Allocentrotus			Animalia	Echinoida	Echinodermata	Allocentrotus fragilis	Euechinoidea			Echinacea				Eukaryota		V3167-02
 	transect	Allocentrotus fragilis	305.08	3167	01:27:54:21	 	36.827473	-122.16853	2388620	1.16	00:39.0	Ventana	34.154	01:29:46:22	7.099	Echinoidea	Strongylocentrotidae	Allocentrotus			Animalia	Echinoida	Echinodermata	Allocentrotus fragilis	Euechinoidea			Echinacea				Eukaryota		V3167-02
 	transect	Mediaster aequalis	163.82	3167	02:31:14:28	 	36.837437	-122.15853	2467333	2.62	04:28.0	Ventana	33.95	02:32:58:07	9.278		Goniasteridae	Mediaster			Animalia	Valvatida	Echinodermata	Mediaster aequalis	Asteroidea			Granulosina				Eukaryota		V3167-03
 	cruise	sediment	113.06	3167	03:14:17:08	http://search.mbari.org/ARCHIVE/frameGrabs/Ventana/images/3167/03_15_58_14.jpg	36.842007	-122.142555	2468580	4.85	47:56.0	Ventana	33.516	03:15:58:14	11.232																			V3167-04
 	cruise	Hydrolagus colliei	305.83	3167	01:48:27:14	 	36.829075	-122.16763	2390911	1.1	21:13.0	Ventana	34.163	01:50:19:06	6.962	Chondrichthyes	Chimaeridae	Hydrolagus			Animalia	Chimaeriformes	Chordata	Hydrolagus colliei	Holocephali			Chimaeroidei	Vertebrata			Eukaryota	Holocephalimorpha	V3167-02
 	cruise	Allocentrotus fragilis	322.28	3167	01:04:02:20	http://search.mbari.org/ARCHIVE/frameGrabs/Ventana/images/3167/01_05_53_01.jpg	36.82416	-122.17029	2464329	1.14	36:46.0	Ventana	34.16	01:05:53:01	7.043	Echinoidea	Strongylocentrotidae	Allocentrotus			Animalia	Echinoida	Echinodermata	Allocentrotus fragilis	Euechinoidea			Echinacea				Eukaryota		V3167-02
 	transect	Rathbunaster californicus	308.32	3167	01:33:13:26	 	36.827663	-122.167656	2389679	1.08	05:58.0	Ventana	34.166	01:35:05:19	6.926		Labidiasteridae	Rathbunaster			Animalia	Forcipulatida	Echinodermata	Rathbunaster californicus	Asteroidea							Eukaryota		V3167-02
 	cruise	Parastichopus leukothele	318.24	3167	01:06:51:15	 	36.825134	-122.169876	2464479	1.13	39:34.0	Ventana	34.16	01:08:43:06	7.017	Holothuroidea	Stichopodidae	Parastichopus			Animalia	Aspidochirotida	Echinodermata	Parastichopus leukothele	Aspidochirotacea							Eukaryota		V3167-02
 	transect	Rathbunaster californicus	311.83	3167	01:24:01:14	 	36.8263	-122.1692	2372014	1.07	56:46.0	Ventana	34.165	01:25:52:00	6.925		Labidiasteridae	Rathbunaster			Animalia	Forcipulatida	Echinodermata	Rathbunaster californicus	Asteroidea							Eukaryota		V3167-02
 	transect	Porifera	171.05	3167	02:34:53:21	 	36.83728	-122.1591	2467363	2.68	08:07.0	Ventana	33.939	02:36:37:06	9.345						Animalia		Porifera									Eukaryota		V3167-03
 	cruise	Metridium farcimen	97.66	3167	04:23:11:09	 	36.853657	-122.117035	2471990	5.01	57:15.0	Ventana	33.486	04:24:46:20	11.278	Anthozoa	Metridiidae	Metridium			Animalia	Actiniaria	Cnidaria	Metridium farcimen	Hexacorallia			Nyantheae				Eukaryota		V3167-05
 	transect	Parastichopus leukothele	303.07	3167	01:29:24:19	 	36.827854	-122.168304	2388973	1.14	02:09.0	Ventana	34.159	01:31:17:05	7.042	Holothuroidea	Stichopodidae	Parastichopus			Animalia	Aspidochirotida	Echinodermata	Parastichopus leukothele	Aspidochirotacea							Eukaryota		V3167-02
 	cruise	Parastichopus leukothele	286.89	3167	02:01:47:08	 	36.832836	-122.16457	2467716	1.14	34:59.0	Ventana	34.159	02:03:30:15	7.039	Holothuroidea	Stichopodidae	Parastichopus			Animalia	Aspidochirotida	Echinodermata	Parastichopus leukothele	Aspidochirotacea							Eukaryota		V3167-03
 	transect	Rathbunaster californicus	309.53	3167	01:35:10:08	 	36.826958	-122.16791	2390205	1.08	07:55.0	Ventana	34.163	01:37:01:07	6.95		Labidiasteridae	Rathbunaster			Animalia	Forcipulatida	Echinodermata	Rathbunaster californicus	Asteroidea							Eukaryota		V3167-02
 	transect	Allocentrotus fragilis	310.39	3167	01:24:49:27	 	36.826576	-122.169044	2372720	1.08	57:34.0	Ventana	34.165	01:26:41:26	6.934	Echinoidea	Strongylocentrotidae	Allocentrotus			Animalia	Echinoida	Echinodermata	Allocentrotus fragilis	Euechinoidea			Echinacea				Eukaryota		V3167-02
 	transect	Rathbunaster californicus	309.07	3167	01:34:19:25	 	36.827267	-122.16774	2390032	1.08	07:05.0	Ventana	34.165	01:36:12:00	6.933		Labidiasteridae	Rathbunaster			Animalia	Forcipulatida	Echinodermata	Rathbunaster californicus	Asteroidea							Eukaryota		V3167-02
 	transect	Rathbunaster californicus	320.62	3167	00:38:37:08	 	36.824924	-122.17025	2463067	1.15	10:58.0	Ventana	34.153	00:40:33:25	7.064		Labidiasteridae	Rathbunaster			Animalia	Forcipulatida	Echinodermata	Rathbunaster californicus	Asteroidea							Eukaryota		V3167-01
 	transect	Allocentrotus fragilis	305.95	3167	01:27:00:08	 	36.827194	-122.168686	2388327	1.1	59:45.0	Ventana	34.164	01:28:51:24	6.964	Echinoidea	Strongylocentrotidae	Allocentrotus			Animalia	Echinoida	Echinodermata	Allocentrotus fragilis	Euechinoidea			Echinacea				Eukaryota		V3167-02
 	transect	Rathbunaster californicus	316.47	3167	01:22:05:02	 	36.82563	-122.169495	2371608	1.09	54:49.0	Ventana	34.164	01:23:57:01	6.958		Labidiasteridae	Rathbunaster			Animalia	Forcipulatida	Echinodermata	Rathbunaster californicus	Asteroidea							Eukaryota		V3167-02
 	transect	Allocentrotus fragilis	315.12	3167	01:19:18:07	 	36.825596	-122.16879	2371278	1.09	52:02.0	Ventana	34.161	01:21:09:27	6.971	Echinoidea	Strongylocentrotidae	Allocentrotus			Animalia	Echinoida	Echinodermata	Allocentrotus fragilis	Euechinoidea			Echinacea				Eukaryota		V3167-02
 	transect	Allocentrotus fragilis	302.86	3167	01:29:49:03	 	36.82794	-122.16824	2389033	1.11	02:33.0	Ventana	34.163	01:31:40:22	6.985	Echinoidea	Strongylocentrotidae	Allocentrotus			Animalia	Echinoida	Echinodermata	Allocentrotus fragilis	Euechinoidea			Echinacea				Eukaryota		V3167-02
 	transect	Rathbunaster californicus	319.09	3167	00:26:00:00	 	36.824497	-122.16947	2462511	1.13	58:20.0	Ventana	34.159	00:27:55:20	7.019		Labidiasteridae	Rathbunaster			Animalia	Forcipulatida	Echinodermata	Rathbunaster californicus	Asteroidea							Eukaryota		V3167-01
 	cruise	Rathbunaster californicus	100.08	3167	04:13:20:27	 	36.851517	-122.12159	2471937	5	47:24.0	Ventana	33.485	04:14:56:05	11.276		Labidiasteridae	Rathbunaster			Animalia	Forcipulatida	Echinodermata	Rathbunaster californicus	Asteroidea							Eukaryota		V3167-05
 	transect	Parastichopus leukothele	310.6	3167	01:24:39:27	 	36.826515	-122.16908	2372690	1.08	57:24.0	Ventana	34.165	01:26:31:06	6.934	Holothuroidea	Stichopodidae	Parastichopus			Animalia	Aspidochirotida	Echinodermata	Parastichopus leukothele	Aspidochirotacea							Eukaryota		V3167-02
 	transect	Rathbunaster californicus	308.76	3167	01:33:23:27	 	36.82762	-122.167656	2389709	1.08	06:08.0	Ventana	34.166	01:35:15:24	6.925		Labidiasteridae	Rathbunaster			Animalia	Forcipulatida	Echinodermata	Rathbunaster californicus	Asteroidea							Eukaryota		V3167-02
 	transect	Rathbunaster californicus	322.7	3167	00:59:05:15	 	36.82394	-122.17023	2464269	1.14	31:48.0	Ventana	34.157	01:00:57:19	7.047		Labidiasteridae	Rathbunaster			Animalia	Forcipulatida	Echinodermata	Rathbunaster californicus	Asteroidea							Eukaryota		V3167-02
 	transect	Rathbunaster californicus	312.35	3167	01:16:55:27	 	36.826324	-122.16816	2370579	1.07	49:39.0	Ventana	34.166	01:18:46:25	6.915		Labidiasteridae	Rathbunaster			Animalia	Forcipulatida	Echinodermata	Rathbunaster californicus	Asteroidea							Eukaryota		V3167-02
 	transect	Allocentrotus fragilis	306.83	3167	01:26:36:09	 	36.827076	-122.16875	2372990	1.17	59:20.0	Ventana	34.157	01:28:28:07	7.079	Echinoidea	Strongylocentrotidae	Allocentrotus			Animalia	Echinoida	Echinodermata	Allocentrotus fragilis	Euechinoidea			Echinacea				Eukaryota		V3167-02
 	transect	Ceriantharia sp. 3	313.06	3167	01:17:49:25	 	36.826054	-122.168304	2370955	1.07	50:34.0	Ventana	34.166	01:19:41:22	6.913	Anthozoa					Animalia	Ceriantharia	Cnidaria		Ceriantipatharia							Eukaryota		V3167-02
 	transect	Rathbunaster californicus	323.16	3167	00:49:52:02	 	36.82445	-122.17069	2463270	1.18	22:13.0	Ventana	34.153	00:51:47:04	7.106		Labidiasteridae	Rathbunaster			Animalia	Forcipulatida	Echinodermata	Rathbunaster californicus	Asteroidea							Eukaryota		V3167-01
 	transect	Rathbunaster californicus	308.88	3167	01:33:31:26	 	36.827568	-122.16766	2389739	1.08	06:17.0	Ventana	34.166	01:35:22:12	6.925		Labidiasteridae	Rathbunaster			Animalia	Forcipulatida	Echinodermata	Rathbunaster californicus	Asteroidea							Eukaryota		V3167-02
 	transect	Allocentrotus fragilis	305.82	3167	01:27:06:08	 	36.827225	-122.16867	2388357	1.1	59:51.0	Ventana	34.164	01:28:58:15	6.964	Echinoidea	Strongylocentrotidae	Allocentrotus			Animalia	Echinoida	Echinodermata	Allocentrotus fragilis	Euechinoidea			Echinacea				Eukaryota		V3167-02
 	transect	Rathbunaster californicus	311.93	3167	01:23:55:14	 	36.826267	-122.16921	2371984	1.07	56:40.0	Ventana	34.165	01:25:46:25	6.925		Labidiasteridae	Rathbunaster			Animalia	Forcipulatida	Echinodermata	Rathbunaster californicus	Asteroidea							Eukaryota		V3167-02
 	transect	Rathbunaster californicus	313	3167	01:17:57:25	 	36.826015	-122.16835	2370985	1.07	50:42.0	Ventana	34.165	01:19:49:19	6.914		Labidiasteridae	Rathbunaster			Animalia	Forcipulatida	Echinodermata	Rathbunaster californicus	Asteroidea							Eukaryota		V3167-02
 	transect	Rathbunaster californicus	316.7	3167	01:21:57:03	 	36.825592	-122.1695	2371578	1.09	54:41.0	Ventana	34.164	01:23:48:28	6.958		Labidiasteridae	Rathbunaster			Animalia	Forcipulatida	Echinodermata	Rathbunaster californicus	Asteroidea							Eukaryota		V3167-02
 	transect	Allocentrotus fragilis	306.4	3167	01:26:48:09	 	36.827133	-122.16872	2388297	1.12	59:32.0	Ventana	34.164	01:28:40:14	6.991	Echinoidea	Strongylocentrotidae	Allocentrotus			Animalia	Echinoida	Echinodermata	Allocentrotus fragilis	Euechinoidea			Echinacea				Eukaryota		V3167-02
 	cruise	Parastichopus leukothele	322.2	3167	00:15:55:19	 	36.824146	-122.17019	2462218	1.12	48:15.0	Ventana	34.16	00:17:51:16	7.002	Holothuroidea	Stichopodidae	Parastichopus			Animalia	Aspidochirotida	Echinodermata	Parastichopus leukothele	Aspidochirotacea							Eukaryota		V3167-01
 	transect	Rathbunaster californicus	321.71	3167	00:45:28:25	 	36.82481	-122.17044	2463187	1.12	17:50.0	Ventana	34.16	00:47:25:10	7.01		Labidiasteridae	Rathbunaster			Animalia	Forcipulatida	Echinodermata	Rathbunaster californicus	Asteroidea							Eukaryota		V3167-01
 	transect	Allocentrotus fragilis	312.59	3167	01:23:47:14	 	36.82622	-122.169235	2371954	1.08	56:32.0	Ventana	34.165	01:25:38:28	6.929	Echinoidea	Strongylocentrotidae	Allocentrotus			Animalia	Echinoida	Echinodermata	Allocentrotus fragilis	Euechinoidea			Echinacea				Eukaryota		V3167-02
 	cruise	Parastichopus leukothele	121.37	3167	03:01:30:01	 	36.840214	-122.14949	2468114	3.55	35:08.0	Ventana	33.735	03:03:10:04	10.394	Holothuroidea	Stichopodidae	Parastichopus			Animalia	Aspidochirotida	Echinodermata	Parastichopus leukothele	Aspidochirotacea							Eukaryota		V3167-04
 	cruise	Stomphia	331.33	3167	00:09:56:15	 	36.822342	-122.170715	2462136	1.11	42:15.0	Ventana	34.162	00:11:53:04	6.96	Anthozoa	Actinostolidae	Stomphia			Animalia	Actiniaria	Cnidaria		Hexacorallia			Nyantheae				Eukaryota		V3167-01
 	transect	Rathbunaster californicus	315.82	3167	01:19:34:07	 	36.825512	-122.16888	2371345	1.09	52:18.0	Ventana	34.163	01:21:26:05	6.954		Labidiasteridae	Rathbunaster			Animalia	Forcipulatida	Echinodermata	Rathbunaster californicus	Asteroidea							Eukaryota		V3167-02
 	transect	Allocentrotus fragilis	318.51	3167	00:35:34:13	 	36.824883	-122.16961	2462954	1.13	07:55.0	Ventana	34.16	00:37:30:17	7.019	Echinoidea	Strongylocentrotidae	Allocentrotus			Animalia	Echinoida	Echinodermata	Allocentrotus fragilis	Euechinoidea			Echinacea				Eukaryota		V3167-01
 	transect	Porifera	322.83	3167	00:57:39:02	http://search.mbari.org/ARCHIVE/frameGrabs/Ventana/images/3167/00_59_29_16.jpg	36.824123	-122.17042	2464209	1.14	30:22.0	Ventana	34.157	00:59:29:16	7.052						Animalia		Porifera									Eukaryota		V3167-02
 	transect	Allocentrotus fragilis	308.95	3167	01:33:43:26	 	36.827496	-122.16767	2389799	1.07	06:29.0	Ventana	34.166	01:35:35:11	6.926	Echinoidea	Strongylocentrotidae	Allocentrotus			Animalia	Echinoida	Echinodermata	Allocentrotus fragilis	Euechinoidea			Echinacea				Eukaryota		V3167-02
 	cruise	Allocentrotus fragilis	302.88	3167	01:45:06:20	 	36.828156	-122.168144	2390881	1.11	17:52.0	Ventana	34.159	01:46:57:29	7.006	Echinoidea	Strongylocentrotidae	Allocentrotus			Animalia	Echinoida	Echinodermata	Allocentrotus fragilis	Euechinoidea			Echinacea				Eukaryota		V3167-02
 	transect	Rathbunaster californicus	311.53	3167	01:24:09:13	 	36.826347	-122.169174	2372051	1.08	56:54.0	Ventana	34.164	01:26:00:26	6.927		Labidiasteridae	Rathbunaster			Animalia	Forcipulatida	Echinodermata	Rathbunaster californicus	Asteroidea							Eukaryota		V3167-02
 	transect	Rathbunaster californicus	313.86	3167	01:18:56:08	 	36.825718	-122.168686	2371218	1.1	51:40.0	Ventana	34.163	01:20:47:02	6.956		Labidiasteridae	Rathbunaster			Animalia	Forcipulatida	Echinodermata	Rathbunaster californicus	Asteroidea							Eukaryota		V3167-02
 	transect	Rathbunaster californicus	308.9	3167	01:34:07:25	 	36.827343	-122.16771	2389972	1.08	06:53.0	Ventana	34.165	01:35:58:22	6.933		Labidiasteridae	Rathbunaster			Animalia	Forcipulatida	Echinodermata	Rathbunaster californicus	Asteroidea							Eukaryota		V3167-02
 	transect	Allocentrotus fragilis	311.58	3167	01:16:37:12	 	36.826412	-122.168175	2370512	1.08	49:21.0	Ventana	34.165	01:18:28:11	6.923	Echinoidea	Strongylocentrotidae	Allocentrotus			Animalia	Echinoida	Echinodermata	Allocentrotus fragilis	Euechinoidea			Echinacea				Eukaryota		V3167-02
 	transect	Allocentrotus fragilis	306.89	3167	01:26:30:09	 	36.827053	-122.16876	2372960	1.17	59:14.0	Ventana	34.157	01:28:22:11	7.079	Echinoidea	Strongylocentrotidae	Allocentrotus			Animalia	Echinoida	Echinodermata	Allocentrotus fragilis	Euechinoidea			Echinacea				Eukaryota		V3167-02
 	transect	Allocentrotus fragilis	314.98	3167	01:22:49:01	 	36.82587	-122.16939	2371751	1.08	55:33.0	Ventana	34.166	01:24:41:01	6.927	Echinoidea	Strongylocentrotidae	Allocentrotus			Animalia	Echinoida	Echinodermata	Allocentrotus fragilis	Euechinoidea			Echinacea				Eukaryota		V3167-02
 	transect	Phyllospadix	318.35	3167	00:36:44:26	http://search.mbari.org/ARCHIVE/frameGrabs/Ventana/images/3167/00_38_40_04.jpg	36.82489	-122.16986	2462984	1.15	09:05.0	Ventana	34.157	00:38:40:04	7.065		Zosteraceae	Phyllospadix			Plantae	Najadales										Eukaryota		V3167-01
 	cruise	cable	126.54	3167	02:54:46:15	http://search.mbari.org/ARCHIVE/frameGrabs/Ventana/images/3167/02_56_28_25.jpg	36.839108	-122.15226	2467626	3.14	28:02.0	Ventana	33.791	02:56:28:25	10.028																			V3167-03
 	transect	Rathbunaster californicus	316.47	3167	01:19:48:06	 	36.825455	-122.168945	2371375	1.08	52:32.0	Ventana	34.166	01:21:39:00	6.929		Labidiasteridae	Rathbunaster			Animalia	Forcipulatida	Echinodermata	Rathbunaster californicus	Asteroidea							Eukaryota		V3167-02
 	transect	Allocentrotus fragilis	309.01	3167	01:34:56:08	 	36.827038	-122.16785	2390145	1.08	07:41.0	Ventana	34.164	01:36:48:12	6.94	Echinoidea	Strongylocentrotidae	Allocentrotus			Animalia	Echinoida	Echinodermata	Allocentrotus fragilis	Euechinoidea			Echinacea				Eukaryota		V3167-02
 	transect	Allocentrotus fragilis	308.95	3167	01:25:35:26	 	36.8268	-122.16891	2372787	1.11	58:20.0	Ventana	34.161	01:27:26:23	6.98	Echinoidea	Strongylocentrotidae	Allocentrotus			Animalia	Echinoida	Echinodermata	Allocentrotus fragilis	Euechinoidea			Echinacea				Eukaryota		V3167-02
 	transect	Sebastes	308.74	3167	01:34:03:25	 	36.82737	-122.1677	2389942	1.08	06:49.0	Ventana	34.165	01:35:55:17	6.927	Osteichthyes	Scorpaenidae	Sebastes	Neopterygii		Animalia	Scorpaeniformes	Chordata		Actinopterygii			Scorpaenoidei	Vertebrata	Gnathostomata		Eukaryota	Acanthopterygii	V3167-02
 	cruise	Pleurobranchaea californica	102.43	3167	04:03:38:15	http://search.mbari.org/ARCHIVE/frameGrabs/Ventana/images/3167/04_05_13_10.jpg	36.849552	-122.1262	2471780	4.99	37:41.0	Ventana	33.482	04:05:13:10	11.279	Gastropoda	Pleurobranchidae	Pleurobranchaea			Animalia	Notaspidea	Mollusca	Pleurobranchaea californica	Opisthobranchia						Pleurobranchiacea	Eukaryota		V3167-05
 	transect	Phyllospadix	162.37	3167	02:26:03:08	 	36.83702	-122.158066	2467220	2.65	59:17.0	Ventana	33.938	02:27:46:04	9.314		Zosteraceae	Phyllospadix			Plantae	Najadales										Eukaryota		V3167-03
 	transect	Rathbunaster californicus	319.25	3167	00:26:30:14	 	36.82455	-122.169395	2462691	1.14	58:50.0	Ventana	34.159	00:28:26:27	7.031		Labidiasteridae	Rathbunaster			Animalia	Forcipulatida	Echinodermata	Rathbunaster californicus	Asteroidea							Eukaryota		V3167-01
 	transect	Rathbunaster californicus	312.97	3167	01:18:28:09	 	36.825863	-122.16853	2371128	1.1	51:12.0	Ventana	34.16	01:20:18:27	6.984		Labidiasteridae	Rathbunaster			Animalia	Forcipulatida	Echinodermata	Rathbunaster californicus	Asteroidea							Eukaryota		V3167-02
 	cruise	trench	106.45	3167	03:48:55:19	http://search.mbari.org/ARCHIVE/frameGrabs/Ventana/images/3167/03_50_35_16.jpg	36.846428	-122.13279	2471058	4.85	22:36.0	Ventana	33.507	03:50:35:16	11.222																			V3167-04
 	transect	Rathbunaster californicus	314.89	3167	01:22:53:01	 	36.825893	-122.16938	2371758	1.08	55:37.0	Ventana	34.166	01:24:44:13	6.927		Labidiasteridae	Rathbunaster			Animalia	Forcipulatida	Echinodermata	Rathbunaster californicus	Asteroidea							Eukaryota		V3167-02
 	transect	Corallimorphus pilatus	303.8	3167	01:28:56:20	 	36.827744	-122.16837	2388876	1.09	01:41.0	Ventana	34.163	01:30:47:29	6.964	Anthozoa	Corallimorphidae	Corallimorphus			Animalia	Corallimorpharia	Cnidaria	Corallimorphus pilatus	Hexacorallia							Eukaryota		V3167-02
 	transect	Rathbunaster californicus	309.6	3167	01:35:20:08	 	36.82691	-122.167946	2390258	1.08	08:05.0	Ventana	34.163	01:37:12:07	6.95		Labidiasteridae	Rathbunaster			Animalia	Forcipulatida	Echinodermata	Rathbunaster californicus	Asteroidea							Eukaryota		V3167-02
 	transect	Rathbunaster californicus	308.74	3167	01:34:03:25	 	36.82737	-122.1677	2389935	1.08	06:49.0	Ventana	34.165	01:35:55:17	6.927		Labidiasteridae	Rathbunaster			Animalia	Forcipulatida	Echinodermata	Rathbunaster californicus	Asteroidea							Eukaryota		V3167-02
 	transect	Allocentrotus fragilis	305.09	3167	01:27:32:07	 	36.827362	-122.168594	2388553	1.11	00:17.0	Ventana	34.162	01:29:22:20	6.992	Echinoidea	Strongylocentrotidae	Allocentrotus			Animalia	Echinoida	Echinodermata	Allocentrotus fragilis	Euechinoidea			Echinacea				Eukaryota		V3167-02
 	transect	Rathbunaster californicus	314.73	3167	01:23:01:01	 	36.82594	-122.16936	2371788	1.07	55:45.0	Ventana	34.165	01:24:53:06	6.926		Labidiasteridae	Rathbunaster			Animalia	Forcipulatida	Echinodermata	Rathbunaster californicus	Asteroidea							Eukaryota		V3167-02
 	transect	Rathbunaster californicus	313.24	3167	01:18:17:24	 	36.825912	-122.16847	2371098	1.08	51:02.0	Ventana	34.161	01:20:09:10	6.953		Labidiasteridae	Rathbunaster			Animalia	Forcipulatida	Echinodermata	Rathbunaster californicus	Asteroidea							Eukaryota		V3167-02
 	transect	Hippasteria	310.77	3167	01:24:27:13	 	36.82645	-122.16912	2372127	1.08	57:12.0	Ventana	34.165	01:26:18:29	6.93		Goniasteridae	Hippasteria			Animalia	Valvatida	Echinodermata		Asteroidea			Granulosina				Eukaryota		V3167-02
 	transect	Rathbunaster californicus	322.82	3167	00:54:02:24	 	36.82431	-122.170555	2463383	1.17	26:24.0	Ventana	34.155	00:55:58:27	7.09		Labidiasteridae	Rathbunaster			Animalia	Forcipulatida	Echinodermata	Rathbunaster californicus	Asteroidea							Eukaryota		V3167-01
 	cruise	Hydrolagus colliei	302.6	3167	01:45:49:04	 	36.82843	-122.16799	2390888	1.12	18:34.0	Ventana	34.162	01:47:40:20	6.993	Chondrichthyes	Chimaeridae	Hydrolagus			Animalia	Chimaeriformes	Chordata	Hydrolagus colliei	Holocephali			Chimaeroidei	Vertebrata			Eukaryota	Holocephalimorpha	V3167-02
 	transect	Hydrolagus colliei	303.73	3167	01:29:00:19	 	36.82776	-122.168365	2388890	1.09	01:45.0	Ventana	34.163	01:30:52:17	6.964	Chondrichthyes	Chimaeridae	Hydrolagus			Animalia	Chimaeriformes	Chordata	Hydrolagus colliei	Holocephali			Chimaeroidei	Vertebrata			Eukaryota	Holocephalimorpha	V3167-02
 	transect	Rathbunaster californicus	319.56	3167	00:19:06:13	 	36.82437	-122.16977	2462368	1.14	51:26.0	Ventana	34.159	00:21:02:14	7.025		Labidiasteridae	Rathbunaster			Animalia	Forcipulatida	Echinodermata	Rathbunaster californicus	Asteroidea							Eukaryota		V3167-01
 	transect	Allocentrotus fragilis	319.58	3167	00:38:05:08	 	36.824917	-122.17015	2463030	1.15	10:26.0	Ventana	34.155	00:40:01:23	7.058	Echinoidea	Strongylocentrotidae	Allocentrotus			Animalia	Echinoida	Echinodermata	Allocentrotus fragilis	Euechinoidea			Echinacea				Eukaryota		V3167-01
 	transect	Rathbunaster californicus	313.18	3167	01:18:09:25	 	36.825947	-122.168434	2371068	1.08	50:54.0	Ventana	34.161	01:20:01:27	6.953		Labidiasteridae	Rathbunaster			Animalia	Forcipulatida	Echinodermata	Rathbunaster californicus	Asteroidea							Eukaryota		V3167-02
 	transect	Allocentrotus fragilis	305.2	3167	01:27:40:07	 	36.827404	-122.16857	2388583	1.12	00:25.0	Ventana	34.159	01:29:32:04	7.026	Echinoidea	Strongylocentrotidae	Allocentrotus			Animalia	Echinoida	Echinodermata	Allocentrotus fragilis	Euechinoidea			Echinacea				Eukaryota		V3167-02
 	transect	Allocentrotus fragilis	308.83	3167	01:33:57:25	 	36.827408	-122.167694	2389905	1.08	06:43.0	Ventana	34.165	01:35:49:16	6.927	Echinoidea	Strongylocentrotidae	Allocentrotus			Animalia	Echinoida	Echinodermata	Allocentrotus fragilis	Euechinoidea			Echinacea				Eukaryota		V3167-02
 	transect	Hippasteria	307.15	3167	01:26:13:25	 	36.82697	-122.16881	2372847	1.22	58:58.0	Ventana	34.147	01:28:05:16	7.163		Goniasteridae	Hippasteria			Animalia	Valvatida	Echinodermata		Asteroidea			Granulosina				Eukaryota		V3167-02
 	transect	Allocentrotus fragilis	308.58	3167	01:33:03:27	 	36.827694	-122.16764	2389642	1.08	05:48.0	Ventana	34.165	01:34:54:29	6.927	Echinoidea	Strongylocentrotidae	Allocentrotus			Animalia	Echinoida	Echinodermata	Allocentrotus fragilis	Euechinoidea			Echinacea				Eukaryota		V3167-02
 	transect	Allocentrotus fragilis	313.24	3167	01:17:23:26	 	36.82618	-122.1682	2370805	1.07	50:08.0	Ventana	34.166	01:19:14:17	6.912	Echinoidea	Strongylocentrotidae	Allocentrotus			Animalia	Echinoida	Echinodermata	Allocentrotus fragilis	Euechinoidea			Echinacea				Eukaryota		V3167-02
 	transect	Allocentrotus fragilis	303.48	3167	01:29:08:19	 	36.827793	-122.16835	2388920	1.12	01:53.0	Ventana	34.159	01:31:01:09	7.03	Echinoidea	Strongylocentrotidae	Allocentrotus			Animalia	Echinoida	Echinodermata	Allocentrotus fragilis	Euechinoidea			Echinacea				Eukaryota		V3167-02
 	transect	Sebastes	309.5	3167	01:35:06:08	 	36.82698	-122.167885	2390198	1.08	07:51.0	Ventana	34.164	01:36:57:28	6.94	Osteichthyes	Scorpaenidae	Sebastes	Neopterygii		Animalia	Scorpaeniformes	Chordata		Actinopterygii			Scorpaenoidei	Vertebrata	Gnathostomata		Eukaryota	Acanthopterygii	V3167-02
 	transect	Stylasterias forreri	305.08	3167	01:27:52:22	 	36.827465	-122.16854	2388613	1.12	00:37.0	Ventana	34.159	01:29:44:02	7.026		Asteriidae	Stylasterias			Animalia	Forcipulatida	Echinodermata	Stylasterias forreri	Asteroidea							Eukaryota		V3167-02
 	transect	Rathbunaster californicus	308.92	3167	01:33:49:25	 	36.827457	-122.16768	2389845	1.07	06:35.0	Ventana	34.166	01:35:40:24	6.926		Labidiasteridae	Rathbunaster			Animalia	Forcipulatida	Echinodermata	Rathbunaster californicus	Asteroidea							Eukaryota		V3167-02
 	transect	Allocentrotus fragilis	308.32	3167	01:33:13:26	 	36.827663	-122.167656	2389672	1.08	05:58.0	Ventana	34.166	01:35:05:19	6.926	Echinoidea	Strongylocentrotidae	Allocentrotus			Animalia	Echinoida	Echinodermata	Allocentrotus fragilis	Euechinoidea			Echinacea				Eukaryota		V3167-02
 	cruise	Stylasterias forreri	302.66	3167	01:31:15:15	 	36.827953	-122.16796	2389476	1.09	04:00.0	Ventana	34.164	01:33:06:18	6.949		Asteriidae	Stylasterias			Animalia	Forcipulatida	Echinodermata	Stylasterias forreri	Asteroidea							Eukaryota		V3167-02
 	transect	Allocentrotus fragilis	305.19	3167	01:27:22:08	 	36.82731	-122.168625	2388463	1.1	00:07.0	Ventana	34.163	01:29:12:16	6.962	Echinoidea	Strongylocentrotidae	Allocentrotus			Animalia	Echinoida	Echinodermata	Allocentrotus fragilis	Euechinoidea			Echinacea				Eukaryota		V3167-02
 	transect	Rathbunaster californicus	309.07	3167	01:34:19:25	 	36.827267	-122.16774	2390025	1.08	07:05.0	Ventana	34.165	01:36:12:00	6.933		Labidiasteridae	Rathbunaster			Animalia	Forcipulatida	Echinodermata	Rathbunaster californicus	Asteroidea							Eukaryota		V3167-02
 	transect	Rathbunaster californicus	308.76	3167	01:33:23:27	 	36.82762	-122.167656	2389702	1.08	06:08.0	Ventana	34.166	01:35:15:24	6.925		Labidiasteridae	Rathbunaster			Animalia	Forcipulatida	Echinodermata	Rathbunaster californicus	Asteroidea							Eukaryota		V3167-02
 	cruise	Parastichopus leukothele	307.6	3167	01:32:05:14	 	36.827847	-122.16773	2389506	1.08	04:50.0	Ventana	34.165	01:33:56:12	6.934	Holothuroidea	Stichopodidae	Parastichopus			Animalia	Aspidochirotida	Echinodermata	Parastichopus leukothele	Aspidochirotacea							Eukaryota		V3167-02
 	transect	Allocentrotus fragilis	309.52	3167	01:25:05:27	 	36.82666	-122.16899	2372743	1.09	57:50.0	Ventana	34.165	01:26:58:02	6.968	Echinoidea	Strongylocentrotidae	Allocentrotus			Animalia	Echinoida	Echinodermata	Allocentrotus fragilis	Euechinoidea			Echinacea				Eukaryota		V3167-02
 	transect	Allocentrotus fragilis	309.17	3167	01:34:28:09	 	36.827217	-122.16776	2390055	1.08	07:13.0	Ventana	34.165	01:36:19:18	6.927	Echinoidea	Strongylocentrotidae	Allocentrotus			Animalia	Echinoida	Echinodermata	Allocentrotus fragilis	Euechinoidea			Echinacea				Eukaryota		V3167-02
 	cruise	Sebastes	307.12	3167	01:26:20:09	http://search.mbari.org/ARCHIVE/frameGrabs/Ventana/images/3167/01_28_12_02.jpg	36.826996	-122.16879	20023989	1.22	59:04.0	Ventana	34.147	01:28:12:02	7.163	Osteichthyes	Scorpaenidae	Sebastes	Neopterygii		Animalia	Scorpaeniformes	Chordata		Actinopterygii			Scorpaenoidei	Vertebrata	Gnathostomata		Eukaryota	Acanthopterygii	V3167-02
 	transect	Sebastes	305.36	3167	01:27:18:07	http://search.mbari.org/ARCHIVE/frameGrabs/Ventana/images/3167/01_29_09_12.jpg	36.82729	-122.16863	2388433	1.1	00:03.0	Ventana	34.163	01:29:09:12	6.962	Osteichthyes	Scorpaenidae	Sebastes	Neopterygii		Animalia	Scorpaeniformes	Chordata		Actinopterygii			Scorpaenoidei	Vertebrata	Gnathostomata		Eukaryota	Acanthopterygii	V3167-02
 	transect	Phyllospadix	169.33	3167	02:34:11:08	 	36.837322	-122.15901	2467356	2.67	07:25.0	Ventana	33.937	02:35:54:19	9.378		Zosteraceae	Phyllospadix			Plantae	Najadales										Eukaryota		V3167-03
 	cruise	Stylasterias forreri	290.77	3167	02:00:33:10	 	36.832516	-122.1649	2467709	1.13	33:45.0	Ventana	34.159	02:02:16:10	7.032		Asteriidae	Stylasterias			Animalia	Forcipulatida	Echinodermata	Stylasterias forreri	Asteroidea							Eukaryota		V3167-03
 	transect	Rathbunaster californicus	312.35	3167	01:16:55:27	 	36.826324	-122.16816	2370572	1.07	49:39.0	Ventana	34.166	01:18:46:25	6.915		Labidiasteridae	Rathbunaster			Animalia	Forcipulatida	Echinodermata	Rathbunaster californicus	Asteroidea							Eukaryota		V3167-02
 	transect	Phyllospadix	166.21	3167	02:24:53:10	 	36.836956	-122.158264	2467160	2.51	58:06.0	Ventana	33.962	02:26:35:13	9.18		Zosteraceae	Phyllospadix			Plantae	Najadales										Eukaryota		V3167-03
 	transect	Allocentrotus fragilis	311.93	3167	01:23:55:14	 	36.826267	-122.16921	2371991	1.07	56:40.0	Ventana	34.165	01:25:46:25	6.925	Echinoidea	Strongylocentrotidae	Allocentrotus			Animalia	Echinoida	Echinodermata	Allocentrotus fragilis	Euechinoidea			Echinacea				Eukaryota		V3167-02
 	transect	Allocentrotus fragilis	316.08	3167	01:22:17:02	 	36.82569	-122.16947	2371638	1.09	55:01.0	Ventana	34.163	01:24:08:15	6.958	Echinoidea	Strongylocentrotidae	Allocentrotus			Animalia	Echinoida	Echinodermata	Allocentrotus fragilis	Euechinoidea			Echinacea				Eukaryota		V3167-02
 	transect	Rathbunaster californicus	322.95	3167	00:49:32:02	 	36.824486	-122.170715	2463263	1.18	21:53.0	Ventana	34.154	00:51:28:03	7.11		Labidiasteridae	Rathbunaster			Animalia	Forcipulatida	Echinodermata	Rathbunaster californicus	Asteroidea							Eukaryota		V3167-01
 	cruise	mud	307.29	3167	01:36:58:20	 	36.82678	-122.16859	2390768	1.08	09:44.0	Ventana	34.166	01:38:50:02	6.927																			V3167-02
 	transect	Allocentrotus fragilis	312.25	3167	01:23:51:14	 	36.826244	-122.16923	2371961	1.08	56:36.0	Ventana	34.165	01:25:42:08	6.929	Echinoidea	Strongylocentrotidae	Allocentrotus			Animalia	Echinoida	Echinodermata	Allocentrotus fragilis	Euechinoidea			Echinacea				Eukaryota		V3167-02
 	transect	Allocentrotus fragilis	305.86	3167	01:27:04:08	 	36.827217	-122.16867	2388350	1.1	59:49.0	Ventana	34.164	01:28:55:20	6.964	Echinoidea	Strongylocentrotidae	Allocentrotus			Animalia	Echinoida	Echinodermata	Allocentrotus fragilis	Euechinoidea			Echinacea				Eukaryota		V3167-02
 	transect	Allocentrotus fragilis	306.83	3167	01:26:36:09	 	36.827076	-122.16875	2372997	1.17	59:20.0	Ventana	34.157	01:28:28:07	7.079	Echinoidea	Strongylocentrotidae	Allocentrotus			Animalia	Echinoida	Echinodermata	Allocentrotus fragilis	Euechinoidea			Echinacea				Eukaryota		V3167-02
 	transect	Stomphia	322.91	3167	00:59:13:14	 	36.82393	-122.17021	2464276	1.14	31:56.0	Ventana	34.157	01:01:04:04	7.046	Anthozoa	Actinostolidae	Stomphia			Animalia	Actiniaria	Cnidaria		Hexacorallia			Nyantheae				Eukaryota		V3167-02
 	transect	Rathbunaster californicus	309.24	3167	01:34:44:09	 	36.82711	-122.16781	2390108	1.08	07:29.0	Ventana	34.165	01:36:35:11	6.933		Labidiasteridae	Rathbunaster			Animalia	Forcipulatida	Echinodermata	Rathbunaster californicus	Asteroidea							Eukaryota		V3167-02
 	transect	Rathbunaster californicus	322.66	3167	00:48:29:19	 	36.824654	-122.17083	2463240	1.19	20:51.0	Ventana	34.154	00:50:25:01	7.121		Labidiasteridae	Rathbunaster			Animalia	Forcipulatida	Echinodermata	Rathbunaster californicus	Asteroidea							Eukaryota		V3167-01
 	cruise	Corallimorphus pilatus	310.43	3167	01:11:58:21	 	36.826588	-122.16911	2464652	1.11	44:42.0	Ventana	34.161	01:13:50:20	7	Anthozoa	Corallimorphidae	Corallimorphus			Animalia	Corallimorpharia	Cnidaria	Corallimorphus pilatus	Hexacorallia							Eukaryota		V3167-02
 	transect	Stomphia	305.98	3167	01:26:56:08	 	36.827175	-122.16869	2388320	1.1	59:41.0	Ventana	34.164	01:28:47:24	6.964	Anthozoa	Actinostolidae	Stomphia			Animalia	Actiniaria	Cnidaria		Hexacorallia			Nyantheae				Eukaryota		V3167-02
 	cruise	Mediaster aequalis	172.4	3167	02:37:50:16	 	36.836952	-122.15871	2467386	2.69	11:04.0	Ventana	33.934	02:39:33:21	9.366		Goniasteridae	Mediaster			Animalia	Valvatida	Echinodermata	Mediaster aequalis	Asteroidea			Granulosina				Eukaryota		V3167-03
 	transect	Rathbunaster californicus	310.48	3167	01:24:45:27	 	36.826546	-122.16907	2372713	1.08	57:30.0	Ventana	34.165	01:26:36:22	6.934		Labidiasteridae	Rathbunaster			Animalia	Forcipulatida	Echinodermata	Rathbunaster californicus	Asteroidea							Eukaryota		V3167-02
 	transect	Stomphia	322.51	3167	00:58:33:16	 	36.823994	-122.170296	2464246	1.15	31:16.0	Ventana	34.157	01:00:25:23	7.051	Anthozoa	Actinostolidae	Stomphia			Animalia	Actiniaria	Cnidaria		Hexacorallia			Nyantheae				Eukaryota		V3167-02
 	transect	Rathbunaster californicus	312.54	3167	01:17:03:26	 	36.826283	-122.16816	2370602	1.07	49:47.0	Ventana	34.166	01:18:55:00	6.915		Labidiasteridae	Rathbunaster			Animalia	Forcipulatida	Echinodermata	Rathbunaster californicus	Asteroidea							Eukaryota		V3167-02
 	transect	Rathbunaster californicus	309.22	3167	01:34:36:09	 	36.827168	-122.167786	2390078	1.08	07:21.0	Ventana	34.165	01:36:26:19	6.927		Labidiasteridae	Rathbunaster			Animalia	Forcipulatida	Echinodermata	Rathbunaster californicus	Asteroidea							Eukaryota		V3167-02
 	transect	Allocentrotus fragilis	311.62	3167	01:16:39:12	 	36.8264	-122.168175	2370519	1.07	49:23.0	Ventana	34.165	01:18:31:12	6.917	Echinoidea	Strongylocentrotidae	Allocentrotus			Animalia	Echinoida	Echinodermata	Allocentrotus fragilis	Euechinoidea			Echinacea				Eukaryota		V3167-02
 	cruise	Parastichopus leukothele	329.34	3167	00:11:06:13	http://search.mbari.org/ARCHIVE/frameGrabs/Ventana/images/3167/00_13_03_11.jpg	36.822655	-122.17062	2462159	1.1	43:25.0	Ventana	34.165	00:13:03:11	6.943	Holothuroidea	Stichopodidae	Parastichopus			Animalia	Aspidochirotida	Echinodermata	Parastichopus leukothele	Aspidochirotacea							Eukaryota		V3167-01
 	cruise	Parastichopus leukothele	265.29	3167	02:07:32:27	 	36.83416	-122.1629	2467762	1.24	40:45.0	Ventana	34.15	02:09:15:14	7.254	Holothuroidea	Stichopodidae	Parastichopus			Animalia	Aspidochirotida	Echinodermata	Parastichopus leukothele	Aspidochirotacea							Eukaryota		V3167-03
 	transect	Allocentrotus fragilis	316.03	3167	01:22:27:02	 	36.825745	-122.16945	2371668	1.08	55:11.0	Ventana	34.164	01:24:18:07	6.938	Echinoidea	Strongylocentrotidae	Allocentrotus			Animalia	Echinoida	Echinodermata	Allocentrotus fragilis	Euechinoidea			Echinacea				Eukaryota		V3167-02
 	transect	Allocentrotus fragilis	303.07	3167	01:29:24:19	 	36.827854	-122.168304	2388980	1.14	02:09.0	Ventana	34.159	01:31:17:05	7.042	Echinoidea	Strongylocentrotidae	Allocentrotus			Animalia	Echinoida	Echinodermata	Allocentrotus fragilis	Euechinoidea			Echinacea				Eukaryota		V3167-02
 	transect	Allocentrotus fragilis	318.42	3167	00:35:22:14	 	36.824875	-122.169586	2462947	1.14	07:43.0	Ventana	34.159	00:37:18:07	7.033	Echinoidea	Strongylocentrotidae	Allocentrotus			Animalia	Echinoida	Echinodermata	Allocentrotus fragilis	Euechinoidea			Echinacea				Eukaryota		V3167-01
 	transect	Allocentrotus fragilis	310.65	3167	01:24:35:28	 	36.826492	-122.1691	2372683	1.08	57:20.0	Ventana	34.165	01:26:27:05	6.93	Echinoidea	Strongylocentrotidae	Allocentrotus			Animalia	Echinoida	Echinodermata	Allocentrotus fragilis	Euechinoidea			Echinacea				Eukaryota		V3167-02
 	transect	Rathbunaster californicus	308.83	3167	01:33:27:26	 	36.82759	-122.16766	2389732	1.08	06:13.0	Ventana	34.166	01:35:18:22	6.925		Labidiasteridae	Rathbunaster			Animalia	Forcipulatida	Echinodermata	Rathbunaster californicus	Asteroidea							Eukaryota		V3167-02
 	transect	Rathbunaster californicus	316.82	3167	01:21:59:02	 	36.825603	-122.1695	2371585	1.09	54:43.0	Ventana	34.164	01:23:51:02	6.958		Labidiasteridae	Rathbunaster			Animalia	Forcipulatida	Echinodermata	Rathbunaster californicus	Asteroidea							Eukaryota		V3167-02
 	cruise	trench	101.52	3167	04:07:57:07	http://search.mbari.org/ARCHIVE/frameGrabs/Ventana/images/3167/04_09_32_21.jpg	36.85033	-122.124176	2471870	5.05	42:00.0	Ventana	33.48	04:09:32:21	11.29																			V3167-05
 	transect	Rathbunaster californicus	315.77	3167	01:22:37:01	 	36.8258	-122.16942	2371698	1.08	55:21.0	Ventana	34.164	01:24:29:02	6.938		Labidiasteridae	Rathbunaster			Animalia	Forcipulatida	Echinodermata	Rathbunaster californicus	Asteroidea							Eukaryota		V3167-02
 	transect	Rathbunaster californicus	318.39	3167	00:36:38:26	 	36.824886	-122.16984	2462977	1.15	08:59.0	Ventana	34.157	00:38:33:29	7.065		Labidiasteridae	Rathbunaster			Animalia	Forcipulatida	Echinodermata	Rathbunaster californicus	Asteroidea							Eukaryota		V3167-01
 	transect	Allocentrotus fragilis	314.62	3167	01:23:23:15	 	36.826073	-122.1693	2371871	1.07	56:07.0	Ventana	34.165	01:25:13:28	6.923	Echinoidea	Strongylocentrotidae	Allocentrotus			Animalia	Echinoida	Echinodermata	Allocentrotus fragilis	Euechinoidea			Echinacea				Eukaryota		V3167-02
 	transect	Sebastes	308.88	3167	01:32:59:27	 	36.827705	-122.16764	2389619	1.08	05:44.0	Ventana	34.165	01:34:51:16	6.927	Osteichthyes	Scorpaenidae	Sebastes	Neopterygii		Animalia	Scorpaeniformes	Chordata		Actinopterygii			Scorpaenoidei	Vertebrata	Gnathostomata		Eukaryota	Acanthopterygii	V3167-02
 	transect	Rathbunaster californicus	319.27	3167	00:19:24:13	 	36.824383	-122.16972	2462398	1.14	51:44.0	Ventana	34.158	00:21:20:27	7.025		Labidiasteridae	Rathbunaster			Animalia	Forcipulatida	Echinodermata	Rathbunaster californicus	Asteroidea							Eukaryota		V3167-01
 	transect	Rathbunaster californicus	309.33	3167	01:35:00:08	 	36.827015	-122.16786	2390168	1.08	07:45.0	Ventana	34.164	01:36:51:11	6.94		Labidiasteridae	Rathbunaster			Animalia	Forcipulatida	Echinodermata	Rathbunaster californicus	Asteroidea							Eukaryota		V3167-02
 	transect	Sebastes	308.95	3167	01:33:43:26	 	36.827496	-122.16767	2389792	1.07	06:29.0	Ventana	34.166	01:35:35:11	6.926	Osteichthyes	Scorpaenidae	Sebastes	Neopterygii		Animalia	Scorpaeniformes	Chordata		Actinopterygii			Scorpaenoidei	Vertebrata	Gnathostomata		Eukaryota	Acanthopterygii	V3167-02
 	transect	Rathbunaster californicus	309.9	3167	01:15:41:14	 	36.826653	-122.16827	2370459	1.07	48:25.0	Ventana	34.166	01:17:32:18	6.923		Labidiasteridae	Rathbunaster			Animalia	Forcipulatida	Echinodermata	Rathbunaster californicus	Asteroidea							Eukaryota		V3167-02
 	transect	Rathbunaster californicus	314.81	3167	01:19:10:08	 	36.825638	-122.168755	2371241	1.09	51:54.0	Ventana	34.161	01:21:01:27	6.971		Labidiasteridae	Rathbunaster			Animalia	Forcipulatida	Echinodermata	Rathbunaster californicus	Asteroidea							Eukaryota		V3167-02
 	cruise	Hippasteria	340.01	3167	00:04:46:25	 	36.820713	-122.17123	2459589	1.1	37:05.0	Ventana	34.161	00:06:42:22	6.936		Goniasteridae	Hippasteria			Animalia	Valvatida	Echinodermata		Asteroidea			Granulosina				Eukaryota		V3167-01
 	transect	Rathbunaster californicus	311.05	3167	01:24:21:13	 	36.826416	-122.169136	2372104	1.08	57:06.0	Ventana	34.164	01:26:12:19	6.927		Labidiasteridae	Rathbunaster			Animalia	Forcipulatida	Echinodermata	Rathbunaster californicus	Asteroidea							Eukaryota		V3167-02
 	transect	Rathbunaster californicus	315.14	3167	01:22:47:01	 	36.82586	-122.169395	2371728	1.08	55:31.0	Ventana	34.166	01:24:38:07	6.927		Labidiasteridae	Rathbunaster			Animalia	Forcipulatida	Echinodermata	Rathbunaster californicus	Asteroidea							Eukaryota		V3167-02
 	transect	Allocentrotus fragilis	302.77	3167	01:29:55:03	 	36.827953	-122.16823	2389040	1.1	02:39.0	Ventana	34.164	01:31:45:13	6.965	Echinoidea	Strongylocentrotidae	Allocentrotus			Animalia	Echinoida	Echinodermata	Allocentrotus fragilis	Euechinoidea			Echinacea				Eukaryota		V3167-02
 	cruise	Sebastes	335.42	3167	00:07:29:20	 	36.82161	-122.17101	2462099	1.11	39:48.0	Ventana	34.16	00:09:26:12	6.955	Osteichthyes	Scorpaenidae	Sebastes	Neopterygii		Animalia	Scorpaeniformes	Chordata		Actinopterygii			Scorpaenoidei	Vertebrata	Gnathostomata		Eukaryota	Acanthopterygii	V3167-01
 	transect	Sebastes	308.9	3167	01:34:07:25	 	36.827343	-122.16771	2389965	1.08	06:53.0	Ventana	34.165	01:35:58:22	6.933	Osteichthyes	Scorpaenidae	Sebastes	Neopterygii		Animalia	Scorpaeniformes	Chordata		Actinopterygii			Scorpaenoidei	Vertebrata	Gnathostomata		Eukaryota	Acanthopterygii	V3167-02
 	cruise	Stomphia	319.55	3167	01:05:19:04	 	36.824585	-122.17014	2464419	1.14	38:02.0	Ventana	34.159	01:07:09:13	7.037	Anthozoa	Actinostolidae	Stomphia			Animalia	Actiniaria	Cnidaria		Hexacorallia			Nyantheae				Eukaryota		V3167-02
 	transect	Rathbunaster californicus	308.98	3167	01:34:54:08	 	36.82705	-122.16784	2390138	1.08	07:39.0	Ventana	34.164	01:36:45:20	6.94		Labidiasteridae	Rathbunaster			Animalia	Forcipulatida	Echinodermata	Rathbunaster californicus	Asteroidea							Eukaryota		V3167-02
 	transect	Sebastes	305.1	3167	01:27:28:08	 	36.82734	-122.16861	2388523	1.11	00:13.0	Ventana	34.162	01:29:19:25	6.992	Osteichthyes	Scorpaenidae	Sebastes	Neopterygii		Animalia	Scorpaeniformes	Chordata		Actinopterygii			Scorpaenoidei	Vertebrata	Gnathostomata		Eukaryota	Acanthopterygii	V3167-02
 	transect	Rathbunaster californicus	315.87	3167	01:19:36:07	 	36.825504	-122.168884	2371352	1.09	52:20.0	Ventana	34.163	01:21:28:24	6.954		Labidiasteridae	Rathbunaster			Animalia	Forcipulatida	Echinodermata	Rathbunaster californicus	Asteroidea							Eukaryota		V3167-02
 	transect	Allocentrotus fragilis	306.89	3167	01:26:30:09	 	36.827053	-122.16876	2372967	1.17	59:14.0	Ventana	34.157	01:28:22:11	7.079	Echinoidea	Strongylocentrotidae	Allocentrotus			Animalia	Echinoida	Echinodermata	Allocentrotus fragilis	Euechinoidea			Echinacea				Eukaryota		V3167-02
 	transect	Sebastes	308.78	3167	01:32:51:12	 	36.827736	-122.16764	2389589	1.08	05:36.0	Ventana	34.165	01:34:43:21	6.93	Osteichthyes	Scorpaenidae	Sebastes	Neopterygii		Animalia	Scorpaeniformes	Chordata		Actinopterygii			Scorpaenoidei	Vertebrata	Gnathostomata		Eukaryota	Acanthopterygii	V3167-02
 	transect	Rathbunaster californicus	313	3167	01:17:19:26	 	36.8262	-122.16818	2370798	1.07	50:04.0	Ventana	34.165	01:19:11:07	6.914		Labidiasteridae	Rathbunaster			Animalia	Forcipulatida	Echinodermata	Rathbunaster californicus	Asteroidea							Eukaryota		V3167-02
 	transect	Rathbunaster californicus	308.91	3167	01:33:51:26	 	36.827446	-122.16769	2389866	1.07	06:37.0	Ventana	34.166	01:35:43:19	6.926		Labidiasteridae	Rathbunaster			Animalia	Forcipulatida	Echinodermata	Rathbunaster californicus	Asteroidea							Eukaryota		V3167-02
 	transect	Parmaturus xaniurus	319.2	3167	00:26:22:15	http://search.mbari.org/ARCHIVE/frameGrabs/Ventana/images/3167/00_28_18_25.jpg	36.824535	-122.16942	20023950	1.14	58:42.0	Ventana	34.159	00:28:18:25	7.031	Chondrichthyes	Scyliorhinidae	Parmaturus			Animalia	Carcharhiniformes	Chordata	Parmaturus xaniurus	Elasmobranchii				Vertebrata			Eukaryota	Galeomorphi	V3167-01
 	transect	Allocentrotus fragilis	309.54	3167	01:15:29:14	 	36.82669	-122.1683	2370445	1.07	48:13.0	Ventana	34.164	01:17:20:04	6.927	Echinoidea	Strongylocentrotidae	Allocentrotus			Animalia	Echinoida	Echinodermata	Allocentrotus fragilis	Euechinoidea			Echinacea				Eukaryota		V3167-02
 	transect	Sebastes	314.82	3167	01:22:57:00	 	36.825916	-122.16937	2371765	1.07	55:41.0	Ventana	34.165	01:24:48:12	6.926	Osteichthyes	Scorpaenidae	Sebastes	Neopterygii		Animalia	Scorpaeniformes	Chordata		Actinopterygii			Scorpaenoidei	Vertebrata	Gnathostomata		Eukaryota	Acanthopterygii	V3167-02
 	cruise	Stylasterias forreri	194.41	3167	02:17:55:08	http://search.mbari.org/ARCHIVE/frameGrabs/Ventana/images/3167/02_19_37_26.jpg	36.83631	-122.159805	2466936	2.12	51:08.0	Ventana	34.026	02:19:37:26	8.656		Asteriidae	Stylasterias			Animalia	Forcipulatida	Echinodermata	Stylasterias forreri	Asteroidea							Eukaryota		V3167-03
 	cruise	trench	108.65	3167	03:40:01:20	http://search.mbari.org/ARCHIVE/frameGrabs/Ventana/images/3167/03_41_42_02.jpg	36.844673	-122.1366	2471005	4.81	13:41.0	Ventana	33.51	03:41:42:02	11.214																			V3167-04
 	transect	Rathbunaster californicus	318.53	3167	00:37:14:25	 	36.824898	-122.169975	2462991	1.16	09:35.0	Ventana	34.157	00:39:10:11	7.073		Labidiasteridae	Rathbunaster			Animalia	Forcipulatida	Echinodermata	Rathbunaster californicus	Asteroidea							Eukaryota		V3167-01
 	transect	Hippasteria	316.8	3167	01:19:54:06	 	36.825428	-122.16899	2371382	1.07	52:38.0	Ventana	34.166	01:21:45:19	6.913		Goniasteridae	Hippasteria			Animalia	Valvatida	Echinodermata		Asteroidea			Granulosina				Eukaryota		V3167-02
 	transect	Psolus squamatus	322.83	3167	00:53:58:24	 	36.824318	-122.17056	2463374	1.17	26:20.0	Ventana	34.155	00:55:54:29	7.097	Holothuroidea	Psolidae	Psolus			Animalia	Dendrochirotida	Echinodermata	Psolus squamatus								Eukaryota		V3167-01
 	transect	Rathbunaster californicus	308.83	3167	01:33:57:25	 	36.827408	-122.167694	2389896	1.08	06:43.0	Ventana	34.165	01:35:49:16	6.927		Labidiasteridae	Rathbunaster			Animalia	Forcipulatida	Echinodermata	Rathbunaster californicus	Asteroidea							Eukaryota		V3167-02
 	transect	Allocentrotus fragilis	319.39	3167	00:38:01:08	 	36.824913	-122.170135	2463021	1.16	10:22.0	Ventana	34.156	00:39:57:00	7.069	Echinoidea	Strongylocentrotidae	Allocentrotus			Animalia	Echinoida	Echinodermata	Allocentrotus fragilis	Euechinoidea			Echinacea				Eukaryota		V3167-01
 	transect	Rathbunaster californicus	311.33	3167	01:24:15:13	 	36.82638	-122.16916	2372088	1.08	57:00.0	Ventana	34.164	01:26:07:08	6.927		Labidiasteridae	Rathbunaster			Animalia	Forcipulatida	Echinodermata	Rathbunaster californicus	Asteroidea							Eukaryota		V3167-02
 	transect	Rathbunaster californicus	313.01	3167	01:18:36:09	 	36.825825	-122.16858	2371151	1.1	51:20.0	Ventana	34.16	01:20:27:08	6.984		Labidiasteridae	Rathbunaster			Animalia	Forcipulatida	Echinodermata	Rathbunaster californicus	Asteroidea							Eukaryota		V3167-02
 	transect	Stomphia	309.44	3167	01:25:21:26	 	36.826736	-122.168945	2372764	1.11	58:06.0	Ventana	34.161	01:27:12:18	7.022	Anthozoa	Actinostolidae	Stomphia			Animalia	Actiniaria	Cnidaria		Hexacorallia			Nyantheae				Eukaryota		V3167-02
 	cruise	Rathbunaster californicus	130.55	3167	02:52:24:04	 	36.838715	-122.15329	2467582	3.06	25:39.0	Ventana	33.824	02:54:05:26	9.818		Labidiasteridae	Rathbunaster			Animalia	Forcipulatida	Echinodermata	Rathbunaster californicus	Asteroidea							Eukaryota		V3167-03
 	cruise	Hydrolagus colliei	309.69	3167	01:50:34:10	 	36.829742	-122.16725	2465492	1.1	23:20.0	Ventana	34.163	01:52:25:23	6.961	Chondrichthyes	Chimaeridae	Hydrolagus			Animalia	Chimaeriformes	Chordata	Hydrolagus colliei	Holocephali			Chimaeroidei	Vertebrata			Eukaryota	Holocephalimorpha	V3167-02
 	transect	Rathbunaster californicus	313.33	3167	01:18:46:08	 	36.82577	-122.16863	2371181	1.11	51:30.0	Ventana	34.161	01:20:38:13	6.99		Labidiasteridae	Rathbunaster			Animalia	Forcipulatida	Echinodermata	Rathbunaster californicus	Asteroidea							Eukaryota		V3167-02
 	cruise	Lycodes cortezianus	230.78	3167	02:12:58:02	 	36.835358	-122.1612	2466876	1.62	46:11.0	Ventana	34.109	02:14:40:18	7.923	Osteichthyes	Zoarcidae	Lycodes	Neopterygii		Animalia	Perciformes	Chordata	Lycodes cortezianus	Actinopterygii			Zoarcoidei	Vertebrata	Gnathostomata		Eukaryota	Acanthopterygii	V3167-03
 	transect	Phyllospadix	161.74	3167	02:30:16:15	 	36.837513	-122.15838	2467319	2.69	03:30.0	Ventana	33.936	02:31:58:21	9.363		Zosteraceae	Phyllospadix			Plantae	Najadales										Eukaryota		V3167-03
 	transect	Allocentrotus fragilis	305.2	3167	01:27:40:07	 	36.827404	-122.16857	2388576	1.12	00:25.0	Ventana	34.159	01:29:32:04	7.026	Echinoidea	Strongylocentrotidae	Allocentrotus			Animalia	Echinoida	Echinodermata	Allocentrotus fragilis	Euechinoidea			Echinacea				Eukaryota		V3167-02
 	transect	Allocentrotus fragilis	310.04	3167	01:24:57:27	 	36.82662	-122.16902	2372734	1.09	57:42.0	Ventana	34.165	01:26:49:26	6.968	Echinoidea	Strongylocentrotidae	Allocentrotus			Animalia	Echinoida	Echinodermata	Allocentrotus fragilis	Euechinoidea			Echinacea				Eukaryota		V3167-02
 	transect	Allocentrotus fragilis	311.83	3167	01:24:05:14	 	36.826324	-122.16919	2372028	1.07	56:50.0	Ventana	34.165	01:25:56:01	6.925	Echinoidea	Strongylocentrotidae	Allocentrotus			Animalia	Echinoida	Echinodermata	Allocentrotus fragilis	Euechinoidea			Echinacea				Eukaryota		V3167-02
 	cruise	Sebastes	266.78	3167	02:07:14:28	 	36.834087	-122.162994	2466613	1.23	40:27.0	Ventana	34.15	02:08:57:02	7.216	Osteichthyes	Scorpaenidae	Sebastes	Neopterygii		Animalia	Scorpaeniformes	Chordata		Actinopterygii			Scorpaenoidei	Vertebrata	Gnathostomata		Eukaryota	Acanthopterygii	V3167-03
 	cruise	Parastichopus leukothele	110.29	3167	03:17:14:03	 	36.84239	-122.14119	2468624	4.84	50:53.0	Ventana	33.518	03:18:54:19	11.223	Holothuroidea	Stichopodidae	Parastichopus			Animalia	Aspidochirotida	Echinodermata	Parastichopus leukothele	Aspidochirotacea							Eukaryota		V3167-04
 	transect	Allocentrotus fragilis	305.03	3167	01:28:02:21	 	36.827515	-122.16851	2388636	1.16	00:47.0	Ventana	34.154	01:29:53:13	7.099	Echinoidea	Strongylocentrotidae	Allocentrotus			Animalia	Echinoida	Echinodermata	Allocentrotus fragilis	Euechinoidea			Echinacea				Eukaryota		V3167-02
 	transect	Allocentrotus fragilis	310.49	3167	01:24:41:27	 	36.826527	-122.169075	2372704	1.08	57:26.0	Ventana	34.165	01:26:33:24	6.934	Echinoidea	Strongylocentrotidae	Allocentrotus			Animalia	Echinoida	Echinodermata	Allocentrotus fragilis	Euechinoidea			Echinacea				Eukaryota		V3167-02
 	transect	Sebastes	306.94	3167	01:26:24:09	 	36.82701	-122.168785	2372946	1.17	59:08.0	Ventana	34.157	01:28:15:00	7.079	Osteichthyes	Scorpaenidae	Sebastes	Neopterygii		Animalia	Scorpaeniformes	Chordata		Actinopterygii			Scorpaenoidei	Vertebrata	Gnathostomata		Eukaryota	Acanthopterygii	V3167-02
 	transect	Rathbunaster californicus	323.01	3167	00:49:08:03	 	36.82453	-122.17076	2463254	1.18	21:29.0	Ventana	34.154	00:51:04:24	7.113		Labidiasteridae	Rathbunaster			Animalia	Forcipulatida	Echinodermata	Rathbunaster californicus	Asteroidea							Eukaryota		V3167-01
 	transect	Allocentrotus fragilis	308.92	3167	01:33:45:26	 	36.827484	-122.16767	2389806	1.07	06:31.0	Ventana	34.166	01:35:38:01	6.926	Echinoidea	Strongylocentrotidae	Allocentrotus			Animalia	Echinoida	Echinodermata	Allocentrotus fragilis	Euechinoidea			Echinacea				Eukaryota		V3167-02
 	cruise	Raja rhina	308.64	3167	01:36:20:21	 	36.826775	-122.16832	2390754	1.08	09:05.0	Ventana	34.166	01:38:11:23	6.926	Chondrichthyes	Rajidae	Raja			Animalia	Rajiformes	Chordata	Raja rhina	Elasmobranchii				Vertebrata			Eukaryota	Batoidea	V3167-02
 	transect	Rathbunaster californicus	314.84	3167	01:23:11:15	 	36.826008	-122.16933	2371825	1.07	55:55.0	Ventana	34.165	01:25:03:12	6.923		Labidiasteridae	Rathbunaster			Animalia	Forcipulatida	Echinodermata	Rathbunaster californicus	Asteroidea							Eukaryota		V3167-02
 	transect	Phyllospadix	168.33	3167	02:33:45:09	 	36.83733	-122.15895	2467349	2.67	06:59.0	Ventana	33.94	02:35:27:16	9.329		Zosteraceae	Phyllospadix			Plantae	Najadales										Eukaryota		V3167-03
 	transect	Rathbunaster californicus	308.58	3167	01:33:03:27	 	36.827694	-122.16764	2389633	1.08	05:48.0	Ventana	34.165	01:34:54:29	6.927		Labidiasteridae	Rathbunaster			Animalia	Forcipulatida	Echinodermata	Rathbunaster californicus	Asteroidea							Eukaryota		V3167-02
 	transect	Allocentrotus fragilis	312.09	3167	01:23:53:14	 	36.826256	-122.16922	2371968	1.07	56:38.0	Ventana	34.165	01:25:44:06	6.925	Echinoidea	Strongylocentrotidae	Allocentrotus			Animalia	Echinoida	Echinodermata	Allocentrotus fragilis	Euechinoidea			Echinacea				Eukaryota		V3167-02
 	transect	Allocentrotus fragilis	322.91	3167	00:57:25:03	http://search.mbari.org/ARCHIVE/frameGrabs/Ventana/images/3167/00_59_15_26.jpg	36.824158	-122.17044	2464172	1.14	30:08.0	Ventana	34.157	00:59:15:26	7.052	Echinoidea	Strongylocentrotidae	Allocentrotus			Animalia	Echinoida	Echinodermata	Allocentrotus fragilis	Euechinoidea			Echinacea				Eukaryota		V3167-02
 	transect	Rathbunaster californicus	313.04	3167	01:18:24:09	 	36.825886	-122.16851	2371121	1.1	51:08.0	Ventana	34.16	01:20:16:07	6.984		Labidiasteridae	Rathbunaster			Animalia	Forcipulatida	Echinodermata	Rathbunaster californicus	Asteroidea							Eukaryota		V3167-02
 	cruise	Parastichopus leukothele	295.88	3167	 	 	36.831993	-122.165375	2465552	1.13	31:28.0	Ventana	34.161	02:00:33:25	7.021	Holothuroidea	Stichopodidae	Parastichopus			Animalia	Aspidochirotida	Echinodermata	Parastichopus leukothele	Aspidochirotacea							Eukaryota		V3167-02
 	cruise	Stomphia	339.36	3167	00:05:05:09	 	36.820816	-122.17121	2462009	1.11	37:24.0	Ventana	34.16	00:07:01:10	6.939	Anthozoa	Actinostolidae	Stomphia			Animalia	Actiniaria	Cnidaria		Hexacorallia			Nyantheae				Eukaryota		V3167-01
 	transect	Allocentrotus fragilis	319.27	3167	00:26:36:14	 	36.824562	-122.16938	2462698	1.14	58:56.0	Ventana	34.158	00:28:32:29	7.04	Echinoidea	Strongylocentrotidae	Allocentrotus			Animalia	Echinoida	Echinodermata	Allocentrotus fragilis	Euechinoidea			Echinacea				Eukaryota		V3167-01
 	transect	Henricia aspera	319.09	3167	00:26:00:00	http://search.mbari.org/ARCHIVE/frameGrabs/Ventana/images/3167/00_27_55_16.jpg	36.824497	-122.16947	2462518	1.13	58:20.0	Ventana	34.159	00:27:55:16	7.019		Echinasteridae	Henricia			Animalia	Spinulosida	Echinodermata	Henricia aspera	Asteroidea			Leptognathina				Eukaryota		V3167-01
 	cruise	Sebastes	172.78	3167	02:37:28:17	 	36.83694	-122.15882	2467379	2.69	10:42.0	Ventana	33.934	02:39:10:16	9.36	Osteichthyes	Scorpaenidae	Sebastes	Neopterygii		Animalia	Scorpaeniformes	Chordata		Actinopterygii			Scorpaenoidei	Vertebrata	Gnathostomata		Eukaryota	Acanthopterygii	V3167-03
 	transect	Rathbunaster californicus	312.46	3167	01:16:59:27	 	36.8263	-122.16816	2370595	1.07	49:43.0	Ventana	34.166	01:18:51:10	6.915		Labidiasteridae	Rathbunaster			Animalia	Forcipulatida	Echinodermata	Rathbunaster californicus	Asteroidea							Eukaryota		V3167-02
 	transect	Rathbunaster californicus	312.57	3167	01:17:13:26	 	36.82623	-122.168175	2370768	1.07	49:58.0	Ventana	34.165	01:19:04:26	6.914		Labidiasteridae	Rathbunaster			Animalia	Forcipulatida	Echinodermata	Rathbunaster californicus	Asteroidea							Eukaryota		V3167-02
 	transect	Rathbunaster californicus	313.13	3167	01:17:47:25	 	36.82606	-122.1683	2370948	1.07	50:32.0	Ventana	34.166	01:19:39:25	6.913		Labidiasteridae	Rathbunaster			Animalia	Forcipulatida	Echinodermata	Rathbunaster californicus	Asteroidea							Eukaryota		V3167-02
 	transect	Rathbunaster californicus	321.53	3167	00:46:17:08	 	36.824883	-122.17065	2463224	1.13	18:38.0	Ventana	34.16	00:48:12:09	7.026		Labidiasteridae	Rathbunaster			Animalia	Forcipulatida	Echinodermata	Rathbunaster californicus	Asteroidea							Eukaryota		V3167-01
 	transect	Rathbunaster californicus	312.72	3167	01:23:45:14	 	36.82621	-122.16924	2371938	1.08	56:30.0	Ventana	34.165	01:25:36:03	6.929		Labidiasteridae	Rathbunaster			Animalia	Forcipulatida	Echinodermata	Rathbunaster californicus	Asteroidea							Eukaryota		V3167-02
 	cruise	Rathbunaster californicus	101.21	3167	04:09:09:19	 	36.850574	-122.12361	2471891	5.04	43:12.0	Ventana	33.48	04:10:44:13	11.287		Labidiasteridae	Rathbunaster			Animalia	Forcipulatida	Echinodermata	Rathbunaster californicus	Asteroidea							Eukaryota		V3167-05
 	transect	Allocentrotus fragilis	312.96	3167	01:17:55:25	 	36.826023	-122.168335	2370971	1.07	50:40.0	Ventana	34.165	01:19:46:09	6.914	Echinoidea	Strongylocentrotidae	Allocentrotus			Animalia	Echinoida	Echinodermata	Allocentrotus fragilis	Euechinoidea			Echinacea				Eukaryota		V3167-02
 	cruise	Pandalus platyceros	234.75	3167	02:12:20:03	 	36.83524	-122.161385	2467815	1.61	45:33.0	Ventana	34.111	02:14:03:15	7.9	Malacostraca	Pandalidae	Pandalus		Caridea	Animalia	Decapoda	Arthropoda	Pandalus platyceros	Eumalacostraca						Pandaloidea	Eukaryota	Eucarida	V3167-03
 	transect	Hydrolagus colliei	308.32	3167	01:33:13:26	 	36.827663	-122.167656	2389663	1.08	05:58.0	Ventana	34.166	01:35:05:19	6.926	Chondrichthyes	Chimaeridae	Hydrolagus			Animalia	Chimaeriformes	Chordata	Hydrolagus colliei	Holocephali			Chimaeroidei	Vertebrata			Eukaryota	Holocephalimorpha	V3167-02
 	cruise	Hydrolagus colliei	303.68	3167	01:29:02:20	http://search.mbari.org/ARCHIVE/frameGrabs/Ventana/images/3167/01_30_53_28.jpg	36.827766	-122.16836	2365666	1.09	01:47.0	Ventana	34.163	01:30:53:28	6.964	Chondrichthyes	Chimaeridae	Hydrolagus			Animalia	Chimaeriformes	Chordata	Hydrolagus colliei	Holocephali			Chimaeroidei	Vertebrata			Eukaryota	Holocephalimorpha	V3167-02
 	transect	Phyllospadix	167.36	3167	02:24:16:26	 	36.836933	-122.15837	2467139	2.47	57:30.0	Ventana	33.962	02:25:59:23	9.118		Zosteraceae	Phyllospadix			Plantae	Najadales										Eukaryota		V3167-03
 	transect	Rathbunaster californicus	309.05	3167	01:34:23:24	 	36.827244	-122.167755	2390039	1.08	07:09.0	Ventana	34.165	01:36:15:11	6.927		Labidiasteridae	Rathbunaster			Animalia	Forcipulatida	Echinodermata	Rathbunaster californicus	Asteroidea							Eukaryota		V3167-02
 	transect	Parastichopus leukothele	316.51	3167	01:22:03:02	 	36.82562	-122.169495	2371592	1.09	54:47.0	Ventana	34.164	01:23:54:08	6.958	Holothuroidea	Stichopodidae	Parastichopus			Animalia	Aspidochirotida	Echinodermata	Parastichopus leukothele	Aspidochirotacea							Eukaryota		V3167-02
 	transect	Rathbunaster californicus	310.7	3167	01:24:31:12	 	36.82647	-122.169106	2372674	1.08	57:16.0	Ventana	34.165	01:26:22:25	6.93		Labidiasteridae	Rathbunaster			Animalia	Forcipulatida	Echinodermata	Rathbunaster californicus	Asteroidea							Eukaryota		V3167-02
 	transect	Parastichopus leukothele	308.62	3167	01:34:11:25	 	36.82732	-122.167725	2389986	1.08	06:57.0	Ventana	34.165	01:36:02:14	6.933	Holothuroidea	Stichopodidae	Parastichopus			Animalia	Aspidochirotida	Echinodermata	Parastichopus leukothele	Aspidochirotacea							Eukaryota		V3167-02
 	cruise	Microstomus pacificus	327.58	3167	00:12:08:26	 	36.82299	-122.17055	2462172	1.11	44:28.0	Ventana	34.163	00:14:04:15	6.981	Osteichthyes	Pleuronectidae	Microstomus	Neopterygii		Animalia	Pleuronectiformes	Chordata	Microstomus pacificus	Actinopterygii				Vertebrata	Gnathostomata		Eukaryota	Acanthopterygii	V3167-01
 	cruise	trench	103.13	3167	04:01:30:04	http://search.mbari.org/ARCHIVE/frameGrabs/Ventana/images/3167/04_03_05_14.jpg	36.84907	-122.12719	20024093	5.06	35:32.0	Ventana	33.477	04:03:05:14	11.294																			V3167-05
 	transect	Rathbunaster californicus	309.18	3167	01:34:32:09	 	36.827194	-122.16777	2390069	1.08	07:17.0	Ventana	34.165	01:36:23:28	6.927		Labidiasteridae	Rathbunaster			Animalia	Forcipulatida	Echinodermata	Rathbunaster californicus	Asteroidea							Eukaryota		V3167-02
 	cruise	Stylasterias forreri	192.93	3167	02:18:09:08	 	36.83635	-122.15973	2467875	2.12	51:22.0	Ventana	34.026	02:19:52:12	8.656		Asteriidae	Stylasterias			Animalia	Forcipulatida	Echinodermata	Stylasterias forreri	Asteroidea							Eukaryota		V3167-03
 	cruise	Sebastolobus	294.71	3167	01:59:10:28	 	36.832157	-122.16523	2466401	1.13	32:23.0	Ventana	34.16	02:00:53:25	7.025	Osteichthyes	Scorpaenidae	Sebastolobus	Neopterygii		Animalia	Scorpaeniformes	Chordata		Actinopterygii			Scorpaenoidei	Vertebrata	Gnathostomata		Eukaryota	Acanthopterygii	V3167-03
 	transect	Mediaster aequalis	309.18	3167	01:25:27:26	 	36.826767	-122.16893	2372773	1.11	58:12.0	Ventana	34.161	01:27:19:22	6.98		Goniasteridae	Mediaster			Animalia	Valvatida	Echinodermata	Mediaster aequalis	Asteroidea			Granulosina				Eukaryota		V3167-02
 	transect	Allocentrotus fragilis	312.35	3167	01:16:55:27	 	36.826324	-122.16816	2370558	1.07	49:39.0	Ventana	34.166	01:18:46:25	6.915	Echinoidea	Strongylocentrotidae	Allocentrotus			Animalia	Echinoida	Echinodermata	Allocentrotus fragilis	Euechinoidea			Echinacea				Eukaryota		V3167-02
 	cruise	Parastichopus leukothele	330.29	3167	00:10:42:13	 	36.822525	-122.17066	2462152	1.09	43:01.0	Ventana	34.164	00:12:38:07	6.913	Holothuroidea	Stichopodidae	Parastichopus			Animalia	Aspidochirotida	Echinodermata	Parastichopus leukothele	Aspidochirotacea							Eukaryota		V3167-01
 	cruise	Parastichopus leukothele	119.64	3167	03:02:40:14	 	36.840466	-122.14891	2468128	3.45	36:18.0	Ventana	33.739	03:04:20:27	10.348	Holothuroidea	Stichopodidae	Parastichopus			Animalia	Aspidochirotida	Echinodermata	Parastichopus leukothele	Aspidochirotacea							Eukaryota		V3167-04
 	transect	Parastichopus leukothele	315.98	3167	01:22:29:01	 	36.825756	-122.16944	2371675	1.08	55:13.0	Ventana	34.164	01:24:19:29	6.938	Holothuroidea	Stichopodidae	Parastichopus			Animalia	Aspidochirotida	Echinodermata	Parastichopus leukothele	Aspidochirotacea							Eukaryota		V3167-02
 	transect	Sebastes	308.9	3167	01:34:07:25	 	36.827343	-122.16771	2389956	1.08	06:53.0	Ventana	34.165	01:35:58:22	6.933	Osteichthyes	Scorpaenidae	Sebastes	Neopterygii		Animalia	Scorpaeniformes	Chordata		Actinopterygii			Scorpaenoidei	Vertebrata	Gnathostomata		Eukaryota	Acanthopterygii	V3167-02
 	transect	Rathbunaster californicus	311.62	3167	01:16:39:12	 	36.8264	-122.168175	2370528	1.07	49:23.0	Ventana	34.165	01:18:31:12	6.917		Labidiasteridae	Rathbunaster			Animalia	Forcipulatida	Echinodermata	Rathbunaster californicus	Asteroidea							Eukaryota		V3167-02
 	cruise	Parastichopus leukothele	303.38	3167	01:46:27:03	 	36.82865	-122.16787	2390897	1.09	19:13.0	Ventana	34.163	01:48:17:12	6.966	Holothuroidea	Stichopodidae	Parastichopus			Animalia	Aspidochirotida	Echinodermata	Parastichopus leukothele	Aspidochirotacea							Eukaryota		V3167-02
 	transect	Stylasterias forreri	314.43	3167	01:23:25:15	 	36.826084	-122.1693	2371878	1.07	56:09.0	Ventana	34.166	01:25:16:08	6.924		Asteriidae	Stylasterias			Animalia	Forcipulatida	Echinodermata	Stylasterias forreri	Asteroidea							Eukaryota		V3167-02
 	transect	Allocentrotus fragilis	308.78	3167	01:32:51:12	 	36.827736	-122.16764	2389596	1.08	05:36.0	Ventana	34.165	01:34:43:21	6.93	Echinoidea	Strongylocentrotidae	Allocentrotus			Animalia	Echinoida	Echinodermata	Allocentrotus fragilis	Euechinoidea			Echinacea				Eukaryota		V3167-02
 	transect	Rathbunaster californicus	309.01	3167	01:34:50:09	 	36.827076	-122.16782	2390129	1.08	07:35.0	Ventana	34.165	01:36:41:21	6.933		Labidiasteridae	Rathbunaster			Animalia	Forcipulatida	Echinodermata	Rathbunaster californicus	Asteroidea							Eukaryota		V3167-02
 	transect	Allocentrotus fragilis	309.65	3167	01:35:26:08	 	36.82688	-122.16798	2390272	1.09	08:11.0	Ventana	34.164	01:37:16:17	6.953	Echinoidea	Strongylocentrotidae	Allocentrotus			Animalia	Echinoida	Echinodermata	Allocentrotus fragilis	Euechinoidea			Echinacea				Eukaryota		V3167-02
 	transect	Ceriantharia sp. 3	308.83	3167	01:33:27:26	 	36.82759	-122.16766	2389723	1.08	06:13.0	Ventana	34.166	01:35:18:22	6.925	Anthozoa					Animalia	Ceriantharia	Cnidaria		Ceriantipatharia							Eukaryota		V3167-02
 	cruise	Parastichopus leukothele	332.77	3167	00:09:08:01	 	36.82214	-122.170815	2462122	1.11	41:27.0	Ventana	34.161	00:11:03:13	6.966	Holothuroidea	Stichopodidae	Parastichopus			Animalia	Aspidochirotida	Echinodermata	Parastichopus leukothele	Aspidochirotacea							Eukaryota		V3167-01
 	transect	Allocentrotus fragilis	305.95	3167	01:27:00:08	 	36.827194	-122.168686	2388343	1.1	59:45.0	Ventana	34.164	01:28:51:24	6.964	Echinoidea	Strongylocentrotidae	Allocentrotus			Animalia	Echinoida	Echinodermata	Allocentrotus fragilis	Euechinoidea			Echinacea				Eukaryota		V3167-02
 	transect	Rathbunaster californicus	315.51	3167	01:22:41:01	 	36.825825	-122.16941	2371705	1.08	55:25.0	Ventana	34.166	01:24:31:25	6.927		Labidiasteridae	Rathbunaster			Animalia	Forcipulatida	Echinodermata	Rathbunaster californicus	Asteroidea							Eukaryota		V3167-02
 	cruise	Ceriantharia sp. 3	311.72	3167	01:11:00:08	 	36.826313	-122.16926	2464615	1.1	43:44.0	Ventana	34.163	01:12:52:11	6.969	Anthozoa					Animalia	Ceriantharia	Cnidaria		Ceriantipatharia							Eukaryota		V3167-02
 	transect	Hippasteria	313.56	3167	01:23:33:14	 	36.826138	-122.16927	2371908	1.07	56:18.0	Ventana	34.166	01:25:24:26	6.924		Goniasteridae	Hippasteria			Animalia	Valvatida	Echinodermata		Asteroidea			Granulosina				Eukaryota		V3167-02
 	transect	Allocentrotus fragilis	308.74	3167	01:34:01:25	 	36.82738	-122.1677	2389926	1.08	06:47.0	Ventana	34.165	01:35:52:07	6.927	Echinoidea	Strongylocentrotidae	Allocentrotus			Animalia	Echinoida	Echinodermata	Allocentrotus fragilis	Euechinoidea			Echinacea				Eukaryota		V3167-02
 	transect	Rathbunaster californicus	311.4	3167	01:24:11:13	 	36.82636	-122.16917	2372065	1.08	56:56.0	Ventana	34.164	01:26:03:00	6.927		Labidiasteridae	Rathbunaster			Animalia	Forcipulatida	Echinodermata	Rathbunaster californicus	Asteroidea							Eukaryota		V3167-02
 	transect	Rathbunaster californicus	314.63	3167	01:19:06:08	 	36.82566	-122.16873	2371234	1.1	51:50.0	Ventana	34.163	01:20:56:17	6.956		Labidiasteridae	Rathbunaster			Animalia	Forcipulatida	Echinodermata	Rathbunaster californicus	Asteroidea							Eukaryota		V3167-02
 	transect	Sebastes	305.09	3167	01:27:32:07	 	36.827362	-122.168594	2388546	1.11	00:17.0	Ventana	34.162	01:29:22:20	6.992	Osteichthyes	Scorpaenidae	Sebastes	Neopterygii		Animalia	Scorpaeniformes	Chordata		Actinopterygii			Scorpaenoidei	Vertebrata	Gnathostomata		Eukaryota	Acanthopterygii	V3167-02
 	transect	Allocentrotus fragilis	322.52	3167	00:58:47:16	 	36.823967	-122.170265	2464255	1.15	31:30.0	Ventana	34.157	01:00:38:29	7.062	Echinoidea	Strongylocentrotidae	Allocentrotus			Animalia	Echinoida	Echinodermata	Allocentrotus fragilis	Euechinoidea			Echinacea				Eukaryota		V3167-02
 	transect	Phyllospadix	320.84	3167	00:17:50:01	 	36.824326	-122.17002	2462232	1.12	50:09.0	Ventana	34.161	00:19:46:22	6.981		Zosteraceae	Phyllospadix			Plantae	Najadales										Eukaryota		V3167-01
 	transect	Rathbunaster californicus	308.83	3167	01:33:57:25	 	36.827408	-122.167694	2389889	1.08	06:43.0	Ventana	34.165	01:35:49:16	6.927		Labidiasteridae	Rathbunaster			Animalia	Forcipulatida	Echinodermata	Rathbunaster californicus	Asteroidea							Eukaryota		V3167-02
 	transect	Rathbunaster californicus	309.63	3167	01:35:14:08	 	36.826935	-122.16792	2390242	1.08	07:59.0	Ventana	34.163	01:37:06:09	6.95		Labidiasteridae	Rathbunaster			Animalia	Forcipulatida	Echinodermata	Rathbunaster californicus	Asteroidea							Eukaryota		V3167-02
 	transect	Rathbunaster californicus	320.39	3167	00:18:12:15	 	36.82432	-122.16995	2462292	1.11	50:32.0	Ventana	34.161	00:20:07:22	6.984		Labidiasteridae	Rathbunaster			Animalia	Forcipulatida	Echinodermata	Rathbunaster californicus	Asteroidea							Eukaryota		V3167-01
 	transect	Rathbunaster californicus	313.26	3167	01:18:44:08	 	36.825783	-122.168625	2371174	1.11	51:28.0	Ventana	34.161	01:20:35:01	6.99		Labidiasteridae	Rathbunaster			Animalia	Forcipulatida	Echinodermata	Rathbunaster californicus	Asteroidea							Eukaryota		V3167-02
 	transect	Rathbunaster californicus	310.92	3167	01:24:23:13	 	36.826427	-122.169136	2372111	1.08	57:08.0	Ventana	34.165	01:26:16:02	6.93		Labidiasteridae	Rathbunaster			Animalia	Forcipulatida	Echinodermata	Rathbunaster californicus	Asteroidea							Eukaryota		V3167-02
 	transect	Rathbunaster californicus	320.23	3167	00:38:23:08	 	36.82492	-122.17021	2463044	1.14	10:44.0	Ventana	34.16	00:40:19:25	7.03		Labidiasteridae	Rathbunaster			Animalia	Forcipulatida	Echinodermata	Rathbunaster californicus	Asteroidea							Eukaryota		V3167-01
 	cruise	Rathbunaster californicus	108.62	3167	03:41:16:03	 	36.844986	-122.136086	2471012	4.71	14:56.0	Ventana	33.531	03:42:56:24	11.157		Labidiasteridae	Rathbunaster			Animalia	Forcipulatida	Echinodermata	Rathbunaster californicus	Asteroidea							Eukaryota		V3167-04
 	transect	Rathbunaster californicus	315.51	3167	01:22:41:01	 	36.825825	-122.16941	2371712	1.08	55:25.0	Ventana	34.166	01:24:33:21	6.927		Labidiasteridae	Rathbunaster			Animalia	Forcipulatida	Echinodermata	Rathbunaster californicus	Asteroidea							Eukaryota		V3167-02
 	cruise	Ptilosarcus gurneyi	114.07	3167	03:12:54:25	 	36.84188	-122.14321	2468541	4.47	46:33.0	Ventana	33.579	03:14:36:07	11.02	Anthozoa	Pennatulidae	Ptilosarcus			Animalia	Pennatulacea	Cnidaria	Ptilosarcus gurneyi	Octocorallia			Subselliflorae				Eukaryota		V3167-04
 	transect	Allocentrotus fragilis	305.15	3167	01:27:36:07	 	36.82738	-122.16859	2388569	1.11	00:21.0	Ventana	34.162	01:29:27:26	6.992	Echinoidea	Strongylocentrotidae	Allocentrotus			Animalia	Echinoida	Echinodermata	Allocentrotus fragilis	Euechinoidea			Echinacea				Eukaryota		V3167-02
 	cruise	cable	223.84	3167	02:13:50:16	http://search.mbari.org/ARCHIVE/frameGrabs/Ventana/images/3167/02_15_32_19.jpg	36.835506	-122.16097	20024033	1.64	47:03.0	Ventana	34.109	02:15:32:19	7.936																			V3167-03
 	transect	Allocentrotus fragilis	305.1	3167	01:27:48:21	 	36.827442	-122.16855	2388599	1.12	00:33.0	Ventana	34.159	01:29:40:03	7.026	Echinoidea	Strongylocentrotidae	Allocentrotus			Animalia	Echinoida	Echinodermata	Allocentrotus fragilis	Euechinoidea			Echinacea				Eukaryota		V3167-02
 	transect	Sebastes diploproa	309.47	3167	01:25:15:26	 	36.82671	-122.16896	2372757	1.11	58:00.0	Ventana	34.161	01:27:07:03	7.022	Osteichthyes	Scorpaenidae	Sebastes	Neopterygii		Animalia	Scorpaeniformes	Chordata	Sebastes diploproa	Actinopterygii			Scorpaenoidei	Vertebrata	Gnathostomata		Eukaryota	Acanthopterygii	V3167-02
 	transect	Allocentrotus fragilis	305.16	3167	01:27:24:07	 	36.82732	-122.16862	2388509	1.11	00:09.0	Ventana	34.162	01:29:16:10	6.992	Echinoidea	Strongylocentrotidae	Allocentrotus			Animalia	Echinoida	Echinodermata	Allocentrotus fragilis	Euechinoidea			Echinacea				Eukaryota		V3167-02
 	transect	Hippasteria	322.87	3167	00:53:46:24	 	36.824333	-122.17058	2463367	1.17	26:08.0	Ventana	34.155	00:55:43:23	7.097		Goniasteridae	Hippasteria			Animalia	Valvatida	Echinodermata		Asteroidea			Granulosina				Eukaryota		V3167-01
 	transect	Rathbunaster californicus	314.98	3167	01:22:49:01	 	36.82587	-122.16939	2371742	1.08	55:33.0	Ventana	34.166	01:24:41:01	6.927		Labidiasteridae	Rathbunaster			Animalia	Forcipulatida	Echinodermata	Rathbunaster californicus	Asteroidea							Eukaryota		V3167-02
 	transect	Rathbunaster californicus	316.8	3167	01:19:54:06	 	36.825428	-122.16899	2371389	1.07	52:38.0	Ventana	34.166	01:21:45:19	6.913		Labidiasteridae	Rathbunaster			Animalia	Forcipulatida	Echinodermata	Rathbunaster californicus	Asteroidea							Eukaryota		V3167-02
 	transect	Allocentrotus fragilis	319.24	3167	00:37:53:08	 	36.82491	-122.170105	2463014	1.16	10:13.0	Ventana	34.156	00:39:48:09	7.069	Echinoidea	Strongylocentrotidae	Allocentrotus			Animalia	Echinoida	Echinodermata	Allocentrotus fragilis	Euechinoidea			Echinacea				Eukaryota		V3167-01
 	transect	Ceriantharia	165.93	3167	02:32:32:26	 	36.83736	-122.158745	2467342	2.71	05:47.0	Ventana	33.934	02:34:14:29	9.379	Anthozoa					Animalia	Ceriantharia	Cnidaria		Ceriantipatharia							Eukaryota		V3167-03
 	transect	Raja rhina	305.04	3167	01:28:08:21	 	36.827553	-122.16849	2388659	1.13	00:53.0	Ventana	34.162	01:29:59:06	7	Chondrichthyes	Rajidae	Raja			Animalia	Rajiformes	Chordata	Raja rhina	Elasmobranchii				Vertebrata			Eukaryota	Batoidea	V3167-02
 	transect	Rathbunaster californicus	316.07	3167	01:22:23:02	 	36.82572	-122.16946	2371652	1.09	55:07.0	Ventana	34.163	01:24:13:19	6.958		Labidiasteridae	Rathbunaster			Animalia	Forcipulatida	Echinodermata	Rathbunaster californicus	Asteroidea							Eukaryota		V3167-02
 	cruise	Glyptocephalus zachirus	285.04	3167	02:02:19:22	 	36.832966	-122.16444	2467725	1.14	35:31.0	Ventana	34.159	02:04:02:18	7.045	Osteichthyes	Pleuronectidae	Glyptocephalus	Neopterygii		Animalia	Pleuronectiformes	Chordata		Actinopterygii				Vertebrata	Gnathostomata		Eukaryota	Acanthopterygii	V3167-03
 	transect	Rathbunaster californicus	308.88	3167	01:32:59:27	 	36.827705	-122.16764	2389626	1.08	05:44.0	Ventana	34.165	01:34:51:16	6.927		Labidiasteridae	Rathbunaster			Animalia	Forcipulatida	Echinodermata	Rathbunaster californicus	Asteroidea							Eukaryota		V3167-02
 	transect	Rathbunaster californicus	314.8	3167	01:23:05:15	 	36.825962	-122.16935	2371802	1.07	55:49.0	Ventana	34.165	01:24:56:17	6.926		Labidiasteridae	Rathbunaster			Animalia	Forcipulatida	Echinodermata	Rathbunaster californicus	Asteroidea							Eukaryota		V3167-02
 	transect	Stomphia	311.85	3167	01:23:59:14	 	36.82629	-122.169205	2372005	1.07	56:44.0	Ventana	34.165	01:25:49:23	6.925	Anthozoa	Actinostolidae	Stomphia			Animalia	Actiniaria	Cnidaria		Hexacorallia			Nyantheae				Eukaryota		V3167-02
 	transect	Sebastes	305.19	3167	01:27:22:08	 	36.82731	-122.168625	2388479	1.1	00:07.0	Ventana	34.163	01:29:12:16	6.962	Osteichthyes	Scorpaenidae	Sebastes	Neopterygii		Animalia	Scorpaeniformes	Chordata		Actinopterygii			Scorpaenoidei	Vertebrata	Gnathostomata		Eukaryota	Acanthopterygii	V3167-02
 	transect	Allocentrotus fragilis	307.03	3167	01:26:22:09	 	36.827003	-122.168785	2372923	1.22	59:06.0	Ventana	34.147	01:28:14:14	7.163	Echinoidea	Strongylocentrotidae	Allocentrotus			Animalia	Echinoida	Echinodermata	Allocentrotus fragilis	Euechinoidea			Echinacea				Eukaryota		V3167-02
 	transect	Rathbunaster californicus	308.92	3167	01:33:45:26	 	36.827484	-122.16767	2389829	1.07	06:31.0	Ventana	34.166	01:35:38:01	6.926		Labidiasteridae	Rathbunaster			Animalia	Forcipulatida	Echinodermata	Rathbunaster californicus	Asteroidea							Eukaryota		V3167-02
 	transect	Rathbunaster californicus	319.31	3167	00:26:56:14	 	36.824593	-122.16933	2462705	1.14	59:16.0	Ventana	34.158	00:28:51:26	7.033		Labidiasteridae	Rathbunaster			Animalia	Forcipulatida	Echinodermata	Rathbunaster californicus	Asteroidea							Eukaryota		V3167-01
 	cruise	Stylasterias forreri	271.58	3167	02:06:10:15	 	36.83383	-122.163315	2467755	1.19	39:23.0	Ventana	34.153	02:07:54:10	7.15		Asteriidae	Stylasterias			Animalia	Forcipulatida	Echinodermata	Stylasterias forreri	Asteroidea							Eukaryota		V3167-03
 	transect	Rathbunaster californicus	309.57	3167	01:35:04:08	 	36.826992	-122.16788	2390182	1.08	07:49.0	Ventana	34.164	01:36:54:18	6.94		Labidiasteridae	Rathbunaster			Animalia	Forcipulatida	Echinodermata	Rathbunaster californicus	Asteroidea							Eukaryota		V3167-02
 	transect	Allocentrotus fragilis	306.4	3167	01:26:48:09	 	36.827133	-122.16872	2388306	1.12	59:32.0	Ventana	34.164	01:28:40:14	6.991	Echinoidea	Strongylocentrotidae	Allocentrotus			Animalia	Echinoida	Echinodermata	Allocentrotus fragilis	Euechinoidea			Echinacea				Eukaryota		V3167-02
 	transect	Phyllospadix	163.91	3167	02:25:37:09	 	36.836994	-122.15814	2467206	2.65	58:51.0	Ventana	33.943	02:27:20:01	9.291		Zosteraceae	Phyllospadix			Plantae	Najadales										Eukaryota		V3167-03
 	cruise	Stylasterias forreri	249.54	3167	02:10:07:22	 	36.834747	-122.16208	2466853	1.54	43:20.0	Ventana	34.117	02:11:50:28	7.766		Asteriidae	Stylasterias			Animalia	Forcipulatida	Echinodermata	Stylasterias forreri	Asteroidea							Eukaryota		V3167-03
 	cruise	Ceriantharia sp. 3	335.91	3167	00:06:55:21	 	36.821415	-122.17108	2462032	1.11	39:14.0	Ventana	34.16	00:08:50:28	6.95	Anthozoa					Animalia	Ceriantharia	Cnidaria		Ceriantipatharia							Eukaryota		V3167-01
 	transect	Rathbunaster californicus	310.49	3167	01:24:41:27	 	36.826527	-122.169075	2372697	1.08	57:26.0	Ventana	34.165	01:26:33:24	6.934		Labidiasteridae	Rathbunaster			Animalia	Forcipulatida	Echinodermata	Rathbunaster californicus	Asteroidea							Eukaryota		V3167-02
 	transect	Rathbunaster californicus	308.62	3167	01:34:13:25	http://search.mbari.org/ARCHIVE/frameGrabs/Ventana/images/3167/01_36_06_06.jpg	36.827305	-122.167725	2390009	1.08	06:59.0	Ventana	34.165	01:36:06:06	6.933		Labidiasteridae	Rathbunaster			Animalia	Forcipulatida	Echinodermata	Rathbunaster californicus	Asteroidea							Eukaryota		V3167-02
 	transect	Allocentrotus fragilis	312.46	3167	01:16:59:27	 	36.8263	-122.16816	2370588	1.07	49:43.0	Ventana	34.166	01:18:51:10	6.915	Echinoidea	Strongylocentrotidae	Allocentrotus			Animalia	Echinoida	Echinodermata	Allocentrotus fragilis	Euechinoidea			Echinacea				Eukaryota		V3167-02
 	transect	Rathbunaster californicus	308.41	3167	01:33:09:27	 	36.827675	-122.16765	2389656	1.08	05:54.0	Ventana	34.166	01:35:00:05	6.926		Labidiasteridae	Rathbunaster			Animalia	Forcipulatida	Echinodermata	Rathbunaster californicus	Asteroidea							Eukaryota		V3167-02
 	transect	Rathbunaster californicus	323.04	3167	00:48:53:18	 	36.824627	-122.170815	2463247	1.18	21:15.0	Ventana	34.153	00:50:49:27	7.112		Labidiasteridae	Rathbunaster			Animalia	Forcipulatida	Echinodermata	Rathbunaster californicus	Asteroidea							Eukaryota		V3167-01
 	transect	Rathbunaster californicus	316.38	3167	01:22:11:02	 	36.82566	-122.16948	2371622	1.09	54:55.0	Ventana	34.163	01:24:01:15	6.958		Labidiasteridae	Rathbunaster			Animalia	Forcipulatida	Echinodermata	Rathbunaster californicus	Asteroidea							Eukaryota		V3167-02
 	cruise	mud	316.95	3167	01:20:36:20	 	36.82539	-122.16924	2371419	1.07	53:21.0	Ventana	34.166	01:22:28:10	6.924																			V3167-02
 	cruise	Rathbunaster californicus	102.3	3167	04:05:18:27	 	36.849834	-122.12541	2471794	5.02	39:21.0	Ventana	33.48	04:06:53:24	11.285		Labidiasteridae	Rathbunaster			Animalia	Forcipulatida	Echinodermata	Rathbunaster californicus	Asteroidea							Eukaryota		V3167-05
 	transect	Stomphia	305.06	3167	01:27:58:21	 	36.827496	-122.168526	2388629	1.16	00:43.0	Ventana	34.154	01:29:49:26	7.099	Anthozoa	Actinostolidae	Stomphia			Animalia	Actiniaria	Cnidaria		Hexacorallia			Nyantheae				Eukaryota		V3167-02
 	transect	Rathbunaster californicus	308.91	3167	01:33:51:26	 	36.827446	-122.16769	2389859	1.07	06:37.0	Ventana	34.166	01:35:43:19	6.926		Labidiasteridae	Rathbunaster			Animalia	Forcipulatida	Echinodermata	Rathbunaster californicus	Asteroidea							Eukaryota		V3167-02
 	transect	Rathbunaster californicus	312.94	3167	01:18:34:09	 	36.825832	-122.168564	2371144	1.1	51:18.0	Ventana	34.16	01:20:25:12	6.984		Labidiasteridae	Rathbunaster			Animalia	Forcipulatida	Echinodermata	Rathbunaster californicus	Asteroidea							Eukaryota		V3167-02
 	transect	Rathbunaster californicus	309.53	3167	01:35:10:08	 	36.826958	-122.16791	2390212	1.08	07:55.0	Ventana	34.163	01:37:01:07	6.95		Labidiasteridae	Rathbunaster			Animalia	Forcipulatida	Echinodermata	Rathbunaster californicus	Asteroidea							Eukaryota		V3167-02
 	transect	Rathbunaster californicus	313	3167	01:17:19:26	 	36.8262	-122.16818	2370791	1.07	50:04.0	Ventana	34.165	01:19:11:07	6.914		Labidiasteridae	Rathbunaster			Animalia	Forcipulatida	Echinodermata	Rathbunaster californicus	Asteroidea							Eukaryota		V3167-02
 	cruise	Parastichopus leukothele	307.48	3167	01:36:38:20	 	36.82677	-122.16845	2390761	1.08	09:24.0	Ventana	34.165	01:38:30:16	6.935	Holothuroidea	Stichopodidae	Parastichopus			Animalia	Aspidochirotida	Echinodermata	Parastichopus leukothele	Aspidochirotacea							Eukaryota		V3167-02
 	transect	Allocentrotus fragilis	303.17	3167	01:29:18:19	 	36.82783	-122.16832	2388964	1.12	02:03.0	Ventana	34.159	01:31:10:23	7.03	Echinoidea	Strongylocentrotidae	Allocentrotus			Animalia	Echinoida	Echinodermata	Allocentrotus fragilis	Euechinoidea			Echinacea				Eukaryota		V3167-02
 	transect	Rathbunaster californicus	309.18	3167	01:34:32:09	 	36.827194	-122.16777	2390062	1.08	07:17.0	Ventana	34.165	01:36:23:28	6.927		Labidiasteridae	Rathbunaster			Animalia	Forcipulatida	Echinodermata	Rathbunaster californicus	Asteroidea							Eukaryota		V3167-02
 	transect	Sebastes rubrivinctus	304.7	3167	01:28:30:20	http://search.mbari.org/ARCHIVE/frameGrabs/Ventana/images/3167/01_30_21_19.jpg	36.827644	-122.168434	2388772	1.1	01:15.0	Ventana	34.162	01:30:21:19	6.963	Osteichthyes	Scorpaenidae	Sebastes	Neopterygii		Animalia	Scorpaeniformes	Chordata	Sebastes rubrivinctus	Actinopterygii			Scorpaenoidei	Vertebrata	Gnathostomata		Eukaryota	Acanthopterygii	V3167-02
 	transect	Allocentrotus fragilis	308.76	3167	01:33:23:27	 	36.82762	-122.167656	2389716	1.08	06:08.0	Ventana	34.166	01:35:15:24	6.925	Echinoidea	Strongylocentrotidae	Allocentrotus			Animalia	Echinoida	Echinodermata	Allocentrotus fragilis	Euechinoidea			Echinacea				Eukaryota		V3167-02
 	transect	Rathbunaster californicus	309.27	3167	01:34:38:09	 	36.82714	-122.16779	2390092	1.08	07:23.0	Ventana	34.165	01:36:29:19	6.933		Labidiasteridae	Rathbunaster			Animalia	Forcipulatida	Echinodermata	Rathbunaster californicus	Asteroidea							Eukaryota		V3167-02
 	transect	Sebastolobus	308.32	3167	01:33:13:26	 	36.827663	-122.167656	2389686	1.08	05:58.0	Ventana	34.166	01:35:05:19	6.926	Osteichthyes	Scorpaenidae	Sebastolobus	Neopterygii		Animalia	Scorpaeniformes	Chordata		Actinopterygii			Scorpaenoidei	Vertebrata	Gnathostomata		Eukaryota	Acanthopterygii	V3167-02
 	cruise	Allocentrotus fragilis	207.31	3167	02:15:54:26	 	36.83588	-122.16037	2467868	1.85	49:08.0	Ventana	34.08	02:17:38:09	8.26	Echinoidea	Strongylocentrotidae	Allocentrotus			Animalia	Echinoida	Echinodermata	Allocentrotus fragilis	Euechinoidea			Echinacea				Eukaryota		V3167-03
 	transect	Sebastes	305.49	3167	01:27:16:08	 	36.82728	-122.16864	2388426	1.1	00:01.0	Ventana	34.163	01:29:07:00	6.962	Osteichthyes	Scorpaenidae	Sebastes	Neopterygii		Animalia	Scorpaeniformes	Chordata		Actinopterygii			Scorpaenoidei	Vertebrata	Gnathostomata		Eukaryota	Acanthopterygii	V3167-02
 	cruise	Rathbunaster californicus	99.91	3167	04:13:54:26	 	36.85165	-122.121315	2471944	5	47:58.0	Ventana	33.486	04:15:30:12	11.275		Labidiasteridae	Rathbunaster			Animalia	Forcipulatida	Echinodermata	Rathbunaster californicus	Asteroidea							Eukaryota		V3167-05
 	transect	Allocentrotus fragilis	305.95	3167	01:27:00:08	 	36.827194	-122.168686	2388336	1.1	59:45.0	Ventana	34.164	01:28:51:24	6.964	Echinoidea	Strongylocentrotidae	Allocentrotus			Animalia	Echinoida	Echinodermata	Allocentrotus fragilis	Euechinoidea			Echinacea				Eukaryota		V3167-02
 	transect	Rathbunaster californicus	323.05	3167	00:50:02:01	 	36.824436	-122.170685	2463277	1.17	22:23.0	Ventana	34.155	00:51:57:14	7.103		Labidiasteridae	Rathbunaster			Animalia	Forcipulatida	Echinodermata	Rathbunaster californicus	Asteroidea							Eukaryota		V3167-01
 	transect	Rathbunaster californicus	315.37	3167	01:19:24:07	 	36.82556	-122.16882	2371287	1.09	52:08.0	Ventana	34.163	01:21:15:14	6.954		Labidiasteridae	Rathbunaster			Animalia	Forcipulatida	Echinodermata	Rathbunaster californicus	Asteroidea							Eukaryota		V3167-02
 	transect	Sebastes	308.62	3167	01:34:11:25	 	36.82732	-122.167725	2389979	1.08	06:57.0	Ventana	34.165	01:36:02:14	6.933	Osteichthyes	Scorpaenidae	Sebastes	Neopterygii		Animalia	Scorpaeniformes	Chordata		Actinopterygii			Scorpaenoidei	Vertebrata	Gnathostomata		Eukaryota	Acanthopterygii	V3167-02
 	cruise	Stylasterias forreri	327.52	3167	00:12:50:24	 	36.82321	-122.17051	2462179	1.13	45:10.0	Ventana	34.159	00:14:47:00	6.999		Asteriidae	Stylasterias			Animalia	Forcipulatida	Echinodermata	Stylasterias forreri	Asteroidea							Eukaryota		V3167-01
 	cruise	Parastichopus leukothele	123.54	3167	02:58:31:22	 	36.83963	-122.150925	2468075	3.38	32:09.0	Ventana	33.743	03:00:11:04	10.324	Holothuroidea	Stichopodidae	Parastichopus			Animalia	Aspidochirotida	Echinodermata	Parastichopus leukothele	Aspidochirotacea							Eukaryota		V3167-04
 	transect	Phyllospadix	167.14	3167	02:24:22:26	 	36.836937	-122.158356	2467146	2.47	57:36.0	Ventana	33.962	02:26:06:25	9.118		Zosteraceae	Phyllospadix			Plantae	Najadales										Eukaryota		V3167-03
 	transect	Rathbunaster californicus	309.01	3167	01:34:56:08	 	36.827038	-122.16785	2390152	1.08	07:41.0	Ventana	34.164	01:36:48:12	6.94		Labidiasteridae	Rathbunaster			Animalia	Forcipulatida	Echinodermata	Rathbunaster californicus	Asteroidea							Eukaryota		V3167-02
 	cruise	Pleurobranchaea californica	110.48	3167	03:30:47:22	 	36.84324	-122.13845	2470880	4.59	04:27.0	Ventana	33.549	03:32:28:03	11.091	Gastropoda	Pleurobranchidae	Pleurobranchaea			Animalia	Notaspidea	Mollusca	Pleurobranchaea californica	Opisthobranchia						Pleurobranchiacea	Eukaryota		V3167-04
 	transect	Rathbunaster californicus	308.79	3167	01:32:55:12	 	36.827724	-122.16764	2389603	1.08	05:40.0	Ventana	34.165	01:34:48:01	6.927		Labidiasteridae	Rathbunaster			Animalia	Forcipulatida	Echinodermata	Rathbunaster californicus	Asteroidea							Eukaryota		V3167-02
 	transect	Allocentrotus fragilis	308.83	3167	01:33:37:26	 	36.827534	-122.16766	2389776	1.07	06:23.0	Ventana	34.166	01:35:28:26	6.926	Echinoidea	Strongylocentrotidae	Allocentrotus			Animalia	Echinoida	Echinodermata	Allocentrotus fragilis	Euechinoidea			Echinacea				Eukaryota		V3167-02
 	transect	Rathbunaster californicus	322.62	3167	00:58:13:01	 	36.824043	-122.17035	2464232	1.15	30:56.0	Ventana	34.158	01:00:04:18	7.048		Labidiasteridae	Rathbunaster			Animalia	Forcipulatida	Echinodermata	Rathbunaster californicus	Asteroidea							Eukaryota		V3167-02
 	transect	Rathbunaster californicus	312.08	3167	01:16:47:27	 	36.826363	-122.16817	2370535	1.07	49:31.0	Ventana	34.165	01:18:38:21	6.917		Labidiasteridae	Rathbunaster			Animalia	Forcipulatida	Echinodermata	Rathbunaster californicus	Asteroidea							Eukaryota		V3167-02
 	transect	Allocentrotus fragilis	302.91	3167	01:29:45:03	 	36.827923	-122.16826	2389024	1.11	02:29.0	Ventana	34.163	01:31:35:26	6.985	Echinoidea	Strongylocentrotidae	Allocentrotus			Animalia	Echinoida	Echinodermata	Allocentrotus fragilis	Euechinoidea			Echinacea				Eukaryota		V3167-02
 	transect	Allocentrotus fragilis	309.1	3167	01:25:31:26	 	36.826786	-122.168915	2372780	1.11	58:16.0	Ventana	34.161	01:27:23:09	6.98	Echinoidea	Strongylocentrotidae	Allocentrotus			Animalia	Echinoida	Echinodermata	Allocentrotus fragilis	Euechinoidea			Echinacea				Eukaryota		V3167-02
 	cruise	Porifera	323.82	3167	00:15:07:21	 	36.823933	-122.17029	2462209	1.11	47:27.0	Ventana	34.162	00:17:02:24	6.978						Animalia		Porifera									Eukaryota		V3167-01
 	cruise	Parastichopus leukothele	302.43	3167	01:44:14:22	 	36.827854	-122.168304	2390874	1.11	17:00.0	Ventana	34.161	01:46:05:17	6.984	Holothuroidea	Stichopodidae	Parastichopus			Animalia	Aspidochirotida	Echinodermata	Parastichopus leukothele	Aspidochirotacea							Eukaryota		V3167-02
 	transect	Rathbunaster californicus	319.43	3167	00:27:38:12	 	36.824657	-122.169205	2462758	1.14	59:58.0	Ventana	34.158	00:29:33:27	7.032		Labidiasteridae	Rathbunaster			Animalia	Forcipulatida	Echinodermata	Rathbunaster californicus	Asteroidea							Eukaryota		V3167-01
 	cruise	cable	131.98	3167	02:51:53:20	http://search.mbari.org/ARCHIVE/frameGrabs/Ventana/images/3167/02_53_36_09.jpg	36.838642	-122.15349	20024056	3.05	25:09.0	Ventana	33.82	02:53:36:09	9.843																			V3167-03
 	transect	Rathbunaster californicus	315.85	3167	01:22:31:02	 	36.825768	-122.16944	2371682	1.08	55:15.0	Ventana	34.164	01:24:23:04	6.938		Labidiasteridae	Rathbunaster			Animalia	Forcipulatida	Echinodermata	Rathbunaster californicus	Asteroidea							Eukaryota		V3167-02
 	transect	Stomphia	322.64	3167	00:58:57:15	 	36.82395	-122.17024	2464262	1.14	31:40.0	Ventana	34.157	01:00:49:17	7.047	Anthozoa	Actinostolidae	Stomphia			Animalia	Actiniaria	Cnidaria		Hexacorallia			Nyantheae				Eukaryota		V3167-02
 	transect	Allocentrotus fragilis	306.88	3167	01:26:32:09	 	36.827057	-122.168755	2372983	1.17	59:16.0	Ventana	34.157	01:28:24:13	7.079	Echinoidea	Strongylocentrotidae	Allocentrotus			Animalia	Echinoida	Echinodermata	Allocentrotus fragilis	Euechinoidea			Echinacea				Eukaryota		V3167-02
 	transect	Rathbunaster californicus	314.24	3167	01:19:00:08	 	36.825695	-122.16871	2371227	1.1	51:44.0	Ventana	34.163	01:20:51:02	6.956		Labidiasteridae	Rathbunaster			Animalia	Forcipulatida	Echinodermata	Rathbunaster californicus	Asteroidea							Eukaryota		V3167-02
 	transect	Rathbunaster californicus	308.74	3167	01:34:01:25	 	36.82738	-122.1677	2389919	1.08	06:47.0	Ventana	34.165	01:35:52:07	6.927		Labidiasteridae	Rathbunaster			Animalia	Forcipulatida	Echinodermata	Rathbunaster californicus	Asteroidea							Eukaryota		V3167-02
 	transect	Rathbunaster californicus	311.4	3167	01:24:11:13	 	36.82636	-122.16917	2372058	1.08	56:56.0	Ventana	34.164	01:26:03:00	6.927		Labidiasteridae	Rathbunaster			Animalia	Forcipulatida	Echinodermata	Rathbunaster californicus	Asteroidea							Eukaryota		V3167-02
 	transect	Rathbunaster californicus	313.07	3167	01:17:31:25	 	36.82614	-122.16822	2370881	1.07	50:16.0	Ventana	34.166	01:19:22:05	6.912		Labidiasteridae	Rathbunaster			Animalia	Forcipulatida	Echinodermata	Rathbunaster californicus	Asteroidea							Eukaryota		V3167-02
 	cruise	Sebastes	311.84	3167	01:10:54:08	 	36.826286	-122.16927	2464608	1.1	43:38.0	Ventana	34.163	01:12:44:27	6.969	Osteichthyes	Scorpaenidae	Sebastes	Neopterygii		Animalia	Scorpaeniformes	Chordata		Actinopterygii			Scorpaenoidei	Vertebrata	Gnathostomata		Eukaryota	Acanthopterygii	V3167-02
 	transect	Allocentrotus fragilis	318.54	3167	00:35:54:12	 	36.824875	-122.16968	2462961	1.14	08:15.0	Ventana	34.158	00:37:49:26	7.036	Echinoidea	Strongylocentrotidae	Allocentrotus			Animalia	Echinoida	Echinodermata	Allocentrotus fragilis	Euechinoidea			Echinacea				Eukaryota		V3167-01
 	cruise	Laminariales	322.28	3167	01:04:02:20	http://search.mbari.org/ARCHIVE/frameGrabs/Ventana/images/3167/01_05_53_01.jpg	36.82416	-122.17029	2464357	1.14	36:46.0	Ventana	34.16	01:05:53:01	7.043	Phaeophyceae					Chromista	Laminariales	Phaeophycophyta									Eukaryota		V3167-02
 	transect	Hippasteria	308.41	3167	01:33:09:27	 	36.827675	-122.16765	2389651	1.08	05:54.0	Ventana	34.166	01:35:00:05	6.926		Goniasteridae	Hippasteria			Animalia	Valvatida	Echinodermata		Asteroidea			Granulosina				Eukaryota		V3167-02
 	transect	Sebastes	305.36	3167	01:27:18:07	http://search.mbari.org/ARCHIVE/frameGrabs/Ventana/images/3167/01_29_09_12.jpg	36.82729	-122.16863	2388438	1.1	00:03.0	Ventana	34.163	01:29:09:12	6.962	Osteichthyes	Scorpaenidae	Sebastes	Neopterygii		Animalia	Scorpaeniformes	Chordata		Actinopterygii			Scorpaenoidei	Vertebrata	Gnathostomata		Eukaryota	Acanthopterygii	V3167-02
 	transect	Rathbunaster californicus	308.62	3167	01:34:13:25	http://search.mbari.org/ARCHIVE/frameGrabs/Ventana/images/3167/01_36_06_06.jpg	36.827305	-122.167725	2390004	1.08	06:59.0	Ventana	34.165	01:36:06:06	6.933		Labidiasteridae	Rathbunaster			Animalia	Forcipulatida	Echinodermata	Rathbunaster californicus	Asteroidea							Eukaryota		V3167-02
 	cruise	sediment	110.45	3167	03:34:56:15	http://search.mbari.org/ARCHIVE/frameGrabs/Ventana/images/3167/03_36_36_21.jpg	36.84342	-122.13856	2470959	4.53	08:36.0	Ventana	33.559	03:36:36:21	11.061																			V3167-04
 	transect	Parastichopus leukothele	305.76	3167	01:27:12:08	 	36.827255	-122.16865	2388408	1.1	59:57.0	Ventana	34.163	01:29:03:25	6.962	Holothuroidea	Stichopodidae	Parastichopus			Animalia	Aspidochirotida	Echinodermata	Parastichopus leukothele	Aspidochirotacea							Eukaryota		V3167-02
 	cruise	Parastichopus leukothele	333.31	3167	00:08:52:02	 	36.822063	-122.17085	2462115	1.12	41:11.0	Ventana	34.161	00:10:47:28	6.967	Holothuroidea	Stichopodidae	Parastichopus			Animalia	Aspidochirotida	Echinodermata	Parastichopus leukothele	Aspidochirotacea							Eukaryota		V3167-01
 	transect	Sebastes	308.62	3167	01:34:11:25	 	36.82732	-122.167725	2389974	1.08	06:57.0	Ventana	34.165	01:36:02:14	6.933	Osteichthyes	Scorpaenidae	Sebastes	Neopterygii		Animalia	Scorpaeniformes	Chordata		Actinopterygii			Scorpaenoidei	Vertebrata	Gnathostomata		Eukaryota	Acanthopterygii	V3167-02
 	transect	Phyllospadix	164.4	3167	02:31:36:27	 	36.837414	-122.15859	2467335	2.65	04:50.0	Ventana	33.935	02:33:18:25	9.374		Zosteraceae	Phyllospadix			Plantae	Najadales										Eukaryota		V3167-03
 	transect	Allocentrotus fragilis	304.79	3167	01:28:24:20	 	36.827618	-122.16845	2388761	1.1	01:09.0	Ventana	34.162	01:30:15:04	6.963	Echinoidea	Strongylocentrotidae	Allocentrotus			Animalia	Echinoida	Echinodermata	Allocentrotus fragilis	Euechinoidea			Echinacea				Eukaryota		V3167-02
 	transect	Allocentrotus fragilis	306.89	3167	01:26:30:09	 	36.827053	-122.16876	2372962	1.17	59:14.0	Ventana	34.157	01:28:22:11	7.079	Echinoidea	Strongylocentrotidae	Allocentrotus			Animalia	Echinoida	Echinodermata	Allocentrotus fragilis	Euechinoidea			Echinacea				Eukaryota		V3167-02
 	transect	Sebastes diploproa	314.72	3167	01:23:17:15	 	36.82604	-122.16931	2371843	1.07	56:01.0	Ventana	34.165	01:25:09:13	6.923	Osteichthyes	Scorpaenidae	Sebastes	Neopterygii		Animalia	Scorpaeniformes	Chordata	Sebastes diploproa	Actinopterygii			Scorpaenoidei	Vertebrata	Gnathostomata		Eukaryota	Acanthopterygii	V3167-02
 	transect	Mediaster aequalis	171.05	3167	02:34:53:21	 	36.83728	-122.1591	2467365	2.68	08:07.0	Ventana	33.939	02:36:37:06	9.345		Goniasteridae	Mediaster			Animalia	Valvatida	Echinodermata	Mediaster aequalis	Asteroidea			Granulosina				Eukaryota		V3167-03
 	cruise	Agonidae	319.67	3167	01:05:15:03	 	36.824562	-122.17016	2464417	1.14	37:58.0	Ventana	34.159	01:07:06:09	7.037	Osteichthyes	Agonidae		Neopterygii		Animalia	Scorpaeniformes	Chordata		Actinopterygii				Vertebrata	Gnathostomata		Eukaryota	Acanthopterygii	V3167-02
 	transect	Allocentrotus fragilis	303.07	3167	01:29:24:19	 	36.827854	-122.168304	2388975	1.14	02:09.0	Ventana	34.159	01:31:17:05	7.042	Echinoidea	Strongylocentrotidae	Allocentrotus			Animalia	Echinoida	Echinodermata	Allocentrotus fragilis	Euechinoidea			Echinacea				Eukaryota		V3167-02
 	transect	Sebastes	308.74	3167	01:34:03:25	 	36.82737	-122.1677	2389944	1.08	06:49.0	Ventana	34.165	01:35:55:17	6.927	Osteichthyes	Scorpaenidae	Sebastes	Neopterygii		Animalia	Scorpaeniformes	Chordata		Actinopterygii			Scorpaenoidei	Vertebrata	Gnathostomata		Eukaryota	Acanthopterygii	V3167-02
 	transect	Rathbunaster californicus	318.35	3167	00:36:30:26	 	36.824886	-122.16981	2462975	1.15	08:51.0	Ventana	34.158	00:38:27:14	7.055		Labidiasteridae	Rathbunaster			Animalia	Forcipulatida	Echinodermata	Rathbunaster californicus	Asteroidea							Eukaryota		V3167-01
 	transect	Sebastes	308.78	3167	01:32:51:12	 	36.827736	-122.16764	2389591	1.08	05:36.0	Ventana	34.165	01:34:43:21	6.93	Osteichthyes	Scorpaenidae	Sebastes	Neopterygii		Animalia	Scorpaeniformes	Chordata		Actinopterygii			Scorpaenoidei	Vertebrata	Gnathostomata		Eukaryota	Acanthopterygii	V3167-02
 	transect	Rathbunaster californicus	309.07	3167	01:34:19:25	 	36.827267	-122.16774	2390034	1.08	07:05.0	Ventana	34.165	01:36:12:00	6.933		Labidiasteridae	Rathbunaster			Animalia	Forcipulatida	Echinodermata	Rathbunaster californicus	Asteroidea							Eukaryota		V3167-02
 	transect	Rathbunaster californicus	309.6	3167	01:35:24:07	 	36.82689	-122.16797	2390267	1.09	08:09.0	Ventana	34.164	01:37:14:19	6.953		Labidiasteridae	Rathbunaster			Animalia	Forcipulatida	Echinodermata	Rathbunaster californicus	Asteroidea							Eukaryota		V3167-02
 	transect	Allocentrotus fragilis	305.86	3167	01:27:04:08	 	36.827217	-122.16867	2388348	1.1	59:49.0	Ventana	34.164	01:28:55:20	6.964	Echinoidea	Strongylocentrotidae	Allocentrotus			Animalia	Echinoida	Echinodermata	Allocentrotus fragilis	Euechinoidea			Echinacea				Eukaryota		V3167-02
 	transect	Rathbunaster californicus	309.18	3167	01:34:32:09	 	36.827194	-122.16777	2390064	1.08	07:17.0	Ventana	34.165	01:36:23:28	6.927		Labidiasteridae	Rathbunaster			Animalia	Forcipulatida	Echinodermata	Rathbunaster californicus	Asteroidea							Eukaryota		V3167-02
 	transect	Stomphia	319.78	3167	00:38:15:08	 	36.824917	-122.17018	2463035	1.15	10:36.0	Ventana	34.155	00:40:10:04	7.058	Anthozoa	Actinostolidae	Stomphia			Animalia	Actiniaria	Cnidaria		Hexacorallia			Nyantheae				Eukaryota		V3167-01
 	transect	Calliostoma platinum	322.57	3167	00:48:21:19	http://search.mbari.org/ARCHIVE/frameGrabs/Ventana/images/3167/00_50_17_29.jpg	36.82467	-122.17083	2463238	1.19	20:43.0	Ventana	34.154	00:50:17:29	7.121	Gastropoda	Trochidae	Calliostoma			Animalia	Archaeogastropoda	Mollusca	Calliostoma platinum	Prosobranchia						Trochacea	Eukaryota		V3167-01
 	transect	Rathbunaster californicus	308.76	3167	01:33:23:27	 	36.82762	-122.167656	2389711	1.08	06:08.0	Ventana	34.166	01:35:15:24	6.925		Labidiasteridae	Rathbunaster			Animalia	Forcipulatida	Echinodermata	Rathbunaster californicus	Asteroidea							Eukaryota		V3167-02
 	transect	Stylasterias forreri	305.1	3167	01:27:28:08	 	36.82734	-122.16861	2388528	1.11	00:13.0	Ventana	34.162	01:29:19:25	6.992		Asteriidae	Stylasterias			Animalia	Forcipulatida	Echinodermata	Stylasterias forreri	Asteroidea							Eukaryota		V3167-02
 	cruise	Phyllospadix	165.9	3167	02:39:32:28	 	36.836987	-122.15826	2467425	2.77	12:47.0	Ventana	33.913	02:41:15:21	9.453		Zosteraceae	Phyllospadix			Plantae	Najadales										Eukaryota		V3167-03
 	transect	Rathbunaster californicus	309.27	3167	01:34:38:09	 	36.82714	-122.16779	2390094	1.08	07:23.0	Ventana	34.165	01:36:29:19	6.933		Labidiasteridae	Rathbunaster			Animalia	Forcipulatida	Echinodermata	Rathbunaster californicus	Asteroidea							Eukaryota		V3167-02
 	cruise	Hippasteria	336.71	3167	00:06:15:07	 	36.821194	-122.17114	2462025	1.11	38:34.0	Ventana	34.161	00:08:11:00	6.943		Goniasteridae	Hippasteria			Animalia	Valvatida	Echinodermata		Asteroidea			Granulosina				Eukaryota		V3167-01
 	transect	Rathbunaster californicus	308.88	3167	01:33:31:26	 	36.827568	-122.16766	2389741	1.08	06:17.0	Ventana	34.166	01:35:22:12	6.925		Labidiasteridae	Rathbunaster			Animalia	Forcipulatida	Echinodermata	Rathbunaster californicus	Asteroidea							Eukaryota		V3167-02
 	transect	Mediaster aequalis	309.02	3167	01:33:55:25	 	36.82742	-122.167694	2389884	1.08	06:41.0	Ventana	34.165	01:35:47:27	6.927		Goniasteridae	Mediaster			Animalia	Valvatida	Echinodermata	Mediaster aequalis	Asteroidea			Granulosina				Eukaryota		V3167-02
 	cruise	Raja rhina	307.56	3167	01:37:12:19	 	36.82679	-122.16867	2390770	1.07	09:58.0	Ventana	34.166	01:39:04:10	6.925	Chondrichthyes	Rajidae	Raja			Animalia	Rajiformes	Chordata	Raja rhina	Elasmobranchii				Vertebrata			Eukaryota	Batoidea	V3167-02
 	transect	Rathbunaster californicus	319	3167	00:37:42:24	 	36.82491	-122.17007	2463005	1.16	10:03.0	Ventana	34.156	00:39:38:06	7.075		Labidiasteridae	Rathbunaster			Animalia	Forcipulatida	Echinodermata	Rathbunaster californicus	Asteroidea							Eukaryota		V3167-01
 	transect	Allocentrotus fragilis	316.03	3167	01:22:27:02	 	36.825745	-122.16945	2371670	1.08	55:11.0	Ventana	34.164	01:24:18:07	6.938	Echinoidea	Strongylocentrotidae	Allocentrotus			Animalia	Echinoida	Echinodermata	Allocentrotus fragilis	Euechinoidea			Echinacea				Eukaryota		V3167-02
 	transect	Parastichopus leukothele	305.77	3167	01:27:10:08	 	36.827248	-122.168655	2388378	1.1	59:55.0	Ventana	34.163	01:29:00:29	6.962	Holothuroidea	Stichopodidae	Parastichopus			Animalia	Aspidochirotida	Echinodermata	Parastichopus leukothele	Aspidochirotacea							Eukaryota		V3167-02
 	transect	Rathbunaster californicus	320.28	3167	00:18:20:15	 	36.82432	-122.16993	2462299	1.12	50:40.0	Ventana	34.161	00:20:15:14	6.992		Labidiasteridae	Rathbunaster			Animalia	Forcipulatida	Echinodermata	Rathbunaster californicus	Asteroidea							Eukaryota		V3167-01
 	cruise	cable	345.86	3167	00:02:16:14	http://search.mbari.org/ARCHIVE/frameGrabs/Ventana/images/3167/00_04_12_14.jpg	36.81995	-122.171455	2459554	1.1	34:35.0	Ventana	34.162	00:04:12:14	6.923																			V3167-01
 	cruise	cable	258.58	3167	02:08:47:10	http://search.mbari.org/ARCHIVE/frameGrabs/Ventana/images/3167/02_10_29_28.jpg	36.83445	-122.162506	20024028	1.49	41:59.0	Ventana	34.125	02:10:29:28	7.704																			V3167-03
 	transect	Rathbunaster californicus	314.43	3167	01:23:25:15	 	36.826084	-122.1693	2371873	1.07	56:09.0	Ventana	34.166	01:25:16:08	6.924		Labidiasteridae	Rathbunaster			Animalia	Forcipulatida	Echinodermata	Rathbunaster californicus	Asteroidea							Eukaryota		V3167-02
 	transect	Phyllospadix	171.84	3167	02:22:30:15	 	36.836857	-122.15866	2467042	2.42	55:44.0	Ventana	33.974	02:24:12:28	9.031		Zosteraceae	Phyllospadix			Plantae	Najadales										Eukaryota		V3167-03
 	cruise	Parastichopus leukothele	246.95	3167	02:10:27:22	http://search.mbari.org/ARCHIVE/frameGrabs/Ventana/images/3167/02_12_10_14.jpg	36.83482	-122.16197	2466862	1.55	43:40.0	Ventana	34.12	02:12:10:14	7.797	Holothuroidea	Stichopodidae	Parastichopus			Animalia	Aspidochirotida	Echinodermata	Parastichopus leukothele	Aspidochirotacea							Eukaryota		V3167-03
 	transect	Sebastes	305.15	3167	01:27:36:07	 	36.82738	-122.16859	2388558	1.11	00:21.0	Ventana	34.162	01:29:27:26	6.992	Osteichthyes	Scorpaenidae	Sebastes	Neopterygii		Animalia	Scorpaeniformes	Chordata		Actinopterygii			Scorpaenoidei	Vertebrata	Gnathostomata		Eukaryota	Acanthopterygii	V3167-02
 	transect	Ceriantharia sp. 3	314.88	3167	01:19:12:07	 	36.825626	-122.16876	2371246	1.09	51:56.0	Ventana	34.161	01:21:03:26	6.971	Anthozoa					Animalia	Ceriantharia	Cnidaria		Ceriantipatharia							Eukaryota		V3167-02
 	transect	Rathbunaster californicus	315.82	3167	01:19:34:07	 	36.825512	-122.16888	2371347	1.09	52:18.0	Ventana	34.163	01:21:26:05	6.954		Labidiasteridae	Rathbunaster			Animalia	Forcipulatida	Echinodermata	Rathbunaster californicus	Asteroidea							Eukaryota		V3167-02
 	transect	Allocentrotus fragilis	305.08	3167	01:27:52:22	 	36.827465	-122.16854	2388611	1.12	00:37.0	Ventana	34.159	01:29:44:02	7.026	Echinoidea	Strongylocentrotidae	Allocentrotus			Animalia	Echinoida	Echinodermata	Allocentrotus fragilis	Euechinoidea			Echinacea				Eukaryota		V3167-02
 	transect	Phyllospadix	166.68	3167	02:24:40:25	 	36.83695	-122.1583	2467155	2.51	57:54.0	Ventana	33.962	02:26:24:17	9.18		Zosteraceae	Phyllospadix			Plantae	Najadales										Eukaryota		V3167-03
 	cruise	Raja rhina	302.65	3167	01:45:18:20	 	36.828228	-122.168106	2390883	1.12	18:04.0	Ventana	34.16	01:47:11:06	7.019	Chondrichthyes	Rajidae	Raja			Animalia	Rajiformes	Chordata	Raja rhina	Elasmobranchii				Vertebrata			Eukaryota	Batoidea	V3167-02
 	transect	Lycodes cortezianus	309.48	3167	01:25:11:27	 	36.82669	-122.168976	2372752	1.11	57:56.0	Ventana	34.161	01:27:03:25	7.022	Osteichthyes	Zoarcidae	Lycodes	Neopterygii		Animalia	Perciformes	Chordata	Lycodes cortezianus	Actinopterygii			Zoarcoidei	Vertebrata	Gnathostomata		Eukaryota	Acanthopterygii	V3167-02
 	cruise	Raja rhina	302.22	3167	01:30:59:01	 	36.82798	-122.16803	2389471	1.09	03:44.0	Ventana	34.164	01:32:51:23	6.953	Chondrichthyes	Rajidae	Raja			Animalia	Rajiformes	Chordata	Raja rhina	Elasmobranchii				Vertebrata			Eukaryota	Batoidea	V3167-02
 	cruise	Parmaturus xaniurus	332.77	3167	00:09:08:01	http://search.mbari.org/ARCHIVE/frameGrabs/Ventana/images/3167/00_11_03_27.jpg	36.82214	-122.170815	20023938	1.11	41:27.0	Ventana	34.161	00:11:03:27	6.966	Chondrichthyes	Scyliorhinidae	Parmaturus			Animalia	Carcharhiniformes	Chordata	Parmaturus xaniurus	Elasmobranchii				Vertebrata			Eukaryota	Galeomorphi	V3167-01
 	transect	Pleuronectiformes	311.53	3167	01:24:09:13	 	36.826347	-122.169174	2372053	1.08	56:54.0	Ventana	34.164	01:26:00:26	6.927	Osteichthyes			Neopterygii		Animalia	Pleuronectiformes	Chordata		Actinopterygii				Vertebrata	Gnathostomata		Eukaryota	Acanthopterygii	V3167-02
 	transect	Rathbunaster californicus	308.92	3167	01:33:45:26	 	36.827484	-122.16767	2389831	1.07	06:31.0	Ventana	34.166	01:35:38:01	6.926		Labidiasteridae	Rathbunaster			Animalia	Forcipulatida	Echinodermata	Rathbunaster californicus	Asteroidea							Eukaryota		V3167-02
 	transect	Allocentrotus fragilis	306.58	3167	01:26:42:09	 	36.827103	-122.16873	2388265	1.12	59:26.0	Ventana	34.164	01:28:33:08	6.991	Echinoidea	Strongylocentrotidae	Allocentrotus			Animalia	Echinoida	Echinodermata	Allocentrotus fragilis	Euechinoidea			Echinacea				Eukaryota		V3167-02
 	transect	Rathbunaster californicus	313.32	3167	01:17:25:26	 	36.82617	-122.1682	2370810	1.07	50:10.0	Ventana	34.166	01:19:17:00	6.912		Labidiasteridae	Rathbunaster			Animalia	Forcipulatida	Echinodermata	Rathbunaster californicus	Asteroidea							Eukaryota		V3167-02
 	transect	Parastichopus leukothele	313.66	3167	01:18:54:08	 	36.82573	-122.16868	2371216	1.1	51:38.0	Ventana	34.163	01:20:45:22	6.956	Holothuroidea	Stichopodidae	Parastichopus			Animalia	Aspidochirotida	Echinodermata	Parastichopus leukothele	Aspidochirotacea							Eukaryota		V3167-02
 	transect	Stylasterias forreri	305.03	3167	01:28:02:21	 	36.827515	-122.16851	2388641	1.16	00:47.0	Ventana	34.154	01:29:53:13	7.099		Asteriidae	Stylasterias			Animalia	Forcipulatida	Echinodermata	Stylasterias forreri	Asteroidea							Eukaryota		V3167-02
 	transect	Allocentrotus fragilis	313.33	3167	01:18:46:08	 	36.82577	-122.16863	2371186	1.11	51:30.0	Ventana	34.161	01:20:38:13	6.99	Echinoidea	Strongylocentrotidae	Allocentrotus			Animalia	Echinoida	Echinodermata	Allocentrotus fragilis	Euechinoidea			Echinacea				Eukaryota		V3167-02
 	transect	Rathbunaster californicus	308.91	3167	01:33:51:26	 	36.827446	-122.16769	2389861	1.07	06:37.0	Ventana	34.166	01:35:43:19	6.926		Labidiasteridae	Rathbunaster			Animalia	Forcipulatida	Echinodermata	Rathbunaster californicus	Asteroidea							Eukaryota		V3167-02
 	transect	Rathbunaster californicus	314.89	3167	01:22:53:01	 	36.825893	-122.16938	2371753	1.08	55:37.0	Ventana	34.166	01:24:44:13	6.927		Labidiasteridae	Rathbunaster			Animalia	Forcipulatida	Echinodermata	Rathbunaster californicus	Asteroidea							Eukaryota		V3167-02
 	cruise	Rathbunaster californicus	110.28	3167	03:22:29:07	 	36.842808	-122.139694	2468691	4.65	56:08.0	Ventana	33.537	03:24:10:00	11.149		Labidiasteridae	Rathbunaster			Animalia	Forcipulatida	Echinodermata	Rathbunaster californicus	Asteroidea							Eukaryota		V3167-04
 	transect	Rathbunaster californicus	309.53	3167	01:35:10:08	 	36.826958	-122.16791	2390207	1.08	07:55.0	Ventana	34.163	01:37:01:07	6.95		Labidiasteridae	Rathbunaster			Animalia	Forcipulatida	Echinodermata	Rathbunaster californicus	Asteroidea							Eukaryota		V3167-02
 	transect	Rathbunaster californicus	316.6	3167	01:19:50:07	 	36.825436	-122.168976	2371377	1.08	52:34.0	Ventana	34.166	01:21:41:06	6.929		Labidiasteridae	Rathbunaster			Animalia	Forcipulatida	Echinodermata	Rathbunaster californicus	Asteroidea							Eukaryota		V3167-02
 	cruise	Metridium farcimen	251.05	3167	02:09:55:23	 	36.834705	-122.16214	2467801	1.54	43:08.0	Ventana	34.117	02:11:39:03	7.766	Anthozoa	Metridiidae	Metridium			Animalia	Actiniaria	Cnidaria	Metridium farcimen	Hexacorallia			Nyantheae				Eukaryota		V3167-03
 	transect	Rathbunaster californicus	312.5	3167	01:17:07:27	 	36.826263	-122.16817	2370750	1.07	49:51.0	Ventana	34.166	01:18:59:09	6.915		Labidiasteridae	Rathbunaster			Animalia	Forcipulatida	Echinodermata	Rathbunaster californicus	Asteroidea							Eukaryota		V3167-02
 	cruise	Anthomastus ritteri	307.79	3167	01:32:09:14	 	36.82784	-122.16772	2465480	1.08	04:54.0	Ventana	34.166	01:34:01:14	6.93	Anthozoa	Alcyoniidae				Animalia	Alcyonacea	Cnidaria	Anthomastus	Octocorallia							Eukaryota		V3167-02
 	transect	Allocentrotus fragilis	305.98	3167	01:26:56:08	 	36.827175	-122.16869	2388325	1.1	59:41.0	Ventana	34.164	01:28:47:24	6.964	Echinoidea	Strongylocentrotidae	Allocentrotus			Animalia	Echinoida	Echinodermata	Allocentrotus fragilis	Euechinoidea			Echinacea				Eukaryota		V3167-02
 	transect	Allocentrotus fragilis	313.04	3167	01:18:24:09	 	36.825886	-122.16851	2371126	1.1	51:08.0	Ventana	34.16	01:20:16:07	6.984	Echinoidea	Strongylocentrotidae	Allocentrotus			Animalia	Echinoida	Echinodermata	Allocentrotus fragilis	Euechinoidea			Echinacea				Eukaryota		V3167-02
 	transect	Rathbunaster californicus	312.35	3167	01:16:55:27	 	36.826324	-122.16816	2370577	1.07	49:39.0	Ventana	34.166	01:18:46:25	6.915		Labidiasteridae	Rathbunaster			Animalia	Forcipulatida	Echinodermata	Rathbunaster californicus	Asteroidea							Eukaryota		V3167-02
 	transect	Stomphia	316.34	3167	01:22:09:02	 	36.82565	-122.16949	2371610	1.09	54:53.0	Ventana	34.163	01:23:59:24	6.958	Anthozoa	Actinostolidae	Stomphia			Animalia	Actiniaria	Cnidaria		Hexacorallia			Nyantheae				Eukaryota		V3167-02
 	transect	Allocentrotus fragilis	306.83	3167	01:26:36:09	 	36.827076	-122.16875	2372992	1.17	59:20.0	Ventana	34.157	01:28:28:07	7.079	Echinoidea	Strongylocentrotidae	Allocentrotus			Animalia	Echinoida	Echinodermata	Allocentrotus fragilis	Euechinoidea			Echinacea				Eukaryota		V3167-02
 	transect	Rathbunaster californicus	310.92	3167	01:24:23:13	 	36.826427	-122.169136	2372113	1.08	57:08.0	Ventana	34.165	01:26:16:02	6.93		Labidiasteridae	Rathbunaster			Animalia	Forcipulatida	Echinodermata	Rathbunaster californicus	Asteroidea							Eukaryota		V3167-02
 	transect	Rathbunaster californicus	319.29	3167	00:27:26:12	 	36.82464	-122.169235	2462735	1.14	59:46.0	Ventana	34.158	00:29:22:01	7.028		Labidiasteridae	Rathbunaster			Animalia	Forcipulatida	Echinodermata	Rathbunaster californicus	Asteroidea							Eukaryota		V3167-01
 	transect	Sebastes	305.16	3167	01:27:24:07	 	36.82732	-122.16862	2388498	1.11	00:09.0	Ventana	34.162	01:29:16:10	6.992	Osteichthyes	Scorpaenidae	Sebastes	Neopterygii		Animalia	Scorpaeniformes	Chordata		Actinopterygii			Scorpaenoidei	Vertebrata	Gnathostomata		Eukaryota	Acanthopterygii	V3167-02
 	cruise	Enteroctopus dofleini	110.05	3167	03:18:08:16	http://search.mbari.org/ARCHIVE/frameGrabs/Ventana/images/3167/03_19_49_12.jpg	36.842514	-122.14077	2468631	4.82	51:47.0	Ventana	33.523	03:19:49:12	11.204	Cephalopoda	Octopodidae	Enteroctopus			Animalia	Octopoda	Mollusca	Enteroctopus dofleini	Coleoidea	Octopodinae		Incirrata				Eukaryota	Octopodiformes	V3167-04
 	cruise	Ceriantharia sp. 3	317.14	3167	01:20:58:19	 	36.82542	-122.16938	2371437	1.09	53:43.0	Ventana	34.162	01:22:50:13	6.958	Anthozoa					Animalia	Ceriantharia	Cnidaria		Ceriantipatharia							Eukaryota		V3167-02
 	transect	Mediaster aequalis	323.16	3167	00:49:48:01	 	36.82446	-122.1707	2463268	1.18	22:09.0	Ventana	34.153	00:51:44:10	7.106		Goniasteridae	Mediaster			Animalia	Valvatida	Echinodermata	Mediaster aequalis	Asteroidea			Granulosina				Eukaryota		V3167-01
 	cruise	Metridium farcimen	122.62	3167	02:59:13:21	 	36.839764	-122.150604	2468082	3.63	32:51.0	Ventana	33.699	03:00:53:09	10.539	Anthozoa	Metridiidae	Metridium			Animalia	Actiniaria	Cnidaria	Metridium farcimen	Hexacorallia			Nyantheae				Eukaryota		V3167-04
 	transect	Sebastes diploproa	307.98	3167	01:25:51:25	 	36.826874	-122.16886	2372819	1.09	58:36.0	Ventana	34.163	01:27:43:15	6.991	Osteichthyes	Scorpaenidae	Sebastes	Neopterygii		Animalia	Scorpaeniformes	Chordata	Sebastes diploproa	Actinopterygii			Scorpaenoidei	Vertebrata	Gnathostomata		Eukaryota	Acanthopterygii	V3167-02
 	transect	Allocentrotus fragilis	313.01	3167	01:18:36:09	 	36.825825	-122.16858	2371156	1.1	51:20.0	Ventana	34.16	01:20:27:08	6.984	Echinoidea	Strongylocentrotidae	Allocentrotus			Animalia	Echinoida	Echinodermata	Allocentrotus fragilis	Euechinoidea			Echinacea				Eukaryota		V3167-02
 	transect	Allocentrotus fragilis	305.19	3167	01:27:22:08	 	36.82731	-122.168625	2388468	1.1	00:07.0	Ventana	34.163	01:29:12:16	6.962	Echinoidea	Strongylocentrotidae	Allocentrotus			Animalia	Echinoida	Echinodermata	Allocentrotus fragilis	Euechinoidea			Echinacea				Eukaryota		V3167-02
 	transect	Rathbunaster californicus	319.47	3167	00:27:46:12	 	36.82467	-122.16919	2462765	1.14	00:06.0	Ventana	34.158	00:29:42:16	7.032		Labidiasteridae	Rathbunaster			Animalia	Forcipulatida	Echinodermata	Rathbunaster californicus	Asteroidea							Eukaryota		V3167-01
 	transect	Hippasteria	316.7	3167	01:21:57:03	 	36.825592	-122.1695	2371580	1.09	54:41.0	Ventana	34.164	01:23:48:28	6.958		Goniasteridae	Hippasteria			Animalia	Valvatida	Echinodermata		Asteroidea			Granulosina				Eukaryota		V3167-02
 	transect	Raja rhina	303.73	3167	01:29:00:19	 	36.82776	-122.168365	2388892	1.09	01:45.0	Ventana	34.163	01:30:52:17	6.964	Chondrichthyes	Rajidae	Raja			Animalia	Rajiformes	Chordata	Raja rhina	Elasmobranchii				Vertebrata			Eukaryota	Batoidea	V3167-02
 	transect	Allocentrotus fragilis	306.4	3167	01:26:48:09	 	36.827133	-122.16872	2388295	1.12	59:32.0	Ventana	34.164	01:28:40:14	6.991	Echinoidea	Strongylocentrotidae	Allocentrotus			Animalia	Echinoida	Echinodermata	Allocentrotus fragilis	Euechinoidea			Echinacea				Eukaryota		V3167-02
 	transect	Parastichopus leukothele	313	3167	01:17:19:26	 	36.8262	-122.16818	2370780	1.07	50:04.0	Ventana	34.165	01:19:11:07	6.914	Holothuroidea	Stichopodidae	Parastichopus			Animalia	Aspidochirotida	Echinodermata	Parastichopus leukothele	Aspidochirotacea							Eukaryota		V3167-02
 	transect	Phyllospadix	168.19	3167	02:23:56:27	 	36.83692	-122.15843	2467125	2.45	57:10.0	Ventana	33.969	02:25:38:26	9.073		Zosteraceae	Phyllospadix			Plantae	Najadales										Eukaryota		V3167-03
 	transect	Rathbunaster californicus	314.73	3167	01:23:01:01	 	36.82594	-122.16936	2371783	1.07	55:45.0	Ventana	34.165	01:24:53:06	6.926		Labidiasteridae	Rathbunaster			Animalia	Forcipulatida	Echinodermata	Rathbunaster californicus	Asteroidea							Eukaryota		V3167-02
 	cruise	Rathbunaster californicus	103	3167	04:02:08:03	 	36.849216	-122.126884	2471766	5.06	36:10.0	Ventana	33.478	04:03:42:25	11.292		Labidiasteridae	Rathbunaster			Animalia	Forcipulatida	Echinodermata	Rathbunaster californicus	Asteroidea							Eukaryota		V3167-05
 	transect	Stomphia	307.15	3167	01:26:13:25	 	36.82697	-122.16881	2372849	1.22	58:58.0	Ventana	34.147	01:28:05:16	7.163	Anthozoa	Actinostolidae	Stomphia			Animalia	Actiniaria	Cnidaria		Hexacorallia			Nyantheae				Eukaryota		V3167-02
 	cruise	Hippasteria	331.22	3167	00:10:02:15	 	36.822365	-122.17071	2462138	1.11	42:21.0	Ventana	34.162	00:11:57:11	6.96		Goniasteridae	Hippasteria			Animalia	Valvatida	Echinodermata		Asteroidea			Granulosina				Eukaryota		V3167-01
 	transect	Rathbunaster californicus	308.32	3167	01:33:13:26	 	36.827663	-122.167656	2389674	1.08	05:58.0	Ventana	34.166	01:35:05:19	6.926		Labidiasteridae	Rathbunaster			Animalia	Forcipulatida	Echinodermata	Rathbunaster californicus	Asteroidea							Eukaryota		V3167-02
 	transect	Rathbunaster californicus	318.65	3167	00:37:26:25	 	36.8249	-122.17001	2462998	1.16	09:47.0	Ventana	34.156	00:39:22:21	7.077		Labidiasteridae	Rathbunaster			Animalia	Forcipulatida	Echinodermata	Rathbunaster californicus	Asteroidea							Eukaryota		V3167-01
 	transect	Glyptocephalus zachirus	163.14	3167	02:30:50:14	 	36.837467	-122.15847	2467328	2.69	04:04.0	Ventana	33.939	02:32:34:03	9.335	Osteichthyes	Pleuronectidae	Glyptocephalus	Neopterygii		Animalia	Pleuronectiformes	Chordata		Actinopterygii				Vertebrata	Gnathostomata		Eukaryota	Acanthopterygii	V3167-03
 	transect	Allocentrotus fragilis	303.48	3167	01:29:08:19	 	36.827793	-122.16835	2388922	1.12	01:53.0	Ventana	34.159	01:31:01:09	7.03	Echinoidea	Strongylocentrotidae	Allocentrotus			Animalia	Echinoida	Echinodermata	Allocentrotus fragilis	Euechinoidea			Echinacea				Eukaryota		V3167-02
 	transect	Phyllospadix	323.18	3167	00:53:12:25	 	36.82438	-122.17063	2463321	1.14	25:34.0	Ventana	34.16	00:55:09:20	7.072		Zosteraceae	Phyllospadix			Plantae	Najadales										Eukaryota		V3167-01
 	transect	Rathbunaster californicus	309.07	3167	01:34:19:25	 	36.827267	-122.16774	2390027	1.08	07:05.0	Ventana	34.165	01:36:12:00	6.933		Labidiasteridae	Rathbunaster			Animalia	Forcipulatida	Echinodermata	Rathbunaster californicus	Asteroidea							Eukaryota		V3167-02
 	cruise	Pandalus platyceros	266.78	3167	02:07:14:28	 	36.834087	-122.162994	2466606	1.23	40:27.0	Ventana	34.15	02:08:57:02	7.216	Malacostraca	Pandalidae	Pandalus		Caridea	Animalia	Decapoda	Arthropoda	Pandalus platyceros	Eumalacostraca						Pandaloidea	Eukaryota	Eucarida	V3167-03
 	cruise	Rathbunaster californicus	113.87	3167	03:12:08:27	 	36.84182	-122.1436	2468525	4.45	45:47.0	Ventana	33.581	03:13:48:20	11.014		Labidiasteridae	Rathbunaster			Animalia	Forcipulatida	Echinodermata	Rathbunaster californicus	Asteroidea							Eukaryota		V3167-04
 	transect	Rathbunaster californicus	318.46	3167	00:36:14:27	 	36.824883	-122.16975	2462968	1.15	08:35.0	Ventana	34.157	00:38:10:05	7.051		Labidiasteridae	Rathbunaster			Animalia	Forcipulatida	Echinodermata	Rathbunaster californicus	Asteroidea							Eukaryota		V3167-01
 	transect	Rathbunaster californicus	308.76	3167	01:33:23:27	 	36.82762	-122.167656	2389704	1.08	06:08.0	Ventana	34.166	01:35:15:24	6.925		Labidiasteridae	Rathbunaster			Animalia	Forcipulatida	Echinodermata	Rathbunaster californicus	Asteroidea							Eukaryota		V3167-02
 	transect	Rathbunaster californicus	308.9	3167	01:34:07:25	 	36.827343	-122.16771	2389967	1.08	06:53.0	Ventana	34.165	01:35:58:22	6.933		Labidiasteridae	Rathbunaster			Animalia	Forcipulatida	Echinodermata	Rathbunaster californicus	Asteroidea							Eukaryota		V3167-02
 	cruise	Laminariales	107.47	3167	03:45:18:26	http://search.mbari.org/ARCHIVE/frameGrabs/Ventana/images/3167/03_46_59_23.jpg	36.84579	-122.134315	20024081	4.84	18:59.0	Ventana	33.511	03:46:59:23	11.216	Phaeophyceae					Chromista	Laminariales	Phaeophycophyta									Eukaryota		V3167-04
 	transect	Allocentrotus fragilis	313.56	3167	01:23:33:14	 	36.826138	-122.16927	2371910	1.07	56:18.0	Ventana	34.166	01:25:24:26	6.924	Echinoidea	Strongylocentrotidae	Allocentrotus			Animalia	Echinoida	Echinodermata	Allocentrotus fragilis	Euechinoidea			Echinacea				Eukaryota		V3167-02
 	transect	Rathbunaster californicus	309.28	3167	01:34:30:09	 	36.827206	-122.16777	2390057	1.08	07:15.0	Ventana	34.165	01:36:21:21	6.927		Labidiasteridae	Rathbunaster			Animalia	Forcipulatida	Echinodermata	Rathbunaster californicus	Asteroidea							Eukaryota		V3167-02
 	transect	Allocentrotus fragilis	306.89	3167	01:26:30:09	 	36.827053	-122.16876	2372969	1.17	59:14.0	Ventana	34.157	01:28:22:11	7.079	Echinoidea	Strongylocentrotidae	Allocentrotus			Animalia	Echinoida	Echinodermata	Allocentrotus fragilis	Euechinoidea			Echinacea				Eukaryota		V3167-02
 	transect	Parastichopus leukothele	323.18	3167	00:53:30:25	 	36.82436	-122.17061	2463351	1.18	25:52.0	Ventana	34.152	00:55:26:21	7.114	Holothuroidea	Stichopodidae	Parastichopus			Animalia	Aspidochirotida	Echinodermata	Parastichopus leukothele	Aspidochirotacea							Eukaryota		V3167-01
 	transect	Phyllospadix	169.75	3167	02:34:23:22	 	36.837315	-122.15904	2467358	2.67	07:37.0	Ventana	33.937	02:36:05:12	9.378		Zosteraceae	Phyllospadix			Plantae	Najadales										Eukaryota		V3167-03
 	cruise	Stylasterias forreri	207.88	3167	02:15:48:27	http://search.mbari.org/ARCHIVE/frameGrabs/Ventana/images/3167/02_17_30_24.jpg	36.83586	-122.1604	2466899	1.83	49:02.0	Ventana	34.08	02:17:30:24	8.247		Asteriidae	Stylasterias			Animalia	Forcipulatida	Echinodermata	Stylasterias forreri	Asteroidea							Eukaryota		V3167-03
 	transect	Phyllospadix	160.12	3167	02:26:43:22	 	36.83708	-122.15794	2467252	2.7	59:57.0	Ventana	33.929	02:28:26:15	9.394		Zosteraceae	Phyllospadix			Plantae	Najadales										Eukaryota		V3167-03
 	transect	Parastichopus leukothele	322.84	3167	00:49:22:03	 	36.824505	-122.17074	2463261	1.18	21:43.0	Ventana	34.154	00:51:18:02	7.111	Holothuroidea	Stichopodidae	Parastichopus			Animalia	Aspidochirotida	Echinodermata	Parastichopus leukothele	Aspidochirotacea							Eukaryota		V3167-01
 	transect	Raja rhina	303.17	3167	01:29:18:19	 	36.82783	-122.16832	2388952	1.12	02:03.0	Ventana	34.159	01:31:10:23	7.03	Chondrichthyes	Rajidae	Raja			Animalia	Rajiformes	Chordata	Raja rhina	Elasmobranchii				Vertebrata			Eukaryota	Batoidea	V3167-02
 	cruise	Stylasterias forreri	257.64	3167	02:08:55:10	 	36.834484	-122.16246	2467771	1.5	42:08.0	Ventana	34.121	02:10:37:26	7.692		Asteriidae	Stylasterias			Animalia	Forcipulatida	Echinodermata	Stylasterias forreri	Asteroidea							Eukaryota		V3167-03
 	transect	Rathbunaster californicus	308.74	3167	01:34:03:25	 	36.82737	-122.1677	2389937	1.08	06:49.0	Ventana	34.165	01:35:55:17	6.927		Labidiasteridae	Rathbunaster			Animalia	Forcipulatida	Echinodermata	Rathbunaster californicus	Asteroidea							Eukaryota		V3167-02
 	cruise	Sebastes	110.48	3167	03:31:01:22	 	36.84328	-122.13843	2470922	4.58	04:41.0	Ventana	33.55	03:32:41:06	11.088	Osteichthyes	Scorpaenidae	Sebastes	Neopterygii		Animalia	Scorpaeniformes	Chordata		Actinopterygii			Scorpaenoidei	Vertebrata	Gnathostomata		Eukaryota	Acanthopterygii	V3167-04
 	transect	Allocentrotus fragilis	305.77	3167	01:27:10:08	 	36.827248	-122.168655	2388371	1.1	59:55.0	Ventana	34.163	01:29:00:29	6.962	Echinoidea	Strongylocentrotidae	Allocentrotus			Animalia	Echinoida	Echinodermata	Allocentrotus fragilis	Euechinoidea			Echinacea				Eukaryota		V3167-02
 	transect	Allocentrotus fragilis	319.21	3167	00:26:26:15	 	36.824543	-122.1694	2462689	1.14	58:46.0	Ventana	34.159	00:28:21:13	7.031	Echinoidea	Strongylocentrotidae	Allocentrotus			Animalia	Echinoida	Echinodermata	Allocentrotus fragilis	Euechinoidea			Echinacea				Eukaryota		V3167-01
 	cruise	Pleuronectiformes	126.71	3167	02:54:44:15	 	36.839104	-122.152275	2467621	3.14	28:00.0	Ventana	33.791	02:56:27:11	10.028	Osteichthyes			Neopterygii		Animalia	Pleuronectiformes	Chordata		Actinopterygii				Vertebrata	Gnathostomata		Eukaryota	Acanthopterygii	V3167-03
 	cruise	Sebastes	309.42	3167	01:35:58:06	 	36.826797	-122.16816	2390747	1.09	08:43.0	Ventana	34.165	01:37:49:15	6.939	Osteichthyes	Scorpaenidae	Sebastes	Neopterygii		Animalia	Scorpaeniformes	Chordata		Actinopterygii			Scorpaenoidei	Vertebrata	Gnathostomata		Eukaryota	Acanthopterygii	V3167-02
 	transect	Sebastes	308.75	3167	01:33:33:26	 	36.827557	-122.16766	2389764	1.08	06:19.0	Ventana	34.166	01:35:25:26	6.925	Osteichthyes	Scorpaenidae	Sebastes	Neopterygii		Animalia	Scorpaeniformes	Chordata		Actinopterygii			Scorpaenoidei	Vertebrata	Gnathostomata		Eukaryota	Acanthopterygii	V3167-02
 	transect	Rathbunaster californicus	322.79	3167	00:59:09:15	 	36.823936	-122.17022	2464274	1.14	31:52.0	Ventana	34.157	01:01:01:15	7.047		Labidiasteridae	Rathbunaster			Animalia	Forcipulatida	Echinodermata	Rathbunaster californicus	Asteroidea							Eukaryota		V3167-02
 	transect	Phyllospadix	162.11	3167	02:26:07:08	 	36.837025	-122.15805	2467222	2.65	59:21.0	Ventana	33.938	02:27:49:15	9.314		Zosteraceae	Phyllospadix			Plantae	Najadales										Eukaryota		V3167-03
 	transect	Rathbunaster californicus	313.24	3167	01:18:17:24	 	36.825912	-122.16847	2371096	1.08	51:02.0	Ventana	34.161	01:20:09:10	6.953		Labidiasteridae	Rathbunaster			Animalia	Forcipulatida	Echinodermata	Rathbunaster californicus	Asteroidea							Eukaryota		V3167-02
 	transect	Allocentrotus fragilis	305.09	3167	01:27:32:07	 	36.827362	-122.168594	2388551	1.11	00:17.0	Ventana	34.162	01:29:22:20	6.992	Echinoidea	Strongylocentrotidae	Allocentrotus			Animalia	Echinoida	Echinodermata	Allocentrotus fragilis	Euechinoidea			Echinacea				Eukaryota		V3167-02
 	transect	Rathbunaster californicus	309.6	3167	01:35:20:08	 	36.82691	-122.167946	2390260	1.08	08:05.0	Ventana	34.163	01:37:12:07	6.95		Labidiasteridae	Rathbunaster			Animalia	Forcipulatida	Echinodermata	Rathbunaster californicus	Asteroidea							Eukaryota		V3167-02
 	transect	Mediaster aequalis	312.3	3167	01:16:53:27	 	36.826332	-122.16816	2370547	1.07	49:37.0	Ventana	34.165	01:18:45:03	6.917		Goniasteridae	Mediaster			Animalia	Valvatida	Echinodermata	Mediaster aequalis	Asteroidea			Granulosina				Eukaryota		V3167-02
 	transect	Hydrolagus colliei	312.5	3167	01:17:07:27	 	36.826263	-122.16817	2370743	1.07	49:51.0	Ventana	34.166	01:18:59:09	6.915	Chondrichthyes	Chimaeridae	Hydrolagus			Animalia	Chimaeriformes	Chordata	Hydrolagus colliei	Holocephali			Chimaeroidei	Vertebrata			Eukaryota	Holocephalimorpha	V3167-02
 	cruise	Florometra serratissima	172.88	3167	02:38:06:15	 	36.83696	-122.15863	2467388	2.7	11:21.0	Ventana	33.933	02:39:48:05	9.38	Crinoidea	Antedonidae	Florometra			Animalia	Comatulidina	Echinodermata	Florometra serratissima							Antedonacea	Eukaryota		V3167-03
 	transect	Rathbunaster californicus	319.47	3167	00:38:03:09	http://search.mbari.org/ARCHIVE/frameGrabs/Ventana/images/3167/00_39_59_13.jpg	36.824917	-122.17014	2463028	1.15	10:24.0	Ventana	34.155	00:39:59:13	7.058		Labidiasteridae	Rathbunaster			Animalia	Forcipulatida	Echinodermata	Rathbunaster californicus	Asteroidea							Eukaryota		V3167-01
 	transect	Parastichopus leukothele	311.62	3167	01:16:39:12	 	36.8264	-122.168175	2370517	1.07	49:23.0	Ventana	34.165	01:18:31:12	6.917	Holothuroidea	Stichopodidae	Parastichopus			Animalia	Aspidochirotida	Echinodermata	Parastichopus leukothele	Aspidochirotacea							Eukaryota		V3167-02
 	transect	Sebastes	306.94	3167	01:26:24:09	 	36.82701	-122.168785	2372939	1.17	59:08.0	Ventana	34.157	01:28:15:00	7.079	Osteichthyes	Scorpaenidae	Sebastes	Neopterygii		Animalia	Scorpaeniformes	Chordata		Actinopterygii			Scorpaenoidei	Vertebrata	Gnathostomata		Eukaryota	Acanthopterygii	V3167-02
 	transect	Allocentrotus fragilis	303.07	3167	01:29:24:19	 	36.827854	-122.168304	2388982	1.14	02:09.0	Ventana	34.159	01:31:17:05	7.042	Echinoidea	Strongylocentrotidae	Allocentrotus			Animalia	Echinoida	Echinodermata	Allocentrotus fragilis	Euechinoidea			Echinacea				Eukaryota		V3167-02
 	transect	Rathbunaster californicus	313.18	3167	01:18:09:25	 	36.825947	-122.168434	2371066	1.08	50:54.0	Ventana	34.161	01:20:01:27	6.953		Labidiasteridae	Rathbunaster			Animalia	Forcipulatida	Echinodermata	Rathbunaster californicus	Asteroidea							Eukaryota		V3167-02
 	transect	Allocentrotus fragilis	308.83	3167	01:33:57:25	 	36.827408	-122.167694	2389907	1.08	06:43.0	Ventana	34.165	01:35:49:16	6.927	Echinoidea	Strongylocentrotidae	Allocentrotus			Animalia	Echinoida	Echinodermata	Allocentrotus fragilis	Euechinoidea			Echinacea				Eukaryota		V3167-02
 	transect	Allocentrotus fragilis	315.05	3167	01:19:16:08	 	36.825607	-122.168785	2371269	1.09	52:00.0	Ventana	34.161	01:21:06:22	6.971	Echinoidea	Strongylocentrotidae	Allocentrotus			Animalia	Echinoida	Echinodermata	Allocentrotus fragilis	Euechinoidea			Echinacea				Eukaryota		V3167-02
 	transect	Allocentrotus fragilis	305.2	3167	01:27:40:07	 	36.827404	-122.16857	2388581	1.12	00:25.0	Ventana	34.159	01:29:32:04	7.026	Echinoidea	Strongylocentrotidae	Allocentrotus			Animalia	Echinoida	Echinodermata	Allocentrotus fragilis	Euechinoidea			Echinacea				Eukaryota		V3167-02
 	transect	Stylasterias forreri	311.71	3167	01:24:07:14	 	36.826336	-122.16918	2372046	1.07	56:52.0	Ventana	34.165	01:25:58:00	6.925		Asteriidae	Stylasterias			Animalia	Forcipulatida	Echinodermata	Stylasterias forreri	Asteroidea							Eukaryota		V3167-02
 	cruise	cable	137.42	3167	02:48:43:11	http://search.mbari.org/ARCHIVE/frameGrabs/Ventana/images/3167/02_50_26_00.jpg	36.83827	-122.154564	20024051	2.92	21:58.0	Ventana	33.865	02:50:26:00	9.645																			V3167-03
 	transect	Allocentrotus fragilis	305.76	3167	01:27:12:08	 	36.827255	-122.16865	2388401	1.1	59:57.0	Ventana	34.163	01:29:03:25	6.962	Echinoidea	Strongylocentrotidae	Allocentrotus			Animalia	Echinoida	Echinodermata	Allocentrotus fragilis	Euechinoidea			Echinacea				Eukaryota		V3167-02
 	transect	Mediaster aequalis	309.22	3167	01:34:36:09	 	36.827168	-122.167786	2390087	1.08	07:21.0	Ventana	34.165	01:36:26:19	6.927		Goniasteridae	Mediaster			Animalia	Valvatida	Echinodermata	Mediaster aequalis	Asteroidea			Granulosina				Eukaryota		V3167-02
 	cruise	mud	104.24	3167	03:58:00:02	 	36.848217	-122.12891	2471676	4.98	31:41.0	Ventana	33.486	03:59:40:29	11.271																			V3167-04
 	cruise	trench	101.61	3167	04:07:59:07	http://search.mbari.org/ARCHIVE/frameGrabs/Ventana/images/3167/04_09_35_19.jpg	36.850334	-122.12416	2471872	5.05	42:02.0	Ventana	33.48	04:09:35:19	11.29																			V3167-05
 	transect	Sebastes	305.03	3167	01:28:02:21	 	36.827515	-122.16851	2388634	1.16	00:47.0	Ventana	34.154	01:29:53:13	7.099	Osteichthyes	Scorpaenidae	Sebastes	Neopterygii		Animalia	Scorpaeniformes	Chordata		Actinopterygii			Scorpaenoidei	Vertebrata	Gnathostomata		Eukaryota	Acanthopterygii	V3167-02
 	transect	Rathbunaster californicus	321.8	3167	00:45:16:25	 	36.8248	-122.1704	2463148	1.12	17:38.0	Ventana	34.16	00:47:13:06	7.01		Labidiasteridae	Rathbunaster			Animalia	Forcipulatida	Echinodermata	Rathbunaster californicus	Asteroidea							Eukaryota		V3167-01
 	transect	Allocentrotus fragilis	308.92	3167	01:33:45:26	 	36.827484	-122.16767	2389824	1.07	06:31.0	Ventana	34.166	01:35:38:01	6.926	Echinoidea	Strongylocentrotidae	Allocentrotus			Animalia	Echinoida	Echinodermata	Allocentrotus fragilis	Euechinoidea			Echinacea				Eukaryota		V3167-02
 	transect	Rathbunaster californicus	315.77	3167	01:22:37:01	 	36.8258	-122.16942	2371700	1.08	55:21.0	Ventana	34.164	01:24:29:02	6.938		Labidiasteridae	Rathbunaster			Animalia	Forcipulatida	Echinodermata	Rathbunaster californicus	Asteroidea							Eukaryota		V3167-02
 	transect	Parastichopus leukothele	310.72	3167	01:16:15:13	 	36.826523	-122.168205	2370487	1.07	48:59.0	Ventana	34.166	01:18:07:11	6.923	Holothuroidea	Stichopodidae	Parastichopus			Animalia	Aspidochirotida	Echinodermata	Parastichopus leukothele	Aspidochirotacea							Eukaryota		V3167-02
 	transect	Rathbunaster californicus	314.63	3167	01:19:06:08	 	36.82566	-122.16873	2371239	1.1	51:50.0	Ventana	34.163	01:20:58:10	6.956		Labidiasteridae	Rathbunaster			Animalia	Forcipulatida	Echinodermata	Rathbunaster californicus	Asteroidea							Eukaryota		V3167-02
 	cruise	Hydrolagus colliei	302.81	3167	01:31:17:15	 	36.82795	-122.16795	2389478	1.09	04:02.0	Ventana	34.164	01:33:09:19	6.949	Chondrichthyes	Chimaeridae	Hydrolagus			Animalia	Chimaeriformes	Chordata	Hydrolagus colliei	Holocephali			Chimaeroidei	Vertebrata			Eukaryota	Holocephalimorpha	V3167-02
 	transect	Allocentrotus fragilis	319.31	3167	00:19:22:12	 	36.82438	-122.16973	2462396	1.14	51:42.0	Ventana	34.158	00:21:18:16	7.025	Echinoidea	Strongylocentrotidae	Allocentrotus			Animalia	Echinoida	Echinodermata	Allocentrotus fragilis	Euechinoidea			Echinacea				Eukaryota		V3167-01
 	transect	Raja rhina	305.1	3167	01:27:48:21	 	36.827442	-122.16855	2388604	1.12	00:33.0	Ventana	34.159	01:29:40:03	7.026	Chondrichthyes	Rajidae	Raja			Animalia	Rajiformes	Chordata	Raja rhina	Elasmobranchii				Vertebrata			Eukaryota	Batoidea	V3167-02
 	transect	Rathbunaster californicus	309.33	3167	01:35:00:08	 	36.827015	-122.16786	2390170	1.08	07:45.0	Ventana	34.164	01:36:51:11	6.94		Labidiasteridae	Rathbunaster			Animalia	Forcipulatida	Echinodermata	Rathbunaster californicus	Asteroidea							Eukaryota		V3167-02
 	transect	Rathbunaster californicus	309.87	3167	01:15:39:14	 	36.82666	-122.168274	2370457	1.07	48:23.0	Ventana	34.166	01:17:30:12	6.923		Labidiasteridae	Rathbunaster			Animalia	Forcipulatida	Echinodermata	Rathbunaster californicus	Asteroidea							Eukaryota		V3167-02
 	transect	Sabellidae	322.77	3167	00:57:47:02	 	36.824104	-122.1704	2464214	1.16	30:30.0	Ventana	34.155	00:59:38:15	7.087	Polychaeta	Sabellidae				Animalia	Sabellida	Annelida		Palpata							Eukaryota	Canalipalpata	V3167-02
 	transect	Rathbunaster californicus	308.95	3167	01:33:43:26	 	36.827496	-122.16767	2389794	1.07	06:29.0	Ventana	34.166	01:35:35:11	6.926		Labidiasteridae	Rathbunaster			Animalia	Forcipulatida	Echinodermata	Rathbunaster californicus	Asteroidea							Eukaryota		V3167-02
 	cruise	Sebastes diploproa	224.73	3167	02:13:46:16	http://search.mbari.org/ARCHIVE/frameGrabs/Ventana/images/3167/02_15_28_12.jpg	36.83549	-122.16099	2467824	1.64	46:59.0	Ventana	34.109	02:15:28:12	7.936	Osteichthyes	Scorpaenidae	Sebastes	Neopterygii		Animalia	Scorpaeniformes	Chordata	Sebastes diploproa	Actinopterygii			Scorpaenoidei	Vertebrata	Gnathostomata		Eukaryota	Acanthopterygii	V3167-03
 	cruise	cable	305.36	3167	01:27:18:07	http://search.mbari.org/ARCHIVE/frameGrabs/Ventana/images/3167/01_29_09_16.jpg	36.82729	-122.16863	20023991	1.1	00:03.0	Ventana	34.163	01:29:09:16	6.962																			V3167-02
 	transect	Rathbunaster californicus	308.98	3167	01:34:54:08	 	36.82705	-122.16784	2390140	1.08	07:39.0	Ventana	34.164	01:36:45:20	6.94		Labidiasteridae	Rathbunaster			Animalia	Forcipulatida	Echinodermata	Rathbunaster californicus	Asteroidea							Eukaryota		V3167-02
 	transect	Parastichopus leukothele	308.91	3167	01:33:51:26	 	36.827446	-122.16769	2389854	1.07	06:37.0	Ventana	34.166	01:35:43:19	6.926	Holothuroidea	Stichopodidae	Parastichopus			Animalia	Aspidochirotida	Echinodermata	Parastichopus leukothele	Aspidochirotacea							Eukaryota		V3167-02
 	transect	Rathbunaster californicus	315.87	3167	01:19:36:07	 	36.825504	-122.168884	2371354	1.09	52:20.0	Ventana	34.163	01:21:28:24	6.954		Labidiasteridae	Rathbunaster			Animalia	Forcipulatida	Echinodermata	Rathbunaster californicus	Asteroidea							Eukaryota		V3167-02
 	transect	Allocentrotus fragilis	302.72	3167	01:29:57:03	 	36.82796	-122.16823	2389042	1.1	02:41.0	Ventana	34.164	01:31:47:20	6.965	Echinoidea	Strongylocentrotidae	Allocentrotus			Animalia	Echinoida	Echinodermata	Allocentrotus fragilis	Euechinoidea			Echinacea				Eukaryota		V3167-02
 	cruise	Stylasterias forreri	153.84	3167	02:42:11:23	 	36.83736	-122.15718	2467448	2.89	15:26.0	Ventana	33.873	02:43:54:12	9.592		Asteriidae	Stylasterias			Animalia	Forcipulatida	Echinodermata	Stylasterias forreri	Asteroidea							Eukaryota		V3167-03
 	transect	Parastichopus leukothele	309.57	3167	01:35:12:08	 	36.826946	-122.167915	2390230	1.08	07:57.0	Ventana	34.163	01:37:03:18	6.95	Holothuroidea	Stichopodidae	Parastichopus			Animalia	Aspidochirotida	Echinodermata	Parastichopus leukothele	Aspidochirotacea							Eukaryota		V3167-02
 	transect	Allocentrotus fragilis	306.83	3167	01:26:36:09	 	36.827076	-122.16875	2372999	1.17	59:20.0	Ventana	34.157	01:28:28:07	7.079	Echinoidea	Strongylocentrotidae	Allocentrotus			Animalia	Echinoida	Echinodermata	Allocentrotus fragilis	Euechinoidea			Echinacea				Eukaryota		V3167-02
 	transect	Allocentrotus fragilis	305.1	3167	01:27:28:08	 	36.82734	-122.16861	2388521	1.11	00:13.0	Ventana	34.162	01:29:19:25	6.992	Echinoidea	Strongylocentrotidae	Allocentrotus			Animalia	Echinoida	Echinodermata	Allocentrotus fragilis	Euechinoidea			Echinacea				Eukaryota		V3167-02
 	transect	Rathbunaster californicus	312.8	3167	01:17:15:26	 	36.826218	-122.168175	2370773	1.07	50:00.0	Ventana	34.165	01:19:07:27	6.914		Labidiasteridae	Rathbunaster			Animalia	Forcipulatida	Echinodermata	Rathbunaster californicus	Asteroidea							Eukaryota		V3167-02
 	cruise	Parastichopus leukothele	317.28	3167	01:20:24:20	 	36.825382	-122.16917	2371414	1.07	53:08.0	Ventana	34.166	01:22:16:27	6.924	Holothuroidea	Stichopodidae	Parastichopus			Animalia	Aspidochirotida	Echinodermata	Parastichopus leukothele	Aspidochirotacea							Eukaryota		V3167-02
 	transect	Sebastes	316.38	3167	01:22:11:02	 	36.82566	-122.16948	2371617	1.09	54:55.0	Ventana	34.163	01:24:01:15	6.958	Osteichthyes	Scorpaenidae	Sebastes	Neopterygii		Animalia	Scorpaeniformes	Chordata		Actinopterygii			Scorpaenoidei	Vertebrata	Gnathostomata		Eukaryota	Acanthopterygii	V3167-02
 	transect	Rathbunaster californicus	319.14	3167	00:26:08:15	 	36.824512	-122.16946	2462539	1.13	58:28.0	Ventana	34.159	00:28:05:04	7.022		Labidiasteridae	Rathbunaster			Animalia	Forcipulatida	Echinodermata	Rathbunaster californicus	Asteroidea							Eukaryota		V3167-01
 	transect	Parastichopus leukothele	316.8	3167	01:19:54:06	 	36.825428	-122.16899	2371384	1.07	52:38.0	Ventana	34.166	01:21:45:19	6.913	Holothuroidea	Stichopodidae	Parastichopus			Animalia	Aspidochirotida	Echinodermata	Parastichopus leukothele	Aspidochirotacea							Eukaryota		V3167-02
 	cruise	Hydrolagus colliei	307.11	3167	01:50:09:26	 	36.829605	-122.16733	2465487	1.1	22:56.0	Ventana	34.164	01:52:01:15	6.962	Chondrichthyes	Chimaeridae	Hydrolagus			Animalia	Chimaeriformes	Chordata	Hydrolagus colliei	Holocephali			Chimaeroidei	Vertebrata			Eukaryota	Holocephalimorpha	V3167-02
 	transect	Rathbunaster californicus	310.48	3167	01:24:45:27	 	36.826546	-122.16907	2372715	1.08	57:30.0	Ventana	34.165	01:26:36:22	6.934		Labidiasteridae	Rathbunaster			Animalia	Forcipulatida	Echinodermata	Rathbunaster californicus	Asteroidea							Eukaryota		V3167-02
 	transect	Rathbunaster californicus	314.73	3167	01:23:01:01	 	36.82594	-122.16936	2371790	1.07	55:45.0	Ventana	34.165	01:24:53:06	6.926		Labidiasteridae	Rathbunaster			Animalia	Forcipulatida	Echinodermata	Rathbunaster californicus	Asteroidea							Eukaryota		V3167-02
 	transect	Agonidae	313.01	3167	01:18:36:09	 	36.825825	-122.16858	2371149	1.1	51:20.0	Ventana	34.16	01:20:27:08	6.984	Osteichthyes	Agonidae		Neopterygii		Animalia	Scorpaeniformes	Chordata		Actinopterygii				Vertebrata	Gnathostomata		Eukaryota	Acanthopterygii	V3167-02
 	transect	Allocentrotus fragilis	306.09	3167	01:26:52:08	 	36.827156	-122.16871	2388318	1.12	59:37.0	Ventana	34.164	01:28:44:04	6.991	Echinoidea	Strongylocentrotidae	Allocentrotus			Animalia	Echinoida	Echinodermata	Allocentrotus fragilis	Euechinoidea			Echinacea				Eukaryota		V3167-02
 	transect	Rathbunaster californicus	312.91	3167	01:23:41:14	 	36.826183	-122.16925	2371933	1.08	56:26.0	Ventana	34.165	01:25:33:14	6.929		Labidiasteridae	Rathbunaster			Animalia	Forcipulatida	Echinodermata	Rathbunaster californicus	Asteroidea							Eukaryota		V3167-02
 	transect	Rathbunaster californicus	313.33	3167	01:18:46:08	 	36.82577	-122.16863	2371179	1.11	51:30.0	Ventana	34.161	01:20:38:13	6.99		Labidiasteridae	Rathbunaster			Animalia	Forcipulatida	Echinodermata	Rathbunaster californicus	Asteroidea							Eukaryota		V3167-02
 	transect	Rathbunaster californicus	308.88	3167	01:32:59:27	 	36.827705	-122.16764	2389621	1.08	05:44.0	Ventana	34.165	01:34:51:16	6.927		Labidiasteridae	Rathbunaster			Animalia	Forcipulatida	Echinodermata	Rathbunaster californicus	Asteroidea							Eukaryota		V3167-02
 	cruise	Parastichopus leukothele	302.69	3167	01:45:57:04	 	36.828476	-122.16796	2390890	1.1	18:42.0	Ventana	34.163	01:47:49:02	6.962	Holothuroidea	Stichopodidae	Parastichopus			Animalia	Aspidochirotida	Echinodermata	Parastichopus leukothele	Aspidochirotacea							Eukaryota		V3167-02
 	transect	Rathbunaster californicus	312.96	3167	01:17:55:25	 	36.826023	-122.168335	2370976	1.07	50:40.0	Ventana	34.165	01:19:48:01	6.914		Labidiasteridae	Rathbunaster			Animalia	Forcipulatida	Echinodermata	Rathbunaster californicus	Asteroidea							Eukaryota		V3167-02
 	transect	Sebastes	306.38	3167	01:26:46:09	 	36.82712	-122.168724	2388288	1.12	59:30.0	Ventana	34.164	01:28:37:21	6.991	Osteichthyes	Scorpaenidae	Sebastes	Neopterygii		Animalia	Scorpaeniformes	Chordata		Actinopterygii			Scorpaenoidei	Vertebrata	Gnathostomata		Eukaryota	Acanthopterygii	V3167-02
 	transect	Parastichopus leukothele	310.65	3167	01:24:35:28	 	36.826492	-122.1691	2372685	1.08	57:20.0	Ventana	34.165	01:26:27:05	6.93	Holothuroidea	Stichopodidae	Parastichopus			Animalia	Aspidochirotida	Echinodermata	Parastichopus leukothele	Aspidochirotacea							Eukaryota		V3167-02
 	transect	Sebastes	308.62	3167	01:34:13:25	http://search.mbari.org/ARCHIVE/frameGrabs/Ventana/images/3167/01_36_06_06.jpg	36.827305	-122.167725	2389997	1.08	06:59.0	Ventana	34.165	01:36:06:06	6.933	Osteichthyes	Scorpaenidae	Sebastes	Neopterygii		Animalia	Scorpaeniformes	Chordata		Actinopterygii			Scorpaenoidei	Vertebrata	Gnathostomata		Eukaryota	Acanthopterygii	V3167-02
 	transect	Allocentrotus fragilis	307.78	3167	01:25:55:25	 	36.826893	-122.16885	2372826	1.19	58:40.0	Ventana	34.152	01:27:48:04	7.21	Echinoidea	Strongylocentrotidae	Allocentrotus			Animalia	Echinoida	Echinodermata	Allocentrotus fragilis	Euechinoidea			Echinacea				Eukaryota		V3167-02
 	cruise	Stylasterias forreri	329.34	3167	00:11:06:13	http://search.mbari.org/ARCHIVE/frameGrabs/Ventana/images/3167/00_13_03_11.jpg	36.822655	-122.17062	2462161	1.1	43:25.0	Ventana	34.165	00:13:03:11	6.943		Asteriidae	Stylasterias			Animalia	Forcipulatida	Echinodermata	Stylasterias forreri	Asteroidea							Eukaryota		V3167-01
 	cruise	Parastichopus leukothele	159.39	3167	02:28:30:03	 	36.837357	-122.158035	2467305	2.71	01:43.0	Ventana	33.928	02:30:12:12	9.373	Holothuroidea	Stichopodidae	Parastichopus			Animalia	Aspidochirotida	Echinodermata	Parastichopus leukothele	Aspidochirotacea							Eukaryota		V3167-03
 	transect	Hydrolagus colliei	305.04	3167	01:28:08:21	 	36.827553	-122.16849	2388664	1.13	00:53.0	Ventana	34.162	01:29:59:06	7	Chondrichthyes	Chimaeridae	Hydrolagus			Animalia	Chimaeriformes	Chordata	Hydrolagus colliei	Holocephali			Chimaeroidei	Vertebrata			Eukaryota	Holocephalimorpha	V3167-02
 	transect	Rathbunaster californicus	316.82	3167	01:21:59:02	 	36.825603	-122.1695	2371587	1.09	54:43.0	Ventana	34.164	01:23:51:02	6.958		Labidiasteridae	Rathbunaster			Animalia	Forcipulatida	Echinodermata	Rathbunaster californicus	Asteroidea							Eukaryota		V3167-02
 	transect	Allocentrotus fragilis	303.73	3167	01:29:00:19	 	36.82776	-122.168365	2388899	1.09	01:45.0	Ventana	34.163	01:30:52:17	6.964	Echinoidea	Strongylocentrotidae	Allocentrotus			Animalia	Echinoida	Echinodermata	Allocentrotus fragilis	Euechinoidea			Echinacea				Eukaryota		V3167-02
 	transect	Rathbunaster californicus	308.79	3167	01:32:55:12	 	36.827724	-122.16764	2389605	1.08	05:40.0	Ventana	34.165	01:34:48:01	6.927		Labidiasteridae	Rathbunaster			Animalia	Forcipulatida	Echinodermata	Rathbunaster californicus	Asteroidea							Eukaryota		V3167-02
 	cruise	Parmaturus xaniurus	320.9	3167	00:16:28:03	 	36.824257	-122.17014	2462223	1.12	48:47.0	Ventana	34.16	00:18:23:03	6.993	Chondrichthyes	Scyliorhinidae	Parmaturus			Animalia	Carcharhiniformes	Chordata	Parmaturus xaniurus	Elasmobranchii				Vertebrata			Eukaryota	Galeomorphi	V3167-01
 	transect	Parastichopus leukothele	306.88	3167	01:26:32:09	 	36.827057	-122.168755	2372978	1.17	59:16.0	Ventana	34.157	01:28:24:13	7.079	Holothuroidea	Stichopodidae	Parastichopus			Animalia	Aspidochirotida	Echinodermata	Parastichopus leukothele	Aspidochirotacea							Eukaryota		V3167-02
 	transect	Sebastes diploproa	314.81	3167	01:23:21:15	 	36.82606	-122.169304	2371857	1.07	56:05.0	Ventana	34.165	01:25:12:08	6.923	Osteichthyes	Scorpaenidae	Sebastes	Neopterygii		Animalia	Scorpaeniformes	Chordata	Sebastes diploproa	Actinopterygii			Scorpaenoidei	Vertebrata	Gnathostomata		Eukaryota	Acanthopterygii	V3167-02
 	transect	Sebastes	305.19	3167	01:27:22:08	 	36.82731	-122.168625	2388484	1.1	00:07.0	Ventana	34.163	01:29:12:16	6.962	Osteichthyes	Scorpaenidae	Sebastes	Neopterygii		Animalia	Scorpaeniformes	Chordata		Actinopterygii			Scorpaenoidei	Vertebrata	Gnathostomata		Eukaryota	Acanthopterygii	V3167-02
 	transect	Sebastes	308.9	3167	01:34:07:25	 	36.827343	-122.16771	2389958	1.08	06:53.0	Ventana	34.165	01:35:58:22	6.933	Osteichthyes	Scorpaenidae	Sebastes	Neopterygii		Animalia	Scorpaeniformes	Chordata		Actinopterygii			Scorpaenoidei	Vertebrata	Gnathostomata		Eukaryota	Acanthopterygii	V3167-02
 	cruise	Allocentrotus fragilis	308.56	3167	01:36:24:21	 	36.826775	-122.16835	2390756	1.08	09:09.0	Ventana	34.166	01:38:15:12	6.928	Echinoidea	Strongylocentrotidae	Allocentrotus			Animalia	Echinoida	Echinodermata	Allocentrotus fragilis	Euechinoidea			Echinacea				Eukaryota		V3167-02
 	transect	Raja rhina	303.39	3167	01:29:10:19	 	36.8278	-122.16834	2388929	1.12	01:55.0	Ventana	34.159	01:31:02:10	7.03	Chondrichthyes	Rajidae	Raja			Animalia	Rajiformes	Chordata	Raja rhina	Elasmobranchii				Vertebrata			Eukaryota	Batoidea	V3167-02
 	cruise	Parastichopus leukothele	114.05	3167	03:10:14:16	 	36.841682	-122.14464	2468472	3.75	43:52.0	Ventana	33.688	03:11:55:07	10.571	Holothuroidea	Stichopodidae	Parastichopus			Animalia	Aspidochirotida	Echinodermata	Parastichopus leukothele	Aspidochirotacea							Eukaryota		V3167-04
 	transect	Allocentrotus fragilis	306.94	3167	01:26:24:09	 	36.82701	-122.168785	2372948	1.17	59:08.0	Ventana	34.157	01:28:15:00	7.079	Echinoidea	Strongylocentrotidae	Allocentrotus			Animalia	Echinoida	Echinodermata	Allocentrotus fragilis	Euechinoidea			Echinacea				Eukaryota		V3167-02
 	transect	Parastichopus leukothele	323.03	3167	00:48:55:18	 	36.824623	-122.170815	2463252	1.18	21:17.0	Ventana	34.153	00:50:51:21	7.112	Holothuroidea	Stichopodidae	Parastichopus			Animalia	Aspidochirotida	Echinodermata	Parastichopus leukothele	Aspidochirotacea							Eukaryota		V3167-01
 	transect	Rathbunaster californicus	308.58	3167	01:33:03:27	 	36.827694	-122.16764	2389635	1.08	05:48.0	Ventana	34.165	01:34:54:29	6.927		Labidiasteridae	Rathbunaster			Animalia	Forcipulatida	Echinodermata	Rathbunaster californicus	Asteroidea							Eukaryota		V3167-02
 	transect	Ceriantharia	168.5	3167	02:33:49:09	 	36.83733	-122.15896	2467351	2.67	07:03.0	Ventana	33.94	02:35:33:10	9.329	Anthozoa					Animalia	Ceriantharia	Cnidaria		Ceriantipatharia							Eukaryota		V3167-03
 	transect	Sebastes paucispinis	308.62	3167	01:34:11:25	 	36.82732	-122.167725	2389988	1.08	06:57.0	Ventana	34.165	01:36:02:14	6.933	Osteichthyes	Scorpaenidae	Sebastes	Neopterygii		Animalia	Scorpaeniformes	Chordata	Sebastes paucispinis	Actinopterygii			Scorpaenoidei	Vertebrata	Gnathostomata		Eukaryota	Acanthopterygii	V3167-02
 	cruise	Stylasterias forreri	331.75	3167	00:09:38:15	 	36.822273	-122.170746	2462131	1.11	41:57.0	Ventana	34.162	00:11:34:10	6.948		Asteriidae	Stylasterias			Animalia	Forcipulatida	Echinodermata	Stylasterias forreri	Asteroidea							Eukaryota		V3167-01
 	cruise	Agonidae	335.18	3167	00:07:47:19	 	36.821716	-122.170975	2462101	1.12	40:06.0	Ventana	34.159	00:09:43:05	6.967	Osteichthyes	Agonidae		Neopterygii		Animalia	Scorpaeniformes	Chordata		Actinopterygii				Vertebrata	Gnathostomata		Eukaryota	Acanthopterygii	V3167-01
 	transect	Allocentrotus fragilis	318.51	3167	00:35:50:13	 	36.82488	-122.16966	2462959	1.14	08:11.0	Ventana	34.158	00:37:46:01	7.036	Echinoidea	Strongylocentrotidae	Allocentrotus			Animalia	Echinoida	Echinodermata	Allocentrotus fragilis	Euechinoidea			Echinacea				Eukaryota		V3167-01
 	transect	Allocentrotus fragilis	308.32	3167	01:33:13:26	 	36.827663	-122.167656	2389665	1.08	05:58.0	Ventana	34.166	01:35:05:19	6.926	Echinoidea	Strongylocentrotidae	Allocentrotus			Animalia	Echinoida	Echinodermata	Allocentrotus fragilis	Euechinoidea			Echinacea				Eukaryota		V3167-02
 	transect	Rathbunaster californicus	313.04	3167	01:18:24:09	 	36.825886	-122.16851	2371119	1.1	51:08.0	Ventana	34.16	01:20:16:07	6.984		Labidiasteridae	Rathbunaster			Animalia	Forcipulatida	Echinodermata	Rathbunaster californicus	Asteroidea							Eukaryota		V3167-02
 	transect	Allocentrotus fragilis	308.74	3167	01:34:01:25	 	36.82738	-122.1677	2389928	1.08	06:47.0	Ventana	34.165	01:35:52:07	6.927	Echinoidea	Strongylocentrotidae	Allocentrotus			Animalia	Echinoida	Echinodermata	Allocentrotus fragilis	Euechinoidea			Echinacea				Eukaryota		V3167-02
 	transect	Rathbunaster californicus	308.78	3167	01:32:51:12	 	36.827736	-122.16764	2389575	1.08	05:36.0	Ventana	34.165	01:34:43:21	6.93		Labidiasteridae	Rathbunaster			Animalia	Forcipulatida	Echinodermata	Rathbunaster californicus	Asteroidea							Eukaryota		V3167-02
 	transect	Rathbunaster californicus	312.57	3167	01:17:13:26	 	36.82623	-122.168175	2370766	1.07	49:58.0	Ventana	34.165	01:19:04:26	6.914		Labidiasteridae	Rathbunaster			Animalia	Forcipulatida	Echinodermata	Rathbunaster californicus	Asteroidea							Eukaryota		V3167-02
 	transect	Rathbunaster californicus	321.55	3167	00:46:15:09	 	36.824883	-122.17063	2463222	1.13	18:36.0	Ventana	34.162	00:48:11:10	7.03		Labidiasteridae	Rathbunaster			Animalia	Forcipulatida	Echinodermata	Rathbunaster californicus	Asteroidea							Eukaryota		V3167-01
 	cruise	Parastichopus leukothele	125.11	3167	02:57:49:09	 	36.839443	-122.1514	2467644	3.14	31:04.0	Ventana	33.786	02:59:32:04	10.06	Holothuroidea	Stichopodidae	Parastichopus			Animalia	Aspidochirotida	Echinodermata	Parastichopus leukothele	Aspidochirotacea							Eukaryota		V3167-03
 	transect	Allocentrotus fragilis	310.76	3167	01:24:29:13	 	36.82646	-122.16911	2372918	1.08	57:14.0	Ventana	34.165	01:26:21:23	6.93	Echinoidea	Strongylocentrotidae	Allocentrotus			Animalia	Echinoida	Echinodermata	Allocentrotus fragilis	Euechinoidea			Echinacea				Eukaryota		V3167-02
 	transect	Rathbunaster californicus	308.91	3167	01:33:51:26	 	36.827446	-122.16769	2389868	1.07	06:37.0	Ventana	34.166	01:35:43:19	6.926		Labidiasteridae	Rathbunaster			Animalia	Forcipulatida	Echinodermata	Rathbunaster californicus	Asteroidea							Eukaryota		V3167-02
 	transect	Rathbunaster californicus	309.57	3167	01:35:12:08	 	36.826946	-122.167915	2390221	1.08	07:57.0	Ventana	34.163	01:37:03:18	6.95		Labidiasteridae	Rathbunaster			Animalia	Forcipulatida	Echinodermata	Rathbunaster californicus	Asteroidea							Eukaryota		V3167-02
 	transect	Sebastes	305.09	3167	01:27:32:07	 	36.827362	-122.168594	2388544	1.11	00:17.0	Ventana	34.162	01:29:22:20	6.992	Osteichthyes	Scorpaenidae	Sebastes	Neopterygii		Animalia	Scorpaeniformes	Chordata		Actinopterygii			Scorpaenoidei	Vertebrata	Gnathostomata		Eukaryota	Acanthopterygii	V3167-02
 	transect	Octopus rubescens	170.39	3167	02:23:06:29	http://search.mbari.org/ARCHIVE/frameGrabs/Ventana/images/3167/02_24_50_11.jpg	36.836884	-122.15858	2467088	2.42	56:20.0	Ventana	33.973	02:24:50:11	9.039	Cephalopoda	Octopodidae	Octopus			Animalia	Octopoda	Mollusca	Octopus rubescens	Coleoidea	Octopodinae		Incirrata				Eukaryota	Octopodiformes	V3167-03
 	transect	Rathbunaster californicus	318.35	3167	00:37:04:25	 	36.824898	-122.16993	2462989	1.16	09:25.0	Ventana	34.157	00:39:00:04	7.073		Labidiasteridae	Rathbunaster			Animalia	Forcipulatida	Echinodermata	Rathbunaster californicus	Asteroidea							Eukaryota		V3167-01
 	transect	Allocentrotus fragilis	322.86	3167	00:53:54:24	 	36.82432	-122.17056	2463372	1.17	26:16.0	Ventana	34.155	00:55:51:28	7.097	Echinoidea	Strongylocentrotidae	Allocentrotus			Animalia	Echinoida	Echinodermata	Allocentrotus fragilis	Euechinoidea			Echinacea				Eukaryota		V3167-01
 	transect	Rathbunaster californicus	308.83	3167	01:33:57:25	 	36.827408	-122.167694	2389898	1.08	06:43.0	Ventana	34.165	01:35:49:16	6.927		Labidiasteridae	Rathbunaster			Animalia	Forcipulatida	Echinodermata	Rathbunaster californicus	Asteroidea							Eukaryota		V3167-02
 	transect	Rathbunaster californicus	315.5	3167	01:19:26:07	 	36.825554	-122.16883	2371292	1.09	52:10.0	Ventana	34.163	01:21:17:18	6.954		Labidiasteridae	Rathbunaster			Animalia	Forcipulatida	Echinodermata	Rathbunaster californicus	Asteroidea							Eukaryota		V3167-02
 	transect	Allocentrotus fragilis	319.35	3167	00:37:59:08	 	36.824913	-122.17013	2463019	1.16	10:19.0	Ventana	34.156	00:39:54:14	7.069	Echinoidea	Strongylocentrotidae	Allocentrotus			Animalia	Echinoida	Echinodermata	Allocentrotus fragilis	Euechinoidea			Echinacea				Eukaryota		V3167-01
 	cruise	Pleuronectiformes	129.86	3167	02:52:34:04	 	36.83874	-122.15322	2467584	3.06	25:49.0	Ventana	33.824	02:54:16:01	9.818	Osteichthyes			Neopterygii		Animalia	Pleuronectiformes	Chordata		Actinopterygii				Vertebrata	Gnathostomata		Eukaryota	Acanthopterygii	V3167-03
 	transect	Rathbunaster californicus	309.64	3167	01:35:18:08	 	36.826916	-122.16794	2390251	1.08	08:03.0	Ventana	34.163	01:37:09:23	6.95		Labidiasteridae	Rathbunaster			Animalia	Forcipulatida	Echinodermata	Rathbunaster californicus	Asteroidea							Eukaryota		V3167-02
 	transect	Rathbunaster californicus	318.98	3167	00:24:36:03	 	36.824413	-122.1696	2462456	1.13	56:55.0	Ventana	34.163	00:26:32:14	7.013		Labidiasteridae	Rathbunaster			Animalia	Forcipulatida	Echinodermata	Rathbunaster californicus	Asteroidea							Eukaryota		V3167-01
 	cruise	Metridium farcimen	226.55	3167	02:13:38:16	http://search.mbari.org/ARCHIVE/frameGrabs/Ventana/images/3167/02_15_21_21.jpg	36.83547	-122.161026	2466878	1.63	46:51.0	Ventana	34.108	02:15:21:21	7.938	Anthozoa	Metridiidae	Metridium			Animalia	Actiniaria	Cnidaria	Metridium farcimen	Hexacorallia			Nyantheae				Eukaryota		V3167-03
 	transect	Parastichopus leukothele	314.96	3167	01:19:14:07	 	36.82562	-122.16878	2371262	1.09	51:58.0	Ventana	34.161	01:21:05:14	6.971	Holothuroidea	Stichopodidae	Parastichopus			Animalia	Aspidochirotida	Echinodermata	Parastichopus leukothele	Aspidochirotacea							Eukaryota		V3167-02
 	transect	Asteroidea	305.15	3167	01:27:36:07	 	36.82738	-122.16859	2388574	1.11	00:21.0	Ventana	34.162	01:29:27:26	6.992						Animalia		Echinodermata		Asteroidea							Eukaryota		V3167-02
 	transect	Rathbunaster californicus	310.04	3167	01:24:57:27	 	36.82662	-122.16902	2372736	1.09	57:42.0	Ventana	34.165	01:26:49:26	6.968		Labidiasteridae	Rathbunaster			Animalia	Forcipulatida	Echinodermata	Rathbunaster californicus	Asteroidea							Eukaryota		V3167-02
 	transect	Sebastes	309.05	3167	01:34:23:24	 	36.827244	-122.167755	2390048	1.08	07:09.0	Ventana	34.165	01:36:15:11	6.927	Osteichthyes	Scorpaenidae	Sebastes	Neopterygii		Animalia	Scorpaeniformes	Chordata		Actinopterygii			Scorpaenoidei	Vertebrata	Gnathostomata		Eukaryota	Acanthopterygii	V3167-02
 	transect	Hippasteria	313.23	3167	01:18:15:24	 	36.825924	-122.168465	2371089	1.08	51:00.0	Ventana	34.161	01:20:08:05	6.953		Goniasteridae	Hippasteria			Animalia	Valvatida	Echinodermata		Asteroidea			Granulosina				Eukaryota		V3167-02
 	transect	Florometra serratissima	309.15	3167	01:25:29:26	 	36.826775	-122.16892	2372775	1.11	58:14.0	Ventana	34.161	01:27:20:12	6.98	Crinoidea	Antedonidae	Florometra			Animalia	Comatulidina	Echinodermata	Florometra serratissima							Antedonacea	Eukaryota		V3167-02
 	transect	Allocentrotus fragilis	311.83	3167	01:24:05:14	 	36.826324	-122.16919	2372030	1.07	56:50.0	Ventana	34.165	01:25:56:01	6.925	Echinoidea	Strongylocentrotidae	Allocentrotus			Animalia	Echinoida	Echinodermata	Allocentrotus fragilis	Euechinoidea			Echinacea				Eukaryota		V3167-02
 	transect	Allocentrotus fragilis	312.35	3167	01:16:55:27	 	36.826324	-122.16816	2370556	1.07	49:39.0	Ventana	34.166	01:18:46:25	6.915	Echinoidea	Strongylocentrotidae	Allocentrotus			Animalia	Echinoida	Echinodermata	Allocentrotus fragilis	Euechinoidea			Echinacea				Eukaryota		V3167-02
 	transect	Raja rhina	305.04	3167	01:28:08:21	 	36.827553	-122.16849	2388657	1.13	00:53.0	Ventana	34.162	01:29:59:06	7	Chondrichthyes	Rajidae	Raja			Animalia	Rajiformes	Chordata	Raja rhina	Elasmobranchii				Vertebrata			Eukaryota	Batoidea	V3167-02
 	transect	Parastichopus leukothele	164.42	3167	02:25:27:09	 	36.836983	-122.15817	2467201	2.65	58:40.0	Ventana	33.943	02:27:10:14	9.291	Holothuroidea	Stichopodidae	Parastichopus			Animalia	Aspidochirotida	Echinodermata	Parastichopus leukothele	Aspidochirotacea							Eukaryota		V3167-03
 	transect	Rathbunaster californicus	319.36	3167	00:27:30:13	 	36.824646	-122.16923	2462749	1.14	59:50.0	Ventana	34.158	00:29:25:28	7.028		Labidiasteridae	Rathbunaster			Animalia	Forcipulatida	Echinodermata	Rathbunaster californicus	Asteroidea							Eukaryota		V3167-01
 	transect	Parastichopus leukothele	308.75	3167	01:33:33:26	 	36.827557	-122.16766	2389755	1.08	06:19.0	Ventana	34.166	01:35:25:26	6.925	Holothuroidea	Stichopodidae	Parastichopus			Animalia	Aspidochirotida	Echinodermata	Parastichopus leukothele	Aspidochirotacea							Eukaryota		V3167-02
 	transect	Allocentrotus fragilis	311.62	3167	01:16:39:12	 	36.8264	-122.168175	2370526	1.07	49:23.0	Ventana	34.165	01:18:31:12	6.917	Echinoidea	Strongylocentrotidae	Allocentrotus			Animalia	Echinoida	Echinodermata	Allocentrotus fragilis	Euechinoidea			Echinacea				Eukaryota		V3167-02
 	cruise	Parastichopus leukothele	303.6	3167	01:46:31:03	 	36.82867	-122.16786	2390899	1.09	19:17.0	Ventana	34.163	01:48:21:13	6.966	Holothuroidea	Stichopodidae	Parastichopus			Animalia	Aspidochirotida	Echinodermata	Parastichopus leukothele	Aspidochirotacea							Eukaryota		V3167-02
 	transect	Rathbunaster californicus	313.07	3167	01:17:31:25	 	36.82614	-122.16822	2370886	1.07	50:16.0	Ventana	34.166	01:19:22:05	6.912		Labidiasteridae	Rathbunaster			Animalia	Forcipulatida	Echinodermata	Rathbunaster californicus	Asteroidea							Eukaryota		V3167-02
 	transect	Rathbunaster californicus	311.85	3167	01:23:59:14	 	36.82629	-122.169205	2372000	1.07	56:44.0	Ventana	34.165	01:25:49:23	6.925		Labidiasteridae	Rathbunaster			Animalia	Forcipulatida	Echinodermata	Rathbunaster californicus	Asteroidea							Eukaryota		V3167-02
 	cruise	Sebastes diploproa	249.54	3167	02:10:07:22	 	36.834747	-122.16208	2466855	1.54	43:20.0	Ventana	34.117	02:11:50:28	7.766	Osteichthyes	Scorpaenidae	Sebastes	Neopterygii		Animalia	Scorpaeniformes	Chordata	Sebastes diploproa	Actinopterygii			Scorpaenoidei	Vertebrata	Gnathostomata		Eukaryota	Acanthopterygii	V3167-03
 	transect	Hippasteria	309.01	3167	01:34:50:09	 	36.827076	-122.16782	2390131	1.08	07:35.0	Ventana	34.165	01:36:41:21	6.933		Goniasteridae	Hippasteria			Animalia	Valvatida	Echinodermata		Asteroidea			Granulosina				Eukaryota		V3167-02
 	cruise	Stylasterias forreri	303.25	3167	01:31:29:15	 	36.827923	-122.167885	2389485	1.08	04:14.0	Ventana	34.165	01:33:20:03	6.94		Asteriidae	Stylasterias			Animalia	Forcipulatida	Echinodermata	Stylasterias forreri	Asteroidea							Eukaryota		V3167-02
 	transect	Stomphia	320.52	3167	00:38:31:08	 	36.824924	-122.170235	2463049	1.14	10:52.0	Ventana	34.16	00:40:26:17	7.03	Anthozoa	Actinostolidae	Stomphia			Animalia	Actiniaria	Cnidaria		Hexacorallia			Nyantheae				Eukaryota		V3167-01
 	transect	Hippasteria	313.12	3167	01:17:45:25	 	36.826073	-122.16828	2370939	1.07	50:30.0	Ventana	34.166	01:19:38:01	6.913		Goniasteridae	Hippasteria			Animalia	Valvatida	Echinodermata		Asteroidea			Granulosina				Eukaryota		V3167-02
 	transect	Rathbunaster californicus	308.83	3167	01:33:27:26	 	36.82759	-122.16766	2389725	1.08	06:13.0	Ventana	34.166	01:35:18:22	6.925		Labidiasteridae	Rathbunaster			Animalia	Forcipulatida	Echinodermata	Rathbunaster californicus	Asteroidea							Eukaryota		V3167-02
 	transect	Rathbunaster californicus	316.32	3167	01:22:13:02	 	36.82567	-122.16948	2371624	1.09	54:57.0	Ventana	34.163	01:24:05:04	6.958		Labidiasteridae	Rathbunaster			Animalia	Forcipulatida	Echinodermata	Rathbunaster californicus	Asteroidea							Eukaryota		V3167-02
 	transect	Parastichopus leukothele	315.51	3167	01:22:41:01	 	36.825825	-122.16941	2371707	1.08	55:25.0	Ventana	34.166	01:24:31:25	6.927	Holothuroidea	Stichopodidae	Parastichopus			Animalia	Aspidochirotida	Echinodermata	Parastichopus leukothele	Aspidochirotacea							Eukaryota		V3167-02
 	transect	Allocentrotus fragilis	305.06	3167	01:27:58:21	 	36.827496	-122.168526	2388627	1.16	00:43.0	Ventana	34.154	01:29:49:26	7.099	Echinoidea	Strongylocentrotidae	Allocentrotus			Animalia	Echinoida	Echinodermata	Allocentrotus fragilis	Euechinoidea			Echinacea				Eukaryota		V3167-02
 	transect	Allocentrotus fragilis	308.92	3167	01:33:45:26	 	36.827484	-122.16767	2389815	1.07	06:31.0	Ventana	34.166	01:35:38:01	6.926	Echinoidea	Strongylocentrotidae	Allocentrotus			Animalia	Echinoida	Echinodermata	Allocentrotus fragilis	Euechinoidea			Echinacea				Eukaryota		V3167-02
 	transect	Rathbunaster californicus	316	3167	01:19:40:07	 	36.825485	-122.16891	2371361	1.08	52:24.0	Ventana	34.166	01:21:31:19	6.929		Labidiasteridae	Rathbunaster			Animalia	Forcipulatida	Echinodermata	Rathbunaster californicus	Asteroidea							Eukaryota		V3167-02
 	transect	Allocentrotus fragilis	305.95	3167	01:27:00:08	 	36.827194	-122.168686	2388341	1.1	59:45.0	Ventana	34.164	01:28:51:24	6.964	Echinoidea	Strongylocentrotidae	Allocentrotus			Animalia	Echinoida	Echinodermata	Allocentrotus fragilis	Euechinoidea			Echinacea				Eukaryota		V3167-02
 	transect	Parastichopus leukothele	309.31	3167	01:34:42:09	 	36.82712	-122.1678	2390101	1.08	07:27.0	Ventana	34.165	01:36:32:27	6.933	Holothuroidea	Stichopodidae	Parastichopus			Animalia	Aspidochirotida	Echinodermata	Parastichopus leukothele	Aspidochirotacea							Eukaryota		V3167-02
 	transect	Rathbunaster californicus	319.39	3167	00:28:10:26	 	36.8247	-122.16913	2462779	1.15	00:31.0	Ventana	34.158	00:30:06:21	7.043		Labidiasteridae	Rathbunaster			Animalia	Forcipulatida	Echinodermata	Rathbunaster californicus	Asteroidea							Eukaryota		V3167-01
 	transect	Allocentrotus fragilis	310.49	3167	01:24:41:27	 	36.826527	-122.169075	2372706	1.08	57:26.0	Ventana	34.165	01:26:33:24	6.934	Echinoidea	Strongylocentrotidae	Allocentrotus			Animalia	Echinoida	Echinodermata	Allocentrotus fragilis	Euechinoidea			Echinacea				Eukaryota		V3167-02
 	transect	Hippasteria	312.72	3167	01:23:45:14	 	36.82621	-122.16924	2371940	1.08	56:30.0	Ventana	34.165	01:25:36:03	6.929		Goniasteridae	Hippasteria			Animalia	Valvatida	Echinodermata		Asteroidea			Granulosina				Eukaryota		V3167-02
 	transect	Stylasterias forreri	313.19	3167	01:18:42:09	 	36.82579	-122.16861	2371172	1.11	51:26.0	Ventana	34.161	01:20:33:17	6.99		Asteriidae	Stylasterias			Animalia	Forcipulatida	Echinodermata	Stylasterias forreri	Asteroidea							Eukaryota		V3167-02
 	transect	Rathbunaster californicus	313	3167	01:17:19:26	 	36.8262	-122.16818	2370796	1.07	50:04.0	Ventana	34.165	01:19:11:07	6.914		Labidiasteridae	Rathbunaster			Animalia	Forcipulatida	Echinodermata	Rathbunaster californicus	Asteroidea							Eukaryota		V3167-02
 	transect	Rathbunaster californicus	310.65	3167	01:24:33:27	 	36.82648	-122.169106	2372676	1.08	57:18.0	Ventana	34.165	01:26:24:19	6.93		Labidiasteridae	Rathbunaster			Animalia	Forcipulatida	Echinodermata	Rathbunaster californicus	Asteroidea							Eukaryota		V3167-02
 	cruise	mud	157.7	3167	02:27:43:20	 	36.837185	-122.15787	2467298	2.73	00:57.0	Ventana	33.924	02:29:26:09	9.41																			V3167-03
 	transect	Allocentrotus fragilis	315.14	3167	01:22:47:01	 	36.82586	-122.169395	2371737	1.08	55:31.0	Ventana	34.166	01:24:38:07	6.927	Echinoidea	Strongylocentrotidae	Allocentrotus			Animalia	Echinoida	Echinodermata	Allocentrotus fragilis	Euechinoidea			Echinacea				Eukaryota		V3167-02
 	transect	Allocentrotus fragilis	313.52	3167	01:18:52:08	 	36.82574	-122.16866	2371202	1.11	51:36.0	Ventana	34.161	01:20:43:16	6.99	Echinoidea	Strongylocentrotidae	Allocentrotus			Animalia	Echinoida	Echinodermata	Allocentrotus fragilis	Euechinoidea			Echinacea				Eukaryota		V3167-02
 	cruise	Hippasteria	327.85	3167	00:11:54:26	 	36.822918	-122.170555	2462170	1.11	44:14.0	Ventana	34.163	00:13:51:00	6.959		Goniasteridae	Hippasteria			Animalia	Valvatida	Echinodermata		Asteroidea			Granulosina				Eukaryota		V3167-01
 	cruise	Rathbunaster californicus	110.54	3167	03:28:42:26	 	36.842937	-122.13922	2470825	4.5	02:22.0	Ventana	33.566	03:30:22:19	11.035		Labidiasteridae	Rathbunaster			Animalia	Forcipulatida	Echinodermata	Rathbunaster californicus	Asteroidea							Eukaryota		V3167-04
 	cruise	Mediaster aequalis	191.08	3167	02:18:25:22	 	36.83639	-122.15964	2467877	2.19	51:38.0	Ventana	34.017	02:20:07:22	8.744		Goniasteridae	Mediaster			Animalia	Valvatida	Echinodermata	Mediaster aequalis	Asteroidea			Granulosina				Eukaryota		V3167-03
 	transect	Sebastolobus	309.33	3167	01:35:00:08	 	36.827015	-122.16786	2390161	1.08	07:45.0	Ventana	34.164	01:36:51:11	6.94	Osteichthyes	Scorpaenidae	Sebastolobus	Neopterygii		Animalia	Scorpaeniformes	Chordata		Actinopterygii			Scorpaenoidei	Vertebrata	Gnathostomata		Eukaryota	Acanthopterygii	V3167-02
 	cruise	Rathbunaster californicus	100.44	3167	04:11:44:15	 	36.85116	-122.12237	2471923	5.03	45:47.0	Ventana	33.483	04:13:20:00	11.284		Labidiasteridae	Rathbunaster			Animalia	Forcipulatida	Echinodermata	Rathbunaster californicus	Asteroidea							Eukaryota		V3167-05
 	transect	Allocentrotus fragilis	308.85	3167	01:33:39:26	 	36.827522	-122.16767	2389785	1.07	06:25.0	Ventana	34.166	01:35:31:28	6.926	Echinoidea	Strongylocentrotidae	Allocentrotus			Animalia	Echinoida	Echinodermata	Allocentrotus fragilis	Euechinoidea			Echinacea				Eukaryota		V3167-02
 	transect	Rathbunaster californicus	313.07	3167	01:18:01:25	 	36.825996	-122.16837	2370999	1.07	50:46.0	Ventana	34.165	01:19:53:17	6.914		Labidiasteridae	Rathbunaster			Animalia	Forcipulatida	Echinodermata	Rathbunaster californicus	Asteroidea							Eukaryota		V3167-02
 	cruise	mud	120.42	3167	03:02:08:15	 	36.84035	-122.14917	2468126	3.42	35:46.0	Ventana	33.745	03:03:47:27	10.309																			V3167-04
 	transect	Allocentrotus fragilis	306.87	3167	01:26:28:09	 	36.82703	-122.16877	2372955	1.17	59:12.0	Ventana	34.157	01:28:19:25	7.079	Echinoidea	Strongylocentrotidae	Allocentrotus			Animalia	Echinoida	Echinodermata	Allocentrotus fragilis	Euechinoidea			Echinacea				Eukaryota		V3167-02
 	transect	Allocentrotus fragilis	313.21	3167	01:18:13:24	 	36.82593	-122.16845	2371082	1.08	50:58.0	Ventana	34.161	01:20:06:01	6.953	Echinoidea	Strongylocentrotidae	Allocentrotus			Animalia	Echinoida	Echinodermata	Allocentrotus fragilis	Euechinoidea			Echinacea				Eukaryota		V3167-02
 	transect	Liponema brevicornis	304.33	3167	01:28:42:20	 	36.82769	-122.1684	2388830	1.09	01:27.0	Ventana	34.165	01:30:33:17	6.947	Anthozoa	Liponematidae	Liponema			Animalia	Actiniaria	Cnidaria	Liponema brevicornis	Hexacorallia			Nyantheae				Eukaryota		V3167-02
 	transect	Parastichopus leukothele	172.43	3167	02:35:31:20	 	36.837208	-122.15919	2467374	2.63	08:46.0	Ventana	33.946	02:37:14:06	9.287	Holothuroidea	Stichopodidae	Parastichopus			Animalia	Aspidochirotida	Echinodermata	Parastichopus leukothele	Aspidochirotacea							Eukaryota		V3167-03
 	transect	Parastichopus leukothele	318.51	3167	00:35:34:13	 	36.824883	-122.16961	2462952	1.13	07:55.0	Ventana	34.16	00:37:30:17	7.019	Holothuroidea	Stichopodidae	Parastichopus			Animalia	Aspidochirotida	Echinodermata	Parastichopus leukothele	Aspidochirotacea							Eukaryota		V3167-01
 	transect	Parastichopus leukothele	314.8	3167	01:23:05:15	 	36.825962	-122.16935	2371804	1.07	55:49.0	Ventana	34.165	01:24:56:17	6.926	Holothuroidea	Stichopodidae	Parastichopus			Animalia	Aspidochirotida	Echinodermata	Parastichopus leukothele	Aspidochirotacea							Eukaryota		V3167-02
 	transect	Sebastes	308.9	3167	01:34:07:25	 	36.827343	-122.16771	2389951	1.08	06:53.0	Ventana	34.165	01:35:58:22	6.933	Osteichthyes	Scorpaenidae	Sebastes	Neopterygii		Animalia	Scorpaeniformes	Chordata		Actinopterygii			Scorpaenoidei	Vertebrata	Gnathostomata		Eukaryota	Acanthopterygii	V3167-02
 	transect	Sebastes	305.19	3167	01:27:22:08	 	36.82731	-122.168625	2388477	1.1	00:07.0	Ventana	34.163	01:29:12:16	6.962	Osteichthyes	Scorpaenidae	Sebastes	Neopterygii		Animalia	Scorpaeniformes	Chordata		Actinopterygii			Scorpaenoidei	Vertebrata	Gnathostomata		Eukaryota	Acanthopterygii	V3167-02
 	transect	Rathbunaster californicus	319.07	3167	00:26:04:00	 	36.824505	-122.169464	2462523	1.13	58:24.0	Ventana	34.159	00:27:59:26	7.022		Labidiasteridae	Rathbunaster			Animalia	Forcipulatida	Echinodermata	Rathbunaster californicus	Asteroidea							Eukaryota		V3167-01
 	transect	Rathbunaster californicus	312.55	3167	01:17:11:26	 	36.826244	-122.16817	2370759	1.07	49:55.0	Ventana	34.165	01:19:03:07	6.914		Labidiasteridae	Rathbunaster			Animalia	Forcipulatida	Echinodermata	Rathbunaster californicus	Asteroidea							Eukaryota		V3167-02
 	transect	Hydrolagus colliei	304.49	3167	01:28:36:20	 	36.827667	-122.16842	2388800	1.1	01:21.0	Ventana	34.162	01:30:27:08	6.963	Chondrichthyes	Chimaeridae	Hydrolagus			Animalia	Chimaeriformes	Chordata	Hydrolagus colliei	Holocephali			Chimaeroidei	Vertebrata			Eukaryota	Holocephalimorpha	V3167-02
 	transect	Liponema brevicornis	305.36	3167	01:27:18:07	http://search.mbari.org/ARCHIVE/frameGrabs/Ventana/images/3167/01_29_09_12.jpg	36.82729	-122.16863	2388447	1.1	00:03.0	Ventana	34.163	01:29:09:12	6.962	Anthozoa	Liponematidae	Liponema			Animalia	Actiniaria	Cnidaria	Liponema brevicornis	Hexacorallia			Nyantheae				Eukaryota		V3167-02
 	cruise	Ceriantharia sp. 3	332.52	3167	00:09:16:01	 	36.82218	-122.17079	2462124	1.11	41:35.0	Ventana	34.161	00:11:12:29	6.966	Anthozoa					Animalia	Ceriantharia	Cnidaria		Ceriantipatharia							Eukaryota		V3167-01
 	transect	Rathbunaster californicus	318.35	3167	00:36:44:26	http://search.mbari.org/ARCHIVE/frameGrabs/Ventana/images/3167/00_38_40_04.jpg	36.82489	-122.16986	2462982	1.15	09:05.0	Ventana	34.157	00:38:40:04	7.065		Labidiasteridae	Rathbunaster			Animalia	Forcipulatida	Echinodermata	Rathbunaster californicus	Asteroidea							Eukaryota		V3167-01
 	cruise	Parastichopus leukothele	318.27	3167	01:06:33:01	 	36.82502	-122.16993	2464456	1.12	39:16.0	Ventana	34.16	01:08:23:29	7.017	Holothuroidea	Stichopodidae	Parastichopus			Animalia	Aspidochirotida	Echinodermata	Parastichopus leukothele	Aspidochirotacea							Eukaryota		V3167-02
 	transect	Sebastes	303.28	3167	01:29:14:19	 	36.827816	-122.168335	2388936	1.12	01:59.0	Ventana	34.159	01:31:06:10	7.03	Osteichthyes	Scorpaenidae	Sebastes	Neopterygii		Animalia	Scorpaeniformes	Chordata		Actinopterygii			Scorpaenoidei	Vertebrata	Gnathostomata		Eukaryota	Acanthopterygii	V3167-02
 	transect	Rathbunaster californicus	308.41	3167	01:33:09:27	 	36.827675	-122.16765	2389658	1.08	05:54.0	Ventana	34.166	01:35:00:05	6.926		Labidiasteridae	Rathbunaster			Animalia	Forcipulatida	Echinodermata	Rathbunaster californicus	Asteroidea							Eukaryota		V3167-02
 	transect	Allocentrotus fragilis	306.88	3167	01:26:32:09	 	36.827057	-122.168755	2372985	1.17	59:16.0	Ventana	34.157	01:28:24:13	7.079	Echinoidea	Strongylocentrotidae	Allocentrotus			Animalia	Echinoida	Echinodermata	Allocentrotus fragilis	Euechinoidea			Echinacea				Eukaryota		V3167-02
 	transect	Florometra serratissima	322.9	3167	00:48:39:19	 	36.82464	-122.17082	2463245	1.19	21:01.0	Ventana	34.153	00:50:36:08	7.118	Crinoidea	Antedonidae	Florometra			Animalia	Comatulidina	Echinodermata	Florometra serratissima							Antedonacea	Eukaryota		V3167-01
 	cruise	Rathbunaster californicus	307.31	3167	01:36:42:20	 	36.82677	-122.16848	2390763	1.08	09:28.0	Ventana	34.165	01:38:33:25	6.935		Labidiasteridae	Rathbunaster			Animalia	Forcipulatida	Echinodermata	Rathbunaster californicus	Asteroidea							Eukaryota		V3167-02
 	transect	Allocentrotus fragilis	303.17	3167	01:29:18:19	 	36.82783	-122.16832	2388966	1.12	02:03.0	Ventana	34.159	01:31:10:23	7.03	Echinoidea	Strongylocentrotidae	Allocentrotus			Animalia	Echinoida	Echinodermata	Allocentrotus fragilis	Euechinoidea			Echinacea				Eukaryota		V3167-02
 	transect	Rathbunaster californicus	308.83	3167	01:33:57:25	 	36.827408	-122.167694	2389891	1.08	06:43.0	Ventana	34.165	01:35:49:16	6.927		Labidiasteridae	Rathbunaster			Animalia	Forcipulatida	Echinodermata	Rathbunaster californicus	Asteroidea							Eukaryota		V3167-02
 	transect	Allocentrotus fragilis	305.49	3167	01:27:16:08	 	36.82728	-122.16864	2388417	1.1	00:01.0	Ventana	34.163	01:29:07:00	6.962	Echinoidea	Strongylocentrotidae	Allocentrotus			Animalia	Echinoida	Echinodermata	Allocentrotus fragilis	Euechinoidea			Echinacea				Eukaryota		V3167-02
 	transect	Sabellida	320.52	3167	00:18:06:15	 	36.82432	-122.169975	2462290	1.11	50:25.0	Ventana	34.161	00:20:02:28	6.984	Polychaeta					Animalia	Sabellida	Annelida		Palpata							Eukaryota	Canalipalpata	V3167-01
 	transect	Rathbunaster californicus	309.63	3167	01:35:14:08	 	36.826935	-122.16792	2390244	1.08	07:59.0	Ventana	34.163	01:37:06:09	6.95		Labidiasteridae	Rathbunaster			Animalia	Forcipulatida	Echinodermata	Rathbunaster californicus	Asteroidea							Eukaryota		V3167-02
 	transect	Allocentrotus fragilis	305.15	3167	01:27:36:07	 	36.82738	-122.16859	2388567	1.11	00:21.0	Ventana	34.162	01:29:27:26	6.992	Echinoidea	Strongylocentrotidae	Allocentrotus			Animalia	Echinoida	Echinodermata	Allocentrotus fragilis	Euechinoidea			Echinacea				Eukaryota		V3167-02
 	transect	Parastichopus leukothele	308.83	3167	01:33:27:26	 	36.82759	-122.16766	2389718	1.08	06:13.0	Ventana	34.166	01:35:18:22	6.925	Holothuroidea	Stichopodidae	Parastichopus			Animalia	Aspidochirotida	Echinodermata	Parastichopus leukothele	Aspidochirotacea							Eukaryota		V3167-02
 	transect	Rathbunaster californicus	320.12	3167	00:38:21:08	 	36.82492	-122.170204	2463042	1.14	10:42.0	Ventana	34.16	00:40:17:17	7.03		Labidiasteridae	Rathbunaster			Animalia	Forcipulatida	Echinodermata	Rathbunaster californicus	Asteroidea							Eukaryota		V3167-01
 	transect	Allocentrotus fragilis	322.97	3167	00:54:11:08	 	36.824303	-122.17054	2463395	1.17	26:32.0	Ventana	34.155	00:56:08:01	7.09	Echinoidea	Strongylocentrotidae	Allocentrotus			Animalia	Echinoida	Echinodermata	Allocentrotus fragilis	Euechinoidea			Echinacea				Eukaryota		V3167-01
 	transect	Rathbunaster californicus	309.05	3167	01:34:23:24	 	36.827244	-122.167755	2390041	1.08	07:09.0	Ventana	34.165	01:36:15:11	6.927		Labidiasteridae	Rathbunaster			Animalia	Forcipulatida	Echinodermata	Rathbunaster californicus	Asteroidea							Eukaryota		V3167-02
 	transect	Rathbunaster californicus	308.74	3167	01:34:01:25	 	36.82738	-122.1677	2389921	1.08	06:47.0	Ventana	34.165	01:35:52:07	6.927		Labidiasteridae	Rathbunaster			Animalia	Forcipulatida	Echinodermata	Rathbunaster californicus	Asteroidea							Eukaryota		V3167-02
 	transect	Parastichopus leukothele	303.08	3167	01:29:28:19	 	36.82787	-122.1683	2388996	1.14	02:13.0	Ventana	34.159	01:31:20:13	7.042	Holothuroidea	Stichopodidae	Parastichopus			Animalia	Aspidochirotida	Echinodermata	Parastichopus leukothele	Aspidochirotacea							Eukaryota		V3167-02
 	transect	Pleuronectiformes	308.98	3167	01:33:19:26	 	36.82764	-122.167656	2389688	1.08	06:04.0	Ventana	34.166	01:35:10:25	6.926	Osteichthyes			Neopterygii		Animalia	Pleuronectiformes	Chordata		Actinopterygii				Vertebrata	Gnathostomata		Eukaryota	Acanthopterygii	V3167-02
 	transect	Rathbunaster californicus	321.76	3167	00:45:59:09	 	36.82486	-122.17057	2463215	1.14	18:20.0	Ventana	34.158	00:47:55:17	7.038		Labidiasteridae	Rathbunaster			Animalia	Forcipulatida	Echinodermata	Rathbunaster californicus	Asteroidea							Eukaryota		V3167-01
 	transect	Allocentrotus fragilis	312.35	3167	01:16:55:27	 	36.826324	-122.16816	2370563	1.07	49:39.0	Ventana	34.166	01:18:46:25	6.915	Echinoidea	Strongylocentrotidae	Allocentrotus			Animalia	Echinoida	Echinodermata	Allocentrotus fragilis	Euechinoidea			Echinacea				Eukaryota		V3167-02
 	transect	Parastichopus leukothele	313.27	3167	01:18:22:09	 	36.825893	-122.168495	2371112	1.08	51:06.0	Ventana	34.161	01:20:13:16	6.953	Holothuroidea	Stichopodidae	Parastichopus			Animalia	Aspidochirotida	Echinodermata	Parastichopus leukothele	Aspidochirotacea							Eukaryota		V3167-02
 	cruise	cable	127.72	3167	02:53:58:16	http://search.mbari.org/ARCHIVE/frameGrabs/Ventana/images/3167/02_55_40_08.jpg	36.839024	-122.15247	2467607	3.15	27:13.0	Ventana	33.793	02:55:40:08	10																			V3167-03
 	cruise	cable	214.16	3167	02:14:58:28	http://search.mbari.org/ARCHIVE/frameGrabs/Ventana/images/3167/02_16_42_01.jpg	36.83571	-122.16064	20024035	1.71	48:11.0	Ventana	34.099	02:16:42:01	8.046																			V3167-03
 	transect	Sabellida	320.74	3167	00:17:54:00	http://search.mbari.org/ARCHIVE/frameGrabs/Ventana/images/3167/00_19_49_27.jpg	36.824326	-122.17001	2462260	1.12	50:13.0	Ventana	34.161	00:19:49:27	6.981	Polychaeta					Animalia	Sabellida	Annelida		Palpata							Eukaryota	Canalipalpata	V3167-01
 	transect	Rathbunaster californicus	321.77	3167	00:45:26:24	 	36.824806	-122.17043	2463185	1.12	17:48.0	Ventana	34.16	00:47:21:23	7.01		Labidiasteridae	Rathbunaster			Animalia	Forcipulatida	Echinodermata	Rathbunaster californicus	Asteroidea							Eukaryota		V3167-01
 	transect	Rathbunaster californicus	315.25	3167	01:19:22:07	 	36.825573	-122.168816	2371285	1.09	52:06.0	Ventana	34.161	01:21:13:12	6.971		Labidiasteridae	Rathbunaster			Animalia	Forcipulatida	Echinodermata	Rathbunaster californicus	Asteroidea							Eukaryota		V3167-02
 	transect	Allocentrotus fragilis	305.1	3167	01:27:48:21	 	36.827442	-122.16855	2388597	1.12	00:33.0	Ventana	34.159	01:29:40:03	7.026	Echinoidea	Strongylocentrotidae	Allocentrotus			Animalia	Echinoida	Echinodermata	Allocentrotus fragilis	Euechinoidea			Echinacea				Eukaryota		V3167-02
 	transect	Allocentrotus fragilis	309.47	3167	01:25:15:26	 	36.82671	-122.16896	2372759	1.11	58:00.0	Ventana	34.161	01:27:07:03	7.022	Echinoidea	Strongylocentrotidae	Allocentrotus			Animalia	Echinoida	Echinodermata	Allocentrotus fragilis	Euechinoidea			Echinacea				Eukaryota		V3167-02
 	transect	Sabellida	322.91	3167	00:53:42:25	 	36.82434	-122.170586	2463365	1.17	26:04.0	Ventana	34.155	00:55:39:13	7.098	Polychaeta					Animalia	Sabellida	Annelida		Palpata							Eukaryota	Canalipalpata	V3167-01
 	transect	Parastichopus leukothele	319.17	3167	00:37:49:09	 	36.82491	-122.17009	2463012	1.16	10:09.0	Ventana	34.156	00:39:45:29	7.069	Holothuroidea	Stichopodidae	Parastichopus			Animalia	Aspidochirotida	Echinodermata	Parastichopus leukothele	Aspidochirotacea							Eukaryota		V3167-01
 	transect	Rathbunaster californicus	314.7	3167	01:23:15:15	 	36.82603	-122.16932	2371834	1.07	55:59.0	Ventana	34.165	01:25:06:20	6.923		Labidiasteridae	Rathbunaster			Animalia	Forcipulatida	Echinodermata	Rathbunaster californicus	Asteroidea							Eukaryota		V3167-02
 	cruise	Swiftia simplex	110.59	3167	03:30:41:07	 	36.84322	-122.138466	2470878	4.58	04:21.0	Ventana	33.547	03:32:21:10	11.094	Anthozoa	Plexauridae	Swiftia			Animalia	Gorgonacea	Cnidaria		Octocorallia			Holaxonia				Eukaryota		V3167-04
 	transect	Stomphia	314.88	3167	01:19:12:07	 	36.825626	-122.16876	2371255	1.09	51:56.0	Ventana	34.161	01:21:03:26	6.971	Anthozoa	Actinostolidae	Stomphia			Animalia	Actiniaria	Cnidaria		Hexacorallia			Nyantheae				Eukaryota		V3167-02
 	transect	Rathbunaster californicus	309.01	3167	01:34:56:08	 	36.827038	-122.16785	2390154	1.08	07:41.0	Ventana	34.164	01:36:48:12	6.94		Labidiasteridae	Rathbunaster			Animalia	Forcipulatida	Echinodermata	Rathbunaster californicus	Asteroidea							Eukaryota		V3167-02
 	transect	Rathbunaster californicus	319.91	3167	00:18:44:14	 	36.824345	-122.169846	2462350	1.12	51:04.0	Ventana	34.162	00:20:40:23	6.992		Labidiasteridae	Rathbunaster			Animalia	Forcipulatida	Echinodermata	Rathbunaster californicus	Asteroidea							Eukaryota		V3167-01
 	transect	Allocentrotus fragilis	311.85	3167	01:23:59:14	 	36.82629	-122.169205	2372007	1.07	56:44.0	Ventana	34.165	01:25:49:23	6.925	Echinoidea	Strongylocentrotidae	Allocentrotus			Animalia	Echinoida	Echinodermata	Allocentrotus fragilis	Euechinoidea			Echinacea				Eukaryota		V3167-02
 	transect	Allocentrotus fragilis	308.92	3167	01:33:45:26	 	36.827484	-122.16767	2389808	1.07	06:31.0	Ventana	34.166	01:35:38:01	6.926	Echinoidea	Strongylocentrotidae	Allocentrotus			Animalia	Echinoida	Echinodermata	Allocentrotus fragilis	Euechinoidea			Echinacea				Eukaryota		V3167-02
 	cruise	Parastichopus leukothele	302.67	3167	01:44:26:22	 	36.82792	-122.16827	2390876	1.12	17:12.0	Ventana	34.16	01:46:18:09	7.035	Holothuroidea	Stichopodidae	Parastichopus			Animalia	Aspidochirotida	Echinodermata	Parastichopus leukothele	Aspidochirotacea							Eukaryota		V3167-02
 	transect	Allocentrotus fragilis	310.04	3167	01:24:57:27	 	36.82662	-122.16902	2372729	1.09	57:42.0	Ventana	34.165	01:26:49:26	6.968	Echinoidea	Strongylocentrotidae	Allocentrotus			Animalia	Echinoida	Echinodermata	Allocentrotus fragilis	Euechinoidea			Echinacea				Eukaryota		V3167-02
 	transect	Sebastes	308.83	3167	01:33:37:26	 	36.827534	-122.16766	2389778	1.07	06:23.0	Ventana	34.166	01:35:28:26	6.926	Osteichthyes	Scorpaenidae	Sebastes	Neopterygii		Animalia	Scorpaeniformes	Chordata		Actinopterygii			Scorpaenoidei	Vertebrata	Gnathostomata		Eukaryota	Acanthopterygii	V3167-02
 	transect	Rathbunaster californicus	315.85	3167	01:22:31:02	 	36.825768	-122.16944	2371684	1.08	55:15.0	Ventana	34.164	01:24:23:04	6.938		Labidiasteridae	Rathbunaster			Animalia	Forcipulatida	Echinodermata	Rathbunaster californicus	Asteroidea							Eukaryota		V3167-02
 	transect	Stylasterias forreri	163.67	3167	02:25:41:08	 	36.836998	-122.15813	2467208	2.57	58:55.0	Ventana	33.958	02:27:23:26	9.234		Asteriidae	Stylasterias			Animalia	Forcipulatida	Echinodermata	Stylasterias forreri	Asteroidea							Eukaryota		V3167-03
 	transect	Rathbunaster californicus	309.57	3167	01:35:04:08	 	36.826992	-122.16788	2390184	1.08	07:49.0	Ventana	34.164	01:36:54:18	6.94		Labidiasteridae	Rathbunaster			Animalia	Forcipulatida	Echinodermata	Rathbunaster californicus	Asteroidea							Eukaryota		V3167-02
 	transect	Rathbunaster californicus	308.88	3167	01:33:31:26	 	36.827568	-122.16766	2389748	1.08	06:17.0	Ventana	34.166	01:35:22:12	6.925		Labidiasteridae	Rathbunaster			Animalia	Forcipulatida	Echinodermata	Rathbunaster californicus	Asteroidea							Eukaryota		V3167-02
 	transect	Rathbunaster californicus	314.24	3167	01:19:00:08	 	36.825695	-122.16871	2371225	1.1	51:44.0	Ventana	34.163	01:20:51:02	6.956		Labidiasteridae	Rathbunaster			Animalia	Forcipulatida	Echinodermata	Rathbunaster californicus	Asteroidea							Eukaryota		V3167-02
 	cruise	Hydrolagus colliei	302.57	3167	01:30:43:01	 	36.827995	-122.1681	2389462	1.09	03:28.0	Ventana	34.163	01:32:33:24	6.958	Chondrichthyes	Chimaeridae	Hydrolagus			Animalia	Chimaeriformes	Chordata	Hydrolagus colliei	Holocephali			Chimaeroidei	Vertebrata			Eukaryota	Holocephalimorpha	V3167-02
 	transect	Rathbunaster californicus	319.03	3167	00:19:44:27	 	36.824394	-122.16968	2462410	1.14	52:04.0	Ventana	34.158	00:21:40:26	7.03		Labidiasteridae	Rathbunaster			Animalia	Forcipulatida	Echinodermata	Rathbunaster californicus	Asteroidea							Eukaryota		V3167-01
 	transect	Allocentrotus fragilis	306.58	3167	01:26:42:09	 	36.827103	-122.16873	2388274	1.12	59:26.0	Ventana	34.164	01:28:33:08	6.991	Echinoidea	Strongylocentrotidae	Allocentrotus			Animalia	Echinoida	Echinodermata	Allocentrotus fragilis	Euechinoidea			Echinacea				Eukaryota		V3167-02
 	transect	Rathbunaster californicus	322.94	3167	00:57:21:03	http://search.mbari.org/ARCHIVE/frameGrabs/Ventana/images/3167/00_59_12_24.jpg	36.824165	-122.17045	2464170	1.14	30:03.0	Ventana	34.157	00:59:12:24	7.046		Labidiasteridae	Rathbunaster			Animalia	Forcipulatida	Echinodermata	Rathbunaster californicus	Asteroidea							Eukaryota		V3167-02
 	transect	Hippasteria	310.49	3167	01:24:41:27	 	36.826527	-122.169075	2372699	1.08	57:26.0	Ventana	34.165	01:26:33:24	6.934		Goniasteridae	Hippasteria			Animalia	Valvatida	Echinodermata		Asteroidea			Granulosina				Eukaryota		V3167-02
 	transect	Rathbunaster californicus	311.4	3167	01:24:11:13	 	36.82636	-122.16917	2372060	1.08	56:56.0	Ventana	34.164	01:26:03:00	6.927		Labidiasteridae	Rathbunaster			Animalia	Forcipulatida	Echinodermata	Rathbunaster californicus	Asteroidea							Eukaryota		V3167-02
 	transect	Rathbunaster californicus	309.53	3167	01:35:10:08	 	36.826958	-122.16791	2390214	1.08	07:55.0	Ventana	34.163	01:37:01:07	6.95		Labidiasteridae	Rathbunaster			Animalia	Forcipulatida	Echinodermata	Rathbunaster californicus	Asteroidea							Eukaryota		V3167-02
 	cruise	Parmaturus xaniurus	311.85	3167	01:10:52:08	 	36.82628	-122.16927	2464606	1.1	43:36.0	Ventana	34.162	01:12:43:11	6.978	Chondrichthyes	Scyliorhinidae	Parmaturus			Animalia	Carcharhiniformes	Chordata	Parmaturus xaniurus	Elasmobranchii				Vertebrata			Eukaryota	Galeomorphi	V3167-02
 	transect	Rathbunaster californicus	308.92	3167	01:33:49:25	 	36.827457	-122.16768	2389838	1.07	06:35.0	Ventana	34.166	01:35:40:24	6.926		Labidiasteridae	Rathbunaster			Animalia	Forcipulatida	Echinodermata	Rathbunaster californicus	Asteroidea							Eukaryota		V3167-02
 	cruise	Pleurobranchaea californica	97.97	3167	04:22:10:25	 	36.85346	-122.117455	2471976	5.03	56:14.0	Ventana	33.484	04:23:47:01	11.284	Gastropoda	Pleurobranchidae	Pleurobranchaea			Animalia	Notaspidea	Mollusca	Pleurobranchaea californica	Opisthobranchia						Pleurobranchiacea	Eukaryota		V3167-05
 	cruise	Parastichopus leukothele	335.73	3167	00:07:03:20	 	36.82146	-122.17107	2462034	1.11	39:22.0	Ventana	34.16	00:09:00:12	6.95	Holothuroidea	Stichopodidae	Parastichopus			Animalia	Aspidochirotida	Echinodermata	Parastichopus leukothele	Aspidochirotacea							Eukaryota		V3167-01
 	transect	Rathbunaster californicus	316.04	3167	01:19:42:06	 	36.825478	-122.168915	2371368	1.08	52:26.0	Ventana	34.166	01:21:33:22	6.929		Labidiasteridae	Rathbunaster			Animalia	Forcipulatida	Echinodermata	Rathbunaster californicus	Asteroidea							Eukaryota		V3167-02
 	transect	Rathbunaster californicus	313.13	3167	01:18:40:09	 	36.8258	-122.1686	2371165	1.11	51:24.0	Ventana	34.161	01:20:32:03	6.99		Labidiasteridae	Rathbunaster			Animalia	Forcipulatida	Echinodermata	Rathbunaster californicus	Asteroidea							Eukaryota		V3167-02
 	transect	Stylasterias forreri	312.59	3167	01:23:47:14	 	36.82622	-122.169235	2371947	1.08	56:32.0	Ventana	34.165	01:25:38:28	6.929		Asteriidae	Stylasterias			Animalia	Forcipulatida	Echinodermata	Stylasterias forreri	Asteroidea							Eukaryota		V3167-02
 	cruise	Laminariales	113.01	3167	03:14:53:22	 	36.842056	-122.14232	2468592	4.84	48:32.0	Ventana	33.519	03:16:34:18	11.222	Phaeophyceae					Chromista	Laminariales	Phaeophycophyta									Eukaryota		V3167-04
 	transect	Rathbunaster californicus	311.33	3167	01:24:15:13	 	36.82638	-122.16916	2372090	1.08	57:00.0	Ventana	34.164	01:26:07:08	6.927		Labidiasteridae	Rathbunaster			Animalia	Forcipulatida	Echinodermata	Rathbunaster californicus	Asteroidea							Eukaryota		V3167-02
 	cruise	laminariales	109.27	3167	03:38:21:08	 	36.8442	-122.13726	2470991	4.73	12:01.0	Ventana	33.526	03:40:01:25	11.161																			V3167-04
 	cruise	Lycodes cortezianus	294.93	3167	01:59:04:28	 	36.832134	-122.165245	2467697	1.13	32:17.0	Ventana	34.16	02:00:47:03	7.024	Osteichthyes	Zoarcidae	Lycodes	Neopterygii		Animalia	Perciformes	Chordata	Lycodes cortezianus	Actinopterygii			Zoarcoidei	Vertebrata	Gnathostomata		Eukaryota	Acanthopterygii	V3167-03
 	cruise	Rathbunaster californicus	108.39	3167	03:42:16:01	 	36.84516	-122.13561	2471021	4.78	15:56.0	Ventana	33.519	03:43:56:23	11.191		Labidiasteridae	Rathbunaster			Animalia	Forcipulatida	Echinodermata	Rathbunaster californicus	Asteroidea							Eukaryota		V3167-04
 	transect	Parastichopus leukothele	310.46	3167	01:15:57:13	 	36.826595	-122.168236	2370473	1.07	48:41.0	Ventana	34.165	01:17:49:05	6.921	Holothuroidea	Stichopodidae	Parastichopus			Animalia	Aspidochirotida	Echinodermata	Parastichopus leukothele	Aspidochirotacea							Eukaryota		V3167-02
 	transect	Allocentrotus fragilis	305.95	3167	01:27:00:08	 	36.827194	-122.168686	2388334	1.1	59:45.0	Ventana	34.164	01:28:51:24	6.964	Echinoidea	Strongylocentrotidae	Allocentrotus			Animalia	Echinoida	Echinodermata	Allocentrotus fragilis	Euechinoidea			Echinacea				Eukaryota		V3167-02
 	cruise	trench	99.59	3167	04:14:49:09	http://search.mbari.org/ARCHIVE/frameGrabs/Ventana/images/3167/04_16_23_26.jpg	36.85185	-122.1209	2471946	5.02	48:52.0	Ventana	33.485	04:16:23:26	11.28																			V3167-05
 	transect	Phyllospadix	162.39	3167	02:30:22:15	 	36.837505	-122.158394	2467321	2.69	03:36.0	Ventana	33.936	02:32:05:07	9.363		Zosteraceae	Phyllospadix			Plantae	Najadales										Eukaryota		V3167-03
 	transect	Parastichopus leukothele	303.8	3167	01:28:56:20	 	36.827744	-122.16837	2388883	1.09	01:41.0	Ventana	34.163	01:30:47:29	6.964	Holothuroidea	Stichopodidae	Parastichopus			Animalia	Aspidochirotida	Echinodermata	Parastichopus leukothele	Aspidochirotacea							Eukaryota		V3167-02
 	transect	Sebastes diploproa	310.92	3167	01:24:23:13	 	36.826427	-122.169136	2372120	1.08	57:08.0	Ventana	34.165	01:26:16:02	6.93	Osteichthyes	Scorpaenidae	Sebastes	Neopterygii		Animalia	Scorpaeniformes	Chordata	Sebastes diploproa	Actinopterygii			Scorpaenoidei	Vertebrata	Gnathostomata		Eukaryota	Acanthopterygii	V3167-02
 	transect	Rathbunaster californicus	323.08	3167	00:49:58:02	 	36.824444	-122.170685	2463275	1.18	22:19.0	Ventana	34.153	00:51:53:02	7.106		Labidiasteridae	Rathbunaster			Animalia	Forcipulatida	Echinodermata	Rathbunaster californicus	Asteroidea							Eukaryota		V3167-01
 	transect	Rathbunaster californicus	314.98	3167	01:22:49:01	 	36.82587	-122.16939	2371744	1.08	55:33.0	Ventana	34.166	01:24:41:01	6.927		Labidiasteridae	Rathbunaster			Animalia	Forcipulatida	Echinodermata	Rathbunaster californicus	Asteroidea							Eukaryota		V3167-02
 	cruise	Parastichopus leukothele	327.66	3167	00:12:40:25	 	36.82316	-122.170525	2462177	1.13	45:00.0	Ventana	34.158	00:14:36:19	7.01	Holothuroidea	Stichopodidae	Parastichopus			Animalia	Aspidochirotida	Echinodermata	Parastichopus leukothele	Aspidochirotacea							Eukaryota		V3167-01
 	transect	Sebastes	308.62	3167	01:34:11:25	 	36.82732	-122.167725	2389981	1.08	06:57.0	Ventana	34.165	01:36:02:14	6.933	Osteichthyes	Scorpaenidae	Sebastes	Neopterygii		Animalia	Scorpaeniformes	Chordata		Actinopterygii			Scorpaenoidei	Vertebrata	Gnathostomata		Eukaryota	Acanthopterygii	V3167-02
 	transect	Allocentrotus fragilis	305.16	3167	01:27:24:07	 	36.82732	-122.16862	2388507	1.11	00:09.0	Ventana	34.162	01:29:16:10	6.992	Echinoidea	Strongylocentrotidae	Allocentrotus			Animalia	Echinoida	Echinodermata	Allocentrotus fragilis	Euechinoidea			Echinacea				Eukaryota		V3167-02
calibrated | self | distance between bottom to lasers is 23cm	launch	lasers	 	3169	 	http://search.mbari.org/ARCHIVE/frameGrabs/Ventana/images/3169/00_00_00_24.jpg	 	 	2472793	 	 	Ventana	 	00:00:00:24	 																			V3169-01
state | self | on	descend	lights	55.59	3169	05:05:14:27	 	36.854027	-122.11537	2476785	5.66	12:01.0	Ventana	33.391	00:10:48:22	11.03																			V3169-01
"population-density | self | dense, identity-reference | self | long, white"	cruise	Pennatulacea	96.13	3169	05:07:53:22	http://search.mbari.org/ARCHIVE/frameGrabs/Ventana/images/3169/00_13_28_16.jpg	36.853737	-122.11583	2476799	2.45	14:40.0	Ventana	34.032	00:13:28:16	8.905	Anthozoa					Animalia	Pennatulacea	Cnidaria		Octocorallia							Eukaryota		V3169-01
"population-density | self | dense, identity-reference | self | long, white"	cruise	Pennatulacea	96.92	3169	05:09:05:19	 	36.853664	-122.11621	2476809	2.4	15:52.0	Ventana	34.033	00:14:39:13	8.88	Anthozoa					Animalia	Pennatulacea	Cnidaria		Octocorallia							Eukaryota		V3169-01
"population-density | self | dense, identity-reference | self | long, white"	cruise	Pennatulacea	97.46	3169	05:09:50:03	 	36.853695	-122.11645	2476828	2.36	16:37.0	Ventana	34.044	00:15:24:11	8.827	Anthozoa					Animalia	Pennatulacea	Cnidaria		Octocorallia							Eukaryota		V3169-01
"swimming | nil | nil, population-quantity | self | 999"	cruise	Osteichthyes	97.67	3169	05:10:32:02	 	36.85372	-122.11668	2476848	2.37	17:19.0	Ventana	34.037	00:16:05:24	8.85	Osteichthyes					Animalia		Chordata						Vertebrata	Gnathostomata		Eukaryota		V3169-01
comment | human | arrived at waypoint	cruise	trench	97.81	3169	05:11:18:15	http://search.mbari.org/ARCHIVE/frameGrabs/Ventana/images/3169/00_16_52_11.jpg	36.85378	-122.11698	2476884	2.35	18:05.0	Ventana	34.041	00:16:52:11	8.836																			V3169-01
"population-density | self | dense, identity-reference | self | long, white"	cruise	Pennatulacea	97.72	3169	05:11:34:14	 	36.853786	-122.11699	2476890	2.36	18:21.0	Ventana	34.042	00:17:09:22	8.84	Anthozoa					Animalia	Pennatulacea	Cnidaria		Octocorallia							Eukaryota		V3169-01
"swimming | nil | nil, population-quantity | self | 999"	cruise	Osteichthyes	97.83	3169	05:11:56:14	 	36.853783	-122.11699	2476891	2.37	18:43.0	Ventana	34.039	00:17:31:04	8.852	Osteichthyes					Animalia		Chordata						Vertebrata	Gnathostomata		Eukaryota		V3169-01
"swimming | nil | nil, population-quantity | self | 999"	cruise	Osteichthyes	97.89	3169	05:12:22:13	 	36.85378	-122.116974	2476894	2.35	19:09.0	Ventana	34.041	00:17:56:27	8.837	Osteichthyes					Animalia		Chordata						Vertebrata	Gnathostomata		Eukaryota		V3169-01
identity-reference | self | start: deep groove	cruise	trench	98.8	3169	05:13:22:26	http://search.mbari.org/ARCHIVE/frameGrabs/Ventana/images/3169/00_18_57_02.jpg	36.85379	-122.11693	2476899	2.34	20:10.0	Ventana	34.043	00:18:57:02	8.824																			V3169-01
"population-quantity | self | 999, identity-reference | self | long, white"	cruise	Pennatulacea	98.18	3169	05:13:50:25	 	36.8538	-122.116875	2476911	2.34	20:38.0	Ventana	34.043	00:19:25:11	8.821	Anthozoa					Animalia	Pennatulacea	Cnidaria		Octocorallia							Eukaryota		V3169-01
"swimming | nil | nil, population-quantity | self | 999"	cruise	Osteichthyes	98.22	3169	05:14:08:25	 	36.85381	-122.11682	2476914	2.34	20:56.0	Ventana	34.043	00:19:43:06	8.826	Osteichthyes					Animalia		Chordata						Vertebrata	Gnathostomata		Eukaryota		V3169-01
"swimming | nil | nil, population-quantity | self | 999"	cruise	Osteichthyes	98.12	3169	05:14:37:09	 	36.85384	-122.1167	2476920	2.34	21:24.0	Ventana	34.046	00:20:11:05	8.826	Osteichthyes					Animalia		Chordata						Vertebrata	Gnathostomata		Eukaryota		V3169-01
"population-density | self | dense, identity-reference | self | long, white"	cruise	Pennatulacea	97.89	3169	05:14:59:09	 	36.85388	-122.11658	2476923	2.34	21:46.0	Ventana	34.044	00:20:33:13	8.823	Anthozoa					Animalia	Pennatulacea	Cnidaria		Octocorallia							Eukaryota		V3169-01
identity-certainty | self | maybe	cruise	Pycnopodia helianthoides	97.61	3169	05:10:58:01	http://search.mbari.org/ARCHIVE/frameGrabs/Ventana/images/3169/00_16_33_11.jpg	36.853737	-122.11681	2476853	2.36	17:45.0	Ventana	34.039	00:16:33:11	8.845		Asteriidae	Pycnopodia			Animalia	Forcipulatida	Echinodermata	Pycnopodia helianthoides	Asteroidea							Eukaryota		V3169-01
identity-certainty | self | maybe	cruise	Rathbunaster californicus	97.82	3169	05:15:13:08	http://search.mbari.org/ARCHIVE/frameGrabs/Ventana/images/3169/00_20_46_23.jpg	36.853912	-122.11648	2476924	2.34	22:00.0	Ventana	34.045	00:20:46:23	8.826		Labidiasteridae	Rathbunaster			Animalia	Forcipulatida	Echinodermata	Rathbunaster californicus	Asteroidea							Eukaryota		V3169-01
"identity-reference | self | long, white"	cruise	Pennatulacea	97.82	3169	05:15:13:08	http://search.mbari.org/ARCHIVE/frameGrabs/Ventana/images/3169/00_20_46_23.jpg	36.853912	-122.11648	2476925	2.34	22:00.0	Ventana	34.045	00:20:46:23	8.826	Anthozoa					Animalia	Pennatulacea	Cnidaria		Octocorallia							Eukaryota		V3169-01
"swimming | nil | nil, population-quantity | self | 999"	cruise	Osteichthyes	97.9	3169	05:15:47:07	 	36.853973	-122.11627	2476933	2.36	22:34.0	Ventana	34.038	00:21:20:23	8.847	Osteichthyes					Animalia		Chordata						Vertebrata	Gnathostomata		Eukaryota		V3169-01
"population-quantity | self | 999, identity-reference | self | long, white"	cruise	Pennatulacea	97.78	3169	05:16:23:21	 	36.85404	-122.116066	2476936	2.36	23:11.0	Ventana	34.043	00:21:58:06	8.839	Anthozoa					Animalia	Pennatulacea	Cnidaria		Octocorallia							Eukaryota		V3169-01
"swimming | nil | nil, population-quantity | self | 999"	cruise	Osteichthyes	97.69	3169	05:17:03:20	 	36.854115	-122.11583	2476942	2.35	23:51.0	Ventana	34.044	00:22:37:04	8.826	Osteichthyes					Animalia		Chordata						Vertebrata	Gnathostomata		Eukaryota		V3169-01
"population-quantity | self | 999, identity-reference | self | long, white"	cruise	Pennatulacea	97.66	3169	05:17:09:19	 	36.854126	-122.1158	2476943	2.35	23:57.0	Ventana	34.044	00:22:44:18	8.825	Anthozoa					Animalia	Pennatulacea	Cnidaria		Octocorallia							Eukaryota		V3169-01
"population-quantity | self | 999, identity-reference | self | long, white"	cruise	Pennatulacea	97.41	3169	05:17:35:19	 	36.85418	-122.11567	2476945	2.35	24:23.0	Ventana	34.044	00:23:10:05	8.829	Anthozoa					Animalia	Pennatulacea	Cnidaria		Octocorallia							Eukaryota		V3169-01
population-quantity | self | 999	cruise	Metridium farcimen	97.31	3169	05:17:41:18	 	36.854195	-122.11564	2476948	2.35	24:29.0	Ventana	34.044	00:23:15:12	8.829	Anthozoa	Metridiidae	Metridium			Animalia	Actiniaria	Cnidaria	Metridium farcimen	Hexacorallia			Nyantheae				Eukaryota		V3169-01
"population-quantity | self | 999, identity-reference | self | long, white"	cruise	Pennatulacea	97.53	3169	05:17:48:03	 	36.854206	-122.115616	2476949	2.35	24:35.0	Ventana	34.044	00:23:21:27	8.829	Anthozoa					Animalia	Pennatulacea	Cnidaria		Octocorallia							Eukaryota		V3169-01
"swimming | nil | nil, population-quantity | self | 999"	cruise	Osteichthyes	97.32	3169	05:17:56:03	 	36.854218	-122.115585	2476950	2.36	24:43.0	Ventana	34.042	00:23:30:14	8.835	Osteichthyes					Animalia		Chordata						Vertebrata	Gnathostomata		Eukaryota		V3169-01
"population-quantity | self | 999, identity-reference | self | long, white"	cruise	Pennatulacea	97.29	3169	05:18:54:01	 	36.854355	-122.11528	2476954	2.35	25:41.0	Ventana	34.043	00:24:28:00	8.824	Anthozoa					Animalia	Pennatulacea	Cnidaria		Octocorallia							Eukaryota		V3169-01
"population-quantity | self | 999, identity-reference | self | long, white"	cruise	Pennatulacea	97.45	3169	05:19:28:15	 	36.854446	-122.115105	2476960	2.35	26:16.0	Ventana	34.044	00:25:01:23	8.828	Anthozoa					Animalia	Pennatulacea	Cnidaria		Octocorallia							Eukaryota		V3169-01
"population-quantity | self | 999, identity-reference | self | long, white"	cruise	Pennatulacea	97.09	3169	05:19:52:00	 	36.85451	-122.11498	2476962	2.35	26:40.0	Ventana	34.041	00:25:26:24	8.835	Anthozoa					Animalia	Pennatulacea	Cnidaria		Octocorallia							Eukaryota		V3169-01
"population-quantity | self | 999, identity-reference | self | long, white"	cruise	Pennatulacea	97.05	3169	05:20:18:14	 	36.85458	-122.11484	2476963	2.35	27:06.0	Ventana	34.044	00:25:53:19	8.828	Anthozoa					Animalia	Pennatulacea	Cnidaria		Octocorallia							Eukaryota		V3169-01
"population-quantity | self | 999, identity-reference | self | long, white"	cruise	Pennatulacea	97.14	3169	05:20:36:13	 	36.854626	-122.11474	2476964	2.35	27:24.0	Ventana	34.043	00:26:11:27	8.836	Anthozoa					Animalia	Pennatulacea	Cnidaria		Octocorallia							Eukaryota		V3169-01
comment | self | vs. Pychnopodia helianthoides; the ones on transect are definetely Rathbunaster	cruise	Rathbunaster californicus	96.71	3169	05:21:34:26	 	36.85478	-122.11442	2476977	2.35	28:22.0	Ventana	34.043	00:27:09:21	8.837		Labidiasteridae	Rathbunaster			Animalia	Forcipulatida	Echinodermata	Rathbunaster californicus	Asteroidea							Eukaryota		V3169-01
"population-quantity | self | 999, identity-reference | self | long, white"	cruise	Pennatulacea	96.5	3169	05:22:00:25	 	36.854843	-122.11428	2476979	2.35	28:48.0	Ventana	34.044	00:27:36:07	8.838	Anthozoa					Animalia	Pennatulacea	Cnidaria		Octocorallia							Eukaryota		V3169-01
identity-reference | self | start: moderate disturbance	cruise	sediment	96.77	3169	05:22:10:25	 	36.854866	-122.114235	2476984	2.35	28:58.0	Ventana	34.043	00:27:45:15	8.838																			V3169-01
"population-quantity | self | 999, identity-reference | self | long, white"	cruise	Pennatulacea	96.63	3169	05:22:31:09	 	36.854916	-122.114136	2476998	2.35	29:18.0	Ventana	34.042	00:28:05:16	8.835	Anthozoa					Animalia	Pennatulacea	Cnidaria		Octocorallia							Eukaryota		V3169-01
identity-reference | self | start: moderate disturbance	cruise	sediment	96.65	3169	05:22:45:09	 	36.85495	-122.11407	2477002	2.35	29:33.0	Ventana	34.041	00:28:18:21	8.835																			V3169-01
"population-quantity | self | 999, identity-reference | self | long, white"	cruise	Pennatulacea	96.62	3169	05:23:09:08	 	36.85501	-122.11394	2477006	2.35	29:57.0	Ventana	34.042	00:28:43:20	8.838	Anthozoa					Animalia	Pennatulacea	Cnidaria		Octocorallia							Eukaryota		V3169-01
"population-quantity | self | 999, identity-reference | self | long, white"	cruise	Pennatulacea	96.61	3169	05:23:33:08	 	36.85507	-122.1138	2477010	2.35	30:21.0	Ventana	34.043	00:29:08:06	8.835	Anthozoa					Animalia	Pennatulacea	Cnidaria		Octocorallia							Eukaryota		V3169-01
"population-quantity | self | 999, identity-reference | self | long, white"	cruise	Pennatulacea	96.63	3169	05:24:05:22	 	36.85515	-122.11362	2477013	2.35	30:53.0	Ventana	34.042	00:29:39:10	8.84	Anthozoa					Animalia	Pennatulacea	Cnidaria		Octocorallia							Eukaryota		V3169-01
"population-quantity | self | 999, identity-reference | self | long, white"	cruise	Pennatulacea	96.56	3169	05:24:25:21	 	36.855198	-122.1135	2477016	2.35	31:13.0	Ventana	34.041	00:30:00:18	8.84	Anthozoa					Animalia	Pennatulacea	Cnidaria		Octocorallia							Eukaryota		V3169-01
"population-quantity | self | 999, identity-reference | self | long, white"	cruise	Pennatulacea	96.48	3169	05:25:01:20	 	36.855293	-122.11329	2477017	2.35	31:49.0	Ventana	34.042	00:30:37:03	8.841	Anthozoa					Animalia	Pennatulacea	Cnidaria		Octocorallia							Eukaryota		V3169-01
"swimming | nil | nil, population-quantity | self | 999"	cruise	Osteichthyes	96.42	3169	05:25:13:20	 	36.855324	-122.11322	2477018	2.35	32:01.0	Ventana	34.042	00:30:47:16	8.842	Osteichthyes					Animalia		Chordata						Vertebrata	Gnathostomata		Eukaryota		V3169-01
identity-reference | self | end: deep groove	cruise	trench	96.61	3169	05:23:33:08	 	36.85507	-122.1138	2477019	2.35	30:21.0	Ventana	34.043	00:29:07:14	8.835																			V3169-01
"population-quantity | self | 999, identity-reference | self | long, white"	cruise	Pennatulacea	96.29	3169	05:25:29:19	 	36.855366	-122.11313	2477020	2.36	32:17.0	Ventana	34.04	00:31:04:01	8.846	Anthozoa					Animalia	Pennatulacea	Cnidaria		Octocorallia							Eukaryota		V3169-01
"population-quantity | self | 999, identity-reference | self | long, white"	cruise	Pennatulacea	96.44	3169	05:26:08:03	 	36.85546	-122.11291	2477022	2.36	32:56.0	Ventana	34.04	00:31:42:00	8.848	Anthozoa					Animalia	Pennatulacea	Cnidaria		Octocorallia							Eukaryota		V3169-01
"population-quantity | self | 999, identity-reference | self | long, white"	cruise	Pennatulacea	96.32	3169	05:26:40:02	 	36.855545	-122.11273	2477023	2.36	33:28.0	Ventana	34.039	00:32:14:27	8.848	Anthozoa					Animalia	Pennatulacea	Cnidaria		Octocorallia							Eukaryota		V3169-01
"population-quantity | self | 999, identity-reference | self | long, white"	cruise	Pennatulacea	96.15	3169	05:27:10:01	 	36.855618	-122.11258	2477025	2.36	33:58.0	Ventana	34.04	00:32:43:29	8.85	Anthozoa					Animalia	Pennatulacea	Cnidaria		Octocorallia							Eukaryota		V3169-01
"population-quantity | self | 999, identity-reference | self | long, white"	cruise	Pennatulacea	96.24	3169	05:27:38:15	 	36.85568	-122.11245	2477027	2.36	34:26.0	Ventana	34.04	00:33:12:17	8.853	Anthozoa					Animalia	Pennatulacea	Cnidaria		Octocorallia							Eukaryota		V3169-01
"population-quantity | self | 999, identity-reference | self | long, white"	cruise	Pennatulacea	96.28	3169	05:29:38:26	 	36.855846	-122.112114	2477031	2.36	36:27.0	Ventana	34.04	00:35:12:25	8.853	Anthozoa					Animalia	Pennatulacea	Cnidaria		Octocorallia							Eukaryota		V3169-01
"population-quantity | self | 999, identity-reference | self | long, white"	cruise	Pennatulacea	96.25	3169	05:30:02:26	 	36.8559	-122.112015	2477033	2.36	36:51.0	Ventana	34.04	00:35:37:12	8.85	Anthozoa					Animalia	Pennatulacea	Cnidaria		Octocorallia							Eukaryota		V3169-01
"population-quantity | self | 999, identity-reference | self | long, white"	cruise	Pennatulacea	95.95	3169	05:30:12:25	 	36.855927	-122.11196	2477037	2.36	37:01.0	Ventana	34.039	00:35:47:29	8.853	Anthozoa					Animalia	Pennatulacea	Cnidaria		Octocorallia							Eukaryota		V3169-01
identity-reference | self | start: moderate groove	cruise	trench	96.61	3169	05:23:33:08	 	36.85507	-122.1138	2477040	2.35	30:21.0	Ventana	34.043	00:29:07:14	8.835																			V3169-01
"population-quantity | self | 999, identity-reference | self | long, white"	cruise	Pennatulacea	95.78	3169	05:31:01:09	 	36.85605	-122.111694	2477042	2.36	37:49.0	Ventana	34.04	00:36:35:20	8.855	Anthozoa					Animalia	Pennatulacea	Cnidaria		Octocorallia							Eukaryota		V3169-01
"identity-reference | self | long, white"	cruise	Pennatulacea	95.68	3169	05:32:25:22	 	36.856316	-122.11108	2477046	2.37	39:14.0	Ventana	34.039	00:38:00:03	8.859	Anthozoa					Animalia	Pennatulacea	Cnidaria		Octocorallia							Eukaryota		V3169-01
"population-quantity | self | 999, identity-reference | self | long, white"	cruise	Pennatulacea	95.61	3169	05:32:55:21	 	36.856365	-122.110985	2477047	2.37	39:44.0	Ventana	34.039	00:38:30:01	8.858	Anthozoa					Animalia	Pennatulacea	Cnidaria		Octocorallia							Eukaryota		V3169-01
"population-quantity | self | 999, identity-reference | self | long, white"	cruise	Pennatulacea	95.38	3169	05:34:14:03	 	36.85658	-122.11061	2477054	2.37	41:02.0	Ventana	34.039	00:39:47:25	8.858	Anthozoa					Animalia	Pennatulacea	Cnidaria		Octocorallia							Eukaryota		V3169-01
"population-quantity | self | 999, identity-reference | self | long, white"	cruise	Pennatulacea	95.29	3169	05:35:04:17	 	36.856712	-122.11028	2477058	2.37	41:53.0	Ventana	34.039	00:40:38:23	8.858	Anthozoa					Animalia	Pennatulacea	Cnidaria		Octocorallia							Eukaryota		V3169-01
"population-quantity | self | 999, identity-reference | self | long, white"	cruise	Pennatulacea	95.13	3169	05:35:26:16	 	36.856773	-122.110146	2477061	2.37	42:15.0	Ventana	34.039	00:41:00:17	8.859	Anthozoa					Animalia	Pennatulacea	Cnidaria		Octocorallia							Eukaryota		V3169-01
"population-quantity | self | 999, identity-reference | self | long, white"	cruise	Pennatulacea	95.08	3169	05:36:06:15	 	36.85688	-122.10989	2477063	2.36	42:55.0	Ventana	34.04	00:41:40:05	8.856	Anthozoa					Animalia	Pennatulacea	Cnidaria		Octocorallia							Eukaryota		V3169-01
"population-quantity | self | 999, identity-reference | self | long, white"	cruise	Pennatulacea	95.06	3169	05:36:16:15	 	36.856907	-122.10983	2477068	2.36	43:05.0	Ventana	34.04	00:41:51:12	8.856	Anthozoa					Animalia	Pennatulacea	Cnidaria		Octocorallia							Eukaryota		V3169-01
"population-quantity | self | 999, identity-reference | self | long, white"	cruise	Pennatulacea	95	3169	05:36:36:14	 	36.856956	-122.10971	2477071	2.37	43:25.0	Ventana	34.039	00:42:11:02	8.861	Anthozoa					Animalia	Pennatulacea	Cnidaria		Octocorallia							Eukaryota		V3169-01
"identity-reference | self | long, white"	cruise	Pennatulacea	94.87	3169	05:36:52:29	 	36.857	-122.10963	2477072	2.37	43:41.0	Ventana	34.039	00:42:27:03	8.861	Anthozoa					Animalia	Pennatulacea	Cnidaria		Octocorallia							Eukaryota		V3169-01
"identity-reference | self | long, white"	transect	Pennatulacea	94.81	3169	05:39:17:24	 	36.857174	-122.10928	2477290	2.38	46:06.0	Ventana	34.038	00:44:52:29	8.869	Anthozoa					Animalia	Pennatulacea	Cnidaria		Octocorallia							Eukaryota		V3169-01
"identity-reference | self | long, white"	transect	Pennatulacea	94.59	3169	05:39:25:24	 	36.857178	-122.109276	2477295	2.37	46:14.0	Ventana	34.037	00:45:00:28	8.87	Anthozoa					Animalia	Pennatulacea	Cnidaria		Octocorallia							Eukaryota		V3169-01
"identity-reference | self | long, white"	transect	Pennatulacea	94.61	3169	05:39:39:23	 	36.857185	-122.10926	2477311	2.38	46:28.0	Ventana	34.036	00:45:14:08	8.873	Anthozoa					Animalia	Pennatulacea	Cnidaria		Octocorallia							Eukaryota		V3169-01
"identity-reference | self | long, white"	transect	Pennatulacea	94.54	3169	05:39:51:23	http://search.mbari.org/ARCHIVE/frameGrabs/Ventana/images/3169/00_45_27_05.jpg	36.85719	-122.10925	2477316	2.38	46:40.0	Ventana	34.038	00:45:27:05	8.872	Anthozoa					Animalia	Pennatulacea	Cnidaria		Octocorallia							Eukaryota		V3169-01
"identity-reference | self | long, white"	transect	Pennatulacea	94.54	3169	05:39:51:23	http://search.mbari.org/ARCHIVE/frameGrabs/Ventana/images/3169/00_45_27_05.jpg	36.85719	-122.10925	2477321	2.38	46:40.0	Ventana	34.038	00:45:27:05	8.872	Anthozoa					Animalia	Pennatulacea	Cnidaria		Octocorallia							Eukaryota		V3169-01
"identity-reference | self | long, white"	transect	Pennatulacea	94.71	3169	05:39:59:23	 	36.857265	-122.109085	2477324	2.38	46:48.0	Ventana	34.038	00:45:34:18	8.872	Anthozoa					Animalia	Pennatulacea	Cnidaria		Octocorallia							Eukaryota		V3169-01
life-stage | self | juvenile	transect	Pleuronectiformes	94.62	3169	05:40:03:23	http://search.mbari.org/ARCHIVE/frameGrabs/Ventana/images/3169/00_45_38_16.jpg	36.857265	-122.109085	2477334	2.38	46:52.0	Ventana	34.038	00:45:38:16	8.872	Osteichthyes			Neopterygii		Animalia	Pleuronectiformes	Chordata		Actinopterygii				Vertebrata	Gnathostomata		Eukaryota	Acanthopterygii	V3169-01
"identity-reference | self | long, white"	transect	Pennatulacea	94.52	3169	05:40:13:23	 	36.857273	-122.10907	2477342	2.38	47:02.0	Ventana	34.037	00:45:47:26	8.874	Anthozoa					Animalia	Pennatulacea	Cnidaria		Octocorallia							Eukaryota		V3169-01
"identity-reference | self | long, white"	transect	Pennatulacea	94.52	3169	05:40:13:23	 	36.857273	-122.10907	2477343	2.38	47:02.0	Ventana	34.037	00:45:48:19	8.874	Anthozoa					Animalia	Pennatulacea	Cnidaria		Octocorallia							Eukaryota		V3169-01
posture | self | closed	transect	Metridium farcimen	94.46	3169	05:40:21:22	http://search.mbari.org/ARCHIVE/frameGrabs/Ventana/images/3169/00_45_56_20.jpg	36.857277	-122.109055	2477350	2.38	47:10.0	Ventana	34.037	00:45:56:20	8.874	Anthozoa	Metridiidae	Metridium			Animalia	Actiniaria	Cnidaria	Metridium farcimen	Hexacorallia			Nyantheae				Eukaryota		V3169-01
"identity-reference | self | long, white"	transect	Pennatulacea	94.42	3169	05:40:33:22	 	36.85729	-122.10903	2477359	2.38	47:22.0	Ventana	34.037	00:46:08:24	8.874	Anthozoa					Animalia	Pennatulacea	Cnidaria		Octocorallia							Eukaryota		V3169-01
"identity-reference | self | long, white"	transect	Pennatulacea	94.43	3169	05:40:38:07	 	36.857292	-122.109024	2477360	2.38	47:26.0	Ventana	34.038	00:46:11:21	8.875	Anthozoa					Animalia	Pennatulacea	Cnidaria		Octocorallia							Eukaryota		V3169-01
"identity-reference | self | long, white"	transect	Pennatulacea	94.31	3169	05:40:50:07	 	36.857307	-122.108986	2477377	2.38	47:39.0	Ventana	34.036	00:46:24:07	8.879	Anthozoa					Animalia	Pennatulacea	Cnidaria		Octocorallia							Eukaryota		V3169-01
"identity-reference | self | long, white"	transect	Pennatulacea	94.31	3169	05:41:16:06	 	36.857338	-122.10891	2477398	2.39	48:05.0	Ventana	34.036	00:46:50:11	8.878	Anthozoa					Animalia	Pennatulacea	Cnidaria		Octocorallia							Eukaryota		V3169-01
"identity-reference | self | long, white"	transect	Pennatulacea	94.31	3169	05:41:16:06	 	36.857338	-122.10891	2477399	2.39	48:05.0	Ventana	34.036	00:46:50:11	8.878	Anthozoa					Animalia	Pennatulacea	Cnidaria		Octocorallia							Eukaryota		V3169-01
"identity-reference | self | long, white"	transect	Pennatulacea	94.31	3169	05:41:16:06	 	36.857338	-122.10891	2477400	2.39	48:05.0	Ventana	34.036	00:46:50:11	8.878	Anthozoa					Animalia	Pennatulacea	Cnidaria		Octocorallia							Eukaryota		V3169-01
comment | self | swimming sardine-like	transect	Osteichthyes	94.69	3169	05:39:15:25	http://search.mbari.org/ARCHIVE/frameGrabs/Ventana/images/3169/00_44_50_09.jpg	36.85717	-122.10928	2477278	2.38	46:04.0	Ventana	34.038	00:44:50:09	8.869	Osteichthyes					Animalia		Chordata						Vertebrata	Gnathostomata		Eukaryota		V3169-01
comment | self | swimming sardine-like	transect	Osteichthyes	94.63	3169	05:39:35:24	 	36.85718	-122.10926	2477300	2.38	46:24.0	Ventana	34.036	00:45:10:16	8.873	Osteichthyes					Animalia		Chordata						Vertebrata	Gnathostomata		Eukaryota		V3169-01
comment | self | swimming sardine-like	transect	Osteichthyes	94.58	3169	05:40:09:23	 	36.85727	-122.10908	2477340	2.38	46:58.0	Ventana	34.037	00:45:43:13	8.874	Osteichthyes					Animalia		Chordata						Vertebrata	Gnathostomata		Eukaryota		V3169-01
comment | self | swimming sardine-like	transect	Osteichthyes	94.58	3169	05:40:09:23	 	36.85727	-122.10908	2477341	2.38	46:58.0	Ventana	34.037	00:45:43:13	8.874	Osteichthyes					Animalia		Chordata						Vertebrata	Gnathostomata		Eukaryota		V3169-01
comment | self | swimming sardine-like	transect	Osteichthyes	94.45	3169	05:40:15:22	 	36.857273	-122.10907	2477346	2.38	47:04.0	Ventana	34.037	00:45:50:03	8.874	Osteichthyes					Animalia		Chordata						Vertebrata	Gnathostomata		Eukaryota		V3169-01
comment | self | swimming sardine-like	transect	Osteichthyes	94.31	3169	05:40:50:07	 	36.857307	-122.108986	2477374	2.38	47:39.0	Ventana	34.036	00:46:24:07	8.879	Osteichthyes					Animalia		Chordata						Vertebrata	Gnathostomata		Eukaryota		V3169-01
comment | self | swimming sardine-like	transect	Osteichthyes	94.31	3169	05:40:50:07	 	36.857307	-122.108986	2477375	2.38	47:39.0	Ventana	34.036	00:46:24:07	8.879	Osteichthyes					Animalia		Chordata						Vertebrata	Gnathostomata		Eukaryota		V3169-01
comment | self | swimming sardine-like	transect	Osteichthyes	94.33	3169	05:40:52:06	 	36.857307	-122.10898	2477381	2.38	47:41.0	Ventana	34.036	00:46:27:07	8.879	Osteichthyes					Animalia		Chordata						Vertebrata	Gnathostomata		Eukaryota		V3169-01
comment | self | swimming sardine-like	transect	Osteichthyes	94.39	3169	05:41:08:06	 	36.857327	-122.10894	2477395	2.39	47:57.0	Ventana	34.036	00:46:43:12	8.878	Osteichthyes					Animalia		Chordata						Vertebrata	Gnathostomata		Eukaryota		V3169-01
comment | self | swimming sardine-like	transect	Osteichthyes	94.35	3169	05:41:12:06	 	36.857334	-122.108925	2477396	2.39	48:01.0	Ventana	34.036	00:46:46:04	8.878	Osteichthyes					Animalia		Chordata						Vertebrata	Gnathostomata		Eukaryota		V3169-01
comment | self | swimming sardine-like	transect	Osteichthyes	94.3	3169	05:41:24:06	 	36.857346	-122.10889	2477403	2.39	48:13.0	Ventana	34.037	00:46:58:14	8.878	Osteichthyes					Animalia		Chordata						Vertebrata	Gnathostomata		Eukaryota		V3169-01
upon | benthos | nil	transect	Osteichthyes	94.25	3169	05:41:26:05	http://search.mbari.org/ARCHIVE/frameGrabs/Ventana/images/3169/00_47_00_14.jpg	36.85735	-122.10888	2477467	2.39	48:15.0	Ventana	34.037	00:47:00:14	8.878	Osteichthyes					Animalia		Chordata						Vertebrata	Gnathostomata		Eukaryota		V3169-01
comment | self | swimming sardine-like	transect	Osteichthyes	94.26	3169	05:41:28:05	 	36.857353	-122.10888	2477470	2.39	48:17.0	Ventana	34.037	00:47:02:20	8.878	Osteichthyes					Animalia		Chordata						Vertebrata	Gnathostomata		Eukaryota		V3169-01
"identity-reference | self | long, white"	transect	Pennatulacea	94.3	3169	05:41:32:05	 	36.857357	-122.108864	2477472	2.39	48:21.0	Ventana	34.037	00:47:06:00	8.878	Anthozoa					Animalia	Pennatulacea	Cnidaria		Octocorallia							Eukaryota		V3169-01
comment | self | swimming sardine-like	transect	Osteichthyes	94.3	3169	05:41:32:05	 	36.857357	-122.108864	2477474	2.39	48:21.0	Ventana	34.037	00:47:06:00	8.878	Osteichthyes					Animalia		Chordata						Vertebrata	Gnathostomata		Eukaryota		V3169-01
comment | self | swimming sardine-like	transect	Osteichthyes	94.39	3169	05:41:38:05	 	36.857365	-122.10884	2477476	2.39	48:27.0	Ventana	34.037	00:47:11:28	8.878	Osteichthyes					Animalia		Chordata						Vertebrata	Gnathostomata		Eukaryota		V3169-01
comment | self | swimming sardine-like	transect	Osteichthyes	94.31	3169	05:41:50:05	 	36.857376	-122.1088	2477480	2.39	48:39.0	Ventana	34.036	00:47:23:21	8.879	Osteichthyes					Animalia		Chordata						Vertebrata	Gnathostomata		Eukaryota		V3169-01
"identity-reference | self | long, white"	transect	Pennatulacea	94.35	3169	05:41:56:04	 	36.857384	-122.10877	2477483	2.39	48:45.0	Ventana	34.036	00:47:30:09	8.879	Anthozoa					Animalia	Pennatulacea	Cnidaria		Octocorallia							Eukaryota		V3169-01
"identity-reference | self | long, white"	transect	Pennatulacea	94.35	3169	05:41:56:04	 	36.857384	-122.10877	2477484	2.39	48:45.0	Ventana	34.036	00:47:30:09	8.879	Anthozoa					Animalia	Pennatulacea	Cnidaria		Octocorallia							Eukaryota		V3169-01
comment | self | swimming sardine-like	transect	Osteichthyes	94.26	3169	05:42:00:05	 	36.85739	-122.108765	2477486	2.39	48:49.0	Ventana	34.036	00:47:34:07	8.879	Osteichthyes					Animalia		Chordata						Vertebrata	Gnathostomata		Eukaryota		V3169-01
part-of | Pleurobranchaea californica | nil	transect	eggcase	94.27	3169	05:42:02:04	http://search.mbari.org/ARCHIVE/frameGrabs/Ventana/images/3169/00_47_35_23.jpg	36.85739	-122.10875	2477491	2.39	48:51.0	Ventana	34.036	00:47:35:23	8.879																			V3169-01
"identity-reference | self | long, white"	transect	Pennatulacea	94.19	3169	05:42:10:04	 	36.8574	-122.10872	2477506	2.39	48:59.0	Ventana	34.037	00:47:44:12	8.88	Anthozoa					Animalia	Pennatulacea	Cnidaria		Octocorallia							Eukaryota		V3169-01
"identity-reference | self | long, white"	transect	Pennatulacea	94.31	3169	05:42:16:04	 	36.857407	-122.108696	2477509	2.39	49:05.0	Ventana	34.037	00:47:51:04	8.88	Anthozoa					Animalia	Pennatulacea	Cnidaria		Octocorallia							Eukaryota		V3169-01
"identity-reference | self | long, white"	transect	Pennatulacea	94.33	3169	05:42:20:04	 	36.857414	-122.10867	2477511	2.39	49:09.0	Ventana	34.035	00:47:53:28	8.884	Anthozoa					Animalia	Pennatulacea	Cnidaria		Octocorallia							Eukaryota		V3169-01
comment | self | swimming sardine-like	transect	Osteichthyes	94.27	3169	05:42:24:19	http://search.mbari.org/ARCHIVE/frameGrabs/Ventana/images/3169/00_47_58_29.jpg	36.857418	-122.10866	2477524	2.39	49:13.0	Ventana	34.035	00:47:58:29	8.884	Osteichthyes					Animalia		Chordata						Vertebrata	Gnathostomata		Eukaryota		V3169-01
comment | self | swimming sardine-like	transect	Osteichthyes	94.24	3169	05:42:26:18	http://search.mbari.org/ARCHIVE/frameGrabs/Ventana/images/3169/00_48_01_07.jpg	36.857418	-122.10865	2477535	2.39	49:15.0	Ventana	34.035	00:48:01:07	8.884	Osteichthyes					Animalia		Chordata						Vertebrata	Gnathostomata		Eukaryota		V3169-01
comment | self | could also be S. chlorostictus 	transect	Sebastes rosenblatti	94.24	3169	05:42:26:18	http://search.mbari.org/ARCHIVE/frameGrabs/Ventana/images/3169/00_48_01_07.jpg	36.857418	-122.10865	2477536	2.39	49:15.0	Ventana	34.035	00:48:01:07	8.884	Osteichthyes	Scorpaenidae	Sebastes	Neopterygii		Animalia	Scorpaeniformes	Chordata	Sebastes rosenblatti	Actinopterygii			Scorpaenoidei	Vertebrata	Gnathostomata		Eukaryota	Acanthopterygii	V3169-01
"identity-reference | self | long, white"	transect	Pennatulacea	94.27	3169	05:42:30:19	 	36.85742	-122.108635	2477601	2.39	49:19.0	Ventana	34.035	00:48:04:20	8.884	Anthozoa					Animalia	Pennatulacea	Cnidaria		Octocorallia							Eukaryota		V3169-01
"mating | nil | nil, population-quantity | self | 2"	transect	Pleurobranchaea californica	94.56	3169	05:42:40:18	http://search.mbari.org/ARCHIVE/frameGrabs/Ventana/images/3169/00_48_14_13.jpg	36.857433	-122.1086	2477609	2.39	49:29.0	Ventana	34.035	00:48:14:13	8.882	Gastropoda	Pleurobranchidae	Pleurobranchaea			Animalia	Notaspidea	Mollusca	Pleurobranchaea californica	Opisthobranchia						Pleurobranchiacea	Eukaryota		V3169-01
"identity-reference | self | long, white"	transect	Pennatulacea	94.09	3169	05:42:46:18	 	36.85744	-122.10857	2477615	2.39	49:35.0	Ventana	34.035	00:48:20:03	8.882	Anthozoa					Animalia	Pennatulacea	Cnidaria		Octocorallia							Eukaryota		V3169-01
"identity-reference | self | long, white"	transect	Pennatulacea	94.09	3169	05:42:46:18	 	36.85744	-122.10857	2477617	2.39	49:35.0	Ventana	34.035	00:48:21:08	8.882	Anthozoa					Animalia	Pennatulacea	Cnidaria		Octocorallia							Eukaryota		V3169-01
"identity-reference | self | long, white"	transect	Pennatulacea	94.43	3169	05:42:54:18	 	36.85745	-122.108536	2477619	2.39	49:43.0	Ventana	34.035	00:48:28:10	8.883	Anthozoa					Animalia	Pennatulacea	Cnidaria		Octocorallia							Eukaryota		V3169-01
"identity-reference | self | long, white"	transect	Pennatulacea	94.26	3169	05:42:58:18	 	36.857452	-122.10852	2477622	2.39	49:47.0	Ventana	34.035	00:48:32:28	8.883	Anthozoa					Animalia	Pennatulacea	Cnidaria		Octocorallia							Eukaryota		V3169-01
comment | self | swimming sardine-like	transect	Osteichthyes	94.18	3169	05:43:02:17	 	36.857456	-122.108505	2477631	2.39	49:51.0	Ventana	34.035	00:48:37:16	8.883	Osteichthyes					Animalia		Chordata						Vertebrata	Gnathostomata		Eukaryota		V3169-01
comment | self | swimming sardine-like	transect	Osteichthyes	94.18	3169	05:43:02:17	 	36.857456	-122.108505	2477632	2.39	49:51.0	Ventana	34.035	00:48:37:16	8.883	Osteichthyes					Animalia		Chordata						Vertebrata	Gnathostomata		Eukaryota		V3169-01
"identity-gender | self | female, habitat | self | sandy mud"	transect	Bathyraja kincaidii	94.14	3169	05:43:04:17	http://search.mbari.org/ARCHIVE/frameGrabs/Ventana/images/3169/00_48_39_04.jpg	36.85746	-122.1085	2477640	2.39	49:53.0	Ventana	34.036	00:48:39:04	8.879	Chondrichthyes	Arhynchobatidae	Bathyraja			Animalia	Rajiformes	Chordata	Bathyraja kincaidii	Elasmobranchii				Vertebrata			Eukaryota	Batoidea	V3169-01
"identity-reference | self | long, white"	transect	Pennatulacea	94.22	3169	05:43:10:17	 	36.857464	-122.108475	2477669	2.39	49:59.0	Ventana	34.036	00:48:45:02	8.879	Anthozoa					Animalia	Pennatulacea	Cnidaria		Octocorallia							Eukaryota		V3169-01
"identity-reference | self | long, white"	transect	Pennatulacea	94.04	3169	05:43:18:17	 	36.857475	-122.108444	2477674	2.39	50:07.0	Ventana	34.036	00:48:52:02	8.879	Anthozoa					Animalia	Pennatulacea	Cnidaria		Octocorallia							Eukaryota		V3169-01
"identity-reference | self | long, white"	transect	Pennatulacea	94.04	3169	05:43:18:17	 	36.857475	-122.108444	2477675	2.39	50:07.0	Ventana	34.036	00:48:52:02	8.879	Anthozoa					Animalia	Pennatulacea	Cnidaria		Octocorallia							Eukaryota		V3169-01
comment | self | swimming sardine-like	transect	Osteichthyes	94.07	3169	05:43:28:17	 	36.857487	-122.108406	2477680	2.39	50:17.0	Ventana	34.036	00:49:02:24	8.881	Osteichthyes					Animalia		Chordata						Vertebrata	Gnathostomata		Eukaryota		V3169-01
"identity-reference | self | long, white"	transect	Pennatulacea	94.02	3169	05:43:42:16	 	36.8575	-122.10835	2477743	2.39	50:31.0	Ventana	34.036	00:49:16:25	8.881	Anthozoa					Animalia	Pennatulacea	Cnidaria		Octocorallia							Eukaryota		V3169-01
"identity-reference | self | long, white"	transect	Pennatulacea	94.08	3169	05:43:46:16	 	36.8575	-122.10834	2477745	2.39	50:35.0	Ventana	34.036	00:49:21:11	8.881	Anthozoa					Animalia	Pennatulacea	Cnidaria		Octocorallia							Eukaryota		V3169-01
"identity-reference | self | long, white"	transect	Pennatulacea	94.08	3169	05:43:46:16	 	36.8575	-122.10834	2477746	2.39	50:35.0	Ventana	34.036	00:49:21:11	8.881	Anthozoa					Animalia	Pennatulacea	Cnidaria		Octocorallia							Eukaryota		V3169-01
"identity-reference | self | long, white"	transect	Pennatulacea	94.07	3169	05:43:50:16	 	36.857506	-122.10832	2478322	2.39	50:39.0	Ventana	34.037	00:49:24:04	8.882	Anthozoa					Animalia	Pennatulacea	Cnidaria		Octocorallia							Eukaryota		V3169-01
"identity-reference | self | long, white"	transect	Pennatulacea	94.19	3169	05:43:54:16	 	36.857506	-122.10831	2478323	2.39	50:43.0	Ventana	34.037	00:49:28:03	8.882	Anthozoa					Animalia	Pennatulacea	Cnidaria		Octocorallia							Eukaryota		V3169-01
comment | self | swimming sardine-like	transect	Osteichthyes	94.2	3169	05:43:57:01	 	36.857506	-122.1083	2478324	2.39	50:45.0	Ventana	34.037	00:49:30:01	8.882	Osteichthyes					Animalia		Chordata						Vertebrata	Gnathostomata		Eukaryota		V3169-01
comment | self | swimming sardine-like	transect	Osteichthyes	94.18	3169	05:44:03:00	 	36.85751	-122.10828	2478325	2.39	50:52.0	Ventana	34.037	00:49:37:04	8.882	Osteichthyes					Animalia		Chordata						Vertebrata	Gnathostomata		Eukaryota		V3169-01
"population-quantity | self | 999, identity-reference | self | long, white"	cruise	Pennatulacea	94.07	3169	05:44:31:00	 	36.85748	-122.1082	2478327	2.4	51:20.0	Ventana	34.035	00:50:06:07	8.886	Anthozoa					Animalia	Pennatulacea	Cnidaria		Octocorallia							Eukaryota		V3169-01
"population-quantity | self | 999, identity-reference | self | long, white"	cruise	Pennatulacea	94.15	3169	05:45:00:29	 	36.857384	-122.10812	2478328	2.4	51:50.0	Ventana	34.036	00:50:35:14	8.881	Anthozoa					Animalia	Pennatulacea	Cnidaria		Octocorallia							Eukaryota		V3169-01
comment | self | swimming sardine-like	cruise	Osteichthyes	94.13	3169	05:45:18:28	 	36.85731	-122.10806	2478329	2.39	52:08.0	Ventana	34.037	00:50:54:03	8.88	Osteichthyes					Animalia		Chordata						Vertebrata	Gnathostomata		Eukaryota		V3169-01
"population-quantity | self | 999, identity-reference | self | long, white"	cruise	Pennatulacea	94.22	3169	05:45:34:28	 	36.857243	-122.10801	2478333	2.39	52:24.0	Ventana	34.036	00:51:08:13	8.881	Anthozoa					Animalia	Pennatulacea	Cnidaria		Octocorallia							Eukaryota		V3169-01
"identity-reference | self | long, white"	transect	Pennatulacea	94.32	3169	05:46:35:11	 	36.857113	-122.10794	2478335	2.4	53:24.0	Ventana	34.036	00:52:10:17	8.885	Anthozoa					Animalia	Pennatulacea	Cnidaria		Octocorallia							Eukaryota		V3169-01
"identity-reference | self | long, white"	transect	Pennatulacea	94.34	3169	05:46:47:11	 	36.857105	-122.10796	2478336	2.4	53:36.0	Ventana	34.036	00:52:21:10	8.885	Anthozoa					Animalia	Pennatulacea	Cnidaria		Octocorallia							Eukaryota		V3169-01
"identity-reference | self | long, white"	transect	Pennatulacea	94.3	3169	05:46:49:11	 	36.857105	-122.10796	2478337	2.4	53:38.0	Ventana	34.036	00:52:23:16	8.88	Anthozoa					Animalia	Pennatulacea	Cnidaria		Octocorallia							Eukaryota		V3169-01
"identity-reference | self | long, white"	transect	Pennatulacea	94.08	3169	05:46:53:10	 	36.8571	-122.10797	2478338	2.4	53:42.0	Ventana	34.036	00:52:28:21	8.88	Anthozoa					Animalia	Pennatulacea	Cnidaria		Octocorallia							Eukaryota		V3169-01
"identity-reference | self | long, white"	transect	Pennatulacea	94.23	3169	05:46:57:10	 	36.8571	-122.10798	2478339	2.4	53:46.0	Ventana	34.036	00:52:32:03	8.88	Anthozoa					Animalia	Pennatulacea	Cnidaria		Octocorallia							Eukaryota		V3169-01
"identity-reference | self | long, white"	transect	Pennatulacea	94.23	3169	05:46:57:10	 	36.8571	-122.10798	2478340	2.4	53:46.0	Ventana	34.036	00:52:32:24	8.88	Anthozoa					Animalia	Pennatulacea	Cnidaria		Octocorallia							Eukaryota		V3169-01
"identity-reference | self | long, white"	transect	Pennatulacea	94.31	3169	05:46:59:10	 	36.857098	-122.10798	2478341	2.4	53:48.0	Ventana	34.036	00:52:33:10	8.88	Anthozoa					Animalia	Pennatulacea	Cnidaria		Octocorallia							Eukaryota		V3169-01
"identity-reference | self | long, white"	transect	Pennatulacea	94.4	3169	05:47:09:10	 	36.857086	-122.108	2478342	2.39	53:58.0	Ventana	34.035	00:52:44:03	8.885	Anthozoa					Animalia	Pennatulacea	Cnidaria		Octocorallia							Eukaryota		V3169-01
"identity-reference | self | long, white"	transect	Pennatulacea	94.29	3169	05:47:15:10	 	36.857082	-122.10801	2478343	2.39	54:04.0	Ventana	34.035	00:52:49:13	8.885	Anthozoa					Animalia	Pennatulacea	Cnidaria		Octocorallia							Eukaryota		V3169-01
"identity-reference | self | long, white"	transect	Pennatulacea	94.3	3169	05:47:23:24	 	36.85707	-122.10803	2478344	2.4	54:13.0	Ventana	34.035	00:52:58:10	8.89	Anthozoa					Animalia	Pennatulacea	Cnidaria		Octocorallia							Eukaryota		V3169-01
comment | self | swimming sardine-like	transect	Osteichthyes	94.44	3169	05:47:31:24	 	36.857063	-122.10805	2478345	2.4	54:21.0	Ventana	34.035	00:53:06:06	8.89	Osteichthyes					Animalia		Chordata						Vertebrata	Gnathostomata		Eukaryota		V3169-01
comment | self | swimming sardine-like	transect	Osteichthyes	94.44	3169	05:47:31:24	 	36.857063	-122.10805	2478346	2.4	54:21.0	Ventana	34.035	00:53:06:06	8.89	Osteichthyes					Animalia		Chordata						Vertebrata	Gnathostomata		Eukaryota		V3169-01
comment | self | swimming sardine-like	transect	Osteichthyes	94.44	3169	05:47:31:24	 	36.857063	-122.10805	2478347	2.4	54:21.0	Ventana	34.035	00:53:06:06	8.89	Osteichthyes					Animalia		Chordata						Vertebrata	Gnathostomata		Eukaryota		V3169-01
"identity-reference | self | long, white"	transect	Pennatulacea	94.28	3169	05:47:43:24	 	36.85705	-122.10807	2478348	2.4	54:33.0	Ventana	34.037	00:53:17:20	8.888	Anthozoa					Animalia	Pennatulacea	Cnidaria		Octocorallia							Eukaryota		V3169-01
"identity-reference | self | long, white"	transect	Pennatulacea	94.4	3169	05:47:45:24	 	36.857048	-122.10808	2478349	2.4	54:35.0	Ventana	34.037	00:53:19:08	8.888	Anthozoa					Animalia	Pennatulacea	Cnidaria		Octocorallia							Eukaryota		V3169-01
"identity-reference | self | long, white"	transect	Pennatulacea	94.54	3169	05:47:55:24	 	36.85704	-122.1081	2478350	2.4	54:45.0	Ventana	34.036	00:53:30:26	8.881	Anthozoa					Animalia	Pennatulacea	Cnidaria		Octocorallia							Eukaryota		V3169-01
"identity-reference | self | long, white"	transect	Pennatulacea	94.35	3169	05:48:01:24	 	36.857033	-122.108116	2478351	2.4	54:51.0	Ventana	34.036	00:53:37:07	8.881	Anthozoa					Animalia	Pennatulacea	Cnidaria		Octocorallia							Eukaryota		V3169-01
"identity-reference | self | long, white"	transect	Pennatulacea	94.19	3169	05:48:03:23	 	36.857033	-122.108116	2478352	2.39	54:53.0	Ventana	34.036	00:53:37:17	8.883	Anthozoa					Animalia	Pennatulacea	Cnidaria		Octocorallia							Eukaryota		V3169-01
comment | self | swimming sardine-like	transect	Osteichthyes	94.44	3169	05:48:13:23	 	36.857025	-122.10814	2478355	2.39	55:03.0	Ventana	34.036	00:53:47:07	8.883	Osteichthyes					Animalia		Chordata						Vertebrata	Gnathostomata		Eukaryota		V3169-01
comment | self | swimming sardine-like	transect	Osteichthyes	94.44	3169	05:48:13:23	 	36.857025	-122.10814	2478356	2.39	55:03.0	Ventana	34.036	00:53:47:17	8.883	Osteichthyes					Animalia		Chordata						Vertebrata	Gnathostomata		Eukaryota		V3169-01
"identity-reference | self | long, white"	transect	Pennatulacea	94.35	3169	05:48:15:23	 	36.85702	-122.10815	2478357	2.39	55:05.0	Ventana	34.036	00:53:50:25	8.883	Anthozoa					Animalia	Pennatulacea	Cnidaria		Octocorallia							Eukaryota		V3169-01
comment | self | swimming sardine-like	transect	Osteichthyes	94.35	3169	05:48:23:23	 	36.857018	-122.10817	2478358	2.4	55:13.0	Ventana	34.033	00:53:58:16	8.898	Osteichthyes					Animalia		Chordata						Vertebrata	Gnathostomata		Eukaryota		V3169-01
"identity-reference | self | long, white"	transect	Pennatulacea	94.35	3169	05:48:25:22	 	36.857014	-122.10817	2478359	2.4	55:15.0	Ventana	34.033	00:54:00:14	8.898	Anthozoa					Animalia	Pennatulacea	Cnidaria		Octocorallia							Eukaryota		V3169-01
"identity-reference | self | long, white"	transect	Pennatulacea	94.35	3169	05:48:25:22	 	36.857014	-122.10817	2478360	2.4	55:15.0	Ventana	34.033	00:54:00:26	8.898	Anthozoa					Animalia	Pennatulacea	Cnidaria		Octocorallia							Eukaryota		V3169-01
"identity-reference | self | long, white"	transect	Pennatulacea	94.29	3169	05:48:27:22	 	36.857014	-122.10818	2478361	2.4	55:17.0	Ventana	34.033	00:54:01:24	8.898	Anthozoa					Animalia	Pennatulacea	Cnidaria		Octocorallia							Eukaryota		V3169-01
"identity-reference | self | long, white"	transect	Pennatulacea	94.29	3169	05:48:27:22	 	36.857014	-122.10818	2478362	2.4	55:17.0	Ventana	34.033	00:54:02:26	8.898	Anthozoa					Animalia	Pennatulacea	Cnidaria		Octocorallia							Eukaryota		V3169-01
"identity-reference | self | long, white"	transect	Pennatulacea	94.26	3169	05:48:29:23	 	36.857014	-122.10818	2478363	2.4	55:19.0	Ventana	34.033	00:54:03:09	8.898	Anthozoa					Animalia	Pennatulacea	Cnidaria		Octocorallia							Eukaryota		V3169-01
"identity-reference | self | long, white"	transect	Pennatulacea	94.33	3169	05:48:33:22	 	36.85701	-122.10819	2478364	2.41	55:23.0	Ventana	34.036	00:54:07:19	8.887	Anthozoa					Animalia	Pennatulacea	Cnidaria		Octocorallia							Eukaryota		V3169-01
"identity-reference | self | long, white"	transect	Pennatulacea	94.33	3169	05:48:33:22	 	36.85701	-122.10819	2478365	2.41	55:23.0	Ventana	34.036	00:54:08:13	8.887	Anthozoa					Animalia	Pennatulacea	Cnidaria		Octocorallia							Eukaryota		V3169-01
"identity-reference | self | long, white"	transect	Pennatulacea	94.49	3169	05:48:37:22	 	36.857006	-122.1082	2478366	2.41	55:27.0	Ventana	34.036	00:54:12:06	8.887	Anthozoa					Animalia	Pennatulacea	Cnidaria		Octocorallia							Eukaryota		V3169-01
comment | self | swimming sardine-like	transect	Osteichthyes	94.51	3169	05:48:39:22	 	36.857006	-122.10821	2478367	2.41	55:29.0	Ventana	34.036	00:54:14:17	8.887	Osteichthyes					Animalia		Chordata						Vertebrata	Gnathostomata		Eukaryota		V3169-01
comment | self | swimming sardine-like	transect	Osteichthyes	94.52	3169	05:48:41:22	 	36.857002	-122.10821	2478368	2.41	55:31.0	Ventana	34.036	00:54:15:20	8.887	Osteichthyes					Animalia		Chordata						Vertebrata	Gnathostomata		Eukaryota		V3169-01
"identity-reference | self | long, white"	transect	Pennatulacea	94.45	3169	05:48:43:22	 	36.857002	-122.108215	2478369	2.41	55:33.0	Ventana	34.036	00:54:18:08	8.887	Anthozoa					Animalia	Pennatulacea	Cnidaria		Octocorallia							Eukaryota		V3169-01
"identity-reference | self | long, white"	transect	Pennatulacea	94.35	3169	05:48:49:22	 	36.856995	-122.10824	2478370	2.39	55:39.0	Ventana	34.037	00:54:24:07	8.884	Anthozoa					Animalia	Pennatulacea	Cnidaria		Octocorallia							Eukaryota		V3169-01
"identity-reference | self | long, white"	transect	Pennatulacea	94.38	3169	05:48:53:21	 	36.856995	-122.10824	2478372	2.39	55:43.0	Ventana	34.037	00:54:28:29	8.884	Anthozoa					Animalia	Pennatulacea	Cnidaria		Octocorallia							Eukaryota		V3169-01
comment | self | swimming sardine-like	transect	Osteichthyes	94.47	3169	05:48:55:21	 	36.85699	-122.108246	2478373	2.39	55:45.0	Ventana	34.037	00:54:30:08	8.884	Osteichthyes					Animalia		Chordata						Vertebrata	Gnathostomata		Eukaryota		V3169-01
comment | self | swimming sardine-like	transect	Osteichthyes	94.47	3169	05:48:55:21	 	36.85699	-122.108246	2478374	2.39	55:45.0	Ventana	34.037	00:54:30:08	8.884	Osteichthyes					Animalia		Chordata						Vertebrata	Gnathostomata		Eukaryota		V3169-01
"identity-reference | self | long, white"	transect	Pennatulacea	94.53	3169	05:49:01:21	 	36.856987	-122.10826	2478377	2.39	55:51.0	Ventana	34.037	00:54:35:22	8.884	Anthozoa					Animalia	Pennatulacea	Cnidaria		Octocorallia							Eukaryota		V3169-01
"identity-reference | self | long, white"	transect	Pennatulacea	94.48	3169	05:49:04:06	 	36.856983	-122.10827	2478378	2.4	55:53.0	Ventana	34.033	00:54:37:09	8.893	Anthozoa					Animalia	Pennatulacea	Cnidaria		Octocorallia							Eukaryota		V3169-01
"identity-reference | self | long, white"	transect	Pennatulacea	94.44	3169	05:49:06:06	 	36.856983	-122.10827	2478379	2.4	55:55.0	Ventana	34.033	00:54:39:19	8.893	Anthozoa					Animalia	Pennatulacea	Cnidaria		Octocorallia							Eukaryota		V3169-01
"identity-reference | self | long, white"	transect	Pennatulacea	94.44	3169	05:49:08:06	 	36.85698	-122.10828	2478380	2.4	55:57.0	Ventana	34.033	00:54:43:11	8.893	Anthozoa					Animalia	Pennatulacea	Cnidaria		Octocorallia							Eukaryota		V3169-01
"identity-reference | self | long, white"	transect	Pennatulacea	94.42	3169	05:49:12:06	 	36.85698	-122.108284	2478381	2.4	56:01.0	Ventana	34.033	00:54:46:05	8.893	Anthozoa					Animalia	Pennatulacea	Cnidaria		Octocorallia							Eukaryota		V3169-01
"identity-reference | self | long, white"	transect	Pennatulacea	94.35	3169	05:49:14:06	 	36.856976	-122.10829	2478382	2.4	56:03.0	Ventana	34.033	00:54:47:21	8.893	Anthozoa					Animalia	Pennatulacea	Cnidaria		Octocorallia							Eukaryota		V3169-01
"identity-reference | self | long, white"	transect	Pennatulacea	94.35	3169	05:49:18:06	 	36.85697	-122.1083	2478383	2.4	56:07.0	Ventana	34.033	00:54:52:09	8.893	Anthozoa					Animalia	Pennatulacea	Cnidaria		Octocorallia							Eukaryota		V3169-01
comment | self | swimming sardine-like	transect	Osteichthyes	94.44	3169	05:49:20:06	 	36.85697	-122.10831	2478384	2.4	56:09.0	Ventana	34.033	00:54:55:17	8.886	Osteichthyes					Animalia		Chordata						Vertebrata	Gnathostomata		Eukaryota		V3169-01
"identity-reference | self | long, white"	transect	Pennatulacea	94.5	3169	05:49:28:06	 	36.856968	-122.10833	2478385	2.4	56:17.0	Ventana	34.033	00:55:03:01	8.886	Anthozoa					Animalia	Pennatulacea	Cnidaria		Octocorallia							Eukaryota		V3169-01
"identity-reference | self | long, white"	transect	Pennatulacea	94.5	3169	05:49:28:06	 	36.856968	-122.10833	2478386	2.4	56:17.0	Ventana	34.033	00:55:03:19	8.886	Anthozoa					Animalia	Pennatulacea	Cnidaria		Octocorallia							Eukaryota		V3169-01
comment | self | swimming sardine-like	transect	Osteichthyes	94.5	3169	05:49:32:05	 	36.856953	-122.108406	2478387	2.4	56:21.0	Ventana	34.033	00:55:06:02	8.886	Osteichthyes					Animalia		Chordata						Vertebrata	Gnathostomata		Eukaryota		V3169-01
"identity-reference | self | long, white"	transect	Pennatulacea	94.55	3169	05:49:34:05	 	36.856953	-122.10841	2478388	2.39	56:23.0	Ventana	34.036	00:55:08:25	8.88	Anthozoa					Animalia	Pennatulacea	Cnidaria		Octocorallia							Eukaryota		V3169-01
"identity-reference | self | long, white"	transect	Pennatulacea	94.55	3169	05:49:34:05	 	36.856953	-122.10841	2478389	2.39	56:23.0	Ventana	34.036	00:55:09:14	8.88	Anthozoa					Animalia	Pennatulacea	Cnidaria		Octocorallia							Eukaryota		V3169-01
"identity-reference | self | long, white"	transect	Pennatulacea	94.55	3169	05:49:36:06	 	36.856953	-122.10841	2478390	2.39	56:25.0	Ventana	34.036	00:55:10:17	8.88	Anthozoa					Animalia	Pennatulacea	Cnidaria		Octocorallia							Eukaryota		V3169-01
"identity-reference | self | long, white"	transect	Pennatulacea	94.55	3169	05:49:36:06	 	36.856953	-122.10841	2478391	2.39	56:25.0	Ventana	34.036	00:55:11:05	8.88	Anthozoa					Animalia	Pennatulacea	Cnidaria		Octocorallia							Eukaryota		V3169-01
"identity-reference | self | long, white"	transect	Pennatulacea	94.5	3169	05:49:46:05	 	36.856945	-122.10843	2478393	2.39	56:35.0	Ventana	34.036	00:55:20:19	8.88	Anthozoa					Animalia	Pennatulacea	Cnidaria		Octocorallia							Eukaryota		V3169-01
"identity-reference | self | long, white"	transect	Pennatulacea	94.5	3169	05:49:46:05	 	36.856945	-122.10843	2478394	2.39	56:35.0	Ventana	34.036	00:55:21:06	8.88	Anthozoa					Animalia	Pennatulacea	Cnidaria		Octocorallia							Eukaryota		V3169-01
"identity-reference | self | long, white"	transect	Pennatulacea	94.58	3169	05:49:48:05	 	36.85694	-122.10843	2478395	2.39	56:37.0	Ventana	34.036	00:55:22:16	8.88	Anthozoa					Animalia	Pennatulacea	Cnidaria		Octocorallia							Eukaryota		V3169-01
"identity-reference | self | long, white"	transect	Pennatulacea	94.51	3169	05:49:54:04	 	36.856937	-122.108444	2478396	2.39	56:43.0	Ventana	34.036	00:55:28:08	8.88	Anthozoa					Animalia	Pennatulacea	Cnidaria		Octocorallia							Eukaryota		V3169-01
"identity-reference | self | long, white"	transect	Pennatulacea	94.49	3169	05:49:56:05	 	36.856937	-122.108444	2478397	2.39	56:45.0	Ventana	34.036	00:55:30:11	8.88	Anthozoa					Animalia	Pennatulacea	Cnidaria		Octocorallia							Eukaryota		V3169-01
"identity-reference | self | long, white"	transect	Pennatulacea	94.46	3169	05:49:58:05	 	36.856934	-122.10845	2478398	2.39	56:47.0	Ventana	34.036	00:55:32:11	8.88	Anthozoa					Animalia	Pennatulacea	Cnidaria		Octocorallia							Eukaryota		V3169-01
life-stage | self | juvenile	transect	Pleuronectiformes	94.55	3169	05:50:04:05	 	36.856926	-122.10847	2478399	2.39	56:53.0	Ventana	34.036	00:55:38:02	8.88	Osteichthyes			Neopterygii		Animalia	Pleuronectiformes	Chordata		Actinopterygii				Vertebrata	Gnathostomata		Eukaryota	Acanthopterygii	V3169-01
"identity-reference | self | long, white"	transect	Pennatulacea	94.52	3169	05:50:08:04	 	36.856922	-122.108475	2478400	2.39	56:57.0	Ventana	34.036	00:55:43:13	8.88	Anthozoa					Animalia	Pennatulacea	Cnidaria		Octocorallia							Eukaryota		V3169-01
"identity-reference | self | long, white"	transect	Pennatulacea	94.55	3169	05:50:12:04	 	36.85692	-122.10848	2478401	2.39	57:01.0	Ventana	34.036	00:55:46:00	8.88	Anthozoa					Animalia	Pennatulacea	Cnidaria		Octocorallia							Eukaryota		V3169-01
"identity-reference | self | long, white"	transect	Pennatulacea	94.56	3169	05:50:18:04	 	36.85691	-122.1085	2478402	2.39	57:07.0	Ventana	34.036	00:55:51:24	8.88	Anthozoa					Animalia	Pennatulacea	Cnidaria		Octocorallia							Eukaryota		V3169-01
"identity-reference | self | long, white"	transect	Pennatulacea	94.59	3169	05:50:22:04	 	36.856907	-122.108505	2478403	2.39	57:11.0	Ventana	34.036	00:55:56:14	8.884	Anthozoa					Animalia	Pennatulacea	Cnidaria		Octocorallia							Eukaryota		V3169-01
"identity-reference | self | long, white"	transect	Pennatulacea	94.58	3169	05:50:24:04	 	36.856907	-122.10851	2478405	2.39	57:13.0	Ventana	34.036	00:55:57:27	8.884	Anthozoa					Animalia	Pennatulacea	Cnidaria		Octocorallia							Eukaryota		V3169-01
"identity-reference | self | long, white"	transect	Pennatulacea	94.58	3169	05:50:24:04	 	36.856907	-122.10851	2478406	2.39	57:13.0	Ventana	34.036	00:55:57:27	8.884	Anthozoa					Animalia	Pennatulacea	Cnidaria		Octocorallia							Eukaryota		V3169-01
"identity-reference | self | long, white"	transect	Pennatulacea	94.62	3169	05:50:30:04	http://search.mbari.org/ARCHIVE/frameGrabs/Ventana/images/3169/00_56_03_25.jpg	36.8569	-122.10853	2478409	2.39	57:19.0	Ventana	34.036	00:56:03:25	8.884	Anthozoa					Animalia	Pennatulacea	Cnidaria		Octocorallia							Eukaryota		V3169-01
"identity-reference | self | long, white"	transect	Pennatulacea	94.62	3169	05:50:30:04	http://search.mbari.org/ARCHIVE/frameGrabs/Ventana/images/3169/00_56_03_25.jpg	36.8569	-122.10853	2478410	2.39	57:19.0	Ventana	34.036	00:56:03:25	8.884	Anthozoa					Animalia	Pennatulacea	Cnidaria		Octocorallia							Eukaryota		V3169-01
"identity-reference | self | long, white"	transect	Pennatulacea	94.62	3169	05:50:30:04	http://search.mbari.org/ARCHIVE/frameGrabs/Ventana/images/3169/00_56_03_25.jpg	36.8569	-122.10853	2478411	2.39	57:19.0	Ventana	34.036	00:56:03:25	8.884	Anthozoa					Animalia	Pennatulacea	Cnidaria		Octocorallia							Eukaryota		V3169-01
"identity-reference | self | long, white"	transect	Pennatulacea	94.7	3169	05:50:34:19	 	36.85689	-122.10854	2478412	2.39	57:23.0	Ventana	34.035	00:56:08:13	8.884	Anthozoa					Animalia	Pennatulacea	Cnidaria		Octocorallia							Eukaryota		V3169-01
"identity-reference | self | long, white"	transect	Pennatulacea	94.65	3169	05:50:38:18	 	36.856884	-122.10856	2478413	2.39	57:27.0	Ventana	34.035	00:56:13:14	8.884	Anthozoa					Animalia	Pennatulacea	Cnidaria		Octocorallia							Eukaryota		V3169-01
"identity-reference | self | long, white"	transect	Pennatulacea	94.61	3169	05:50:40:18	 	36.856884	-122.10856	2478414	2.39	57:29.0	Ventana	34.035	00:56:13:28	8.884	Anthozoa					Animalia	Pennatulacea	Cnidaria		Octocorallia							Eukaryota		V3169-01
"identity-reference | self | long, white"	transect	Pennatulacea	94.61	3169	05:50:40:18	 	36.856884	-122.10856	2478415	2.39	57:29.0	Ventana	34.035	00:56:14:12	8.884	Anthozoa					Animalia	Pennatulacea	Cnidaria		Octocorallia							Eukaryota		V3169-01
"identity-reference | self | long, white"	transect	Pennatulacea	94.61	3169	05:50:40:18	 	36.856884	-122.10856	2478416	2.39	57:29.0	Ventana	34.035	00:56:15:03	8.884	Anthozoa					Animalia	Pennatulacea	Cnidaria		Octocorallia							Eukaryota		V3169-01
"identity-reference | self | long, white"	transect	Pennatulacea	94.57	3169	05:50:42:18	 	36.85688	-122.108574	2478417	2.39	57:32.0	Ventana	34.035	00:56:16:12	8.884	Anthozoa					Animalia	Pennatulacea	Cnidaria		Octocorallia							Eukaryota		V3169-01
"identity-reference | self | long, white"	transect	Pennatulacea	94.62	3169	05:50:48:18	 	36.85687	-122.10859	2478418	2.39	57:38.0	Ventana	34.036	00:56:23:25	8.884	Anthozoa					Animalia	Pennatulacea	Cnidaria		Octocorallia							Eukaryota		V3169-01
"identity-reference | self | long, white"	transect	Pennatulacea	94.67	3169	05:50:58:18	 	36.856853	-122.10862	2478419	2.39	57:48.0	Ventana	34.036	00:56:32:18	8.884	Anthozoa					Animalia	Pennatulacea	Cnidaria		Octocorallia							Eukaryota		V3169-01
"identity-reference | self | long, white"	transect	Pennatulacea	94.69	3169	05:51:06:17	 	36.856846	-122.10864	2478422	2.39	57:56.0	Ventana	34.035	00:56:41:22	8.881	Anthozoa					Animalia	Pennatulacea	Cnidaria		Octocorallia							Eukaryota		V3169-01
"identity-reference | self | long, white"	transect	Pennatulacea	94.68	3169	05:51:08:17	 	36.856842	-122.10865	2478423	2.39	57:58.0	Ventana	34.035	00:56:42:13	8.881	Anthozoa					Animalia	Pennatulacea	Cnidaria		Octocorallia							Eukaryota		V3169-01
"identity-reference | self | long, white"	transect	Pennatulacea	94.7	3169	05:51:10:18	 	36.85684	-122.10866	2478424	2.39	58:00.0	Ventana	34.035	00:56:44:11	8.881	Anthozoa					Animalia	Pennatulacea	Cnidaria		Octocorallia							Eukaryota		V3169-01
"identity-reference | self | long, white"	transect	Pennatulacea	94.69	3169	05:51:12:17	 	36.856834	-122.108665	2478425	2.39	58:02.0	Ventana	34.035	00:56:47:02	8.881	Anthozoa					Animalia	Pennatulacea	Cnidaria		Octocorallia							Eukaryota		V3169-01
"identity-reference | self | long, white"	transect	Pennatulacea	94.69	3169	05:51:12:17	 	36.856834	-122.108665	2478426	2.39	58:02.0	Ventana	34.035	00:56:48:00	8.881	Anthozoa					Animalia	Pennatulacea	Cnidaria		Octocorallia							Eukaryota		V3169-01
"identity-reference | self | long, white"	transect	Pennatulacea	94.75	3169	05:51:16:17	 	36.85683	-122.10867	2478427	2.39	58:06.0	Ventana	34.035	00:56:50:20	8.881	Anthozoa					Animalia	Pennatulacea	Cnidaria		Octocorallia							Eukaryota		V3169-01
comment | self | swimming sardine-like	transect	Osteichthyes	94.83	3169	05:51:20:17	 	36.856827	-122.10869	2478428	2.39	58:10.0	Ventana	34.037	00:56:55:06	8.882	Osteichthyes					Animalia		Chordata						Vertebrata	Gnathostomata		Eukaryota		V3169-01
"identity-reference | self | long, white"	transect	Pennatulacea	94.73	3169	05:51:24:17	 	36.85682	-122.1087	2478429	2.39	58:14.0	Ventana	34.037	00:56:58:08	8.882	Anthozoa					Animalia	Pennatulacea	Cnidaria		Octocorallia							Eukaryota		V3169-01
"identity-reference | self | long, white"	transect	Pennatulacea	94.73	3169	05:51:24:17	 	36.85682	-122.1087	2478430	2.39	58:14.0	Ventana	34.037	00:56:59:01	8.882	Anthozoa					Animalia	Pennatulacea	Cnidaria		Octocorallia							Eukaryota		V3169-01
"identity-reference | self | long, white"	transect	Pennatulacea	94.73	3169	05:51:24:17	 	36.85682	-122.1087	2478431	2.39	58:14.0	Ventana	34.037	00:56:59:15	8.882	Anthozoa					Animalia	Pennatulacea	Cnidaria		Octocorallia							Eukaryota		V3169-01
"identity-reference | self | long, white"	transect	Pennatulacea	94.73	3169	05:51:24:17	 	36.85682	-122.1087	2478432	2.39	58:14.0	Ventana	34.037	00:56:59:26	8.882	Anthozoa					Animalia	Pennatulacea	Cnidaria		Octocorallia							Eukaryota		V3169-01
"identity-reference | self | long, white"	transect	Pennatulacea	94.69	3169	05:51:26:17	 	36.85682	-122.10871	2478433	2.39	58:16.0	Ventana	34.037	00:57:01:05	8.882	Anthozoa					Animalia	Pennatulacea	Cnidaria		Octocorallia							Eukaryota		V3169-01
"identity-reference | self | long, white"	transect	Pennatulacea	94.69	3169	05:51:26:17	 	36.85682	-122.10871	2478435	2.39	58:16.0	Ventana	34.037	00:57:01:12	8.882	Anthozoa					Animalia	Pennatulacea	Cnidaria		Octocorallia							Eukaryota		V3169-01
comment | self | swimming sardine-like	transect	Osteichthyes	94.78	3169	05:51:32:17	 	36.85681	-122.10873	2478436	2.39	58:22.0	Ventana	34.037	00:57:06:24	8.882	Osteichthyes					Animalia		Chordata						Vertebrata	Gnathostomata		Eukaryota		V3169-01
"identity-reference | self | long, white"	transect	Pennatulacea	94.75	3169	05:51:40:16	 	36.8568	-122.10876	2478437	2.4	58:30.0	Ventana	34.036	00:57:15:07	8.882	Anthozoa					Animalia	Pennatulacea	Cnidaria		Octocorallia							Eukaryota		V3169-01
"identity-reference | self | long, white"	transect	Pennatulacea	94.75	3169	05:51:40:16	 	36.8568	-122.10876	2478438	2.4	58:30.0	Ventana	34.036	00:57:15:27	8.882	Anthozoa					Animalia	Pennatulacea	Cnidaria		Octocorallia							Eukaryota		V3169-01
life-stage | self | juvenile	transect	Pleuronectiformes	94.81	3169	05:51:44:17	 	36.856796	-122.10877	2478439	2.4	58:34.0	Ventana	34.036	00:57:18:05	8.882	Osteichthyes			Neopterygii		Animalia	Pleuronectiformes	Chordata		Actinopterygii				Vertebrata	Gnathostomata		Eukaryota	Acanthopterygii	V3169-01
"identity-reference | self | long, white"	transect	Pennatulacea	94.81	3169	05:51:44:17	 	36.856796	-122.10877	2478440	2.4	58:34.0	Ventana	34.036	00:57:18:05	8.882	Anthozoa					Animalia	Pennatulacea	Cnidaria		Octocorallia							Eukaryota		V3169-01
"identity-reference | self | long, white"	transect	Pennatulacea	94.78	3169	05:51:46:16	 	36.856792	-122.10878	2478441	2.4	58:36.0	Ventana	34.036	00:57:21:27	8.882	Anthozoa					Animalia	Pennatulacea	Cnidaria		Octocorallia							Eukaryota		V3169-01
"identity-reference | self | long, white"	transect	Pennatulacea	94.77	3169	05:51:48:16	 	36.856792	-122.10879	2478442	2.39	58:38.0	Ventana	34.036	00:57:23:14	8.88	Anthozoa					Animalia	Pennatulacea	Cnidaria		Octocorallia							Eukaryota		V3169-01
"identity-reference | self | long, white"	transect	Pennatulacea	94.77	3169	05:51:48:16	 	36.856792	-122.10879	2478443	2.39	58:38.0	Ventana	34.036	00:57:24:00	8.88	Anthozoa					Animalia	Pennatulacea	Cnidaria		Octocorallia							Eukaryota		V3169-01
"identity-reference | self | long, white"	transect	Pennatulacea	94.85	3169	05:51:52:16	 	36.85679	-122.108795	2478444	2.39	58:42.0	Ventana	34.036	00:57:26:10	8.88	Anthozoa					Animalia	Pennatulacea	Cnidaria		Octocorallia							Eukaryota		V3169-01
"identity-reference | self | long, white"	transect	Pennatulacea	94.85	3169	05:51:52:16	 	36.85679	-122.108795	2478445	2.39	58:42.0	Ventana	34.036	00:57:26:27	8.88	Anthozoa					Animalia	Pennatulacea	Cnidaria		Octocorallia							Eukaryota		V3169-01
comment | self | swimming sardine-like	transect	Osteichthyes	94.78	3169	05:52:00:16	 	36.856777	-122.108826	2478447	2.39	58:50.0	Ventana	34.036	00:57:35:15	8.88	Osteichthyes					Animalia		Chordata						Vertebrata	Gnathostomata		Eukaryota		V3169-01
comment | self | swimming sardine-like	transect	Osteichthyes	94.78	3169	05:52:00:16	 	36.856777	-122.108826	2478448	2.39	58:50.0	Ventana	34.036	00:57:35:15	8.88	Osteichthyes					Animalia		Chordata						Vertebrata	Gnathostomata		Eukaryota		V3169-01
"identity-reference | self | long, white"	transect	Pennatulacea	94.78	3169	05:52:00:16	 	36.856777	-122.108826	2478449	2.39	58:50.0	Ventana	34.036	00:57:35:15	8.88	Anthozoa					Animalia	Pennatulacea	Cnidaria		Octocorallia							Eukaryota		V3169-01
"identity-reference | self | long, white"	transect	Pennatulacea	94.78	3169	05:52:00:16	 	36.856777	-122.108826	2478450	2.39	58:50.0	Ventana	34.036	00:57:35:15	8.88	Anthozoa					Animalia	Pennatulacea	Cnidaria		Octocorallia							Eukaryota		V3169-01
"identity-reference | self | long, white"	transect	Pennatulacea	94.78	3169	05:52:00:16	 	36.856777	-122.108826	2478451	2.39	58:50.0	Ventana	34.036	00:57:35:15	8.88	Anthozoa					Animalia	Pennatulacea	Cnidaria		Octocorallia							Eukaryota		V3169-01
"identity-reference | self | long, white"	transect	Pennatulacea	94.76	3169	05:52:02:16	 	36.856777	-122.10883	2478453	2.39	58:52.0	Ventana	34.036	00:57:37:24	8.88	Anthozoa					Animalia	Pennatulacea	Cnidaria		Octocorallia							Eukaryota		V3169-01
"identity-reference | self | long, white"	transect	Pennatulacea	94.78	3169	05:52:06:16	 	36.85677	-122.10886	2478456	2.39	58:56.0	Ventana	34.036	00:57:41:20	8.879	Anthozoa					Animalia	Pennatulacea	Cnidaria		Octocorallia							Eukaryota		V3169-01
"identity-reference | self | long, white"	transect	Pennatulacea	94.78	3169	05:52:06:16	 	36.85677	-122.10886	2478457	2.39	58:56.0	Ventana	34.036	00:57:41:20	8.879	Anthozoa					Animalia	Pennatulacea	Cnidaria		Octocorallia							Eukaryota		V3169-01
"identity-reference | self | long, white"	transect	Pennatulacea	94.92	3169	05:52:13:00	 	36.856762	-122.10887	2478459	2.39	59:02.0	Ventana	34.036	00:57:47:15	8.879	Anthozoa					Animalia	Pennatulacea	Cnidaria		Octocorallia							Eukaryota		V3169-01
"identity-reference | self | long, white"	transect	Pennatulacea	94.95	3169	05:52:15:00	 	36.85676	-122.10888	2478460	2.39	59:04.0	Ventana	34.036	00:57:48:11	8.879	Anthozoa					Animalia	Pennatulacea	Cnidaria		Octocorallia							Eukaryota		V3169-01
"identity-reference | self | long, white"	transect	Pennatulacea	94.93	3169	05:52:17:01	 	36.85676	-122.10889	2478461	2.39	59:06.0	Ventana	34.036	00:57:50:14	8.879	Anthozoa					Animalia	Pennatulacea	Cnidaria		Octocorallia							Eukaryota		V3169-01
"identity-reference | self | long, white"	transect	Pennatulacea	94.91	3169	05:52:19:00	 	36.856754	-122.108894	2478462	2.39	59:08.0	Ventana	34.036	00:57:53:04	8.881	Anthozoa					Animalia	Pennatulacea	Cnidaria		Octocorallia							Eukaryota		V3169-01
"identity-reference | self | long, white"	transect	Pennatulacea	94.91	3169	05:52:19:00	 	36.856754	-122.108894	2478463	2.39	59:08.0	Ventana	34.036	00:57:53:28	8.881	Anthozoa					Animalia	Pennatulacea	Cnidaria		Octocorallia							Eukaryota		V3169-01
comment | self | swimming sardine-like	transect	Osteichthyes	94.87	3169	05:52:21:00	 	36.856754	-122.1089	2478464	2.39	59:10.0	Ventana	34.036	00:57:55:05	8.881	Osteichthyes					Animalia		Chordata						Vertebrata	Gnathostomata		Eukaryota		V3169-01
"identity-reference | self | long, white"	transect	Pennatulacea	94.9	3169	05:52:25:00	 	36.85675	-122.10891	2478465	2.39	59:14.0	Ventana	34.036	00:57:59:19	8.881	Anthozoa					Animalia	Pennatulacea	Cnidaria		Octocorallia							Eukaryota		V3169-01
"identity-reference | self | long, white"	transect	Pennatulacea	94.84	3169	05:52:27:00	 	36.85675	-122.10892	2478466	2.39	59:16.0	Ventana	34.036	00:58:00:21	8.881	Anthozoa					Animalia	Pennatulacea	Cnidaria		Octocorallia							Eukaryota		V3169-01
"identity-reference | self | long, white"	transect	Pennatulacea	94.78	3169	05:52:31:00	 	36.856747	-122.10893	2478468	2.39	59:20.0	Ventana	34.036	00:58:05:15	8.881	Anthozoa					Animalia	Pennatulacea	Cnidaria		Octocorallia							Eukaryota		V3169-01
"identity-reference | self | long, white"	transect	Pennatulacea	94.82	3169	05:52:33:00	 	36.856743	-122.10894	2478469	2.39	59:22.0	Ventana	34.036	00:58:06:18	8.881	Anthozoa					Animalia	Pennatulacea	Cnidaria		Octocorallia							Eukaryota		V3169-01
"identity-reference | self | long, white"	transect	Pennatulacea	95.06	3169	05:52:37:00	 	36.856743	-122.108955	2478471	2.4	59:26.0	Ventana	34.035	00:58:11:07	8.885	Anthozoa					Animalia	Pennatulacea	Cnidaria		Octocorallia							Eukaryota		V3169-01
"identity-reference | self | long, white"	transect	Pennatulacea	95.06	3169	05:52:37:00	 	36.856743	-122.108955	2478472	2.4	59:26.0	Ventana	34.035	00:58:12:00	8.885	Anthozoa					Animalia	Pennatulacea	Cnidaria		Octocorallia							Eukaryota		V3169-01
"identity-reference | self | long, white"	transect	Pennatulacea	95.08	3169	05:52:39:00	 	36.85674	-122.108955	2478473	2.4	59:28.0	Ventana	34.035	00:58:12:15	8.885	Anthozoa					Animalia	Pennatulacea	Cnidaria		Octocorallia							Eukaryota		V3169-01
"identity-reference | self | long, white"	transect	Pennatulacea	94.87	3169	05:52:46:29	 	36.856735	-122.10898	2478475	2.4	59:36.0	Ventana	34.035	00:58:20:25	8.885	Anthozoa					Animalia	Pennatulacea	Cnidaria		Octocorallia							Eukaryota		V3169-01
comment | self | end transect station D-B	endtransect	physical object	94.87	3169	05:52:46:29	 	36.856735	-122.10898	2478477	2.4	59:36.0	Ventana	34.035	00:58:22:04	8.885																			V3169-01
"identity-reference | self | long, white"	cruise	Pennatulacea	94.71	3169	05:52:54:29	 	36.856735	-122.109	2478483	2.39	59:44.0	Ventana	34.034	00:58:30:04	8.888	Anthozoa					Animalia	Pennatulacea	Cnidaria		Octocorallia							Eukaryota		V3169-01
"comment | self | swimming sardine-like, population-quantity | self | 999"	cruise	Osteichthyes	94.9	3169	05:53:14:28	http://search.mbari.org/ARCHIVE/frameGrabs/Ventana/images/3169/00_58_50_07.jpg	36.85675	-122.109024	2478489	2.39	00:04.0	Ventana	34.035	00:58:50:07	8.889	Osteichthyes					Animalia		Chordata						Vertebrata	Gnathostomata		Eukaryota		V3169-01
population-quantity | self | 999	endtransect	Metridium farcimen	92.9	3169	06:06:29:26	http://search.mbari.org/ARCHIVE/frameGrabs/Ventana/images/3169/01_11_53_20.jpg	36.85895	-122.105354	20024180	2.43	13:41.0	Ventana	34.031	01:11:53:20	8.914	Anthozoa	Metridiidae	Metridium			Animalia	Actiniaria	Cnidaria	Metridium farcimen	Hexacorallia			Nyantheae				Eukaryota		V3169-02
population-density | self | dense	endtransect	Osteichthyes	92.9	3169	06:06:29:26	http://search.mbari.org/ARCHIVE/frameGrabs/Ventana/images/3169/01_11_53_20.jpg	36.85895	-122.105354	2478494	2.43	13:41.0	Ventana	34.031	01:11:53:20	8.914	Osteichthyes					Animalia		Chordata						Vertebrata	Gnathostomata		Eukaryota		V3169-02
comment | self | could be S. chlorostictus	endtransect	Sebastes rosenblatti	91.75	3169	06:19:59:02	http://search.mbari.org/ARCHIVE/frameGrabs/Ventana/images/3169/01_25_22_25.jpg	36.861095	-122.100815	20024182	2.48	27:11.0	Ventana	34.024	01:25:22:25	8.958	Osteichthyes	Scorpaenidae	Sebastes	Neopterygii		Animalia	Scorpaeniformes	Chordata	Sebastes rosenblatti	Actinopterygii			Scorpaenoidei	Vertebrata	Gnathostomata		Eukaryota	Acanthopterygii	V3169-02
"population-quantity | self | 999, identity-reference | self | long, white"	cruise	Pennatulacea	94.46	3169	05:55:27:02	 	36.857227	-122.108986	2478501	2.4	02:37.0	Ventana	34.034	01:00:51:03	8.889	Anthozoa					Animalia	Pennatulacea	Cnidaria		Octocorallia							Eukaryota		V3169-02
"population-quantity | self | 999, identity-reference | self | long, white"	cruise	Pennatulacea	94.44	3169	05:55:31:02	 	36.857235	-122.10897	2478502	2.4	02:41.0	Ventana	34.035	01:00:55:15	8.89	Anthozoa					Animalia	Pennatulacea	Cnidaria		Octocorallia							Eukaryota		V3169-02
"identity-certainty | self | maybe, comment | human | vs. Pycnopodia"	cruise	Rathbunaster californicus	94.41	3169	05:55:47:01	http://search.mbari.org/ARCHIVE/frameGrabs/Ventana/images/3169/01_01_11_21.jpg	36.857273	-122.108894	2478504	2.4	02:57.0	Ventana	34.035	01:01:11:21	8.889		Labidiasteridae	Rathbunaster			Animalia	Forcipulatida	Echinodermata	Rathbunaster californicus	Asteroidea							Eukaryota		V3169-02
"population-quantity | self | 999, identity-reference | self | long, white"	cruise	Pennatulacea	94.48	3169	05:55:51:01	 	36.857285	-122.10888	2478521	2.4	03:01.0	Ventana	34.035	01:01:14:20	8.889	Anthozoa					Animalia	Pennatulacea	Cnidaria		Octocorallia							Eukaryota		V3169-02
"identity-certainty | self | maybe, comment | human | vs. Pycnopodia"	cruise	Rathbunaster californicus	94.35	3169	05:56:05:01	 	36.857323	-122.1088	2478533	2.4	03:15.0	Ventana	34.035	01:01:28:03	8.888		Labidiasteridae	Rathbunaster			Animalia	Forcipulatida	Echinodermata	Rathbunaster californicus	Asteroidea							Eukaryota		V3169-02
"population-quantity | self | 999, identity-reference | self | long, white"	cruise	Pennatulacea	94.4	3169	05:56:21:15	 	36.857365	-122.1087	2478535	2.4	03:31.0	Ventana	34.034	01:01:45:09	8.893	Anthozoa					Animalia	Pennatulacea	Cnidaria		Octocorallia							Eukaryota		V3169-02
"population-quantity | self | 999, identity-reference | self | long, white"	cruise	Pennatulacea	94.08	3169	05:56:41:14	 	36.85743	-122.10857	2478540	2.4	03:52.0	Ventana	34.035	01:02:05:08	8.892	Anthozoa					Animalia	Pennatulacea	Cnidaria		Octocorallia							Eukaryota		V3169-02
"population-quantity | self | 999, identity-reference | self | long, white"	cruise	Pennatulacea	93.86	3169	05:58:39:26	 	36.85781	-122.10779	2478542	2.41	05:50.0	Ventana	34.034	01:04:03:25	8.896	Anthozoa					Animalia	Pennatulacea	Cnidaria		Octocorallia							Eukaryota		V3169-02
"population-quantity | self | 999, identity-reference | self | long, white"	cruise	Pennatulacea	93.92	3169	05:58:43:26	 	36.857822	-122.107765	2478543	2.41	05:54.0	Ventana	34.033	01:04:07:23	8.898	Anthozoa					Animalia	Pennatulacea	Cnidaria		Octocorallia							Eukaryota		V3169-02
"population-quantity | self | 999, identity-reference | self | long, white"	cruise	Pennatulacea	93.66	3169	05:59:31:24	 	36.857967	-122.107475	2478544	2.41	06:42.0	Ventana	34.034	01:04:54:28	8.899	Anthozoa					Animalia	Pennatulacea	Cnidaria		Octocorallia							Eukaryota		V3169-02
population-quantity | self | 999	cruise	Osteichthyes	93.44	3169	06:00:18:08	 	36.858093	-122.10718	2478550	2.42	07:29.0	Ventana	34.033	01:05:41:27	8.901	Osteichthyes					Animalia		Chordata						Vertebrata	Gnathostomata		Eukaryota		V3169-02
"population-quantity | self | 999, identity-reference | self | long, white"	cruise	Pennatulacea	93.3	3169	06:00:42:07	 	36.858143	-122.10704	2478555	2.42	07:53.0	Ventana	34.033	01:06:06:18	8.902	Anthozoa					Animalia	Pennatulacea	Cnidaria		Octocorallia							Eukaryota		V3169-02
identity-reference | self | point: moderate disturbance	cruise	trench	93.28	3169	06:00:56:07	http://search.mbari.org/ARCHIVE/frameGrabs/Ventana/images/3169/01_06_20_23.jpg	36.858173	-122.10697	2478569	2.42	08:07.0	Ventana	34.033	01:06:20:23	8.902																			V3169-02
population-quantity | self | 999	cruise	Metridium farcimen	93.28	3169	06:00:56:07	http://search.mbari.org/ARCHIVE/frameGrabs/Ventana/images/3169/01_06_20_23.jpg	36.858173	-122.10697	2478584	2.42	08:07.0	Ventana	34.033	01:06:20:23	8.902	Anthozoa	Metridiidae	Metridium			Animalia	Actiniaria	Cnidaria	Metridium farcimen	Hexacorallia			Nyantheae				Eukaryota		V3169-02
population-quantity | self | 999	cruise	Sebastes	93.28	3169	06:00:56:07	http://search.mbari.org/ARCHIVE/frameGrabs/Ventana/images/3169/01_06_20_23.jpg	36.858173	-122.10697	2478588	2.42	08:07.0	Ventana	34.033	01:06:20:23	8.902	Osteichthyes	Scorpaenidae	Sebastes	Neopterygii		Animalia	Scorpaeniformes	Chordata		Actinopterygii			Scorpaenoidei	Vertebrata	Gnathostomata		Eukaryota	Acanthopterygii	V3169-02
"population-quantity | self | 999, identity-reference | self | long, white"	cruise	Pennatulacea	93.51	3169	06:01:14:06	 	36.858204	-122.106895	2478603	2.42	08:25.0	Ventana	34.033	01:06:37:29	8.901	Anthozoa					Animalia	Pennatulacea	Cnidaria		Octocorallia							Eukaryota		V3169-02
population-quantity | self | 999	cruise	Osteichthyes	93.32	3169	06:01:18:06	 	36.858208	-122.10688	2478607	2.42	08:29.0	Ventana	34.033	01:06:42:12	8.901	Osteichthyes					Animalia		Chordata						Vertebrata	Gnathostomata		Eukaryota		V3169-02
"population-quantity | self | 999, identity-reference | self | long, white"	cruise	Pennatulacea	93.12	3169	06:01:46:20	 	36.85825	-122.10677	2478613	2.42	08:57.0	Ventana	34.033	01:07:10:28	8.902	Anthozoa					Animalia	Pennatulacea	Cnidaria		Octocorallia							Eukaryota		V3169-02
"population-quantity | self | 999, identity-reference | self | long, white"	cruise	Pennatulacea	93.27	3169	06:02:14:19	 	36.858284	-122.106705	2478619	2.41	09:25.0	Ventana	34.033	01:07:37:21	8.902	Anthozoa					Animalia	Pennatulacea	Cnidaria		Octocorallia							Eukaryota		V3169-02
"population-quantity | self | 999, identity-reference | self | long, white"	cruise	Pennatulacea	93.27	3169	06:02:38:19	 	36.85837	-122.106544	2478628	2.41	09:49.0	Ventana	34.033	01:08:03:08	8.902	Anthozoa					Animalia	Pennatulacea	Cnidaria		Octocorallia							Eukaryota		V3169-02
"population-quantity | self | 999, identity-reference | self | long, white"	cruise	Pennatulacea	93.33	3169	06:02:57:03	 	36.858418	-122.10647	2478635	2.41	10:07.0	Ventana	34.033	01:08:21:10	8.903	Anthozoa					Animalia	Pennatulacea	Cnidaria		Octocorallia							Eukaryota		V3169-02
"population-quantity | self | 999, identity-reference | self | long, white"	cruise	Pennatulacea	93.18	3169	06:03:35:02	 	36.858532	-122.10629	2478643	2.41	10:46.0	Ventana	34.033	01:08:58:04	8.903	Anthozoa					Animalia	Pennatulacea	Cnidaria		Octocorallia							Eukaryota		V3169-02
"population-quantity | self | 999, identity-reference | self | long, white"	cruise	Pennatulacea	93.27	3169	06:03:39:02	 	36.858543	-122.10627	2478653	2.41	10:50.0	Ventana	34.033	01:09:03:24	8.903	Anthozoa					Animalia	Pennatulacea	Cnidaria		Octocorallia							Eukaryota		V3169-02
"population-quantity | self | 999, identity-reference | self | long, white"	cruise	Pennatulacea	93.13	3169	06:03:55:01	 	36.85859	-122.10619	2478657	2.42	11:06.0	Ventana	34.033	01:09:18:01	8.904	Anthozoa					Animalia	Pennatulacea	Cnidaria		Octocorallia							Eukaryota		V3169-02
identity-reference | self | point: moderate disturbance	cruise	trench	93.16	3169	06:04:13:01	http://search.mbari.org/ARCHIVE/frameGrabs/Ventana/images/3169/01_09_35_28.jpg	36.85864	-122.106094	2478668	2.42	11:24.0	Ventana	34.033	01:09:35:28	8.905																			V3169-02
"population-quantity | self | 999, identity-reference | self | long, white"	cruise	Pennatulacea	93.11	3169	06:04:37:00	 	36.858757	-122.10585	2478685	2.42	11:48.0	Ventana	34.033	01:10:00:13	8.905	Anthozoa					Animalia	Pennatulacea	Cnidaria		Octocorallia							Eukaryota		V3169-02
"population-quantity | self | 999, identity-reference | self | long, white"	cruise	Pennatulacea	92.97	3169	06:05:15:13	 	36.85881	-122.10571	2478690	2.42	12:26.0	Ventana	34.032	01:10:38:15	8.909	Anthozoa					Animalia	Pennatulacea	Cnidaria		Octocorallia							Eukaryota		V3169-02
"population-quantity | self | 999, identity-reference | self | long, white"	cruise	Pennatulacea	92.89	3169	06:05:35:13	 	36.858852	-122.10561	2478698	2.42	12:46.0	Ventana	34.032	01:10:59:21	8.913	Anthozoa					Animalia	Pennatulacea	Cnidaria		Octocorallia							Eukaryota		V3169-02
"population-quantity | self | 999, identity-reference | self | long, white"	cruise	Pennatulacea	93.02	3169	06:05:45:13	 	36.85887	-122.10556	2478701	2.42	12:56.0	Ventana	34.032	01:11:09:20	8.91	Anthozoa					Animalia	Pennatulacea	Cnidaria		Octocorallia							Eukaryota		V3169-02
"population-quantity | self | 999, identity-reference | self | long, white"	cruise	Pennatulacea	92.83	3169	06:06:11:12	 	36.85892	-122.10544	2478711	2.42	13:22.0	Ventana	34.032	01:11:34:16	8.909	Anthozoa					Animalia	Pennatulacea	Cnidaria		Octocorallia							Eukaryota		V3169-02
population-density | self | dense	cruise	Osteichthyes	92.67	3169	06:08:36:07	 	36.85911	-122.10497	2478750	2.43	15:47.0	Ventana	34.031	01:14:00:02	8.914	Osteichthyes					Animalia		Chordata						Vertebrata	Gnathostomata		Eukaryota		V3169-02
"population-quantity | self | 999, identity-reference | self | long, white"	cruise	Pennatulacea	92.82	3169	06:08:50:07	 	36.859142	-122.10491	2478754	2.43	16:01.0	Ventana	34.032	01:14:14:06	8.915	Anthozoa					Animalia	Pennatulacea	Cnidaria		Octocorallia							Eukaryota		V3169-02
identity-reference | self | end: moderate groove (mostly undisturbed)	cruise	trench	93.28	3169	06:04:33:00	 	36.858753	-122.10585	2478784	2.42	11:44.0	Ventana	34.033	01:09:56:16	8.905																			V3169-02
population-quantity | self | 999	cruise	Osteichthyes	92.81	3169	06:09:20:21	 	36.85922	-122.10475	2478872	2.43	16:31.0	Ventana	34.031	01:14:43:20	8.919	Osteichthyes					Animalia		Chordata						Vertebrata	Gnathostomata		Eukaryota		V3169-02
"population-quantity | self | 999, identity-reference | self | long, white"	cruise	Pennatulacea	92.72	3169	06:10:00:20	 	36.85934	-122.1045	2478875	2.44	17:12.0	Ventana	34.03	01:15:23:20	8.922	Anthozoa					Animalia	Pennatulacea	Cnidaria		Octocorallia							Eukaryota		V3169-02
identity-reference | self | start: shallow groove	cruise	trench	92.73	3169	06:10:24:19	 	36.859474	-122.10422	2478886	2.44	17:36.0	Ventana	34.029	01:15:48:02	8.926																			V3169-02
"population-quantity | self | 999, identity-reference | self | long, white"	cruise	Pennatulacea	92.62	3169	06:10:42:19	 	36.8595	-122.10416	2478917	2.44	17:54.0	Ventana	34.029	01:16:06:12	8.927	Anthozoa					Animalia	Pennatulacea	Cnidaria		Octocorallia							Eukaryota		V3169-02
identity-certainty | self | maybe	cruise	Rathbunaster californicus	92.44	3169	06:12:29:01	 	36.859783	-122.10353	2478947	2.45	19:40.0	Ventana	34.027	01:17:52:07	8.936		Labidiasteridae	Rathbunaster			Animalia	Forcipulatida	Echinodermata	Rathbunaster californicus	Asteroidea							Eukaryota		V3169-02
"population-quantity | self | 999, identity-reference | self | long, white"	cruise	Pennatulacea	92.41	3169	06:12:57:15	 	36.85986	-122.10335	2478950	2.45	20:09.0	Ventana	34.027	01:18:22:03	8.937	Anthozoa					Animalia	Pennatulacea	Cnidaria		Octocorallia							Eukaryota		V3169-02
identity-certainty | self | maybe	cruise	Rathbunaster californicus	92.41	3169	06:13:07:14	 	36.85989	-122.10328	2478953	2.45	20:19.0	Ventana	34.027	01:18:32:07	8.937		Labidiasteridae	Rathbunaster			Animalia	Forcipulatida	Echinodermata	Rathbunaster californicus	Asteroidea							Eukaryota		V3169-02
"population-quantity | self | 999, identity-reference | self | long, white"	cruise	Pennatulacea	92.53	3169	06:13:49:13	 	36.859997	-122.10303	2478957	2.45	21:01.0	Ventana	34.026	01:19:13:01	8.94	Anthozoa					Animalia	Pennatulacea	Cnidaria		Octocorallia							Eukaryota		V3169-02
"population-quantity | self | 999, identity-reference | self | long, white"	cruise	Pennatulacea	92.4	3169	06:14:11:12	 	36.860115	-122.102745	2478958	2.45	21:23.0	Ventana	34.026	01:19:35:21	8.941	Anthozoa					Animalia	Pennatulacea	Cnidaria		Octocorallia							Eukaryota		V3169-02
"population-quantity | self | 999, identity-reference | self | long, white"	cruise	Pennatulacea	92.56	3169	06:14:57:26	 	36.860195	-122.10259	2478961	2.45	22:09.0	Ventana	34.027	01:20:20:27	8.941	Anthozoa					Animalia	Pennatulacea	Cnidaria		Octocorallia							Eukaryota		V3169-02
"identity-reference | self | long, white, population-quantity | self | 999 (fewer now)"	cruise	Pennatulacea	92.25	3169	06:16:10:09	 	36.86042	-122.10216	2478985	2.46	23:21.0	Ventana	34.026	01:21:34:03	8.945	Anthozoa					Animalia	Pennatulacea	Cnidaria		Octocorallia							Eukaryota		V3169-02
"identity-reference | self | long, white, population-quantity | self | 999 (fewer now)"	cruise	Pennatulacea	92.14	3169	06:17:16:07	 	36.860622	-122.10174	2478988	2.47	24:28.0	Ventana	34.025	01:22:39:12	8.95	Anthozoa					Animalia	Pennatulacea	Cnidaria		Octocorallia							Eukaryota		V3169-02
identity-certainty | self | maybe	cruise	Rathbunaster californicus	92.06	3169	06:17:30:21	http://search.mbari.org/ARCHIVE/frameGrabs/Ventana/images/3169/01_22_54_03.jpg	36.860664	-122.10165	2478990	2.47	24:42.0	Ventana	34.025	01:22:54:03	8.95		Labidiasteridae	Rathbunaster			Animalia	Forcipulatida	Echinodermata	Rathbunaster californicus	Asteroidea							Eukaryota		V3169-02
"identity-reference | self | long, white, population-quantity | self | 999 (fewer now)"	cruise	Pennatulacea	91.79	3169	06:19:03:03	 	36.860947	-122.101074	2479171	2.48	26:14.0	Ventana	34.024	01:24:26:27	8.955	Anthozoa					Animalia	Pennatulacea	Cnidaria		Octocorallia							Eukaryota		V3169-02
population-quantity | self | 999	cruise	Metridium farcimen	91.72	3169	06:19:39:02	 	36.861057	-122.10088	2479181	2.48	26:51.0	Ventana	34.024	01:25:03:11	8.957	Anthozoa	Metridiidae	Metridium			Animalia	Actiniaria	Cnidaria	Metridium farcimen	Hexacorallia			Nyantheae				Eukaryota		V3169-02
identity-reference | self | point: moderate disturbance	endtransect	trench	91.75	3169	06:19:59:02	http://search.mbari.org/ARCHIVE/frameGrabs/Ventana/images/3169/01_25_22_25.jpg	36.861095	-122.100815	2479189	2.48	27:11.0	Ventana	34.024	01:25:22:25	8.958																			V3169-02
"population-quantity | self | 999, identity-reference | self | long, white"	cruise	Pennatulacea	91.82	3169	06:21:19:14	 	36.86121	-122.10062	2479199	2.48	28:31.0	Ventana	34.024	01:26:43:07	8.958	Anthozoa					Animalia	Pennatulacea	Cnidaria		Octocorallia							Eukaryota		V3169-02
"identity-reference | self | long, white"	cruise	Pennatulacea	91.72	3169	06:22:15:28	 	36.861397	-122.10019	2479204	2.49	29:27.0	Ventana	34.023	01:27:39:01	8.962	Anthozoa					Animalia	Pennatulacea	Cnidaria		Octocorallia							Eukaryota		V3169-02
"identity-reference | self | long, white"	cruise	Pennatulacea	91.84	3169	06:22:25:27	 	36.861423	-122.10013	2479207	2.49	29:37.0	Ventana	34.023	01:27:49:25	8.962	Anthozoa					Animalia	Pennatulacea	Cnidaria		Octocorallia							Eukaryota		V3169-02
"identity-reference | self | long, white"	cruise	Pennatulacea	91.81	3169	06:22:35:27	 	36.861458	-122.10005	2479209	2.49	29:48.0	Ventana	34.024	01:28:00:13	8.962	Anthozoa					Animalia	Pennatulacea	Cnidaria		Octocorallia							Eukaryota		V3169-02
"identity-reference | self | long, white"	cruise	Pennatulacea	91.66	3169	06:23:03:26	 	36.86153	-122.09988	2479212	2.49	30:16.0	Ventana	34.022	01:28:26:24	8.964	Anthozoa					Animalia	Pennatulacea	Cnidaria		Octocorallia							Eukaryota		V3169-02
"population-quantity | self | 999, identity-reference | self | long, white"	cruise	Pennatulacea	91.66	3169	06:23:17:26	 	36.861572	-122.099785	2479215	2.49	30:30.0	Ventana	34.023	01:28:42:02	8.964	Anthozoa					Animalia	Pennatulacea	Cnidaria		Octocorallia							Eukaryota		V3169-02
comment | self | Common murre diving!	cruise	Aves	91.55	3169	06:23:23:25	http://search.mbari.org/ARCHIVE/frameGrabs/Ventana/images/3169/01_28_48_15.jpg	36.861588	-122.09975	2479218	2.49	30:36.0	Ventana	34.023	01:28:48:15	8.964	Aves					Animalia		Chordata						Vertebrata			Eukaryota		V3169-02
"population-quantity | self | 999, identity-reference | self | long, white"	cruise	Pennatulacea	91.65	3169	06:23:53:25	 	36.86167	-122.09957	2479232	2.47	31:06.0	Ventana	34.022	01:29:17:00	8.967	Anthozoa					Animalia	Pennatulacea	Cnidaria		Octocorallia							Eukaryota		V3169-02
identity-certainty | self | maybe	cruise	Rathbunaster californicus	91.82	3169	06:23:57:24	http://search.mbari.org/ARCHIVE/frameGrabs/Ventana/images/3169/01_29_21_13.jpg	36.861687	-122.09955	2479235	2.47	31:10.0	Ventana	34.022	01:29:21:13	8.966		Labidiasteridae	Rathbunaster			Animalia	Forcipulatida	Echinodermata	Rathbunaster californicus	Asteroidea							Eukaryota		V3169-02
"identity-reference | self | long, white"	cruise	Pennatulacea	91.82	3169	06:24:44:08	 	36.86184	-122.09928	2479247	2.47	31:56.0	Ventana	34.022	01:30:08:06	8.967	Anthozoa					Animalia	Pennatulacea	Cnidaria		Octocorallia							Eukaryota		V3169-02
"population-quantity | self | 999, identity-reference | self | long, white"	cruise	Pennatulacea	91.79	3169	06:25:10:07	 	36.861916	-122.09912	2479248	2.47	32:22.0	Ventana	34.022	01:30:33:01	8.969	Anthozoa					Animalia	Pennatulacea	Cnidaria		Octocorallia							Eukaryota		V3169-02
"population-quantity | self | 999, identity-reference | self | long, white"	cruise	Pennatulacea	91.57	3169	06:25:46:21	 	36.862015	-122.09886	2479252	2.49	32:59.0	Ventana	34.022	01:31:09:20	8.972	Anthozoa					Animalia	Pennatulacea	Cnidaria		Octocorallia							Eukaryota		V3169-02
"population-quantity | self | 999, identity-reference | self | long, white"	cruise	Pennatulacea	91.44	3169	06:27:21:03	 	36.86229	-122.09822	2479258	2.5	34:33.0	Ventana	34.022	01:32:44:04	8.975	Anthozoa					Animalia	Pennatulacea	Cnidaria		Octocorallia							Eukaryota		V3169-02
"population-quantity | self | 999, identity-reference | self | long, white"	cruise	Pennatulacea	91.37	3169	06:28:35:01	 	36.86251	-122.09779	2479260	2.51	35:47.0	Ventana	34.02	01:33:59:06	8.981	Anthozoa					Animalia	Pennatulacea	Cnidaria		Octocorallia							Eukaryota		V3169-02
"identity-reference | self | long, white"	cruise	Pennatulacea	91.31	3169	06:29:23:14	 	36.86267	-122.09747	2479264	2.52	36:36.0	Ventana	34.02	01:34:47:29	8.98	Anthozoa					Animalia	Pennatulacea	Cnidaria		Octocorallia							Eukaryota		V3169-02
"identity-reference | self | long, white"	cruise	Pennatulacea	91.09	3169	06:29:37:14	 	36.862717	-122.09738	2479265	2.52	36:50.0	Ventana	34.02	01:35:00:17	8.982	Anthozoa					Animalia	Pennatulacea	Cnidaria		Octocorallia							Eukaryota		V3169-02
"identity-reference | self | long, white"	cruise	Pennatulacea	91.39	3169	06:29:59:13	 	36.862778	-122.097244	2479267	2.52	37:12.0	Ventana	34.02	01:35:23:23	8.984	Anthozoa					Animalia	Pennatulacea	Cnidaria		Octocorallia							Eukaryota		V3169-02
"identity-reference | self | long, white"	cruise	Pennatulacea	91.08	3169	06:31:43:25	 	36.86308	-122.09658	2479273	2.54	38:56.0	Ventana	34.018	01:37:06:24	8.992	Anthozoa					Animalia	Pennatulacea	Cnidaria		Octocorallia							Eukaryota		V3169-02
"identity-reference | self | long, white"	cruise	Pennatulacea	91.01	3169	06:32:08:09	 	36.86315	-122.09642	2479275	2.54	39:20.0	Ventana	34.018	01:37:31:03	8.992	Anthozoa					Animalia	Pennatulacea	Cnidaria		Octocorallia							Eukaryota		V3169-02
"identity-reference | self | long, white"	cruise	Pennatulacea	90.88	3169	06:33:36:06	 	36.86339	-122.09581	2479284	2.55	40:49.0	Ventana	34.018	01:38:59:00	8.996	Anthozoa					Animalia	Pennatulacea	Cnidaria		Octocorallia							Eukaryota		V3169-02
population-quantity | self | 999	cruise	Doryteuthis opalescens	91.06	3169	06:33:48:21	http://search.mbari.org/ARCHIVE/frameGrabs/Ventana/images/3169/01_39_12_27.jpg	36.863422	-122.09573	2479288	2.55	41:01.0	Ventana	34.018	01:39:12:27	8.996	Cephalopoda	Loliginidae	Doryteuthis			Animalia	Teuthoidea	Mollusca	Doryteuthis opalescens	Coleoidea			Myopsida				Eukaryota	Decapodiformes	V3169-02
population-quantity | self | 999	cruise	Doryteuthis opalescens	90.74	3169	06:34:38:20	 	36.86356	-122.09541	2479291	2.56	41:51.0	Ventana	34.018	01:40:02:04	8.999	Cephalopoda	Loliginidae	Doryteuthis			Animalia	Teuthoidea	Mollusca	Doryteuthis opalescens	Coleoidea			Myopsida				Eukaryota	Decapodiformes	V3169-02
population-density | self | dense	cruise	Osteichthyes	90.83	3169	06:35:21:03	http://search.mbari.org/ARCHIVE/frameGrabs/Ventana/images/3169/01_40_43_15.jpg	36.86368	-122.09515	2479295	2.56	42:33.0	Ventana	34.016	01:40:43:15	9.001	Osteichthyes					Animalia		Chordata						Vertebrata	Gnathostomata		Eukaryota		V3169-02
"identity-reference | self | long, white"	cruise	Pennatulacea	90.88	3169	06:35:39:03	 	36.863724	-122.09504	2479297	2.56	42:52.0	Ventana	34.016	01:41:02:27	9.002	Anthozoa					Animalia	Pennatulacea	Cnidaria		Octocorallia							Eukaryota		V3169-02
population-quantity | self | 999	cruise	Doryteuthis opalescens	90.82	3169	06:36:15:17	 	36.863808	-122.0948	2479299	2.57	43:28.0	Ventana	34.017	01:41:38:07	9.003	Cephalopoda	Loliginidae	Doryteuthis			Animalia	Teuthoidea	Mollusca	Doryteuthis opalescens	Coleoidea			Myopsida				Eukaryota	Decapodiformes	V3169-02
population-quantity | self | 999	cruise	Metridium farcimen	90.8	3169	06:36:17:17	 	36.863815	-122.09479	2479300	2.57	43:30.0	Ventana	34.017	01:41:41:10	9.003	Anthozoa	Metridiidae	Metridium			Animalia	Actiniaria	Cnidaria	Metridium farcimen	Hexacorallia			Nyantheae				Eukaryota		V3169-02
"identity-reference | self | long, white"	cruise	Pennatulacea	90.78	3169	06:36:47:16	 	36.8639	-122.09459	2479301	2.57	44:00.0	Ventana	34.017	01:42:12:01	9.004	Anthozoa					Animalia	Pennatulacea	Cnidaria		Octocorallia							Eukaryota		V3169-02
"identity-reference | self | long, white"	cruise	Pennatulacea	90.68	3169	06:36:55:15	 	36.863922	-122.09454	2479302	2.57	44:08.0	Ventana	34.017	01:42:19:05	9.006	Anthozoa					Animalia	Pennatulacea	Cnidaria		Octocorallia							Eukaryota		V3169-02
identity-certainty | self | maybe	cruise	Pleurobranchaea californica	90.56	3169	06:37:01:15	 	36.86394	-122.094505	2479304	2.57	44:14.0	Ventana	34.017	01:42:26:06	9.006	Gastropoda	Pleurobranchidae	Pleurobranchaea			Animalia	Notaspidea	Mollusca	Pleurobranchaea californica	Opisthobranchia						Pleurobranchiacea	Eukaryota		V3169-02
population-density | self | dense	cruise	Osteichthyes	90.63	3169	06:37:31:29	 	36.864033	-122.09431	2479305	2.58	44:44.0	Ventana	34.016	01:42:54:23	9.007	Osteichthyes					Animalia		Chordata						Vertebrata	Gnathostomata		Eukaryota		V3169-02
"identity-reference | self | long, white"	cruise	Pennatulacea	90.48	3169	06:38:05:28	 	36.864143	-122.0941	2479308	2.58	45:19.0	Ventana	34.016	01:43:28:28	9.007	Anthozoa					Animalia	Pennatulacea	Cnidaria		Octocorallia							Eukaryota		V3169-02
"identity-reference | self | long, white"	cruise	Pennatulacea	90.6	3169	06:38:31:28	 	36.864223	-122.09394	2479310	2.59	45:45.0	Ventana	34.016	01:43:55:20	9.007	Anthozoa					Animalia	Pennatulacea	Cnidaria		Octocorallia							Eukaryota		V3169-02
"identity-reference | self | long, white"	cruise	Pennatulacea	90.5	3169	06:39:22:11	 	36.86437	-122.09361	2479313	2.6	46:35.0	Ventana	34.015	01:44:45:23	9.01	Anthozoa					Animalia	Pennatulacea	Cnidaria		Octocorallia							Eukaryota		V3169-02
"identity-reference | self | long, white"	cruise	Pennatulacea	90.33	3169	06:39:36:10	 	36.86441	-122.09353	2479314	2.6	46:49.0	Ventana	34.016	01:45:00:11	9.01	Anthozoa					Animalia	Pennatulacea	Cnidaria		Octocorallia							Eukaryota		V3169-02
population-quantity | self | 999	cruise	Doryteuthis opalescens	90.26	3169	06:40:46:23	 	36.864628	-122.09308	2479316	2.27	47:59.0	Ventana	34.018	01:46:09:23	9.011	Cephalopoda	Loliginidae	Doryteuthis			Animalia	Teuthoidea	Mollusca	Doryteuthis opalescens	Coleoidea			Myopsida				Eukaryota	Decapodiformes	V3169-02
"identity-reference | self | long, white"	cruise	Pennatulacea	90.16	3169	06:41:28:22	 	36.864758	-122.09283	2479319	2.46	48:42.0	Ventana	34.015	01:46:53:11	9.015	Anthozoa					Animalia	Pennatulacea	Cnidaria		Octocorallia							Eukaryota		V3169-02
"identity-reference | self | long, white"	cruise	Pennatulacea	90.19	3169	06:42:29:05	 	36.86495	-122.09249	2480166	2.45	49:42.0	Ventana	34.014	01:47:52:04	9.016	Anthozoa					Animalia	Pennatulacea	Cnidaria		Octocorallia							Eukaryota		V3169-02
"identity-reference | self | long, white"	cruise	Pennatulacea	90.06	3169	06:42:39:05	 	36.86498	-122.09244	2480173	2.45	49:52.0	Ventana	34.014	01:48:02:06	9.016	Anthozoa					Animalia	Pennatulacea	Cnidaria		Octocorallia							Eukaryota		V3169-02
"identity-reference | self | long, white"	cruise	Pennatulacea	89.98	3169	06:44:05:17	 	36.865143	-122.0919	2480195	2.46	51:18.0	Ventana	34.014	01:49:28:17	9.02	Anthozoa					Animalia	Pennatulacea	Cnidaria		Octocorallia							Eukaryota		V3169-02
"identity-reference | self | long, white"	cruise	Pennatulacea	89.93	3169	06:44:29:17	 	36.865204	-122.091736	2480206	2.47	51:43.0	Ventana	34.014	01:49:52:21	9.021	Anthozoa					Animalia	Pennatulacea	Cnidaria		Octocorallia							Eukaryota		V3169-02
"identity-reference | self | long, white"	cruise	Pennatulacea	89.84	3169	06:44:41:16	 	36.865307	-122.091446	2480212	2.47	51:55.0	Ventana	34.014	01:50:05:14	9.022	Anthozoa					Animalia	Pennatulacea	Cnidaria		Octocorallia							Eukaryota		V3169-02
"identity-reference | self | long, white"	cruise	Pennatulacea	89.71	3169	06:44:45:16	 	36.86531	-122.09144	2480214	2.47	51:59.0	Ventana	34.014	01:50:08:12	9.022	Anthozoa					Animalia	Pennatulacea	Cnidaria		Octocorallia							Eukaryota		V3169-02
"identity-reference | self | long, white"	cruise	Pennatulacea	89.82	3169	06:45:03:16	 	36.86533	-122.091385	2480220	2.47	52:17.0	Ventana	34.013	01:50:28:04	9.023	Anthozoa					Animalia	Pennatulacea	Cnidaria		Octocorallia							Eukaryota		V3169-02
"identity-reference | self | long, white"	cruise	Pennatulacea	89.63	3169	06:46:35:28	 	36.865585	-122.09086	2480248	2.51	53:49.0	Ventana	34.013	01:51:58:29	9.028	Anthozoa					Animalia	Pennatulacea	Cnidaria		Octocorallia							Eukaryota		V3169-02
"identity-reference | self | long, white"	cruise	Pennatulacea	89.36	3169	06:47:44:11	 	36.865795	-122.09037	2480255	2.43	54:58.0	Ventana	34.012	01:53:08:05	9.031	Anthozoa					Animalia	Pennatulacea	Cnidaria		Octocorallia							Eukaryota		V3169-02
population-quantity | self | 999	cruise	Metridium farcimen	89.47	3169	06:48:20:10	http://search.mbari.org/ARCHIVE/frameGrabs/Ventana/images/3169/01_53_43_24.jpg	36.865906	-122.0901	2480257	2.43	55:34.0	Ventana	34.012	01:53:43:24	9.032	Anthozoa	Metridiidae	Metridium			Animalia	Actiniaria	Cnidaria	Metridium farcimen	Hexacorallia			Nyantheae				Eukaryota		V3169-02
"identity-reference | self | long, white"	cruise	Pennatulacea	89.37	3169	06:48:30:09	 	36.865932	-122.090034	2480258	2.44	55:44.0	Ventana	34.011	01:53:54:13	9.034	Anthozoa					Animalia	Pennatulacea	Cnidaria		Octocorallia							Eukaryota		V3169-02
population-quantity | self | 999	cruise	Doryteuthis opalescens	89.48	3169	06:48:44:09	 	36.865974	-122.089935	2480259	2.44	55:58.0	Ventana	34.011	01:54:08:25	9.033	Cephalopoda	Loliginidae	Doryteuthis			Animalia	Teuthoidea	Mollusca	Doryteuthis opalescens	Coleoidea			Myopsida				Eukaryota	Decapodiformes	V3169-02
"identity-reference | self | long, white"	cruise	Pennatulacea	89.3	3169	06:48:58:09	 	36.866016	-122.089836	2480261	2.44	56:12.0	Ventana	34.011	01:54:22:13	9.034	Anthozoa					Animalia	Pennatulacea	Cnidaria		Octocorallia							Eukaryota		V3169-02
population-quantity | self | 999	cruise	Metridium farcimen	89.33	3169	06:50:30:21	 	36.8663	-122.08925	2480264	2.45	57:44.0	Ventana	34.011	01:55:53:27	9.037	Anthozoa	Metridiidae	Metridium			Animalia	Actiniaria	Cnidaria	Metridium farcimen	Hexacorallia			Nyantheae				Eukaryota		V3169-02
population-quantity | self | 999	cruise	Metridium farcimen	89.22	3169	06:50:32:21	 	36.866302	-122.08923	2480265	2.45	57:46.0	Ventana	34.011	01:55:56:22	9.037	Anthozoa	Metridiidae	Metridium			Animalia	Actiniaria	Cnidaria	Metridium farcimen	Hexacorallia			Nyantheae				Eukaryota		V3169-02
population-quantity | self | 999	cruise	Metridium farcimen	89.11	3169	06:51:31:04	 	36.86647	-122.08887	2480268	2.46	58:45.0	Ventana	34.01	01:56:55:08	9.038	Anthozoa	Metridiidae	Metridium			Animalia	Actiniaria	Cnidaria	Metridium farcimen	Hexacorallia			Nyantheae				Eukaryota		V3169-02
"identity-reference | self | long, white"	cruise	Pennatulacea	88.83	3169	06:52:03:03	 	36.866535	-122.08872	2480269	2.47	59:17.0	Ventana	34.011	01:57:27:03	9.039	Anthozoa					Animalia	Pennatulacea	Cnidaria		Octocorallia							Eukaryota		V3169-02
population-quantity | self | 999	cruise	Laminariales	88.72	3169	06:53:31:15	 	36.866882	-122.08802	2480270	2.51	00:45.0	Ventana	34.008	01:58:55:19	9.043	Phaeophyceae					Chromista	Laminariales	Phaeophycophyta									Eukaryota		V3169-02
identity-certainty | self | maybe	cruise	Pleurobranchaea californica	88.67	3169	06:54:09:29	 	36.866997	-122.08776	2480271	2.49	01:23.0	Ventana	34.009	01:59:34:00	9.043	Gastropoda	Pleurobranchidae	Pleurobranchaea			Animalia	Notaspidea	Mollusca	Pleurobranchaea californica	Opisthobranchia						Pleurobranchiacea	Eukaryota		V3169-02
"identity-reference | self | long, white"	cruise	Pennatulacea	88.73	3169	06:54:13:29	 	36.867012	-122.08772	2480272	2.49	01:28.0	Ventana	34.009	01:59:38:19	9.043	Anthozoa					Animalia	Pennatulacea	Cnidaria		Octocorallia							Eukaryota		V3169-02
"identity-reference | self | long, white"	cruise	Pennatulacea	88.49	3169	06:54:49:28	 	36.86712	-122.08744	2480278	2.49	02:04.0	Ventana	34.009	02:00:12:26	9.045	Anthozoa					Animalia	Pennatulacea	Cnidaria		Octocorallia							Eukaryota		V3169-02
"identity-reference | self | long, white"	cruise	Pennatulacea	88.08	3169	06:56:36:09	 	36.86745	-122.08667	2480286	2.49	03:50.0	Ventana	34.009	02:02:00:15	9.048	Anthozoa					Animalia	Pennatulacea	Cnidaria		Octocorallia							Eukaryota		V3169-02
"identity-reference | self | long, white"	cruise	Pennatulacea	88.03	3169	06:57:18:23	 	36.867588	-122.08638	2480290	2.49	04:33.0	Ventana	34.009	02:02:43:08	9.05	Anthozoa					Animalia	Pennatulacea	Cnidaria		Octocorallia							Eukaryota		V3169-02
"identity-reference | self | long, white"	cruise	Pennatulacea	88.09	3169	06:57:52:22	 	36.867706	-122.08613	2480293	2.49	05:07.0	Ventana	34.008	02:03:17:02	9.051	Anthozoa					Animalia	Pennatulacea	Cnidaria		Octocorallia							Eukaryota		V3169-02
"identity-reference | self | long, white"	cruise	Pennatulacea	87.98	3169	 	 	36.86773	-122.086075	2480294	2.49	05:15.0	Ventana	34.008	02:03:24:14	9.052	Anthozoa					Animalia	Pennatulacea	Cnidaria		Octocorallia							Eukaryota		V3169-02
"identity-reference | self | long, white"	cruise	Pennatulacea	87.5	3169	06:58:28:16	 	36.868313	-122.084816	2480657	2.5	08:06.0	Ventana	34.007	02:05:42:07	9.061	Anthozoa					Animalia	Pennatulacea	Cnidaria		Octocorallia							Eukaryota		V3169-03
part-of | Brisaster | nil	cruise	test	87.54	3169	06:58:54:16	 	36.86839	-122.08466	2480724	2.5	08:32.0	Ventana	34.006	02:06:07:15	9.064																			V3169-03
comment | self | probably a ray feeding pit	cruise	pit	87.15	3169	06:59:52:29	http://search.mbari.org/ARCHIVE/frameGrabs/Ventana/images/3169/02_07_06_00.jpg	36.86857	-122.08429	2480741	2.5	09:30.0	Ventana	34.005	02:07:06:00	9.069																			V3169-03
identity-certainty | self | maybe	cruise	Rathbunaster californicus	87.2	3169	06:59:56:29	 	36.868584	-122.08426	2480750	2.5	09:34.0	Ventana	34.005	02:07:09:27	9.069		Labidiasteridae	Rathbunaster			Animalia	Forcipulatida	Echinodermata	Rathbunaster californicus	Asteroidea							Eukaryota		V3169-03
"identity-reference | self | long, white"	cruise	Pennatulacea	86.95	3169	07:00:52:27	 	36.86876	-122.08387	2480762	2.51	10:30.0	Ventana	34.005	02:08:06:25	9.073	Anthozoa					Animalia	Pennatulacea	Cnidaria		Octocorallia							Eukaryota		V3169-03
population-dispersal | self | school	cruise	Osteichthyes	86.95	3169	07:00:52:27	http://search.mbari.org/ARCHIVE/frameGrabs/Ventana/images/3169/02_08_06_09.jpg	36.86876	-122.08387	2480769	2.51	10:30.0	Ventana	34.005	02:08:06:09	9.073	Osteichthyes					Animalia		Chordata						Vertebrata	Gnathostomata		Eukaryota		V3169-03
population-dispersal | self | school	cruise	Osteichthyes	86.59	3169	07:03:03:23	 	36.869175	-122.08296	2480800	2.51	12:41.0	Ventana	34.003	02:10:16:02	9.082	Osteichthyes					Animalia		Chordata						Vertebrata	Gnathostomata		Eukaryota		V3169-03
"identity-reference | self | long, white"	cruise	Pennatulacea	86.35	3169	07:04:16:06	 	36.869415	-122.08242	2480814	2.51	13:53.0	Ventana	34.003	02:11:28:07	9.088	Anthozoa					Animalia	Pennatulacea	Cnidaria		Octocorallia							Eukaryota		V3169-03
"identity-reference | self | long, white"	cruise	Pennatulacea	86.28	3169	07:05:08:04	 	36.869583	-122.08205	2483150	2.51	14:46.0	Ventana	34.002	02:12:21:00	9.091	Anthozoa					Animalia	Pennatulacea	Cnidaria		Octocorallia							Eukaryota		V3169-03
"identity-reference | self | long, white"	cruise	Pennatulacea	85.99	3169	07:06:18:17	 	36.869816	-122.08157	2483185	2.51	15:56.0	Ventana	34.001	02:13:32:06	9.099	Anthozoa					Animalia	Pennatulacea	Cnidaria		Octocorallia							Eukaryota		V3169-03
population-dispersal | self | school	cruise	Osteichthyes	85.97	3169	07:06:16:17	http://search.mbari.org/ARCHIVE/frameGrabs/Ventana/images/3169/02_13_28_29.jpg	36.86981	-122.08158	2483194	2.51	15:54.0	Ventana	34.001	02:13:28:29	9.099	Osteichthyes					Animalia		Chordata						Vertebrata	Gnathostomata		Eukaryota		V3169-03
"identity-reference | self | long, white"	cruise	Pennatulacea	85.83	3169	07:07:06:16	 	36.869953	-122.08128	2483217	2.51	16:44.0	Ventana	34	02:14:20:14	9.103	Anthozoa					Animalia	Pennatulacea	Cnidaria		Octocorallia							Eukaryota		V3169-03
"identity-reference | self | long, white"	cruise	Pennatulacea	85.07	3169	07:10:39:09	 	36.87057	-122.07987	2483276	2.52	20:17.0	Ventana	33.998	02:17:53:05	9.117	Anthozoa					Animalia	Pennatulacea	Cnidaria		Octocorallia							Eukaryota		V3169-03
"identity-reference | self | long, white"	cruise	Pennatulacea	84.64	3169	07:12:31:20	 	36.87091	-122.07914	2483298	2.52	22:10.0	Ventana	33.998	02:19:45:13	9.12	Anthozoa					Animalia	Pennatulacea	Cnidaria		Octocorallia							Eukaryota		V3169-03
population-quantity | self | 999	cruise	Doryteuthis opalescens	84.59	3169	07:13:06:05	 	36.87107	-122.07876	2483303	2.52	22:44.0	Ventana	33.998	02:20:20:07	9.124	Cephalopoda	Loliginidae	Doryteuthis			Animalia	Teuthoidea	Mollusca	Doryteuthis opalescens	Coleoidea			Myopsida				Eukaryota	Decapodiformes	V3169-03
"identity-reference | self | long, white"	cruise	Pennatulacea	84.45	3169	07:13:16:04	 	36.871082	-122.078735	2483311	2.52	22:54.0	Ventana	33.996	02:20:29:03	9.125	Anthozoa					Animalia	Pennatulacea	Cnidaria		Octocorallia							Eukaryota		V3169-03
"identity-reference | self | long, white"	cruise	Pennatulacea	84.18	3169	07:14:18:17	 	36.871227	-122.07841	2483321	2.52	23:56.0	Ventana	33.997	02:21:31:04	9.126	Anthozoa					Animalia	Pennatulacea	Cnidaria		Octocorallia							Eukaryota		V3169-03
identity-certainty | self | maybe	cruise	Ceriantharia	83.63	3169	07:17:26:27	 	36.87182	-122.0771	2483379	2.52	27:05.0	Ventana	33.995	02:24:40:09	9.132	Anthozoa					Animalia	Ceriantharia	Cnidaria		Ceriantipatharia							Eukaryota		V3169-03
population-dispersal | self | school	cruise	Osteichthyes	82.61	3169	07:21:18:04	 	36.87254	-122.07551	2483428	2.53	30:57.0	Ventana	33.993	02:28:32:01	9.146	Osteichthyes					Animalia		Chordata						Vertebrata	Gnathostomata		Eukaryota		V3169-03
"identity-reference | self | long, white"	cruise	Pennatulacea	81.92	3169	07:25:08:27	 	36.87322	-122.0741	2483485	2.54	34:48.0	Ventana	33.991	02:32:22:03	9.159	Anthozoa					Animalia	Pennatulacea	Cnidaria		Octocorallia							Eukaryota		V3169-03
"identity-reference | self | long, white"	cruise	Pennatulacea	82.46	3169	07:25:59:11	 	36.8733	-122.073906	2483491	2.54	35:38.0	Ventana	33.991	02:33:12:26	9.161	Anthozoa					Animalia	Pennatulacea	Cnidaria		Octocorallia							Eukaryota		V3169-03
"identity-reference | self | long, white"	cruise	Pennatulacea	82.12	3169	07:26:23:10	 	36.873337	-122.07384	2483494	2.54	36:02.0	Ventana	33.991	02:33:37:07	9.161	Anthozoa					Animalia	Pennatulacea	Cnidaria		Octocorallia							Eukaryota		V3169-03
"identity-reference | self | long, white"	cruise	Pennatulacea	82.4	3169	07:26:57:24	 	36.873398	-122.07374	2483505	2.54	36:36.0	Ventana	33.992	02:34:09:18	9.163	Anthozoa					Animalia	Pennatulacea	Cnidaria		Octocorallia							Eukaryota		V3169-03
population-dispersal | self | school	cruise	Osteichthyes	81.16	3169	07:29:04:05	 	36.87376	-122.072914	2483519	2.55	38:43.0	Ventana	33.99	02:36:17:11	9.169	Osteichthyes					Animalia		Chordata						Vertebrata	Gnathostomata		Eukaryota		V3169-03
identity-certainty | self | maybe	cruise	Pleurobranchaea californica	80.78	3169	07:30:32:17	 	36.874004	-122.072334	2483539	2.55	40:11.0	Ventana	33.989	02:37:45:02	9.173	Gastropoda	Pleurobranchidae	Pleurobranchaea			Animalia	Notaspidea	Mollusca	Pleurobranchaea californica	Opisthobranchia						Pleurobranchiacea	Eukaryota		V3169-03
population-quantity | self | 999	cruise	Laminariales	80.55	3169	07:30:58:17	 	36.87409	-122.07214	2483546	2.55	40:38.0	Ventana	33.989	02:38:12:15	9.175	Phaeophyceae					Chromista	Laminariales	Phaeophycophyta									Eukaryota		V3169-03
"identity-reference | self | long, white"	cruise	Pennatulacea	79.78	3169	07:33:39:12	 	36.87464	-122.07098	2483608	2.55	43:18.0	Ventana	33.989	02:40:53:14	9.178	Anthozoa					Animalia	Pennatulacea	Cnidaria		Octocorallia							Eukaryota		V3169-03
"identity-reference | self | long, white"	cruise	Pennatulacea	79.21	3169	07:36:07:22	 	36.875164	-122.06989	2483634	2.56	45:47.0	Ventana	33.988	02:43:21:10	9.185	Anthozoa					Animalia	Pennatulacea	Cnidaria		Octocorallia							Eukaryota		V3169-03
"identity-reference | self | long, white"	cruise	Pennatulacea	78.42	3169	07:38:30:17	 	36.875698	-122.06874	2483656	2.57	48:10.0	Ventana	33.985	02:45:43:04	9.193	Anthozoa					Animalia	Pennatulacea	Cnidaria		Octocorallia							Eukaryota		V3169-03
"identity-reference | self | long, white"	cruise	Pennatulacea	78.4	3169	07:38:32:17	 	36.8757	-122.068726	2483657	2.57	48:12.0	Ventana	33.985	02:45:45:29	9.193	Anthozoa					Animalia	Pennatulacea	Cnidaria		Octocorallia							Eukaryota		V3169-03
"identity-reference | self | long, white"	cruise	Pennatulacea	78.35	3169	07:38:34:18	 	36.87571	-122.06872	2483658	2.57	48:14.0	Ventana	33.985	02:45:47:24	9.193	Anthozoa					Animalia	Pennatulacea	Cnidaria		Octocorallia							Eukaryota		V3169-03
"identity-reference | self | long, white"	cruise	Pennatulacea	78	3169	07:39:53:00	 	36.875988	-122.068146	2483669	2.57	49:32.0	Ventana	33.985	02:47:05:10	9.198	Anthozoa					Animalia	Pennatulacea	Cnidaria		Octocorallia							Eukaryota		V3169-03
"identity-reference | self | long, white"	cruise	Pennatulacea	77.92	3169	07:39:59:00	 	36.87601	-122.0681	2483670	2.57	49:38.0	Ventana	33.985	02:47:11:25	9.2	Anthozoa					Animalia	Pennatulacea	Cnidaria		Octocorallia							Eukaryota		V3169-03
"identity-reference | self | long, white"	cruise	Pennatulacea	77.26	3169	07:42:19:11	 	36.876545	-122.066864	2483691	2.58	51:59.0	Ventana	33.983	02:49:32:24	9.212	Anthozoa					Animalia	Pennatulacea	Cnidaria		Octocorallia							Eukaryota		V3169-03
"image-quality | self | good, population-dispersal | self | school"	cruise	Osteichthyes	76.78	3169	07:43:21:25	http://search.mbari.org/ARCHIVE/frameGrabs/Ventana/images/3169/02_50_34_14.jpg	36.876743	-122.06643	2483706	2.58	53:01.0	Ventana	33.982	02:50:34:14	9.218	Osteichthyes					Animalia		Chordata						Vertebrata	Gnathostomata		Eukaryota		V3169-03
"identity-reference | self | long, white"	cruise	Pennatulacea	76.5	3169	07:44:17:23	 	36.876945	-122.06599	2483716	2.59	53:58.0	Ventana	33.981	02:51:31:24	9.223	Anthozoa					Animalia	Pennatulacea	Cnidaria		Octocorallia							Eukaryota		V3169-03
"identity-reference | self | long, white"	cruise	Pennatulacea	76.42	3169	07:44:43:22	 	36.877037	-122.065796	2483721	2.59	54:24.0	Ventana	33.981	02:51:57:08	9.227	Anthozoa					Animalia	Pennatulacea	Cnidaria		Octocorallia							Eukaryota		V3169-03
"identity-reference | self | long, white"	cruise	Pennatulacea	75.56	3169	07:47:02:17	 	36.877537	-122.06487	2483752	2.6	56:42.0	Ventana	33.978	02:54:16:22	9.241	Anthozoa					Animalia	Pennatulacea	Cnidaria		Octocorallia							Eukaryota		V3169-03
"identity-reference | self | long, white"	cruise	Pennatulacea	75.58	3169	07:48:31:00	 	36.877743	-122.06434	2483771	2.61	58:11.0	Ventana	33.977	02:55:43:09	9.25	Anthozoa					Animalia	Pennatulacea	Cnidaria		Octocorallia							Eukaryota		V3169-03
"identity-reference | self | long, white"	cruise	Pennatulacea	75.21	3169	07:49:08:29	 	36.87779	-122.064125	2483781	2.61	58:49.0	Ventana	33.977	02:56:22:19	9.251	Anthozoa					Animalia	Pennatulacea	Cnidaria		Octocorallia							Eukaryota		V3169-03
population-dispersal | self | school	cruise	Osteichthyes	74.76	3169	07:51:11:10	 	36.878006	-122.06342	2483802	2.62	00:52.0	Ventana	33.975	02:58:24:15	9.262	Osteichthyes					Animalia		Chordata						Vertebrata	Gnathostomata		Eukaryota		V3169-03
"identity-reference | self | long, white"	cruise	Pennatulacea	74.7	3169	07:51:47:24	 	36.87809	-122.06325	2483807	2.62	01:28.0	Ventana	33.974	02:59:00:09	9.267	Anthozoa					Animalia	Pennatulacea	Cnidaria		Octocorallia							Eukaryota		V3169-03
"identity-reference | self | long, white"	cruise	Pennatulacea	74.36	3169	07:53:28:06	 	36.87835	-122.06285	2483818	2.63	03:08.0	Ventana	33.972	03:00:41:22	9.276	Anthozoa					Animalia	Pennatulacea	Cnidaria		Octocorallia							Eukaryota		V3169-03
"identity-reference | self | long, white"	cruise	Pennatulacea	74.13	3169	07:55:20:07	 	36.878605	-122.0623	2483865	2.62	05:25.0	Ventana	33.97	03:02:22:06	9.288	Anthozoa					Animalia	Pennatulacea	Cnidaria		Octocorallia							Eukaryota		V3169-04
"identity-reference | self | long, white"	cruise	Pennatulacea	73.77	3169	07:57:26:17	 	36.87879	-122.06163	2483887	2.63	07:32.0	Ventana	33.969	03:04:28:00	9.299	Anthozoa					Animalia	Pennatulacea	Cnidaria		Octocorallia							Eukaryota		V3169-04
"identity-reference | self | long, white"	cruise	Pennatulacea	73.64	3169	07:58:19:01	 	36.8789	-122.06144	2483902	2.63	08:24.0	Ventana	33.969	03:05:19:19	9.297	Anthozoa					Animalia	Pennatulacea	Cnidaria		Octocorallia							Eukaryota		V3169-04
"identity-reference | self | long, white"	cruise	Pennatulacea	73.46	3169	07:59:07:15	 	36.879	-122.06126	2483916	2.63	09:12.0	Ventana	33.969	03:06:07:29	9.298	Anthozoa					Animalia	Pennatulacea	Cnidaria		Octocorallia							Eukaryota		V3169-04
"identity-reference | self | long, white"	cruise	Pennatulacea	73.33	3169	07:59:35:14	 	36.879055	-122.06115	2483919	2.63	09:40.0	Ventana	33.969	03:06:37:05	9.304	Anthozoa					Animalia	Pennatulacea	Cnidaria		Octocorallia							Eukaryota		V3169-04
comment | self | discontinue survey	cruise	physical object	73.21	3169	08:00:49:11	 	36.87926	-122.06106	2483931	2.64	10:55.0	Ventana	33.969	03:07:50:11	9.301																			V3169-04
comment | self | large depression	cruise	trench	96.13	3169	05:28:02:14	http://search.mbari.org/ARCHIVE/frameGrabs/Ventana/images/3169/00_33_37_00.jpg	36.85573	-122.11236	20024173	2.36	34:50.0	Ventana	34.04	00:33:37:00	8.847																			V3169-01
comment | self | starting Station D transect A (over cable)	starttransect	physical object	94.58	3169	05:39:11:10	http://search.mbari.org/ARCHIVE/frameGrabs/Ventana/images/3169/00_44_45_09.jpg	36.85717	-122.10929	20024174	2.38	46:00.0	Ventana	34.038	00:44:45:09	8.869																			V3169-01
comment | self | end transect station D-A	endtransect	physical object	94.11	3169	05:44:05:01	http://search.mbari.org/ARCHIVE/frameGrabs/Ventana/images/3169/00_49_38_15.jpg	36.85751	-122.10827	20024175	2.4	50:54.0	Ventana	34.037	00:49:38:15	8.884																			V3169-01
comment | self | starting Station D-B (no cable)	starttransect	physical object	94.31	3169	05:46:31:11	http://search.mbari.org/ARCHIVE/frameGrabs/Ventana/images/3169/00_52_05_10.jpg	36.857117	-122.10794	20024176	2.4	53:20.0	Ventana	34.035	00:52:05:10	8.885																			V3169-01
"comment | self | attached to wood, population-quantity | self | 999"	endtransect	Metridium farcimen	92.85	3169	06:06:37:26	http://search.mbari.org/ARCHIVE/frameGrabs/Ventana/images/3169/01_12_01_04.jpg	36.85896	-122.10533	20024181	2.43	13:49.0	Ventana	34.031	01:12:01:04	8.914	Anthozoa	Metridiidae	Metridium			Animalia	Actiniaria	Cnidaria	Metridium farcimen	Hexacorallia			Nyantheae				Eukaryota		V3169-02
comment | self | ascending- stop at crab pot deviation waypoint	ascend	physical object	60.96	3169	08:03:22:06	 	36.87956	-122.061874	20024199	2.91	13:28.0	Ventana	33.901	03:10:23:11	9.652																			V3169-04
 	descend	benthos	95.62	3169	05:07:25:07	 	36.853794	-122.115685	2476793	2.49	14:12.0	Ventana	34.027	00:12:59:23	8.932																			V3169-01
 	cruise	Luidia foliolata	89.31	3169	06:50:00:22	 	36.866207	-122.08943	2480263	2.44	57:14.0	Ventana	34.011	01:55:23:27	9.036		Luidiidae	Luidia			Animalia	Platyasterida	Echinodermata	Luidia foliolata	Asteroidea							Eukaryota		V3169-02
 	cruise	Phyllospadix	83.47	3169	07:17:57:11	 	36.8719	-122.07691	2483380	2.52	27:35.0	Ventana	33.996	02:25:09:27	9.132		Zosteraceae	Phyllospadix			Plantae	Najadales										Eukaryota		V3169-03
 	cruise	trench	81.94	3169	07:26:45:09	http://search.mbari.org/ARCHIVE/frameGrabs/Ventana/images/3169/02_33_57_20.jpg	36.873375	-122.07378	2483500	2.54	36:24.0	Ventana	33.992	02:33:57:20	9.163																			V3169-03
 	cruise	Luidia foliolata	95.32	3169	05:34:34:03	 	36.856632	-122.11048	2477056	2.36	41:22.0	Ventana	34.04	00:40:08:09	8.856		Luidiidae	Luidia			Animalia	Platyasterida	Echinodermata	Luidia foliolata	Asteroidea							Eukaryota		V3169-01
 	cruise	Rathbunaster californicus	96.8	3169	05:21:14:27	 	36.854725	-122.11453	2476973	2.36	28:02.0	Ventana	34.042	00:26:48:02	8.836		Labidiasteridae	Rathbunaster			Animalia	Forcipulatida	Echinodermata	Rathbunaster californicus	Asteroidea							Eukaryota		V3169-01
 	cruise	Pleuronectiformes	89.88	3169	06:44:21:17	 	36.865185	-122.09179	2480203	2.47	51:35.0	Ventana	34.013	01:49:45:21	9.021	Osteichthyes			Neopterygii		Animalia	Pleuronectiformes	Chordata		Actinopterygii				Vertebrata	Gnathostomata		Eukaryota	Acanthopterygii	V3169-02
 	cruise	Metridium farcimen	74.09	3169	07:56:20:20	 	36.878662	-122.06195	2483876	2.61	06:25.0	Ventana	33.971	03:03:22:15	9.286	Anthozoa	Metridiidae	Metridium			Animalia	Actiniaria	Cnidaria	Metridium farcimen	Hexacorallia			Nyantheae				Eukaryota		V3169-04
 	cruise	Pleurobranchaea californica	94.28	3169	05:45:26:28	 	36.85728	-122.10804	2478332	2.39	52:16.0	Ventana	34.037	00:51:02:08	8.88	Gastropoda	Pleurobranchidae	Pleurobranchaea			Animalia	Notaspidea	Mollusca	Pleurobranchaea californica	Opisthobranchia						Pleurobranchiacea	Eukaryota		V3169-01
 	cruise	Phyllospadix	78.9	3169	07:37:02:05	 	36.875347	-122.06949	2483643	2.56	46:41.0	Ventana	33.987	02:44:14:25	9.189		Zosteraceae	Phyllospadix			Plantae	Najadales										Eukaryota		V3169-03
 	transect	Phyllospadix	94.6	3169	05:39:33:24	 	36.85718	-122.10927	2477296	2.37	46:22.0	Ventana	34.037	00:45:08:00	8.87		Zosteraceae	Phyllospadix			Plantae	Najadales										Eukaryota		V3169-01
 	cruise	Laminariales	92.41	3169	06:12:19:01	http://search.mbari.org/ARCHIVE/frameGrabs/Ventana/images/3169/01_17_43_06.jpg	36.859756	-122.10359	2478941	2.45	19:30.0	Ventana	34.028	01:17:43:06	8.937	Phaeophyceae					Chromista	Laminariales	Phaeophycophyta									Eukaryota		V3169-02
 	transect	Luidia foliolata	94.44	3169	05:49:42:05	 	36.85695	-122.10842	2478392	2.39	56:31.0	Ventana	34.036	00:55:16:17	8.88		Luidiidae	Luidia			Animalia	Platyasterida	Echinodermata	Luidia foliolata	Asteroidea							Eukaryota		V3169-01
 	cruise	trench	90.96	3169	06:32:58:08	http://search.mbari.org/ARCHIVE/frameGrabs/Ventana/images/3169/01_38_22_06.jpg	36.86328	-122.096085	2479280	2.55	40:11.0	Ventana	34.018	01:38:22:06	8.996																			V3169-02
 	cruise	Luidia foliolata	93.15	3169	06:05:27:13	 	36.858833	-122.10565	2478694	2.42	12:38.0	Ventana	34.032	01:10:50:14	8.913		Luidiidae	Luidia			Animalia	Platyasterida	Echinodermata	Luidia foliolata	Asteroidea							Eukaryota		V3169-02
 	transect	Phyllospadix	94.34	3169	05:48:51:22	 	36.856995	-122.10824	2478371	2.39	55:41.0	Ventana	34.037	00:54:25:27	8.884		Zosteraceae	Phyllospadix			Plantae	Najadales										Eukaryota		V3169-01
 	cruise	Metridium farcimen	91.75	3169	06:25:30:22	 	36.86197	-122.09898	2479250	2.48	32:42.0	Ventana	34.022	01:30:53:07	8.971	Anthozoa	Metridiidae	Metridium			Animalia	Actiniaria	Cnidaria	Metridium farcimen	Hexacorallia			Nyantheae				Eukaryota		V3169-02
 	cruise	Metridium farcimen	82.23	3169	07:24:30:28	 	36.873142	-122.074295	2483484	2.54	34:10.0	Ventana	33.993	02:31:44:06	9.156	Anthozoa	Metridiidae	Metridium			Animalia	Actiniaria	Cnidaria	Metridium farcimen	Hexacorallia			Nyantheae				Eukaryota		V3169-03
 	cruise	Ptilosarcus gurneyi	81.28	3169	07:28:37:21	 	36.873703	-122.073044	2483514	2.55	38:17.0	Ventana	33.99	02:35:51:05	9.168	Anthozoa	Pennatulidae	Ptilosarcus			Animalia	Pennatulacea	Cnidaria	Ptilosarcus gurneyi	Octocorallia			Subselliflorae				Eukaryota		V3169-03
 	cruise	Metridium farcimen	79.95	3169	07:33:22:27	 	36.87459	-122.07109	2483604	2.55	43:02.0	Ventana	33.988	02:40:37:03	9.178	Anthozoa	Metridiidae	Metridium			Animalia	Actiniaria	Cnidaria	Metridium farcimen	Hexacorallia			Nyantheae				Eukaryota		V3169-03
 	cruise	trench	91.9	3169	06:18:34:20	http://search.mbari.org/ARCHIVE/frameGrabs/Ventana/images/3169/01_23_57_15.jpg	36.860863	-122.101234	2479167	2.48	25:46.0	Ventana	34.024	01:23:57:15	8.954																			V3169-02
 	cruise	trench	94.69	3169	05:37:18:28	http://search.mbari.org/ARCHIVE/frameGrabs/Ventana/images/3169/00_42_53_12.jpg	36.85705	-122.10951	2477077	2.37	44:07.0	Ventana	34.039	00:42:53:12	8.864																			V3169-01
 	cruise	Metridium farcimen	76.06	3169	07:46:12:04	 	36.877357	-122.0652	2483740	2.6	55:52.0	Ventana	33.98	02:53:25:15	9.235	Anthozoa	Metridiidae	Metridium			Animalia	Actiniaria	Cnidaria	Metridium farcimen	Hexacorallia			Nyantheae				Eukaryota		V3169-03
 	cruise	Metridium farcimen	83.88	3169	07:16:38:28	 	36.871647	-122.0775	2483371	2.52	26:17.0	Ventana	33.996	02:23:51:20	9.13	Anthozoa	Metridiidae	Metridium			Animalia	Actiniaria	Cnidaria	Metridium farcimen	Hexacorallia			Nyantheae				Eukaryota		V3169-03
 	cruise	Luidia foliolata	88.4	3169	06:55:58:11	 	36.86733	-122.08694	2480284	2.49	03:12.0	Ventana	34.009	02:01:21:24	9.047		Luidiidae	Luidia			Animalia	Platyasterida	Echinodermata	Luidia foliolata	Asteroidea							Eukaryota		V3169-02
 	cruise	Phyllospadix	89.61	3169	06:47:30:11	 	36.865753	-122.090485	2480254	2.43	54:43.0	Ventana	34.013	01:52:54:25	9.029		Zosteraceae	Phyllospadix			Plantae	Najadales										Eukaryota		V3169-02
 	transect	Pleuronectiformes	94.62	3169	05:50:30:04	http://search.mbari.org/ARCHIVE/frameGrabs/Ventana/images/3169/00_56_03_25.jpg	36.8569	-122.10853	2478408	2.39	57:19.0	Ventana	34.036	00:56:03:25	8.884	Osteichthyes			Neopterygii		Animalia	Pleuronectiformes	Chordata		Actinopterygii				Vertebrata	Gnathostomata		Eukaryota	Acanthopterygii	V3169-01
 	cruise	Metridium farcimen	86.54	3169	07:03:17:22	 	36.86922	-122.08287	2480803	2.51	12:55.0	Ventana	34.003	02:10:30:16	9.085	Anthozoa	Metridiidae	Metridium			Animalia	Actiniaria	Cnidaria	Metridium farcimen	Hexacorallia			Nyantheae				Eukaryota		V3169-03
 	cruise	Rathbunaster californicus	97.77	3169	05:16:01:21	http://search.mbari.org/ARCHIVE/frameGrabs/Ventana/images/3169/00_21_35_00.jpg	36.854	-122.116196	2476934	2.34	22:48.0	Ventana	34.044	00:21:35:00	8.825		Labidiasteridae	Rathbunaster			Animalia	Forcipulatida	Echinodermata	Rathbunaster californicus	Asteroidea							Eukaryota		V3169-01
 	cruise	Metridium farcimen	79.99	3169	07:33:08:27	http://search.mbari.org/ARCHIVE/frameGrabs/Ventana/images/3169/02_40_21_17.jpg	36.87454	-122.071205	2483597	2.55	42:48.0	Ventana	33.989	02:40:21:17	9.178	Anthozoa	Metridiidae	Metridium			Animalia	Actiniaria	Cnidaria	Metridium farcimen	Hexacorallia			Nyantheae				Eukaryota		V3169-03
 	cruise	Luidia foliolata	93.58	3169	06:01:38:20	 	36.85824	-122.106804	2478611	2.41	08:49.0	Ventana	34.034	01:07:01:19	8.9		Luidiidae	Luidia			Animalia	Platyasterida	Echinodermata	Luidia foliolata	Asteroidea							Eukaryota		V3169-02
 	cruise	Phyllospadix	86.11	3169	07:05:02:05	 	36.869564	-122.08209	2483149	2.51	14:40.0	Ventana	34.002	02:12:15:00	9.091		Zosteraceae	Phyllospadix			Plantae	Najadales										Eukaryota		V3169-03
 	cruise	Pleuronectiformes	85.45	3169	07:08:40:28	 	36.870228	-122.08064	2483239	2.51	18:19.0	Ventana	33.999	02:15:54:02	9.109	Osteichthyes			Neopterygii		Animalia	Pleuronectiformes	Chordata		Actinopterygii				Vertebrata	Gnathostomata		Eukaryota	Acanthopterygii	V3169-03
 	cruise	Metridium farcimen	88.17	3169	06:57:24:23	 	36.867607	-122.086334	2480291	2.49	04:39.0	Ventana	34.008	02:02:49:06	9.051	Anthozoa	Metridiidae	Metridium			Animalia	Actiniaria	Cnidaria	Metridium farcimen	Hexacorallia			Nyantheae				Eukaryota		V3169-02
 	cruise	Luidia foliolata	91.22	3169	06:29:47:14	 	36.862743	-122.09732	2479266	2.53	37:00.0	Ventana	34.02	01:35:11:13	8.985		Luidiidae	Luidia			Animalia	Platyasterida	Echinodermata	Luidia foliolata	Asteroidea							Eukaryota		V3169-02
 	cruise	Metridium farcimen	73.53	3169	07:58:57:00	 	36.878983	-122.061295	2483915	2.63	09:02.0	Ventana	33.968	03:05:57:16	9.302	Anthozoa	Metridiidae	Metridium			Animalia	Actiniaria	Cnidaria	Metridium farcimen	Hexacorallia			Nyantheae				Eukaryota		V3169-04
 	cruise	Rathbunaster californicus	93.28	3169	06:00:56:07	 	36.858173	-122.10697	2478560	2.42	08:07.0	Ventana	34.033	01:06:19:04	8.902		Labidiasteridae	Rathbunaster			Animalia	Forcipulatida	Echinodermata	Rathbunaster californicus	Asteroidea							Eukaryota		V3169-02
 	cruise	Luidia foliolata	92.08	3169	06:17:56:21	 	36.86075	-122.10147	2479153	2.47	25:08.0	Ventana	34.025	01:23:20:22	8.952		Luidiidae	Luidia			Animalia	Platyasterida	Echinodermata	Luidia foliolata	Asteroidea							Eukaryota		V3169-02
 	cruise	Pleuronectiformes	87.15	3169	06:59:08:15	 	36.86843	-122.08457	2480734	2.5	08:46.0	Ventana	34.007	02:06:22:09	9.063	Osteichthyes			Neopterygii		Animalia	Pleuronectiformes	Chordata		Actinopterygii				Vertebrata	Gnathostomata		Eukaryota	Acanthopterygii	V3169-03
 	cruise	Pleuronectiformes	82.73	3169	07:21:12:05	 	36.87252	-122.07555	2483419	2.53	30:51.0	Ventana	33.994	02:28:24:15	9.145	Osteichthyes			Neopterygii		Animalia	Pleuronectiformes	Chordata		Actinopterygii				Vertebrata	Gnathostomata		Eukaryota	Acanthopterygii	V3169-03
 	descend	water	37.6	3169	05:04:44:28	 	36.854015	-122.11537	2476784	5.77	11:31.0	Ventana	33.329	00:10:19:12	11.07																			V3169-01
 	cruise	trench	84.47	3169	07:13:48:03	http://search.mbari.org/ARCHIVE/frameGrabs/Ventana/images/3169/02_21_00_25.jpg	36.871143	-122.07858	20024189	2.52	23:26.0	Ventana	33.997	02:21:00:25	9.124																			V3169-03
 	cruise	Metridium farcimen	78.49	3169	07:38:10:03	 	36.87565	-122.06884	2483652	2.56	47:50.0	Ventana	33.986	02:45:23:07	9.191	Anthozoa	Metridiidae	Metridium			Animalia	Actiniaria	Cnidaria	Metridium farcimen	Hexacorallia			Nyantheae				Eukaryota		V3169-03
 	cruise	Ptilosarcus gurneyi	96.24	3169	05:29:58:26	http://search.mbari.org/ARCHIVE/frameGrabs/Ventana/images/3169/00_35_33_05.jpg	36.85589	-122.11204	2477035	2.36	36:47.0	Ventana	34.04	00:35:33:05	8.85	Anthozoa	Pennatulidae	Ptilosarcus			Animalia	Pennatulacea	Cnidaria	Ptilosarcus gurneyi	Octocorallia			Subselliflorae				Eukaryota		V3169-01
 	cruise	Pleurobranchaea californica	97.37	3169	05:18:02:03	http://search.mbari.org/ARCHIVE/frameGrabs/Ventana/images/3169/00_23_37_02.jpg	36.85423	-122.11556	2476952	2.36	24:49.0	Ventana	34.042	00:23:37:02	8.835	Gastropoda	Pleurobranchidae	Pleurobranchaea			Animalia	Notaspidea	Mollusca	Pleurobranchaea californica	Opisthobranchia						Pleurobranchiacea	Eukaryota		V3169-01
 	cruise	Luidia foliolata	94	3169	05:45:45:13	 	36.85713	-122.107925	2478334	2.39	52:34.0	Ventana	34.036	00:51:20:06	8.881		Luidiidae	Luidia			Animalia	Platyasterida	Echinodermata	Luidia foliolata	Asteroidea							Eukaryota		V3169-01
 	cruise	Metridium farcimen	91.44	3169	06:27:39:03	 	36.86234	-122.09812	2479259	2.5	34:51.0	Ventana	34.021	01:33:03:04	8.976	Anthozoa	Metridiidae	Metridium			Animalia	Actiniaria	Cnidaria	Metridium farcimen	Hexacorallia			Nyantheae				Eukaryota		V3169-02
 	cruise	Phyllospadix	97.92	3169	05:14:55:08	 	36.853874	-122.1166	2476922	2.34	21:42.0	Ventana	34.044	00:20:30:10	8.823		Zosteraceae	Phyllospadix			Plantae	Najadales										Eukaryota		V3169-01
 	cruise	trench	90.75	3169	06:33:56:21	http://search.mbari.org/ARCHIVE/frameGrabs/Ventana/images/3169/01_39_20_09.jpg	36.863445	-122.09568	2479289	2.55	41:09.0	Ventana	34.018	01:39:20:09	8.998																			V3169-02
 	transect	Phyllospadix	94.4	3169	05:41:40:05	 	36.85737	-122.10883	2477478	2.39	48:29.0	Ventana	34.037	00:47:14:11	8.878		Zosteraceae	Phyllospadix			Plantae	Najadales										Eukaryota		V3169-01
 	cruise	Metridium farcimen	77.86	3169	07:40:30:29	 	36.876125	-122.067825	2483675	2.57	50:11.0	Ventana	33.984	02:47:43:13	9.203	Anthozoa	Metridiidae	Metridium			Animalia	Actiniaria	Cnidaria	Metridium farcimen	Hexacorallia			Nyantheae				Eukaryota		V3169-03
 	cruise	Luidia foliolata	87.08	3169	07:00:30:28	 	36.868694	-122.08402	2480757	2.5	10:08.0	Ventana	34.005	02:07:43:22	9.072		Luidiidae	Luidia			Animalia	Platyasterida	Echinodermata	Luidia foliolata	Asteroidea							Eukaryota		V3169-03
 	cruise	Luidia foliolata	92	3169	06:17:36:21	 	36.860683	-122.10161	2479146	2.47	24:48.0	Ventana	34.025	01:23:00:03	8.95		Luidiidae	Luidia			Animalia	Platyasterida	Echinodermata	Luidia foliolata	Asteroidea							Eukaryota		V3169-02
 	cruise	Metridium farcimen	82.43	3169	07:22:14:17	 	36.87273	-122.07516	2483442	2.53	31:53.0	Ventana	33.992	02:29:26:28	9.15	Anthozoa	Metridiidae	Metridium			Animalia	Actiniaria	Cnidaria	Metridium farcimen	Hexacorallia			Nyantheae				Eukaryota		V3169-03
 	cruise	Metridium farcimen	82.25	3169	07:23:22:16	 	36.87298	-122.07468	2483472	2.54	33:01.0	Ventana	33.992	02:30:35:26	9.154	Anthozoa	Metridiidae	Metridium			Animalia	Actiniaria	Cnidaria	Metridium farcimen	Hexacorallia			Nyantheae				Eukaryota		V3169-03
 	cruise	Metridium farcimen	78.89	3169	07:37:10:05	 	36.875378	-122.06943	2483645	2.56	46:49.0	Ventana	33.987	02:44:24:02	9.189	Anthozoa	Metridiidae	Metridium			Animalia	Actiniaria	Cnidaria	Metridium farcimen	Hexacorallia			Nyantheae				Eukaryota		V3169-03
 	cruise	Luidia foliolata	96.57	3169	05:23:55:07	 	36.855125	-122.11367	2477012	2.35	30:43.0	Ventana	34.041	00:29:30:08	8.84		Luidiidae	Luidia			Animalia	Platyasterida	Echinodermata	Luidia foliolata	Asteroidea							Eukaryota		V3169-01
 	cruise	trench	75.61	3169	07:47:22:17	http://search.mbari.org/ARCHIVE/frameGrabs/Ventana/images/3169/02_54_34_23.jpg	36.8776	-122.06475	20024196	2.6	57:03.0	Ventana	33.978	02:54:34:23	9.242																			V3169-03
 	transect	Luidia foliolata	94.78	3169	05:52:06:16	 	36.85677	-122.10886	2478454	2.39	58:56.0	Ventana	34.036	00:57:41:20	8.879		Luidiidae	Luidia			Animalia	Platyasterida	Echinodermata	Luidia foliolata	Asteroidea							Eukaryota		V3169-01
 	cruise	Luidia foliolata	90.25	3169	06:43:07:04	 	36.865044	-122.09228	2480185	2.46	50:20.0	Ventana	34.014	01:48:29:29	9.018		Luidiidae	Luidia			Animalia	Platyasterida	Echinodermata	Luidia foliolata	Asteroidea							Eukaryota		V3169-02
 	cruise	trench	89.67	3169	06:45:47:29	http://search.mbari.org/ARCHIVE/frameGrabs/Ventana/images/3169/01_51_10_07.jpg	36.86543	-122.09116	2480245	2.48	53:01.0	Ventana	34.014	01:51:10:07	9.024																			V3169-02
 	cruise	Metridium farcimen	92.71	3169	06:11:41:02	 	36.85965	-122.103836	2478929	2.45	18:52.0	Ventana	34.028	01:17:05:11	8.931	Anthozoa	Metridiidae	Metridium			Animalia	Actiniaria	Cnidaria	Metridium farcimen	Hexacorallia			Nyantheae				Eukaryota		V3169-02
 	cruise	Ptilosarcus gurneyi	90.38	3169	06:39:09:26	 	36.86433	-122.0937	2479312	2.6	46:23.0	Ventana	34.015	01:44:32:21	9.01	Anthozoa	Pennatulidae	Ptilosarcus			Animalia	Pennatulacea	Cnidaria	Ptilosarcus gurneyi	Octocorallia			Subselliflorae				Eukaryota		V3169-02
 	cruise	Ceriantharia	74.27	3169	07:55:38:06	 	36.878616	-122.06219	2483869	2.61	05:43.0	Ventana	33.972	03:02:39:09	9.283	Anthozoa					Animalia	Ceriantharia	Cnidaria		Ceriantipatharia							Eukaryota		V3169-04
 	cruise	Phyllospadix	86.27	3169	07:05:36:04	 	36.86968	-122.081856	2483163	2.51	15:14.0	Ventana	34.002	02:12:49:03	9.094		Zosteraceae	Phyllospadix			Plantae	Najadales										Eukaryota		V3169-03
 	cruise	Luidia foliolata	94.81	3169	05:54:09:12	 	36.85689	-122.10904	2478493	2.41	00:59.0	Ventana	34.034	00:59:43:08	8.889		Luidiidae	Luidia			Animalia	Platyasterida	Echinodermata	Luidia foliolata	Asteroidea							Eukaryota		V3169-01
 	cruise	Ptilosarcus gurneyi	84.18	3169	07:15:14:15	 	36.87139	-122.07805	2483336	2.52	24:53.0	Ventana	33.997	02:22:27:29	9.127	Anthozoa	Pennatulidae	Ptilosarcus			Animalia	Pennatulacea	Cnidaria	Ptilosarcus gurneyi	Octocorallia			Subselliflorae				Eukaryota		V3169-03
 	cruise	Metridium farcimen	78.14	3169	07:39:34:16	 	36.87592	-122.06829	2483666	2.57	49:14.0	Ventana	33.985	02:46:47:00	9.197	Anthozoa	Metridiidae	Metridium			Animalia	Actiniaria	Cnidaria	Metridium farcimen	Hexacorallia			Nyantheae				Eukaryota		V3169-03
 	cruise	Ceriantharia	74.7	3169	07:51:57:23	 	36.878113	-122.063194	2483809	2.62	01:38.0	Ventana	33.974	02:59:10:19	9.267	Anthozoa					Animalia	Ceriantharia	Cnidaria		Ceriantipatharia							Eukaryota		V3169-03
 	transect	Phyllospadix	94.27	3169	05:42:24:19	http://search.mbari.org/ARCHIVE/frameGrabs/Ventana/images/3169/00_47_58_29.jpg	36.857418	-122.10866	2477522	2.39	49:13.0	Ventana	34.035	00:47:58:29	8.884		Zosteraceae	Phyllospadix			Plantae	Najadales										Eukaryota		V3169-01
 	cruise	mud	97.64	3169	05:10:14:02	 	36.853714	-122.11658	2476846	2.35	17:01.0	Ventana	34.043	00:15:49:12	8.841																			V3169-01
 	cruise	Pleuronectiformes	74.15	3169	07:54:52:07	 	36.878586	-122.06246	2483862	2.63	04:57.0	Ventana	33.972	03:01:53:00	9.288	Osteichthyes			Neopterygii		Animalia	Pleuronectiformes	Chordata		Actinopterygii				Vertebrata	Gnathostomata		Eukaryota	Acanthopterygii	V3169-04
 	cruise	Luidia foliolata	94.68	3169	05:37:32:28	 	36.85708	-122.10946	2477079	2.37	44:21.0	Ventana	34.038	00:43:06:21	8.864		Luidiidae	Luidia			Animalia	Platyasterida	Echinodermata	Luidia foliolata	Asteroidea							Eukaryota		V3169-01
 	transect	Ceriantharia	94.92	3169	05:52:34:29	 	36.856743	-122.10895	2478470	2.4	59:24.0	Ventana	34.035	00:58:08:14	8.885	Anthozoa					Animalia	Ceriantharia	Cnidaria		Ceriantipatharia							Eukaryota		V3169-01
 	cruise	trench	94.66	3169	05:55:13:02	http://search.mbari.org/ARCHIVE/frameGrabs/Ventana/images/3169/01_00_37_11.jpg	36.85721	-122.10903	2478500	2.4	02:23.0	Ventana	34.034	01:00:37:11	8.889																			V3169-02
 	cruise	Laminariales	96.22	3169	05:27:16:15	 	36.855633	-122.11255	2477026	2.36	34:04.0	Ventana	34.04	00:32:50:06	8.85	Phaeophyceae					Chromista	Laminariales	Phaeophycophyta									Eukaryota		V3169-01
 	cruise	Metridium farcimen	84.82	3169	07:11:19:23	 	36.8707	-122.079605	2483283	2.52	20:58.0	Ventana	33.998	02:18:32:27	9.117	Anthozoa	Metridiidae	Metridium			Animalia	Actiniaria	Cnidaria	Metridium farcimen	Hexacorallia			Nyantheae				Eukaryota		V3169-03
 	cruise	Laminariales	77.35	3169	07:41:55:12	 	36.87649	-122.066986	2483689	2.58	51:35.0	Ventana	33.983	02:49:07:18	9.209	Phaeophyceae					Chromista	Laminariales	Phaeophycophyta									Eukaryota		V3169-03
 	transect	Rathbunaster californicus	94.16	3169	05:43:36:16	http://search.mbari.org/ARCHIVE/frameGrabs/Ventana/images/3169/00_49_10_18.jpg	36.85749	-122.108376	2477698	2.39	50:25.0	Ventana	34.036	00:49:10:18	8.881		Labidiasteridae	Rathbunaster			Animalia	Forcipulatida	Echinodermata	Rathbunaster californicus	Asteroidea							Eukaryota		V3169-01
 	transect	Luidia foliolata	94.58	3169	05:50:24:04	 	36.856907	-122.10851	2478404	2.39	57:13.0	Ventana	34.036	00:55:57:27	8.884		Luidiidae	Luidia			Animalia	Platyasterida	Echinodermata	Luidia foliolata	Asteroidea							Eukaryota		V3169-01
 	cruise	Luidia foliolata	78.49	3169	07:38:18:03	 	36.875664	-122.0688	2483654	2.56	47:58.0	Ventana	33.986	02:45:31:14	9.191		Luidiidae	Luidia			Animalia	Platyasterida	Echinodermata	Luidia foliolata	Asteroidea							Eukaryota		V3169-03
 	transect	Ceriantharia	94.54	3169	05:39:51:23	http://search.mbari.org/ARCHIVE/frameGrabs/Ventana/images/3169/00_45_27_05.jpg	36.85719	-122.10925	2477315	2.38	46:40.0	Ventana	34.038	00:45:27:05	8.872	Anthozoa					Animalia	Ceriantharia	Cnidaria		Ceriantipatharia							Eukaryota		V3169-01
 	cruise	Pennatulacea	87.08	3169	06:59:48:29	 	36.868557	-122.08431	2480740	2.5	09:26.0	Ventana	34.005	02:07:02:19	9.069	Anthozoa					Animalia	Pennatulacea	Cnidaria		Octocorallia							Eukaryota		V3169-03
 	cruise	Luidia foliolata	90.04	3169	06:43:03:04	 	36.865036	-122.0923	2480184	2.46	50:16.0	Ventana	34.014	01:48:26:24	9.018		Luidiidae	Luidia			Animalia	Platyasterida	Echinodermata	Luidia foliolata	Asteroidea							Eukaryota		V3169-02
 	transect	Phyllospadix	94.73	3169	05:51:24:17	 	36.85682	-122.1087	2478434	2.39	58:14.0	Ventana	34.037	00:56:59:20	8.882		Zosteraceae	Phyllospadix			Plantae	Najadales										Eukaryota		V3169-01
 	cruise	trench	96.71	3169	05:22:14:25	http://search.mbari.org/ARCHIVE/frameGrabs/Ventana/images/3169/00_27_49_06.jpg	36.854877	-122.11421	2476992	2.35	29:02.0	Ventana	34.043	00:27:49:06	8.838																			V3169-01
 	transect	Rathbunaster californicus	94.27	3169	05:42:24:19	http://search.mbari.org/ARCHIVE/frameGrabs/Ventana/images/3169/00_47_58_29.jpg	36.857418	-122.10866	2477518	2.39	49:13.0	Ventana	34.035	00:47:58:29	8.884		Labidiasteridae	Rathbunaster			Animalia	Forcipulatida	Echinodermata	Rathbunaster californicus	Asteroidea							Eukaryota		V3169-01
 	cruise	Ptilosarcus gurneyi	91.68	3169	06:23:35:25	 	36.86162	-122.09968	2479230	2.47	30:48.0	Ventana	34.022	01:29:00:17	8.966	Anthozoa	Pennatulidae	Ptilosarcus			Animalia	Pennatulacea	Cnidaria	Ptilosarcus gurneyi	Octocorallia			Subselliflorae				Eukaryota		V3169-02
 	cruise	Pleuronectiformes	89.05	3169	06:50:55:05	 	36.86637	-122.08909	2480267	2.45	58:09.0	Ventana	34.011	01:56:18:28	9.038	Osteichthyes			Neopterygii		Animalia	Pleuronectiformes	Chordata		Actinopterygii				Vertebrata	Gnathostomata		Eukaryota	Acanthopterygii	V3169-02
 	cruise	trench	82.38	3169	07:22:40:17	http://search.mbari.org/ARCHIVE/frameGrabs/Ventana/images/3169/02_29_54_09.jpg	36.87289	-122.07485	20024191	2.53	32:19.0	Ventana	33.993	02:29:54:09	9.15																			V3169-03
 	descend	surface water	 	3169	 	 	 	 	2476722	 	 	Ventana	 	00:07:34:21	 																			V3169-01
 	cruise	Laminariales	76.86	3169	07:43:35:24	 	36.87679	-122.06632	2483714	2.59	53:15.0	Ventana	33.981	02:50:48:11	9.22	Phaeophyceae					Chromista	Laminariales	Phaeophycophyta									Eukaryota		V3169-03
 	cruise	Luidia foliolata	84.19	3169	07:14:28:17	 	36.871258	-122.07834	2483324	2.52	24:06.0	Ventana	33.997	02:21:42:06	9.126		Luidiidae	Luidia			Animalia	Platyasterida	Echinodermata	Luidia foliolata	Asteroidea							Eukaryota		V3169-03
 	cruise	Metridium farcimen	79.96	3169	07:32:58:28	 	36.874508	-122.07128	2483587	2.55	42:38.0	Ventana	33.989	02:40:12:15	9.178	Anthozoa	Metridiidae	Metridium			Animalia	Actiniaria	Cnidaria	Metridium farcimen	Hexacorallia			Nyantheae				Eukaryota		V3169-03
 	cruise	Metridium farcimen	86.64	3169	07:02:35:09	http://search.mbari.org/ARCHIVE/frameGrabs/Ventana/images/3169/02_09_48_23.jpg	36.869087	-122.08317	2480793	2.51	12:13.0	Ventana	34.003	02:09:48:23	9.082	Anthozoa	Metridiidae	Metridium			Animalia	Actiniaria	Cnidaria	Metridium farcimen	Hexacorallia			Nyantheae				Eukaryota		V3169-03
 	cruise	Metridium farcimen	78.78	3169	07:37:24:04	 	36.875427	-122.06931	2483647	2.56	47:04.0	Ventana	33.986	02:44:37:20	9.189	Anthozoa	Metridiidae	Metridium			Animalia	Actiniaria	Cnidaria	Metridium farcimen	Hexacorallia			Nyantheae				Eukaryota		V3169-03
 	cruise	trench	97.73	3169	05:16:53:20	http://search.mbari.org/ARCHIVE/frameGrabs/Ventana/images/3169/00_22_28_08.jpg	36.854095	-122.11588	2476939	2.35	23:41.0	Ventana	34.044	00:22:28:08	8.826																			V3169-01
 	cruise	Rathbunaster californicus	96.73	3169	05:22:35:09	 	36.854923	-122.11412	2476999	2.35	29:22.0	Ventana	34.042	00:28:10:06	8.835		Labidiasteridae	Rathbunaster			Animalia	Forcipulatida	Echinodermata	Rathbunaster californicus	Asteroidea							Eukaryota		V3169-01
 	cruise	Rathbunaster californicus	92.95	3169	06:09:24:21	 	36.85923	-122.10473	2478764	2.43	16:35.0	Ventana	34.031	01:14:48:06	8.919		Labidiasteridae	Rathbunaster			Animalia	Forcipulatida	Echinodermata	Rathbunaster californicus	Asteroidea							Eukaryota		V3169-02
 	cruise	Laminariales	90.88	3169	06:33:26:07	 	36.86336	-122.095894	2479283	2.55	40:39.0	Ventana	34.018	01:38:50:29	8.996	Phaeophyceae					Chromista	Laminariales	Phaeophycophyta									Eukaryota		V3169-02
 	cruise	Pleurobranchaea californica	82.47	3169	07:23:39:00	 	36.873024	-122.07459	2483474	2.54	33:17.0	Ventana	33.992	02:30:51:12	9.155	Gastropoda	Pleurobranchidae	Pleurobranchaea			Animalia	Notaspidea	Mollusca	Pleurobranchaea californica	Opisthobranchia						Pleurobranchiacea	Eukaryota		V3169-03
 	cruise	Luidia foliolata	95.11	3169	05:35:18:17	 	36.85675	-122.1102	2477059	2.37	42:07.0	Ventana	34.039	00:40:53:02	8.858		Luidiidae	Luidia			Animalia	Platyasterida	Echinodermata	Luidia foliolata	Asteroidea							Eukaryota		V3169-01
 	cruise	Pennatulacea	77.68	3169	07:40:34:29	 	36.87614	-122.067795	2483677	2.57	50:15.0	Ventana	33.984	02:47:47:24	9.203	Anthozoa					Animalia	Pennatulacea	Cnidaria		Octocorallia							Eukaryota		V3169-03
 	cruise	Metridium farcimen	73.92	3169	07:56:42:19	 	36.8787	-122.06183	2483880	2.62	06:48.0	Ventana	33.971	03:03:43:23	9.286	Anthozoa	Metridiidae	Metridium			Animalia	Actiniaria	Cnidaria	Metridium farcimen	Hexacorallia			Nyantheae				Eukaryota		V3169-04
 	transect	Phyllospadix	94.69	3169	05:51:04:18	 	36.856846	-122.108635	2478420	2.39	57:54.0	Ventana	34.035	00:56:38:21	8.881		Zosteraceae	Phyllospadix			Plantae	Najadales										Eukaryota		V3169-01
 	cruise	Metridium farcimen	80.54	3169	07:31:04:16	 	36.87411	-122.0721	2483548	2.55	40:44.0	Ventana	33.989	02:38:18:19	9.175	Anthozoa	Metridiidae	Metridium			Animalia	Actiniaria	Cnidaria	Metridium farcimen	Hexacorallia			Nyantheae				Eukaryota		V3169-03
 	cruise	Laminariales	86.83	3169	07:02:05:10	 	36.86899	-122.083374	2480784	2.51	11:43.0	Ventana	34.004	02:09:18:22	9.078	Phaeophyceae					Chromista	Laminariales	Phaeophycophyta									Eukaryota		V3169-03
 	cruise	Luidia foliolata	90.12	3169	06:44:13:17	 	36.86516	-122.09185	2480198	2.47	51:26.0	Ventana	34.013	01:49:37:17	9.021		Luidiidae	Luidia			Animalia	Platyasterida	Echinodermata	Luidia foliolata	Asteroidea							Eukaryota		V3169-02
 	cruise	Metridium farcimen	96.81	3169	05:21:22:27	 	36.854748	-122.11448	2476976	2.35	28:10.0	Ventana	34.043	00:26:56:29	8.837	Anthozoa	Metridiidae	Metridium			Animalia	Actiniaria	Cnidaria	Metridium farcimen	Hexacorallia			Nyantheae				Eukaryota		V3169-01
 	cruise	Luidia foliolata	93.23	3169	06:02:20:19	 	36.858288	-122.1067	2478623	2.41	09:31.0	Ventana	34.033	01:07:45:05	8.902		Luidiidae	Luidia			Animalia	Platyasterida	Echinodermata	Luidia foliolata	Asteroidea							Eukaryota		V3169-02
 	cruise	Laminariales	83.01	3169	07:19:39:22	 	36.87222	-122.07617	2483398	2.52	29:18.0	Ventana	33.995	02:26:52:23	9.138	Phaeophyceae					Chromista	Laminariales	Phaeophycophyta									Eukaryota		V3169-03
 	cruise	Metridium farcimen	91.13	3169	06:32:12:09	 	36.863163	-122.09639	2479276	2.54	39:25.0	Ventana	34.018	01:37:36:22	8.993	Anthozoa	Metridiidae	Metridium			Animalia	Actiniaria	Cnidaria	Metridium farcimen	Hexacorallia			Nyantheae				Eukaryota		V3169-02
 	cruise	Rathbunaster californicus	90.59	3169	06:37:35:29	 	36.864044	-122.094284	2479306	2.58	44:48.0	Ventana	34.016	01:43:00:13	9.007		Labidiasteridae	Rathbunaster			Animalia	Forcipulatida	Echinodermata	Rathbunaster californicus	Asteroidea							Eukaryota		V3169-02
 	cruise	Rathbunaster californicus	95.01	3169	05:36:10:15	http://search.mbari.org/ARCHIVE/frameGrabs/Ventana/images/3169/00_41_45_02.jpg	36.85689	-122.10987	2477066	2.36	42:59.0	Ventana	34.04	00:41:45:02	8.856		Labidiasteridae	Rathbunaster			Animalia	Forcipulatida	Echinodermata	Rathbunaster californicus	Asteroidea							Eukaryota		V3169-01
 	cruise	Phyllospadix	81.62	3169	07:26:31:10	 	36.87335	-122.073814	2483495	2.54	36:10.0	Ventana	33.991	02:33:44:06	9.162		Zosteraceae	Phyllospadix			Plantae	Najadales										Eukaryota		V3169-03
 	cruise	Pennatulacea	87.17	3169	07:01:15:11	 	36.86883	-122.083725	2480777	2.51	10:52.0	Ventana	34.005	02:08:29:08	9.075	Anthozoa					Animalia	Pennatulacea	Cnidaria		Octocorallia							Eukaryota		V3169-03
 	cruise	Metridium farcimen	79.4	3169	07:35:47:23	 	36.8751	-122.07004	2483631	2.56	45:27.0	Ventana	33.988	02:43:00:09	9.184	Anthozoa	Metridiidae	Metridium			Animalia	Actiniaria	Cnidaria	Metridium farcimen	Hexacorallia			Nyantheae				Eukaryota		V3169-03
 	cruise	Rathbunaster californicus	97.28	3169	05:18:32:02	 	36.854263	-122.11548	2476953	2.34	25:19.0	Ventana	34.044	00:24:05:18	8.827		Labidiasteridae	Rathbunaster			Animalia	Forcipulatida	Echinodermata	Rathbunaster californicus	Asteroidea							Eukaryota		V3169-01
 	cruise	Luidia foliolata	92.55	3169	06:15:11:26	 	36.860233	-122.10252	2478983	2.46	22:23.0	Ventana	34.027	01:20:36:16	8.941		Luidiidae	Luidia			Animalia	Platyasterida	Echinodermata	Luidia foliolata	Asteroidea							Eukaryota		V3169-02
 	cruise	Luidia foliolata	93.37	3169	06:02:46:18	 	36.85839	-122.106514	2478630	2.41	09:57.0	Ventana	34.033	01:08:10:01	8.903		Luidiidae	Luidia			Animalia	Platyasterida	Echinodermata	Luidia foliolata	Asteroidea							Eukaryota		V3169-02
 	cruise	Metridium farcimen	87.15	3169	06:59:52:29	http://search.mbari.org/ARCHIVE/frameGrabs/Ventana/images/3169/02_07_06_00.jpg	36.86857	-122.08429	2480747	2.5	09:30.0	Ventana	34.005	02:07:06:00	9.069	Anthozoa	Metridiidae	Metridium			Animalia	Actiniaria	Cnidaria	Metridium farcimen	Hexacorallia			Nyantheae				Eukaryota		V3169-03
 	cruise	Phyllospadix	75.68	3169	07:46:52:18	 	36.8775	-122.06494	2483751	2.6	56:32.0	Ventana	33.978	02:54:05:01	9.24		Zosteraceae	Phyllospadix			Plantae	Najadales										Eukaryota		V3169-03
 	cruise	Metridium farcimen	94.95	3169	05:36:58:28	 	36.85701	-122.1096	2477073	2.37	43:47.0	Ventana	34.039	00:42:33:01	8.861	Anthozoa	Metridiidae	Metridium			Animalia	Actiniaria	Cnidaria	Metridium farcimen	Hexacorallia			Nyantheae				Eukaryota		V3169-01
 	cruise	Metridium farcimen	93.16	3169	06:04:05:01	 	36.85862	-122.10614	2478660	2.42	11:16.0	Ventana	34.033	01:09:28:14	8.906	Anthozoa	Metridiidae	Metridium			Animalia	Actiniaria	Cnidaria	Metridium farcimen	Hexacorallia			Nyantheae				Eukaryota		V3169-02
 	cruise	Metridium farcimen	78.36	3169	07:38:46:17	 	36.875748	-122.06864	2483661	2.57	48:26.0	Ventana	33.986	02:45:58:26	9.193	Anthozoa	Metridiidae	Metridium			Animalia	Actiniaria	Cnidaria	Metridium farcimen	Hexacorallia			Nyantheae				Eukaryota		V3169-03
 	cruise	mud	95.78	3169	05:31:57:22	 	36.856194	-122.11137	2477043	2.36	38:45.0	Ventana	34.039	00:37:31:01	8.858																			V3169-01
 	cruise	Metridium farcimen	91.02	3169	06:30:43:27	 	36.862904	-122.09694	2479269	2.53	37:56.0	Ventana	34.019	01:36:07:13	8.989	Anthozoa	Metridiidae	Metridium			Animalia	Actiniaria	Cnidaria	Metridium farcimen	Hexacorallia			Nyantheae				Eukaryota		V3169-02
 	cruise	Metridium farcimen	77.68	3169	07:41:10:28	 	36.876266	-122.06748	2483686	2.58	50:51.0	Ventana	33.984	02:48:24:02	9.206	Anthozoa	Metridiidae	Metridium			Animalia	Actiniaria	Cnidaria	Metridium farcimen	Hexacorallia			Nyantheae				Eukaryota		V3169-03
 	cruise	Phyllospadix	87.24	3169	06:59:37:00	 	36.86852	-122.08439	2480738	2.5	09:14.0	Ventana	34.006	02:06:49:18	9.066		Zosteraceae	Phyllospadix			Plantae	Najadales										Eukaryota		V3169-03
 	cruise	mud	96.89	3169	05:09:09:19	 	36.85367	-122.116234	2476810	2.4	15:56.0	Ventana	34.034	00:14:45:01	8.878																			V3169-01
 	cruise	trench	81.46	3169	07:27:53:22	http://search.mbari.org/ARCHIVE/frameGrabs/Ventana/images/3169/02_35_06_14.jpg	36.87352	-122.073494	20024193	2.54	37:33.0	Ventana	33.99	02:35:06:14	9.166																			V3169-03
 	cruise	Luidia foliolata	96.47	3169	05:26:56:01	 	36.855587	-122.11265	2477024	2.36	33:44.0	Ventana	34.041	00:32:30:19	8.85		Luidiidae	Luidia			Animalia	Platyasterida	Echinodermata	Luidia foliolata	Asteroidea							Eukaryota		V3169-01
 	cruise	Ceriantharia	87.94	3169	 	 	36.867737	-122.08606	2480295	2.49	05:17.0	Ventana	34.008	02:03:27:11	9.052	Anthozoa					Animalia	Ceriantharia	Cnidaria		Ceriantipatharia							Eukaryota		V3169-02
 	transect	Phyllospadix	94.19	3169	05:48:03:23	 	36.857033	-122.108116	2478353	2.39	54:53.0	Ventana	34.036	00:53:39:06	8.883		Zosteraceae	Phyllospadix			Plantae	Najadales										Eukaryota		V3169-01
 	cruise	Pleurobranchaea californica	75.91	3169	07:46:24:04	 	36.8774	-122.065125	2483746	2.6	56:04.0	Ventana	33.979	02:53:37:27	9.238	Gastropoda	Pleurobranchidae	Pleurobranchaea			Animalia	Notaspidea	Mollusca	Pleurobranchaea californica	Opisthobranchia						Pleurobranchiacea	Eukaryota		V3169-03
 	cruise	Luidia foliolata	91.24	3169	06:28:49:15	 	36.86256	-122.097694	2479262	2.52	36:01.0	Ventana	34.02	01:34:13:16	8.981		Luidiidae	Luidia			Animalia	Platyasterida	Echinodermata	Luidia foliolata	Asteroidea							Eukaryota		V3169-02
 	cruise	Metridium farcimen	97.73	3169	05:16:53:20	http://search.mbari.org/ARCHIVE/frameGrabs/Ventana/images/3169/00_22_28_08.jpg	36.854095	-122.11588	2476941	2.35	23:41.0	Ventana	34.044	00:22:28:08	8.826	Anthozoa	Metridiidae	Metridium			Animalia	Actiniaria	Cnidaria	Metridium farcimen	Hexacorallia			Nyantheae				Eukaryota		V3169-01
 	cruise	Pleuronectiformes	94.6	3169	05:55:43:01	 	36.85726	-122.10892	2478503	2.4	02:53.0	Ventana	34.035	01:01:06:00	8.889	Osteichthyes			Neopterygii		Animalia	Pleuronectiformes	Chordata		Actinopterygii				Vertebrata	Gnathostomata		Eukaryota	Acanthopterygii	V3169-02
 	cruise	trench	97.67	3169	05:12:44:28	http://search.mbari.org/ARCHIVE/frameGrabs/Ventana/images/3169/00_18_17_28.jpg	36.853783	-122.11696	20024170	2.34	19:32.0	Ventana	34.043	00:18:17:28	8.824																			V3169-01
 	cruise	trench	90.64	3169	06:39:48:10	http://search.mbari.org/ARCHIVE/frameGrabs/Ventana/images/3169/01_45_12_12.jpg	36.864445	-122.09345	2479315	2.61	47:01.0	Ventana	34.015	01:45:12:12	9.01																			V3169-02
 	cruise	Pleuronectiformes	73.8	3169	07:57:02:19	 	36.87874	-122.06174	2483882	2.63	07:08.0	Ventana	33.971	03:04:04:09	9.289	Osteichthyes			Neopterygii		Animalia	Pleuronectiformes	Chordata		Actinopterygii				Vertebrata	Gnathostomata		Eukaryota	Acanthopterygii	V3169-04
 	cruise	Laminariales	75.52	3169	07:48:23:00	 	36.877735	-122.06438	2483769	2.61	58:03.0	Ventana	33.976	02:55:36:19	9.25	Phaeophyceae					Chromista	Laminariales	Phaeophycophyta									Eukaryota		V3169-03
 	cruise	trench	97.88	3169	05:14:31:10	http://search.mbari.org/ARCHIVE/frameGrabs/Ventana/images/3169/00_20_04_10.jpg	36.85383	-122.11674	2476918	2.35	21:18.0	Ventana	34.043	00:20:04:10	8.829																			V3169-01
 	cruise	surface water	 	3169	 	 	 	 	2483942	 	 	Ventana	 	03:22:21:26	 																			V3169-04
 	cruise	Pleurobranchaea californica	96.07	3169	05:30:25:10	 	36.855953	-122.1119	2477038	2.36	37:13.0	Ventana	34.04	00:35:58:28	8.849	Gastropoda	Pleurobranchidae	Pleurobranchaea			Animalia	Notaspidea	Mollusca	Pleurobranchaea californica	Opisthobranchia						Pleurobranchiacea	Eukaryota		V3169-01
 	endtransect	trench	93.08	3169	06:04:07:01	http://search.mbari.org/ARCHIVE/frameGrabs/Ventana/images/3169/01_09_30_09.jpg	36.858624	-122.10613	20024179	2.42	11:18.0	Ventana	34.033	01:09:30:09	8.906																			V3169-02
 	transect	Phyllospadix	94.76	3169	05:52:02:16	 	36.856777	-122.10883	2478452	2.39	58:52.0	Ventana	34.036	00:57:37:24	8.88		Zosteraceae	Phyllospadix			Plantae	Najadales										Eukaryota		V3169-01
 	cruise	mud	94.88	3169	05:52:48:29	 	36.856735	-122.108986	2478482	2.39	59:38.0	Ventana	34.034	00:58:23:22	8.888																			V3169-01
 	cruise	Metridium farcimen	75.64	3169	07:47:36:16	 	36.8777	-122.06455	2483760	2.6	57:17.0	Ventana	33.978	02:54:50:04	9.243	Anthozoa	Metridiidae	Metridium			Animalia	Actiniaria	Cnidaria	Metridium farcimen	Hexacorallia			Nyantheae				Eukaryota		V3169-03
 	cruise	Laminariales	91	3169	06:32:34:08	 	36.86322	-122.096245	2479278	2.55	39:47.0	Ventana	34.018	01:37:57:12	8.994	Phaeophyceae					Chromista	Laminariales	Phaeophycophyta									Eukaryota		V3169-02
 	cruise	Pleuronectiformes	89.7	3169	06:46:49:27	 	36.86563	-122.09077	2480249	1.43	54:03.0	Ventana	34.025	01:52:14:11	9.026	Osteichthyes			Neopterygii		Animalia	Pleuronectiformes	Chordata		Actinopterygii				Vertebrata	Gnathostomata		Eukaryota	Acanthopterygii	V3169-02
 	cruise	Metridium farcimen	86.14	3169	07:05:38:03	http://search.mbari.org/ARCHIVE/frameGrabs/Ventana/images/3169/02_12_50_25.jpg	36.869682	-122.08184	2483167	2.51	15:16.0	Ventana	34.002	02:12:50:25	9.094	Anthozoa	Metridiidae	Metridium			Animalia	Actiniaria	Cnidaria	Metridium farcimen	Hexacorallia			Nyantheae				Eukaryota		V3169-03
 	cruise	Luidia foliolata	96.55	3169	05:24:17:21	 	36.85518	-122.11355	2477015	2.35	31:05.0	Ventana	34.042	00:29:51:08	8.84		Luidiidae	Luidia			Animalia	Platyasterida	Echinodermata	Luidia foliolata	Asteroidea							Eukaryota		V3169-01
 	cruise	Pleurobranchaea californica	95.69	3169	05:32:07:22	 	36.85622	-122.111305	2477045	2.37	38:56.0	Ventana	34.039	00:37:42:13	8.861	Gastropoda	Pleurobranchidae	Pleurobranchaea			Animalia	Notaspidea	Mollusca	Pleurobranchaea californica	Opisthobranchia						Pleurobranchiacea	Eukaryota		V3169-01
 	cruise	trench	89.36	3169	06:48:02:10	http://search.mbari.org/ARCHIVE/frameGrabs/Ventana/images/3169/01_53_26_17.jpg	36.86585	-122.09024	2480256	2.43	55:16.0	Ventana	34.012	01:53:26:17	9.03																			V3169-02
 	cruise	Metridium farcimen	84.69	3169	07:12:01:22	http://search.mbari.org/ARCHIVE/frameGrabs/Ventana/images/3169/02_19_15_09.jpg	36.870827	-122.079346	2483294	2.52	21:40.0	Ventana	33.997	02:19:15:09	9.121	Anthozoa	Metridiidae	Metridium			Animalia	Actiniaria	Cnidaria	Metridium farcimen	Hexacorallia			Nyantheae				Eukaryota		V3169-03
 	cruise	trench	86.35	3169	07:03:53:21	http://search.mbari.org/ARCHIVE/frameGrabs/Ventana/images/3169/02_11_07_13.jpg	36.869366	-122.08256	20024186	2.51	13:31.0	Ventana	34.002	02:11:07:13	9.086																			V3169-03
 	cruise	Metridium farcimen	79.03	3169	07:35:57:22	 	36.87513	-122.06997	2483633	2.56	45:37.0	Ventana	33.988	02:43:10:05	9.184	Anthozoa	Metridiidae	Metridium			Animalia	Actiniaria	Cnidaria	Metridium farcimen	Hexacorallia			Nyantheae				Eukaryota		V3169-03
 	cruise	trench	74.43	3169	07:52:39:22	http://search.mbari.org/ARCHIVE/frameGrabs/Ventana/images/3169/02_59_52_19.jpg	36.878216	-122.06301	2483813	2.62	02:20.0	Ventana	33.974	02:59:52:19	9.27																			V3169-03
 	cruise	Metridium farcimen	75.67	3169	07:47:08:17	 	36.87756	-122.064835	2483753	2.6	56:49.0	Ventana	33.978	02:54:21:14	9.241	Anthozoa	Metridiidae	Metridium			Animalia	Actiniaria	Cnidaria	Metridium farcimen	Hexacorallia			Nyantheae				Eukaryota		V3169-03
 	transect	Luidia foliolata	94.47	3169	05:48:55:21	http://search.mbari.org/ARCHIVE/frameGrabs/Ventana/images/3169/00_54_31_00.jpg	36.85699	-122.108246	2478376	2.39	55:45.0	Ventana	34.037	00:54:31:00	8.884		Luidiidae	Luidia			Animalia	Platyasterida	Echinodermata	Luidia foliolata	Asteroidea							Eukaryota		V3169-01
 	cruise	Luidia foliolata	86.6	3169	07:03:29:22	 	36.869328	-122.08264	2480805	2.51	13:07.0	Ventana	34.003	02:10:43:15	9.085		Luidiidae	Luidia			Animalia	Platyasterida	Echinodermata	Luidia foliolata	Asteroidea							Eukaryota		V3169-03
 	cruise	trench	94.72	3169	05:37:06:28	http://search.mbari.org/ARCHIVE/frameGrabs/Ventana/images/3169/00_42_41_03.jpg	36.857025	-122.10956	2477075	2.37	43:55.0	Ventana	34.039	00:42:41:03	8.864																			V3169-01
 	cruise	Phyllospadix	83.95	3169	07:15:56:29	 	36.871513	-122.07779	2483347	2.52	25:35.0	Ventana	33.997	02:23:09:06	9.128		Zosteraceae	Phyllospadix			Plantae	Najadales										Eukaryota		V3169-03
 	cruise	Osteichthyes	89.82	3169	06:45:03:16	 	36.86533	-122.091385	2480226	2.47	52:17.0	Ventana	34.013	01:50:27:12	9.023	Osteichthyes					Animalia		Chordata						Vertebrata	Gnathostomata		Eukaryota		V3169-02
 	cruise	Pleuronectiformes	91.61	3169	06:25:22:07	 	36.861946	-122.099045	2479249	2.48	32:34.0	Ventana	34.022	01:30:46:28	8.971	Osteichthyes			Neopterygii		Animalia	Pleuronectiformes	Chordata		Actinopterygii				Vertebrata	Gnathostomata		Eukaryota	Acanthopterygii	V3169-02
 	cruise	trench	78.62	3169	07:38:24:03	http://search.mbari.org/ARCHIVE/frameGrabs/Ventana/images/3169/02_45_36_10.jpg	36.87568	-122.06877	20024195	2.56	48:04.0	Ventana	33.986	02:45:36:10	9.191																			V3169-03
 	cruise	Osteichthyes	97.66	3169	05:10:02:03	http://search.mbari.org/ARCHIVE/frameGrabs/Ventana/images/3169/00_15_36_19.jpg	36.853706	-122.116516	2476838	2.35	16:49.0	Ventana	34.044	00:15:36:19	8.824	Osteichthyes					Animalia		Chordata						Vertebrata	Gnathostomata		Eukaryota		V3169-01
 	cruise	Pleurobranchaea californica	83.07	3169	07:19:29:23	 	36.87219	-122.07623	2483395	2.52	29:08.0	Ventana	33.995	02:26:43:18	9.138	Gastropoda	Pleurobranchidae	Pleurobranchaea			Animalia	Notaspidea	Mollusca	Pleurobranchaea californica	Opisthobranchia						Pleurobranchiacea	Eukaryota		V3169-03
 	cruise	Metridium farcimen	74.63	3169	07:51:49:24	 	36.878094	-122.06323	2483808	2.62	01:30.0	Ventana	33.974	02:59:03:14	9.267	Anthozoa	Metridiidae	Metridium			Animalia	Actiniaria	Cnidaria	Metridium farcimen	Hexacorallia			Nyantheae				Eukaryota		V3169-03
 	cruise	Luidia foliolata	91	3169	06:32:38:09	 	36.86323	-122.096214	2479279	2.55	39:51.0	Ventana	34.018	01:38:02:07	8.994		Luidiidae	Luidia			Animalia	Platyasterida	Echinodermata	Luidia foliolata	Asteroidea							Eukaryota		V3169-02
 	cruise	Metridium farcimen	92.72	3169	06:11:17:03	 	36.859577	-122.10399	2478926	2.45	18:28.0	Ventana	34.028	01:16:41:14	8.929	Anthozoa	Metridiidae	Metridium			Animalia	Actiniaria	Cnidaria	Metridium farcimen	Hexacorallia			Nyantheae				Eukaryota		V3169-02
 	cruise	Ceriantharia	75.68	3169	07:46:38:18	 	36.87745	-122.06503	2483748	2.6	56:18.0	Ventana	33.979	02:53:51:15	9.24	Anthozoa					Animalia	Ceriantharia	Cnidaria		Ceriantipatharia							Eukaryota		V3169-03
 	cruise	Metridium farcimen	76.6	3169	07:44:25:23	 	36.876972	-122.065926	2483718	2.59	54:06.0	Ventana	33.981	02:51:38:11	9.223	Anthozoa	Metridiidae	Metridium			Animalia	Actiniaria	Cnidaria	Metridium farcimen	Hexacorallia			Nyantheae				Eukaryota		V3169-03
 	cruise	Metridium farcimen	74.15	3169	07:55:32:06	 	36.878616	-122.06222	2483868	2.61	05:37.0	Ventana	33.972	03:02:32:11	9.283	Anthozoa	Metridiidae	Metridium			Animalia	Actiniaria	Cnidaria	Metridium farcimen	Hexacorallia			Nyantheae				Eukaryota		V3169-04
 	cruise	trench	80.17	3169	07:32:12:29	http://search.mbari.org/ARCHIVE/frameGrabs/Ventana/images/3169/02_39_26_24.jpg	36.874348	-122.07161	2483575	2.55	41:52.0	Ventana	33.989	02:39:26:24	9.175																			V3169-03
 	transect	Pennatulacea	94.63	3169	05:39:35:24	http://search.mbari.org/ARCHIVE/frameGrabs/Ventana/images/3169/00_45_09_21.jpg	36.85718	-122.10926	2477304	2.38	46:24.0	Ventana	34.036	00:45:09:21	8.873	Anthozoa					Animalia	Pennatulacea	Cnidaria		Octocorallia							Eukaryota		V3169-01
 	cruise	Phyllospadix	90.37	3169	06:43:13:04	 	36.865055	-122.09224	2480188	2.46	50:26.0	Ventana	34.014	01:48:36:05	9.018		Zosteraceae	Phyllospadix			Plantae	Najadales										Eukaryota		V3169-02
 	transect	Phyllospadix	94.43	3169	05:40:44:07	 	36.8573	-122.109	2477364	2.38	47:33.0	Ventana	34.038	00:46:18:29	8.875		Zosteraceae	Phyllospadix			Plantae	Najadales										Eukaryota		V3169-01
 	cruise	Luidia foliolata	90.52	3169	06:38:07:28	 	36.864147	-122.094086	2479309	2.58	45:21.0	Ventana	34.016	01:43:32:12	9.007		Luidiidae	Luidia			Animalia	Platyasterida	Echinodermata	Luidia foliolata	Asteroidea							Eukaryota		V3169-02
 	cruise	Metridium farcimen	91.18	3169	06:31:25:26	 	36.863026	-122.09668	2479272	2.54	38:38.0	Ventana	34.018	01:36:48:21	8.991	Anthozoa	Metridiidae	Metridium			Animalia	Actiniaria	Cnidaria	Metridium farcimen	Hexacorallia			Nyantheae				Eukaryota		V3169-02
 	cruise	trench	96.01	3169	05:27:52:15	http://search.mbari.org/ARCHIVE/frameGrabs/Ventana/images/3169/00_33_27_00.jpg	36.855713	-122.11239	20024172	2.36	34:40.0	Ventana	34.04	00:33:27:00	8.847																			V3169-01
 	cruise	Pleuronectiformes	84.05	3169	07:15:36:15	 	36.871452	-122.07791	2483342	2.52	25:15.0	Ventana	33.997	02:22:50:17	9.127	Osteichthyes			Neopterygii		Animalia	Pleuronectiformes	Chordata		Actinopterygii				Vertebrata	Gnathostomata		Eukaryota	Acanthopterygii	V3169-03
 	cruise	Pleuronectiformes	88.35	3169	06:56:06:10	 	36.86736	-122.08687	2480285	2.49	03:20.0	Ventana	34.009	02:01:29:11	9.047	Osteichthyes			Neopterygii		Animalia	Pleuronectiformes	Chordata		Actinopterygii				Vertebrata	Gnathostomata		Eukaryota	Acanthopterygii	V3169-02
 	cruise	Luidia foliolata	97.16	3169	05:20:38:13	http://search.mbari.org/ARCHIVE/frameGrabs/Ventana/images/3169/00_26_12_28.jpg	36.85463	-122.11473	2476965	2.35	27:26.0	Ventana	34.043	00:26:12:28	8.836		Luidiidae	Luidia			Animalia	Platyasterida	Echinodermata	Luidia foliolata	Asteroidea							Eukaryota		V3169-01
 	cruise	Rathbunaster californicus	85.34	3169	07:08:56:27	http://search.mbari.org/ARCHIVE/frameGrabs/Ventana/images/3169/02_16_09_20.jpg	36.870274	-122.080536	2483252	2.52	18:35.0	Ventana	34	02:16:09:20	9.109		Labidiasteridae	Rathbunaster			Animalia	Forcipulatida	Echinodermata	Rathbunaster californicus	Asteroidea							Eukaryota		V3169-03
 	cruise	Luidia foliolata	79.99	3169	07:33:08:27	http://search.mbari.org/ARCHIVE/frameGrabs/Ventana/images/3169/02_40_21_17.jpg	36.87454	-122.071205	2483598	2.55	42:48.0	Ventana	33.989	02:40:21:17	9.178		Luidiidae	Luidia			Animalia	Platyasterida	Echinodermata	Luidia foliolata	Asteroidea							Eukaryota		V3169-03
 	cruise	Metridium farcimen	96.77	3169	05:22:20:25	 	36.854893	-122.11418	2476995	2.35	29:08.0	Ventana	34.042	00:27:55:29	8.835	Anthozoa	Metridiidae	Metridium			Animalia	Actiniaria	Cnidaria	Metridium farcimen	Hexacorallia			Nyantheae				Eukaryota		V3169-01
 	cruise	Luidia foliolata	89.11	3169	06:49:20:23	 	36.86608	-122.08969	2480262	2.44	56:34.0	Ventana	34.011	01:54:44:19	9.034		Luidiidae	Luidia			Animalia	Platyasterida	Echinodermata	Luidia foliolata	Asteroidea							Eukaryota		V3169-02
 	cruise	Metridium farcimen	75.04	3169	07:50:09:12	 	36.877884	-122.06378	2483792	2.61	59:49.0	Ventana	33.976	02:57:22:07	9.258	Anthozoa	Metridiidae	Metridium			Animalia	Actiniaria	Cnidaria	Metridium farcimen	Hexacorallia			Nyantheae				Eukaryota		V3169-03
 	cruise	mud	94.07	3169	05:44:21:00	 	36.8575	-122.10823	2478326	2.4	51:10.0	Ventana	34.035	00:49:55:12	8.886																			V3169-01
 	cruise	Laminariales	74.29	3169	07:54:42:08	 	36.87858	-122.06251	2483822	2.63	04:47.0	Ventana	33.971	03:01:41:13	9.283	Phaeophyceae					Chromista	Laminariales	Phaeophycophyta									Eukaryota		V3169-03
 	cruise	Ceriantharia	77.72	3169	07:40:11:00	 	36.876053	-122.068	2483672	2.57	49:50.0	Ventana	33.985	02:47:25:02	9.2	Anthozoa					Animalia	Ceriantharia	Cnidaria		Ceriantipatharia							Eukaryota		V3169-03
 	cruise	Rathbunaster californicus	92.8	3169	06:05:59:12	 	36.8589	-122.10549	2478709	2.42	13:10.0	Ventana	34.032	01:11:23:15	8.909		Labidiasteridae	Rathbunaster			Animalia	Forcipulatida	Echinodermata	Rathbunaster californicus	Asteroidea							Eukaryota		V3169-02
 	cruise	Metridium farcimen	87.16	3169	06:59:24:15	 	36.868484	-122.08447	2480735	2.5	09:02.0	Ventana	34.006	02:06:36:22	9.065	Anthozoa	Metridiidae	Metridium			Animalia	Actiniaria	Cnidaria	Metridium farcimen	Hexacorallia			Nyantheae				Eukaryota		V3169-03
 	descend	surface water	 	3169	 	 	 	 	2476704	 	 	Ventana	 	00:06:39:02	 																			V3169-01
 	transect	Phyllospadix	94.85	3169	05:51:58:16	 	36.85678	-122.10882	2478446	2.39	58:48.0	Ventana	34.036	00:57:33:24	8.88		Zosteraceae	Phyllospadix			Plantae	Najadales										Eukaryota		V3169-01
 	transect	Phyllospadix	94.45	3169	05:40:15:22	 	36.857273	-122.10907	2477348	2.38	47:04.0	Ventana	34.037	00:45:50:03	8.874		Zosteraceae	Phyllospadix			Plantae	Najadales										Eukaryota		V3169-01
 	cruise	Euphotic zone	19.57	3169	08:05:51:02	 	36.879597	-122.062195	2483935	5.48	15:56.0	Ventana	33.342	03:12:52:28	11.129																			V3169-04
 	cruise	Metridium farcimen	85.62	3169	07:08:02:29	 	36.870125	-122.08087	2483229	2.51	17:41.0	Ventana	33.999	02:15:15:29	9.108	Anthozoa	Metridiidae	Metridium			Animalia	Actiniaria	Cnidaria	Metridium farcimen	Hexacorallia			Nyantheae				Eukaryota		V3169-03
 	cruise	trench	85.46	3169	07:08:46:28	http://search.mbari.org/ARCHIVE/frameGrabs/Ventana/images/3169/02_16_00_19.jpg	36.870247	-122.080605	20024188	2.52	18:25.0	Ventana	34	02:16:00:19	9.109																			V3169-03
 	cruise	Luidia foliolata	87.66	3169	 	 	36.867966	-122.085594	2480299	2.49	06:29.0	Ventana	34.007	02:04:39:23	9.056		Luidiidae	Luidia			Animalia	Platyasterida	Echinodermata	Luidia foliolata	Asteroidea							Eukaryota		V3169-02
 	cruise	Ptilosarcus gurneyi	96.23	3169	05:29:36:26	 	36.855843	-122.112114	2477032	2.36	36:25.0	Ventana	34.04	00:35:12:03	8.853	Anthozoa	Pennatulidae	Ptilosarcus			Animalia	Pennatulacea	Cnidaria	Ptilosarcus gurneyi	Octocorallia			Subselliflorae				Eukaryota		V3169-01
 	cruise	Metridium farcimen	95.1	3169	05:35:36:16	 	36.856796	-122.110085	2477062	2.36	42:25.0	Ventana	34.039	00:41:11:12	8.858	Anthozoa	Metridiidae	Metridium			Animalia	Actiniaria	Cnidaria	Metridium farcimen	Hexacorallia			Nyantheae				Eukaryota		V3169-01
 	cruise	Metridium farcimen	84.75	3169	07:12:17:21	 	36.870872	-122.07924	2483296	2.52	21:56.0	Ventana	33.998	02:19:31:11	9.12	Anthozoa	Metridiidae	Metridium			Animalia	Actiniaria	Cnidaria	Metridium farcimen	Hexacorallia			Nyantheae				Eukaryota		V3169-03
 	cruise	sediment	92.9	3169	06:09:36:20	 	36.859264	-122.10465	2478769	2.44	16:48.0	Ventana	34.031	01:15:00:23	8.923																			V3169-02
 	transect	Phyllospadix	94.13	3169	05:43:12:17	 	36.857468	-122.10847	2477671	2.39	50:01.0	Ventana	34.036	00:48:47:01	8.879		Zosteraceae	Phyllospadix			Plantae	Najadales										Eukaryota		V3169-01
 	cruise	Laminariales	79.83	3169	07:34:01:11	 	36.874817	-122.07062	2483612	2.55	43:40.0	Ventana	33.989	02:41:15:09	9.179	Phaeophyceae					Chromista	Laminariales	Phaeophycophyta									Eukaryota		V3169-03
 	descend	water	11.63	3169	05:03:04:16	 	36.853985	-122.11539	2476727	6.05	09:51.0	Ventana	33.199	00:08:38:16	10.987																			V3169-01
 	transect	Rathbunaster californicus	94.5	3169	05:40:25:22	http://search.mbari.org/ARCHIVE/frameGrabs/Ventana/images/3169/00_46_00_18.jpg	36.85728	-122.10905	2477355	2.38	47:14.0	Ventana	34.037	00:46:00:18	8.874		Labidiasteridae	Rathbunaster			Animalia	Forcipulatida	Echinodermata	Rathbunaster californicus	Asteroidea							Eukaryota		V3169-01
 	transect	Metridium farcimen	94.24	3169	05:42:26:18	http://search.mbari.org/ARCHIVE/frameGrabs/Ventana/images/3169/00_48_01_07.jpg	36.857418	-122.10865	2477528	2.39	49:15.0	Ventana	34.035	00:48:01:07	8.884	Anthozoa	Metridiidae	Metridium			Animalia	Actiniaria	Cnidaria	Metridium farcimen	Hexacorallia			Nyantheae				Eukaryota		V3169-01
 	cruise	Pleuronectiformes	90.07	3169	06:42:51:04	 	36.86501	-122.09237	2480179	2.46	50:04.0	Ventana	34.014	01:48:15:01	9.018	Osteichthyes			Neopterygii		Animalia	Pleuronectiformes	Chordata		Actinopterygii				Vertebrata	Gnathostomata		Eukaryota	Acanthopterygii	V3169-02
 	cruise	Metridium farcimen	80.13	3169	07:32:50:28	 	36.87448	-122.071335	2483582	2.55	42:30.0	Ventana	33.988	02:40:03:22	9.177	Anthozoa	Metridiidae	Metridium			Animalia	Actiniaria	Cnidaria	Metridium farcimen	Hexacorallia			Nyantheae				Eukaryota		V3169-03
 	cruise	Pleuronectiformes	90.6	3169	06:38:31:28	 	36.864223	-122.09394	2479311	2.59	45:45.0	Ventana	34.016	01:43:55:12	9.007	Osteichthyes			Neopterygii		Animalia	Pleuronectiformes	Chordata		Actinopterygii				Vertebrata	Gnathostomata		Eukaryota	Acanthopterygii	V3169-02
 	cruise	Laminariales	80.26	3169	07:32:30:29	 	36.874413	-122.07148	2483577	2.55	42:10.0	Ventana	33.989	02:39:44:14	9.177	Phaeophyceae					Chromista	Laminariales	Phaeophycophyta									Eukaryota		V3169-03
 	cruise	trench	93.45	3169	05:59:46:09	http://search.mbari.org/ARCHIVE/frameGrabs/Ventana/images/3169/01_05_09_27.jpg	36.85801	-122.107376	2478545	2.42	06:56.0	Ventana	34.033	01:05:09:27	8.901																			V3169-02
 	cruise	mud	95	3169	05:53:43:13	 	36.85682	-122.10903	2478492	2.41	00:32.0	Ventana	34.035	00:59:16:26	8.892																			V3169-01
 	cruise	Osteichthyes	94.77	3169	05:37:42:27	 	36.857094	-122.10943	2477080	2.37	44:31.0	Ventana	34.039	00:43:17:06	8.865	Osteichthyes					Animalia		Chordata						Vertebrata	Gnathostomata		Eukaryota		V3169-01
 	cruise	Metridium farcimen	79.28	3169	07:36:15:22	 	36.875195	-122.069824	2483637	2.56	45:55.0	Ventana	33.986	02:43:29:05	9.187	Anthozoa	Metridiidae	Metridium			Animalia	Actiniaria	Cnidaria	Metridium farcimen	Hexacorallia			Nyantheae				Eukaryota		V3169-03
 	cruise	Luidia foliolata	92.52	3169	06:12:09:01	 	36.85973	-122.10366	2478935	2.45	19:20.0	Ventana	34.027	01:17:32:26	8.936		Luidiidae	Luidia			Animalia	Platyasterida	Echinodermata	Luidia foliolata	Asteroidea							Eukaryota		V3169-02
 	cruise	Luidia foliolata	89.39	3169	06:47:22:11	 	36.86573	-122.090546	2480253	2.43	54:35.0	Ventana	34.012	01:52:45:26	9.029		Luidiidae	Luidia			Animalia	Platyasterida	Echinodermata	Luidia foliolata	Asteroidea							Eukaryota		V3169-02
 	cruise	Ptilosarcus gurneyi	86.64	3169	07:02:35:09	http://search.mbari.org/ARCHIVE/frameGrabs/Ventana/images/3169/02_09_48_23.jpg	36.869087	-122.08317	2480795	2.51	12:13.0	Ventana	34.003	02:09:48:23	9.082	Anthozoa	Pennatulidae	Ptilosarcus			Animalia	Pennatulacea	Cnidaria	Ptilosarcus gurneyi	Octocorallia			Subselliflorae				Eukaryota		V3169-03
 	cruise	Ptilosarcus gurneyi	97.78	3169	05:16:23:21	 	36.85404	-122.116066	2476937	2.36	23:11.0	Ventana	34.043	00:21:58:05	8.839	Anthozoa	Pennatulidae	Ptilosarcus			Animalia	Pennatulacea	Cnidaria	Ptilosarcus gurneyi	Octocorallia			Subselliflorae				Eukaryota		V3169-01
 	cruise	Pleurobranchaea californica	77.4	3169	07:42:05:11	 	36.87651	-122.06694	2483690	2.58	51:45.0	Ventana	33.983	02:49:18:05	9.211	Gastropoda	Pleurobranchidae	Pleurobranchaea			Animalia	Notaspidea	Mollusca	Pleurobranchaea californica	Opisthobranchia						Pleurobranchiacea	Eukaryota		V3169-03
 	cruise	Luidia foliolata	95.11	3169	05:34:58:03	 	36.856693	-122.11033	2477057	2.37	41:46.0	Ventana	34.039	00:40:32:14	8.86		Luidiidae	Luidia			Animalia	Platyasterida	Echinodermata	Luidia foliolata	Asteroidea							Eukaryota		V3169-01
 	cruise	Metridium farcimen	94.7	3169	05:55:09:02	 	36.857204	-122.10904	2478499	2.4	02:19.0	Ventana	34.035	01:00:33:23	8.888	Anthozoa	Metridiidae	Metridium			Animalia	Actiniaria	Cnidaria	Metridium farcimen	Hexacorallia			Nyantheae				Eukaryota		V3169-02
 	cruise	Laminariales	82.5	3169	07:23:10:16	 	36.872944	-122.07473	2483471	2.53	32:49.0	Ventana	33.992	02:30:24:06	9.153	Phaeophyceae					Chromista	Laminariales	Phaeophycophyta									Eukaryota		V3169-03
 	cruise	Ptilosarcus gurneyi	93.18	3169	06:04:25:00	 	36.85867	-122.10603	2478681	2.42	11:36.0	Ventana	34.033	01:09:48:17	8.905	Anthozoa	Pennatulidae	Ptilosarcus			Animalia	Pennatulacea	Cnidaria	Ptilosarcus gurneyi	Octocorallia			Subselliflorae				Eukaryota		V3169-02
 	cruise	Ptilosarcus gurneyi	93.22	3169	06:03:29:02	 	36.858513	-122.106316	2478651	2.41	10:40.0	Ventana	34.033	01:08:51:27	8.903	Anthozoa	Pennatulidae	Ptilosarcus			Animalia	Pennatulacea	Cnidaria	Ptilosarcus gurneyi	Octocorallia			Subselliflorae				Eukaryota		V3169-02
 	cruise	Metridium farcimen	89.48	3169	06:48:44:09	http://search.mbari.org/ARCHIVE/frameGrabs/Ventana/images/3169/01_54_07_13.jpg	36.865974	-122.089935	2480260	2.44	55:58.0	Ventana	34.011	01:54:07:13	9.033	Anthozoa	Metridiidae	Metridium			Animalia	Actiniaria	Cnidaria	Metridium farcimen	Hexacorallia			Nyantheae				Eukaryota		V3169-02
 	cruise	Phyllospadix	85.97	3169	07:06:30:17	 	36.86985	-122.0815	2483208	2.51	16:08.0	Ventana	34.001	02:13:43:24	9.099		Zosteraceae	Phyllospadix			Plantae	Najadales										Eukaryota		V3169-03
 	cruise	Ceriantharia	83.95	3169	07:15:56:29	http://search.mbari.org/ARCHIVE/frameGrabs/Ventana/images/3169/02_23_10_08.jpg	36.871513	-122.07779	2483351	2.52	25:35.0	Ventana	33.997	02:23:10:08	9.128	Anthozoa					Animalia	Ceriantharia	Cnidaria		Ceriantipatharia							Eukaryota		V3169-03
 	cruise	Metridium farcimen	78.6	3169	07:38:06:03	 	36.87564	-122.068855	2483651	2.56	47:46.0	Ventana	33.986	02:45:18:26	9.191	Anthozoa	Metridiidae	Metridium			Animalia	Actiniaria	Cnidaria	Metridium farcimen	Hexacorallia			Nyantheae				Eukaryota		V3169-03
 	cruise	trench	83.31	3169	07:18:47:09	http://search.mbari.org/ARCHIVE/frameGrabs/Ventana/images/3169/02_26_01_01.jpg	36.87205	-122.07654	20024190	2.52	28:26.0	Ventana	33.996	02:26:01:01	9.134																			V3169-03
 	cruise	Pleuronectiformes	79.25	3169	07:35:11:09	 	36.874985	-122.07029	2483621	2.56	44:51.0	Ventana	33.988	02:42:24:04	9.182	Osteichthyes			Neopterygii		Animalia	Pleuronectiformes	Chordata		Actinopterygii				Vertebrata	Gnathostomata		Eukaryota	Acanthopterygii	V3169-03
 	cruise	Metridium farcimen	92.33	3169	06:15:03:26	 	36.86021	-122.10257	2478981	2.45	22:15.0	Ventana	34.027	01:20:28:10	8.941	Anthozoa	Metridiidae	Metridium			Animalia	Actiniaria	Cnidaria	Metridium farcimen	Hexacorallia			Nyantheae				Eukaryota		V3169-02
 	cruise	Rathbunaster californicus	90.09	3169	06:42:43:05	 	36.86499	-122.092415	2480177	2.46	49:56.0	Ventana	34.014	01:48:06:26	9.018		Labidiasteridae	Rathbunaster			Animalia	Forcipulatida	Echinodermata	Rathbunaster californicus	Asteroidea							Eukaryota		V3169-02
 	cruise	trench	90.31	3169	06:42:10:21	http://search.mbari.org/ARCHIVE/frameGrabs/Ventana/images/3169/01_47_35_04.jpg	36.86489	-122.09258	2479320	2.46	49:24.0	Ventana	34.015	01:47:35:04	9.016																			V3169-02
 	cruise	Metridium farcimen	97.97	3169	05:14:43:09	 	36.853848	-122.11667	2476921	2.34	21:30.0	Ventana	34.046	00:20:17:04	8.826	Anthozoa	Metridiidae	Metridium			Animalia	Actiniaria	Cnidaria	Metridium farcimen	Hexacorallia			Nyantheae				Eukaryota		V3169-01
 	cruise	Metridium farcimen	75.55	3169	07:47:28:17	 	36.877693	-122.06457	2483757	2.6	57:09.0	Ventana	33.978	02:54:41:09	9.243	Anthozoa	Metridiidae	Metridium			Animalia	Actiniaria	Cnidaria	Metridium farcimen	Hexacorallia			Nyantheae				Eukaryota		V3169-03
 	cruise	Luidia foliolata	92.56	3169	06:11:02:18	 	36.859543	-122.104065	2478921	2.45	18:14.0	Ventana	34.028	01:16:26:25	8.93		Luidiidae	Luidia			Animalia	Platyasterida	Echinodermata	Luidia foliolata	Asteroidea							Eukaryota		V3169-02
 	descend	surface water	 	3169	 	 	 	 	2476695	 	 	Ventana	 	00:06:05:09	 																			V3169-01
 	transect	Phyllospadix	94.78	3169	05:52:06:16	 	36.85677	-122.10886	2478455	2.39	58:56.0	Ventana	34.036	00:57:41:20	8.879		Zosteraceae	Phyllospadix			Plantae	Najadales										Eukaryota		V3169-01
 	cruise	trench	91.67	3169	06:19:23:03	http://search.mbari.org/ARCHIVE/frameGrabs/Ventana/images/3169/01_24_46_21.jpg	36.861015	-122.10096	2479177	2.48	26:35.0	Ventana	34.024	01:24:46:21	8.956																			V3169-02
 	cruise	Metridium farcimen	77.79	3169	07:40:25:00	 	36.876106	-122.06788	2483674	2.57	50:05.0	Ventana	33.985	02:47:38:26	9.201	Anthozoa	Metridiidae	Metridium			Animalia	Actiniaria	Cnidaria	Metridium farcimen	Hexacorallia			Nyantheae				Eukaryota		V3169-03
 	cruise	trench	74.75	3169	07:52:05:23	http://search.mbari.org/ARCHIVE/frameGrabs/Ventana/images/3169/02_59_17_29.jpg	36.87813	-122.06316	20024197	2.62	01:46.0	Ventana	33.974	02:59:17:29	9.267																			V3169-03
 	cruise	trench	97.37	3169	05:17:37:19	http://search.mbari.org/ARCHIVE/frameGrabs/Ventana/images/3169/00_23_11_20.jpg	36.854183	-122.11566	2476947	2.35	24:25.0	Ventana	34.044	00:23:11:20	8.829																			V3169-01
 	cruise	Phyllospadix	86.97	3169	07:00:18:28	 	36.868656	-122.0841	2480755	2.5	09:56.0	Ventana	34.005	02:07:31:26	9.069		Zosteraceae	Phyllospadix			Plantae	Najadales										Eukaryota		V3169-03
 	cruise	Metridium farcimen	94.24	3169	05:56:37:15	 	36.857418	-122.1086	2478539	2.4	03:48.0	Ventana	34.035	01:02:00:14	8.892	Anthozoa	Metridiidae	Metridium			Animalia	Actiniaria	Cnidaria	Metridium farcimen	Hexacorallia			Nyantheae				Eukaryota		V3169-02
 	cruise	Metridium farcimen	88.15	3169	06:55:40:11	 	36.86727	-122.08707	2480282	2.49	02:54.0	Ventana	34.009	02:01:03:05	9.047	Anthozoa	Metridiidae	Metridium			Animalia	Actiniaria	Cnidaria	Metridium farcimen	Hexacorallia			Nyantheae				Eukaryota		V3169-02
 	cruise	Rathbunaster californicus	89.48	3169	06:47:20:11	 	36.865723	-122.09056	2480252	2.43	54:33.0	Ventana	34.012	01:52:43:13	9.029		Labidiasteridae	Rathbunaster			Animalia	Forcipulatida	Echinodermata	Rathbunaster californicus	Asteroidea							Eukaryota		V3169-02
 	cruise	Metridium farcimen	76.94	3169	07:43:07:10	 	36.876694	-122.066536	2483699	2.58	52:47.0	Ventana	33.982	02:50:21:09	9.218	Anthozoa	Metridiidae	Metridium			Animalia	Actiniaria	Cnidaria	Metridium farcimen	Hexacorallia			Nyantheae				Eukaryota		V3169-03
 	cruise	trench	83.8	3169	07:16:24:28	http://search.mbari.org/ARCHIVE/frameGrabs/Ventana/images/3169/02_23_39_04.jpg	36.8716	-122.07759	2483369	2.52	26:03.0	Ventana	33.997	02:23:39:04	9.129																			V3169-03
 	cruise	Metridium farcimen	86.24	3169	07:04:56:05	 	36.86954	-122.08213	2483136	2.51	14:34.0	Ventana	34.002	02:12:09:28	9.091	Anthozoa	Metridiidae	Metridium			Animalia	Actiniaria	Cnidaria	Metridium farcimen	Hexacorallia			Nyantheae				Eukaryota		V3169-03
 	cruise	Pleurobranchaea californica	96.63	3169	05:24:11:21	 	36.855164	-122.11358	2477014	2.35	30:59.0	Ventana	34.042	00:29:45:27	8.84	Gastropoda	Pleurobranchidae	Pleurobranchaea			Animalia	Notaspidea	Mollusca	Pleurobranchaea californica	Opisthobranchia						Pleurobranchiacea	Eukaryota		V3169-01
 	cruise	Metridium farcimen	86.47	3169	07:03:41:22	 	36.869343	-122.0826	2480808	2.51	13:19.0	Ventana	34.003	02:10:55:13	9.084	Anthozoa	Metridiidae	Metridium			Animalia	Actiniaria	Cnidaria	Metridium farcimen	Hexacorallia			Nyantheae				Eukaryota		V3169-03
 	cruise	Metridium farcimen	85.38	3169	07:09:39:11	 	36.870403	-122.08025	2483263	2.52	19:17.0	Ventana	33.998	02:16:53:14	9.114	Anthozoa	Metridiidae	Metridium			Animalia	Actiniaria	Cnidaria	Metridium farcimen	Hexacorallia			Nyantheae				Eukaryota		V3169-03
 	cruise	Ceriantharia	80.17	3169	07:32:12:29	 	36.874348	-122.07161	2483572	2.55	41:52.0	Ventana	33.989	02:39:25:09	9.175	Anthozoa					Animalia	Ceriantharia	Cnidaria		Ceriantipatharia							Eukaryota		V3169-03
 	cruise	Metridium farcimen	73.17	3169	08:00:31:12	 	36.879234	-122.06102	2483925	2.63	10:37.0	Ventana	33.968	03:07:33:11	9.306	Anthozoa	Metridiidae	Metridium			Animalia	Actiniaria	Cnidaria	Metridium farcimen	Hexacorallia			Nyantheae				Eukaryota		V3169-04
 	cruise	Pleuronectiformes	90.31	3169	06:42:10:21	http://search.mbari.org/ARCHIVE/frameGrabs/Ventana/images/3169/01_47_35_04.jpg	36.86489	-122.09258	2479321	2.46	49:24.0	Ventana	34.015	01:47:35:04	9.016	Osteichthyes			Neopterygii		Animalia	Pleuronectiformes	Chordata		Actinopterygii				Vertebrata	Gnathostomata		Eukaryota	Acanthopterygii	V3169-02
 	cruise	Ceriantharia	91.07	3169	06:30:39:27	 	36.862892	-122.09697	2479268	2.52	37:52.0	Ventana	34.02	01:36:02:20	8.986	Anthozoa					Animalia	Ceriantharia	Cnidaria		Ceriantipatharia							Eukaryota		V3169-02
 	cruise	Squalus acanthias	82.43	3169	07:22:44:17	http://search.mbari.org/ARCHIVE/frameGrabs/Ventana/images/3169/02_29_56_28.jpg	36.872894	-122.07484	2483459	2.53	32:23.0	Ventana	33.993	02:29:56:28	9.151	Chondrichthyes	Squalidae	Squalus			Animalia	Squaliformes	Chordata	Squalus acanthias	Elasmobranchii				Vertebrata			Eukaryota	Squalomorphi	V3169-03
 	cruise	Metridium farcimen	90.75	3169	06:35:43:03	 	36.863735	-122.09502	2479298	2.56	42:56.0	Ventana	34.017	01:41:07:22	9.002	Anthozoa	Metridiidae	Metridium			Animalia	Actiniaria	Cnidaria	Metridium farcimen	Hexacorallia			Nyantheae				Eukaryota		V3169-02
 	cruise	Metridium farcimen	83.5	3169	07:17:14:27	 	36.87179	-122.07716	2483376	2.52	26:53.0	Ventana	33.995	02:24:27:11	9.132	Anthozoa	Metridiidae	Metridium			Animalia	Actiniaria	Cnidaria	Metridium farcimen	Hexacorallia			Nyantheae				Eukaryota		V3169-03
 	cruise	Pennatulacea	82.43	3169	07:25:21:12	http://search.mbari.org/ARCHIVE/frameGrabs/Ventana/images/3169/02_32_34_11.jpg	36.87324	-122.074036	2483489	2.54	35:00.0	Ventana	33.991	02:32:34:11	9.159	Anthozoa					Animalia	Pennatulacea	Cnidaria		Octocorallia							Eukaryota		V3169-03
 	cruise	Ptilosarcus gurneyi	83.95	3169	07:15:48:14	 	36.87149	-122.07784	2483346	2.52	25:27.0	Ventana	33.997	02:23:01:11	9.128	Anthozoa	Pennatulidae	Ptilosarcus			Animalia	Pennatulacea	Cnidaria	Ptilosarcus gurneyi	Octocorallia			Subselliflorae				Eukaryota		V3169-03
 	cruise	Luidia foliolata	92.97	3169	06:05:05:14	 	36.858795	-122.10576	2478689	2.42	12:16.0	Ventana	34.032	01:10:28:11	8.907		Luidiidae	Luidia			Animalia	Platyasterida	Echinodermata	Luidia foliolata	Asteroidea							Eukaryota		V3169-02
 	cruise	Metridium farcimen	80.4	3169	07:31:42:15	 	36.874237	-122.07182	2483563	2.55	41:22.0	Ventana	33.99	02:38:56:16	9.174	Anthozoa	Metridiidae	Metridium			Animalia	Actiniaria	Cnidaria	Metridium farcimen	Hexacorallia			Nyantheae				Eukaryota		V3169-03
 	cruise	Pleurobranchaea californica	97.18	3169	05:19:42:15	 	36.854485	-122.115036	2476961	2.35	26:30.0	Ventana	34.044	00:25:16:18	8.829	Gastropoda	Pleurobranchidae	Pleurobranchaea			Animalia	Notaspidea	Mollusca	Pleurobranchaea californica	Opisthobranchia						Pleurobranchiacea	Eukaryota		V3169-01
 	cruise	Luidia foliolata	86.05	3169	07:05:52:03	 	36.869728	-122.08175	2483180	2.51	15:30.0	Ventana	34.002	02:13:05:06	9.095		Luidiidae	Luidia			Animalia	Platyasterida	Echinodermata	Luidia foliolata	Asteroidea							Eukaryota		V3169-03
 	cruise	trench	87.36	3169	06:59:45:00	http://search.mbari.org/ARCHIVE/frameGrabs/Ventana/images/3169/02_06_57_06.jpg	36.868546	-122.084335	2480739	2.5	09:22.0	Ventana	34.006	02:06:57:06	9.066																			V3169-03
 	cruise	trench	93.26	3169	06:03:19:02	http://search.mbari.org/ARCHIVE/frameGrabs/Ventana/images/3169/01_08_43_18.jpg	36.858486	-122.10636	2478638	2.42	10:30.0	Ventana	34.033	01:08:43:18	8.903																			V3169-02
 	cruise	Rathbunaster californicus	88.9	3169	06:50:37:05	 	36.866314	-122.08921	2480266	2.45	57:50.0	Ventana	34.011	01:56:01:12	9.037		Labidiasteridae	Rathbunaster			Animalia	Forcipulatida	Echinodermata	Rathbunaster californicus	Asteroidea							Eukaryota		V3169-02
 	cruise	Laminariales	74.76	3169	07:50:41:11	 	36.87794	-122.06359	2483796	2.61	00:22.0	Ventana	33.976	02:57:54:27	9.259	Phaeophyceae					Chromista	Laminariales	Phaeophycophyta									Eukaryota		V3169-03
 	cruise	Rathbunaster californicus	96.37	3169	05:25:58:03	 	36.85544	-122.11297	2477021	2.36	32:46.0	Ventana	34.04	00:31:32:09	8.851		Labidiasteridae	Rathbunaster			Animalia	Forcipulatida	Echinodermata	Rathbunaster californicus	Asteroidea							Eukaryota		V3169-01
 	endtransect	Rathbunaster californicus	92.85	3169	06:06:37:26	http://search.mbari.org/ARCHIVE/frameGrabs/Ventana/images/3169/01_12_01_04.jpg	36.85896	-122.10533	2478495	2.43	13:49.0	Ventana	34.031	01:12:01:04	8.914		Labidiasteridae	Rathbunaster			Animalia	Forcipulatida	Echinodermata	Rathbunaster californicus	Asteroidea							Eukaryota		V3169-02
 	cruise	Pennatulacea	87.39	3169	06:58:38:17	http://search.mbari.org/ARCHIVE/frameGrabs/Ventana/images/3169/02_05_51_20.jpg	36.86834	-122.084755	2480656	2.5	08:16.0	Ventana	34.007	02:05:51:20	9.064	Anthozoa					Animalia	Pennatulacea	Cnidaria		Octocorallia							Eukaryota		V3169-03
 	cruise	Pleuronectiformes	82.19	3169	07:22:34:17	 	36.872887	-122.07486	2483450	2.53	32:13.0	Ventana	33.993	02:29:47:13	9.15	Osteichthyes			Neopterygii		Animalia	Pleuronectiformes	Chordata		Actinopterygii				Vertebrata	Gnathostomata		Eukaryota	Acanthopterygii	V3169-03
 	cruise	Metridium farcimen	84.69	3169	07:12:01:22	http://search.mbari.org/ARCHIVE/frameGrabs/Ventana/images/3169/02_19_15_09.jpg	36.870827	-122.079346	2483293	2.52	21:40.0	Ventana	33.997	02:19:15:09	9.121	Anthozoa	Metridiidae	Metridium			Animalia	Actiniaria	Cnidaria	Metridium farcimen	Hexacorallia			Nyantheae				Eukaryota		V3169-03
 	cruise	Luidia foliolata	95.46	3169	05:33:54:04	 	36.856525	-122.110725	2477051	2.36	40:42.0	Ventana	34.038	00:39:28:22	8.857		Luidiidae	Luidia			Animalia	Platyasterida	Echinodermata	Luidia foliolata	Asteroidea							Eukaryota		V3169-01
 	cruise	Luidia foliolata	86.65	3169	07:02:51:23	 	36.869133	-122.08305	2480799	2.51	12:29.0	Ventana	34.003	02:10:05:06	9.082		Luidiidae	Luidia			Animalia	Platyasterida	Echinodermata	Luidia foliolata	Asteroidea							Eukaryota		V3169-03
 	cruise	Phyllospadix	82.47	3169	07:24:06:29	 	36.873093	-122.074425	2483480	2.54	33:46.0	Ventana	33.993	02:31:19:20	9.155		Zosteraceae	Phyllospadix			Plantae	Najadales										Eukaryota		V3169-03
 	cruise	Pleuronectiformes	80.39	3169	07:31:24:16	 	36.874176	-122.07195	2483556	2.55	41:04.0	Ventana	33.989	02:38:38:08	9.174	Osteichthyes			Neopterygii		Animalia	Pleuronectiformes	Chordata		Actinopterygii				Vertebrata	Gnathostomata		Eukaryota	Acanthopterygii	V3169-03
 	cruise	trench	73.62	3169	07:58:41:00	http://search.mbari.org/ARCHIVE/frameGrabs/Ventana/images/3169/03_05_41_29.jpg	36.878944	-122.06136	2483909	2.63	08:46.0	Ventana	33.968	03:05:41:29	9.303																			V3169-04
 	cruise	Luidia foliolata	91.82	3169	06:18:18:20	 	36.860813	-122.10133	2479164	2.48	25:30.0	Ventana	34.024	01:23:41:29	8.953		Luidiidae	Luidia			Animalia	Platyasterida	Echinodermata	Luidia foliolata	Asteroidea							Eukaryota		V3169-02
 	cruise	Rathbunaster californicus	95.98	3169	05:27:54:15	 	36.855713	-122.11238	2477028	2.36	34:42.0	Ventana	34.04	00:33:28:25	8.847		Labidiasteridae	Rathbunaster			Animalia	Forcipulatida	Echinodermata	Rathbunaster californicus	Asteroidea							Eukaryota		V3169-01
 	cruise	Metridium farcimen	84.07	3169	07:15:00:16	 	36.87135	-122.07813	2483330	2.52	24:39.0	Ventana	33.996	02:22:12:25	9.128	Anthozoa	Metridiidae	Metridium			Animalia	Actiniaria	Cnidaria	Metridium farcimen	Hexacorallia			Nyantheae				Eukaryota		V3169-03
 	cruise	Metridium farcimen	88.55	3169	06:54:21:29	 	36.867035	-122.08766	2480273	2.49	01:36.0	Ventana	34.009	01:59:46:16	9.043	Anthozoa	Metridiidae	Metridium			Animalia	Actiniaria	Cnidaria	Metridium farcimen	Hexacorallia			Nyantheae				Eukaryota		V3169-02
 	cruise	Ceriantharia	91.51	3169	06:26:46:19	 	36.862183	-122.09845	2479254	2.49	33:59.0	Ventana	34.021	01:32:10:09	8.975	Anthozoa					Animalia	Ceriantharia	Cnidaria		Ceriantipatharia							Eukaryota		V3169-02
 	cruise	Luidia foliolata	95.02	3169	05:36:30:15	 	36.85694	-122.10975	2477069	2.37	43:19.0	Ventana	34.039	00:42:04:08	8.862		Luidiidae	Luidia			Animalia	Platyasterida	Echinodermata	Luidia foliolata	Asteroidea							Eukaryota		V3169-01
 	cruise	Phyllospadix	87.54	3169	06:58:52:16	 	36.86838	-122.08468	2480723	2.5	08:30.0	Ventana	34.006	02:06:06:16	9.064		Zosteraceae	Phyllospadix			Plantae	Najadales										Eukaryota		V3169-03
 	transect	Phyllospadix	94.69	3169	05:51:04:18	 	36.856846	-122.108635	2478421	2.39	57:54.0	Ventana	34.035	00:56:39:19	8.881		Zosteraceae	Phyllospadix			Plantae	Najadales										Eukaryota		V3169-01
 	cruise	Laminariales	87.16	3169	07:00:10:28	 	36.86863	-122.08416	2480753	2.5	09:48.0	Ventana	34.006	02:07:25:03	9.068	Phaeophyceae					Chromista	Laminariales	Phaeophycophyta									Eukaryota		V3169-03
 	endtransect	trench	93.39	3169	06:00:58:07	http://search.mbari.org/ARCHIVE/frameGrabs/Ventana/images/3169/01_06_21_15.jpg	36.858177	-122.106964	20024178	2.41	08:09.0	Ventana	34.033	01:06:21:15	8.901																			V3169-02
 	cruise	Laminariales	85.29	3169	07:09:23:12	 	36.870354	-122.08037	2483258	2.52	19:01.0	Ventana	33.999	02:16:35:05	9.112	Phaeophyceae					Chromista	Laminariales	Phaeophycophyta									Eukaryota		V3169-03
 	cruise	Phyllospadix	90.16	3169	06:42:31:05	 	36.864956	-122.09248	2480167	2.45	49:44.0	Ventana	34.014	01:47:53:27	9.016		Zosteraceae	Phyllospadix			Plantae	Najadales										Eukaryota		V3169-02
 	cruise	Laminariales	90.53	3169	06:37:55:29	 	36.86411	-122.094154	2479307	2.58	45:09.0	Ventana	34.016	01:43:19:02	9.007	Phaeophyceae					Chromista	Laminariales	Phaeophycophyta									Eukaryota		V3169-02
 	cruise	Luidia foliolata	93.93	3169	05:58:09:27	 	36.85771	-122.10798	2478541	2.41	05:20.0	Ventana	34.034	01:03:32:26	8.897		Luidiidae	Luidia			Animalia	Platyasterida	Echinodermata	Luidia foliolata	Asteroidea							Eukaryota		V3169-02
 	cruise	Ptilosarcus gurneyi	92.9	3169	06:06:25:27	 	36.858948	-122.10538	2478714	2.42	13:36.0	Ventana	34.032	01:11:50:08	8.913	Anthozoa	Pennatulidae	Ptilosarcus			Animalia	Pennatulacea	Cnidaria	Ptilosarcus gurneyi	Octocorallia			Subselliflorae				Eukaryota		V3169-02
 	cruise	Luidia foliolata	85.69	3169	07:07:56:29	 	36.87011	-122.08091	2483228	2.51	17:34.0	Ventana	33.999	02:15:09:10	9.108		Luidiidae	Luidia			Animalia	Platyasterida	Echinodermata	Luidia foliolata	Asteroidea							Eukaryota		V3169-03
 	cruise	trench	88.42	3169	06:55:03:27	http://search.mbari.org/ARCHIVE/frameGrabs/Ventana/images/3169/02_00_28_11.jpg	36.86716	-122.08734	2480280	2.49	02:18.0	Ventana	34.009	02:00:28:11	9.045																			V3169-02
 	cruise	Metridium farcimen	76.1	3169	07:45:30:06	 	36.877197	-122.06549	2483731	2.6	55:10.0	Ventana	33.979	02:52:44:01	9.233	Anthozoa	Metridiidae	Metridium			Animalia	Actiniaria	Cnidaria	Metridium farcimen	Hexacorallia			Nyantheae				Eukaryota		V3169-03
 	cruise	Metridium farcimen	97.79	3169	05:15:19:08	 	36.853928	-122.11644	2476926	2.34	22:06.0	Ventana	34.045	00:20:53:11	8.826	Anthozoa	Metridiidae	Metridium			Animalia	Actiniaria	Cnidaria	Metridium farcimen	Hexacorallia			Nyantheae				Eukaryota		V3169-01
 	cruise	Ceriantharia	90.95	3169	06:32:18:09	 	36.86318	-122.09635	2479277	2.54	39:31.0	Ventana	34.018	01:37:42:23	8.993	Anthozoa					Animalia	Ceriantharia	Cnidaria		Ceriantipatharia							Eukaryota		V3169-02
 	cruise	Laminariales	82.94	3169	07:19:55:22	 	36.87227	-122.076065	2483401	2.52	29:34.0	Ventana	33.995	02:27:09:16	9.138	Phaeophyceae					Chromista	Laminariales	Phaeophycophyta									Eukaryota		V3169-03
 	cruise	Luidia foliolata	91.69	3169	06:19:35:03	 	36.861046	-122.10091	2479180	2.48	26:47.0	Ventana	34.024	01:24:58:04	8.957		Luidiidae	Luidia			Animalia	Platyasterida	Echinodermata	Luidia foliolata	Asteroidea							Eukaryota		V3169-02
 	cruise	Pleuronectiformes	91.64	3169	06:22:47:26	 	36.86149	-122.099976	2479210	2.49	30:00.0	Ventana	34.023	01:28:12:14	8.963	Osteichthyes			Neopterygii		Animalia	Pleuronectiformes	Chordata		Actinopterygii				Vertebrata	Gnathostomata		Eukaryota	Acanthopterygii	V3169-02
 	cruise	Metridium farcimen	77.07	3169	07:42:33:10	 	36.876583	-122.06678	2483694	2.58	52:13.0	Ventana	33.983	02:49:46:12	9.216	Anthozoa	Metridiidae	Metridium			Animalia	Actiniaria	Cnidaria	Metridium farcimen	Hexacorallia			Nyantheae				Eukaryota		V3169-03
 	cruise	Pleuronectiformes	91.55	3169	06:24:16:09	 	36.861748	-122.09944	2479240	2.47	31:28.0	Ventana	34.022	01:29:39:29	8.967	Osteichthyes			Neopterygii		Animalia	Pleuronectiformes	Chordata		Actinopterygii				Vertebrata	Gnathostomata		Eukaryota	Acanthopterygii	V3169-02
 	cruise	trench	88.11	3169	06:56:38:09	http://search.mbari.org/ARCHIVE/frameGrabs/Ventana/images/3169/02_02_02_08.jpg	36.86746	-122.086655	2480287	2.49	03:52.0	Ventana	34.009	02:02:02:08	9.048																			V3169-02
 	cruise	Metridium farcimen	84.29	3169	07:14:34:17	 	36.871277	-122.0783	2483325	2.52	24:12.0	Ventana	33.997	02:21:48:07	9.125	Anthozoa	Metridiidae	Metridium			Animalia	Actiniaria	Cnidaria	Metridium farcimen	Hexacorallia			Nyantheae				Eukaryota		V3169-03
 	cruise	Pleuronectiformes	87.39	3169	06:58:38:17	 	36.86834	-122.084755	2480716	2.5	08:16.0	Ventana	34.007	02:05:51:19	9.064	Osteichthyes			Neopterygii		Animalia	Pleuronectiformes	Chordata		Actinopterygii				Vertebrata	Gnathostomata		Eukaryota	Acanthopterygii	V3169-03
 	cruise	Laminariales	78.16	3169	07:39:26:16	 	36.875893	-122.06835	2483664	2.57	49:06.0	Ventana	33.985	02:46:39:20	9.196	Phaeophyceae					Chromista	Laminariales	Phaeophycophyta									Eukaryota		V3169-03
 	cruise	trench	87.3	3169	06:58:46:16	http://search.mbari.org/ARCHIVE/frameGrabs/Ventana/images/3169/02_06_00_07.jpg	36.868362	-122.08471	20024185	2.5	08:24.0	Ventana	34.006	02:06:00:07	9.064																			V3169-03
 	transect	Phyllospadix	94.83	3169	05:52:10:15	 	36.856766	-122.108864	2478458	2.39	59:00.0	Ventana	34.036	00:57:44:27	8.879		Zosteraceae	Phyllospadix			Plantae	Najadales										Eukaryota		V3169-01
 	cruise	trench	92.34	3169	06:15:17:25	http://search.mbari.org/ARCHIVE/frameGrabs/Ventana/images/3169/01_20_42_02.jpg	36.860252	-122.10249	2478984	2.46	22:29.0	Ventana	34.027	01:20:42:02	8.941																			V3169-02
 	cruise	Pleuronectiformes	85.44	3169	07:08:28:28	 	36.870193	-122.08071	2483235	2.51	18:07.0	Ventana	34	02:15:42:06	9.108	Osteichthyes			Neopterygii		Animalia	Pleuronectiformes	Chordata		Actinopterygii				Vertebrata	Gnathostomata		Eukaryota	Acanthopterygii	V3169-03
 	cruise	trench	91.18	3169	06:30:49:27	http://search.mbari.org/ARCHIVE/frameGrabs/Ventana/images/3169/01_36_14_10.jpg	36.86292	-122.0969	2479270	2.53	38:02.0	Ventana	34.019	01:36:14:10	8.989																			V3169-02
 	cruise	Rathbunaster californicus	82.85	3169	07:20:30:06	 	36.87238	-122.07584	2483408	2.52	30:08.0	Ventana	33.995	02:27:42:20	9.141		Labidiasteridae	Rathbunaster			Animalia	Forcipulatida	Echinodermata	Rathbunaster californicus	Asteroidea							Eukaryota		V3169-03
 	cruise	Metridium farcimen	75.54	3169	07:47:16:17	 	36.877583	-122.06478	2483754	2.6	56:57.0	Ventana	33.978	02:54:29:29	9.242	Anthozoa	Metridiidae	Metridium			Animalia	Actiniaria	Cnidaria	Metridium farcimen	Hexacorallia			Nyantheae				Eukaryota		V3169-03
 	cruise	Rathbunaster californicus	93.46	3169	06:00:02:08	 	36.858055	-122.10727	2478548	2.41	07:13.0	Ventana	34.033	01:05:25:07	8.899		Labidiasteridae	Rathbunaster			Animalia	Forcipulatida	Echinodermata	Rathbunaster californicus	Asteroidea							Eukaryota		V3169-02
 	transect	Phyllospadix	94.79	3169	05:52:29:00	 	36.856747	-122.108925	2478467	2.39	59:18.0	Ventana	34.036	00:58:03:06	8.881		Zosteraceae	Phyllospadix			Plantae	Najadales										Eukaryota		V3169-01
 	cruise	Laminariales	87.18	3169	06:59:26:15	 	36.86849	-122.08446	2480737	2.5	09:04.0	Ventana	34.006	02:06:40:03	9.065	Phaeophyceae					Chromista	Laminariales	Phaeophycophyta									Eukaryota		V3169-03
 	cruise	trench	80.07	3169	07:32:48:28	http://search.mbari.org/ARCHIVE/frameGrabs/Ventana/images/3169/02_40_01_05.jpg	36.874474	-122.07135	20024194	2.55	42:28.0	Ventana	33.988	02:40:01:05	9.177																			V3169-03
 	cruise	Luidia foliolata	95.33	3169	05:34:08:03	 	36.856564	-122.11065	2477053	2.37	40:56.0	Ventana	34.039	00:39:42:21	8.858		Luidiidae	Luidia			Animalia	Platyasterida	Echinodermata	Luidia foliolata	Asteroidea							Eukaryota		V3169-01
 	cruise	Luidia foliolata	86.26	3169	07:05:12:04	 	36.8696	-122.08202	2483152	2.51	14:50.0	Ventana	34.002	02:12:24:12	9.091		Luidiidae	Luidia			Animalia	Platyasterida	Echinodermata	Luidia foliolata	Asteroidea							Eukaryota		V3169-03
 	transect	Phyllospadix	94.35	3169	05:48:09:23	 	36.857025	-122.10813	2478354	2.39	54:59.0	Ventana	34.036	00:53:44:15	8.883		Zosteraceae	Phyllospadix			Plantae	Najadales										Eukaryota		V3169-01
 	cruise	Ptilosarcus gurneyi	85.96	3169	07:06:44:16	 	36.869892	-122.08141	2483212	2.51	16:22.0	Ventana	34.001	02:13:58:03	9.099	Anthozoa	Pennatulidae	Ptilosarcus			Animalia	Pennatulacea	Cnidaria	Ptilosarcus gurneyi	Octocorallia			Subselliflorae				Eukaryota		V3169-03
 	cruise	Rathbunaster californicus	91.22	3169	06:29:07:15	 	36.86262	-122.09757	2479263	2.52	36:20.0	Ventana	34.021	01:34:31:21	8.981		Labidiasteridae	Rathbunaster			Animalia	Forcipulatida	Echinodermata	Rathbunaster californicus	Asteroidea							Eukaryota		V3169-02
 	cruise	Laminariales	81.28	3169	07:28:21:21	 	36.873672	-122.07312	2483512	2.55	38:01.0	Ventana	33.99	02:35:35:13	9.167	Phaeophyceae					Chromista	Laminariales	Phaeophycophyta									Eukaryota		V3169-03
 	cruise	Luidia foliolata	92.39	3169	06:12:05:02	 	36.85972	-122.10368	2478933	2.45	19:16.0	Ventana	34.027	01:17:28:20	8.936		Luidiidae	Luidia			Animalia	Platyasterida	Echinodermata	Luidia foliolata	Asteroidea							Eukaryota		V3169-02
 	cruise	Metridium farcimen	90.87	3169	06:34:48:19	 	36.863586	-122.09535	2479293	2.56	42:01.0	Ventana	34.017	01:40:13:11	9	Anthozoa	Metridiidae	Metridium			Animalia	Actiniaria	Cnidaria	Metridium farcimen	Hexacorallia			Nyantheae				Eukaryota		V3169-02
 	cruise	Pleurobranchaea californica	78.62	3169	07:37:56:04	 	36.87563	-122.06888	2483648	2.56	47:36.0	Ventana	33.986	02:45:09:13	9.19	Gastropoda	Pleurobranchidae	Pleurobranchaea			Animalia	Notaspidea	Mollusca	Pleurobranchaea californica	Opisthobranchia						Pleurobranchiacea	Eukaryota		V3169-03
 	cruise	Mediaster aequalis	96.56	3169	05:29:30:26	http://search.mbari.org/ARCHIVE/frameGrabs/Ventana/images/3169/00_35_05_01.jpg	36.85583	-122.11214	2477030	2.36	36:19.0	Ventana	34.04	00:35:05:01	8.849		Goniasteridae	Mediaster			Animalia	Valvatida	Echinodermata	Mediaster aequalis	Asteroidea			Granulosina				Eukaryota		V3169-01
 	endtransect	Metridium farcimen	91.75	3169	06:19:59:02	http://search.mbari.org/ARCHIVE/frameGrabs/Ventana/images/3169/01_25_22_25.jpg	36.861095	-122.100815	2479196	2.48	27:11.0	Ventana	34.024	01:25:22:25	8.958	Anthozoa	Metridiidae	Metridium			Animalia	Actiniaria	Cnidaria	Metridium farcimen	Hexacorallia			Nyantheae				Eukaryota		V3169-02
 	cruise	trench	96.77	3169	05:22:20:25	http://search.mbari.org/ARCHIVE/frameGrabs/Ventana/images/3169/00_27_54_10.jpg	36.854893	-122.11418	20024171	2.35	29:08.0	Ventana	34.042	00:27:54:10	8.835																			V3169-01
 	cruise	Ceriantharia	91.68	3169	06:26:48:19	http://search.mbari.org/ARCHIVE/frameGrabs/Ventana/images/3169/01_32_13_03.jpg	36.86219	-122.098434	2479256	2.49	34:01.0	Ventana	34.021	01:32:13:03	8.975	Anthozoa					Animalia	Ceriantharia	Cnidaria		Ceriantipatharia							Eukaryota		V3169-02
 	cruise	Rathbunaster californicus	94.16	3169	05:45:20:28	http://search.mbari.org/ARCHIVE/frameGrabs/Ventana/images/3169/00_50_55_12.jpg	36.857304	-122.108055	2478331	2.39	52:10.0	Ventana	34.037	00:50:55:12	8.88		Labidiasteridae	Rathbunaster			Animalia	Forcipulatida	Echinodermata	Rathbunaster californicus	Asteroidea							Eukaryota		V3169-01
 	cruise	Laminariales	90.1	3169	06:42:55:05	 	36.86502	-122.09235	2480181	2.46	50:08.0	Ventana	34.014	01:48:18:23	9.018	Phaeophyceae					Chromista	Laminariales	Phaeophycophyta									Eukaryota		V3169-02
 	cruise	trench	86.64	3169	07:02:35:09	http://search.mbari.org/ARCHIVE/frameGrabs/Ventana/images/3169/02_09_48_23.jpg	36.869087	-122.08317	2480790	2.51	12:13.0	Ventana	34.003	02:09:48:23	9.082																			V3169-03
 	cruise	Luidia foliolata	73.62	3169	07:58:41:00	http://search.mbari.org/ARCHIVE/frameGrabs/Ventana/images/3169/03_05_41_29.jpg	36.878944	-122.06136	2483911	2.63	08:46.0	Ventana	33.968	03:05:41:29	9.303		Luidiidae	Luidia			Animalia	Platyasterida	Echinodermata	Luidia foliolata	Asteroidea							Eukaryota		V3169-04
